<?xml version='1.0' encoding='UTF-8'?><gpx version="1.1" creator="JPX - https://github.com/jenetics/jpx" xmlns="http://www.topografix.com/GPX/1/1"><trk><trkseg><trkpt lat="43.5978754" lon="13.021187"><ele>104.0</ele><time>2026-04-18T07:37:29.27Z</time></trkpt><trkpt lat="43.5980006" lon="13.0211732"><ele>104.0</ele><time>2026-04-18T07:37:31.27Z</time></trkpt><trkpt lat="43.598079" lon="13.0211651"><ele>104.0</ele><time>2026-04-18T07:37:32.271Z</time></trkpt><trkpt lat="43.5981653" lon="13.0211769"><ele>104.0</ele><time>2026-04-18T07:37:33.27Z</time></trkpt><trkpt lat="43.5982607" lon="13.0211943"><ele>104.0</ele><time>2026-04-18T07:37:34.271Z</time></trkpt><trkpt lat="43.5983632" lon="13.021222"><ele>104.0</ele><time>2026-04-18T07:37:35.271Z</time></trkpt><trkpt lat="43.5984756" lon="13.0212556"><ele>104.0</ele><time>2026-04-18T07:37:36.271Z</time></trkpt><trkpt lat="43.5985831" lon="13.0212883"><ele>104.0</ele><time>2026-04-18T07:37:37.271Z</time></trkpt><trkpt lat="43.5986921" lon="13.0213194"><ele>104.0</ele><time>2026-04-18T07:37:38.27Z</time></trkpt><trkpt lat="43.598805" lon="13.0213478"><ele>103.75</ele><time>2026-04-18T07:37:39.27Z</time></trkpt><trkpt lat="43.5989269" lon="13.0213751"><ele>103.5</ele><time>2026-04-18T07:37:40.27Z</time></trkpt><trkpt lat="43.5990411" lon="13.021415"><ele>103.25</ele><time>2026-04-18T07:37:41.27Z</time></trkpt><trkpt lat="43.5991634" lon="13.0214532"><ele>103.0</ele><time>2026-04-18T07:37:42.27Z</time></trkpt><trkpt lat="43.5992888" lon="13.0214875"><ele>103.0</ele><time>2026-04-18T07:37:43.27Z</time></trkpt><trkpt lat="43.5994203" lon="13.0215303"><ele>103.0</ele><time>2026-04-18T07:37:44.271Z</time></trkpt><trkpt lat="43.5995522" lon="13.0215691"><ele>103.0</ele><time>2026-04-18T07:37:45.27Z</time></trkpt><trkpt lat="43.5996901" lon="13.0215968"><ele>103.0</ele><time>2026-04-18T07:37:46.27Z</time></trkpt><trkpt lat="43.5998352" lon="13.0216128"><ele>104.0</ele><time>2026-04-18T07:37:47.271Z</time></trkpt><trkpt lat="43.5999844" lon="13.0216099"><ele>105.0</ele><time>2026-04-18T07:37:48.27Z</time></trkpt><trkpt lat="43.6001353" lon="13.0215884"><ele>106.0</ele><time>2026-04-18T07:37:49.271Z</time></trkpt><trkpt lat="43.6002888" lon="13.0215585"><ele>106.33333333333334</ele><time>2026-04-18T07:37:50.27Z</time></trkpt><trkpt lat="43.6004469" lon="13.0215328"><ele>106.66666666666666</ele><time>2026-04-18T07:37:51.27Z</time></trkpt><trkpt lat="43.6006047" lon="13.021505"><ele>107.0</ele><time>2026-04-18T07:37:52.271Z</time></trkpt><trkpt lat="43.6007626" lon="13.0214724"><ele>107.0</ele><time>2026-04-18T07:37:53.271Z</time></trkpt><trkpt lat="43.6009198" lon="13.0214392"><ele>107.0</ele><time>2026-04-18T07:37:54.27Z</time></trkpt><trkpt lat="43.6010749" lon="13.0214084"><ele>107.0</ele><time>2026-04-18T07:37:55.27Z</time></trkpt><trkpt lat="43.6012246" lon="13.0213787"><ele>107.5</ele><time>2026-04-18T07:37:56.271Z</time></trkpt><trkpt lat="43.6013695" lon="13.0213501"><ele>108.0</ele><time>2026-04-18T07:37:57.271Z</time></trkpt><trkpt lat="43.6015027" lon="13.0213221"><ele>108.5</ele><time>2026-04-18T07:37:58.27Z</time></trkpt><trkpt lat="43.6016305" lon="13.0212963"><ele>109.0</ele><time>2026-04-18T07:37:59.27Z</time></trkpt><trkpt lat="43.6017492" lon="13.0212725"><ele>109.0</ele><time>2026-04-18T07:38:00.271Z</time></trkpt><trkpt lat="43.6018606" lon="13.0212465"><ele>109.0</ele><time>2026-04-18T07:38:01.271Z</time></trkpt><trkpt lat="43.6019684" lon="13.0212239"><ele>109.0</ele><time>2026-04-18T07:38:02.271Z</time></trkpt><trkpt lat="43.6020681" lon="13.0212119"><ele>109.0</ele><time>2026-04-18T07:38:03.27Z</time></trkpt><trkpt lat="43.6021575" lon="13.0212062"><ele>109.0</ele><time>2026-04-18T07:38:04.271Z</time></trkpt><trkpt lat="43.6022384" lon="13.0212029"><ele>109.4</ele><time>2026-04-18T07:38:05.27Z</time></trkpt><trkpt lat="43.6023367" lon="13.0211835"><ele>109.80000000000001</ele><time>2026-04-18T07:38:07.271Z</time></trkpt><trkpt lat="43.6023907" lon="13.0210661"><ele>110.19999999999999</ele><time>2026-04-18T07:38:12.27Z</time></trkpt><trkpt lat="43.6023983" lon="13.0209489"><ele>110.6</ele><time>2026-04-18T07:38:13.27Z</time></trkpt><trkpt lat="43.6023816" lon="13.0208196"><ele>111.0</ele><time>2026-04-18T07:38:14.27Z</time></trkpt><trkpt lat="43.6023573" lon="13.0206816"><ele>111.0</ele><time>2026-04-18T07:38:15.27Z</time></trkpt><trkpt lat="43.6023435" lon="13.0205171"><ele>111.0</ele><time>2026-04-18T07:38:16.27Z</time></trkpt><trkpt lat="43.6023398" lon="13.0203216"><ele>111.0</ele><time>2026-04-18T07:38:17.27Z</time></trkpt><trkpt lat="43.6023336" lon="13.0201207"><ele>111.0</ele><time>2026-04-18T07:38:18.27Z</time></trkpt><trkpt lat="43.6023296" lon="13.0199182"><ele>111.33333333333334</ele><time>2026-04-18T07:38:19.271Z</time></trkpt><trkpt lat="43.6023275" lon="13.0196987"><ele>111.66666666666667</ele><time>2026-04-18T07:38:20.27Z</time></trkpt><trkpt lat="43.6023245" lon="13.0194617"><ele>112.0</ele><time>2026-04-18T07:38:21.271Z</time></trkpt><trkpt lat="43.6023235" lon="13.019214"><ele>113.0</ele><time>2026-04-18T07:38:22.27Z</time></trkpt><trkpt lat="43.6023222" lon="13.0189558"><ele>114.0</ele><time>2026-04-18T07:38:23.27Z</time></trkpt><trkpt lat="43.6023202" lon="13.0186832"><ele>115.0</ele><time>2026-04-18T07:38:24.271Z</time></trkpt><trkpt lat="43.6023178" lon="13.0184103"><ele>117.0</ele><time>2026-04-18T07:38:25.271Z</time></trkpt><trkpt lat="43.6023144" lon="13.018139"><ele>119.0</ele><time>2026-04-18T07:38:26.27Z</time></trkpt><trkpt lat="43.6023055" lon="13.017863"><ele>121.0</ele><time>2026-04-18T07:38:27.271Z</time></trkpt><trkpt lat="43.6022895" lon="13.0175853"><ele>122.0</ele><time>2026-04-18T07:38:28.27Z</time></trkpt><trkpt lat="43.6022613" lon="13.0173048"><ele>123.0</ele><time>2026-04-18T07:38:29.271Z</time></trkpt><trkpt lat="43.6022199" lon="13.0170214"><ele>124.0</ele><time>2026-04-18T07:38:30.27Z</time></trkpt><trkpt lat="43.6021684" lon="13.0167422"><ele>123.0</ele><time>2026-04-18T07:38:31.27Z</time></trkpt><trkpt lat="43.6021084" lon="13.0164679"><ele>122.0</ele><time>2026-04-18T07:38:32.27Z</time></trkpt><trkpt lat="43.6020418" lon="13.0161954"><ele>121.0</ele><time>2026-04-18T07:38:33.27Z</time></trkpt><trkpt lat="43.6019705" lon="13.0159208"><ele>118.66666666666667</ele><time>2026-04-18T07:38:34.27Z</time></trkpt><trkpt lat="43.6018973" lon="13.0156476"><ele>116.33333333333334</ele><time>2026-04-18T07:38:35.27Z</time></trkpt><trkpt lat="43.6018258" lon="13.0153782"><ele>114.0</ele><time>2026-04-18T07:38:36.27Z</time></trkpt><trkpt lat="43.6017568" lon="13.0151076"><ele>114.33333333333334</ele><time>2026-04-18T07:38:37.27Z</time></trkpt><trkpt lat="43.6016864" lon="13.0148377"><ele>114.66666666666667</ele><time>2026-04-18T07:38:38.27Z</time></trkpt><trkpt lat="43.601618" lon="13.0145611"><ele>115.0</ele><time>2026-04-18T07:38:39.27Z</time></trkpt><trkpt lat="43.6015469" lon="13.0142802"><ele>115.66666666666667</ele><time>2026-04-18T07:38:40.27Z</time></trkpt><trkpt lat="43.6014764" lon="13.0139979"><ele>116.33333333333334</ele><time>2026-04-18T07:38:41.271Z</time></trkpt><trkpt lat="43.601407" lon="13.0137238"><ele>117.0</ele><time>2026-04-18T07:38:42.27Z</time></trkpt><trkpt lat="43.6013393" lon="13.0134569"><ele>117.33333333333334</ele><time>2026-04-18T07:38:43.27Z</time></trkpt><trkpt lat="43.6012764" lon="13.0132082"><ele>117.66666666666667</ele><time>2026-04-18T07:38:44.27Z</time></trkpt><trkpt lat="43.6012164" lon="13.0129766"><ele>118.0</ele><time>2026-04-18T07:38:45.271Z</time></trkpt><trkpt lat="43.601161" lon="13.0127437"><ele>117.33333333333334</ele><time>2026-04-18T07:38:46.27Z</time></trkpt><trkpt lat="43.601114" lon="13.0125057"><ele>116.66666666666666</ele><time>2026-04-18T07:38:47.271Z</time></trkpt><trkpt lat="43.6010855" lon="13.0122639"><ele>116.0</ele><time>2026-04-18T07:38:48.27Z</time></trkpt><trkpt lat="43.6010695" lon="13.0120193"><ele>116.0</ele><time>2026-04-18T07:38:49.271Z</time></trkpt><trkpt lat="43.6010568" lon="13.0117731"><ele>116.0</ele><time>2026-04-18T07:38:50.27Z</time></trkpt><trkpt lat="43.6010419" lon="13.0115279"><ele>116.0</ele><time>2026-04-18T07:38:51.27Z</time></trkpt><trkpt lat="43.6010256" lon="13.0112832"><ele>115.66666666666666</ele><time>2026-04-18T07:38:52.271Z</time></trkpt><trkpt lat="43.6010082" lon="13.0110431"><ele>115.33333333333334</ele><time>2026-04-18T07:38:53.271Z</time></trkpt><trkpt lat="43.6009944" lon="13.0108066"><ele>115.0</ele><time>2026-04-18T07:38:54.27Z</time></trkpt><trkpt lat="43.6009833" lon="13.0105707"><ele>115.66666666666667</ele><time>2026-04-18T07:38:55.27Z</time></trkpt><trkpt lat="43.6009683" lon="13.0103348"><ele>116.33333333333334</ele><time>2026-04-18T07:38:56.27Z</time></trkpt><trkpt lat="43.6009492" lon="13.0100973"><ele>117.0</ele><time>2026-04-18T07:38:57.27Z</time></trkpt><trkpt lat="43.6009288" lon="13.0098663"><ele>117.0</ele><time>2026-04-18T07:38:58.27Z</time></trkpt><trkpt lat="43.6009105" lon="13.0096363"><ele>117.0</ele><time>2026-04-18T07:38:59.27Z</time></trkpt><trkpt lat="43.6008955" lon="13.0094087"><ele>117.0</ele><time>2026-04-18T07:39:00.271Z</time></trkpt><trkpt lat="43.6008811" lon="13.0091813"><ele>117.0</ele><time>2026-04-18T07:39:01.271Z</time></trkpt><trkpt lat="43.6008666" lon="13.0089583"><ele>117.0</ele><time>2026-04-18T07:39:02.271Z</time></trkpt><trkpt lat="43.6008519" lon="13.0087343"><ele>117.0</ele><time>2026-04-18T07:39:03.271Z</time></trkpt><trkpt lat="43.6008386" lon="13.0085111"><ele>117.33333333333334</ele><time>2026-04-18T07:39:04.27Z</time></trkpt><trkpt lat="43.6008374" lon="13.0082905"><ele>117.66666666666667</ele><time>2026-04-18T07:39:05.27Z</time></trkpt><trkpt lat="43.6008594" lon="13.0080736"><ele>118.0</ele><time>2026-04-18T07:39:06.27Z</time></trkpt><trkpt lat="43.6009103" lon="13.007858"><ele>118.0</ele><time>2026-04-18T07:39:07.27Z</time></trkpt><trkpt lat="43.6009737" lon="13.0076508"><ele>118.0</ele><time>2026-04-18T07:39:08.27Z</time></trkpt><trkpt lat="43.6010304" lon="13.0074457"><ele>118.0</ele><time>2026-04-18T07:39:09.27Z</time></trkpt><trkpt lat="43.6010798" lon="13.00725"><ele>118.5</ele><time>2026-04-18T07:39:10.27Z</time></trkpt><trkpt lat="43.6011168" lon="13.0070658"><ele>119.0</ele><time>2026-04-18T07:39:11.27Z</time></trkpt><trkpt lat="43.601135" lon="13.0068935"><ele>119.5</ele><time>2026-04-18T07:39:12.27Z</time></trkpt><trkpt lat="43.6011341" lon="13.0067361"><ele>120.0</ele><time>2026-04-18T07:39:13.27Z</time></trkpt><trkpt lat="43.6011274" lon="13.006606"><ele>120.0</ele><time>2026-04-18T07:39:14.271Z</time></trkpt><trkpt lat="43.6011286" lon="13.0064998"><ele>120.0</ele><time>2026-04-18T07:39:15.271Z</time></trkpt><trkpt lat="43.601193" lon="13.0063712"><ele>120.0</ele><time>2026-04-18T07:39:17.27Z</time></trkpt><trkpt lat="43.6013151" lon="13.0063003"><ele>120.0</ele><time>2026-04-18T07:39:19.271Z</time></trkpt><trkpt lat="43.6013932" lon="13.006266"><ele>120.0</ele><time>2026-04-18T07:39:20.271Z</time></trkpt><trkpt lat="43.6014797" lon="13.0062232"><ele>121.0</ele><time>2026-04-18T07:39:21.27Z</time></trkpt><trkpt lat="43.6015731" lon="13.006176"><ele>122.0</ele><time>2026-04-18T07:39:22.271Z</time></trkpt><trkpt lat="43.6016736" lon="13.006122"><ele>123.0</ele><time>2026-04-18T07:39:23.271Z</time></trkpt><trkpt lat="43.6017831" lon="13.0060647"><ele>124.0</ele><time>2026-04-18T07:39:24.27Z</time></trkpt><trkpt lat="43.6018999" lon="13.0060027"><ele>124.25</ele><time>2026-04-18T07:39:25.27Z</time></trkpt><trkpt lat="43.6020247" lon="13.005939"><ele>124.5</ele><time>2026-04-18T07:39:26.27Z</time></trkpt><trkpt lat="43.6021587" lon="13.0058686"><ele>124.75</ele><time>2026-04-18T07:39:27.27Z</time></trkpt><trkpt lat="43.6022995" lon="13.0057971"><ele>125.0</ele><time>2026-04-18T07:39:28.27Z</time></trkpt><trkpt lat="43.6024362" lon="13.005727"><ele>125.0</ele><time>2026-04-18T07:39:29.27Z</time></trkpt><trkpt lat="43.6025681" lon="13.0056613"><ele>125.0</ele><time>2026-04-18T07:39:30.27Z</time></trkpt><trkpt lat="43.6026962" lon="13.005597"><ele>125.0</ele><time>2026-04-18T07:39:31.27Z</time></trkpt><trkpt lat="43.6028178" lon="13.0055329"><ele>125.0</ele><time>2026-04-18T07:39:32.27Z</time></trkpt><trkpt lat="43.6029305" lon="13.0054708"><ele>125.2</ele><time>2026-04-18T07:39:33.27Z</time></trkpt><trkpt lat="43.6030389" lon="13.0054087"><ele>125.4</ele><time>2026-04-18T07:39:34.27Z</time></trkpt><trkpt lat="43.603144" lon="13.0053543"><ele>125.6</ele><time>2026-04-18T07:39:35.27Z</time></trkpt><trkpt lat="43.6032442" lon="13.0053011"><ele>125.8</ele><time>2026-04-18T07:39:36.271Z</time></trkpt><trkpt lat="43.6033352" lon="13.0052491"><ele>126.0</ele><time>2026-04-18T07:39:37.27Z</time></trkpt><trkpt lat="43.6034293" lon="13.005199"><ele>126.0</ele><time>2026-04-18T07:39:38.27Z</time></trkpt><trkpt lat="43.6035295" lon="13.005171"><ele>126.0</ele><time>2026-04-18T07:39:39.27Z</time></trkpt><trkpt lat="43.6036342" lon="13.0051821"><ele>126.0</ele><time>2026-04-18T07:39:40.27Z</time></trkpt><trkpt lat="43.6037368" lon="13.0052274"><ele>126.0</ele><time>2026-04-18T07:39:41.27Z</time></trkpt><trkpt lat="43.6038402" lon="13.005293"><ele>126.0</ele><time>2026-04-18T07:39:42.27Z</time></trkpt><trkpt lat="43.6039403" lon="13.0053561"><ele>126.4</ele><time>2026-04-18T07:39:43.27Z</time></trkpt><trkpt lat="43.6040365" lon="13.0054169"><ele>126.8</ele><time>2026-04-18T07:39:44.27Z</time></trkpt><trkpt lat="43.6041225" lon="13.0054742"><ele>127.20000000000002</ele><time>2026-04-18T07:39:45.27Z</time></trkpt><trkpt lat="43.6042042" lon="13.0055229"><ele>127.60000000000001</ele><time>2026-04-18T07:39:46.27Z</time></trkpt><trkpt lat="43.604285" lon="13.0055516"><ele>128.0</ele><time>2026-04-18T07:39:47.271Z</time></trkpt><trkpt lat="43.6043672" lon="13.0055506"><ele>128.0</ele><time>2026-04-18T07:39:48.27Z</time></trkpt><trkpt lat="43.6044486" lon="13.0055066"><ele>128.0</ele><time>2026-04-18T07:39:49.27Z</time></trkpt><trkpt lat="43.6045199" lon="13.0054119"><ele>128.0</ele><time>2026-04-18T07:39:50.271Z</time></trkpt><trkpt lat="43.6045778" lon="13.0052919"><ele>128.0</ele><time>2026-04-18T07:39:51.271Z</time></trkpt><trkpt lat="43.604636" lon="13.0051645"><ele>128.0</ele><time>2026-04-18T07:39:52.27Z</time></trkpt><trkpt lat="43.6047011" lon="13.0050422"><ele>130.20000000000002</ele><time>2026-04-18T07:39:53.27Z</time></trkpt><trkpt lat="43.6047706" lon="13.0049354"><ele>132.4</ele><time>2026-04-18T07:39:54.27Z</time></trkpt><trkpt lat="43.604844" lon="13.0048341"><ele>134.60000000000002</ele><time>2026-04-18T07:39:55.271Z</time></trkpt><trkpt lat="43.604921" lon="13.0047415"><ele>136.8</ele><time>2026-04-18T07:39:56.27Z</time></trkpt><trkpt lat="43.6050018" lon="13.0046653"><ele>139.0</ele><time>2026-04-18T07:39:57.271Z</time></trkpt><trkpt lat="43.6050936" lon="13.004613"><ele>139.0</ele><time>2026-04-18T07:39:58.27Z</time></trkpt><trkpt lat="43.6051906" lon="13.004595"><ele>139.0</ele><time>2026-04-18T07:39:59.271Z</time></trkpt><trkpt lat="43.6052869" lon="13.0046109"><ele>139.0</ele><time>2026-04-18T07:40:00.27Z</time></trkpt><trkpt lat="43.6053774" lon="13.0046433"><ele>139.0</ele><time>2026-04-18T07:40:01.27Z</time></trkpt><trkpt lat="43.6054661" lon="13.0046833"><ele>139.0</ele><time>2026-04-18T07:40:02.27Z</time></trkpt><trkpt lat="43.6055574" lon="13.0047216"><ele>142.2</ele><time>2026-04-18T07:40:03.27Z</time></trkpt><trkpt lat="43.6056566" lon="13.0047549"><ele>145.4</ele><time>2026-04-18T07:40:04.27Z</time></trkpt><trkpt lat="43.6057625" lon="13.0047833"><ele>148.6</ele><time>2026-04-18T07:40:05.271Z</time></trkpt><trkpt lat="43.6058634" lon="13.0048075"><ele>151.8</ele><time>2026-04-18T07:40:06.27Z</time></trkpt><trkpt lat="43.6059604" lon="13.0048291"><ele>155.0</ele><time>2026-04-18T07:40:07.27Z</time></trkpt><trkpt lat="43.6060568" lon="13.0048467"><ele>155.0</ele><time>2026-04-18T07:40:08.27Z</time></trkpt><trkpt lat="43.6061547" lon="13.004852"><ele>155.0</ele><time>2026-04-18T07:40:09.27Z</time></trkpt><trkpt lat="43.6062545" lon="13.0048411"><ele>155.0</ele><time>2026-04-18T07:40:10.27Z</time></trkpt><trkpt lat="43.6063592" lon="13.0048297"><ele>155.0</ele><time>2026-04-18T07:40:11.27Z</time></trkpt><trkpt lat="43.606467" lon="13.0048292"><ele>155.0</ele><time>2026-04-18T07:40:12.27Z</time></trkpt><trkpt lat="43.6065755" lon="13.0048442"><ele>156.75</ele><time>2026-04-18T07:40:13.271Z</time></trkpt><trkpt lat="43.6066804" lon="13.0048776"><ele>158.5</ele><time>2026-04-18T07:40:14.27Z</time></trkpt><trkpt lat="43.606787" lon="13.0049259"><ele>160.25</ele><time>2026-04-18T07:40:15.27Z</time></trkpt><trkpt lat="43.6068952" lon="13.0049899"><ele>162.0</ele><time>2026-04-18T07:40:16.271Z</time></trkpt><trkpt lat="43.606998" lon="13.0050647"><ele>163.75</ele><time>2026-04-18T07:40:17.271Z</time></trkpt><trkpt lat="43.6070992" lon="13.0051472"><ele>165.5</ele><time>2026-04-18T07:40:18.27Z</time></trkpt><trkpt lat="43.6071981" lon="13.0052313"><ele>167.25</ele><time>2026-04-18T07:40:19.271Z</time></trkpt><trkpt lat="43.6072951" lon="13.0053149"><ele>169.0</ele><time>2026-04-18T07:40:20.271Z</time></trkpt><trkpt lat="43.6073933" lon="13.0054006"><ele>169.0</ele><time>2026-04-18T07:40:21.27Z</time></trkpt><trkpt lat="43.6074936" lon="13.0054931"><ele>169.0</ele><time>2026-04-18T07:40:22.27Z</time></trkpt><trkpt lat="43.6075921" lon="13.0055921"><ele>169.0</ele><time>2026-04-18T07:40:23.271Z</time></trkpt><trkpt lat="43.6076972" lon="13.0056976"><ele>169.0</ele><time>2026-04-18T07:40:24.27Z</time></trkpt><trkpt lat="43.6078071" lon="13.0058046"><ele>170.25</ele><time>2026-04-18T07:40:25.271Z</time></trkpt><trkpt lat="43.6079094" lon="13.0059097"><ele>171.5</ele><time>2026-04-18T07:40:26.27Z</time></trkpt><trkpt lat="43.6080059" lon="13.0060091"><ele>172.75</ele><time>2026-04-18T07:40:27.27Z</time></trkpt><trkpt lat="43.608102" lon="13.0061119"><ele>174.0</ele><time>2026-04-18T07:40:28.27Z</time></trkpt><trkpt lat="43.608202" lon="13.0062147"><ele>174.0</ele><time>2026-04-18T07:40:29.271Z</time></trkpt><trkpt lat="43.6083027" lon="13.0063165"><ele>174.0</ele><time>2026-04-18T07:40:30.27Z</time></trkpt><trkpt lat="43.6084046" lon="13.006419"><ele>174.0</ele><time>2026-04-18T07:40:31.27Z</time></trkpt><trkpt lat="43.608508" lon="13.006524"><ele>174.0</ele><time>2026-04-18T07:40:32.27Z</time></trkpt><trkpt lat="43.6086132" lon="13.0066275"><ele>175.5</ele><time>2026-04-18T07:40:33.27Z</time></trkpt><trkpt lat="43.6087155" lon="13.006733"><ele>177.0</ele><time>2026-04-18T07:40:34.271Z</time></trkpt><trkpt lat="43.6088155" lon="13.0068396"><ele>178.5</ele><time>2026-04-18T07:40:35.271Z</time></trkpt><trkpt lat="43.6089127" lon="13.0069546"><ele>180.0</ele><time>2026-04-18T07:40:36.271Z</time></trkpt><trkpt lat="43.6090063" lon="13.0070786"><ele>180.0</ele><time>2026-04-18T07:40:37.27Z</time></trkpt><trkpt lat="43.6091029" lon="13.0072051"><ele>180.0</ele><time>2026-04-18T07:40:38.271Z</time></trkpt><trkpt lat="43.6091991" lon="13.007334"><ele>180.0</ele><time>2026-04-18T07:40:39.27Z</time></trkpt><trkpt lat="43.6092966" lon="13.0074585"><ele>180.0</ele><time>2026-04-18T07:40:40.27Z</time></trkpt><trkpt lat="43.6093885" lon="13.0075717"><ele>180.0</ele><time>2026-04-18T07:40:41.271Z</time></trkpt><trkpt lat="43.60948" lon="13.0076865"><ele>180.0</ele><time>2026-04-18T07:40:42.271Z</time></trkpt><trkpt lat="43.6095744" lon="13.0078053"><ele>180.0</ele><time>2026-04-18T07:40:43.27Z</time></trkpt><trkpt lat="43.6096679" lon="13.0079227"><ele>180.0</ele><time>2026-04-18T07:40:44.27Z</time></trkpt><trkpt lat="43.6097605" lon="13.0080378"><ele>180.0</ele><time>2026-04-18T07:40:45.271Z</time></trkpt><trkpt lat="43.6098527" lon="13.0081474"><ele>180.0</ele><time>2026-04-18T07:40:46.271Z</time></trkpt><trkpt lat="43.6099401" lon="13.0082519"><ele>180.0</ele><time>2026-04-18T07:40:47.27Z</time></trkpt><trkpt lat="43.6100324" lon="13.0083513"><ele>180.0</ele><time>2026-04-18T07:40:48.271Z</time></trkpt><trkpt lat="43.6101344" lon="13.0084389"><ele>180.25</ele><time>2026-04-18T07:40:49.271Z</time></trkpt><trkpt lat="43.6102468" lon="13.0085214"><ele>180.5</ele><time>2026-04-18T07:40:50.271Z</time></trkpt><trkpt lat="43.6103643" lon="13.0085961"><ele>180.75</ele><time>2026-04-18T07:40:51.271Z</time></trkpt><trkpt lat="43.610482" lon="13.0086658"><ele>181.0</ele><time>2026-04-18T07:40:52.27Z</time></trkpt><trkpt lat="43.6105968" lon="13.0087282"><ele>181.0</ele><time>2026-04-18T07:40:53.271Z</time></trkpt><trkpt lat="43.610705" lon="13.0087852"><ele>181.0</ele><time>2026-04-18T07:40:54.27Z</time></trkpt><trkpt lat="43.610811" lon="13.0088415"><ele>181.0</ele><time>2026-04-18T07:40:55.271Z</time></trkpt><trkpt lat="43.6109214" lon="13.0089086"><ele>181.0</ele><time>2026-04-18T07:40:56.27Z</time></trkpt><trkpt lat="43.6110285" lon="13.0090013"><ele>181.0</ele><time>2026-04-18T07:40:57.27Z</time></trkpt><trkpt lat="43.6111195" lon="13.0091071"><ele>181.0</ele><time>2026-04-18T07:40:58.27Z</time></trkpt><trkpt lat="43.6111867" lon="13.0092236"><ele>181.0</ele><time>2026-04-18T07:40:59.27Z</time></trkpt><trkpt lat="43.6112427" lon="13.0093572"><ele>181.0</ele><time>2026-04-18T07:41:00.271Z</time></trkpt><trkpt lat="43.6113064" lon="13.0094937"><ele>181.75</ele><time>2026-04-18T07:41:01.27Z</time></trkpt><trkpt lat="43.6113762" lon="13.0096322"><ele>182.5</ele><time>2026-04-18T07:41:02.27Z</time></trkpt><trkpt lat="43.6114485" lon="13.0097667"><ele>183.25</ele><time>2026-04-18T07:41:03.27Z</time></trkpt><trkpt lat="43.6115202" lon="13.0098945"><ele>184.0</ele><time>2026-04-18T07:41:04.271Z</time></trkpt><trkpt lat="43.6115957" lon="13.010017"><ele>184.6</ele><time>2026-04-18T07:41:05.27Z</time></trkpt><trkpt lat="43.6116765" lon="13.0101329"><ele>185.2</ele><time>2026-04-18T07:41:06.27Z</time></trkpt><trkpt lat="43.6117609" lon="13.0102371"><ele>185.79999999999998</ele><time>2026-04-18T07:41:07.27Z</time></trkpt><trkpt lat="43.6118426" lon="13.010328"><ele>186.39999999999998</ele><time>2026-04-18T07:41:08.271Z</time></trkpt><trkpt lat="43.6119216" lon="13.0104071"><ele>187.0</ele><time>2026-04-18T07:41:09.27Z</time></trkpt><trkpt lat="43.6120039" lon="13.0104696"><ele>188.0</ele><time>2026-04-18T07:41:10.27Z</time></trkpt><trkpt lat="43.6120849" lon="13.01052"><ele>189.0</ele><time>2026-04-18T07:41:11.271Z</time></trkpt><trkpt lat="43.6121626" lon="13.0105633"><ele>190.0</ele><time>2026-04-18T07:41:12.27Z</time></trkpt><trkpt lat="43.6122385" lon="13.0105987"><ele>191.0</ele><time>2026-04-18T07:41:13.27Z</time></trkpt><trkpt lat="43.6123183" lon="13.010636"><ele>191.99999999999997</ele><time>2026-04-18T07:41:14.27Z</time></trkpt><trkpt lat="43.6124184" lon="13.0106807"><ele>193.0</ele><time>2026-04-18T07:41:15.27Z</time></trkpt><trkpt lat="43.6125316" lon="13.0107219"><ele>193.0</ele><time>2026-04-18T07:41:16.27Z</time></trkpt><trkpt lat="43.61264" lon="13.0107501"><ele>193.0</ele><time>2026-04-18T07:41:17.271Z</time></trkpt><trkpt lat="43.6127445" lon="13.0107686"><ele>193.0</ele><time>2026-04-18T07:41:18.27Z</time></trkpt><trkpt lat="43.6128512" lon="13.0107711"><ele>193.0</ele><time>2026-04-18T07:41:19.27Z</time></trkpt><trkpt lat="43.612959" lon="13.0107605"><ele>193.0</ele><time>2026-04-18T07:41:20.27Z</time></trkpt><trkpt lat="43.6130588" lon="13.0107371"><ele>193.5</ele><time>2026-04-18T07:41:21.271Z</time></trkpt><trkpt lat="43.6131553" lon="13.0106958"><ele>194.0</ele><time>2026-04-18T07:41:22.27Z</time></trkpt><trkpt lat="43.6132513" lon="13.0106246"><ele>194.5</ele><time>2026-04-18T07:41:23.27Z</time></trkpt><trkpt lat="43.6133604" lon="13.0105178"><ele>195.0</ele><time>2026-04-18T07:41:24.271Z</time></trkpt><trkpt lat="43.6134824" lon="13.0104001"><ele>195.0</ele><time>2026-04-18T07:41:25.271Z</time></trkpt><trkpt lat="43.6135867" lon="13.0103032"><ele>195.0</ele><time>2026-04-18T07:41:26.27Z</time></trkpt><trkpt lat="43.6136696" lon="13.0102231"><ele>195.0</ele><time>2026-04-18T07:41:27.271Z</time></trkpt><trkpt lat="43.6137533" lon="13.0101519"><ele>195.0</ele><time>2026-04-18T07:41:28.271Z</time></trkpt><trkpt lat="43.61385" lon="13.010087"><ele>195.0</ele><time>2026-04-18T07:41:29.27Z</time></trkpt><trkpt lat="43.613961" lon="13.0100235"><ele>192.5</ele><time>2026-04-18T07:41:30.271Z</time></trkpt><trkpt lat="43.6140749" lon="13.0099602"><ele>190.0</ele><time>2026-04-18T07:41:31.27Z</time></trkpt><trkpt lat="43.6141919" lon="13.0098964"><ele>187.5</ele><time>2026-04-18T07:41:32.27Z</time></trkpt><trkpt lat="43.6143153" lon="13.0098243"><ele>185.0</ele><time>2026-04-18T07:41:33.27Z</time></trkpt><trkpt lat="43.6144362" lon="13.0097435"><ele>186.5</ele><time>2026-04-18T07:41:34.27Z</time></trkpt><trkpt lat="43.6145584" lon="13.0096593"><ele>188.0</ele><time>2026-04-18T07:41:35.27Z</time></trkpt><trkpt lat="43.6146822" lon="13.0095708"><ele>189.5</ele><time>2026-04-18T07:41:36.271Z</time></trkpt><trkpt lat="43.6148032" lon="13.0094958"><ele>191.0</ele><time>2026-04-18T07:41:37.27Z</time></trkpt><trkpt lat="43.6149254" lon="13.0094364"><ele>191.0</ele><time>2026-04-18T07:41:38.27Z</time></trkpt><trkpt lat="43.6150443" lon="13.0094019"><ele>191.0</ele><time>2026-04-18T07:41:39.27Z</time></trkpt><trkpt lat="43.6151608" lon="13.0093806"><ele>191.0</ele><time>2026-04-18T07:41:40.27Z</time></trkpt><trkpt lat="43.6152759" lon="13.0093579"><ele>191.0</ele><time>2026-04-18T07:41:41.27Z</time></trkpt><trkpt lat="43.6153943" lon="13.009319"><ele>192.5</ele><time>2026-04-18T07:41:42.271Z</time></trkpt><trkpt lat="43.615516" lon="13.0092713"><ele>194.0</ele><time>2026-04-18T07:41:43.27Z</time></trkpt><trkpt lat="43.6156397" lon="13.0092168"><ele>195.5</ele><time>2026-04-18T07:41:44.27Z</time></trkpt><trkpt lat="43.6157643" lon="13.0091577"><ele>197.0</ele><time>2026-04-18T07:41:45.27Z</time></trkpt><trkpt lat="43.6158889" lon="13.0090991"><ele>197.0</ele><time>2026-04-18T07:41:46.27Z</time></trkpt><trkpt lat="43.6160138" lon="13.0090386"><ele>197.0</ele><time>2026-04-18T07:41:47.271Z</time></trkpt><trkpt lat="43.6161378" lon="13.0089759"><ele>197.0</ele><time>2026-04-18T07:41:48.27Z</time></trkpt><trkpt lat="43.61626" lon="13.0089104"><ele>197.0</ele><time>2026-04-18T07:41:49.27Z</time></trkpt><trkpt lat="43.616372" lon="13.0088459"><ele>198.75</ele><time>2026-04-18T07:41:50.27Z</time></trkpt><trkpt lat="43.6164826" lon="13.0087916"><ele>200.5</ele><time>2026-04-18T07:41:51.271Z</time></trkpt><trkpt lat="43.6165984" lon="13.0087428"><ele>202.25</ele><time>2026-04-18T07:41:52.27Z</time></trkpt><trkpt lat="43.6167176" lon="13.0087002"><ele>204.0</ele><time>2026-04-18T07:41:53.271Z</time></trkpt><trkpt lat="43.6168452" lon="13.0086588"><ele>204.0</ele><time>2026-04-18T07:41:54.27Z</time></trkpt><trkpt lat="43.6169769" lon="13.0086217"><ele>204.0</ele><time>2026-04-18T07:41:55.271Z</time></trkpt><trkpt lat="43.617108" lon="13.0085841"><ele>204.0</ele><time>2026-04-18T07:41:56.27Z</time></trkpt><trkpt lat="43.6172292" lon="13.0085538"><ele>204.0</ele><time>2026-04-18T07:41:57.27Z</time></trkpt><trkpt lat="43.6173482" lon="13.0085364"><ele>206.75</ele><time>2026-04-18T07:41:58.271Z</time></trkpt><trkpt lat="43.6174737" lon="13.0085235"><ele>209.5</ele><time>2026-04-18T07:41:59.27Z</time></trkpt><trkpt lat="43.6175966" lon="13.0085097"><ele>212.25</ele><time>2026-04-18T07:42:00.271Z</time></trkpt><trkpt lat="43.617712" lon="13.0084976"><ele>215.0</ele><time>2026-04-18T07:42:01.27Z</time></trkpt><trkpt lat="43.6178272" lon="13.0084833"><ele>216.25</ele><time>2026-04-18T07:42:02.271Z</time></trkpt><trkpt lat="43.6179437" lon="13.0084588"><ele>217.5</ele><time>2026-04-18T07:42:03.27Z</time></trkpt><trkpt lat="43.6180641" lon="13.0084291"><ele>218.75</ele><time>2026-04-18T07:42:04.271Z</time></trkpt><trkpt lat="43.618188" lon="13.0083962"><ele>220.0</ele><time>2026-04-18T07:42:05.271Z</time></trkpt><trkpt lat="43.6183128" lon="13.0083597"><ele>221.75</ele><time>2026-04-18T07:42:06.271Z</time></trkpt><trkpt lat="43.618433" lon="13.0083262"><ele>223.5</ele><time>2026-04-18T07:42:07.27Z</time></trkpt><trkpt lat="43.6185453" lon="13.0082924"><ele>225.25</ele><time>2026-04-18T07:42:08.27Z</time></trkpt><trkpt lat="43.6186503" lon="13.0082531"><ele>227.0</ele><time>2026-04-18T07:42:09.271Z</time></trkpt><trkpt lat="43.61876" lon="13.0082043"><ele>227.0</ele><time>2026-04-18T07:42:10.27Z</time></trkpt><trkpt lat="43.6188754" lon="13.0081525"><ele>227.0</ele><time>2026-04-18T07:42:11.27Z</time></trkpt><trkpt lat="43.6189965" lon="13.0080958"><ele>227.0</ele><time>2026-04-18T07:42:12.27Z</time></trkpt><trkpt lat="43.6191205" lon="13.0080415"><ele>227.0</ele><time>2026-04-18T07:42:13.27Z</time></trkpt><trkpt lat="43.6192501" lon="13.0079929"><ele>227.0</ele><time>2026-04-18T07:42:14.271Z</time></trkpt><trkpt lat="43.6193846" lon="13.0079575"><ele>227.0</ele><time>2026-04-18T07:42:15.271Z</time></trkpt><trkpt lat="43.6195311" lon="13.0079377"><ele>227.0</ele><time>2026-04-18T07:42:16.271Z</time></trkpt><trkpt lat="43.6196826" lon="13.0079394"><ele>227.0</ele><time>2026-04-18T07:42:17.27Z</time></trkpt><trkpt lat="43.6198328" lon="13.0079644"><ele>227.25</ele><time>2026-04-18T07:42:18.27Z</time></trkpt><trkpt lat="43.6199753" lon="13.0079946"><ele>227.5</ele><time>2026-04-18T07:42:19.271Z</time></trkpt><trkpt lat="43.6201105" lon="13.0080179"><ele>227.75</ele><time>2026-04-18T07:42:20.27Z</time></trkpt><trkpt lat="43.6202373" lon="13.0080302"><ele>228.0</ele><time>2026-04-18T07:42:21.27Z</time></trkpt><trkpt lat="43.6203571" lon="13.0080147"><ele>229.0</ele><time>2026-04-18T07:42:22.27Z</time></trkpt><trkpt lat="43.6204783" lon="13.0079682"><ele>230.0</ele><time>2026-04-18T07:42:23.271Z</time></trkpt><trkpt lat="43.6206089" lon="13.0078987"><ele>231.0</ele><time>2026-04-18T07:42:24.27Z</time></trkpt><trkpt lat="43.6207429" lon="13.0078107"><ele>232.0</ele><time>2026-04-18T07:42:25.27Z</time></trkpt><trkpt lat="43.6208702" lon="13.0077172"><ele>232.0</ele><time>2026-04-18T07:42:26.27Z</time></trkpt><trkpt lat="43.6209846" lon="13.007631"><ele>232.0</ele><time>2026-04-18T07:42:27.27Z</time></trkpt><trkpt lat="43.6210916" lon="13.0075534"><ele>232.0</ele><time>2026-04-18T07:42:28.27Z</time></trkpt><trkpt lat="43.6211977" lon="13.0074754"><ele>232.0</ele><time>2026-04-18T07:42:29.27Z</time></trkpt><trkpt lat="43.6213099" lon="13.0073942"><ele>231.75</ele><time>2026-04-18T07:42:30.271Z</time></trkpt><trkpt lat="43.6214255" lon="13.0073095"><ele>231.5</ele><time>2026-04-18T07:42:31.27Z</time></trkpt><trkpt lat="43.6215433" lon="13.0072242"><ele>231.25</ele><time>2026-04-18T07:42:32.27Z</time></trkpt><trkpt lat="43.6216609" lon="13.0071331"><ele>231.0</ele><time>2026-04-18T07:42:33.27Z</time></trkpt><trkpt lat="43.6217768" lon="13.0070405"><ele>231.0</ele><time>2026-04-18T07:42:34.27Z</time></trkpt><trkpt lat="43.6218939" lon="13.0069535"><ele>231.0</ele><time>2026-04-18T07:42:35.271Z</time></trkpt><trkpt lat="43.6220111" lon="13.0068575"><ele>231.0</ele><time>2026-04-18T07:42:36.271Z</time></trkpt><trkpt lat="43.6221287" lon="13.0067482"><ele>231.0</ele><time>2026-04-18T07:42:37.27Z</time></trkpt><trkpt lat="43.6222441" lon="13.0066359"><ele>233.0</ele><time>2026-04-18T07:42:38.27Z</time></trkpt><trkpt lat="43.6223612" lon="13.0065264"><ele>235.0</ele><time>2026-04-18T07:42:39.27Z</time></trkpt><trkpt lat="43.6224798" lon="13.0064296"><ele>237.0</ele><time>2026-04-18T07:42:40.271Z</time></trkpt><trkpt lat="43.6225938" lon="13.0063416"><ele>239.0</ele><time>2026-04-18T07:42:41.27Z</time></trkpt><trkpt lat="43.622708" lon="13.0062626"><ele>239.75</ele><time>2026-04-18T07:42:42.271Z</time></trkpt><trkpt lat="43.622822" lon="13.0061926"><ele>240.5</ele><time>2026-04-18T07:42:43.27Z</time></trkpt><trkpt lat="43.6229349" lon="13.0061228"><ele>241.25</ele><time>2026-04-18T07:42:44.27Z</time></trkpt><trkpt lat="43.623047" lon="13.0060585"><ele>242.0</ele><time>2026-04-18T07:42:45.27Z</time></trkpt><trkpt lat="43.6231563" lon="13.0059985"><ele>242.0</ele><time>2026-04-18T07:42:46.27Z</time></trkpt><trkpt lat="43.6232547" lon="13.0059486"><ele>242.0</ele><time>2026-04-18T07:42:47.271Z</time></trkpt><trkpt lat="43.6233324" lon="13.0059121"><ele>242.0</ele><time>2026-04-18T07:42:48.27Z</time></trkpt><trkpt lat="43.6234409" lon="13.0058583"><ele>242.0</ele><time>2026-04-18T07:42:50.27Z</time></trkpt><trkpt lat="43.6235189" lon="13.0058171"><ele>242.0</ele><time>2026-04-18T07:42:52.27Z</time></trkpt><trkpt lat="43.6236022" lon="13.0058355"><ele>242.0</ele><time>2026-04-18T07:42:55.27Z</time></trkpt><trkpt lat="43.6236158" lon="13.0059318"><ele>242.0</ele><time>2026-04-18T07:42:57.271Z</time></trkpt><trkpt lat="43.623582" lon="13.0061144"><ele>242.0</ele><time>2026-04-18T07:42:59.27Z</time></trkpt><trkpt lat="43.6235478" lon="13.0062478"><ele>242.0</ele><time>2026-04-18T07:43:00.27Z</time></trkpt><trkpt lat="43.6235199" lon="13.0064059"><ele>242.0</ele><time>2026-04-18T07:43:01.271Z</time></trkpt><trkpt lat="43.6235114" lon="13.006569"><ele>241.0</ele><time>2026-04-18T07:43:02.27Z</time></trkpt><trkpt lat="43.6235155" lon="13.0067392"><ele>240.0</ele><time>2026-04-18T07:43:03.27Z</time></trkpt><trkpt lat="43.6235282" lon="13.0069244"><ele>239.0</ele><time>2026-04-18T07:43:04.27Z</time></trkpt><trkpt lat="43.6235431" lon="13.0071172"><ele>238.0</ele><time>2026-04-18T07:43:05.271Z</time></trkpt><trkpt lat="43.6235594" lon="13.0073165"><ele>237.33333333333331</ele><time>2026-04-18T07:43:06.271Z</time></trkpt><trkpt lat="43.6235713" lon="13.0075261"><ele>236.66666666666669</ele><time>2026-04-18T07:43:07.27Z</time></trkpt><trkpt lat="43.623573" lon="13.0077452"><ele>236.0</ele><time>2026-04-18T07:43:08.271Z</time></trkpt><trkpt lat="43.6235688" lon="13.0079607"><ele>236.0</ele><time>2026-04-18T07:43:09.271Z</time></trkpt><trkpt lat="43.6235747" lon="13.0081754"><ele>236.0</ele><time>2026-04-18T07:43:10.27Z</time></trkpt><trkpt lat="43.6235977" lon="13.0083855"><ele>236.0</ele><time>2026-04-18T07:43:11.27Z</time></trkpt><trkpt lat="43.6236352" lon="13.0085859"><ele>230.0</ele><time>2026-04-18T07:43:12.27Z</time></trkpt><trkpt lat="43.6236787" lon="13.0087872"><ele>224.0</ele><time>2026-04-18T07:43:13.271Z</time></trkpt><trkpt lat="43.6237322" lon="13.0089904"><ele>218.0</ele><time>2026-04-18T07:43:14.27Z</time></trkpt><trkpt lat="43.6237909" lon="13.0091863"><ele>218.0</ele><time>2026-04-18T07:43:15.27Z</time></trkpt><trkpt lat="43.6238475" lon="13.0093776"><ele>218.0</ele><time>2026-04-18T07:43:16.271Z</time></trkpt><trkpt lat="43.6238981" lon="13.0095692"><ele>218.0</ele><time>2026-04-18T07:43:17.27Z</time></trkpt><trkpt lat="43.6239381" lon="13.0097623"><ele>218.0</ele><time>2026-04-18T07:43:18.27Z</time></trkpt><trkpt lat="43.6239721" lon="13.0099606"><ele>217.66666666666669</ele><time>2026-04-18T07:43:19.27Z</time></trkpt><trkpt lat="43.6240011" lon="13.0101605"><ele>217.33333333333331</ele><time>2026-04-18T07:43:20.27Z</time></trkpt><trkpt lat="43.6240283" lon="13.0103679"><ele>217.0</ele><time>2026-04-18T07:43:21.27Z</time></trkpt><trkpt lat="43.6240566" lon="13.0105789"><ele>217.0</ele><time>2026-04-18T07:43:22.271Z</time></trkpt><trkpt lat="43.6240889" lon="13.0107919"><ele>217.0</ele><time>2026-04-18T07:43:23.27Z</time></trkpt><trkpt lat="43.6241165" lon="13.0110104"><ele>217.0</ele><time>2026-04-18T07:43:24.271Z</time></trkpt><trkpt lat="43.6241415" lon="13.0112324"><ele>217.0</ele><time>2026-04-18T07:43:25.271Z</time></trkpt><trkpt lat="43.6241695" lon="13.011458"><ele>217.0</ele><time>2026-04-18T07:43:26.27Z</time></trkpt><trkpt lat="43.6241969" lon="13.0116794"><ele>217.0</ele><time>2026-04-18T07:43:27.27Z</time></trkpt><trkpt lat="43.624223" lon="13.0118902"><ele>216.5</ele><time>2026-04-18T07:43:28.27Z</time></trkpt><trkpt lat="43.6242482" lon="13.0120893"><ele>216.0</ele><time>2026-04-18T07:43:29.27Z</time></trkpt><trkpt lat="43.6242733" lon="13.0122762"><ele>215.5</ele><time>2026-04-18T07:43:30.27Z</time></trkpt><trkpt lat="43.6243024" lon="13.0124528"><ele>215.0</ele><time>2026-04-18T07:43:31.271Z</time></trkpt><trkpt lat="43.6243348" lon="13.0126175"><ele>214.5</ele><time>2026-04-18T07:43:32.271Z</time></trkpt><trkpt lat="43.6243676" lon="13.0127745"><ele>214.0</ele><time>2026-04-18T07:43:33.271Z</time></trkpt><trkpt lat="43.6244031" lon="13.0129319"><ele>213.5</ele><time>2026-04-18T07:43:34.27Z</time></trkpt><trkpt lat="43.6244361" lon="13.013097"><ele>213.0</ele><time>2026-04-18T07:43:35.27Z</time></trkpt><trkpt lat="43.6244638" lon="13.0132717"><ele>213.0</ele><time>2026-04-18T07:43:36.271Z</time></trkpt><trkpt lat="43.6244789" lon="13.0134617"><ele>213.0</ele><time>2026-04-18T07:43:37.271Z</time></trkpt><trkpt lat="43.6244766" lon="13.0136654"><ele>213.0</ele><time>2026-04-18T07:43:38.271Z</time></trkpt><trkpt lat="43.6244589" lon="13.0138665"><ele>213.0</ele><time>2026-04-18T07:43:39.27Z</time></trkpt><trkpt lat="43.6244365" lon="13.0140556"><ele>212.0</ele><time>2026-04-18T07:43:40.27Z</time></trkpt><trkpt lat="43.624414" lon="13.0142323"><ele>211.0</ele><time>2026-04-18T07:43:41.27Z</time></trkpt><trkpt lat="43.6243939" lon="13.0143885"><ele>210.0</ele><time>2026-04-18T07:43:42.27Z</time></trkpt><trkpt lat="43.6243688" lon="13.0145142"><ele>209.0</ele><time>2026-04-18T07:43:43.27Z</time></trkpt><trkpt lat="43.6243438" lon="13.014604"><ele>208.0</ele><time>2026-04-18T07:43:44.27Z</time></trkpt><trkpt lat="43.6243516" lon="13.0147591"><ele>207.99999999999997</ele><time>2026-04-18T07:43:46.27Z</time></trkpt><trkpt lat="43.6243837" lon="13.0148389"><ele>208.0</ele><time>2026-04-18T07:43:47.27Z</time></trkpt><trkpt lat="43.6244274" lon="13.0149276"><ele>208.0</ele><time>2026-04-18T07:43:48.27Z</time></trkpt><trkpt lat="43.6244752" lon="13.0150222"><ele>208.0</ele><time>2026-04-18T07:43:49.27Z</time></trkpt><trkpt lat="43.6245257" lon="13.0151272"><ele>207.99999999999997</ele><time>2026-04-18T07:43:50.27Z</time></trkpt><trkpt lat="43.6245776" lon="13.0152317"><ele>208.0</ele><time>2026-04-18T07:43:51.27Z</time></trkpt><trkpt lat="43.6246263" lon="13.015329"><ele>206.5</ele><time>2026-04-18T07:43:52.271Z</time></trkpt><trkpt lat="43.6246801" lon="13.0154311"><ele>205.0</ele><time>2026-04-18T07:43:53.271Z</time></trkpt><trkpt lat="43.6247457" lon="13.0155537"><ele>203.5</ele><time>2026-04-18T07:43:54.27Z</time></trkpt><trkpt lat="43.6248178" lon="13.0156934"><ele>202.0</ele><time>2026-04-18T07:43:55.27Z</time></trkpt><trkpt lat="43.6248901" lon="13.0158352"><ele>201.25</ele><time>2026-04-18T07:43:56.27Z</time></trkpt><trkpt lat="43.6249629" lon="13.0159724"><ele>200.5</ele><time>2026-04-18T07:43:57.27Z</time></trkpt><trkpt lat="43.6250356" lon="13.0161089"><ele>199.75</ele><time>2026-04-18T07:43:58.27Z</time></trkpt><trkpt lat="43.6251104" lon="13.0162485"><ele>199.0</ele><time>2026-04-18T07:43:59.27Z</time></trkpt><trkpt lat="43.6251843" lon="13.0163877"><ele>199.0</ele><time>2026-04-18T07:44:00.271Z</time></trkpt><trkpt lat="43.6252569" lon="13.0165328"><ele>199.0</ele><time>2026-04-18T07:44:01.27Z</time></trkpt><trkpt lat="43.6253332" lon="13.0166802"><ele>199.0</ele><time>2026-04-18T07:44:02.271Z</time></trkpt><trkpt lat="43.625411" lon="13.0168257"><ele>199.0</ele><time>2026-04-18T07:44:03.271Z</time></trkpt><trkpt lat="43.6254867" lon="13.0169785"><ele>196.25</ele><time>2026-04-18T07:44:04.271Z</time></trkpt><trkpt lat="43.6255611" lon="13.0171304"><ele>193.5</ele><time>2026-04-18T07:44:05.27Z</time></trkpt><trkpt lat="43.6256327" lon="13.0172759"><ele>190.75</ele><time>2026-04-18T07:44:06.271Z</time></trkpt><trkpt lat="43.625702" lon="13.0174214"><ele>188.0</ele><time>2026-04-18T07:44:07.27Z</time></trkpt><trkpt lat="43.6257684" lon="13.0175646"><ele>187.25</ele><time>2026-04-18T07:44:08.271Z</time></trkpt><trkpt lat="43.6258331" lon="13.0176993"><ele>186.5</ele><time>2026-04-18T07:44:09.27Z</time></trkpt><trkpt lat="43.6258956" lon="13.0178312"><ele>185.75</ele><time>2026-04-18T07:44:10.27Z</time></trkpt><trkpt lat="43.62596" lon="13.017963"><ele>185.0</ele><time>2026-04-18T07:44:11.27Z</time></trkpt><trkpt lat="43.6260222" lon="13.0180989"><ele>185.0</ele><time>2026-04-18T07:44:12.271Z</time></trkpt><trkpt lat="43.6260821" lon="13.01823"><ele>185.0</ele><time>2026-04-18T07:44:13.27Z</time></trkpt><trkpt lat="43.6261398" lon="13.0183601"><ele>185.0</ele><time>2026-04-18T07:44:14.271Z</time></trkpt><trkpt lat="43.6261997" lon="13.0184848"><ele>185.0</ele><time>2026-04-18T07:44:15.27Z</time></trkpt><trkpt lat="43.6262619" lon="13.0186063"><ele>185.0</ele><time>2026-04-18T07:44:16.271Z</time></trkpt><trkpt lat="43.6263228" lon="13.0187226"><ele>181.5</ele><time>2026-04-18T07:44:17.271Z</time></trkpt><trkpt lat="43.6263897" lon="13.0188322"><ele>178.0</ele><time>2026-04-18T07:44:18.271Z</time></trkpt><trkpt lat="43.6264666" lon="13.0189364"><ele>174.5</ele><time>2026-04-18T07:44:19.271Z</time></trkpt><trkpt lat="43.6265563" lon="13.0190452"><ele>171.0</ele><time>2026-04-18T07:44:20.271Z</time></trkpt><trkpt lat="43.6266501" lon="13.0191525"><ele>171.0</ele><time>2026-04-18T07:44:21.271Z</time></trkpt><trkpt lat="43.6267408" lon="13.0192562"><ele>171.0</ele><time>2026-04-18T07:44:22.27Z</time></trkpt><trkpt lat="43.6268283" lon="13.0193579"><ele>171.0</ele><time>2026-04-18T07:44:23.27Z</time></trkpt><trkpt lat="43.6269135" lon="13.0194486"><ele>171.0</ele><time>2026-04-18T07:44:24.27Z</time></trkpt><trkpt lat="43.6269958" lon="13.0195356"><ele>171.0</ele><time>2026-04-18T07:44:25.27Z</time></trkpt><trkpt lat="43.6270792" lon="13.0196253"><ele>169.4</ele><time>2026-04-18T07:44:26.27Z</time></trkpt><trkpt lat="43.6271675" lon="13.0197186"><ele>167.8</ele><time>2026-04-18T07:44:27.271Z</time></trkpt><trkpt lat="43.6272546" lon="13.0198132"><ele>166.20000000000002</ele><time>2026-04-18T07:44:28.27Z</time></trkpt><trkpt lat="43.6273412" lon="13.0199047"><ele>164.60000000000002</ele><time>2026-04-18T07:44:29.271Z</time></trkpt><trkpt lat="43.6274252" lon="13.0199939"><ele>163.0</ele><time>2026-04-18T07:44:30.271Z</time></trkpt><trkpt lat="43.6275092" lon="13.0200775"><ele>162.0</ele><time>2026-04-18T07:44:31.271Z</time></trkpt><trkpt lat="43.6275908" lon="13.0201573"><ele>161.0</ele><time>2026-04-18T07:44:32.27Z</time></trkpt><trkpt lat="43.6276732" lon="13.020238"><ele>160.0</ele><time>2026-04-18T07:44:33.27Z</time></trkpt><trkpt lat="43.6277554" lon="13.0203186"><ele>159.0</ele><time>2026-04-18T07:44:34.27Z</time></trkpt><trkpt lat="43.6278383" lon="13.020403"><ele>158.0</ele><time>2026-04-18T07:44:35.271Z</time></trkpt><trkpt lat="43.6279283" lon="13.0204874"><ele>155.8</ele><time>2026-04-18T07:44:36.271Z</time></trkpt><trkpt lat="43.6280174" lon="13.0205674"><ele>153.60000000000002</ele><time>2026-04-18T07:44:37.27Z</time></trkpt><trkpt lat="43.6281016" lon="13.0206412"><ele>151.39999999999998</ele><time>2026-04-18T07:44:38.271Z</time></trkpt><trkpt lat="43.6281845" lon="13.0207104"><ele>149.2</ele><time>2026-04-18T07:44:39.27Z</time></trkpt><trkpt lat="43.6282682" lon="13.0207827"><ele>147.0</ele><time>2026-04-18T07:44:40.271Z</time></trkpt><trkpt lat="43.6283615" lon="13.0208625"><ele>146.25</ele><time>2026-04-18T07:44:41.271Z</time></trkpt><trkpt lat="43.6284624" lon="13.0209548"><ele>145.5</ele><time>2026-04-18T07:44:42.27Z</time></trkpt><trkpt lat="43.6285657" lon="13.0210696"><ele>144.75</ele><time>2026-04-18T07:44:43.27Z</time></trkpt><trkpt lat="43.6286638" lon="13.0211974"><ele>144.0</ele><time>2026-04-18T07:44:44.27Z</time></trkpt><trkpt lat="43.6287503" lon="13.0213218"><ele>141.5</ele><time>2026-04-18T07:44:45.271Z</time></trkpt><trkpt lat="43.6288254" lon="13.0214445"><ele>139.0</ele><time>2026-04-18T07:44:46.271Z</time></trkpt><trkpt lat="43.628889" lon="13.0215702"><ele>136.5</ele><time>2026-04-18T07:44:47.27Z</time></trkpt><trkpt lat="43.6289437" lon="13.0217112"><ele>134.0</ele><time>2026-04-18T07:44:48.27Z</time></trkpt><trkpt lat="43.6289849" lon="13.0218716"><ele>133.25</ele><time>2026-04-18T07:44:49.27Z</time></trkpt><trkpt lat="43.6290208" lon="13.0220436"><ele>132.5</ele><time>2026-04-18T07:44:50.27Z</time></trkpt><trkpt lat="43.6290561" lon="13.0222278"><ele>131.75</ele><time>2026-04-18T07:44:51.27Z</time></trkpt><trkpt lat="43.6290845" lon="13.0224115"><ele>131.0</ele><time>2026-04-18T07:44:52.271Z</time></trkpt><trkpt lat="43.629106" lon="13.0225922"><ele>130.0</ele><time>2026-04-18T07:44:53.27Z</time></trkpt><trkpt lat="43.6291256" lon="13.0227706"><ele>129.0</ele><time>2026-04-18T07:44:54.27Z</time></trkpt><trkpt lat="43.629141" lon="13.0229572"><ele>128.0</ele><time>2026-04-18T07:44:55.27Z</time></trkpt><trkpt lat="43.6291455" lon="13.0231571"><ele>127.0</ele><time>2026-04-18T07:44:56.271Z</time></trkpt><trkpt lat="43.6291408" lon="13.0233738"><ele>126.0</ele><time>2026-04-18T07:44:57.27Z</time></trkpt><trkpt lat="43.6291289" lon="13.0235855"><ele>125.0</ele><time>2026-04-18T07:44:58.271Z</time></trkpt><trkpt lat="43.6291124" lon="13.0237693"><ele>124.0</ele><time>2026-04-18T07:44:59.27Z</time></trkpt><trkpt lat="43.6290823" lon="13.0239537"><ele>123.0</ele><time>2026-04-18T07:45:00.271Z</time></trkpt><trkpt lat="43.6290366" lon="13.0241701"><ele>122.0</ele><time>2026-04-18T07:45:01.27Z</time></trkpt><trkpt lat="43.6289839" lon="13.0244083"><ele>121.0</ele><time>2026-04-18T07:45:02.27Z</time></trkpt><trkpt lat="43.6289369" lon="13.02462"><ele>120.0</ele><time>2026-04-18T07:45:03.27Z</time></trkpt><trkpt lat="43.6288952" lon="13.0247988"><ele>120.0</ele><time>2026-04-18T07:45:04.271Z</time></trkpt><trkpt lat="43.6288593" lon="13.024971"><ele>120.0</ele><time>2026-04-18T07:45:05.27Z</time></trkpt><trkpt lat="43.6288282" lon="13.0251377"><ele>120.0</ele><time>2026-04-18T07:45:06.271Z</time></trkpt><trkpt lat="43.6287858" lon="13.0252986"><ele>120.0</ele><time>2026-04-18T07:45:07.271Z</time></trkpt><trkpt lat="43.6287347" lon="13.0254427"><ele>119.2</ele><time>2026-04-18T07:45:08.27Z</time></trkpt><trkpt lat="43.6286925" lon="13.0255743"><ele>118.4</ele><time>2026-04-18T07:45:09.27Z</time></trkpt><trkpt lat="43.6286718" lon="13.0257069"><ele>117.6</ele><time>2026-04-18T07:45:10.271Z</time></trkpt><trkpt lat="43.6286757" lon="13.0258522"><ele>116.8</ele><time>2026-04-18T07:45:11.27Z</time></trkpt><trkpt lat="43.6286873" lon="13.0260036"><ele>116.0</ele><time>2026-04-18T07:45:12.271Z</time></trkpt><trkpt lat="43.6286939" lon="13.0261527"><ele>116.5</ele><time>2026-04-18T07:45:13.27Z</time></trkpt><trkpt lat="43.6286942" lon="13.0263035"><ele>117.0</ele><time>2026-04-18T07:45:14.271Z</time></trkpt><trkpt lat="43.6286824" lon="13.0264653"><ele>117.5</ele><time>2026-04-18T07:45:15.27Z</time></trkpt><trkpt lat="43.6286579" lon="13.0266338"><ele>118.0</ele><time>2026-04-18T07:45:16.271Z</time></trkpt><trkpt lat="43.6286191" lon="13.0267829"><ele>118.0</ele><time>2026-04-18T07:45:17.27Z</time></trkpt><trkpt lat="43.6285617" lon="13.0269104"><ele>118.0</ele><time>2026-04-18T07:45:18.27Z</time></trkpt><trkpt lat="43.6284884" lon="13.0270229"><ele>118.0</ele><time>2026-04-18T07:45:19.271Z</time></trkpt><trkpt lat="43.6283906" lon="13.0271266"><ele>118.0</ele><time>2026-04-18T07:45:20.271Z</time></trkpt><trkpt lat="43.628278" lon="13.0272167"><ele>118.0</ele><time>2026-04-18T07:45:21.271Z</time></trkpt><trkpt lat="43.6281693" lon="13.02729"><ele>118.00000000000001</ele><time>2026-04-18T07:45:22.271Z</time></trkpt><trkpt lat="43.6280662" lon="13.0273545"><ele>118.00000000000001</ele><time>2026-04-18T07:45:23.27Z</time></trkpt><trkpt lat="43.627974" lon="13.0274105"><ele>118.0</ele><time>2026-04-18T07:45:24.271Z</time></trkpt><trkpt lat="43.6278896" lon="13.027465"><ele>118.0</ele><time>2026-04-18T07:45:25.27Z</time></trkpt><trkpt lat="43.6278288" lon="13.0275346"><ele>116.50000000000001</ele><time>2026-04-18T07:45:26.27Z</time></trkpt><trkpt lat="43.6278015" lon="13.0276278"><ele>115.0</ele><time>2026-04-18T07:45:27.271Z</time></trkpt><trkpt lat="43.6278073" lon="13.0277316"><ele>113.5</ele><time>2026-04-18T07:45:28.27Z</time></trkpt><trkpt lat="43.6278479" lon="13.0278254"><ele>112.0</ele><time>2026-04-18T07:45:29.27Z</time></trkpt><trkpt lat="43.6279169" lon="13.0279133"><ele>110.50000000000001</ele><time>2026-04-18T07:45:30.27Z</time></trkpt><trkpt lat="43.627996" lon="13.0280092"><ele>109.0</ele><time>2026-04-18T07:45:31.27Z</time></trkpt><trkpt lat="43.6280769" lon="13.0281203"><ele>108.4</ele><time>2026-04-18T07:45:32.27Z</time></trkpt><trkpt lat="43.6281533" lon="13.0282482"><ele>107.80000000000001</ele><time>2026-04-18T07:45:33.27Z</time></trkpt><trkpt lat="43.6282247" lon="13.0283787"><ele>107.19999999999999</ele><time>2026-04-18T07:45:34.27Z</time></trkpt><trkpt lat="43.6282875" lon="13.0285041"><ele>106.6</ele><time>2026-04-18T07:45:35.27Z</time></trkpt><trkpt lat="43.628344" lon="13.0286093"><ele>106.0</ele><time>2026-04-18T07:45:36.271Z</time></trkpt><trkpt lat="43.6283869" lon="13.0287083"><ele>105.8</ele><time>2026-04-18T07:45:37.27Z</time></trkpt><trkpt lat="43.6284218" lon="13.0288147"><ele>105.6</ele><time>2026-04-18T07:45:38.27Z</time></trkpt><trkpt lat="43.6284475" lon="13.0289426"><ele>105.4</ele><time>2026-04-18T07:45:39.27Z</time></trkpt><trkpt lat="43.6284733" lon="13.0290964"><ele>105.2</ele><time>2026-04-18T07:45:40.27Z</time></trkpt><trkpt lat="43.6285018" lon="13.0292649"><ele>105.0</ele><time>2026-04-18T07:45:41.27Z</time></trkpt><trkpt lat="43.6285377" lon="13.0294296"><ele>105.5</ele><time>2026-04-18T07:45:42.271Z</time></trkpt><trkpt lat="43.6285809" lon="13.0295825"><ele>106.0</ele><time>2026-04-18T07:45:43.27Z</time></trkpt><trkpt lat="43.6286365" lon="13.029727"><ele>106.5</ele><time>2026-04-18T07:45:44.27Z</time></trkpt><trkpt lat="43.6287105" lon="13.0298784"><ele>107.0</ele><time>2026-04-18T07:45:45.27Z</time></trkpt><trkpt lat="43.6287975" lon="13.030033"><ele>105.25</ele><time>2026-04-18T07:45:46.27Z</time></trkpt><trkpt lat="43.6288922" lon="13.0301912"><ele>103.5</ele><time>2026-04-18T07:45:47.271Z</time></trkpt><trkpt lat="43.6289929" lon="13.0303476"><ele>101.75</ele><time>2026-04-18T07:45:48.27Z</time></trkpt><trkpt lat="43.6290809" lon="13.0304899"><ele>100.0</ele><time>2026-04-18T07:45:49.271Z</time></trkpt><trkpt lat="43.6291589" lon="13.0306197"><ele>100.0</ele><time>2026-04-18T07:45:50.271Z</time></trkpt><trkpt lat="43.6292358" lon="13.0307235"><ele>100.0</ele><time>2026-04-18T07:45:51.27Z</time></trkpt><trkpt lat="43.6293294" lon="13.0308084"><ele>100.0</ele><time>2026-04-18T07:45:52.27Z</time></trkpt><trkpt lat="43.6294394" lon="13.0309017"><ele>100.0</ele><time>2026-04-18T07:45:53.27Z</time></trkpt><trkpt lat="43.6295581" lon="13.0310015"><ele>99.5</ele><time>2026-04-18T07:45:54.27Z</time></trkpt><trkpt lat="43.6296758" lon="13.0311114"><ele>99.0</ele><time>2026-04-18T07:45:55.27Z</time></trkpt><trkpt lat="43.6297902" lon="13.0312303"><ele>98.5</ele><time>2026-04-18T07:45:56.271Z</time></trkpt><trkpt lat="43.6299059" lon="13.0313561"><ele>98.0</ele><time>2026-04-18T07:45:57.271Z</time></trkpt><trkpt lat="43.630023" lon="13.0314857"><ele>98.0</ele><time>2026-04-18T07:45:58.27Z</time></trkpt><trkpt lat="43.6301331" lon="13.0316218"><ele>98.0</ele><time>2026-04-18T07:45:59.27Z</time></trkpt><trkpt lat="43.6302351" lon="13.0317654"><ele>98.0</ele><time>2026-04-18T07:46:00.27Z</time></trkpt><trkpt lat="43.6303439" lon="13.0319174"><ele>98.0</ele><time>2026-04-18T07:46:01.27Z</time></trkpt><trkpt lat="43.6304393" lon="13.0320642"><ele>99.60000000000001</ele><time>2026-04-18T07:46:02.27Z</time></trkpt><trkpt lat="43.6305103" lon="13.0321963"><ele>101.2</ele><time>2026-04-18T07:46:03.271Z</time></trkpt><trkpt lat="43.6305634" lon="13.0323147"><ele>102.8</ele><time>2026-04-18T07:46:04.271Z</time></trkpt><trkpt lat="43.6306078" lon="13.032419"><ele>104.4</ele><time>2026-04-18T07:46:05.27Z</time></trkpt><trkpt lat="43.6306617" lon="13.0325065"><ele>106.0</ele><time>2026-04-18T07:46:06.271Z</time></trkpt><trkpt lat="43.6307405" lon="13.0325922"><ele>106.0</ele><time>2026-04-18T07:46:07.27Z</time></trkpt><trkpt lat="43.6308434" lon="13.0326726"><ele>106.0</ele><time>2026-04-18T07:46:08.271Z</time></trkpt><trkpt lat="43.6309574" lon="13.0327519"><ele>106.0</ele><time>2026-04-18T07:46:09.27Z</time></trkpt><trkpt lat="43.631068" lon="13.0328394"><ele>106.0</ele><time>2026-04-18T07:46:10.27Z</time></trkpt><trkpt lat="43.6311688" lon="13.0329419"><ele>107.25</ele><time>2026-04-18T07:46:11.27Z</time></trkpt><trkpt lat="43.6312687" lon="13.0330548"><ele>108.5</ele><time>2026-04-18T07:46:12.271Z</time></trkpt><trkpt lat="43.6313725" lon="13.0331664"><ele>109.75</ele><time>2026-04-18T07:46:13.27Z</time></trkpt><trkpt lat="43.6314753" lon="13.0332804"><ele>111.0</ele><time>2026-04-18T07:46:14.271Z</time></trkpt><trkpt lat="43.631584" lon="13.0333997"><ele>111.0</ele><time>2026-04-18T07:46:15.27Z</time></trkpt><trkpt lat="43.6317022" lon="13.033519"><ele>111.0</ele><time>2026-04-18T07:46:16.271Z</time></trkpt><trkpt lat="43.6318242" lon="13.0336348"><ele>111.0</ele><time>2026-04-18T07:46:17.27Z</time></trkpt><trkpt lat="43.6319378" lon="13.0337506"><ele>111.0</ele><time>2026-04-18T07:46:18.271Z</time></trkpt><trkpt lat="43.6320536" lon="13.0338753"><ele>111.5</ele><time>2026-04-18T07:46:19.27Z</time></trkpt><trkpt lat="43.6321652" lon="13.0339949"><ele>112.0</ele><time>2026-04-18T07:46:20.271Z</time></trkpt><trkpt lat="43.6322787" lon="13.0341011"><ele>112.5</ele><time>2026-04-18T07:46:21.27Z</time></trkpt><trkpt lat="43.6323975" lon="13.0341963"><ele>113.0</ele><time>2026-04-18T07:46:22.271Z</time></trkpt><trkpt lat="43.6325186" lon="13.0342836"><ele>113.0</ele><time>2026-04-18T07:46:23.27Z</time></trkpt><trkpt lat="43.6326428" lon="13.0343607"><ele>113.0</ele><time>2026-04-18T07:46:24.27Z</time></trkpt><trkpt lat="43.6327702" lon="13.0344344"><ele>113.0</ele><time>2026-04-18T07:46:25.271Z</time></trkpt><trkpt lat="43.6328927" lon="13.0345093"><ele>113.0</ele><time>2026-04-18T07:46:26.27Z</time></trkpt><trkpt lat="43.6330159" lon="13.0345838"><ele>115.25</ele><time>2026-04-18T07:46:27.27Z</time></trkpt><trkpt lat="43.6331451" lon="13.034645"><ele>117.5</ele><time>2026-04-18T07:46:28.27Z</time></trkpt><trkpt lat="43.6332775" lon="13.0346827"><ele>119.75</ele><time>2026-04-18T07:46:29.27Z</time></trkpt><trkpt lat="43.6334112" lon="13.0347056"><ele>122.0</ele><time>2026-04-18T07:46:30.27Z</time></trkpt><trkpt lat="43.633542" lon="13.0347304"><ele>125.0</ele><time>2026-04-18T07:46:31.27Z</time></trkpt><trkpt lat="43.6336774" lon="13.0347585"><ele>128.0</ele><time>2026-04-18T07:46:32.27Z</time></trkpt><trkpt lat="43.633812" lon="13.0348021"><ele>131.0</ele><time>2026-04-18T07:46:33.271Z</time></trkpt><trkpt lat="43.6339492" lon="13.0348513"><ele>134.0</ele><time>2026-04-18T07:46:34.27Z</time></trkpt><trkpt lat="43.6340865" lon="13.0349007"><ele>134.0</ele><time>2026-04-18T07:46:35.27Z</time></trkpt><trkpt lat="43.6342203" lon="13.0349456"><ele>134.0</ele><time>2026-04-18T07:46:36.271Z</time></trkpt><trkpt lat="43.634358" lon="13.0349925"><ele>134.0</ele><time>2026-04-18T07:46:37.27Z</time></trkpt><trkpt lat="43.6345048" lon="13.0350445"><ele>134.0</ele><time>2026-04-18T07:46:38.27Z</time></trkpt><trkpt lat="43.6346494" lon="13.0351025"><ele>134.0</ele><time>2026-04-18T07:46:39.27Z</time></trkpt><trkpt lat="43.6347823" lon="13.0351563"><ele>134.0</ele><time>2026-04-18T07:46:40.27Z</time></trkpt><trkpt lat="43.6349097" lon="13.0352055"><ele>134.0</ele><time>2026-04-18T07:46:41.27Z</time></trkpt><trkpt lat="43.6350407" lon="13.0352539"><ele>134.0</ele><time>2026-04-18T07:46:42.27Z</time></trkpt><trkpt lat="43.6351625" lon="13.0353115"><ele>134.0</ele><time>2026-04-18T07:46:43.27Z</time></trkpt><trkpt lat="43.6352682" lon="13.0353825"><ele>134.0</ele><time>2026-04-18T07:46:44.27Z</time></trkpt><trkpt lat="43.6353553" lon="13.0354707"><ele>134.0</ele><time>2026-04-18T07:46:45.271Z</time></trkpt><trkpt lat="43.6354256" lon="13.0355785"><ele>134.0</ele><time>2026-04-18T07:46:46.271Z</time></trkpt><trkpt lat="43.6354966" lon="13.0357031"><ele>134.0</ele><time>2026-04-18T07:46:47.27Z</time></trkpt><trkpt lat="43.6355765" lon="13.0358374"><ele>134.75</ele><time>2026-04-18T07:46:48.27Z</time></trkpt><trkpt lat="43.6356691" lon="13.0359748"><ele>135.5</ele><time>2026-04-18T07:46:49.27Z</time></trkpt><trkpt lat="43.6357569" lon="13.03612"><ele>136.25</ele><time>2026-04-18T07:46:50.271Z</time></trkpt><trkpt lat="43.6358514" lon="13.0362568"><ele>137.0</ele><time>2026-04-18T07:46:51.271Z</time></trkpt><trkpt lat="43.6359497" lon="13.0363934"><ele>137.0</ele><time>2026-04-18T07:46:52.27Z</time></trkpt><trkpt lat="43.6360525" lon="13.0365264"><ele>137.0</ele><time>2026-04-18T07:46:53.271Z</time></trkpt><trkpt lat="43.6361569" lon="13.0366578"><ele>137.0</ele><time>2026-04-18T07:46:54.27Z</time></trkpt><trkpt lat="43.6362591" lon="13.0367966"><ele>137.0</ele><time>2026-04-18T07:46:55.27Z</time></trkpt><trkpt lat="43.6363613" lon="13.0369387"><ele>138.5</ele><time>2026-04-18T07:46:56.271Z</time></trkpt><trkpt lat="43.6364561" lon="13.0370819"><ele>140.0</ele><time>2026-04-18T07:46:57.27Z</time></trkpt><trkpt lat="43.6365398" lon="13.0372322"><ele>141.5</ele><time>2026-04-18T07:46:58.271Z</time></trkpt><trkpt lat="43.6366218" lon="13.0373952"><ele>143.0</ele><time>2026-04-18T07:46:59.27Z</time></trkpt><trkpt lat="43.6366919" lon="13.0375509"><ele>143.0</ele><time>2026-04-18T07:47:00.271Z</time></trkpt><trkpt lat="43.6367604" lon="13.0377047"><ele>143.0</ele><time>2026-04-18T07:47:01.271Z</time></trkpt><trkpt lat="43.6368392" lon="13.0378596"><ele>143.0</ele><time>2026-04-18T07:47:02.27Z</time></trkpt><trkpt lat="43.6369279" lon="13.0379973"><ele>143.0</ele><time>2026-04-18T07:47:03.27Z</time></trkpt><trkpt lat="43.6370244" lon="13.0381244"><ele>146.5</ele><time>2026-04-18T07:47:04.271Z</time></trkpt><trkpt lat="43.6371322" lon="13.0382592"><ele>150.0</ele><time>2026-04-18T07:47:05.271Z</time></trkpt><trkpt lat="43.6372411" lon="13.0383949"><ele>153.5</ele><time>2026-04-18T07:47:06.27Z</time></trkpt><trkpt lat="43.6373514" lon="13.0385323"><ele>157.0</ele><time>2026-04-18T07:47:07.27Z</time></trkpt><trkpt lat="43.6374577" lon="13.0386847"><ele>157.75</ele><time>2026-04-18T07:47:08.27Z</time></trkpt><trkpt lat="43.6375453" lon="13.03882"><ele>158.5</ele><time>2026-04-18T07:47:09.27Z</time></trkpt><trkpt lat="43.6376069" lon="13.0389549"><ele>159.25</ele><time>2026-04-18T07:47:10.27Z</time></trkpt><trkpt lat="43.6376467" lon="13.0391096"><ele>160.0</ele><time>2026-04-18T07:47:11.27Z</time></trkpt><trkpt lat="43.6376701" lon="13.0392514"><ele>161.2</ele><time>2026-04-18T07:47:12.27Z</time></trkpt><trkpt lat="43.6377037" lon="13.0393678"><ele>162.4</ele><time>2026-04-18T07:47:13.271Z</time></trkpt><trkpt lat="43.6377749" lon="13.039483"><ele>163.60000000000002</ele><time>2026-04-18T07:47:14.27Z</time></trkpt><trkpt lat="43.637865" lon="13.0395915"><ele>164.8</ele><time>2026-04-18T07:47:15.27Z</time></trkpt><trkpt lat="43.6379472" lon="13.0396975"><ele>166.0</ele><time>2026-04-18T07:47:16.27Z</time></trkpt><trkpt lat="43.6380674" lon="13.0397845"><ele>167.60000000000002</ele><time>2026-04-18T07:47:17.271Z</time></trkpt><trkpt lat="43.6381718" lon="13.0398677"><ele>169.2</ele><time>2026-04-18T07:47:18.27Z</time></trkpt><trkpt lat="43.6382589" lon="13.0399313"><ele>170.8</ele><time>2026-04-18T07:47:19.27Z</time></trkpt><trkpt lat="43.6383379" lon="13.0399825"><ele>172.39999999999998</ele><time>2026-04-18T07:47:20.271Z</time></trkpt><trkpt lat="43.638408" lon="13.0400195"><ele>174.0</ele><time>2026-04-18T07:47:21.27Z</time></trkpt><trkpt lat="43.6384782" lon="13.0400526"><ele>174.16666666666666</ele><time>2026-04-18T07:47:22.271Z</time></trkpt><trkpt lat="43.6385512" lon="13.0400803"><ele>174.33333333333334</ele><time>2026-04-18T07:47:23.271Z</time></trkpt><trkpt lat="43.6386136" lon="13.0401018"><ele>174.5</ele><time>2026-04-18T07:47:24.271Z</time></trkpt><trkpt lat="43.63868" lon="13.0401267"><ele>174.66666666666669</ele><time>2026-04-18T07:47:26.27Z</time></trkpt><trkpt lat="43.6387574" lon="13.0400856"><ele>174.83333333333334</ele><time>2026-04-18T07:47:28.271Z</time></trkpt><trkpt lat="43.6388057" lon="13.0400039"><ele>175.0</ele><time>2026-04-18T07:47:29.271Z</time></trkpt><trkpt lat="43.6388536" lon="13.039891"><ele>175.8</ele><time>2026-04-18T07:47:30.27Z</time></trkpt><trkpt lat="43.6388889" lon="13.0397846"><ele>176.6</ele><time>2026-04-18T07:47:31.27Z</time></trkpt><trkpt lat="43.6389238" lon="13.0396799"><ele>177.39999999999998</ele><time>2026-04-18T07:47:32.27Z</time></trkpt><trkpt lat="43.638962" lon="13.0395533"><ele>178.2</ele><time>2026-04-18T07:47:33.271Z</time></trkpt><trkpt lat="43.6389904" lon="13.0393912"><ele>179.0</ele><time>2026-04-18T07:47:34.27Z</time></trkpt><trkpt lat="43.6389962" lon="13.0392135"><ele>179.25</ele><time>2026-04-18T07:47:35.271Z</time></trkpt><trkpt lat="43.6389842" lon="13.0390406"><ele>179.5</ele><time>2026-04-18T07:47:36.27Z</time></trkpt><trkpt lat="43.638973" lon="13.0388744"><ele>179.75</ele><time>2026-04-18T07:47:37.27Z</time></trkpt><trkpt lat="43.6389698" lon="13.0387135"><ele>180.0</ele><time>2026-04-18T07:47:38.27Z</time></trkpt><trkpt lat="43.6389735" lon="13.0385445"><ele>180.0</ele><time>2026-04-18T07:47:39.27Z</time></trkpt><trkpt lat="43.6389805" lon="13.0383763"><ele>180.0</ele><time>2026-04-18T07:47:40.271Z</time></trkpt><trkpt lat="43.6389881" lon="13.0382095"><ele>180.0</ele><time>2026-04-18T07:47:41.27Z</time></trkpt><trkpt lat="43.6389906" lon="13.038037"><ele>180.0</ele><time>2026-04-18T07:47:42.27Z</time></trkpt><trkpt lat="43.6389918" lon="13.0378596"><ele>180.25</ele><time>2026-04-18T07:47:43.271Z</time></trkpt><trkpt lat="43.6389906" lon="13.0376718"><ele>180.5</ele><time>2026-04-18T07:47:44.271Z</time></trkpt><trkpt lat="43.6389939" lon="13.0374841"><ele>180.75</ele><time>2026-04-18T07:47:45.27Z</time></trkpt><trkpt lat="43.6390059" lon="13.0373002"><ele>181.0</ele><time>2026-04-18T07:47:46.27Z</time></trkpt><trkpt lat="43.6390308" lon="13.0371245"><ele>181.5</ele><time>2026-04-18T07:47:47.27Z</time></trkpt><trkpt lat="43.6390602" lon="13.0369517"><ele>182.0</ele><time>2026-04-18T07:47:48.271Z</time></trkpt><trkpt lat="43.6390829" lon="13.0367807"><ele>182.5</ele><time>2026-04-18T07:47:49.271Z</time></trkpt><trkpt lat="43.6390855" lon="13.0366026"><ele>183.0</ele><time>2026-04-18T07:47:50.271Z</time></trkpt><trkpt lat="43.6390732" lon="13.0364087"><ele>183.25</ele><time>2026-04-18T07:47:51.271Z</time></trkpt><trkpt lat="43.6390593" lon="13.0362126"><ele>183.5</ele><time>2026-04-18T07:47:52.271Z</time></trkpt><trkpt lat="43.6390473" lon="13.0360137"><ele>183.75</ele><time>2026-04-18T07:47:53.27Z</time></trkpt><trkpt lat="43.6390356" lon="13.0358119"><ele>184.0</ele><time>2026-04-18T07:47:54.27Z</time></trkpt><trkpt lat="43.6390277" lon="13.0356144"><ele>184.25</ele><time>2026-04-18T07:47:55.27Z</time></trkpt><trkpt lat="43.6390204" lon="13.0354189"><ele>184.5</ele><time>2026-04-18T07:47:56.271Z</time></trkpt><trkpt lat="43.6390061" lon="13.0352242"><ele>184.75</ele><time>2026-04-18T07:47:57.271Z</time></trkpt><trkpt lat="43.6389834" lon="13.0350382"><ele>185.0</ele><time>2026-04-18T07:47:58.271Z</time></trkpt><trkpt lat="43.6389574" lon="13.0348632"><ele>186.25</ele><time>2026-04-18T07:47:59.27Z</time></trkpt><trkpt lat="43.6389353" lon="13.0346873"><ele>187.5</ele><time>2026-04-18T07:48:00.27Z</time></trkpt><trkpt lat="43.6389109" lon="13.0345188"><ele>188.75</ele><time>2026-04-18T07:48:01.271Z</time></trkpt><trkpt lat="43.6388987" lon="13.0343532"><ele>190.0</ele><time>2026-04-18T07:48:02.271Z</time></trkpt><trkpt lat="43.6389039" lon="13.0341816"><ele>190.75</ele><time>2026-04-18T07:48:03.27Z</time></trkpt><trkpt lat="43.6389149" lon="13.0340026"><ele>191.5</ele><time>2026-04-18T07:48:04.27Z</time></trkpt><trkpt lat="43.6389255" lon="13.0338277"><ele>192.25</ele><time>2026-04-18T07:48:05.271Z</time></trkpt><trkpt lat="43.6389414" lon="13.0336542"><ele>193.0</ele><time>2026-04-18T07:48:06.27Z</time></trkpt><trkpt lat="43.6389697" lon="13.0334914"><ele>193.0</ele><time>2026-04-18T07:48:07.271Z</time></trkpt><trkpt lat="43.639023" lon="13.0333351"><ele>193.0</ele><time>2026-04-18T07:48:08.27Z</time></trkpt><trkpt lat="43.6391006" lon="13.0331826"><ele>193.0</ele><time>2026-04-18T07:48:09.271Z</time></trkpt><trkpt lat="43.6391936" lon="13.0330309"><ele>193.0</ele><time>2026-04-18T07:48:10.27Z</time></trkpt><trkpt lat="43.639295" lon="13.0328807"><ele>192.75</ele><time>2026-04-18T07:48:11.27Z</time></trkpt><trkpt lat="43.639397" lon="13.0327372"><ele>192.5</ele><time>2026-04-18T07:48:12.271Z</time></trkpt><trkpt lat="43.6394941" lon="13.032597"><ele>192.25</ele><time>2026-04-18T07:48:13.27Z</time></trkpt><trkpt lat="43.6395999" lon="13.0324624"><ele>192.0</ele><time>2026-04-18T07:48:14.271Z</time></trkpt><trkpt lat="43.6397063" lon="13.0323281"><ele>190.25</ele><time>2026-04-18T07:48:15.27Z</time></trkpt><trkpt lat="43.6398028" lon="13.0321885"><ele>188.5</ele><time>2026-04-18T07:48:16.27Z</time></trkpt><trkpt lat="43.6398929" lon="13.0320405"><ele>186.75</ele><time>2026-04-18T07:48:17.271Z</time></trkpt><trkpt lat="43.6399816" lon="13.0318889"><ele>185.0</ele><time>2026-04-18T07:48:18.271Z</time></trkpt><trkpt lat="43.6400658" lon="13.0317342"><ele>185.25</ele><time>2026-04-18T07:48:19.27Z</time></trkpt><trkpt lat="43.6401403" lon="13.0315719"><ele>185.5</ele><time>2026-04-18T07:48:20.271Z</time></trkpt><trkpt lat="43.6402069" lon="13.0314099"><ele>185.75</ele><time>2026-04-18T07:48:21.27Z</time></trkpt><trkpt lat="43.6402688" lon="13.0312606"><ele>186.0</ele><time>2026-04-18T07:48:22.27Z</time></trkpt><trkpt lat="43.6403223" lon="13.0311219"><ele>186.60000000000002</ele><time>2026-04-18T07:48:23.27Z</time></trkpt><trkpt lat="43.6403654" lon="13.0309851"><ele>187.2</ele><time>2026-04-18T07:48:24.27Z</time></trkpt><trkpt lat="43.6404029" lon="13.0308391"><ele>187.8</ele><time>2026-04-18T07:48:25.271Z</time></trkpt><trkpt lat="43.6404386" lon="13.0306868"><ele>188.39999999999998</ele><time>2026-04-18T07:48:26.27Z</time></trkpt><trkpt lat="43.6404639" lon="13.0305398"><ele>189.0</ele><time>2026-04-18T07:48:27.27Z</time></trkpt><trkpt lat="43.6404804" lon="13.0304223"><ele>189.83333333333334</ele><time>2026-04-18T07:48:28.271Z</time></trkpt><trkpt lat="43.6405032" lon="13.0303394"><ele>190.66666666666669</ele><time>2026-04-18T07:48:29.27Z</time></trkpt><trkpt lat="43.6406063" lon="13.0302644"><ele>191.5</ele><time>2026-04-18T07:48:31.27Z</time></trkpt><trkpt lat="43.6406774" lon="13.0302728"><ele>192.33333333333334</ele><time>2026-04-18T07:48:32.27Z</time></trkpt><trkpt lat="43.640764" lon="13.0302928"><ele>193.16666666666669</ele><time>2026-04-18T07:48:33.27Z</time></trkpt><trkpt lat="43.6408569" lon="13.0303123"><ele>194.0</ele><time>2026-04-18T07:48:34.27Z</time></trkpt><trkpt lat="43.6409489" lon="13.0303299"><ele>194.0</ele><time>2026-04-18T07:48:35.271Z</time></trkpt><trkpt lat="43.6410473" lon="13.0303512"><ele>194.0</ele><time>2026-04-18T07:48:36.271Z</time></trkpt><trkpt lat="43.6411465" lon="13.0303951"><ele>194.0</ele><time>2026-04-18T07:48:37.27Z</time></trkpt><trkpt lat="43.6412303" lon="13.0304753"><ele>194.0</ele><time>2026-04-18T07:48:38.271Z</time></trkpt><trkpt lat="43.6412993" lon="13.0305928"><ele>194.0</ele><time>2026-04-18T07:48:39.271Z</time></trkpt><trkpt lat="43.6413481" lon="13.0307445"><ele>191.0</ele><time>2026-04-18T07:48:40.27Z</time></trkpt><trkpt lat="43.6413755" lon="13.0309063"><ele>188.0</ele><time>2026-04-18T07:48:41.27Z</time></trkpt><trkpt lat="43.6414012" lon="13.0310718"><ele>185.0</ele><time>2026-04-18T07:48:42.27Z</time></trkpt><trkpt lat="43.6414344" lon="13.0312347"><ele>182.0</ele><time>2026-04-18T07:48:43.27Z</time></trkpt><trkpt lat="43.6414732" lon="13.0313997"><ele>182.0</ele><time>2026-04-18T07:48:44.27Z</time></trkpt><trkpt lat="43.6415064" lon="13.031563"><ele>182.0</ele><time>2026-04-18T07:48:45.271Z</time></trkpt><trkpt lat="43.6415384" lon="13.031724"><ele>182.0</ele><time>2026-04-18T07:48:46.27Z</time></trkpt><trkpt lat="43.6415706" lon="13.0318894"><ele>182.0</ele><time>2026-04-18T07:48:47.27Z</time></trkpt><trkpt lat="43.6416066" lon="13.0320634"><ele>180.75</ele><time>2026-04-18T07:48:48.271Z</time></trkpt><trkpt lat="43.6416416" lon="13.0322387"><ele>179.5</ele><time>2026-04-18T07:48:49.271Z</time></trkpt><trkpt lat="43.6416754" lon="13.032408"><ele>178.25</ele><time>2026-04-18T07:48:50.27Z</time></trkpt><trkpt lat="43.6417017" lon="13.0325747"><ele>177.0</ele><time>2026-04-18T07:48:51.27Z</time></trkpt><trkpt lat="43.641717" lon="13.0327418"><ele>176.25</ele><time>2026-04-18T07:48:52.27Z</time></trkpt><trkpt lat="43.6417273" lon="13.032916"><ele>175.5</ele><time>2026-04-18T07:48:53.27Z</time></trkpt><trkpt lat="43.6417384" lon="13.0330992"><ele>174.75</ele><time>2026-04-18T07:48:54.27Z</time></trkpt><trkpt lat="43.6417479" lon="13.0332841"><ele>174.0</ele><time>2026-04-18T07:48:55.271Z</time></trkpt><trkpt lat="43.6417558" lon="13.0334742"><ele>172.5</ele><time>2026-04-18T07:48:56.271Z</time></trkpt><trkpt lat="43.6417618" lon="13.0336677"><ele>171.0</ele><time>2026-04-18T07:48:57.27Z</time></trkpt><trkpt lat="43.6417694" lon="13.0338606"><ele>169.5</ele><time>2026-04-18T07:48:58.27Z</time></trkpt><trkpt lat="43.641777" lon="13.0340477"><ele>168.0</ele><time>2026-04-18T07:48:59.27Z</time></trkpt><trkpt lat="43.6417824" lon="13.0342331"><ele>166.75</ele><time>2026-04-18T07:49:00.27Z</time></trkpt><trkpt lat="43.6417867" lon="13.034416"><ele>165.5</ele><time>2026-04-18T07:49:01.27Z</time></trkpt><trkpt lat="43.6417868" lon="13.0345943"><ele>164.25</ele><time>2026-04-18T07:49:02.27Z</time></trkpt><trkpt lat="43.6417841" lon="13.0347699"><ele>163.0</ele><time>2026-04-18T07:49:03.271Z</time></trkpt><trkpt lat="43.6417837" lon="13.0349384"><ele>161.75</ele><time>2026-04-18T07:49:04.271Z</time></trkpt><trkpt lat="43.6417947" lon="13.0351023"><ele>160.5</ele><time>2026-04-18T07:49:05.27Z</time></trkpt><trkpt lat="43.6418274" lon="13.0352543"><ele>159.25</ele><time>2026-04-18T07:49:06.271Z</time></trkpt><trkpt lat="43.641883" lon="13.0353912"><ele>158.0</ele><time>2026-04-18T07:49:07.271Z</time></trkpt><trkpt lat="43.6419625" lon="13.0355143"><ele>156.5</ele><time>2026-04-18T07:49:08.27Z</time></trkpt><trkpt lat="43.6420653" lon="13.0356255"><ele>155.0</ele><time>2026-04-18T07:49:09.271Z</time></trkpt><trkpt lat="43.642182" lon="13.0357345"><ele>153.5</ele><time>2026-04-18T07:49:10.27Z</time></trkpt><trkpt lat="43.6423045" lon="13.0358468"><ele>152.0</ele><time>2026-04-18T07:49:11.27Z</time></trkpt><trkpt lat="43.6424232" lon="13.0359573"><ele>151.0</ele><time>2026-04-18T07:49:12.271Z</time></trkpt><trkpt lat="43.6425368" lon="13.0360566"><ele>150.0</ele><time>2026-04-18T07:49:13.27Z</time></trkpt><trkpt lat="43.6426504" lon="13.0361481"><ele>149.0</ele><time>2026-04-18T07:49:14.27Z</time></trkpt><trkpt lat="43.6427643" lon="13.0362439"><ele>148.0</ele><time>2026-04-18T07:49:15.27Z</time></trkpt><trkpt lat="43.6428677" lon="13.0363559"><ele>146.0</ele><time>2026-04-18T07:49:16.271Z</time></trkpt><trkpt lat="43.6429532" lon="13.0364805"><ele>144.0</ele><time>2026-04-18T07:49:17.27Z</time></trkpt><trkpt lat="43.6430291" lon="13.0366151"><ele>142.0</ele><time>2026-04-18T07:49:18.271Z</time></trkpt><trkpt lat="43.6431092" lon="13.0367448"><ele>140.0</ele><time>2026-04-18T07:49:19.271Z</time></trkpt><trkpt lat="43.6431969" lon="13.0368714"><ele>139.0</ele><time>2026-04-18T07:49:20.271Z</time></trkpt><trkpt lat="43.6432953" lon="13.0370025"><ele>138.0</ele><time>2026-04-18T07:49:21.27Z</time></trkpt><trkpt lat="43.6433997" lon="13.0371249"><ele>137.0</ele><time>2026-04-18T07:49:22.27Z</time></trkpt><trkpt lat="43.6435114" lon="13.0372398"><ele>136.0</ele><time>2026-04-18T07:49:23.27Z</time></trkpt><trkpt lat="43.6436236" lon="13.0373649"><ele>132.75</ele><time>2026-04-18T07:49:24.27Z</time></trkpt><trkpt lat="43.6437329" lon="13.0375"><ele>129.5</ele><time>2026-04-18T07:49:25.27Z</time></trkpt><trkpt lat="43.6438375" lon="13.0376388"><ele>126.25</ele><time>2026-04-18T07:49:26.27Z</time></trkpt><trkpt lat="43.6439414" lon="13.0377803"><ele>123.0</ele><time>2026-04-18T07:49:27.27Z</time></trkpt><trkpt lat="43.6440467" lon="13.037931"><ele>123.0</ele><time>2026-04-18T07:49:28.27Z</time></trkpt><trkpt lat="43.6441513" lon="13.0380778"><ele>123.0</ele><time>2026-04-18T07:49:29.27Z</time></trkpt><trkpt lat="43.6442506" lon="13.0382101"><ele>123.0</ele><time>2026-04-18T07:49:30.27Z</time></trkpt><trkpt lat="43.6443536" lon="13.038344"><ele>123.0</ele><time>2026-04-18T07:49:31.27Z</time></trkpt><trkpt lat="43.6444577" lon="13.0384878"><ele>121.75</ele><time>2026-04-18T07:49:32.27Z</time></trkpt><trkpt lat="43.6445585" lon="13.0386368"><ele>120.5</ele><time>2026-04-18T07:49:33.271Z</time></trkpt><trkpt lat="43.6446555" lon="13.0387812"><ele>119.25</ele><time>2026-04-18T07:49:34.271Z</time></trkpt><trkpt lat="43.6447369" lon="13.0389284"><ele>118.0</ele><time>2026-04-18T07:49:35.271Z</time></trkpt><trkpt lat="43.6448047" lon="13.0390775"><ele>118.25</ele><time>2026-04-18T07:49:36.271Z</time></trkpt><trkpt lat="43.6448704" lon="13.0392316"><ele>118.5</ele><time>2026-04-18T07:49:37.27Z</time></trkpt><trkpt lat="43.6449353" lon="13.0393821"><ele>118.75</ele><time>2026-04-18T07:49:38.27Z</time></trkpt><trkpt lat="43.6450051" lon="13.0395322"><ele>119.0</ele><time>2026-04-18T07:49:39.271Z</time></trkpt><trkpt lat="43.6450846" lon="13.0396899"><ele>119.0</ele><time>2026-04-18T07:49:40.271Z</time></trkpt><trkpt lat="43.6451717" lon="13.0398559"><ele>119.0</ele><time>2026-04-18T07:49:41.27Z</time></trkpt><trkpt lat="43.6452637" lon="13.0400286"><ele>119.0</ele><time>2026-04-18T07:49:42.271Z</time></trkpt><trkpt lat="43.6453549" lon="13.040199"><ele>117.0</ele><time>2026-04-18T07:49:43.27Z</time></trkpt><trkpt lat="43.6454463" lon="13.0403603"><ele>115.0</ele><time>2026-04-18T07:49:44.27Z</time></trkpt><trkpt lat="43.6455405" lon="13.0405191"><ele>113.0</ele><time>2026-04-18T07:49:45.27Z</time></trkpt><trkpt lat="43.6456384" lon="13.0406758"><ele>111.0</ele><time>2026-04-18T07:49:46.27Z</time></trkpt><trkpt lat="43.6457418" lon="13.0408189"><ele>110.5</ele><time>2026-04-18T07:49:47.27Z</time></trkpt><trkpt lat="43.6458467" lon="13.0409544"><ele>110.0</ele><time>2026-04-18T07:49:48.27Z</time></trkpt><trkpt lat="43.6459588" lon="13.0410839"><ele>109.5</ele><time>2026-04-18T07:49:49.27Z</time></trkpt><trkpt lat="43.6460796" lon="13.0412043"><ele>109.0</ele><time>2026-04-18T07:49:50.27Z</time></trkpt><trkpt lat="43.6462002" lon="13.0413225"><ele>109.25</ele><time>2026-04-18T07:49:51.271Z</time></trkpt><trkpt lat="43.6463187" lon="13.041434"><ele>109.5</ele><time>2026-04-18T07:49:52.27Z</time></trkpt><trkpt lat="43.6464325" lon="13.041545"><ele>109.75</ele><time>2026-04-18T07:49:53.271Z</time></trkpt><trkpt lat="43.6465377" lon="13.0416732"><ele>110.0</ele><time>2026-04-18T07:49:54.27Z</time></trkpt><trkpt lat="43.6466336" lon="13.0418198"><ele>110.0</ele><time>2026-04-18T07:49:55.27Z</time></trkpt><trkpt lat="43.6467103" lon="13.0419837"><ele>110.0</ele><time>2026-04-18T07:49:56.27Z</time></trkpt><trkpt lat="43.6467685" lon="13.0421672"><ele>110.0</ele><time>2026-04-18T07:49:57.27Z</time></trkpt><trkpt lat="43.6468177" lon="13.0423602"><ele>110.0</ele><time>2026-04-18T07:49:58.271Z</time></trkpt><trkpt lat="43.6468703" lon="13.0425488"><ele>111.5</ele><time>2026-04-18T07:49:59.271Z</time></trkpt><trkpt lat="43.6469282" lon="13.0427379"><ele>113.0</ele><time>2026-04-18T07:50:00.27Z</time></trkpt><trkpt lat="43.6469885" lon="13.0429277"><ele>114.5</ele><time>2026-04-18T07:50:01.271Z</time></trkpt><trkpt lat="43.6470528" lon="13.0431139"><ele>116.0</ele><time>2026-04-18T07:50:02.27Z</time></trkpt><trkpt lat="43.6471179" lon="13.043288"><ele>123.5</ele><time>2026-04-18T07:50:03.27Z</time></trkpt><trkpt lat="43.6471814" lon="13.0434444"><ele>131.0</ele><time>2026-04-18T07:50:04.27Z</time></trkpt><trkpt lat="43.6472367" lon="13.0435889"><ele>138.5</ele><time>2026-04-18T07:50:05.271Z</time></trkpt><trkpt lat="43.6472781" lon="13.0437235"><ele>146.0</ele><time>2026-04-18T07:50:06.27Z</time></trkpt><trkpt lat="43.6473089" lon="13.0438587"><ele>146.0</ele><time>2026-04-18T07:50:07.27Z</time></trkpt><trkpt lat="43.6473293" lon="13.0439992"><ele>146.0</ele><time>2026-04-18T07:50:08.27Z</time></trkpt><trkpt lat="43.6473465" lon="13.0441453"><ele>146.0</ele><time>2026-04-18T07:50:09.27Z</time></trkpt><trkpt lat="43.6473671" lon="13.044294"><ele>146.0</ele><time>2026-04-18T07:50:10.271Z</time></trkpt><trkpt lat="43.6473847" lon="13.0444411"><ele>146.0</ele><time>2026-04-18T07:50:11.27Z</time></trkpt><trkpt lat="43.6473954" lon="13.0445935"><ele>147.0</ele><time>2026-04-18T07:50:12.27Z</time></trkpt><trkpt lat="43.6473987" lon="13.044751"><ele>148.0</ele><time>2026-04-18T07:50:13.271Z</time></trkpt><trkpt lat="43.6473938" lon="13.0449125"><ele>149.0</ele><time>2026-04-18T07:50:14.27Z</time></trkpt><trkpt lat="43.6473812" lon="13.0450664"><ele>150.0</ele><time>2026-04-18T07:50:15.271Z</time></trkpt><trkpt lat="43.6473705" lon="13.0452089"><ele>151.0</ele><time>2026-04-18T07:50:16.271Z</time></trkpt><trkpt lat="43.6473706" lon="13.0453378"><ele>151.8</ele><time>2026-04-18T07:50:17.27Z</time></trkpt><trkpt lat="43.6473784" lon="13.0454635"><ele>152.6</ele><time>2026-04-18T07:50:18.27Z</time></trkpt><trkpt lat="43.6473964" lon="13.0455911"><ele>153.4</ele><time>2026-04-18T07:50:19.27Z</time></trkpt><trkpt lat="43.64743" lon="13.0457186"><ele>154.2</ele><time>2026-04-18T07:50:20.27Z</time></trkpt><trkpt lat="43.6474712" lon="13.0458504"><ele>155.0</ele><time>2026-04-18T07:50:21.271Z</time></trkpt><trkpt lat="43.6475027" lon="13.0459631"><ele>155.4</ele><time>2026-04-18T07:50:22.271Z</time></trkpt><trkpt lat="43.6475304" lon="13.0460459"><ele>155.8</ele><time>2026-04-18T07:50:23.271Z</time></trkpt><trkpt lat="43.6475684" lon="13.0461437"><ele>156.2</ele><time>2026-04-18T07:50:25.27Z</time></trkpt><trkpt lat="43.6475751" lon="13.0463352"><ele>156.6</ele><time>2026-04-18T07:50:31.27Z</time></trkpt><trkpt lat="43.647581" lon="13.0464813"><ele>157.0</ele><time>2026-04-18T07:50:32.271Z</time></trkpt><trkpt lat="43.6475853" lon="13.0466106"><ele>156.79999999999998</ele><time>2026-04-18T07:50:33.27Z</time></trkpt><trkpt lat="43.6475935" lon="13.0467439"><ele>156.6</ele><time>2026-04-18T07:50:34.27Z</time></trkpt><trkpt lat="43.6476061" lon="13.0468862"><ele>156.39999999999998</ele><time>2026-04-18T07:50:35.27Z</time></trkpt><trkpt lat="43.6476167" lon="13.0470288"><ele>156.2</ele><time>2026-04-18T07:50:36.27Z</time></trkpt><trkpt lat="43.6476257" lon="13.0471777"><ele>156.0</ele><time>2026-04-18T07:50:37.271Z</time></trkpt><trkpt lat="43.6476354" lon="13.0473384"><ele>155.5</ele><time>2026-04-18T07:50:38.27Z</time></trkpt><trkpt lat="43.6476502" lon="13.0475088"><ele>155.0</ele><time>2026-04-18T07:50:39.27Z</time></trkpt><trkpt lat="43.6476656" lon="13.0476789"><ele>154.5</ele><time>2026-04-18T07:50:40.27Z</time></trkpt><trkpt lat="43.6476824" lon="13.0478473"><ele>154.0</ele><time>2026-04-18T07:50:41.27Z</time></trkpt><trkpt lat="43.6476986" lon="13.0480152"><ele>154.0</ele><time>2026-04-18T07:50:42.27Z</time></trkpt><trkpt lat="43.6477193" lon="13.0481824"><ele>154.0</ele><time>2026-04-18T07:50:43.27Z</time></trkpt><trkpt lat="43.6477454" lon="13.0483457"><ele>154.0</ele><time>2026-04-18T07:50:44.271Z</time></trkpt><trkpt lat="43.6477704" lon="13.0485058"><ele>154.0</ele><time>2026-04-18T07:50:45.271Z</time></trkpt><trkpt lat="43.6478012" lon="13.0486594"><ele>156.5</ele><time>2026-04-18T07:50:46.271Z</time></trkpt><trkpt lat="43.6478266" lon="13.0488179"><ele>159.0</ele><time>2026-04-18T07:50:47.27Z</time></trkpt><trkpt lat="43.647849" lon="13.0489769"><ele>161.5</ele><time>2026-04-18T07:50:48.271Z</time></trkpt><trkpt lat="43.6478705" lon="13.049133"><ele>164.0</ele><time>2026-04-18T07:50:49.27Z</time></trkpt><trkpt lat="43.6478943" lon="13.0492787"><ele>164.0</ele><time>2026-04-18T07:50:50.271Z</time></trkpt><trkpt lat="43.6479147" lon="13.0494152"><ele>164.0</ele><time>2026-04-18T07:50:51.27Z</time></trkpt><trkpt lat="43.6479309" lon="13.0495334"><ele>164.0</ele><time>2026-04-18T07:50:52.27Z</time></trkpt><trkpt lat="43.6479408" lon="13.0496402"><ele>164.0</ele><time>2026-04-18T07:50:53.27Z</time></trkpt><trkpt lat="43.6479359" lon="13.0497292"><ele>164.0</ele><time>2026-04-18T07:50:54.27Z</time></trkpt><trkpt lat="43.647905" lon="13.0498892"><ele>164.0</ele><time>2026-04-18T07:50:56.27Z</time></trkpt><trkpt lat="43.6479239" lon="13.0500481"><ele>164.0</ele><time>2026-04-18T07:50:58.27Z</time></trkpt><trkpt lat="43.6480175" lon="13.0500965"><ele>164.0</ele><time>2026-04-18T07:51:00.27Z</time></trkpt><trkpt lat="43.6480828" lon="13.0500514"><ele>164.0</ele><time>2026-04-18T07:51:01.27Z</time></trkpt><trkpt lat="43.6481447" lon="13.0499843"><ele>164.0</ele><time>2026-04-18T07:51:02.271Z</time></trkpt><trkpt lat="43.6482108" lon="13.0498997"><ele>164.0</ele><time>2026-04-18T07:51:03.27Z</time></trkpt><trkpt lat="43.6482686" lon="13.0498314"><ele>164.0</ele><time>2026-04-18T07:51:04.27Z</time></trkpt><trkpt lat="43.648331" lon="13.0497563"><ele>164.0</ele><time>2026-04-18T07:51:05.27Z</time></trkpt><trkpt lat="43.6483911" lon="13.0497029"><ele>164.0</ele><time>2026-04-18T07:51:06.27Z</time></trkpt><trkpt lat="43.6484554" lon="13.0496262"><ele>164.0</ele><time>2026-04-18T07:51:07.271Z</time></trkpt><trkpt lat="43.6485241" lon="13.0495666"><ele>164.0</ele><time>2026-04-18T07:51:08.271Z</time></trkpt><trkpt lat="43.6485872" lon="13.0495075"><ele>164.85714285714283</ele><time>2026-04-18T07:51:09.27Z</time></trkpt><trkpt lat="43.6486573" lon="13.0494596"><ele>165.71428571428572</ele><time>2026-04-18T07:51:10.271Z</time></trkpt><trkpt lat="43.6487307" lon="13.0494215"><ele>166.57142857142856</ele><time>2026-04-18T07:51:11.27Z</time></trkpt><trkpt lat="43.6487968" lon="13.0493901"><ele>167.42857142857142</ele><time>2026-04-18T07:51:12.27Z</time></trkpt><trkpt lat="43.6488681" lon="13.0493572"><ele>168.28571428571428</ele><time>2026-04-18T07:51:13.271Z</time></trkpt><trkpt lat="43.6489351" lon="13.0493251"><ele>169.14285714285714</ele><time>2026-04-18T07:51:14.27Z</time></trkpt><trkpt lat="43.6490023" lon="13.0492911"><ele>170.0</ele><time>2026-04-18T07:51:15.271Z</time></trkpt><trkpt lat="43.6490712" lon="13.0492556"><ele>170.0</ele><time>2026-04-18T07:51:16.271Z</time></trkpt><trkpt lat="43.6491417" lon="13.0492277"><ele>170.0</ele><time>2026-04-18T07:51:17.271Z</time></trkpt><trkpt lat="43.6492112" lon="13.0491985"><ele>170.0</ele><time>2026-04-18T07:51:18.27Z</time></trkpt><trkpt lat="43.6492873" lon="13.0491788"><ele>170.0</ele><time>2026-04-18T07:51:19.27Z</time></trkpt><trkpt lat="43.6493597" lon="13.0491477"><ele>170.0</ele><time>2026-04-18T07:51:20.271Z</time></trkpt><trkpt lat="43.6494326" lon="13.0491137"><ele>170.0</ele><time>2026-04-18T07:51:21.27Z</time></trkpt><trkpt lat="43.649502" lon="13.0490795"><ele>173.33333333333331</ele><time>2026-04-18T07:51:22.271Z</time></trkpt><trkpt lat="43.6495717" lon="13.0490357"><ele>176.66666666666666</ele><time>2026-04-18T07:51:23.271Z</time></trkpt><trkpt lat="43.6496386" lon="13.0489976"><ele>180.0</ele><time>2026-04-18T07:51:24.271Z</time></trkpt><trkpt lat="43.6497057" lon="13.0489743"><ele>183.33333333333334</ele><time>2026-04-18T07:51:25.27Z</time></trkpt><trkpt lat="43.6497652" lon="13.0489385"><ele>186.66666666666669</ele><time>2026-04-18T07:51:26.27Z</time></trkpt><trkpt lat="43.6498718" lon="13.0488824"><ele>190.0</ele><time>2026-04-18T07:51:28.27Z</time></trkpt><trkpt lat="43.6499876" lon="13.0488198"><ele>190.0</ele><time>2026-04-18T07:51:30.271Z</time></trkpt><trkpt lat="43.6500517" lon="13.0487897"><ele>190.0</ele><time>2026-04-18T07:51:31.271Z</time></trkpt><trkpt lat="43.650118" lon="13.0487492"><ele>190.0</ele><time>2026-04-18T07:51:32.27Z</time></trkpt><trkpt lat="43.6502189" lon="13.0486807"><ele>190.0</ele><time>2026-04-18T07:51:34.27Z</time></trkpt><trkpt lat="43.6503251" lon="13.04862"><ele>190.0</ele><time>2026-04-18T07:51:36.271Z</time></trkpt><trkpt lat="43.6503829" lon="13.0485818"><ele>190.0</ele><time>2026-04-18T07:51:37.271Z</time></trkpt><trkpt lat="43.650491" lon="13.0485207"><ele>189.4</ele><time>2026-04-18T07:51:39.27Z</time></trkpt><trkpt lat="43.6505533" lon="13.0484873"><ele>188.8</ele><time>2026-04-18T07:51:40.27Z</time></trkpt><trkpt lat="43.6506762" lon="13.0484226"><ele>188.2</ele><time>2026-04-18T07:51:42.27Z</time></trkpt><trkpt lat="43.6507838" lon="13.0483764"><ele>187.6</ele><time>2026-04-18T07:51:44.27Z</time></trkpt><trkpt lat="43.6508572" lon="13.0483496"><ele>187.0</ele><time>2026-04-18T07:51:46.27Z</time></trkpt><trkpt lat="43.6509432" lon="13.0483166"><ele>187.0</ele><time>2026-04-18T07:51:49.271Z</time></trkpt><trkpt lat="43.6510162" lon="13.0482813"><ele>187.0</ele><time>2026-04-18T07:51:51.271Z</time></trkpt><trkpt lat="43.6511332" lon="13.0482419"><ele>187.0</ele><time>2026-04-18T07:51:53.27Z</time></trkpt><trkpt lat="43.6512559" lon="13.0481868"><ele>187.0</ele><time>2026-04-18T07:51:55.27Z</time></trkpt><trkpt lat="43.6513696" lon="13.0481162"><ele>187.0</ele><time>2026-04-18T07:51:57.271Z</time></trkpt><trkpt lat="43.6514315" lon="13.0480927"><ele>187.0</ele><time>2026-04-18T07:51:58.271Z</time></trkpt><trkpt lat="43.651525" lon="13.0480397"><ele>187.0</ele><time>2026-04-18T07:52:00.27Z</time></trkpt><trkpt lat="43.6516315" lon="13.0479817"><ele>187.0</ele><time>2026-04-18T07:52:02.271Z</time></trkpt><trkpt lat="43.6517286" lon="13.0479406"><ele>187.0</ele><time>2026-04-18T07:52:04.27Z</time></trkpt><trkpt lat="43.6518108" lon="13.0478944"><ele>187.0</ele><time>2026-04-18T07:52:06.271Z</time></trkpt><trkpt lat="43.6518894" lon="13.0478744"><ele>187.0</ele><time>2026-04-18T07:52:08.271Z</time></trkpt><trkpt lat="43.6519695" lon="13.0478603"><ele>187.0</ele><time>2026-04-18T07:52:10.27Z</time></trkpt><trkpt lat="43.6520336" lon="13.0478605"><ele>187.0</ele><time>2026-04-18T07:52:13.271Z</time></trkpt><trkpt lat="43.652085" lon="13.0477073"><ele>187.0</ele><time>2026-04-18T07:52:22.27Z</time></trkpt><trkpt lat="43.6520885" lon="13.0475806"><ele>187.0</ele><time>2026-04-18T07:52:23.27Z</time></trkpt><trkpt lat="43.6520861" lon="13.0474557"><ele>187.0</ele><time>2026-04-18T07:52:24.27Z</time></trkpt><trkpt lat="43.6520799" lon="13.0473169"><ele>187.0</ele><time>2026-04-18T07:52:25.27Z</time></trkpt><trkpt lat="43.652071" lon="13.0471742"><ele>187.0</ele><time>2026-04-18T07:52:26.27Z</time></trkpt><trkpt lat="43.6520447" lon="13.0470309"><ele>187.0</ele><time>2026-04-18T07:52:27.271Z</time></trkpt><trkpt lat="43.6520135" lon="13.0468985"><ele>187.0</ele><time>2026-04-18T07:52:28.271Z</time></trkpt><trkpt lat="43.6519804" lon="13.046776"><ele>186.39999999999998</ele><time>2026-04-18T07:52:29.27Z</time></trkpt><trkpt lat="43.6519461" lon="13.0466576"><ele>185.79999999999998</ele><time>2026-04-18T07:52:30.27Z</time></trkpt><trkpt lat="43.6519099" lon="13.046557"><ele>185.2</ele><time>2026-04-18T07:52:31.27Z</time></trkpt><trkpt lat="43.6518585" lon="13.0464552"><ele>184.6</ele><time>2026-04-18T07:52:32.27Z</time></trkpt><trkpt lat="43.6518085" lon="13.0463412"><ele>184.0</ele><time>2026-04-18T07:52:33.27Z</time></trkpt><trkpt lat="43.6517633" lon="13.0462243"><ele>182.2</ele><time>2026-04-18T07:52:34.27Z</time></trkpt><trkpt lat="43.6517246" lon="13.0461036"><ele>180.39999999999998</ele><time>2026-04-18T07:52:35.27Z</time></trkpt><trkpt lat="43.6516826" lon="13.0459859"><ele>178.6</ele><time>2026-04-18T07:52:36.27Z</time></trkpt><trkpt lat="43.6516449" lon="13.0458708"><ele>176.8</ele><time>2026-04-18T07:52:37.27Z</time></trkpt><trkpt lat="43.6516051" lon="13.0457562"><ele>175.0</ele><time>2026-04-18T07:52:38.27Z</time></trkpt><trkpt lat="43.6515608" lon="13.0456349"><ele>173.6</ele><time>2026-04-18T07:52:39.27Z</time></trkpt><trkpt lat="43.6515144" lon="13.045508"><ele>172.2</ele><time>2026-04-18T07:52:40.27Z</time></trkpt><trkpt lat="43.6514604" lon="13.0453922"><ele>170.8</ele><time>2026-04-18T07:52:41.271Z</time></trkpt><trkpt lat="43.6514144" lon="13.0452698"><ele>169.4</ele><time>2026-04-18T07:52:42.271Z</time></trkpt><trkpt lat="43.6513651" lon="13.0451591"><ele>168.0</ele><time>2026-04-18T07:52:43.27Z</time></trkpt><trkpt lat="43.651314" lon="13.0450492"><ele>167.33333333333334</ele><time>2026-04-18T07:52:44.27Z</time></trkpt><trkpt lat="43.6512654" lon="13.0449358"><ele>166.66666666666666</ele><time>2026-04-18T07:52:45.27Z</time></trkpt><trkpt lat="43.6512161" lon="13.0448331"><ele>166.0</ele><time>2026-04-18T07:52:46.27Z</time></trkpt><trkpt lat="43.6511787" lon="13.0447174"><ele>165.33333333333331</ele><time>2026-04-18T07:52:47.271Z</time></trkpt><trkpt lat="43.6511479" lon="13.0446047"><ele>164.66666666666666</ele><time>2026-04-18T07:52:48.27Z</time></trkpt><trkpt lat="43.6511239" lon="13.0445027"><ele>164.0</ele><time>2026-04-18T07:52:49.27Z</time></trkpt><trkpt lat="43.6511108" lon="13.0444154"><ele>164.0</ele><time>2026-04-18T07:52:50.27Z</time></trkpt><trkpt lat="43.6511061" lon="13.0442994"><ele>164.0</ele><time>2026-04-18T07:52:52.27Z</time></trkpt><trkpt lat="43.6511509" lon="13.0442337"><ele>164.0</ele><time>2026-04-18T07:52:54.27Z</time></trkpt><trkpt lat="43.651238" lon="13.0441872"><ele>164.0</ele><time>2026-04-18T07:52:56.27Z</time></trkpt><trkpt lat="43.6513262" lon="13.0441233"><ele>164.0</ele><time>2026-04-18T07:52:58.271Z</time></trkpt><trkpt lat="43.6514407" lon="13.0440524"><ele>163.16666666666666</ele><time>2026-04-18T07:53:00.27Z</time></trkpt><trkpt lat="43.6515374" lon="13.0439696"><ele>162.33333333333331</ele><time>2026-04-18T07:53:02.27Z</time></trkpt><trkpt lat="43.6515973" lon="13.0439321"><ele>161.5</ele><time>2026-04-18T07:53:03.27Z</time></trkpt><trkpt lat="43.6516645" lon="13.0438924"><ele>160.66666666666666</ele><time>2026-04-18T07:53:04.27Z</time></trkpt><trkpt lat="43.6517243" lon="13.0438585"><ele>159.83333333333334</ele><time>2026-04-18T07:53:05.27Z</time></trkpt><trkpt lat="43.6517851" lon="13.0438286"><ele>159.0</ele><time>2026-04-18T07:53:06.271Z</time></trkpt><trkpt lat="43.651857" lon="13.0437823"><ele>159.0</ele><time>2026-04-18T07:53:08.27Z</time></trkpt><trkpt lat="43.6519056" lon="13.0436609"><ele>159.0</ele><time>2026-04-18T07:53:21.27Z</time></trkpt><trkpt lat="43.6519319" lon="13.0435499"><ele>159.0</ele><time>2026-04-18T07:53:22.271Z</time></trkpt><trkpt lat="43.651937" lon="13.0434566"><ele>159.0</ele><time>2026-04-18T07:53:23.27Z</time></trkpt><trkpt lat="43.6519277" lon="13.0433603"><ele>159.0</ele><time>2026-04-18T07:53:24.271Z</time></trkpt><trkpt lat="43.6519148" lon="13.0432675"><ele>159.0</ele><time>2026-04-18T07:53:25.27Z</time></trkpt><trkpt lat="43.6519097" lon="13.043163"><ele>156.6</ele><time>2026-04-18T07:53:26.27Z</time></trkpt><trkpt lat="43.6518866" lon="13.0430572"><ele>154.2</ele><time>2026-04-18T07:53:27.27Z</time></trkpt><trkpt lat="43.6518498" lon="13.0429558"><ele>151.79999999999998</ele><time>2026-04-18T07:53:28.271Z</time></trkpt><trkpt lat="43.6517804" lon="13.0428582"><ele>149.4</ele><time>2026-04-18T07:53:29.27Z</time></trkpt><trkpt lat="43.6517162" lon="13.0427577"><ele>147.0</ele><time>2026-04-18T07:53:30.271Z</time></trkpt><trkpt lat="43.6516423" lon="13.0426505"><ele>147.0</ele><time>2026-04-18T07:53:31.27Z</time></trkpt><trkpt lat="43.6515755" lon="13.0425504"><ele>147.0</ele><time>2026-04-18T07:53:32.27Z</time></trkpt><trkpt lat="43.6515167" lon="13.0424289"><ele>147.0</ele><time>2026-04-18T07:53:33.27Z</time></trkpt><trkpt lat="43.6514682" lon="13.0422704"><ele>147.0</ele><time>2026-04-18T07:53:34.271Z</time></trkpt><trkpt lat="43.6514164" lon="13.042106"><ele>144.25</ele><time>2026-04-18T07:53:35.271Z</time></trkpt><trkpt lat="43.6513632" lon="13.0419423"><ele>141.5</ele><time>2026-04-18T07:53:36.27Z</time></trkpt><trkpt lat="43.6513046" lon="13.0417761"><ele>138.75</ele><time>2026-04-18T07:53:37.27Z</time></trkpt><trkpt lat="43.6512317" lon="13.0416091"><ele>136.0</ele><time>2026-04-18T07:53:38.27Z</time></trkpt><trkpt lat="43.6511374" lon="13.0414327"><ele>132.66666666666669</ele><time>2026-04-18T07:53:39.27Z</time></trkpt><trkpt lat="43.6510423" lon="13.0412594"><ele>129.33333333333334</ele><time>2026-04-18T07:53:40.27Z</time></trkpt><trkpt lat="43.6509461" lon="13.0410974"><ele>126.0</ele><time>2026-04-18T07:53:41.271Z</time></trkpt><trkpt lat="43.650848" lon="13.0409432"><ele>127.0</ele><time>2026-04-18T07:53:42.27Z</time></trkpt><trkpt lat="43.6507625" lon="13.0407938"><ele>128.0</ele><time>2026-04-18T07:53:43.27Z</time></trkpt><trkpt lat="43.6506941" lon="13.0406255"><ele>129.0</ele><time>2026-04-18T07:53:44.27Z</time></trkpt><trkpt lat="43.6506564" lon="13.0404344"><ele>130.0</ele><time>2026-04-18T07:53:45.27Z</time></trkpt><trkpt lat="43.6506364" lon="13.0402352"><ele>130.0</ele><time>2026-04-18T07:53:46.27Z</time></trkpt><trkpt lat="43.650613" lon="13.0400489"><ele>130.0</ele><time>2026-04-18T07:53:47.27Z</time></trkpt><trkpt lat="43.6506605" lon="13.0398214"><ele>130.0</ele><time>2026-04-18T07:53:48.27Z</time></trkpt><trkpt lat="43.6506882" lon="13.039612"><ele>135.0</ele><time>2026-04-18T07:53:49.271Z</time></trkpt><trkpt lat="43.6507265" lon="13.0394014"><ele>140.0</ele><time>2026-04-18T07:53:50.27Z</time></trkpt><trkpt lat="43.6507717" lon="13.0391882"><ele>145.0</ele><time>2026-04-18T07:53:51.27Z</time></trkpt><trkpt lat="43.6508184" lon="13.0389772"><ele>148.0</ele><time>2026-04-18T07:53:52.27Z</time></trkpt><trkpt lat="43.6508658" lon="13.0387689"><ele>151.0</ele><time>2026-04-18T07:53:53.27Z</time></trkpt><trkpt lat="43.6509103" lon="13.0385752"><ele>154.0</ele><time>2026-04-18T07:53:54.27Z</time></trkpt><trkpt lat="43.650946" lon="13.0383919"><ele>157.0</ele><time>2026-04-18T07:53:55.27Z</time></trkpt><trkpt lat="43.6509679" lon="13.0382116"><ele>159.25</ele><time>2026-04-18T07:53:56.271Z</time></trkpt><trkpt lat="43.6509906" lon="13.0380473"><ele>161.5</ele><time>2026-04-18T07:53:57.27Z</time></trkpt><trkpt lat="43.6509881" lon="13.0378283"><ele>163.75</ele><time>2026-04-18T07:53:58.27Z</time></trkpt><trkpt lat="43.6509962" lon="13.037644"><ele>166.0</ele><time>2026-04-18T07:53:59.27Z</time></trkpt><trkpt lat="43.6510048" lon="13.0374704"><ele>168.5</ele><time>2026-04-18T07:54:00.271Z</time></trkpt><trkpt lat="43.6510336" lon="13.0372878"><ele>171.0</ele><time>2026-04-18T07:54:01.271Z</time></trkpt><trkpt lat="43.6510671" lon="13.0371016"><ele>173.5</ele><time>2026-04-18T07:54:02.27Z</time></trkpt><trkpt lat="43.6511004" lon="13.036907"><ele>176.0</ele><time>2026-04-18T07:54:03.27Z</time></trkpt><trkpt lat="43.6511361" lon="13.0367164"><ele>180.66666666666666</ele><time>2026-04-18T07:54:04.27Z</time></trkpt><trkpt lat="43.6511773" lon="13.0365221"><ele>185.33333333333334</ele><time>2026-04-18T07:54:05.271Z</time></trkpt><trkpt lat="43.6512177" lon="13.0363139"><ele>190.0</ele><time>2026-04-18T07:54:06.27Z</time></trkpt><trkpt lat="43.6512631" lon="13.0361025"><ele>190.0</ele><time>2026-04-18T07:54:07.27Z</time></trkpt><trkpt lat="43.6513121" lon="13.0359019"><ele>190.0</ele><time>2026-04-18T07:54:08.27Z</time></trkpt><trkpt lat="43.6513612" lon="13.0357096"><ele>190.0</ele><time>2026-04-18T07:54:09.27Z</time></trkpt><trkpt lat="43.65141" lon="13.035516"><ele>190.0</ele><time>2026-04-18T07:54:10.27Z</time></trkpt><trkpt lat="43.6514609" lon="13.0353286"><ele>192.25</ele><time>2026-04-18T07:54:11.27Z</time></trkpt><trkpt lat="43.6515134" lon="13.0351358"><ele>194.5</ele><time>2026-04-18T07:54:12.27Z</time></trkpt><trkpt lat="43.6515678" lon="13.0349615"><ele>196.75</ele><time>2026-04-18T07:54:13.271Z</time></trkpt><trkpt lat="43.6516186" lon="13.034791"><ele>199.0</ele><time>2026-04-18T07:54:14.27Z</time></trkpt><trkpt lat="43.6516679" lon="13.0346345"><ele>200.6</ele><time>2026-04-18T07:54:15.271Z</time></trkpt><trkpt lat="43.6517187" lon="13.0344817"><ele>202.2</ele><time>2026-04-18T07:54:16.271Z</time></trkpt><trkpt lat="43.6517721" lon="13.0343436"><ele>203.79999999999998</ele><time>2026-04-18T07:54:17.271Z</time></trkpt><trkpt lat="43.6518134" lon="13.0342306"><ele>205.39999999999998</ele><time>2026-04-18T07:54:18.271Z</time></trkpt><trkpt lat="43.6518493" lon="13.0341271"><ele>207.0</ele><time>2026-04-18T07:54:19.27Z</time></trkpt><trkpt lat="43.651884" lon="13.0340322"><ele>208.39999999999998</ele><time>2026-04-18T07:54:20.27Z</time></trkpt><trkpt lat="43.6519289" lon="13.0338964"><ele>209.79999999999998</ele><time>2026-04-18T07:54:22.27Z</time></trkpt><trkpt lat="43.6519155" lon="13.0337904"><ele>211.2</ele><time>2026-04-18T07:54:24.27Z</time></trkpt><trkpt lat="43.6517985" lon="13.0336616"><ele>212.6</ele><time>2026-04-18T07:54:26.27Z</time></trkpt><trkpt lat="43.6517181" lon="13.0335898"><ele>214.0</ele><time>2026-04-18T07:54:27.27Z</time></trkpt><trkpt lat="43.651637" lon="13.0334884"><ele>214.0</ele><time>2026-04-18T07:54:28.27Z</time></trkpt><trkpt lat="43.6515569" lon="13.0333708"><ele>214.0</ele><time>2026-04-18T07:54:29.271Z</time></trkpt><trkpt lat="43.6514655" lon="13.0332243"><ele>214.0</ele><time>2026-04-18T07:54:30.271Z</time></trkpt><trkpt lat="43.6513751" lon="13.0330522"><ele>214.0</ele><time>2026-04-18T07:54:31.271Z</time></trkpt><trkpt lat="43.6513045" lon="13.0328701"><ele>216.0</ele><time>2026-04-18T07:54:32.27Z</time></trkpt><trkpt lat="43.6512467" lon="13.0326731"><ele>218.0</ele><time>2026-04-18T07:54:33.27Z</time></trkpt><trkpt lat="43.6511962" lon="13.0324611"><ele>220.0</ele><time>2026-04-18T07:54:34.27Z</time></trkpt><trkpt lat="43.651153" lon="13.0322614"><ele>220.5</ele><time>2026-04-18T07:54:35.271Z</time></trkpt><trkpt lat="43.6511074" lon="13.0320649"><ele>221.0</ele><time>2026-04-18T07:54:36.27Z</time></trkpt><trkpt lat="43.651067" lon="13.031877"><ele>221.5</ele><time>2026-04-18T07:54:37.27Z</time></trkpt><trkpt lat="43.6510283" lon="13.0316921"><ele>222.0</ele><time>2026-04-18T07:54:38.27Z</time></trkpt><trkpt lat="43.6509873" lon="13.0315074"><ele>222.0</ele><time>2026-04-18T07:54:39.27Z</time></trkpt><trkpt lat="43.6509485" lon="13.0313139"><ele>222.0</ele><time>2026-04-18T07:54:40.27Z</time></trkpt><trkpt lat="43.6509036" lon="13.0311177"><ele>222.0</ele><time>2026-04-18T07:54:41.271Z</time></trkpt><trkpt lat="43.6508737" lon="13.0309111"><ele>222.0</ele><time>2026-04-18T07:54:42.271Z</time></trkpt><trkpt lat="43.6508478" lon="13.0307064"><ele>222.5</ele><time>2026-04-18T07:54:43.27Z</time></trkpt><trkpt lat="43.650827" lon="13.0305053"><ele>223.0</ele><time>2026-04-18T07:54:44.27Z</time></trkpt><trkpt lat="43.6508132" lon="13.0303154"><ele>223.5</ele><time>2026-04-18T07:54:45.27Z</time></trkpt><trkpt lat="43.650798" lon="13.030125"><ele>224.0</ele><time>2026-04-18T07:54:46.271Z</time></trkpt><trkpt lat="43.6507824" lon="13.0299352"><ele>225.25</ele><time>2026-04-18T07:54:47.27Z</time></trkpt><trkpt lat="43.6507675" lon="13.0297467"><ele>226.5</ele><time>2026-04-18T07:54:48.271Z</time></trkpt><trkpt lat="43.6507567" lon="13.0295606"><ele>227.75</ele><time>2026-04-18T07:54:49.271Z</time></trkpt><trkpt lat="43.6507412" lon="13.0293726"><ele>229.0</ele><time>2026-04-18T07:54:50.27Z</time></trkpt><trkpt lat="43.6507198" lon="13.0291838"><ele>229.75</ele><time>2026-04-18T07:54:51.27Z</time></trkpt><trkpt lat="43.650699" lon="13.0289938"><ele>230.5</ele><time>2026-04-18T07:54:52.27Z</time></trkpt><trkpt lat="43.6506624" lon="13.0288003"><ele>231.25</ele><time>2026-04-18T07:54:53.27Z</time></trkpt><trkpt lat="43.6506231" lon="13.0286386"><ele>232.0</ele><time>2026-04-18T07:54:54.271Z</time></trkpt><trkpt lat="43.6505798" lon="13.028498"><ele>231.99999999999997</ele><time>2026-04-18T07:54:55.27Z</time></trkpt><trkpt lat="43.6505433" lon="13.0283746"><ele>232.0</ele><time>2026-04-18T07:54:56.27Z</time></trkpt><trkpt lat="43.6505181" lon="13.0282524"><ele>232.0</ele><time>2026-04-18T07:54:57.271Z</time></trkpt><trkpt lat="43.6504989" lon="13.0281541"><ele>232.0</ele><time>2026-04-18T07:54:58.27Z</time></trkpt><trkpt lat="43.6504884" lon="13.0280634"><ele>231.99999999999997</ele><time>2026-04-18T07:55:00.27Z</time></trkpt><trkpt lat="43.6504748" lon="13.0281804"><ele>232.0</ele><time>2026-04-18T07:55:08.27Z</time></trkpt><trkpt lat="43.6505146" lon="13.0282747"><ele>232.0</ele><time>2026-04-18T07:55:09.27Z</time></trkpt><trkpt lat="43.6505493" lon="13.0283824"><ele>232.0</ele><time>2026-04-18T07:55:10.27Z</time></trkpt><trkpt lat="43.6505796" lon="13.0284892"><ele>232.0</ele><time>2026-04-18T07:55:11.27Z</time></trkpt><trkpt lat="43.6506055" lon="13.0285835"><ele>232.0</ele><time>2026-04-18T07:55:12.271Z</time></trkpt><trkpt lat="43.6506684" lon="13.0287015"><ele>232.0</ele><time>2026-04-18T07:55:14.271Z</time></trkpt><trkpt lat="43.650777" lon="13.0287239"><ele>231.99999999999997</ele><time>2026-04-18T07:55:16.27Z</time></trkpt><trkpt lat="43.6508532" lon="13.0287035"><ele>232.0</ele><time>2026-04-18T07:55:17.27Z</time></trkpt><trkpt lat="43.6509276" lon="13.028684"><ele>232.0</ele><time>2026-04-18T07:55:18.271Z</time></trkpt><trkpt lat="43.6510127" lon="13.0286628"><ele>232.0</ele><time>2026-04-18T07:55:19.271Z</time></trkpt><trkpt lat="43.651102" lon="13.0286396"><ele>231.99999999999997</ele><time>2026-04-18T07:55:20.27Z</time></trkpt><trkpt lat="43.6511858" lon="13.0286117"><ele>232.0</ele><time>2026-04-18T07:55:21.27Z</time></trkpt><trkpt lat="43.6512642" lon="13.028586"><ele>232.16666666666666</ele><time>2026-04-18T07:55:22.27Z</time></trkpt><trkpt lat="43.6513341" lon="13.0285599"><ele>232.33333333333331</ele><time>2026-04-18T07:55:23.27Z</time></trkpt><trkpt lat="43.6514384" lon="13.0285176"><ele>232.5</ele><time>2026-04-18T07:55:25.27Z</time></trkpt><trkpt lat="43.6515079" lon="13.0285054"><ele>232.66666666666669</ele><time>2026-04-18T07:55:26.271Z</time></trkpt><trkpt lat="43.6516195" lon="13.0284479"><ele>232.83333333333334</ele><time>2026-04-18T07:55:28.27Z</time></trkpt><trkpt lat="43.651675" lon="13.0284015"><ele>233.0</ele><time>2026-04-18T07:55:29.271Z</time></trkpt><trkpt lat="43.6517291" lon="13.0283515"><ele>231.33333333333334</ele><time>2026-04-18T07:55:30.27Z</time></trkpt><trkpt lat="43.6517897" lon="13.0282938"><ele>229.66666666666669</ele><time>2026-04-18T07:55:31.271Z</time></trkpt><trkpt lat="43.6518483" lon="13.028231"><ele>228.0</ele><time>2026-04-18T07:55:32.271Z</time></trkpt><trkpt lat="43.651909" lon="13.0281681"><ele>226.33333333333331</ele><time>2026-04-18T07:55:33.271Z</time></trkpt><trkpt lat="43.6519774" lon="13.028111"><ele>224.66666666666666</ele><time>2026-04-18T07:55:34.27Z</time></trkpt><trkpt lat="43.652048" lon="13.0280683"><ele>223.0</ele><time>2026-04-18T07:55:35.271Z</time></trkpt><trkpt lat="43.6521157" lon="13.0280314"><ele>222.0</ele><time>2026-04-18T07:55:36.27Z</time></trkpt><trkpt lat="43.6521849" lon="13.0280006"><ele>221.0</ele><time>2026-04-18T07:55:37.271Z</time></trkpt><trkpt lat="43.6522542" lon="13.0279773"><ele>220.0</ele><time>2026-04-18T07:55:38.271Z</time></trkpt><trkpt lat="43.6523177" lon="13.0279421"><ele>219.0</ele><time>2026-04-18T07:55:39.27Z</time></trkpt><trkpt lat="43.6523798" lon="13.0278881"><ele>218.0</ele><time>2026-04-18T07:55:40.27Z</time></trkpt><trkpt lat="43.6524307" lon="13.02781"><ele>217.0</ele><time>2026-04-18T07:55:41.271Z</time></trkpt><trkpt lat="43.6524711" lon="13.0277217"><ele>216.0</ele><time>2026-04-18T07:55:42.271Z</time></trkpt><trkpt lat="43.6525076" lon="13.0276224"><ele>216.0</ele><time>2026-04-18T07:55:43.27Z</time></trkpt><trkpt lat="43.6525443" lon="13.0275174"><ele>216.0</ele><time>2026-04-18T07:55:44.27Z</time></trkpt><trkpt lat="43.6525803" lon="13.027419"><ele>216.0</ele><time>2026-04-18T07:55:45.271Z</time></trkpt><trkpt lat="43.6526156" lon="13.0273282"><ele>216.0</ele><time>2026-04-18T07:55:46.27Z</time></trkpt><trkpt lat="43.6526454" lon="13.0272491"><ele>216.0</ele><time>2026-04-18T07:55:47.27Z</time></trkpt><trkpt lat="43.6526815" lon="13.027165"><ele>216.0</ele><time>2026-04-18T07:55:48.271Z</time></trkpt><trkpt lat="43.6527146" lon="13.0270859"><ele>216.0</ele><time>2026-04-18T07:55:49.271Z</time></trkpt><trkpt lat="43.652775" lon="13.0269373"><ele>212.5</ele><time>2026-04-18T07:55:51.271Z</time></trkpt><trkpt lat="43.6528447" lon="13.0267949"><ele>209.0</ele><time>2026-04-18T07:55:53.271Z</time></trkpt><trkpt lat="43.6528796" lon="13.0267209"><ele>205.5</ele><time>2026-04-18T07:55:54.271Z</time></trkpt><trkpt lat="43.6529192" lon="13.0266457"><ele>202.0</ele><time>2026-04-18T07:55:55.271Z</time></trkpt><trkpt lat="43.6529623" lon="13.026563"><ele>198.5</ele><time>2026-04-18T07:55:56.27Z</time></trkpt><trkpt lat="43.6530062" lon="13.0264811"><ele>195.0</ele><time>2026-04-18T07:55:57.27Z</time></trkpt><trkpt lat="43.6530465" lon="13.0263893"><ele>193.5</ele><time>2026-04-18T07:55:58.271Z</time></trkpt><trkpt lat="43.6530887" lon="13.0262991"><ele>192.0</ele><time>2026-04-18T07:55:59.27Z</time></trkpt><trkpt lat="43.6531316" lon="13.0262096"><ele>190.5</ele><time>2026-04-18T07:56:00.271Z</time></trkpt><trkpt lat="43.6531726" lon="13.0261144"><ele>189.0</ele><time>2026-04-18T07:56:01.27Z</time></trkpt><trkpt lat="43.6532172" lon="13.0260249"><ele>187.5</ele><time>2026-04-18T07:56:02.27Z</time></trkpt><trkpt lat="43.6532521" lon="13.0259349"><ele>186.0</ele><time>2026-04-18T07:56:03.27Z</time></trkpt><trkpt lat="43.6532891" lon="13.0258517"><ele>184.16666666666666</ele><time>2026-04-18T07:56:04.27Z</time></trkpt><trkpt lat="43.6533275" lon="13.0257651"><ele>182.33333333333334</ele><time>2026-04-18T07:56:05.27Z</time></trkpt><trkpt lat="43.6533651" lon="13.0256782"><ele>180.5</ele><time>2026-04-18T07:56:06.27Z</time></trkpt><trkpt lat="43.6534122" lon="13.0255896"><ele>178.66666666666669</ele><time>2026-04-18T07:56:07.271Z</time></trkpt><trkpt lat="43.6534635" lon="13.0254978"><ele>176.83333333333334</ele><time>2026-04-18T07:56:08.271Z</time></trkpt><trkpt lat="43.6535191" lon="13.0254061"><ele>175.0</ele><time>2026-04-18T07:56:09.27Z</time></trkpt><trkpt lat="43.653573" lon="13.0253109"><ele>175.0</ele><time>2026-04-18T07:56:10.27Z</time></trkpt><trkpt lat="43.6536217" lon="13.0252087"><ele>175.0</ele><time>2026-04-18T07:56:11.27Z</time></trkpt><trkpt lat="43.653671" lon="13.0251099"><ele>175.0</ele><time>2026-04-18T07:56:12.271Z</time></trkpt><trkpt lat="43.65372" lon="13.0250162"><ele>175.0</ele><time>2026-04-18T07:56:13.271Z</time></trkpt><trkpt lat="43.653767" lon="13.0249218"><ele>175.0</ele><time>2026-04-18T07:56:14.27Z</time></trkpt><trkpt lat="43.6538086" lon="13.0248372"><ele>175.0</ele><time>2026-04-18T07:56:15.271Z</time></trkpt><trkpt lat="43.6538507" lon="13.024763"><ele>171.33333333333334</ele><time>2026-04-18T07:56:16.271Z</time></trkpt><trkpt lat="43.653888" lon="13.0246865"><ele>167.66666666666669</ele><time>2026-04-18T07:56:17.27Z</time></trkpt><trkpt lat="43.6539252" lon="13.0246159"><ele>164.0</ele><time>2026-04-18T07:56:18.27Z</time></trkpt><trkpt lat="43.6539545" lon="13.0245339"><ele>160.33333333333334</ele><time>2026-04-18T07:56:19.271Z</time></trkpt><trkpt lat="43.6539832" lon="13.0244464"><ele>156.66666666666666</ele><time>2026-04-18T07:56:20.271Z</time></trkpt><trkpt lat="43.654015" lon="13.0243276"><ele>153.0</ele><time>2026-04-18T07:56:21.271Z</time></trkpt><trkpt lat="43.6540436" lon="13.0241962"><ele>151.4</ele><time>2026-04-18T07:56:22.27Z</time></trkpt><trkpt lat="43.6540622" lon="13.0240653"><ele>149.8</ele><time>2026-04-18T07:56:23.27Z</time></trkpt><trkpt lat="43.6540865" lon="13.0239273"><ele>148.2</ele><time>2026-04-18T07:56:24.27Z</time></trkpt><trkpt lat="43.6541046" lon="13.023787"><ele>146.6</ele><time>2026-04-18T07:56:25.27Z</time></trkpt><trkpt lat="43.6541233" lon="13.0236433"><ele>145.0</ele><time>2026-04-18T07:56:26.271Z</time></trkpt><trkpt lat="43.654143" lon="13.0234979"><ele>145.0</ele><time>2026-04-18T07:56:27.27Z</time></trkpt><trkpt lat="43.6541624" lon="13.0233475"><ele>145.0</ele><time>2026-04-18T07:56:28.27Z</time></trkpt><trkpt lat="43.6541843" lon="13.023201"><ele>145.0</ele><time>2026-04-18T07:56:29.27Z</time></trkpt><trkpt lat="43.6542048" lon="13.0230487"><ele>145.0</ele><time>2026-04-18T07:56:30.271Z</time></trkpt><trkpt lat="43.6542279" lon="13.0228914"><ele>145.0</ele><time>2026-04-18T07:56:31.27Z</time></trkpt><trkpt lat="43.6542473" lon="13.02273"><ele>143.25</ele><time>2026-04-18T07:56:32.27Z</time></trkpt><trkpt lat="43.6542675" lon="13.0225738"><ele>141.5</ele><time>2026-04-18T07:56:33.27Z</time></trkpt><trkpt lat="43.6542868" lon="13.0224146"><ele>139.75</ele><time>2026-04-18T07:56:34.27Z</time></trkpt><trkpt lat="43.6543089" lon="13.0222566"><ele>138.0</ele><time>2026-04-18T07:56:35.27Z</time></trkpt><trkpt lat="43.6543294" lon="13.0221032"><ele>137.4</ele><time>2026-04-18T07:56:36.27Z</time></trkpt><trkpt lat="43.6543447" lon="13.0219629"><ele>136.8</ele><time>2026-04-18T07:56:37.27Z</time></trkpt><trkpt lat="43.6543611" lon="13.0218289"><ele>136.2</ele><time>2026-04-18T07:56:38.271Z</time></trkpt><trkpt lat="43.654371" lon="13.0216972"><ele>135.6</ele><time>2026-04-18T07:56:39.27Z</time></trkpt><trkpt lat="43.6543715" lon="13.0215667"><ele>135.0</ele><time>2026-04-18T07:56:40.271Z</time></trkpt><trkpt lat="43.6543541" lon="13.0214386"><ele>134.0</ele><time>2026-04-18T07:56:41.27Z</time></trkpt><trkpt lat="43.6543361" lon="13.0213184"><ele>133.0</ele><time>2026-04-18T07:56:42.27Z</time></trkpt><trkpt lat="43.6543178" lon="13.0212099"><ele>132.0</ele><time>2026-04-18T07:56:43.271Z</time></trkpt><trkpt lat="43.6543014" lon="13.0210598"><ele>131.0</ele><time>2026-04-18T07:56:45.27Z</time></trkpt><trkpt lat="43.6543222" lon="13.0209736"><ele>130.0</ele><time>2026-04-18T07:56:47.271Z</time></trkpt><trkpt lat="43.6543742" lon="13.0208642"><ele>129.0</ele><time>2026-04-18T07:56:49.27Z</time></trkpt><trkpt lat="43.6544545" lon="13.0207346"><ele>126.80000000000001</ele><time>2026-04-18T07:56:51.27Z</time></trkpt><trkpt lat="43.6545467" lon="13.0206147"><ele>124.60000000000001</ele><time>2026-04-18T07:56:53.271Z</time></trkpt><trkpt lat="43.6546067" lon="13.0205449"><ele>122.4</ele><time>2026-04-18T07:56:54.27Z</time></trkpt><trkpt lat="43.654674" lon="13.0204638"><ele>120.2</ele><time>2026-04-18T07:56:55.27Z</time></trkpt><trkpt lat="43.6547402" lon="13.020388"><ele>118.0</ele><time>2026-04-18T07:56:56.271Z</time></trkpt><trkpt lat="43.654815" lon="13.0203013"><ele>118.0</ele><time>2026-04-18T07:56:57.27Z</time></trkpt><trkpt lat="43.6548903" lon="13.020214"><ele>118.0</ele><time>2026-04-18T07:56:58.27Z</time></trkpt><trkpt lat="43.6549718" lon="13.0201162"><ele>118.0</ele><time>2026-04-18T07:56:59.27Z</time></trkpt><trkpt lat="43.6550616" lon="13.0200066"><ele>118.0</ele><time>2026-04-18T07:57:00.271Z</time></trkpt><trkpt lat="43.6551549" lon="13.0198888"><ele>117.0</ele><time>2026-04-18T07:57:01.27Z</time></trkpt><trkpt lat="43.6552481" lon="13.0197659"><ele>116.0</ele><time>2026-04-18T07:57:02.27Z</time></trkpt><trkpt lat="43.6553389" lon="13.0196517"><ele>115.0</ele><time>2026-04-18T07:57:03.27Z</time></trkpt><trkpt lat="43.65543" lon="13.0195407"><ele>114.0</ele><time>2026-04-18T07:57:04.271Z</time></trkpt><trkpt lat="43.6555256" lon="13.0194236"><ele>112.5</ele><time>2026-04-18T07:57:05.27Z</time></trkpt><trkpt lat="43.6556224" lon="13.0193049"><ele>111.0</ele><time>2026-04-18T07:57:06.27Z</time></trkpt><trkpt lat="43.6557145" lon="13.0191822"><ele>109.5</ele><time>2026-04-18T07:57:07.27Z</time></trkpt><trkpt lat="43.6558064" lon="13.0190639"><ele>108.0</ele><time>2026-04-18T07:57:08.27Z</time></trkpt><trkpt lat="43.6558978" lon="13.0189447"><ele>107.5</ele><time>2026-04-18T07:57:09.271Z</time></trkpt><trkpt lat="43.6559912" lon="13.0188263"><ele>107.0</ele><time>2026-04-18T07:57:10.27Z</time></trkpt><trkpt lat="43.6560885" lon="13.0187057"><ele>106.5</ele><time>2026-04-18T07:57:11.27Z</time></trkpt><trkpt lat="43.6561925" lon="13.0185828"><ele>106.0</ele><time>2026-04-18T07:57:12.27Z</time></trkpt><trkpt lat="43.656299" lon="13.0184587"><ele>105.75</ele><time>2026-04-18T07:57:13.27Z</time></trkpt><trkpt lat="43.6564023" lon="13.0183339"><ele>105.5</ele><time>2026-04-18T07:57:14.271Z</time></trkpt><trkpt lat="43.656512" lon="13.0182073"><ele>105.25</ele><time>2026-04-18T07:57:15.27Z</time></trkpt><trkpt lat="43.6566183" lon="13.0180785"><ele>105.0</ele><time>2026-04-18T07:57:16.27Z</time></trkpt><trkpt lat="43.6567282" lon="13.0179477"><ele>105.0</ele><time>2026-04-18T07:57:17.27Z</time></trkpt><trkpt lat="43.6568418" lon="13.0178085"><ele>105.0</ele><time>2026-04-18T07:57:18.271Z</time></trkpt><trkpt lat="43.6569572" lon="13.017666"><ele>105.0</ele><time>2026-04-18T07:57:19.27Z</time></trkpt><trkpt lat="43.657065" lon="13.0175365"><ele>105.0</ele><time>2026-04-18T07:57:20.271Z</time></trkpt><trkpt lat="43.6571618" lon="13.0174215"><ele>105.0</ele><time>2026-04-18T07:57:21.27Z</time></trkpt><trkpt lat="43.6572483" lon="13.0173125"><ele>105.0</ele><time>2026-04-18T07:57:22.271Z</time></trkpt><trkpt lat="43.6573269" lon="13.0172117"><ele>105.0</ele><time>2026-04-18T07:57:23.271Z</time></trkpt><trkpt lat="43.6573964" lon="13.0171232"><ele>105.0</ele><time>2026-04-18T07:57:24.27Z</time></trkpt><trkpt lat="43.6574549" lon="13.0170542"><ele>105.0</ele><time>2026-04-18T07:57:25.271Z</time></trkpt><trkpt lat="43.6575435" lon="13.0170159"><ele>105.0</ele><time>2026-04-18T07:57:27.271Z</time></trkpt><trkpt lat="43.6576095" lon="13.0171264"><ele>105.0</ele><time>2026-04-18T07:57:29.27Z</time></trkpt><trkpt lat="43.657634" lon="13.0172509"><ele>105.0</ele><time>2026-04-18T07:57:30.271Z</time></trkpt><trkpt lat="43.6576618" lon="13.0174307"><ele>105.0</ele><time>2026-04-18T07:57:31.271Z</time></trkpt><trkpt lat="43.6576949" lon="13.0176257"><ele>105.0</ele><time>2026-04-18T07:57:32.27Z</time></trkpt><trkpt lat="43.657726" lon="13.0178058"><ele>105.0</ele><time>2026-04-18T07:57:33.27Z</time></trkpt><trkpt lat="43.6577495" lon="13.0179829"><ele>105.0</ele><time>2026-04-18T07:57:34.27Z</time></trkpt><trkpt lat="43.657772" lon="13.0181582"><ele>105.0</ele><time>2026-04-18T07:57:35.271Z</time></trkpt><trkpt lat="43.6577936" lon="13.0183401"><ele>104.25</ele><time>2026-04-18T07:57:36.27Z</time></trkpt><trkpt lat="43.657809" lon="13.018529"><ele>103.5</ele><time>2026-04-18T07:57:37.27Z</time></trkpt><trkpt lat="43.6578177" lon="13.0187218"><ele>102.75</ele><time>2026-04-18T07:57:38.271Z</time></trkpt><trkpt lat="43.6578228" lon="13.0189175"><ele>102.0</ele><time>2026-04-18T07:57:39.27Z</time></trkpt><trkpt lat="43.6578261" lon="13.0191013"><ele>101.25</ele><time>2026-04-18T07:57:40.27Z</time></trkpt><trkpt lat="43.6578233" lon="13.0192757"><ele>100.5</ele><time>2026-04-18T07:57:41.271Z</time></trkpt><trkpt lat="43.6578156" lon="13.0194482"><ele>99.75</ele><time>2026-04-18T07:57:42.271Z</time></trkpt><trkpt lat="43.6578159" lon="13.0196212"><ele>99.0</ele><time>2026-04-18T07:57:43.27Z</time></trkpt><trkpt lat="43.657836" lon="13.0197937"><ele>99.0</ele><time>2026-04-18T07:57:44.271Z</time></trkpt><trkpt lat="43.6578816" lon="13.0199673"><ele>99.0</ele><time>2026-04-18T07:57:45.27Z</time></trkpt><trkpt lat="43.6579447" lon="13.0201309"><ele>99.0</ele><time>2026-04-18T07:57:46.27Z</time></trkpt><trkpt lat="43.658009" lon="13.0202755"><ele>99.0</ele><time>2026-04-18T07:57:47.27Z</time></trkpt><trkpt lat="43.6580721" lon="13.020404"><ele>99.0</ele><time>2026-04-18T07:57:48.271Z</time></trkpt><trkpt lat="43.6581405" lon="13.0205195"><ele>99.0</ele><time>2026-04-18T07:57:49.27Z</time></trkpt><trkpt lat="43.6582132" lon="13.0206276"><ele>99.0</ele><time>2026-04-18T07:57:50.271Z</time></trkpt><trkpt lat="43.6582831" lon="13.0207219"><ele>99.0</ele><time>2026-04-18T07:57:51.271Z</time></trkpt><trkpt lat="43.6583461" lon="13.0208056"><ele>99.0</ele><time>2026-04-18T07:57:52.27Z</time></trkpt><trkpt lat="43.658399" lon="13.0208772"><ele>99.0</ele><time>2026-04-18T07:57:53.27Z</time></trkpt><trkpt lat="43.6584489" lon="13.0209627"><ele>99.0</ele><time>2026-04-18T07:57:55.27Z</time></trkpt><trkpt lat="43.6585158" lon="13.0210398"><ele>99.0</ele><time>2026-04-18T07:58:15.271Z</time></trkpt><trkpt lat="43.6586362" lon="13.0210158"><ele>99.0</ele><time>2026-04-18T07:58:17.271Z</time></trkpt><trkpt lat="43.6587192" lon="13.0209475"><ele>99.0</ele><time>2026-04-18T07:58:18.271Z</time></trkpt><trkpt lat="43.6588062" lon="13.0208626"><ele>98.25</ele><time>2026-04-18T07:58:19.271Z</time></trkpt><trkpt lat="43.6589044" lon="13.0207733"><ele>97.5</ele><time>2026-04-18T07:58:20.271Z</time></trkpt><trkpt lat="43.6590237" lon="13.020675"><ele>96.75</ele><time>2026-04-18T07:58:21.27Z</time></trkpt><trkpt lat="43.6591353" lon="13.0205799"><ele>96.0</ele><time>2026-04-18T07:58:22.271Z</time></trkpt><trkpt lat="43.6592555" lon="13.0204701"><ele>96.0</ele><time>2026-04-18T07:58:23.27Z</time></trkpt><trkpt lat="43.6593872" lon="13.0203523"><ele>96.0</ele><time>2026-04-18T07:58:24.27Z</time></trkpt><trkpt lat="43.659521" lon="13.0202423"><ele>96.0</ele><time>2026-04-18T07:58:25.27Z</time></trkpt><trkpt lat="43.6596574" lon="13.0201295"><ele>96.0</ele><time>2026-04-18T07:58:26.271Z</time></trkpt><trkpt lat="43.659797" lon="13.0200138"><ele>96.0</ele><time>2026-04-18T07:58:27.27Z</time></trkpt><trkpt lat="43.6599382" lon="13.0198896"><ele>96.0</ele><time>2026-04-18T07:58:28.27Z</time></trkpt><trkpt lat="43.660089" lon="13.0197646"><ele>95.66666666666667</ele><time>2026-04-18T07:58:29.27Z</time></trkpt><trkpt lat="43.6602378" lon="13.0196384"><ele>95.33333333333334</ele><time>2026-04-18T07:58:30.27Z</time></trkpt><trkpt lat="43.6603905" lon="13.0195098"><ele>95.0</ele><time>2026-04-18T07:58:31.27Z</time></trkpt><trkpt lat="43.6605476" lon="13.0193808"><ele>94.66666666666667</ele><time>2026-04-18T07:58:32.27Z</time></trkpt><trkpt lat="43.6606996" lon="13.0192455"><ele>94.33333333333333</ele><time>2026-04-18T07:58:33.271Z</time></trkpt><trkpt lat="43.6608519" lon="13.019113"><ele>94.0</ele><time>2026-04-18T07:58:34.27Z</time></trkpt><trkpt lat="43.6610037" lon="13.0189837"><ele>93.0</ele><time>2026-04-18T07:58:35.27Z</time></trkpt><trkpt lat="43.6611572" lon="13.0188548"><ele>92.0</ele><time>2026-04-18T07:58:36.27Z</time></trkpt><trkpt lat="43.6613096" lon="13.0187287"><ele>91.0</ele><time>2026-04-18T07:58:37.27Z</time></trkpt><trkpt lat="43.6614644" lon="13.0186016"><ele>91.0</ele><time>2026-04-18T07:58:38.27Z</time></trkpt><trkpt lat="43.6616192" lon="13.0184712"><ele>91.0</ele><time>2026-04-18T07:58:39.271Z</time></trkpt><trkpt lat="43.6617679" lon="13.0183355"><ele>91.0</ele><time>2026-04-18T07:58:40.27Z</time></trkpt><trkpt lat="43.661912" lon="13.0181896"><ele>90.66666666666666</ele><time>2026-04-18T07:58:41.27Z</time></trkpt><trkpt lat="43.6620488" lon="13.0180213"><ele>90.33333333333333</ele><time>2026-04-18T07:58:42.27Z</time></trkpt><trkpt lat="43.662181" lon="13.0178504"><ele>90.0</ele><time>2026-04-18T07:58:43.271Z</time></trkpt><trkpt lat="43.6623211" lon="13.0176793"><ele>90.0</ele><time>2026-04-18T07:58:44.27Z</time></trkpt><trkpt lat="43.6624548" lon="13.0175063"><ele>90.0</ele><time>2026-04-18T07:58:45.271Z</time></trkpt><trkpt lat="43.6625893" lon="13.0173429"><ele>90.0</ele><time>2026-04-18T07:58:46.271Z</time></trkpt><trkpt lat="43.6627243" lon="13.0171709"><ele>90.33333333333333</ele><time>2026-04-18T07:58:47.27Z</time></trkpt><trkpt lat="43.6628658" lon="13.0170033"><ele>90.66666666666666</ele><time>2026-04-18T07:58:48.271Z</time></trkpt><trkpt lat="43.6629949" lon="13.0168386"><ele>91.0</ele><time>2026-04-18T07:58:49.27Z</time></trkpt><trkpt lat="43.6631294" lon="13.0166717"><ele>90.66666666666666</ele><time>2026-04-18T07:58:50.27Z</time></trkpt><trkpt lat="43.6632586" lon="13.0165015"><ele>90.33333333333333</ele><time>2026-04-18T07:58:51.271Z</time></trkpt><trkpt lat="43.6633913" lon="13.0163355"><ele>90.0</ele><time>2026-04-18T07:58:52.27Z</time></trkpt><trkpt lat="43.6635193" lon="13.0161692"><ele>89.66666666666667</ele><time>2026-04-18T07:58:53.27Z</time></trkpt><trkpt lat="43.663647" lon="13.0160031"><ele>89.33333333333334</ele><time>2026-04-18T07:58:54.27Z</time></trkpt><trkpt lat="43.6637779" lon="13.0158397"><ele>89.0</ele><time>2026-04-18T07:58:55.27Z</time></trkpt><trkpt lat="43.6639072" lon="13.0156664"><ele>88.66666666666667</ele><time>2026-04-18T07:58:56.271Z</time></trkpt><trkpt lat="43.6640347" lon="13.0154907"><ele>88.33333333333333</ele><time>2026-04-18T07:58:57.27Z</time></trkpt><trkpt lat="43.6641668" lon="13.0153226"><ele>88.0</ele><time>2026-04-18T07:58:58.27Z</time></trkpt><trkpt lat="43.6643017" lon="13.0151585"><ele>88.0</ele><time>2026-04-18T07:58:59.271Z</time></trkpt><trkpt lat="43.6644365" lon="13.0150009"><ele>88.0</ele><time>2026-04-18T07:59:00.27Z</time></trkpt><trkpt lat="43.6645783" lon="13.0148526"><ele>88.0</ele><time>2026-04-18T07:59:01.271Z</time></trkpt><trkpt lat="43.6647218" lon="13.0147144"><ele>87.33333333333333</ele><time>2026-04-18T07:59:02.27Z</time></trkpt><trkpt lat="43.6648612" lon="13.0145744"><ele>86.66666666666667</ele><time>2026-04-18T07:59:03.271Z</time></trkpt><trkpt lat="43.665004" lon="13.0144335"><ele>86.0</ele><time>2026-04-18T07:59:04.271Z</time></trkpt><trkpt lat="43.6651445" lon="13.0142938"><ele>86.0</ele><time>2026-04-18T07:59:05.27Z</time></trkpt><trkpt lat="43.665272" lon="13.0141564"><ele>86.0</ele><time>2026-04-18T07:59:06.271Z</time></trkpt><trkpt lat="43.6653785" lon="13.0140129"><ele>86.0</ele><time>2026-04-18T07:59:07.271Z</time></trkpt><trkpt lat="43.6654625" lon="13.0138406"><ele>86.66666666666667</ele><time>2026-04-18T07:59:08.27Z</time></trkpt><trkpt lat="43.6655262" lon="13.0136338"><ele>87.33333333333333</ele><time>2026-04-18T07:59:09.27Z</time></trkpt><trkpt lat="43.6655777" lon="13.0134212"><ele>88.0</ele><time>2026-04-18T07:59:10.27Z</time></trkpt><trkpt lat="43.6656223" lon="13.0132045"><ele>88.33333333333333</ele><time>2026-04-18T07:59:11.27Z</time></trkpt><trkpt lat="43.6656652" lon="13.0129876"><ele>88.66666666666667</ele><time>2026-04-18T07:59:12.27Z</time></trkpt><trkpt lat="43.6657089" lon="13.0127708"><ele>89.0</ele><time>2026-04-18T07:59:13.27Z</time></trkpt><trkpt lat="43.6657554" lon="13.0125575"><ele>89.66666666666667</ele><time>2026-04-18T07:59:14.27Z</time></trkpt><trkpt lat="43.6658025" lon="13.0123453"><ele>90.33333333333333</ele><time>2026-04-18T07:59:15.27Z</time></trkpt><trkpt lat="43.665848" lon="13.0121309"><ele>91.0</ele><time>2026-04-18T07:59:16.271Z</time></trkpt><trkpt lat="43.6658928" lon="13.0119166"><ele>91.0</ele><time>2026-04-18T07:59:17.27Z</time></trkpt><trkpt lat="43.665939" lon="13.0117075"><ele>91.0</ele><time>2026-04-18T07:59:18.27Z</time></trkpt><trkpt lat="43.6659852" lon="13.0114983"><ele>91.0</ele><time>2026-04-18T07:59:19.271Z</time></trkpt><trkpt lat="43.6660313" lon="13.0112907"><ele>91.66666666666666</ele><time>2026-04-18T07:59:20.27Z</time></trkpt><trkpt lat="43.6660752" lon="13.0110864"><ele>92.33333333333333</ele><time>2026-04-18T07:59:21.271Z</time></trkpt><trkpt lat="43.6661177" lon="13.0108813"><ele>93.0</ele><time>2026-04-18T07:59:22.271Z</time></trkpt><trkpt lat="43.6661602" lon="13.010679"><ele>94.0</ele><time>2026-04-18T07:59:23.271Z</time></trkpt><trkpt lat="43.6662022" lon="13.0104784"><ele>95.0</ele><time>2026-04-18T07:59:24.27Z</time></trkpt><trkpt lat="43.6662439" lon="13.0102831"><ele>96.0</ele><time>2026-04-18T07:59:25.27Z</time></trkpt><trkpt lat="43.6662848" lon="13.0100897"><ele>97.0</ele><time>2026-04-18T07:59:26.27Z</time></trkpt><trkpt lat="43.6663254" lon="13.0098981"><ele>97.5</ele><time>2026-04-18T07:59:27.27Z</time></trkpt><trkpt lat="43.6663622" lon="13.0097125"><ele>98.0</ele><time>2026-04-18T07:59:28.271Z</time></trkpt><trkpt lat="43.6663939" lon="13.0095375"><ele>98.5</ele><time>2026-04-18T07:59:29.27Z</time></trkpt><trkpt lat="43.6664226" lon="13.009368"><ele>99.0</ele><time>2026-04-18T07:59:30.271Z</time></trkpt><trkpt lat="43.6664544" lon="13.0091999"><ele>99.2</ele><time>2026-04-18T07:59:31.271Z</time></trkpt><trkpt lat="43.6664903" lon="13.0090351"><ele>99.4</ele><time>2026-04-18T07:59:32.271Z</time></trkpt><trkpt lat="43.6665255" lon="13.0088726"><ele>99.6</ele><time>2026-04-18T07:59:33.271Z</time></trkpt><trkpt lat="43.6665523" lon="13.0087253"><ele>99.8</ele><time>2026-04-18T07:59:34.27Z</time></trkpt><trkpt lat="43.6665739" lon="13.0086067"><ele>100.0</ele><time>2026-04-18T07:59:35.27Z</time></trkpt><trkpt lat="43.666593" lon="13.0085141"><ele>100.0</ele><time>2026-04-18T07:59:36.271Z</time></trkpt><trkpt lat="43.6666235" lon="13.0083934"><ele>100.0</ele><time>2026-04-18T07:59:38.27Z</time></trkpt><trkpt lat="43.6666471" lon="13.0083123"><ele>100.0</ele><time>2026-04-18T07:59:42.27Z</time></trkpt><trkpt lat="43.6666905" lon="13.0081998"><ele>100.0</ele><time>2026-04-18T07:59:59.271Z</time></trkpt><trkpt lat="43.666692" lon="13.00801"><ele>100.0</ele><time>2026-04-18T08:00:01.271Z</time></trkpt><trkpt lat="43.6666491" lon="13.0078797"><ele>100.0</ele><time>2026-04-18T08:00:02.27Z</time></trkpt><trkpt lat="43.6666016" lon="13.0077392"><ele>100.0</ele><time>2026-04-18T08:00:03.271Z</time></trkpt><trkpt lat="43.6665481" lon="13.007585"><ele>100.0</ele><time>2026-04-18T08:00:04.27Z</time></trkpt><trkpt lat="43.6664932" lon="13.0074275"><ele>100.0</ele><time>2026-04-18T08:00:05.27Z</time></trkpt><trkpt lat="43.6664384" lon="13.0072478"><ele>100.25</ele><time>2026-04-18T08:00:06.271Z</time></trkpt><trkpt lat="43.6663884" lon="13.0070574"><ele>100.5</ele><time>2026-04-18T08:00:07.27Z</time></trkpt><trkpt lat="43.6663543" lon="13.0068605"><ele>100.75</ele><time>2026-04-18T08:00:08.27Z</time></trkpt><trkpt lat="43.6663485" lon="13.0066483"><ele>101.0</ele><time>2026-04-18T08:00:09.27Z</time></trkpt><trkpt lat="43.6663503" lon="13.0064296"><ele>101.66666666666666</ele><time>2026-04-18T08:00:10.27Z</time></trkpt><trkpt lat="43.6663518" lon="13.0062082"><ele>102.33333333333334</ele><time>2026-04-18T08:00:11.271Z</time></trkpt><trkpt lat="43.6663497" lon="13.0059921"><ele>103.0</ele><time>2026-04-18T08:00:12.271Z</time></trkpt><trkpt lat="43.6663493" lon="13.0057889"><ele>103.25</ele><time>2026-04-18T08:00:13.271Z</time></trkpt><trkpt lat="43.666333" lon="13.0055938"><ele>103.5</ele><time>2026-04-18T08:00:14.27Z</time></trkpt><trkpt lat="43.6662997" lon="13.0054118"><ele>103.75</ele><time>2026-04-18T08:00:15.271Z</time></trkpt><trkpt lat="43.6662282" lon="13.0052516"><ele>104.0</ele><time>2026-04-18T08:00:16.271Z</time></trkpt><trkpt lat="43.6661479" lon="13.0051015"><ele>103.6</ele><time>2026-04-18T08:00:17.27Z</time></trkpt><trkpt lat="43.6660665" lon="13.0049675"><ele>103.2</ele><time>2026-04-18T08:00:18.27Z</time></trkpt><trkpt lat="43.6659985" lon="13.0048549"><ele>102.8</ele><time>2026-04-18T08:00:19.27Z</time></trkpt><trkpt lat="43.6659441" lon="13.0047538"><ele>102.39999999999999</ele><time>2026-04-18T08:00:20.27Z</time></trkpt><trkpt lat="43.6658941" lon="13.0046762"><ele>102.0</ele><time>2026-04-18T08:00:21.27Z</time></trkpt><trkpt lat="43.6658746" lon="13.0045364"><ele>102.0</ele><time>2026-04-18T08:00:23.27Z</time></trkpt><trkpt lat="43.6659578" lon="13.0044115"><ele>102.0</ele><time>2026-04-18T08:00:25.271Z</time></trkpt><trkpt lat="43.6660321" lon="13.0043312"><ele>102.0</ele><time>2026-04-18T08:00:26.27Z</time></trkpt><trkpt lat="43.6661078" lon="13.0042295"><ele>102.0</ele><time>2026-04-18T08:00:27.27Z</time></trkpt><trkpt lat="43.666197" lon="13.0041303"><ele>102.0</ele><time>2026-04-18T08:00:28.27Z</time></trkpt><trkpt lat="43.6662816" lon="13.0040301"><ele>103.6</ele><time>2026-04-18T08:00:29.271Z</time></trkpt><trkpt lat="43.6663704" lon="13.0039274"><ele>105.19999999999999</ele><time>2026-04-18T08:00:30.271Z</time></trkpt><trkpt lat="43.6664514" lon="13.0038338"><ele>106.8</ele><time>2026-04-18T08:00:31.27Z</time></trkpt><trkpt lat="43.6665331" lon="13.0037267"><ele>108.4</ele><time>2026-04-18T08:00:32.27Z</time></trkpt><trkpt lat="43.6666109" lon="13.0036149"><ele>110.0</ele><time>2026-04-18T08:00:33.27Z</time></trkpt><trkpt lat="43.6666811" lon="13.003492"><ele>110.0</ele><time>2026-04-18T08:00:34.27Z</time></trkpt><trkpt lat="43.6667571" lon="13.0033539"><ele>110.0</ele><time>2026-04-18T08:00:35.27Z</time></trkpt><trkpt lat="43.6668467" lon="13.0032056"><ele>110.0</ele><time>2026-04-18T08:00:36.27Z</time></trkpt><trkpt lat="43.6669341" lon="13.0030579"><ele>110.0</ele><time>2026-04-18T08:00:37.271Z</time></trkpt><trkpt lat="43.6670201" lon="13.0029244"><ele>112.0</ele><time>2026-04-18T08:00:38.27Z</time></trkpt><trkpt lat="43.6671079" lon="13.0027777"><ele>114.0</ele><time>2026-04-18T08:00:39.271Z</time></trkpt><trkpt lat="43.6672097" lon="13.0026132"><ele>116.0</ele><time>2026-04-18T08:00:40.271Z</time></trkpt><trkpt lat="43.6673005" lon="13.0024728"><ele>118.0</ele><time>2026-04-18T08:00:41.27Z</time></trkpt><trkpt lat="43.6673792" lon="13.0023572"><ele>120.80000000000001</ele><time>2026-04-18T08:00:42.27Z</time></trkpt><trkpt lat="43.6674543" lon="13.0022551"><ele>123.60000000000001</ele><time>2026-04-18T08:00:43.27Z</time></trkpt><trkpt lat="43.6675154" lon="13.0021733"><ele>126.39999999999999</ele><time>2026-04-18T08:00:44.271Z</time></trkpt><trkpt lat="43.6675474" lon="13.0020911"><ele>129.2</ele><time>2026-04-18T08:00:45.27Z</time></trkpt><trkpt lat="43.6675234" lon="13.0019245"><ele>132.0</ele><time>2026-04-18T08:00:47.27Z</time></trkpt><trkpt lat="43.667483" lon="13.0018412"><ele>132.0</ele><time>2026-04-18T08:00:48.27Z</time></trkpt><trkpt lat="43.6674172" lon="13.0017286"><ele>132.0</ele><time>2026-04-18T08:00:49.27Z</time></trkpt><trkpt lat="43.6673657" lon="13.0016156"><ele>132.0</ele><time>2026-04-18T08:00:50.271Z</time></trkpt><trkpt lat="43.6673082" lon="13.0015078"><ele>132.0</ele><time>2026-04-18T08:00:51.271Z</time></trkpt><trkpt lat="43.6672557" lon="13.0014168"><ele>132.0</ele><time>2026-04-18T08:00:52.271Z</time></trkpt><trkpt lat="43.6672181" lon="13.0013332"><ele>133.66666666666666</ele><time>2026-04-18T08:00:53.27Z</time></trkpt><trkpt lat="43.6671856" lon="13.0012568"><ele>135.33333333333334</ele><time>2026-04-18T08:00:54.271Z</time></trkpt><trkpt lat="43.667201" lon="13.0011248"><ele>137.0</ele><time>2026-04-18T08:00:56.271Z</time></trkpt><trkpt lat="43.6672785" lon="13.0010151"><ele>138.66666666666669</ele><time>2026-04-18T08:00:58.27Z</time></trkpt><trkpt lat="43.6673456" lon="13.0009409"><ele>140.33333333333334</ele><time>2026-04-18T08:00:59.27Z</time></trkpt><trkpt lat="43.6674228" lon="13.0008771"><ele>142.0</ele><time>2026-04-18T08:01:00.27Z</time></trkpt><trkpt lat="43.66751" lon="13.0008094"><ele>143.0</ele><time>2026-04-18T08:01:01.271Z</time></trkpt><trkpt lat="43.6675982" lon="13.0007473"><ele>144.0</ele><time>2026-04-18T08:01:02.27Z</time></trkpt><trkpt lat="43.6676945" lon="13.0006901"><ele>145.0</ele><time>2026-04-18T08:01:03.27Z</time></trkpt><trkpt lat="43.6677797" lon="13.0006354"><ele>146.0</ele><time>2026-04-18T08:01:04.27Z</time></trkpt><trkpt lat="43.6678664" lon="13.0005861"><ele>147.0</ele><time>2026-04-18T08:01:05.27Z</time></trkpt><trkpt lat="43.6679609" lon="13.0005413"><ele>147.0</ele><time>2026-04-18T08:01:06.271Z</time></trkpt><trkpt lat="43.6680641" lon="13.0004954"><ele>147.0</ele><time>2026-04-18T08:01:07.27Z</time></trkpt><trkpt lat="43.6681697" lon="13.0004356"><ele>147.0</ele><time>2026-04-18T08:01:08.271Z</time></trkpt><trkpt lat="43.6682843" lon="13.0003474"><ele>147.0</ele><time>2026-04-18T08:01:09.27Z</time></trkpt><trkpt lat="43.6683994" lon="13.0002501"><ele>147.0</ele><time>2026-04-18T08:01:10.27Z</time></trkpt><trkpt lat="43.6685053" lon="13.0001609"><ele>147.0</ele><time>2026-04-18T08:01:11.27Z</time></trkpt><trkpt lat="43.6686069" lon="13.0000703"><ele>147.0</ele><time>2026-04-18T08:01:12.27Z</time></trkpt><trkpt lat="43.6687014" lon="12.9999897"><ele>147.0</ele><time>2026-04-18T08:01:13.27Z</time></trkpt><trkpt lat="43.6687846" lon="12.9999259"><ele>145.79999999999998</ele><time>2026-04-18T08:01:14.271Z</time></trkpt><trkpt lat="43.6688694" lon="12.9998634"><ele>144.6</ele><time>2026-04-18T08:01:15.271Z</time></trkpt><trkpt lat="43.6689485" lon="12.9997915"><ele>143.39999999999998</ele><time>2026-04-18T08:01:16.27Z</time></trkpt><trkpt lat="43.6690092" lon="12.9997041"><ele>142.2</ele><time>2026-04-18T08:01:17.271Z</time></trkpt><trkpt lat="43.669055" lon="12.999587"><ele>141.0</ele><time>2026-04-18T08:01:18.27Z</time></trkpt><trkpt lat="43.6690861" lon="12.999439"><ele>141.0</ele><time>2026-04-18T08:01:19.27Z</time></trkpt><trkpt lat="43.6691156" lon="12.9992635"><ele>141.0</ele><time>2026-04-18T08:01:20.27Z</time></trkpt><trkpt lat="43.6691474" lon="12.9990898"><ele>141.0</ele><time>2026-04-18T08:01:21.27Z</time></trkpt><trkpt lat="43.6691754" lon="12.9989242"><ele>141.0</ele><time>2026-04-18T08:01:22.271Z</time></trkpt><trkpt lat="43.6692051" lon="12.9987561"><ele>143.75</ele><time>2026-04-18T08:01:23.27Z</time></trkpt><trkpt lat="43.6692382" lon="12.9985947"><ele>146.5</ele><time>2026-04-18T08:01:24.271Z</time></trkpt><trkpt lat="43.6692688" lon="12.9984378"><ele>149.25</ele><time>2026-04-18T08:01:25.27Z</time></trkpt><trkpt lat="43.6693029" lon="12.9982806"><ele>152.0</ele><time>2026-04-18T08:01:26.27Z</time></trkpt><trkpt lat="43.6693397" lon="12.9981131"><ele>152.75</ele><time>2026-04-18T08:01:27.27Z</time></trkpt><trkpt lat="43.6693779" lon="12.9979405"><ele>153.5</ele><time>2026-04-18T08:01:28.27Z</time></trkpt><trkpt lat="43.6694141" lon="12.9977706"><ele>154.25</ele><time>2026-04-18T08:01:29.271Z</time></trkpt><trkpt lat="43.6694493" lon="12.9976025"><ele>155.0</ele><time>2026-04-18T08:01:30.271Z</time></trkpt><trkpt lat="43.6694823" lon="12.9974369"><ele>156.75</ele><time>2026-04-18T08:01:31.271Z</time></trkpt><trkpt lat="43.669519" lon="12.9972678"><ele>158.5</ele><time>2026-04-18T08:01:32.27Z</time></trkpt><trkpt lat="43.6695566" lon="12.9971032"><ele>160.25</ele><time>2026-04-18T08:01:33.27Z</time></trkpt><trkpt lat="43.6695952" lon="12.9969398"><ele>162.0</ele><time>2026-04-18T08:01:34.27Z</time></trkpt><trkpt lat="43.6696339" lon="12.9967804"><ele>164.25</ele><time>2026-04-18T08:01:35.27Z</time></trkpt><trkpt lat="43.669671" lon="12.9966199"><ele>166.5</ele><time>2026-04-18T08:01:36.271Z</time></trkpt><trkpt lat="43.6697088" lon="12.9964614"><ele>168.75</ele><time>2026-04-18T08:01:37.27Z</time></trkpt><trkpt lat="43.6697446" lon="12.9963007"><ele>171.0</ele><time>2026-04-18T08:01:38.27Z</time></trkpt><trkpt lat="43.6697797" lon="12.9961421"><ele>171.0</ele><time>2026-04-18T08:01:39.271Z</time></trkpt><trkpt lat="43.6698181" lon="12.9959823"><ele>171.0</ele><time>2026-04-18T08:01:40.271Z</time></trkpt><trkpt lat="43.6698537" lon="12.9958127"><ele>171.0</ele><time>2026-04-18T08:01:41.27Z</time></trkpt><trkpt lat="43.6698891" lon="12.9956413"><ele>171.0</ele><time>2026-04-18T08:01:42.271Z</time></trkpt><trkpt lat="43.6699223" lon="12.9954652"><ele>172.25</ele><time>2026-04-18T08:01:43.27Z</time></trkpt><trkpt lat="43.6699478" lon="12.9952881"><ele>173.5</ele><time>2026-04-18T08:01:44.27Z</time></trkpt><trkpt lat="43.6699612" lon="12.9951059"><ele>174.75</ele><time>2026-04-18T08:01:45.271Z</time></trkpt><trkpt lat="43.6699661" lon="12.9949223"><ele>176.0</ele><time>2026-04-18T08:01:46.271Z</time></trkpt><trkpt lat="43.6699724" lon="12.994746"><ele>177.25</ele><time>2026-04-18T08:01:47.271Z</time></trkpt><trkpt lat="43.6699821" lon="12.9945706"><ele>178.5</ele><time>2026-04-18T08:01:48.271Z</time></trkpt><trkpt lat="43.6699929" lon="12.9943988"><ele>179.75</ele><time>2026-04-18T08:01:49.271Z</time></trkpt><trkpt lat="43.6700064" lon="12.9942449"><ele>181.0</ele><time>2026-04-18T08:01:50.27Z</time></trkpt><trkpt lat="43.6700161" lon="12.9941103"><ele>182.16666666666669</ele><time>2026-04-18T08:01:51.271Z</time></trkpt><trkpt lat="43.6700271" lon="12.9940019"><ele>183.33333333333334</ele><time>2026-04-18T08:01:52.27Z</time></trkpt><trkpt lat="43.6700432" lon="12.9939141"><ele>184.5</ele><time>2026-04-18T08:01:53.27Z</time></trkpt><trkpt lat="43.6701055" lon="12.993861"><ele>185.66666666666666</ele><time>2026-04-18T08:01:54.27Z</time></trkpt><trkpt lat="43.6701976" lon="12.9938132"><ele>186.83333333333331</ele><time>2026-04-18T08:01:55.271Z</time></trkpt><trkpt lat="43.6702967" lon="12.9937568"><ele>188.0</ele><time>2026-04-18T08:01:56.27Z</time></trkpt><trkpt lat="43.6703941" lon="12.9936957"><ele>188.2</ele><time>2026-04-18T08:01:57.27Z</time></trkpt><trkpt lat="43.6704852" lon="12.9936378"><ele>188.4</ele><time>2026-04-18T08:01:58.27Z</time></trkpt><trkpt lat="43.6705801" lon="12.9935848"><ele>188.6</ele><time>2026-04-18T08:01:59.271Z</time></trkpt><trkpt lat="43.6706825" lon="12.9935311"><ele>188.79999999999998</ele><time>2026-04-18T08:02:00.271Z</time></trkpt><trkpt lat="43.6707933" lon="12.9934762"><ele>189.0</ele><time>2026-04-18T08:02:01.271Z</time></trkpt><trkpt lat="43.670907" lon="12.9934206"><ele>189.0</ele><time>2026-04-18T08:02:02.271Z</time></trkpt><trkpt lat="43.671022" lon="12.9933624"><ele>189.0</ele><time>2026-04-18T08:02:03.27Z</time></trkpt><trkpt lat="43.671135" lon="12.9933016"><ele>189.0</ele><time>2026-04-18T08:02:04.271Z</time></trkpt><trkpt lat="43.6712434" lon="12.9932487"><ele>189.0</ele><time>2026-04-18T08:02:05.27Z</time></trkpt><trkpt lat="43.6713484" lon="12.9931963"><ele>190.0</ele><time>2026-04-18T08:02:06.27Z</time></trkpt><trkpt lat="43.6714536" lon="12.9931419"><ele>191.0</ele><time>2026-04-18T08:02:07.271Z</time></trkpt><trkpt lat="43.6715631" lon="12.9930925"><ele>192.0</ele><time>2026-04-18T08:02:08.27Z</time></trkpt><trkpt lat="43.6716712" lon="12.9930468"><ele>193.0</ele><time>2026-04-18T08:02:09.271Z</time></trkpt><trkpt lat="43.6717819" lon="12.9930109"><ele>193.0</ele><time>2026-04-18T08:02:10.27Z</time></trkpt><trkpt lat="43.6718938" lon="12.9929763"><ele>193.0</ele><time>2026-04-18T08:02:11.27Z</time></trkpt><trkpt lat="43.6720083" lon="12.9929477"><ele>193.0</ele><time>2026-04-18T08:02:12.271Z</time></trkpt><trkpt lat="43.6721237" lon="12.9929151"><ele>193.0</ele><time>2026-04-18T08:02:13.271Z</time></trkpt><trkpt lat="43.6722394" lon="12.9928743"><ele>194.25</ele><time>2026-04-18T08:02:14.271Z</time></trkpt><trkpt lat="43.6723547" lon="12.9928336"><ele>195.5</ele><time>2026-04-18T08:02:15.27Z</time></trkpt><trkpt lat="43.672465" lon="12.9928008"><ele>196.75</ele><time>2026-04-18T08:02:16.27Z</time></trkpt><trkpt lat="43.672578" lon="12.9927736"><ele>198.0</ele><time>2026-04-18T08:02:17.27Z</time></trkpt><trkpt lat="43.6726894" lon="12.9927519"><ele>199.0</ele><time>2026-04-18T08:02:18.271Z</time></trkpt><trkpt lat="43.6728001" lon="12.9927391"><ele>200.0</ele><time>2026-04-18T08:02:19.27Z</time></trkpt><trkpt lat="43.672909" lon="12.9927363"><ele>201.0</ele><time>2026-04-18T08:02:20.27Z</time></trkpt><trkpt lat="43.6730142" lon="12.992735"><ele>202.0</ele><time>2026-04-18T08:02:21.27Z</time></trkpt><trkpt lat="43.6731183" lon="12.9927477"><ele>203.0</ele><time>2026-04-18T08:02:22.27Z</time></trkpt><trkpt lat="43.6732148" lon="12.9927705"><ele>203.0</ele><time>2026-04-18T08:02:23.271Z</time></trkpt><trkpt lat="43.6733031" lon="12.9927928"><ele>203.0</ele><time>2026-04-18T08:02:24.27Z</time></trkpt><trkpt lat="43.6733804" lon="12.9928081"><ele>203.0</ele><time>2026-04-18T08:02:25.271Z</time></trkpt><trkpt lat="43.6734594" lon="12.9928145"><ele>203.0</ele><time>2026-04-18T08:02:26.27Z</time></trkpt><trkpt lat="43.673558" lon="12.9927926"><ele>203.0</ele><time>2026-04-18T08:02:27.27Z</time></trkpt><trkpt lat="43.6736678" lon="12.9927384"><ele>203.2</ele><time>2026-04-18T08:02:28.271Z</time></trkpt><trkpt lat="43.67377" lon="12.9926764"><ele>203.4</ele><time>2026-04-18T08:02:29.271Z</time></trkpt><trkpt lat="43.6738531" lon="12.9926151"><ele>203.6</ele><time>2026-04-18T08:02:30.271Z</time></trkpt><trkpt lat="43.6739224" lon="12.9925527"><ele>203.79999999999998</ele><time>2026-04-18T08:02:31.27Z</time></trkpt><trkpt lat="43.6739839" lon="12.992481"><ele>204.0</ele><time>2026-04-18T08:02:32.271Z</time></trkpt><trkpt lat="43.674044" lon="12.9923864"><ele>204.66666666666666</ele><time>2026-04-18T08:02:33.271Z</time></trkpt><trkpt lat="43.6740946" lon="12.9922808"><ele>205.33333333333331</ele><time>2026-04-18T08:02:34.271Z</time></trkpt><trkpt lat="43.6741427" lon="12.9921838"><ele>206.0</ele><time>2026-04-18T08:02:35.271Z</time></trkpt><trkpt lat="43.6741952" lon="12.9920953"><ele>206.66666666666666</ele><time>2026-04-18T08:02:36.271Z</time></trkpt><trkpt lat="43.674259" lon="12.9920243"><ele>207.33333333333331</ele><time>2026-04-18T08:02:37.271Z</time></trkpt><trkpt lat="43.6743332" lon="12.9919756"><ele>208.0</ele><time>2026-04-18T08:02:38.27Z</time></trkpt><trkpt lat="43.6744182" lon="12.9919479"><ele>207.4</ele><time>2026-04-18T08:02:39.27Z</time></trkpt><trkpt lat="43.6745032" lon="12.9919292"><ele>206.8</ele><time>2026-04-18T08:02:40.27Z</time></trkpt><trkpt lat="43.674581" lon="12.9919269"><ele>206.2</ele><time>2026-04-18T08:02:41.27Z</time></trkpt><trkpt lat="43.6746715" lon="12.9919343"><ele>205.6</ele><time>2026-04-18T08:02:42.27Z</time></trkpt><trkpt lat="43.6747787" lon="12.9919503"><ele>205.0</ele><time>2026-04-18T08:02:43.27Z</time></trkpt><trkpt lat="43.6748921" lon="12.9919742"><ele>205.0</ele><time>2026-04-18T08:02:44.27Z</time></trkpt><trkpt lat="43.6750069" lon="12.9920057"><ele>205.0</ele><time>2026-04-18T08:02:45.27Z</time></trkpt><trkpt lat="43.6751209" lon="12.9920437"><ele>205.0</ele><time>2026-04-18T08:02:46.271Z</time></trkpt><trkpt lat="43.6752359" lon="12.9920844"><ele>205.0</ele><time>2026-04-18T08:02:47.271Z</time></trkpt><trkpt lat="43.6753479" lon="12.9921182"><ele>205.8</ele><time>2026-04-18T08:02:48.27Z</time></trkpt><trkpt lat="43.6754521" lon="12.99214"><ele>206.6</ele><time>2026-04-18T08:02:49.27Z</time></trkpt><trkpt lat="43.6755467" lon="12.9921445"><ele>207.39999999999998</ele><time>2026-04-18T08:02:50.271Z</time></trkpt><trkpt lat="43.6756412" lon="12.9921192"><ele>208.2</ele><time>2026-04-18T08:02:51.27Z</time></trkpt><trkpt lat="43.6757359" lon="12.9920705"><ele>209.0</ele><time>2026-04-18T08:02:52.271Z</time></trkpt><trkpt lat="43.6758193" lon="12.9919933"><ele>209.00000000000003</ele><time>2026-04-18T08:02:53.271Z</time></trkpt><trkpt lat="43.6758837" lon="12.9918898"><ele>209.0</ele><time>2026-04-18T08:02:54.27Z</time></trkpt><trkpt lat="43.675926" lon="12.9917695"><ele>209.0</ele><time>2026-04-18T08:02:55.27Z</time></trkpt><trkpt lat="43.6759515" lon="12.991657"><ele>209.0</ele><time>2026-04-18T08:02:56.27Z</time></trkpt><trkpt lat="43.6759797" lon="12.9915623"><ele>209.00000000000003</ele><time>2026-04-18T08:02:57.271Z</time></trkpt><trkpt lat="43.6760061" lon="12.9914798"><ele>209.0</ele><time>2026-04-18T08:02:58.271Z</time></trkpt><trkpt lat="43.6760393" lon="12.9913386"><ele>208.79999999999998</ele><time>2026-04-18T08:03:00.27Z</time></trkpt><trkpt lat="43.676043" lon="12.9911833"><ele>208.6</ele><time>2026-04-18T08:03:02.27Z</time></trkpt><trkpt lat="43.6759977" lon="12.9910292"><ele>208.4</ele><time>2026-04-18T08:03:04.271Z</time></trkpt><trkpt lat="43.6759501" lon="12.9908791"><ele>208.2</ele><time>2026-04-18T08:03:06.271Z</time></trkpt><trkpt lat="43.6759254" lon="12.9907844"><ele>208.0</ele><time>2026-04-18T08:03:07.271Z</time></trkpt><trkpt lat="43.6758976" lon="12.990681"><ele>206.99999999999997</ele><time>2026-04-18T08:03:08.27Z</time></trkpt><trkpt lat="43.6758723" lon="12.9905765"><ele>206.0</ele><time>2026-04-18T08:03:09.27Z</time></trkpt><trkpt lat="43.6758482" lon="12.990472"><ele>205.0</ele><time>2026-04-18T08:03:10.27Z</time></trkpt><trkpt lat="43.6758252" lon="12.9903673"><ele>204.0</ele><time>2026-04-18T08:03:11.27Z</time></trkpt><trkpt lat="43.6757958" lon="12.9902644"><ele>202.99999999999997</ele><time>2026-04-18T08:03:12.27Z</time></trkpt><trkpt lat="43.6757614" lon="12.9901565"><ele>202.0</ele><time>2026-04-18T08:03:13.27Z</time></trkpt><trkpt lat="43.6757279" lon="12.9900479"><ele>200.2</ele><time>2026-04-18T08:03:14.27Z</time></trkpt><trkpt lat="43.6756967" lon="12.9899372"><ele>198.39999999999998</ele><time>2026-04-18T08:03:15.27Z</time></trkpt><trkpt lat="43.6756681" lon="12.9898214"><ele>196.60000000000002</ele><time>2026-04-18T08:03:16.27Z</time></trkpt><trkpt lat="43.6756403" lon="12.9897002"><ele>194.8</ele><time>2026-04-18T08:03:17.271Z</time></trkpt><trkpt lat="43.6756024" lon="12.9895685"><ele>193.0</ele><time>2026-04-18T08:03:18.27Z</time></trkpt><trkpt lat="43.6755514" lon="12.9894383"><ele>193.0</ele><time>2026-04-18T08:03:19.27Z</time></trkpt><trkpt lat="43.6754932" lon="12.9893167"><ele>193.0</ele><time>2026-04-18T08:03:20.27Z</time></trkpt><trkpt lat="43.6754349" lon="12.9892032"><ele>193.0</ele><time>2026-04-18T08:03:21.27Z</time></trkpt><trkpt lat="43.6753783" lon="12.9890899"><ele>193.0</ele><time>2026-04-18T08:03:22.27Z</time></trkpt><trkpt lat="43.6753198" lon="12.9889682"><ele>193.0</ele><time>2026-04-18T08:03:23.271Z</time></trkpt><trkpt lat="43.675267" lon="12.9888379"><ele>191.2</ele><time>2026-04-18T08:03:24.271Z</time></trkpt><trkpt lat="43.6752231" lon="12.9886973"><ele>189.4</ele><time>2026-04-18T08:03:25.27Z</time></trkpt><trkpt lat="43.6751898" lon="12.9885504"><ele>187.6</ele><time>2026-04-18T08:03:26.271Z</time></trkpt><trkpt lat="43.6751656" lon="12.9883974"><ele>185.79999999999998</ele><time>2026-04-18T08:03:27.27Z</time></trkpt><trkpt lat="43.6751491" lon="12.988242"><ele>184.0</ele><time>2026-04-18T08:03:28.27Z</time></trkpt><trkpt lat="43.6751377" lon="12.9880876"><ele>182.6</ele><time>2026-04-18T08:03:29.27Z</time></trkpt><trkpt lat="43.6751304" lon="12.9879426"><ele>181.2</ele><time>2026-04-18T08:03:30.271Z</time></trkpt><trkpt lat="43.6751243" lon="12.9878052"><ele>179.79999999999998</ele><time>2026-04-18T08:03:31.27Z</time></trkpt><trkpt lat="43.6751226" lon="12.9876653"><ele>178.39999999999998</ele><time>2026-04-18T08:03:32.27Z</time></trkpt><trkpt lat="43.6751202" lon="12.9875182"><ele>177.0</ele><time>2026-04-18T08:03:33.27Z</time></trkpt><trkpt lat="43.6751156" lon="12.9873686"><ele>176.0</ele><time>2026-04-18T08:03:34.27Z</time></trkpt><trkpt lat="43.6751083" lon="12.987226"><ele>175.0</ele><time>2026-04-18T08:03:35.27Z</time></trkpt><trkpt lat="43.6751018" lon="12.9870964"><ele>174.0</ele><time>2026-04-18T08:03:36.27Z</time></trkpt><trkpt lat="43.6750971" lon="12.986971"><ele>173.0</ele><time>2026-04-18T08:03:37.271Z</time></trkpt><trkpt lat="43.6750866" lon="12.9868521"><ele>172.0</ele><time>2026-04-18T08:03:38.271Z</time></trkpt><trkpt lat="43.6750721" lon="12.986731"><ele>171.0</ele><time>2026-04-18T08:03:39.271Z</time></trkpt><trkpt lat="43.6750398" lon="12.9866015"><ele>170.0</ele><time>2026-04-18T08:03:40.271Z</time></trkpt><trkpt lat="43.6749964" lon="12.9864645"><ele>169.0</ele><time>2026-04-18T08:03:41.27Z</time></trkpt><trkpt lat="43.6749474" lon="12.9863301"><ele>168.0</ele><time>2026-04-18T08:03:42.27Z</time></trkpt><trkpt lat="43.6749003" lon="12.9861978"><ele>167.0</ele><time>2026-04-18T08:03:43.271Z</time></trkpt><trkpt lat="43.6748529" lon="12.9860667"><ele>167.0</ele><time>2026-04-18T08:03:44.27Z</time></trkpt><trkpt lat="43.6748055" lon="12.9859347"><ele>167.0</ele><time>2026-04-18T08:03:45.27Z</time></trkpt><trkpt lat="43.6747564" lon="12.9858011"><ele>167.0</ele><time>2026-04-18T08:03:46.27Z</time></trkpt><trkpt lat="43.6747028" lon="12.9856647"><ele>167.0</ele><time>2026-04-18T08:03:47.27Z</time></trkpt><trkpt lat="43.6746398" lon="12.9855314"><ele>167.0</ele><time>2026-04-18T08:03:48.271Z</time></trkpt><trkpt lat="43.6745683" lon="12.9854089"><ele>165.2</ele><time>2026-04-18T08:03:49.27Z</time></trkpt><trkpt lat="43.6744888" lon="12.9853045"><ele>163.39999999999998</ele><time>2026-04-18T08:03:50.271Z</time></trkpt><trkpt lat="43.6744024" lon="12.9852109"><ele>161.60000000000002</ele><time>2026-04-18T08:03:51.27Z</time></trkpt><trkpt lat="43.6743112" lon="12.9851324"><ele>159.8</ele><time>2026-04-18T08:03:52.27Z</time></trkpt><trkpt lat="43.6742212" lon="12.9850632"><ele>158.0</ele><time>2026-04-18T08:03:53.27Z</time></trkpt><trkpt lat="43.6741323" lon="12.984996"><ele>156.8</ele><time>2026-04-18T08:03:54.27Z</time></trkpt><trkpt lat="43.6740415" lon="12.9849354"><ele>155.60000000000002</ele><time>2026-04-18T08:03:55.271Z</time></trkpt><trkpt lat="43.6739455" lon="12.9848746"><ele>154.39999999999998</ele><time>2026-04-18T08:03:56.27Z</time></trkpt><trkpt lat="43.673845" lon="12.9848092"><ele>153.2</ele><time>2026-04-18T08:03:57.27Z</time></trkpt><trkpt lat="43.6737488" lon="12.9847403"><ele>152.0</ele><time>2026-04-18T08:03:58.27Z</time></trkpt><trkpt lat="43.6736518" lon="12.9846745"><ele>149.2</ele><time>2026-04-18T08:03:59.271Z</time></trkpt><trkpt lat="43.6735565" lon="12.9846074"><ele>146.39999999999998</ele><time>2026-04-18T08:04:00.27Z</time></trkpt><trkpt lat="43.6734628" lon="12.9845447"><ele>143.60000000000002</ele><time>2026-04-18T08:04:01.271Z</time></trkpt><trkpt lat="43.6733701" lon="12.9844844"><ele>140.8</ele><time>2026-04-18T08:04:02.27Z</time></trkpt><trkpt lat="43.6732775" lon="12.9844252"><ele>138.0</ele><time>2026-04-18T08:04:03.271Z</time></trkpt><trkpt lat="43.6731845" lon="12.9843662"><ele>138.0</ele><time>2026-04-18T08:04:04.271Z</time></trkpt><trkpt lat="43.6730904" lon="12.9843104"><ele>138.0</ele><time>2026-04-18T08:04:05.271Z</time></trkpt><trkpt lat="43.6729867" lon="12.9842571"><ele>138.0</ele><time>2026-04-18T08:04:06.27Z</time></trkpt><trkpt lat="43.6728821" lon="12.9841949"><ele>138.0</ele><time>2026-04-18T08:04:07.271Z</time></trkpt><trkpt lat="43.6727763" lon="12.9841213"><ele>138.0</ele><time>2026-04-18T08:04:08.271Z</time></trkpt><trkpt lat="43.672666" lon="12.9840272"><ele>134.75</ele><time>2026-04-18T08:04:09.27Z</time></trkpt><trkpt lat="43.6725587" lon="12.9839126"><ele>131.5</ele><time>2026-04-18T08:04:10.27Z</time></trkpt><trkpt lat="43.6724532" lon="12.9837813"><ele>128.25</ele><time>2026-04-18T08:04:11.27Z</time></trkpt><trkpt lat="43.6723507" lon="12.9836459"><ele>125.0</ele><time>2026-04-18T08:04:12.27Z</time></trkpt><trkpt lat="43.6722549" lon="12.9835154"><ele>125.0</ele><time>2026-04-18T08:04:13.271Z</time></trkpt><trkpt lat="43.6721693" lon="12.9833975"><ele>125.0</ele><time>2026-04-18T08:04:14.27Z</time></trkpt><trkpt lat="43.6720962" lon="12.9832893"><ele>125.0</ele><time>2026-04-18T08:04:15.27Z</time></trkpt><trkpt lat="43.6720334" lon="12.9831745"><ele>125.0</ele><time>2026-04-18T08:04:16.271Z</time></trkpt><trkpt lat="43.6719865" lon="12.9830505"><ele>125.0</ele><time>2026-04-18T08:04:17.271Z</time></trkpt><trkpt lat="43.6719586" lon="12.9828948"><ele>124.5</ele><time>2026-04-18T08:04:18.271Z</time></trkpt><trkpt lat="43.6719454" lon="12.9827204"><ele>124.0</ele><time>2026-04-18T08:04:19.271Z</time></trkpt><trkpt lat="43.6719443" lon="12.9825516"><ele>123.5</ele><time>2026-04-18T08:04:20.271Z</time></trkpt><trkpt lat="43.6719607" lon="12.9823942"><ele>123.0</ele><time>2026-04-18T08:04:21.27Z</time></trkpt><trkpt lat="43.6719916" lon="12.9822513"><ele>124.75</ele><time>2026-04-18T08:04:22.271Z</time></trkpt><trkpt lat="43.6720355" lon="12.9821176"><ele>126.5</ele><time>2026-04-18T08:04:23.27Z</time></trkpt><trkpt lat="43.6720929" lon="12.9819785"><ele>128.25</ele><time>2026-04-18T08:04:24.271Z</time></trkpt><trkpt lat="43.6721585" lon="12.9818342"><ele>130.0</ele><time>2026-04-18T08:04:25.271Z</time></trkpt><trkpt lat="43.672225" lon="12.9817011"><ele>132.8</ele><time>2026-04-18T08:04:26.27Z</time></trkpt><trkpt lat="43.6722829" lon="12.9815861"><ele>135.6</ele><time>2026-04-18T08:04:27.27Z</time></trkpt><trkpt lat="43.6723409" lon="12.9814669"><ele>138.4</ele><time>2026-04-18T08:04:28.271Z</time></trkpt><trkpt lat="43.6723982" lon="12.9813474"><ele>141.2</ele><time>2026-04-18T08:04:29.271Z</time></trkpt><trkpt lat="43.6724504" lon="12.9812505"><ele>144.0</ele><time>2026-04-18T08:04:30.27Z</time></trkpt><trkpt lat="43.6725032" lon="12.9811653"><ele>144.0</ele><time>2026-04-18T08:04:31.27Z</time></trkpt><trkpt lat="43.6725592" lon="12.9810824"><ele>144.0</ele><time>2026-04-18T08:04:32.271Z</time></trkpt><trkpt lat="43.6726202" lon="12.9810176"><ele>144.0</ele><time>2026-04-18T08:04:33.27Z</time></trkpt><trkpt lat="43.6726881" lon="12.9809732"><ele>144.0</ele><time>2026-04-18T08:04:34.27Z</time></trkpt><trkpt lat="43.6727675" lon="12.9809479"><ele>144.0</ele><time>2026-04-18T08:04:35.27Z</time></trkpt><trkpt lat="43.6728565" lon="12.9809535"><ele>144.0</ele><time>2026-04-18T08:04:36.27Z</time></trkpt><trkpt lat="43.6729488" lon="12.9809719"><ele>144.6</ele><time>2026-04-18T08:04:37.27Z</time></trkpt><trkpt lat="43.6730468" lon="12.9809895"><ele>145.2</ele><time>2026-04-18T08:04:38.27Z</time></trkpt><trkpt lat="43.67315" lon="12.9810061"><ele>145.79999999999998</ele><time>2026-04-18T08:04:39.27Z</time></trkpt><trkpt lat="43.6732427" lon="12.9810282"><ele>146.4</ele><time>2026-04-18T08:04:40.27Z</time></trkpt><trkpt lat="43.6733309" lon="12.9810346"><ele>147.0</ele><time>2026-04-18T08:04:41.27Z</time></trkpt><trkpt lat="43.6734206" lon="12.9810216"><ele>147.0</ele><time>2026-04-18T08:04:42.27Z</time></trkpt><trkpt lat="43.6735067" lon="12.9809963"><ele>147.0</ele><time>2026-04-18T08:04:43.27Z</time></trkpt><trkpt lat="43.6735896" lon="12.9809593"><ele>147.0</ele><time>2026-04-18T08:04:44.271Z</time></trkpt><trkpt lat="43.6736731" lon="12.9809105"><ele>147.0</ele><time>2026-04-18T08:04:45.27Z</time></trkpt><trkpt lat="43.6737515" lon="12.9808449"><ele>147.0</ele><time>2026-04-18T08:04:46.27Z</time></trkpt><trkpt lat="43.6738244" lon="12.9807562"><ele>150.2</ele><time>2026-04-18T08:04:47.27Z</time></trkpt><trkpt lat="43.6738936" lon="12.9806527"><ele>153.39999999999998</ele><time>2026-04-18T08:04:48.27Z</time></trkpt><trkpt lat="43.6739569" lon="12.980536"><ele>156.60000000000002</ele><time>2026-04-18T08:04:49.27Z</time></trkpt><trkpt lat="43.6740142" lon="12.9804196"><ele>159.8</ele><time>2026-04-18T08:04:50.27Z</time></trkpt><trkpt lat="43.6740603" lon="12.9803238"><ele>163.0</ele><time>2026-04-18T08:04:51.27Z</time></trkpt><trkpt lat="43.6740985" lon="12.9802246"><ele>163.0</ele><time>2026-04-18T08:04:52.271Z</time></trkpt><trkpt lat="43.6741296" lon="12.9801352"><ele>163.0</ele><time>2026-04-18T08:04:53.27Z</time></trkpt><trkpt lat="43.6741502" lon="12.9800391"><ele>163.0</ele><time>2026-04-18T08:04:54.271Z</time></trkpt><trkpt lat="43.6741594" lon="12.9799193"><ele>163.0</ele><time>2026-04-18T08:04:55.27Z</time></trkpt><trkpt lat="43.6741674" lon="12.9798061"><ele>163.0</ele><time>2026-04-18T08:04:56.27Z</time></trkpt><trkpt lat="43.6741788" lon="12.9797015"><ele>163.0</ele><time>2026-04-18T08:04:57.27Z</time></trkpt><trkpt lat="43.6741958" lon="12.9795981"><ele>164.66666666666669</ele><time>2026-04-18T08:04:58.27Z</time></trkpt><trkpt lat="43.6742043" lon="12.9795044"><ele>166.33333333333334</ele><time>2026-04-18T08:04:59.271Z</time></trkpt><trkpt lat="43.6742053" lon="12.9794107"><ele>168.0</ele><time>2026-04-18T08:05:00.271Z</time></trkpt><trkpt lat="43.6741832" lon="12.9792994"><ele>169.66666666666666</ele><time>2026-04-18T08:05:01.271Z</time></trkpt><trkpt lat="43.6741395" lon="12.9791785"><ele>171.33333333333331</ele><time>2026-04-18T08:05:02.27Z</time></trkpt><trkpt lat="43.6740888" lon="12.9790674"><ele>173.0</ele><time>2026-04-18T08:05:03.27Z</time></trkpt><trkpt lat="43.6740397" lon="12.9789694"><ele>173.66666666666666</ele><time>2026-04-18T08:05:04.27Z</time></trkpt><trkpt lat="43.6739852" lon="12.9788768"><ele>174.33333333333331</ele><time>2026-04-18T08:05:05.271Z</time></trkpt><trkpt lat="43.6739248" lon="12.9787985"><ele>175.0</ele><time>2026-04-18T08:05:06.27Z</time></trkpt><trkpt lat="43.6738583" lon="12.9787319"><ele>175.66666666666666</ele><time>2026-04-18T08:05:07.27Z</time></trkpt><trkpt lat="43.6737959" lon="12.9786566"><ele>176.33333333333334</ele><time>2026-04-18T08:05:08.27Z</time></trkpt><trkpt lat="43.6737464" lon="12.9785577"><ele>177.0</ele><time>2026-04-18T08:05:09.27Z</time></trkpt><trkpt lat="43.6737157" lon="12.9784311"><ele>176.6</ele><time>2026-04-18T08:05:10.27Z</time></trkpt><trkpt lat="43.6737122" lon="12.9782859"><ele>176.2</ele><time>2026-04-18T08:05:11.271Z</time></trkpt><trkpt lat="43.673723" lon="12.9781407"><ele>175.8</ele><time>2026-04-18T08:05:12.27Z</time></trkpt><trkpt lat="43.6737386" lon="12.9780076"><ele>175.4</ele><time>2026-04-18T08:05:13.27Z</time></trkpt><trkpt lat="43.673758" lon="12.9778895"><ele>175.0</ele><time>2026-04-18T08:05:14.27Z</time></trkpt><trkpt lat="43.673782" lon="12.9777726"><ele>175.0</ele><time>2026-04-18T08:05:15.27Z</time></trkpt><trkpt lat="43.6738077" lon="12.9776515"><ele>175.0</ele><time>2026-04-18T08:05:16.271Z</time></trkpt><trkpt lat="43.6738415" lon="12.9775182"><ele>175.0</ele><time>2026-04-18T08:05:17.27Z</time></trkpt><trkpt lat="43.6738835" lon="12.9773793"><ele>175.0</ele><time>2026-04-18T08:05:18.271Z</time></trkpt><trkpt lat="43.6739349" lon="12.9772333"><ele>175.0</ele><time>2026-04-18T08:05:19.27Z</time></trkpt><trkpt lat="43.6739821" lon="12.9770799"><ele>176.0</ele><time>2026-04-18T08:05:20.27Z</time></trkpt><trkpt lat="43.6740207" lon="12.9769138"><ele>177.0</ele><time>2026-04-18T08:05:21.27Z</time></trkpt><trkpt lat="43.6740576" lon="12.9767447"><ele>178.0</ele><time>2026-04-18T08:05:22.27Z</time></trkpt><trkpt lat="43.6740943" lon="12.9765763"><ele>179.0</ele><time>2026-04-18T08:05:23.27Z</time></trkpt><trkpt lat="43.6741298" lon="12.9764173"><ele>180.39999999999998</ele><time>2026-04-18T08:05:24.271Z</time></trkpt><trkpt lat="43.6741718" lon="12.9762719"><ele>181.8</ele><time>2026-04-18T08:05:25.271Z</time></trkpt><trkpt lat="43.674212" lon="12.9761234"><ele>183.2</ele><time>2026-04-18T08:05:26.271Z</time></trkpt><trkpt lat="43.6742432" lon="12.9759821"><ele>184.60000000000002</ele><time>2026-04-18T08:05:27.271Z</time></trkpt><trkpt lat="43.6742636" lon="12.975863"><ele>186.0</ele><time>2026-04-18T08:05:28.27Z</time></trkpt><trkpt lat="43.6742819" lon="12.975758"><ele>187.4</ele><time>2026-04-18T08:05:29.27Z</time></trkpt><trkpt lat="43.6743005" lon="12.9756685"><ele>188.8</ele><time>2026-04-18T08:05:30.27Z</time></trkpt><trkpt lat="43.6743236" lon="12.9754868"><ele>190.20000000000002</ele><time>2026-04-18T08:05:32.271Z</time></trkpt><trkpt lat="43.6743127" lon="12.9753667"><ele>191.60000000000002</ele><time>2026-04-18T08:05:33.271Z</time></trkpt><trkpt lat="43.6742987" lon="12.9752179"><ele>193.0</ele><time>2026-04-18T08:05:34.27Z</time></trkpt><trkpt lat="43.6742795" lon="12.9750596"><ele>194.75</ele><time>2026-04-18T08:05:35.27Z</time></trkpt><trkpt lat="43.6742636" lon="12.974904"><ele>196.5</ele><time>2026-04-18T08:05:36.27Z</time></trkpt><trkpt lat="43.6742488" lon="12.9747513"><ele>198.25</ele><time>2026-04-18T08:05:37.27Z</time></trkpt><trkpt lat="43.67424" lon="12.9745963"><ele>200.0</ele><time>2026-04-18T08:05:38.27Z</time></trkpt><trkpt lat="43.6742354" lon="12.9744404"><ele>200.0</ele><time>2026-04-18T08:05:39.27Z</time></trkpt><trkpt lat="43.6742301" lon="12.9742842"><ele>200.0</ele><time>2026-04-18T08:05:40.27Z</time></trkpt><trkpt lat="43.6742149" lon="12.9741316"><ele>200.0</ele><time>2026-04-18T08:05:41.27Z</time></trkpt><trkpt lat="43.6741917" lon="12.9739815"><ele>200.0</ele><time>2026-04-18T08:05:42.271Z</time></trkpt><trkpt lat="43.6741532" lon="12.9738299"><ele>201.0</ele><time>2026-04-18T08:05:43.271Z</time></trkpt><trkpt lat="43.6740961" lon="12.9736711"><ele>202.0</ele><time>2026-04-18T08:05:44.271Z</time></trkpt><trkpt lat="43.6740279" lon="12.9735133"><ele>203.0</ele><time>2026-04-18T08:05:45.27Z</time></trkpt><trkpt lat="43.6739739" lon="12.9733628"><ele>204.0</ele><time>2026-04-18T08:05:46.27Z</time></trkpt><trkpt lat="43.6739362" lon="12.9732217"><ele>205.79999999999998</ele><time>2026-04-18T08:05:47.27Z</time></trkpt><trkpt lat="43.6739233" lon="12.9730746"><ele>207.6</ele><time>2026-04-18T08:05:48.271Z</time></trkpt><trkpt lat="43.673944" lon="12.9729189"><ele>209.4</ele><time>2026-04-18T08:05:49.27Z</time></trkpt><trkpt lat="43.6739791" lon="12.9727754"><ele>211.2</ele><time>2026-04-18T08:05:50.27Z</time></trkpt><trkpt lat="43.6739963" lon="12.972645"><ele>213.0</ele><time>2026-04-18T08:05:51.271Z</time></trkpt><trkpt lat="43.6739777" lon="12.9725176"><ele>214.4</ele><time>2026-04-18T08:05:52.27Z</time></trkpt><trkpt lat="43.6739308" lon="12.9723877"><ele>215.8</ele><time>2026-04-18T08:05:53.27Z</time></trkpt><trkpt lat="43.6738586" lon="12.9722735"><ele>217.2</ele><time>2026-04-18T08:05:54.27Z</time></trkpt><trkpt lat="43.6737733" lon="12.9721806"><ele>218.6</ele><time>2026-04-18T08:05:55.27Z</time></trkpt><trkpt lat="43.6736857" lon="12.9720896"><ele>220.0</ele><time>2026-04-18T08:05:56.27Z</time></trkpt><trkpt lat="43.6736041" lon="12.9720522"><ele>219.99999999999997</ele><time>2026-04-18T08:05:57.271Z</time></trkpt><trkpt lat="43.6735385" lon="12.9720192"><ele>220.0</ele><time>2026-04-18T08:05:58.27Z</time></trkpt><trkpt lat="43.6734523" lon="12.9719338"><ele>220.0</ele><time>2026-04-18T08:06:00.271Z</time></trkpt><trkpt lat="43.6734249" lon="12.9718181"><ele>220.0</ele><time>2026-04-18T08:06:02.271Z</time></trkpt><trkpt lat="43.6734346" lon="12.971729"><ele>219.99999999999997</ele><time>2026-04-18T08:06:03.271Z</time></trkpt><trkpt lat="43.6734552" lon="12.971618"><ele>220.0</ele><time>2026-04-18T08:06:04.271Z</time></trkpt><trkpt lat="43.6734494" lon="12.9714976"><ele>222.5</ele><time>2026-04-18T08:06:05.27Z</time></trkpt><trkpt lat="43.6733904" lon="12.9713736"><ele>225.0</ele><time>2026-04-18T08:06:06.27Z</time></trkpt><trkpt lat="43.6733213" lon="12.9712602"><ele>227.5</ele><time>2026-04-18T08:06:07.271Z</time></trkpt><trkpt lat="43.6732262" lon="12.9711541"><ele>230.0</ele><time>2026-04-18T08:06:08.27Z</time></trkpt><trkpt lat="43.673093" lon="12.9711287"><ele>230.0</ele><time>2026-04-18T08:06:09.27Z</time></trkpt><trkpt lat="43.6729703" lon="12.9710826"><ele>230.0</ele><time>2026-04-18T08:06:10.27Z</time></trkpt><trkpt lat="43.6728579" lon="12.9710244"><ele>230.0</ele><time>2026-04-18T08:06:11.27Z</time></trkpt><trkpt lat="43.6727613" lon="12.9709519"><ele>230.0</ele><time>2026-04-18T08:06:12.27Z</time></trkpt><trkpt lat="43.6726725" lon="12.9708622"><ele>231.8</ele><time>2026-04-18T08:06:13.27Z</time></trkpt><trkpt lat="43.6726" lon="12.9707532"><ele>233.6</ele><time>2026-04-18T08:06:14.27Z</time></trkpt><trkpt lat="43.6725484" lon="12.9706261"><ele>235.39999999999998</ele><time>2026-04-18T08:06:15.27Z</time></trkpt><trkpt lat="43.6725215" lon="12.9704828"><ele>237.2</ele><time>2026-04-18T08:06:16.27Z</time></trkpt><trkpt lat="43.6725215" lon="12.9703398"><ele>239.0</ele><time>2026-04-18T08:06:17.271Z</time></trkpt><trkpt lat="43.6725452" lon="12.9701962"><ele>239.0</ele><time>2026-04-18T08:06:18.27Z</time></trkpt><trkpt lat="43.6725891" lon="12.9700677"><ele>238.99999999999997</ele><time>2026-04-18T08:06:19.27Z</time></trkpt><trkpt lat="43.6726487" lon="12.9699468"><ele>238.99999999999997</ele><time>2026-04-18T08:06:20.271Z</time></trkpt><trkpt lat="43.6727215" lon="12.9698348"><ele>239.0</ele><time>2026-04-18T08:06:21.27Z</time></trkpt><trkpt lat="43.6727987" lon="12.9697288"><ele>239.0</ele><time>2026-04-18T08:06:22.27Z</time></trkpt><trkpt lat="43.6728713" lon="12.969608"><ele>243.5</ele><time>2026-04-18T08:06:23.27Z</time></trkpt><trkpt lat="43.6729358" lon="12.9694701"><ele>248.0</ele><time>2026-04-18T08:06:24.271Z</time></trkpt><trkpt lat="43.6730086" lon="12.9693175"><ele>252.5</ele><time>2026-04-18T08:06:25.271Z</time></trkpt><trkpt lat="43.673074" lon="12.9691472"><ele>257.0</ele><time>2026-04-18T08:06:26.271Z</time></trkpt><trkpt lat="43.6731237" lon="12.9689806"><ele>258.0</ele><time>2026-04-18T08:06:27.271Z</time></trkpt><trkpt lat="43.6731688" lon="12.9688178"><ele>259.0</ele><time>2026-04-18T08:06:28.271Z</time></trkpt><trkpt lat="43.6732105" lon="12.9686553"><ele>260.0</ele><time>2026-04-18T08:06:29.27Z</time></trkpt><trkpt lat="43.6732543" lon="12.9684937"><ele>261.0</ele><time>2026-04-18T08:06:30.27Z</time></trkpt><trkpt lat="43.6732949" lon="12.9683449"><ele>261.0</ele><time>2026-04-18T08:06:31.27Z</time></trkpt><trkpt lat="43.6733314" lon="12.9682162"><ele>261.0</ele><time>2026-04-18T08:06:32.27Z</time></trkpt><trkpt lat="43.6733577" lon="12.9681162"><ele>261.0</ele><time>2026-04-18T08:06:33.271Z</time></trkpt><trkpt lat="43.6733814" lon="12.9680343"><ele>261.0</ele><time>2026-04-18T08:06:34.27Z</time></trkpt><trkpt lat="43.6734228" lon="12.9679129"><ele>261.0</ele><time>2026-04-18T08:06:36.271Z</time></trkpt><trkpt lat="43.6734589" lon="12.9678187"><ele>261.0</ele><time>2026-04-18T08:06:38.27Z</time></trkpt><trkpt lat="43.6734215" lon="12.9677219"><ele>261.0</ele><time>2026-04-18T08:06:40.271Z</time></trkpt><trkpt lat="43.6733434" lon="12.9676574"><ele>261.0</ele><time>2026-04-18T08:06:42.27Z</time></trkpt><trkpt lat="43.6732726" lon="12.9676118"><ele>261.0</ele><time>2026-04-18T08:06:46.27Z</time></trkpt><trkpt lat="43.6731965" lon="12.9675494"><ele>261.0</ele><time>2026-04-18T08:06:48.271Z</time></trkpt><trkpt lat="43.67314" lon="12.9675103"><ele>261.0</ele><time>2026-04-18T08:06:49.27Z</time></trkpt><trkpt lat="43.6730752" lon="12.9674691"><ele>261.0</ele><time>2026-04-18T08:06:50.271Z</time></trkpt><trkpt lat="43.6730142" lon="12.9674308"><ele>260.6</ele><time>2026-04-18T08:06:51.27Z</time></trkpt><trkpt lat="43.6729107" lon="12.9673551"><ele>260.20000000000005</ele><time>2026-04-18T08:06:53.27Z</time></trkpt><trkpt lat="43.6728296" lon="12.9672767"><ele>259.79999999999995</ele><time>2026-04-18T08:06:55.271Z</time></trkpt><trkpt lat="43.6727746" lon="12.967178"><ele>259.4</ele><time>2026-04-18T08:06:57.271Z</time></trkpt><trkpt lat="43.6726582" lon="12.9670775"><ele>259.0</ele><time>2026-04-18T08:06:59.271Z</time></trkpt><trkpt lat="43.6725684" lon="12.9670436"><ele>257.0</ele><time>2026-04-18T08:07:00.27Z</time></trkpt><trkpt lat="43.6724731" lon="12.9670026"><ele>254.99999999999997</ele><time>2026-04-18T08:07:01.271Z</time></trkpt><trkpt lat="43.6723742" lon="12.9669444"><ele>252.99999999999997</ele><time>2026-04-18T08:07:02.27Z</time></trkpt><trkpt lat="43.6722632" lon="12.9668793"><ele>251.0</ele><time>2026-04-18T08:07:03.271Z</time></trkpt><trkpt lat="43.6721608" lon="12.9668093"><ele>249.0</ele><time>2026-04-18T08:07:04.27Z</time></trkpt><trkpt lat="43.6720559" lon="12.9667339"><ele>247.5</ele><time>2026-04-18T08:07:05.27Z</time></trkpt><trkpt lat="43.671945" lon="12.966671"><ele>246.0</ele><time>2026-04-18T08:07:06.271Z</time></trkpt><trkpt lat="43.6718312" lon="12.9665957"><ele>244.5</ele><time>2026-04-18T08:07:07.27Z</time></trkpt><trkpt lat="43.6717137" lon="12.9665237"><ele>243.0</ele><time>2026-04-18T08:07:08.27Z</time></trkpt><trkpt lat="43.6715946" lon="12.9664486"><ele>242.0</ele><time>2026-04-18T08:07:09.27Z</time></trkpt><trkpt lat="43.6714677" lon="12.9663721"><ele>241.0</ele><time>2026-04-18T08:07:10.27Z</time></trkpt><trkpt lat="43.6713382" lon="12.9662945"><ele>240.0</ele><time>2026-04-18T08:07:11.27Z</time></trkpt><trkpt lat="43.6712109" lon="12.966225"><ele>239.0</ele><time>2026-04-18T08:07:12.27Z</time></trkpt><trkpt lat="43.67108" lon="12.9661529"><ele>238.5</ele><time>2026-04-18T08:07:13.271Z</time></trkpt><trkpt lat="43.6709525" lon="12.9660815"><ele>238.0</ele><time>2026-04-18T08:07:14.27Z</time></trkpt><trkpt lat="43.6708229" lon="12.9660079"><ele>237.5</ele><time>2026-04-18T08:07:15.271Z</time></trkpt><trkpt lat="43.6706963" lon="12.9659392"><ele>237.0</ele><time>2026-04-18T08:07:16.27Z</time></trkpt><trkpt lat="43.6705713" lon="12.9658614"><ele>238.25</ele><time>2026-04-18T08:07:17.27Z</time></trkpt><trkpt lat="43.6704479" lon="12.9657927"><ele>239.5</ele><time>2026-04-18T08:07:18.27Z</time></trkpt><trkpt lat="43.6703233" lon="12.9657265"><ele>240.75</ele><time>2026-04-18T08:07:19.271Z</time></trkpt><trkpt lat="43.6702044" lon="12.9656681"><ele>242.0</ele><time>2026-04-18T08:07:20.271Z</time></trkpt><trkpt lat="43.6700856" lon="12.9656047"><ele>242.6</ele><time>2026-04-18T08:07:21.27Z</time></trkpt><trkpt lat="43.6699749" lon="12.9655481"><ele>243.2</ele><time>2026-04-18T08:07:22.27Z</time></trkpt><trkpt lat="43.6698659" lon="12.9654916"><ele>243.8</ele><time>2026-04-18T08:07:23.27Z</time></trkpt><trkpt lat="43.6697674" lon="12.9654449"><ele>244.4</ele><time>2026-04-18T08:07:24.271Z</time></trkpt><trkpt lat="43.6696788" lon="12.9653947"><ele>245.0</ele><time>2026-04-18T08:07:25.271Z</time></trkpt><trkpt lat="43.6695955" lon="12.9653475"><ele>245.0</ele><time>2026-04-18T08:07:26.27Z</time></trkpt><trkpt lat="43.6695161" lon="12.9652971"><ele>245.0</ele><time>2026-04-18T08:07:27.271Z</time></trkpt><trkpt lat="43.6694395" lon="12.9652484"><ele>245.0</ele><time>2026-04-18T08:07:28.271Z</time></trkpt><trkpt lat="43.6693572" lon="12.9652005"><ele>245.0</ele><time>2026-04-18T08:07:29.271Z</time></trkpt><trkpt lat="43.6692657" lon="12.9651479"><ele>245.0</ele><time>2026-04-18T08:07:30.27Z</time></trkpt><trkpt lat="43.6691684" lon="12.9650949"><ele>243.5</ele><time>2026-04-18T08:07:31.27Z</time></trkpt><trkpt lat="43.6690741" lon="12.9650334"><ele>242.0</ele><time>2026-04-18T08:07:32.27Z</time></trkpt><trkpt lat="43.6689702" lon="12.9649616"><ele>240.5</ele><time>2026-04-18T08:07:33.27Z</time></trkpt><trkpt lat="43.6688591" lon="12.964897"><ele>239.0</ele><time>2026-04-18T08:07:34.271Z</time></trkpt><trkpt lat="43.66874" lon="12.9648635"><ele>236.75</ele><time>2026-04-18T08:07:35.27Z</time></trkpt><trkpt lat="43.668608" lon="12.9648732"><ele>234.5</ele><time>2026-04-18T08:07:36.27Z</time></trkpt><trkpt lat="43.6684748" lon="12.9649119"><ele>232.25</ele><time>2026-04-18T08:07:37.271Z</time></trkpt><trkpt lat="43.668337" lon="12.9649605"><ele>230.0</ele><time>2026-04-18T08:07:38.27Z</time></trkpt><trkpt lat="43.6682114" lon="12.9650031"><ele>228.5</ele><time>2026-04-18T08:07:39.27Z</time></trkpt><trkpt lat="43.6680938" lon="12.9650443"><ele>227.0</ele><time>2026-04-18T08:07:40.27Z</time></trkpt><trkpt lat="43.6679776" lon="12.9651001"><ele>225.5</ele><time>2026-04-18T08:07:41.27Z</time></trkpt><trkpt lat="43.6678606" lon="12.9651732"><ele>224.0</ele><time>2026-04-18T08:07:42.27Z</time></trkpt><trkpt lat="43.6677472" lon="12.9652681"><ele>222.75</ele><time>2026-04-18T08:07:43.27Z</time></trkpt><trkpt lat="43.6676313" lon="12.9653871"><ele>221.5</ele><time>2026-04-18T08:07:44.27Z</time></trkpt><trkpt lat="43.6675175" lon="12.9655057"><ele>220.25</ele><time>2026-04-18T08:07:45.271Z</time></trkpt><trkpt lat="43.6674051" lon="12.9656254"><ele>219.0</ele><time>2026-04-18T08:07:46.27Z</time></trkpt><trkpt lat="43.6672903" lon="12.965728"><ele>219.0</ele><time>2026-04-18T08:07:47.27Z</time></trkpt><trkpt lat="43.6671618" lon="12.9658065"><ele>219.0</ele><time>2026-04-18T08:07:48.271Z</time></trkpt><trkpt lat="43.6670259" lon="12.9658643"><ele>219.0</ele><time>2026-04-18T08:07:49.271Z</time></trkpt><trkpt lat="43.6668855" lon="12.9659217"><ele>219.0</ele><time>2026-04-18T08:07:50.271Z</time></trkpt><trkpt lat="43.6667363" lon="12.9659779"><ele>214.0</ele><time>2026-04-18T08:07:51.27Z</time></trkpt><trkpt lat="43.6665874" lon="12.9660304"><ele>209.0</ele><time>2026-04-18T08:07:52.271Z</time></trkpt><trkpt lat="43.6664361" lon="12.9660793"><ele>204.0</ele><time>2026-04-18T08:07:53.271Z</time></trkpt><trkpt lat="43.6662974" lon="12.9661237"><ele>204.0</ele><time>2026-04-18T08:07:54.27Z</time></trkpt><trkpt lat="43.6661707" lon="12.966156"><ele>204.0</ele><time>2026-04-18T08:07:55.271Z</time></trkpt><trkpt lat="43.666052" lon="12.9661458"><ele>204.0</ele><time>2026-04-18T08:07:56.27Z</time></trkpt><trkpt lat="43.6659315" lon="12.9661345"><ele>204.0</ele><time>2026-04-18T08:07:57.27Z</time></trkpt><trkpt lat="43.6658211" lon="12.9660754"><ele>206.0</ele><time>2026-04-18T08:07:58.271Z</time></trkpt><trkpt lat="43.6657365" lon="12.9658403"><ele>208.0</ele><time>2026-04-18T08:07:59.27Z</time></trkpt><trkpt lat="43.6656246" lon="12.9657043"><ele>210.0</ele><time>2026-04-18T08:08:00.271Z</time></trkpt><trkpt lat="43.6655104" lon="12.9655691"><ele>210.0</ele><time>2026-04-18T08:08:01.271Z</time></trkpt><trkpt lat="43.6653901" lon="12.9654441"><ele>210.0</ele><time>2026-04-18T08:08:02.27Z</time></trkpt><trkpt lat="43.6652768" lon="12.9653314"><ele>210.0</ele><time>2026-04-18T08:08:03.271Z</time></trkpt><trkpt lat="43.665152" lon="12.9652521"><ele>210.0</ele><time>2026-04-18T08:08:04.27Z</time></trkpt><trkpt lat="43.6650157" lon="12.9651973"><ele>206.0</ele><time>2026-04-18T08:08:05.27Z</time></trkpt><trkpt lat="43.6648676" lon="12.9651766"><ele>202.0</ele><time>2026-04-18T08:08:06.27Z</time></trkpt><trkpt lat="43.6647141" lon="12.965165"><ele>198.0</ele><time>2026-04-18T08:08:07.27Z</time></trkpt><trkpt lat="43.6645634" lon="12.9651469"><ele>196.75</ele><time>2026-04-18T08:08:08.27Z</time></trkpt><trkpt lat="43.6644151" lon="12.9651191"><ele>195.5</ele><time>2026-04-18T08:08:09.27Z</time></trkpt><trkpt lat="43.6642696" lon="12.9650623"><ele>194.25</ele><time>2026-04-18T08:08:10.271Z</time></trkpt><trkpt lat="43.6641429" lon="12.9649723"><ele>193.0</ele><time>2026-04-18T08:08:11.27Z</time></trkpt><trkpt lat="43.6640461" lon="12.9648545"><ele>193.0</ele><time>2026-04-18T08:08:12.27Z</time></trkpt><trkpt lat="43.6639631" lon="12.9647158"><ele>193.0</ele><time>2026-04-18T08:08:13.27Z</time></trkpt><trkpt lat="43.6638679" lon="12.9645823"><ele>193.0</ele><time>2026-04-18T08:08:14.27Z</time></trkpt><trkpt lat="43.663761" lon="12.9644731"><ele>193.0</ele><time>2026-04-18T08:08:15.27Z</time></trkpt><trkpt lat="43.6636502" lon="12.9643599"><ele>191.0</ele><time>2026-04-18T08:08:16.27Z</time></trkpt><trkpt lat="43.6635428" lon="12.9642497"><ele>189.0</ele><time>2026-04-18T08:08:17.27Z</time></trkpt><trkpt lat="43.6634372" lon="12.9641388"><ele>187.0</ele><time>2026-04-18T08:08:18.271Z</time></trkpt><trkpt lat="43.6633343" lon="12.9640289"><ele>185.0</ele><time>2026-04-18T08:08:19.271Z</time></trkpt><trkpt lat="43.6632349" lon="12.9639211"><ele>185.0</ele><time>2026-04-18T08:08:20.271Z</time></trkpt><trkpt lat="43.6631473" lon="12.9638181"><ele>185.0</ele><time>2026-04-18T08:08:21.27Z</time></trkpt><trkpt lat="43.6630625" lon="12.9637303"><ele>185.0</ele><time>2026-04-18T08:08:22.27Z</time></trkpt><trkpt lat="43.6629778" lon="12.9636719"><ele>185.0</ele><time>2026-04-18T08:08:23.27Z</time></trkpt><trkpt lat="43.662892" lon="12.9636472"><ele>185.0</ele><time>2026-04-18T08:08:24.271Z</time></trkpt><trkpt lat="43.6628136" lon="12.9636734"><ele>183.0</ele><time>2026-04-18T08:08:25.27Z</time></trkpt><trkpt lat="43.6627455" lon="12.9637369"><ele>181.0</ele><time>2026-04-18T08:08:26.271Z</time></trkpt><trkpt lat="43.6627052" lon="12.9638427"><ele>179.0</ele><time>2026-04-18T08:08:27.27Z</time></trkpt><trkpt lat="43.6626902" lon="12.9639674"><ele>177.0</ele><time>2026-04-18T08:08:28.27Z</time></trkpt><trkpt lat="43.6627094" lon="12.9641205"><ele>175.0</ele><time>2026-04-18T08:08:29.271Z</time></trkpt><trkpt lat="43.6627392" lon="12.9642767"><ele>173.75</ele><time>2026-04-18T08:08:30.27Z</time></trkpt><trkpt lat="43.6627699" lon="12.9644281"><ele>172.5</ele><time>2026-04-18T08:08:31.27Z</time></trkpt><trkpt lat="43.6628025" lon="12.9645869"><ele>171.25</ele><time>2026-04-18T08:08:32.271Z</time></trkpt><trkpt lat="43.6628363" lon="12.9647488"><ele>170.0</ele><time>2026-04-18T08:08:33.271Z</time></trkpt><trkpt lat="43.662847" lon="12.9649045"><ele>169.4</ele><time>2026-04-18T08:08:34.27Z</time></trkpt><trkpt lat="43.6628405" lon="12.9650605"><ele>168.8</ele><time>2026-04-18T08:08:35.271Z</time></trkpt><trkpt lat="43.6627992" lon="12.9652087"><ele>168.2</ele><time>2026-04-18T08:08:36.27Z</time></trkpt><trkpt lat="43.6627372" lon="12.9653228"><ele>167.6</ele><time>2026-04-18T08:08:37.27Z</time></trkpt><trkpt lat="43.662653" lon="12.9654064"><ele>167.0</ele><time>2026-04-18T08:08:38.271Z</time></trkpt><trkpt lat="43.6625442" lon="12.9654413"><ele>167.0</ele><time>2026-04-18T08:08:39.27Z</time></trkpt><trkpt lat="43.6624343" lon="12.9654206"><ele>167.0</ele><time>2026-04-18T08:08:40.271Z</time></trkpt><trkpt lat="43.6623157" lon="12.9653589"><ele>167.0</ele><time>2026-04-18T08:08:41.271Z</time></trkpt><trkpt lat="43.6621966" lon="12.9652763"><ele>167.0</ele><time>2026-04-18T08:08:42.27Z</time></trkpt><trkpt lat="43.6620728" lon="12.9651938"><ele>167.0</ele><time>2026-04-18T08:08:43.27Z</time></trkpt><trkpt lat="43.6619489" lon="12.9651079"><ele>167.0</ele><time>2026-04-18T08:08:44.27Z</time></trkpt><trkpt lat="43.6618146" lon="12.9650594"><ele>167.0</ele><time>2026-04-18T08:08:45.27Z</time></trkpt><trkpt lat="43.661667" lon="12.9650466"><ele>167.0</ele><time>2026-04-18T08:08:46.271Z</time></trkpt><trkpt lat="43.6615127" lon="12.9650519"><ele>164.25</ele><time>2026-04-18T08:08:47.27Z</time></trkpt><trkpt lat="43.6613569" lon="12.9650606"><ele>161.5</ele><time>2026-04-18T08:08:48.271Z</time></trkpt><trkpt lat="43.6612147" lon="12.965071"><ele>158.75</ele><time>2026-04-18T08:08:49.27Z</time></trkpt><trkpt lat="43.6610724" lon="12.9650797"><ele>156.0</ele><time>2026-04-18T08:08:50.27Z</time></trkpt><trkpt lat="43.6609377" lon="12.9650855"><ele>156.25</ele><time>2026-04-18T08:08:51.271Z</time></trkpt><trkpt lat="43.6608126" lon="12.965088"><ele>156.5</ele><time>2026-04-18T08:08:52.27Z</time></trkpt><trkpt lat="43.6606879" lon="12.9650766"><ele>156.75</ele><time>2026-04-18T08:08:53.27Z</time></trkpt><trkpt lat="43.6605593" lon="12.9650492"><ele>157.0</ele><time>2026-04-18T08:08:54.27Z</time></trkpt><trkpt lat="43.6604355" lon="12.9650018"><ele>157.0</ele><time>2026-04-18T08:08:55.27Z</time></trkpt><trkpt lat="43.6603187" lon="12.9649452"><ele>157.0</ele><time>2026-04-18T08:08:56.27Z</time></trkpt><trkpt lat="43.6602004" lon="12.9648721"><ele>157.0</ele><time>2026-04-18T08:08:57.271Z</time></trkpt><trkpt lat="43.6600973" lon="12.9647985"><ele>157.0</ele><time>2026-04-18T08:08:58.27Z</time></trkpt><trkpt lat="43.6599899" lon="12.964754"><ele>156.0</ele><time>2026-04-18T08:08:59.27Z</time></trkpt><trkpt lat="43.6598777" lon="12.9647478"><ele>155.0</ele><time>2026-04-18T08:09:00.271Z</time></trkpt><trkpt lat="43.6597633" lon="12.9647834"><ele>154.0</ele><time>2026-04-18T08:09:01.27Z</time></trkpt><trkpt lat="43.6596587" lon="12.9648616"><ele>153.0</ele><time>2026-04-18T08:09:02.27Z</time></trkpt><trkpt lat="43.6595654" lon="12.9649785"><ele>151.0</ele><time>2026-04-18T08:09:03.27Z</time></trkpt><trkpt lat="43.6594591" lon="12.9651108"><ele>149.0</ele><time>2026-04-18T08:09:04.271Z</time></trkpt><trkpt lat="43.6593488" lon="12.9652487"><ele>147.0</ele><time>2026-04-18T08:09:05.271Z</time></trkpt><trkpt lat="43.6592436" lon="12.9653843"><ele>145.0</ele><time>2026-04-18T08:09:06.27Z</time></trkpt><trkpt lat="43.6591362" lon="12.9655229"><ele>143.5</ele><time>2026-04-18T08:09:07.271Z</time></trkpt><trkpt lat="43.65903" lon="12.9656657"><ele>142.0</ele><time>2026-04-18T08:09:08.27Z</time></trkpt><trkpt lat="43.6589261" lon="12.9658102"><ele>140.5</ele><time>2026-04-18T08:09:09.27Z</time></trkpt><trkpt lat="43.6588245" lon="12.9659566"><ele>139.0</ele><time>2026-04-18T08:09:10.27Z</time></trkpt><trkpt lat="43.6587233" lon="12.9661024"><ele>138.0</ele><time>2026-04-18T08:09:11.271Z</time></trkpt><trkpt lat="43.6586213" lon="12.9662464"><ele>137.0</ele><time>2026-04-18T08:09:12.27Z</time></trkpt><trkpt lat="43.6585216" lon="12.9663843"><ele>136.0</ele><time>2026-04-18T08:09:13.271Z</time></trkpt><trkpt lat="43.6584248" lon="12.9665245"><ele>135.0</ele><time>2026-04-18T08:09:14.27Z</time></trkpt><trkpt lat="43.6583323" lon="12.9666643"><ele>132.5</ele><time>2026-04-18T08:09:15.27Z</time></trkpt><trkpt lat="43.6582388" lon="12.96681"><ele>130.0</ele><time>2026-04-18T08:09:16.27Z</time></trkpt><trkpt lat="43.6581469" lon="12.966952"><ele>127.5</ele><time>2026-04-18T08:09:17.271Z</time></trkpt><trkpt lat="43.6580539" lon="12.9670917"><ele>125.0</ele><time>2026-04-18T08:09:18.27Z</time></trkpt><trkpt lat="43.6579649" lon="12.967225"><ele>125.0</ele><time>2026-04-18T08:09:19.27Z</time></trkpt><trkpt lat="43.6578844" lon="12.9673561"><ele>125.0</ele><time>2026-04-18T08:09:20.271Z</time></trkpt><trkpt lat="43.6577994" lon="12.9674856"><ele>125.0</ele><time>2026-04-18T08:09:21.27Z</time></trkpt><trkpt lat="43.6577107" lon="12.9676168"><ele>125.0</ele><time>2026-04-18T08:09:22.27Z</time></trkpt><trkpt lat="43.6576182" lon="12.9677474"><ele>124.25</ele><time>2026-04-18T08:09:23.27Z</time></trkpt><trkpt lat="43.6575232" lon="12.9678797"><ele>123.5</ele><time>2026-04-18T08:09:24.27Z</time></trkpt><trkpt lat="43.6574239" lon="12.9680178"><ele>122.75</ele><time>2026-04-18T08:09:25.27Z</time></trkpt><trkpt lat="43.6573196" lon="12.9681604"><ele>122.0</ele><time>2026-04-18T08:09:26.27Z</time></trkpt><trkpt lat="43.6572141" lon="12.968305"><ele>121.25</ele><time>2026-04-18T08:09:27.271Z</time></trkpt><trkpt lat="43.6571097" lon="12.9684543"><ele>120.5</ele><time>2026-04-18T08:09:28.271Z</time></trkpt><trkpt lat="43.6570039" lon="12.9685989"><ele>119.75</ele><time>2026-04-18T08:09:29.271Z</time></trkpt><trkpt lat="43.6569043" lon="12.9687451"><ele>119.0</ele><time>2026-04-18T08:09:30.27Z</time></trkpt><trkpt lat="43.6568018" lon="12.9688968"><ele>119.0</ele><time>2026-04-18T08:09:31.27Z</time></trkpt><trkpt lat="43.6566936" lon="12.9690692"><ele>119.0</ele><time>2026-04-18T08:09:32.271Z</time></trkpt><trkpt lat="43.6565698" lon="12.9692562"><ele>119.0</ele><time>2026-04-18T08:09:33.271Z</time></trkpt><trkpt lat="43.6564381" lon="12.969461"><ele>118.0</ele><time>2026-04-18T08:09:34.27Z</time></trkpt><trkpt lat="43.6563039" lon="12.9696702"><ele>117.0</ele><time>2026-04-18T08:09:35.27Z</time></trkpt><trkpt lat="43.6561819" lon="12.9698823"><ele>116.0</ele><time>2026-04-18T08:09:36.27Z</time></trkpt><trkpt lat="43.656063" lon="12.9700879"><ele>116.0</ele><time>2026-04-18T08:09:37.27Z</time></trkpt><trkpt lat="43.6559567" lon="12.970285"><ele>116.0</ele><time>2026-04-18T08:09:38.27Z</time></trkpt><trkpt lat="43.655854" lon="12.9704689"><ele>116.0</ele><time>2026-04-18T08:09:39.27Z</time></trkpt><trkpt lat="43.6557538" lon="12.9706421"><ele>116.0</ele><time>2026-04-18T08:09:40.27Z</time></trkpt><trkpt lat="43.6556467" lon="12.9708126"><ele>116.0</ele><time>2026-04-18T08:09:41.27Z</time></trkpt><trkpt lat="43.6555343" lon="12.9709834"><ele>116.0</ele><time>2026-04-18T08:09:42.27Z</time></trkpt><trkpt lat="43.6554205" lon="12.9711551"><ele>116.33333333333333</ele><time>2026-04-18T08:09:43.27Z</time></trkpt><trkpt lat="43.6553063" lon="12.9713201"><ele>116.66666666666666</ele><time>2026-04-18T08:09:44.27Z</time></trkpt><trkpt lat="43.655183" lon="12.9714834"><ele>117.0</ele><time>2026-04-18T08:09:45.27Z</time></trkpt><trkpt lat="43.6550485" lon="12.9716296"><ele>116.33333333333334</ele><time>2026-04-18T08:09:46.27Z</time></trkpt><trkpt lat="43.6549093" lon="12.9717687"><ele>115.66666666666667</ele><time>2026-04-18T08:09:47.271Z</time></trkpt><trkpt lat="43.6547616" lon="12.9718927"><ele>115.0</ele><time>2026-04-18T08:09:48.27Z</time></trkpt><trkpt lat="43.6546162" lon="12.9720277"><ele>115.0</ele><time>2026-04-18T08:09:49.27Z</time></trkpt><trkpt lat="43.6544663" lon="12.9721592"><ele>115.0</ele><time>2026-04-18T08:09:50.271Z</time></trkpt><trkpt lat="43.6543195" lon="12.9722903"><ele>115.0</ele><time>2026-04-18T08:09:51.271Z</time></trkpt><trkpt lat="43.6541717" lon="12.9724213"><ele>114.66666666666667</ele><time>2026-04-18T08:09:52.271Z</time></trkpt><trkpt lat="43.6540331" lon="12.972547"><ele>114.33333333333334</ele><time>2026-04-18T08:09:53.27Z</time></trkpt><trkpt lat="43.6538984" lon="12.9726893"><ele>114.0</ele><time>2026-04-18T08:09:54.27Z</time></trkpt><trkpt lat="43.6537721" lon="12.9728545"><ele>114.0</ele><time>2026-04-18T08:09:55.27Z</time></trkpt><trkpt lat="43.6536542" lon="12.9730382"><ele>114.0</ele><time>2026-04-18T08:09:56.27Z</time></trkpt><trkpt lat="43.653541" lon="12.9732171"><ele>114.0</ele><time>2026-04-18T08:09:57.27Z</time></trkpt><trkpt lat="43.6534344" lon="12.9733899"><ele>115.33333333333334</ele><time>2026-04-18T08:09:58.271Z</time></trkpt><trkpt lat="43.6533314" lon="12.9735581"><ele>116.66666666666667</ele><time>2026-04-18T08:09:59.27Z</time></trkpt><trkpt lat="43.6532309" lon="12.9737234"><ele>118.0</ele><time>2026-04-18T08:10:00.271Z</time></trkpt><trkpt lat="43.653123" lon="12.9738752"><ele>118.0</ele><time>2026-04-18T08:10:01.27Z</time></trkpt><trkpt lat="43.6530098" lon="12.9740201"><ele>118.0</ele><time>2026-04-18T08:10:02.27Z</time></trkpt><trkpt lat="43.6528877" lon="12.9741441"><ele>118.0</ele><time>2026-04-18T08:10:03.27Z</time></trkpt><trkpt lat="43.6527619" lon="12.9742433"><ele>119.0</ele><time>2026-04-18T08:10:04.27Z</time></trkpt><trkpt lat="43.6526211" lon="12.9743248"><ele>120.0</ele><time>2026-04-18T08:10:05.27Z</time></trkpt><trkpt lat="43.6524728" lon="12.9743981"><ele>121.0</ele><time>2026-04-18T08:10:06.27Z</time></trkpt><trkpt lat="43.6523211" lon="12.9744638"><ele>121.0</ele><time>2026-04-18T08:10:07.271Z</time></trkpt><trkpt lat="43.6521617" lon="12.974531"><ele>121.0</ele><time>2026-04-18T08:10:08.27Z</time></trkpt><trkpt lat="43.6519937" lon="12.9746091"><ele>121.0</ele><time>2026-04-18T08:10:09.27Z</time></trkpt><trkpt lat="43.6518274" lon="12.9746872"><ele>121.0</ele><time>2026-04-18T08:10:10.271Z</time></trkpt><trkpt lat="43.6516572" lon="12.97476"><ele>121.0</ele><time>2026-04-18T08:10:11.27Z</time></trkpt><trkpt lat="43.6514876" lon="12.9748339"><ele>121.0</ele><time>2026-04-18T08:10:12.27Z</time></trkpt><trkpt lat="43.6513207" lon="12.9749064"><ele>121.0</ele><time>2026-04-18T08:10:13.27Z</time></trkpt><trkpt lat="43.6511618" lon="12.9749729"><ele>121.0</ele><time>2026-04-18T08:10:14.27Z</time></trkpt><trkpt lat="43.6510044" lon="12.9750299"><ele>121.0</ele><time>2026-04-18T08:10:15.27Z</time></trkpt><trkpt lat="43.6508694" lon="12.9750802"><ele>120.6</ele><time>2026-04-18T08:10:16.27Z</time></trkpt><trkpt lat="43.650752" lon="12.9751334"><ele>120.19999999999999</ele><time>2026-04-18T08:10:17.27Z</time></trkpt><trkpt lat="43.6506524" lon="12.9751845"><ele>119.80000000000001</ele><time>2026-04-18T08:10:18.27Z</time></trkpt><trkpt lat="43.6505555" lon="12.9752237"><ele>119.4</ele><time>2026-04-18T08:10:19.27Z</time></trkpt><trkpt lat="43.650461" lon="12.975229"><ele>119.0</ele><time>2026-04-18T08:10:20.271Z</time></trkpt><trkpt lat="43.6503659" lon="12.9752099"><ele>119.5</ele><time>2026-04-18T08:10:21.27Z</time></trkpt><trkpt lat="43.6502628" lon="12.9751721"><ele>120.0</ele><time>2026-04-18T08:10:22.271Z</time></trkpt><trkpt lat="43.6501498" lon="12.9751243"><ele>120.5</ele><time>2026-04-18T08:10:23.27Z</time></trkpt><trkpt lat="43.6500295" lon="12.9750745"><ele>121.0</ele><time>2026-04-18T08:10:24.271Z</time></trkpt><trkpt lat="43.6499019" lon="12.9750118"><ele>121.25</ele><time>2026-04-18T08:10:25.271Z</time></trkpt><trkpt lat="43.6497653" lon="12.974948"><ele>121.5</ele><time>2026-04-18T08:10:26.27Z</time></trkpt><trkpt lat="43.6496249" lon="12.9748837"><ele>121.75</ele><time>2026-04-18T08:10:27.271Z</time></trkpt><trkpt lat="43.6494912" lon="12.9748248"><ele>122.0</ele><time>2026-04-18T08:10:28.27Z</time></trkpt><trkpt lat="43.6493468" lon="12.9747614"><ele>122.0</ele><time>2026-04-18T08:10:29.27Z</time></trkpt><trkpt lat="43.6492039" lon="12.9746932"><ele>122.0</ele><time>2026-04-18T08:10:30.27Z</time></trkpt><trkpt lat="43.6490571" lon="12.9746223"><ele>122.0</ele><time>2026-04-18T08:10:31.27Z</time></trkpt><trkpt lat="43.6489087" lon="12.9745554"><ele>122.0</ele><time>2026-04-18T08:10:32.271Z</time></trkpt><trkpt lat="43.648757" lon="12.9744886"><ele>122.0</ele><time>2026-04-18T08:10:33.271Z</time></trkpt><trkpt lat="43.6486036" lon="12.9744184"><ele>122.0</ele><time>2026-04-18T08:10:34.27Z</time></trkpt><trkpt lat="43.6484527" lon="12.9743465"><ele>121.66666666666666</ele><time>2026-04-18T08:10:35.271Z</time></trkpt><trkpt lat="43.6483021" lon="12.9742777"><ele>121.33333333333334</ele><time>2026-04-18T08:10:36.271Z</time></trkpt><trkpt lat="43.6481502" lon="12.9742133"><ele>121.0</ele><time>2026-04-18T08:10:37.27Z</time></trkpt><trkpt lat="43.6480025" lon="12.9741515"><ele>121.5</ele><time>2026-04-18T08:10:38.271Z</time></trkpt><trkpt lat="43.6478553" lon="12.9740859"><ele>122.0</ele><time>2026-04-18T08:10:39.271Z</time></trkpt><trkpt lat="43.6477133" lon="12.9740153"><ele>122.5</ele><time>2026-04-18T08:10:40.271Z</time></trkpt><trkpt lat="43.6475858" lon="12.9739526"><ele>123.0</ele><time>2026-04-18T08:10:41.27Z</time></trkpt><trkpt lat="43.6474679" lon="12.9738984"><ele>123.0</ele><time>2026-04-18T08:10:42.27Z</time></trkpt><trkpt lat="43.6473655" lon="12.9738544"><ele>123.0</ele><time>2026-04-18T08:10:43.27Z</time></trkpt><trkpt lat="43.6472746" lon="12.9738166"><ele>123.0</ele><time>2026-04-18T08:10:44.271Z</time></trkpt><trkpt lat="43.647195" lon="12.9737809"><ele>123.0</ele><time>2026-04-18T08:10:45.271Z</time></trkpt><trkpt lat="43.647131" lon="12.973763"><ele>123.0</ele><time>2026-04-18T08:10:46.27Z</time></trkpt><trkpt lat="43.6470521" lon="12.9737208"><ele>123.0</ele><time>2026-04-18T08:10:48.27Z</time></trkpt><trkpt lat="43.6470249" lon="12.9736071"><ele>123.0</ele><time>2026-04-18T08:10:50.271Z</time></trkpt><trkpt lat="43.6470505" lon="12.9735052"><ele>123.00000000000001</ele><time>2026-04-18T08:10:51.27Z</time></trkpt><trkpt lat="43.6470796" lon="12.9733674"><ele>123.00000000000001</ele><time>2026-04-18T08:10:52.27Z</time></trkpt><trkpt lat="43.6471104" lon="12.9732034"><ele>123.0</ele><time>2026-04-18T08:10:53.271Z</time></trkpt><trkpt lat="43.6471424" lon="12.9730389"><ele>123.0</ele><time>2026-04-18T08:10:54.271Z</time></trkpt><trkpt lat="43.6471743" lon="12.9728659"><ele>125.5</ele><time>2026-04-18T08:10:55.27Z</time></trkpt><trkpt lat="43.6472043" lon="12.9726919"><ele>128.0</ele><time>2026-04-18T08:10:56.27Z</time></trkpt><trkpt lat="43.6472335" lon="12.9725199"><ele>130.5</ele><time>2026-04-18T08:10:57.27Z</time></trkpt><trkpt lat="43.6472734" lon="12.9723454"><ele>133.0</ele><time>2026-04-18T08:10:58.27Z</time></trkpt><trkpt lat="43.6473029" lon="12.9721769"><ele>135.5</ele><time>2026-04-18T08:10:59.27Z</time></trkpt><trkpt lat="43.647345" lon="12.9720205"><ele>138.0</ele><time>2026-04-18T08:11:00.27Z</time></trkpt><trkpt lat="43.6473999" lon="12.9718877"><ele>140.5</ele><time>2026-04-18T08:11:01.27Z</time></trkpt><trkpt lat="43.6474574" lon="12.9717627"><ele>143.0</ele><time>2026-04-18T08:11:02.27Z</time></trkpt><trkpt lat="43.6474924" lon="12.9716073"><ele>144.75</ele><time>2026-04-18T08:11:03.27Z</time></trkpt><trkpt lat="43.6475219" lon="12.9714327"><ele>146.5</ele><time>2026-04-18T08:11:04.27Z</time></trkpt><trkpt lat="43.6475573" lon="12.9712604"><ele>148.25</ele><time>2026-04-18T08:11:05.271Z</time></trkpt><trkpt lat="43.6475797" lon="12.9710774"><ele>150.0</ele><time>2026-04-18T08:11:06.27Z</time></trkpt><trkpt lat="43.6475735" lon="12.9708975"><ele>151.25</ele><time>2026-04-18T08:11:07.271Z</time></trkpt><trkpt lat="43.6475675" lon="12.9707357"><ele>152.5</ele><time>2026-04-18T08:11:08.27Z</time></trkpt><trkpt lat="43.6475608" lon="12.9705732"><ele>153.75</ele><time>2026-04-18T08:11:09.27Z</time></trkpt><trkpt lat="43.6475433" lon="12.9704104"><ele>155.0</ele><time>2026-04-18T08:11:10.271Z</time></trkpt><trkpt lat="43.6474982" lon="12.9702452"><ele>155.0</ele><time>2026-04-18T08:11:11.27Z</time></trkpt><trkpt lat="43.6474596" lon="12.9700756"><ele>155.0</ele><time>2026-04-18T08:11:12.27Z</time></trkpt><trkpt lat="43.6474094" lon="12.9699018"><ele>155.0</ele><time>2026-04-18T08:11:13.27Z</time></trkpt><trkpt lat="43.6473698" lon="12.9697297"><ele>155.0</ele><time>2026-04-18T08:11:14.27Z</time></trkpt><trkpt lat="43.6473595" lon="12.9695443"><ele>157.25</ele><time>2026-04-18T08:11:15.27Z</time></trkpt><trkpt lat="43.6473615" lon="12.9693576"><ele>159.5</ele><time>2026-04-18T08:11:16.271Z</time></trkpt><trkpt lat="43.6473712" lon="12.9691598"><ele>161.75</ele><time>2026-04-18T08:11:17.27Z</time></trkpt><trkpt lat="43.6473748" lon="12.9689507"><ele>164.0</ele><time>2026-04-18T08:11:18.271Z</time></trkpt><trkpt lat="43.6473775" lon="12.9687617"><ele>166.0</ele><time>2026-04-18T08:11:19.27Z</time></trkpt><trkpt lat="43.6473651" lon="12.9686051"><ele>168.0</ele><time>2026-04-18T08:11:20.27Z</time></trkpt><trkpt lat="43.6473187" lon="12.9684622"><ele>170.0</ele><time>2026-04-18T08:11:21.27Z</time></trkpt><trkpt lat="43.6472433" lon="12.968338"><ele>172.0</ele><time>2026-04-18T08:11:22.27Z</time></trkpt><trkpt lat="43.6471588" lon="12.968231"><ele>174.0</ele><time>2026-04-18T08:11:23.27Z</time></trkpt><trkpt lat="43.64708" lon="12.9681337"><ele>176.0</ele><time>2026-04-18T08:11:24.27Z</time></trkpt><trkpt lat="43.6470249" lon="12.9680302"><ele>178.0</ele><time>2026-04-18T08:11:25.27Z</time></trkpt><trkpt lat="43.6470018" lon="12.9679029"><ele>180.0</ele><time>2026-04-18T08:11:26.27Z</time></trkpt><trkpt lat="43.6470062" lon="12.9677543"><ele>182.0</ele><time>2026-04-18T08:11:27.271Z</time></trkpt><trkpt lat="43.6470203" lon="12.9676012"><ele>184.5</ele><time>2026-04-18T08:11:28.271Z</time></trkpt><trkpt lat="43.6470471" lon="12.9674376"><ele>187.0</ele><time>2026-04-18T08:11:29.27Z</time></trkpt><trkpt lat="43.647097" lon="12.9672701"><ele>189.5</ele><time>2026-04-18T08:11:30.27Z</time></trkpt><trkpt lat="43.6471468" lon="12.9671109"><ele>192.0</ele><time>2026-04-18T08:11:31.27Z</time></trkpt><trkpt lat="43.6471992" lon="12.9669614"><ele>192.0</ele><time>2026-04-18T08:11:32.271Z</time></trkpt><trkpt lat="43.6472713" lon="12.9668196"><ele>192.0</ele><time>2026-04-18T08:11:33.271Z</time></trkpt><trkpt lat="43.6473548" lon="12.9667007"><ele>192.0</ele><time>2026-04-18T08:11:34.27Z</time></trkpt><trkpt lat="43.647438" lon="12.9665744"><ele>192.0</ele><time>2026-04-18T08:11:35.271Z</time></trkpt><trkpt lat="43.647529" lon="12.9664504"><ele>193.5</ele><time>2026-04-18T08:11:36.27Z</time></trkpt><trkpt lat="43.6476149" lon="12.9663196"><ele>195.0</ele><time>2026-04-18T08:11:37.271Z</time></trkpt><trkpt lat="43.6477031" lon="12.9661948"><ele>196.5</ele><time>2026-04-18T08:11:38.27Z</time></trkpt><trkpt lat="43.6477927" lon="12.9660642"><ele>198.0</ele><time>2026-04-18T08:11:39.27Z</time></trkpt><trkpt lat="43.647887" lon="12.9659386"><ele>201.0</ele><time>2026-04-18T08:11:40.27Z</time></trkpt><trkpt lat="43.6479769" lon="12.965818"><ele>204.0</ele><time>2026-04-18T08:11:41.27Z</time></trkpt><trkpt lat="43.6480632" lon="12.9656999"><ele>207.0</ele><time>2026-04-18T08:11:42.271Z</time></trkpt><trkpt lat="43.6481413" lon="12.9655857"><ele>210.0</ele><time>2026-04-18T08:11:43.271Z</time></trkpt><trkpt lat="43.6482362" lon="12.9654656"><ele>210.0</ele><time>2026-04-18T08:11:44.271Z</time></trkpt><trkpt lat="43.6483237" lon="12.9653363"><ele>210.0</ele><time>2026-04-18T08:11:45.27Z</time></trkpt><trkpt lat="43.6484112" lon="12.9652048"><ele>210.0</ele><time>2026-04-18T08:11:46.27Z</time></trkpt><trkpt lat="43.6484814" lon="12.9650635"><ele>210.0</ele><time>2026-04-18T08:11:47.27Z</time></trkpt><trkpt lat="43.648532" lon="12.9649103"><ele>210.5</ele><time>2026-04-18T08:11:48.27Z</time></trkpt><trkpt lat="43.6485594" lon="12.9647344"><ele>211.0</ele><time>2026-04-18T08:11:49.271Z</time></trkpt><trkpt lat="43.6485715" lon="12.9645421"><ele>211.5</ele><time>2026-04-18T08:11:50.27Z</time></trkpt><trkpt lat="43.6485743" lon="12.9643464"><ele>212.0</ele><time>2026-04-18T08:11:51.271Z</time></trkpt><trkpt lat="43.648576" lon="12.9641522"><ele>212.0</ele><time>2026-04-18T08:11:52.27Z</time></trkpt><trkpt lat="43.6485829" lon="12.9639687"><ele>212.0</ele><time>2026-04-18T08:11:53.271Z</time></trkpt><trkpt lat="43.6485994" lon="12.9638052"><ele>212.0</ele><time>2026-04-18T08:11:54.271Z</time></trkpt><trkpt lat="43.6486439" lon="12.9636529"><ele>212.0</ele><time>2026-04-18T08:11:55.271Z</time></trkpt><trkpt lat="43.6487106" lon="12.963502"><ele>214.0</ele><time>2026-04-18T08:11:56.27Z</time></trkpt><trkpt lat="43.6487801" lon="12.9633471"><ele>216.0</ele><time>2026-04-18T08:11:57.271Z</time></trkpt><trkpt lat="43.6488434" lon="12.963176"><ele>218.0</ele><time>2026-04-18T08:11:58.27Z</time></trkpt><trkpt lat="43.6488981" lon="12.9629932"><ele>220.0</ele><time>2026-04-18T08:11:59.27Z</time></trkpt><trkpt lat="43.6489436" lon="12.9628081"><ele>220.0</ele><time>2026-04-18T08:12:00.271Z</time></trkpt><trkpt lat="43.6489854" lon="12.9626192"><ele>220.0</ele><time>2026-04-18T08:12:01.27Z</time></trkpt><trkpt lat="43.6490269" lon="12.9624276"><ele>220.0</ele><time>2026-04-18T08:12:02.271Z</time></trkpt><trkpt lat="43.6490814" lon="12.9622421"><ele>220.0</ele><time>2026-04-18T08:12:03.27Z</time></trkpt><trkpt lat="43.6491423" lon="12.9620596"><ele>221.25</ele><time>2026-04-18T08:12:04.271Z</time></trkpt><trkpt lat="43.6492016" lon="12.961877"><ele>222.5</ele><time>2026-04-18T08:12:05.27Z</time></trkpt><trkpt lat="43.6492664" lon="12.961708"><ele>223.75</ele><time>2026-04-18T08:12:06.27Z</time></trkpt><trkpt lat="43.6493295" lon="12.9615718"><ele>225.0</ele><time>2026-04-18T08:12:07.27Z</time></trkpt><trkpt lat="43.6493909" lon="12.961462"><ele>225.8</ele><time>2026-04-18T08:12:08.27Z</time></trkpt><trkpt lat="43.6494655" lon="12.961367"><ele>226.6</ele><time>2026-04-18T08:12:09.27Z</time></trkpt><trkpt lat="43.6495623" lon="12.9612888"><ele>227.39999999999998</ele><time>2026-04-18T08:12:10.271Z</time></trkpt><trkpt lat="43.649662" lon="12.961216"><ele>228.2</ele><time>2026-04-18T08:12:11.271Z</time></trkpt><trkpt lat="43.6497583" lon="12.9611277"><ele>229.0</ele><time>2026-04-18T08:12:12.27Z</time></trkpt><trkpt lat="43.6498456" lon="12.961031"><ele>229.0</ele><time>2026-04-18T08:12:13.271Z</time></trkpt><trkpt lat="43.6499276" lon="12.9609388"><ele>228.99999999999997</ele><time>2026-04-18T08:12:14.271Z</time></trkpt><trkpt lat="43.6499982" lon="12.9608393"><ele>228.99999999999997</ele><time>2026-04-18T08:12:15.27Z</time></trkpt><trkpt lat="43.6500614" lon="12.960726"><ele>229.0</ele><time>2026-04-18T08:12:16.27Z</time></trkpt><trkpt lat="43.650118" lon="12.9605881"><ele>229.0</ele><time>2026-04-18T08:12:17.271Z</time></trkpt><trkpt lat="43.6501608" lon="12.9604216"><ele>232.0</ele><time>2026-04-18T08:12:18.271Z</time></trkpt><trkpt lat="43.6501977" lon="12.9602459"><ele>235.0</ele><time>2026-04-18T08:12:19.27Z</time></trkpt><trkpt lat="43.6502311" lon="12.9600823"><ele>238.0</ele><time>2026-04-18T08:12:20.271Z</time></trkpt><trkpt lat="43.6502563" lon="12.9599306"><ele>241.0</ele><time>2026-04-18T08:12:21.271Z</time></trkpt><trkpt lat="43.6502702" lon="12.9597722"><ele>243.8</ele><time>2026-04-18T08:12:22.27Z</time></trkpt><trkpt lat="43.6502761" lon="12.9596213"><ele>246.60000000000002</ele><time>2026-04-18T08:12:23.27Z</time></trkpt><trkpt lat="43.6502278" lon="12.959481"><ele>249.4</ele><time>2026-04-18T08:12:24.27Z</time></trkpt><trkpt lat="43.6501531" lon="12.9593559"><ele>252.2</ele><time>2026-04-18T08:12:25.271Z</time></trkpt><trkpt lat="43.650073" lon="12.959254"><ele>255.0</ele><time>2026-04-18T08:12:26.271Z</time></trkpt><trkpt lat="43.6499932" lon="12.959155"><ele>256.4</ele><time>2026-04-18T08:12:27.27Z</time></trkpt><trkpt lat="43.6499132" lon="12.9590493"><ele>257.8</ele><time>2026-04-18T08:12:28.27Z</time></trkpt><trkpt lat="43.649827" lon="12.9589621"><ele>259.2</ele><time>2026-04-18T08:12:29.271Z</time></trkpt><trkpt lat="43.6497406" lon="12.958875"><ele>260.6</ele><time>2026-04-18T08:12:30.271Z</time></trkpt><trkpt lat="43.6496651" lon="12.9587724"><ele>262.0</ele><time>2026-04-18T08:12:31.271Z</time></trkpt><trkpt lat="43.6496053" lon="12.9586516"><ele>262.0</ele><time>2026-04-18T08:12:32.27Z</time></trkpt><trkpt lat="43.6495542" lon="12.9585066"><ele>262.0</ele><time>2026-04-18T08:12:33.271Z</time></trkpt><trkpt lat="43.6495121" lon="12.9583495"><ele>262.0</ele><time>2026-04-18T08:12:34.27Z</time></trkpt><trkpt lat="43.6494724" lon="12.9581808"><ele>262.0</ele><time>2026-04-18T08:12:35.27Z</time></trkpt><trkpt lat="43.6494303" lon="12.9580145"><ele>262.25</ele><time>2026-04-18T08:12:36.271Z</time></trkpt><trkpt lat="43.6493795" lon="12.9578531"><ele>262.5</ele><time>2026-04-18T08:12:37.27Z</time></trkpt><trkpt lat="43.6493116" lon="12.9576902"><ele>262.75</ele><time>2026-04-18T08:12:38.271Z</time></trkpt><trkpt lat="43.6492296" lon="12.9575334"><ele>263.0</ele><time>2026-04-18T08:12:39.27Z</time></trkpt><trkpt lat="43.6491447" lon="12.9573692"><ele>263.75</ele><time>2026-04-18T08:12:40.27Z</time></trkpt><trkpt lat="43.649067" lon="12.9571976"><ele>264.5</ele><time>2026-04-18T08:12:41.27Z</time></trkpt><trkpt lat="43.6489969" lon="12.9570257"><ele>265.25</ele><time>2026-04-18T08:12:42.271Z</time></trkpt><trkpt lat="43.6489375" lon="12.9568546"><ele>266.0</ele><time>2026-04-18T08:12:43.27Z</time></trkpt><trkpt lat="43.6488839" lon="12.9566885"><ele>266.5</ele><time>2026-04-18T08:12:44.271Z</time></trkpt><trkpt lat="43.6488353" lon="12.9565299"><ele>267.0</ele><time>2026-04-18T08:12:45.27Z</time></trkpt><trkpt lat="43.6487908" lon="12.9563775"><ele>267.5</ele><time>2026-04-18T08:12:46.27Z</time></trkpt><trkpt lat="43.6487382" lon="12.9562302"><ele>268.0</ele><time>2026-04-18T08:12:47.27Z</time></trkpt><trkpt lat="43.6486902" lon="12.9561002"><ele>268.0</ele><time>2026-04-18T08:12:48.271Z</time></trkpt><trkpt lat="43.648653" lon="12.9559908"><ele>268.0</ele><time>2026-04-18T08:12:49.271Z</time></trkpt><trkpt lat="43.6486186" lon="12.955878"><ele>268.0</ele><time>2026-04-18T08:12:50.27Z</time></trkpt><trkpt lat="43.6485787" lon="12.9557476"><ele>268.0</ele><time>2026-04-18T08:12:51.27Z</time></trkpt><trkpt lat="43.648532" lon="12.9555961"><ele>268.0</ele><time>2026-04-18T08:12:52.271Z</time></trkpt><trkpt lat="43.6484806" lon="12.9554308"><ele>269.0</ele><time>2026-04-18T08:12:53.27Z</time></trkpt><trkpt lat="43.6484283" lon="12.955274"><ele>270.0</ele><time>2026-04-18T08:12:54.27Z</time></trkpt><trkpt lat="43.6483815" lon="12.9551277"><ele>271.0</ele><time>2026-04-18T08:12:55.27Z</time></trkpt><trkpt lat="43.6483375" lon="12.9549858"><ele>272.0</ele><time>2026-04-18T08:12:56.27Z</time></trkpt><trkpt lat="43.6482924" lon="12.9548413"><ele>272.0</ele><time>2026-04-18T08:12:57.27Z</time></trkpt><trkpt lat="43.6482415" lon="12.9546861"><ele>272.0</ele><time>2026-04-18T08:12:58.271Z</time></trkpt><trkpt lat="43.6481879" lon="12.9545239"><ele>272.0</ele><time>2026-04-18T08:12:59.27Z</time></trkpt><trkpt lat="43.6481313" lon="12.9543563"><ele>272.0</ele><time>2026-04-18T08:13:00.271Z</time></trkpt><trkpt lat="43.6480719" lon="12.9541883"><ele>271.0</ele><time>2026-04-18T08:13:01.27Z</time></trkpt><trkpt lat="43.6480087" lon="12.9540221"><ele>270.0</ele><time>2026-04-18T08:13:02.271Z</time></trkpt><trkpt lat="43.6479453" lon="12.9538586"><ele>269.0</ele><time>2026-04-18T08:13:03.27Z</time></trkpt><trkpt lat="43.6478923" lon="12.953692"><ele>268.0</ele><time>2026-04-18T08:13:04.27Z</time></trkpt><trkpt lat="43.6478512" lon="12.9535211"><ele>268.25</ele><time>2026-04-18T08:13:05.271Z</time></trkpt><trkpt lat="43.6478227" lon="12.9533391"><ele>268.5</ele><time>2026-04-18T08:13:06.27Z</time></trkpt><trkpt lat="43.6478057" lon="12.9531578"><ele>268.75</ele><time>2026-04-18T08:13:07.271Z</time></trkpt><trkpt lat="43.6477937" lon="12.9529768"><ele>269.0</ele><time>2026-04-18T08:13:08.27Z</time></trkpt><trkpt lat="43.647777" lon="12.9527943"><ele>268.25</ele><time>2026-04-18T08:13:09.271Z</time></trkpt><trkpt lat="43.6477496" lon="12.9526245"><ele>267.5</ele><time>2026-04-18T08:13:10.27Z</time></trkpt><trkpt lat="43.6477008" lon="12.952458"><ele>266.75</ele><time>2026-04-18T08:13:11.27Z</time></trkpt><trkpt lat="43.6476359" lon="12.9522852"><ele>266.0</ele><time>2026-04-18T08:13:12.27Z</time></trkpt><trkpt lat="43.647562" lon="12.9521112"><ele>266.0</ele><time>2026-04-18T08:13:13.27Z</time></trkpt><trkpt lat="43.6474829" lon="12.9519334"><ele>266.0</ele><time>2026-04-18T08:13:14.27Z</time></trkpt><trkpt lat="43.6474025" lon="12.9517525"><ele>266.0</ele><time>2026-04-18T08:13:15.27Z</time></trkpt><trkpt lat="43.6473197" lon="12.9515753"><ele>265.33333333333337</ele><time>2026-04-18T08:13:16.271Z</time></trkpt><trkpt lat="43.6472332" lon="12.951397"><ele>264.6666666666667</ele><time>2026-04-18T08:13:17.27Z</time></trkpt><trkpt lat="43.6471432" lon="12.9512122"><ele>264.0</ele><time>2026-04-18T08:13:18.27Z</time></trkpt><trkpt lat="43.6470526" lon="12.9510256"><ele>262.6666666666667</ele><time>2026-04-18T08:13:19.27Z</time></trkpt><trkpt lat="43.6469614" lon="12.9508413"><ele>261.33333333333337</ele><time>2026-04-18T08:13:20.271Z</time></trkpt><trkpt lat="43.6468745" lon="12.9506604"><ele>260.0</ele><time>2026-04-18T08:13:21.27Z</time></trkpt><trkpt lat="43.6467898" lon="12.9504849"><ele>260.0</ele><time>2026-04-18T08:13:22.271Z</time></trkpt><trkpt lat="43.6467067" lon="12.9503096"><ele>260.0</ele><time>2026-04-18T08:13:23.27Z</time></trkpt><trkpt lat="43.6466242" lon="12.9501335"><ele>260.0</ele><time>2026-04-18T08:13:24.27Z</time></trkpt><trkpt lat="43.6465434" lon="12.9499545"><ele>261.0</ele><time>2026-04-18T08:13:25.27Z</time></trkpt><trkpt lat="43.6464621" lon="12.9497771"><ele>262.0</ele><time>2026-04-18T08:13:26.27Z</time></trkpt><trkpt lat="43.6463725" lon="12.9496034"><ele>263.0</ele><time>2026-04-18T08:13:27.27Z</time></trkpt><trkpt lat="43.6462889" lon="12.9494277"><ele>263.0</ele><time>2026-04-18T08:13:28.271Z</time></trkpt><trkpt lat="43.6462106" lon="12.9492509"><ele>263.0</ele><time>2026-04-18T08:13:29.27Z</time></trkpt><trkpt lat="43.6461381" lon="12.9490708"><ele>263.0</ele><time>2026-04-18T08:13:30.27Z</time></trkpt><trkpt lat="43.6460646" lon="12.9489033"><ele>263.0</ele><time>2026-04-18T08:13:31.271Z</time></trkpt><trkpt lat="43.6459942" lon="12.9487522"><ele>263.2</ele><time>2026-04-18T08:13:32.27Z</time></trkpt><trkpt lat="43.6459266" lon="12.948607"><ele>263.4</ele><time>2026-04-18T08:13:33.271Z</time></trkpt><trkpt lat="43.6458604" lon="12.9484729"><ele>263.59999999999997</ele><time>2026-04-18T08:13:34.27Z</time></trkpt><trkpt lat="43.6457984" lon="12.9483594"><ele>263.8</ele><time>2026-04-18T08:13:35.27Z</time></trkpt><trkpt lat="43.6457408" lon="12.9482635"><ele>264.0</ele><time>2026-04-18T08:13:36.271Z</time></trkpt><trkpt lat="43.6456963" lon="12.9481727"><ele>264.2</ele><time>2026-04-18T08:13:37.271Z</time></trkpt><trkpt lat="43.6456757" lon="12.9480831"><ele>264.4</ele><time>2026-04-18T08:13:38.27Z</time></trkpt><trkpt lat="43.645651" lon="12.947922"><ele>264.6</ele><time>2026-04-18T08:13:40.27Z</time></trkpt><trkpt lat="43.6456047" lon="12.9477446"><ele>264.8</ele><time>2026-04-18T08:13:42.27Z</time></trkpt><trkpt lat="43.6455904" lon="12.9476105"><ele>265.0</ele><time>2026-04-18T08:13:43.27Z</time></trkpt><trkpt lat="43.6455825" lon="12.9474704"><ele>263.75</ele><time>2026-04-18T08:13:44.27Z</time></trkpt><trkpt lat="43.6455752" lon="12.9473194"><ele>262.5</ele><time>2026-04-18T08:13:45.27Z</time></trkpt><trkpt lat="43.6455721" lon="12.9471539"><ele>261.25</ele><time>2026-04-18T08:13:46.27Z</time></trkpt><trkpt lat="43.6455788" lon="12.946975"><ele>260.0</ele><time>2026-04-18T08:13:47.271Z</time></trkpt><trkpt lat="43.6455879" lon="12.9467908"><ele>259.25</ele><time>2026-04-18T08:13:48.27Z</time></trkpt><trkpt lat="43.6455856" lon="12.9466004"><ele>258.5</ele><time>2026-04-18T08:13:49.271Z</time></trkpt><trkpt lat="43.6455676" lon="12.9464041"><ele>257.75</ele><time>2026-04-18T08:13:50.27Z</time></trkpt><trkpt lat="43.6455369" lon="12.9462124"><ele>257.0</ele><time>2026-04-18T08:13:51.27Z</time></trkpt><trkpt lat="43.6455042" lon="12.9460204"><ele>256.75</ele><time>2026-04-18T08:13:52.27Z</time></trkpt><trkpt lat="43.6454714" lon="12.9458318"><ele>256.5</ele><time>2026-04-18T08:13:53.271Z</time></trkpt><trkpt lat="43.6454429" lon="12.94564"><ele>256.25</ele><time>2026-04-18T08:13:54.27Z</time></trkpt><trkpt lat="43.6454172" lon="12.9454459"><ele>256.0</ele><time>2026-04-18T08:13:55.271Z</time></trkpt><trkpt lat="43.6453937" lon="12.9452536"><ele>256.0</ele><time>2026-04-18T08:13:56.271Z</time></trkpt><trkpt lat="43.6453822" lon="12.9450623"><ele>256.0</ele><time>2026-04-18T08:13:57.271Z</time></trkpt><trkpt lat="43.6453931" lon="12.9448681"><ele>256.0</ele><time>2026-04-18T08:13:58.271Z</time></trkpt><trkpt lat="43.6454186" lon="12.9446818"><ele>256.0</ele><time>2026-04-18T08:13:59.271Z</time></trkpt><trkpt lat="43.6454722" lon="12.9445119"><ele>256.0</ele><time>2026-04-18T08:14:00.271Z</time></trkpt><trkpt lat="43.6455537" lon="12.9443706"><ele>256.0</ele><time>2026-04-18T08:14:01.27Z</time></trkpt><trkpt lat="43.6456588" lon="12.9442556"><ele>256.0</ele><time>2026-04-18T08:14:02.271Z</time></trkpt><trkpt lat="43.6457686" lon="12.9441545"><ele>256.0</ele><time>2026-04-18T08:14:03.271Z</time></trkpt><trkpt lat="43.6458692" lon="12.9440405"><ele>253.75</ele><time>2026-04-18T08:14:04.27Z</time></trkpt><trkpt lat="43.6459548" lon="12.9439061"><ele>251.5</ele><time>2026-04-18T08:14:05.271Z</time></trkpt><trkpt lat="43.6460235" lon="12.9437473"><ele>249.25</ele><time>2026-04-18T08:14:06.27Z</time></trkpt><trkpt lat="43.6460748" lon="12.9435667"><ele>247.0</ele><time>2026-04-18T08:14:07.27Z</time></trkpt><trkpt lat="43.6460996" lon="12.9433821"><ele>245.25</ele><time>2026-04-18T08:14:08.271Z</time></trkpt><trkpt lat="43.6461009" lon="12.9431951"><ele>243.5</ele><time>2026-04-18T08:14:09.271Z</time></trkpt><trkpt lat="43.6460886" lon="12.9430083"><ele>241.75</ele><time>2026-04-18T08:14:10.271Z</time></trkpt><trkpt lat="43.646077" lon="12.942811"><ele>240.0</ele><time>2026-04-18T08:14:11.27Z</time></trkpt><trkpt lat="43.6460705" lon="12.9426089"><ele>239.5</ele><time>2026-04-18T08:14:12.27Z</time></trkpt><trkpt lat="43.6460651" lon="12.9424035"><ele>239.0</ele><time>2026-04-18T08:14:13.27Z</time></trkpt><trkpt lat="43.6460549" lon="12.9421981"><ele>238.5</ele><time>2026-04-18T08:14:14.271Z</time></trkpt><trkpt lat="43.6460339" lon="12.9419934"><ele>238.0</ele><time>2026-04-18T08:14:15.271Z</time></trkpt><trkpt lat="43.6460127" lon="12.9417886"><ele>238.0</ele><time>2026-04-18T08:14:16.27Z</time></trkpt><trkpt lat="43.6459961" lon="12.9415786"><ele>238.0</ele><time>2026-04-18T08:14:17.271Z</time></trkpt><trkpt lat="43.6459822" lon="12.9413668"><ele>238.0</ele><time>2026-04-18T08:14:18.27Z</time></trkpt><trkpt lat="43.6459648" lon="12.9411527"><ele>238.0</ele><time>2026-04-18T08:14:19.271Z</time></trkpt><trkpt lat="43.6459478" lon="12.9409422"><ele>238.0</ele><time>2026-04-18T08:14:20.27Z</time></trkpt><trkpt lat="43.6459307" lon="12.9407489"><ele>238.0</ele><time>2026-04-18T08:14:21.271Z</time></trkpt><trkpt lat="43.6459198" lon="12.9405633"><ele>238.0</ele><time>2026-04-18T08:14:22.27Z</time></trkpt><trkpt lat="43.6459153" lon="12.9403695"><ele>238.5</ele><time>2026-04-18T08:14:23.271Z</time></trkpt><trkpt lat="43.6459116" lon="12.9401897"><ele>239.0</ele><time>2026-04-18T08:14:24.271Z</time></trkpt><trkpt lat="43.6459066" lon="12.9400218"><ele>239.5</ele><time>2026-04-18T08:14:25.271Z</time></trkpt><trkpt lat="43.6459004" lon="12.9398563"><ele>240.0</ele><time>2026-04-18T08:14:26.27Z</time></trkpt><trkpt lat="43.6458977" lon="12.9396909"><ele>240.5</ele><time>2026-04-18T08:14:27.27Z</time></trkpt><trkpt lat="43.6458949" lon="12.9395274"><ele>241.0</ele><time>2026-04-18T08:14:28.271Z</time></trkpt><trkpt lat="43.6458906" lon="12.9393628"><ele>241.5</ele><time>2026-04-18T08:14:29.27Z</time></trkpt><trkpt lat="43.6458812" lon="12.9392046"><ele>242.0</ele><time>2026-04-18T08:14:30.27Z</time></trkpt><trkpt lat="43.6458651" lon="12.9390532"><ele>243.0</ele><time>2026-04-18T08:14:31.27Z</time></trkpt><trkpt lat="43.6458396" lon="12.9388975"><ele>244.0</ele><time>2026-04-18T08:14:32.27Z</time></trkpt><trkpt lat="43.6458094" lon="12.9387322"><ele>245.0</ele><time>2026-04-18T08:14:33.271Z</time></trkpt><trkpt lat="43.6457809" lon="12.938565"><ele>246.0</ele><time>2026-04-18T08:14:34.271Z</time></trkpt><trkpt lat="43.6457465" lon="12.9383893"><ele>245.75</ele><time>2026-04-18T08:14:35.27Z</time></trkpt><trkpt lat="43.6457033" lon="12.9382105"><ele>245.5</ele><time>2026-04-18T08:14:36.27Z</time></trkpt><trkpt lat="43.6456559" lon="12.9380296"><ele>245.25</ele><time>2026-04-18T08:14:37.27Z</time></trkpt><trkpt lat="43.6456062" lon="12.9378494"><ele>245.0</ele><time>2026-04-18T08:14:38.271Z</time></trkpt><trkpt lat="43.6455591" lon="12.9376673"><ele>244.25</ele><time>2026-04-18T08:14:39.27Z</time></trkpt><trkpt lat="43.6455092" lon="12.9374803"><ele>243.5</ele><time>2026-04-18T08:14:40.27Z</time></trkpt><trkpt lat="43.6454634" lon="12.9372977"><ele>242.75</ele><time>2026-04-18T08:14:41.271Z</time></trkpt><trkpt lat="43.6454213" lon="12.9371255"><ele>242.0</ele><time>2026-04-18T08:14:42.27Z</time></trkpt><trkpt lat="43.6453852" lon="12.936967"><ele>242.0</ele><time>2026-04-18T08:14:43.27Z</time></trkpt><trkpt lat="43.6453536" lon="12.9368235"><ele>242.0</ele><time>2026-04-18T08:14:44.27Z</time></trkpt><trkpt lat="43.6453247" lon="12.9367007"><ele>242.0</ele><time>2026-04-18T08:14:45.271Z</time></trkpt><trkpt lat="43.6453007" lon="12.9365997"><ele>242.0</ele><time>2026-04-18T08:14:46.27Z</time></trkpt><trkpt lat="43.6452438" lon="12.9364707"><ele>242.0</ele><time>2026-04-18T08:14:48.27Z</time></trkpt><trkpt lat="43.6451413" lon="12.9364442"><ele>242.16666666666669</ele><time>2026-04-18T08:14:50.27Z</time></trkpt><trkpt lat="43.6450239" lon="12.9364419"><ele>242.33333333333334</ele><time>2026-04-18T08:14:52.27Z</time></trkpt><trkpt lat="43.6449565" lon="12.936441"><ele>242.5</ele><time>2026-04-18T08:14:53.271Z</time></trkpt><trkpt lat="43.6448902" lon="12.9364351"><ele>242.66666666666669</ele><time>2026-04-18T08:14:54.27Z</time></trkpt><trkpt lat="43.6448195" lon="12.9364282"><ele>242.83333333333334</ele><time>2026-04-18T08:14:55.271Z</time></trkpt><trkpt lat="43.6447449" lon="12.9364221"><ele>243.0</ele><time>2026-04-18T08:14:56.271Z</time></trkpt><trkpt lat="43.6446706" lon="12.9364125"><ele>243.0</ele><time>2026-04-18T08:14:57.27Z</time></trkpt><trkpt lat="43.6445927" lon="12.9364054"><ele>243.0</ele><time>2026-04-18T08:14:58.271Z</time></trkpt><trkpt lat="43.6445048" lon="12.9364001"><ele>243.0</ele><time>2026-04-18T08:14:59.27Z</time></trkpt><trkpt lat="43.6444154" lon="12.9363918"><ele>243.0</ele><time>2026-04-18T08:15:00.27Z</time></trkpt><trkpt lat="43.6443252" lon="12.9363836"><ele>243.0</ele><time>2026-04-18T08:15:01.271Z</time></trkpt><trkpt lat="43.6442328" lon="12.9363766"><ele>243.0</ele><time>2026-04-18T08:15:02.27Z</time></trkpt><trkpt lat="43.6441339" lon="12.9363711"><ele>242.0</ele><time>2026-04-18T08:15:03.27Z</time></trkpt><trkpt lat="43.6440356" lon="12.93637"><ele>241.0</ele><time>2026-04-18T08:15:04.27Z</time></trkpt><trkpt lat="43.6439367" lon="12.9363803"><ele>240.0</ele><time>2026-04-18T08:15:05.27Z</time></trkpt><trkpt lat="43.6438346" lon="12.9364"><ele>239.0</ele><time>2026-04-18T08:15:06.27Z</time></trkpt><trkpt lat="43.6437376" lon="12.9364143"><ele>238.0</ele><time>2026-04-18T08:15:07.27Z</time></trkpt><trkpt lat="43.643644" lon="12.9364147"><ele>236.0</ele><time>2026-04-18T08:15:08.27Z</time></trkpt><trkpt lat="43.643547" lon="12.9364135"><ele>234.0</ele><time>2026-04-18T08:15:09.27Z</time></trkpt><trkpt lat="43.6434515" lon="12.9364082"><ele>232.0</ele><time>2026-04-18T08:15:10.271Z</time></trkpt><trkpt lat="43.6433538" lon="12.9364011"><ele>230.0</ele><time>2026-04-18T08:15:11.27Z</time></trkpt><trkpt lat="43.6432575" lon="12.9363985"><ele>228.0</ele><time>2026-04-18T08:15:12.271Z</time></trkpt><trkpt lat="43.6431664" lon="12.9363941"><ele>228.0</ele><time>2026-04-18T08:15:13.271Z</time></trkpt><trkpt lat="43.6430714" lon="12.9363885"><ele>228.0</ele><time>2026-04-18T08:15:14.27Z</time></trkpt><trkpt lat="43.6429617" lon="12.9363797"><ele>228.0</ele><time>2026-04-18T08:15:15.27Z</time></trkpt><trkpt lat="43.6428472" lon="12.9363725"><ele>228.0</ele><time>2026-04-18T08:15:16.27Z</time></trkpt><trkpt lat="43.6427337" lon="12.9363643"><ele>228.0</ele><time>2026-04-18T08:15:17.27Z</time></trkpt><trkpt lat="43.6426274" lon="12.9363556"><ele>226.4</ele><time>2026-04-18T08:15:18.27Z</time></trkpt><trkpt lat="43.6425283" lon="12.9363438"><ele>224.8</ele><time>2026-04-18T08:15:19.27Z</time></trkpt><trkpt lat="43.6424314" lon="12.9363318"><ele>223.2</ele><time>2026-04-18T08:15:20.271Z</time></trkpt><trkpt lat="43.6423367" lon="12.9363221"><ele>221.6</ele><time>2026-04-18T08:15:21.271Z</time></trkpt><trkpt lat="43.6422422" lon="12.936312"><ele>220.0</ele><time>2026-04-18T08:15:22.27Z</time></trkpt><trkpt lat="43.6421515" lon="12.9363025"><ele>220.0</ele><time>2026-04-18T08:15:23.27Z</time></trkpt><trkpt lat="43.6420667" lon="12.9362998"><ele>220.0</ele><time>2026-04-18T08:15:24.27Z</time></trkpt><trkpt lat="43.6419779" lon="12.9363069"><ele>220.0</ele><time>2026-04-18T08:15:25.271Z</time></trkpt><trkpt lat="43.6418837" lon="12.9363155"><ele>220.0</ele><time>2026-04-18T08:15:26.27Z</time></trkpt><trkpt lat="43.6417895" lon="12.9363297"><ele>220.0</ele><time>2026-04-18T08:15:27.271Z</time></trkpt><trkpt lat="43.6416861" lon="12.9363542"><ele>218.8</ele><time>2026-04-18T08:15:28.27Z</time></trkpt><trkpt lat="43.6415889" lon="12.9363804"><ele>217.6</ele><time>2026-04-18T08:15:29.27Z</time></trkpt><trkpt lat="43.6414984" lon="12.93641"><ele>216.39999999999998</ele><time>2026-04-18T08:15:30.27Z</time></trkpt><trkpt lat="43.641406" lon="12.9364429"><ele>215.2</ele><time>2026-04-18T08:15:31.27Z</time></trkpt><trkpt lat="43.641309" lon="12.9364649"><ele>214.0</ele><time>2026-04-18T08:15:32.271Z</time></trkpt><trkpt lat="43.6412069" lon="12.9364798"><ele>212.6</ele><time>2026-04-18T08:15:33.271Z</time></trkpt><trkpt lat="43.6411055" lon="12.9364951"><ele>211.2</ele><time>2026-04-18T08:15:34.27Z</time></trkpt><trkpt lat="43.6410082" lon="12.9365108"><ele>209.79999999999998</ele><time>2026-04-18T08:15:35.27Z</time></trkpt><trkpt lat="43.6409084" lon="12.9365252"><ele>208.39999999999998</ele><time>2026-04-18T08:15:36.271Z</time></trkpt><trkpt lat="43.6408039" lon="12.9365442"><ele>207.0</ele><time>2026-04-18T08:15:37.27Z</time></trkpt><trkpt lat="43.640702" lon="12.9365529"><ele>207.0</ele><time>2026-04-18T08:15:38.27Z</time></trkpt><trkpt lat="43.640603" lon="12.9365538"><ele>207.0</ele><time>2026-04-18T08:15:39.271Z</time></trkpt><trkpt lat="43.6404975" lon="12.936547"><ele>207.0</ele><time>2026-04-18T08:15:40.271Z</time></trkpt><trkpt lat="43.6403866" lon="12.9365373"><ele>207.0</ele><time>2026-04-18T08:15:41.27Z</time></trkpt><trkpt lat="43.6402709" lon="12.9365174"><ele>207.0</ele><time>2026-04-18T08:15:42.27Z</time></trkpt><trkpt lat="43.6401574" lon="12.9364908"><ele>204.8</ele><time>2026-04-18T08:15:43.27Z</time></trkpt><trkpt lat="43.6400522" lon="12.936459"><ele>202.6</ele><time>2026-04-18T08:15:44.27Z</time></trkpt><trkpt lat="43.6399566" lon="12.9364222"><ele>200.4</ele><time>2026-04-18T08:15:45.271Z</time></trkpt><trkpt lat="43.6398692" lon="12.9363805"><ele>198.20000000000002</ele><time>2026-04-18T08:15:46.27Z</time></trkpt><trkpt lat="43.63979" lon="12.9363389"><ele>196.0</ele><time>2026-04-18T08:15:47.27Z</time></trkpt><trkpt lat="43.6397139" lon="12.9363094"><ele>196.0</ele><time>2026-04-18T08:15:48.27Z</time></trkpt><trkpt lat="43.6396373" lon="12.9363034"><ele>196.0</ele><time>2026-04-18T08:15:49.271Z</time></trkpt><trkpt lat="43.6395581" lon="12.9363275"><ele>196.0</ele><time>2026-04-18T08:15:50.27Z</time></trkpt><trkpt lat="43.6394768" lon="12.9363807"><ele>196.0</ele><time>2026-04-18T08:15:51.271Z</time></trkpt><trkpt lat="43.6393943" lon="12.9364603"><ele>196.0</ele><time>2026-04-18T08:15:52.27Z</time></trkpt><trkpt lat="43.6393198" lon="12.9365614"><ele>193.8</ele><time>2026-04-18T08:15:53.27Z</time></trkpt><trkpt lat="43.6392495" lon="12.9366712"><ele>191.60000000000002</ele><time>2026-04-18T08:15:54.27Z</time></trkpt><trkpt lat="43.6391855" lon="12.9367944"><ele>189.4</ele><time>2026-04-18T08:15:55.271Z</time></trkpt><trkpt lat="43.6391263" lon="12.9369249"><ele>187.2</ele><time>2026-04-18T08:15:56.27Z</time></trkpt><trkpt lat="43.6390689" lon="12.9370637"><ele>185.0</ele><time>2026-04-18T08:15:57.271Z</time></trkpt><trkpt lat="43.6390146" lon="12.9372076"><ele>184.2</ele><time>2026-04-18T08:15:58.27Z</time></trkpt><trkpt lat="43.6389667" lon="12.9373455"><ele>183.4</ele><time>2026-04-18T08:15:59.27Z</time></trkpt><trkpt lat="43.6389231" lon="12.9374794"><ele>182.60000000000002</ele><time>2026-04-18T08:16:00.27Z</time></trkpt><trkpt lat="43.6388811" lon="12.9376112"><ele>181.8</ele><time>2026-04-18T08:16:01.27Z</time></trkpt><trkpt lat="43.6388408" lon="12.9377382"><ele>181.0</ele><time>2026-04-18T08:16:02.271Z</time></trkpt><trkpt lat="43.6388042" lon="12.9378687"><ele>179.8</ele><time>2026-04-18T08:16:03.27Z</time></trkpt><trkpt lat="43.6387639" lon="12.9379951"><ele>178.60000000000002</ele><time>2026-04-18T08:16:04.271Z</time></trkpt><trkpt lat="43.6387247" lon="12.9381215"><ele>177.4</ele><time>2026-04-18T08:16:05.271Z</time></trkpt><trkpt lat="43.6386871" lon="12.9382461"><ele>176.2</ele><time>2026-04-18T08:16:06.27Z</time></trkpt><trkpt lat="43.6386547" lon="12.9383548"><ele>175.0</ele><time>2026-04-18T08:16:07.27Z</time></trkpt><trkpt lat="43.6386204" lon="12.9384459"><ele>172.83333333333334</ele><time>2026-04-18T08:16:08.271Z</time></trkpt><trkpt lat="43.6385693" lon="12.9385139"><ele>170.66666666666669</ele><time>2026-04-18T08:16:09.27Z</time></trkpt><trkpt lat="43.6385" lon="12.9385471"><ele>168.5</ele><time>2026-04-18T08:16:10.27Z</time></trkpt><trkpt lat="43.6384089" lon="12.9385534"><ele>166.33333333333334</ele><time>2026-04-18T08:16:11.271Z</time></trkpt><trkpt lat="43.6382977" lon="12.9385478"><ele>164.16666666666666</ele><time>2026-04-18T08:16:12.27Z</time></trkpt><trkpt lat="43.6381977" lon="12.9385457"><ele>162.0</ele><time>2026-04-18T08:16:13.271Z</time></trkpt><trkpt lat="43.6381163" lon="12.9385492"><ele>162.0</ele><time>2026-04-18T08:16:14.271Z</time></trkpt><trkpt lat="43.6380408" lon="12.9385351"><ele>162.0</ele><time>2026-04-18T08:16:15.27Z</time></trkpt><trkpt lat="43.6379796" lon="12.9384897"><ele>162.0</ele><time>2026-04-18T08:16:16.27Z</time></trkpt><trkpt lat="43.6379355" lon="12.9384077"><ele>162.0</ele><time>2026-04-18T08:16:17.27Z</time></trkpt><trkpt lat="43.6378876" lon="12.938287"><ele>162.0</ele><time>2026-04-18T08:16:18.27Z</time></trkpt><trkpt lat="43.6378406" lon="12.9381569"><ele>162.0</ele><time>2026-04-18T08:16:19.27Z</time></trkpt><trkpt lat="43.6377998" lon="12.9380532"><ele>161.5</ele><time>2026-04-18T08:16:20.271Z</time></trkpt><trkpt lat="43.637755" lon="12.9379698"><ele>161.0</ele><time>2026-04-18T08:16:21.271Z</time></trkpt><trkpt lat="43.6377002" lon="12.9378975"><ele>160.5</ele><time>2026-04-18T08:16:22.27Z</time></trkpt><trkpt lat="43.6376341" lon="12.937834"><ele>160.0</ele><time>2026-04-18T08:16:23.271Z</time></trkpt><trkpt lat="43.6375481" lon="12.9377778"><ele>159.5</ele><time>2026-04-18T08:16:24.271Z</time></trkpt><trkpt lat="43.637449" lon="12.9377208"><ele>159.0</ele><time>2026-04-18T08:16:25.271Z</time></trkpt><trkpt lat="43.6373413" lon="12.9376701"><ele>159.0</ele><time>2026-04-18T08:16:26.27Z</time></trkpt><trkpt lat="43.6372289" lon="12.937624"><ele>159.0</ele><time>2026-04-18T08:16:27.271Z</time></trkpt><trkpt lat="43.6371172" lon="12.937577"><ele>159.0</ele><time>2026-04-18T08:16:28.27Z</time></trkpt><trkpt lat="43.6370027" lon="12.9375312"><ele>159.0</ele><time>2026-04-18T08:16:29.27Z</time></trkpt><trkpt lat="43.6368858" lon="12.9374859"><ele>157.25</ele><time>2026-04-18T08:16:30.271Z</time></trkpt><trkpt lat="43.6367724" lon="12.9374434"><ele>155.5</ele><time>2026-04-18T08:16:31.271Z</time></trkpt><trkpt lat="43.6366638" lon="12.9373959"><ele>153.75</ele><time>2026-04-18T08:16:32.27Z</time></trkpt><trkpt lat="43.6365521" lon="12.9373387"><ele>152.0</ele><time>2026-04-18T08:16:33.271Z</time></trkpt><trkpt lat="43.6364607" lon="12.9372685"><ele>152.0</ele><time>2026-04-18T08:16:34.27Z</time></trkpt><trkpt lat="43.6363715" lon="12.9371613"><ele>152.0</ele><time>2026-04-18T08:16:35.27Z</time></trkpt><trkpt lat="43.6362749" lon="12.9370248"><ele>152.0</ele><time>2026-04-18T08:16:36.27Z</time></trkpt><trkpt lat="43.6361718" lon="12.9368915"><ele>152.0</ele><time>2026-04-18T08:16:37.27Z</time></trkpt><trkpt lat="43.6360698" lon="12.9367796"><ele>153.0</ele><time>2026-04-18T08:16:38.27Z</time></trkpt><trkpt lat="43.6359773" lon="12.9366792"><ele>154.0</ele><time>2026-04-18T08:16:39.27Z</time></trkpt><trkpt lat="43.6358976" lon="12.9365761"><ele>155.0</ele><time>2026-04-18T08:16:40.27Z</time></trkpt><trkpt lat="43.6358365" lon="12.9364496"><ele>156.0</ele><time>2026-04-18T08:16:41.271Z</time></trkpt><trkpt lat="43.6357998" lon="12.9362962"><ele>156.0</ele><time>2026-04-18T08:16:42.27Z</time></trkpt><trkpt lat="43.6357906" lon="12.9361382"><ele>156.0</ele><time>2026-04-18T08:16:43.271Z</time></trkpt><trkpt lat="43.6358036" lon="12.935975"><ele>156.0</ele><time>2026-04-18T08:16:44.27Z</time></trkpt><trkpt lat="43.6358231" lon="12.9358091"><ele>156.0</ele><time>2026-04-18T08:16:45.27Z</time></trkpt><trkpt lat="43.6358375" lon="12.9356502"><ele>157.0</ele><time>2026-04-18T08:16:46.27Z</time></trkpt><trkpt lat="43.6358327" lon="12.9354894"><ele>158.0</ele><time>2026-04-18T08:16:47.271Z</time></trkpt><trkpt lat="43.6358075" lon="12.9353223"><ele>159.0</ele><time>2026-04-18T08:16:48.27Z</time></trkpt><trkpt lat="43.6357688" lon="12.9351419"><ele>160.0</ele><time>2026-04-18T08:16:49.271Z</time></trkpt><trkpt lat="43.6357356" lon="12.9349685"><ele>160.83333333333334</ele><time>2026-04-18T08:16:50.271Z</time></trkpt><trkpt lat="43.6357089" lon="12.9348227"><ele>161.66666666666669</ele><time>2026-04-18T08:16:51.27Z</time></trkpt><trkpt lat="43.635683" lon="12.9346992"><ele>162.5</ele><time>2026-04-18T08:16:52.271Z</time></trkpt><trkpt lat="43.6356574" lon="12.9345943"><ele>163.33333333333334</ele><time>2026-04-18T08:16:53.271Z</time></trkpt><trkpt lat="43.6356138" lon="12.9345148"><ele>164.16666666666666</ele><time>2026-04-18T08:16:54.27Z</time></trkpt><trkpt lat="43.6355423" lon="12.9344663"><ele>165.0</ele><time>2026-04-18T08:16:55.27Z</time></trkpt><trkpt lat="43.6354433" lon="12.9344239"><ele>165.0</ele><time>2026-04-18T08:16:56.27Z</time></trkpt><trkpt lat="43.6353184" lon="12.9343619"><ele>165.0</ele><time>2026-04-18T08:16:57.27Z</time></trkpt><trkpt lat="43.6351907" lon="12.9342942"><ele>165.0</ele><time>2026-04-18T08:16:58.271Z</time></trkpt><trkpt lat="43.6350719" lon="12.9342279"><ele>165.0</ele><time>2026-04-18T08:16:59.27Z</time></trkpt><trkpt lat="43.6349614" lon="12.9341689"><ele>167.6</ele><time>2026-04-18T08:17:00.27Z</time></trkpt><trkpt lat="43.6348493" lon="12.9341176"><ele>170.2</ele><time>2026-04-18T08:17:01.271Z</time></trkpt><trkpt lat="43.6347392" lon="12.9340622"><ele>172.8</ele><time>2026-04-18T08:17:02.27Z</time></trkpt><trkpt lat="43.6346358" lon="12.934006"><ele>175.4</ele><time>2026-04-18T08:17:03.271Z</time></trkpt><trkpt lat="43.6345454" lon="12.9339522"><ele>178.0</ele><time>2026-04-18T08:17:04.27Z</time></trkpt><trkpt lat="43.6344759" lon="12.9338922"><ele>179.4</ele><time>2026-04-18T08:17:05.27Z</time></trkpt><trkpt lat="43.6344306" lon="12.9338151"><ele>180.8</ele><time>2026-04-18T08:17:06.27Z</time></trkpt><trkpt lat="43.6343887" lon="12.9336991"><ele>182.2</ele><time>2026-04-18T08:17:07.27Z</time></trkpt><trkpt lat="43.634338" lon="12.9335648"><ele>183.6</ele><time>2026-04-18T08:17:08.271Z</time></trkpt><trkpt lat="43.6342852" lon="12.9334303"><ele>185.0</ele><time>2026-04-18T08:17:09.271Z</time></trkpt><trkpt lat="43.6342294" lon="12.9332866"><ele>186.5</ele><time>2026-04-18T08:17:10.27Z</time></trkpt><trkpt lat="43.6341702" lon="12.933137"><ele>188.0</ele><time>2026-04-18T08:17:11.27Z</time></trkpt><trkpt lat="43.6341063" lon="12.9329789"><ele>189.5</ele><time>2026-04-18T08:17:12.27Z</time></trkpt><trkpt lat="43.6340409" lon="12.9328073"><ele>191.0</ele><time>2026-04-18T08:17:13.27Z</time></trkpt><trkpt lat="43.6339775" lon="12.9326428"><ele>191.75</ele><time>2026-04-18T08:17:14.27Z</time></trkpt><trkpt lat="43.6339148" lon="12.9324919"><ele>192.5</ele><time>2026-04-18T08:17:15.27Z</time></trkpt><trkpt lat="43.6338543" lon="12.9323423"><ele>193.25</ele><time>2026-04-18T08:17:16.27Z</time></trkpt><trkpt lat="43.6337943" lon="12.9321918"><ele>194.0</ele><time>2026-04-18T08:17:17.27Z</time></trkpt><trkpt lat="43.6337286" lon="12.9320353"><ele>194.0</ele><time>2026-04-18T08:17:18.271Z</time></trkpt><trkpt lat="43.6336645" lon="12.9318761"><ele>194.0</ele><time>2026-04-18T08:17:19.27Z</time></trkpt><trkpt lat="43.6336012" lon="12.9317167"><ele>194.0</ele><time>2026-04-18T08:17:20.27Z</time></trkpt><trkpt lat="43.6335444" lon="12.9315647"><ele>194.0</ele><time>2026-04-18T08:17:21.27Z</time></trkpt><trkpt lat="43.6334887" lon="12.9314271"><ele>196.6</ele><time>2026-04-18T08:17:22.271Z</time></trkpt><trkpt lat="43.633434" lon="12.9312993"><ele>199.2</ele><time>2026-04-18T08:17:23.27Z</time></trkpt><trkpt lat="43.633382" lon="12.9311818"><ele>201.79999999999998</ele><time>2026-04-18T08:17:24.27Z</time></trkpt><trkpt lat="43.6333304" lon="12.9310672"><ele>204.39999999999998</ele><time>2026-04-18T08:17:25.27Z</time></trkpt><trkpt lat="43.6332751" lon="12.9309626"><ele>207.0</ele><time>2026-04-18T08:17:26.27Z</time></trkpt><trkpt lat="43.6332109" lon="12.9308653"><ele>207.39999999999998</ele><time>2026-04-18T08:17:27.27Z</time></trkpt><trkpt lat="43.6331379" lon="12.9307909"><ele>207.79999999999998</ele><time>2026-04-18T08:17:28.271Z</time></trkpt><trkpt lat="43.6330519" lon="12.9307413"><ele>208.2</ele><time>2026-04-18T08:17:29.27Z</time></trkpt><trkpt lat="43.6329458" lon="12.9307067"><ele>208.6</ele><time>2026-04-18T08:17:30.271Z</time></trkpt><trkpt lat="43.6328205" lon="12.9306793"><ele>209.0</ele><time>2026-04-18T08:17:31.27Z</time></trkpt><trkpt lat="43.6327036" lon="12.9306536"><ele>211.50000000000003</ele><time>2026-04-18T08:17:32.27Z</time></trkpt><trkpt lat="43.632602" lon="12.9306275"><ele>214.0</ele><time>2026-04-18T08:17:33.271Z</time></trkpt><trkpt lat="43.6325045" lon="12.9306139"><ele>216.5</ele><time>2026-04-18T08:17:34.27Z</time></trkpt><trkpt lat="43.6324195" lon="12.9306"><ele>219.0</ele><time>2026-04-18T08:17:35.271Z</time></trkpt><trkpt lat="43.6323378" lon="12.9305891"><ele>221.50000000000003</ele><time>2026-04-18T08:17:36.27Z</time></trkpt><trkpt lat="43.6322611" lon="12.9305792"><ele>224.0</ele><time>2026-04-18T08:17:37.27Z</time></trkpt><trkpt lat="43.6321742" lon="12.9305431"><ele>224.0</ele><time>2026-04-18T08:17:39.27Z</time></trkpt><trkpt lat="43.6321564" lon="12.930397"><ele>223.99999999999997</ele><time>2026-04-18T08:17:43.27Z</time></trkpt><trkpt lat="43.6321716" lon="12.9302886"><ele>223.99999999999997</ele><time>2026-04-18T08:17:44.27Z</time></trkpt><trkpt lat="43.6321947" lon="12.9301602"><ele>224.0</ele><time>2026-04-18T08:17:45.27Z</time></trkpt><trkpt lat="43.6322167" lon="12.930021"><ele>224.0</ele><time>2026-04-18T08:17:46.27Z</time></trkpt><trkpt lat="43.6322407" lon="12.9298658"><ele>225.0</ele><time>2026-04-18T08:17:47.27Z</time></trkpt><trkpt lat="43.6322657" lon="12.9297035"><ele>226.0</ele><time>2026-04-18T08:17:48.27Z</time></trkpt><trkpt lat="43.6322898" lon="12.9295344"><ele>227.0</ele><time>2026-04-18T08:17:49.271Z</time></trkpt><trkpt lat="43.632312" lon="12.9293513"><ele>228.0</ele><time>2026-04-18T08:17:50.271Z</time></trkpt><trkpt lat="43.6323323" lon="12.9291572"><ele>228.75</ele><time>2026-04-18T08:17:51.27Z</time></trkpt><trkpt lat="43.6323462" lon="12.9289713"><ele>229.5</ele><time>2026-04-18T08:17:52.27Z</time></trkpt><trkpt lat="43.6323549" lon="12.9287836"><ele>230.25</ele><time>2026-04-18T08:17:53.27Z</time></trkpt><trkpt lat="43.6323519" lon="12.9285861"><ele>231.0</ele><time>2026-04-18T08:17:54.27Z</time></trkpt><trkpt lat="43.6323454" lon="12.9283886"><ele>231.25</ele><time>2026-04-18T08:17:55.271Z</time></trkpt><trkpt lat="43.6323355" lon="12.9281886"><ele>231.5</ele><time>2026-04-18T08:17:56.27Z</time></trkpt><trkpt lat="43.6323198" lon="12.9279842"><ele>231.75</ele><time>2026-04-18T08:17:57.27Z</time></trkpt><trkpt lat="43.6322882" lon="12.9277769"><ele>232.0</ele><time>2026-04-18T08:17:58.271Z</time></trkpt><trkpt lat="43.6322446" lon="12.9275614"><ele>233.0</ele><time>2026-04-18T08:17:59.27Z</time></trkpt><trkpt lat="43.6321906" lon="12.927337"><ele>234.0</ele><time>2026-04-18T08:18:00.27Z</time></trkpt><trkpt lat="43.6321287" lon="12.9271013"><ele>235.0</ele><time>2026-04-18T08:18:01.27Z</time></trkpt><trkpt lat="43.6320706" lon="12.9268687"><ele>235.0</ele><time>2026-04-18T08:18:02.27Z</time></trkpt><trkpt lat="43.6320215" lon="12.9266491"><ele>235.0</ele><time>2026-04-18T08:18:03.271Z</time></trkpt><trkpt lat="43.6319765" lon="12.9264315"><ele>235.0</ele><time>2026-04-18T08:18:04.271Z</time></trkpt><trkpt lat="43.6319366" lon="12.9262123"><ele>236.33333333333331</ele><time>2026-04-18T08:18:05.27Z</time></trkpt><trkpt lat="43.6319059" lon="12.9259925"><ele>237.66666666666669</ele><time>2026-04-18T08:18:06.27Z</time></trkpt><trkpt lat="43.6318827" lon="12.9257725"><ele>239.0</ele><time>2026-04-18T08:18:07.271Z</time></trkpt><trkpt lat="43.6318618" lon="12.9255522"><ele>240.33333333333334</ele><time>2026-04-18T08:18:08.271Z</time></trkpt><trkpt lat="43.63184" lon="12.9253331"><ele>241.66666666666669</ele><time>2026-04-18T08:18:09.271Z</time></trkpt><trkpt lat="43.6318177" lon="12.9251154"><ele>243.0</ele><time>2026-04-18T08:18:10.27Z</time></trkpt><trkpt lat="43.6317978" lon="12.9249014"><ele>244.0</ele><time>2026-04-18T08:18:11.271Z</time></trkpt><trkpt lat="43.6317781" lon="12.9246849"><ele>245.0</ele><time>2026-04-18T08:18:12.271Z</time></trkpt><trkpt lat="43.6317591" lon="12.9244679"><ele>246.0</ele><time>2026-04-18T08:18:13.271Z</time></trkpt><trkpt lat="43.6317406" lon="12.9242489"><ele>248.33333333333331</ele><time>2026-04-18T08:18:14.27Z</time></trkpt><trkpt lat="43.6317223" lon="12.9240288"><ele>250.66666666666666</ele><time>2026-04-18T08:18:15.27Z</time></trkpt><trkpt lat="43.6317069" lon="12.9238104"><ele>253.0</ele><time>2026-04-18T08:18:16.271Z</time></trkpt><trkpt lat="43.6316906" lon="12.9235967"><ele>253.25</ele><time>2026-04-18T08:18:17.27Z</time></trkpt><trkpt lat="43.6316743" lon="12.9233842"><ele>253.5</ele><time>2026-04-18T08:18:18.271Z</time></trkpt><trkpt lat="43.6316587" lon="12.9231804"><ele>253.75</ele><time>2026-04-18T08:18:19.271Z</time></trkpt><trkpt lat="43.6316391" lon="12.9229997"><ele>254.0</ele><time>2026-04-18T08:18:20.27Z</time></trkpt><trkpt lat="43.631619" lon="12.9228477"><ele>254.00000000000003</ele><time>2026-04-18T08:18:21.271Z</time></trkpt><trkpt lat="43.6316026" lon="12.922724"><ele>254.0</ele><time>2026-04-18T08:18:22.27Z</time></trkpt><trkpt lat="43.6315899" lon="12.922624"><ele>254.0</ele><time>2026-04-18T08:18:23.271Z</time></trkpt><trkpt lat="43.6315326" lon="12.9225243"><ele>254.0</ele><time>2026-04-18T08:18:25.27Z</time></trkpt><trkpt lat="43.631419" lon="12.9225503"><ele>254.00000000000003</ele><time>2026-04-18T08:18:27.27Z</time></trkpt><trkpt lat="43.6313459" lon="12.9225818"><ele>254.0</ele><time>2026-04-18T08:18:28.27Z</time></trkpt><trkpt lat="43.6312651" lon="12.9226149"><ele>254.0</ele><time>2026-04-18T08:18:29.27Z</time></trkpt><trkpt lat="43.6311795" lon="12.9226508"><ele>253.99999999999997</ele><time>2026-04-18T08:18:30.27Z</time></trkpt><trkpt lat="43.6310928" lon="12.9226914"><ele>253.99999999999997</ele><time>2026-04-18T08:18:31.271Z</time></trkpt><trkpt lat="43.6310045" lon="12.9227389"><ele>254.0</ele><time>2026-04-18T08:18:32.27Z</time></trkpt><trkpt lat="43.6309135" lon="12.9227833"><ele>254.0</ele><time>2026-04-18T08:18:33.27Z</time></trkpt><trkpt lat="43.6308224" lon="12.9228329"><ele>252.79999999999998</ele><time>2026-04-18T08:18:34.27Z</time></trkpt><trkpt lat="43.6307277" lon="12.9228944"><ele>251.59999999999997</ele><time>2026-04-18T08:18:35.271Z</time></trkpt><trkpt lat="43.6306397" lon="12.9229691"><ele>250.4</ele><time>2026-04-18T08:18:36.27Z</time></trkpt><trkpt lat="43.6305568" lon="12.9230586"><ele>249.2</ele><time>2026-04-18T08:18:37.27Z</time></trkpt><trkpt lat="43.6304804" lon="12.9231535"><ele>248.0</ele><time>2026-04-18T08:18:38.27Z</time></trkpt><trkpt lat="43.6304118" lon="12.923256"><ele>248.0</ele><time>2026-04-18T08:18:39.27Z</time></trkpt><trkpt lat="43.6303426" lon="12.9233695"><ele>248.0</ele><time>2026-04-18T08:18:40.27Z</time></trkpt><trkpt lat="43.6302763" lon="12.9234979"><ele>248.0</ele><time>2026-04-18T08:18:41.27Z</time></trkpt><trkpt lat="43.6302175" lon="12.9236434"><ele>248.0</ele><time>2026-04-18T08:18:42.27Z</time></trkpt><trkpt lat="43.6301667" lon="12.9237923"><ele>243.0</ele><time>2026-04-18T08:18:43.271Z</time></trkpt><trkpt lat="43.6301138" lon="12.9239455"><ele>238.0</ele><time>2026-04-18T08:18:44.271Z</time></trkpt><trkpt lat="43.6300623" lon="12.9241055"><ele>233.0</ele><time>2026-04-18T08:18:45.27Z</time></trkpt><trkpt lat="43.6300045" lon="12.9242628"><ele>228.0</ele><time>2026-04-18T08:18:46.27Z</time></trkpt><trkpt lat="43.6299504" lon="12.9244103"><ele>227.8</ele><time>2026-04-18T08:18:47.27Z</time></trkpt><trkpt lat="43.6299024" lon="12.9245506"><ele>227.60000000000002</ele><time>2026-04-18T08:18:48.271Z</time></trkpt><trkpt lat="43.6298564" lon="12.9246859"><ele>227.39999999999998</ele><time>2026-04-18T08:18:49.271Z</time></trkpt><trkpt lat="43.6298113" lon="12.924813"><ele>227.2</ele><time>2026-04-18T08:18:50.271Z</time></trkpt><trkpt lat="43.6297609" lon="12.9249415"><ele>227.0</ele><time>2026-04-18T08:18:51.271Z</time></trkpt><trkpt lat="43.6297048" lon="12.9250799"><ele>227.0</ele><time>2026-04-18T08:18:52.27Z</time></trkpt><trkpt lat="43.6296365" lon="12.9252128"><ele>227.0</ele><time>2026-04-18T08:18:53.27Z</time></trkpt><trkpt lat="43.6295561" lon="12.9253358"><ele>227.0</ele><time>2026-04-18T08:18:54.27Z</time></trkpt><trkpt lat="43.6294712" lon="12.9254459"><ele>227.0</ele><time>2026-04-18T08:18:55.27Z</time></trkpt><trkpt lat="43.6293837" lon="12.9255471"><ele>224.75</ele><time>2026-04-18T08:18:56.27Z</time></trkpt><trkpt lat="43.6292941" lon="12.9256531"><ele>222.5</ele><time>2026-04-18T08:18:57.271Z</time></trkpt><trkpt lat="43.6292118" lon="12.9257576"><ele>220.25</ele><time>2026-04-18T08:18:58.27Z</time></trkpt><trkpt lat="43.6291275" lon="12.9258835"><ele>218.0</ele><time>2026-04-18T08:18:59.271Z</time></trkpt><trkpt lat="43.629046" lon="12.9260163"><ele>217.25</ele><time>2026-04-18T08:19:00.27Z</time></trkpt><trkpt lat="43.6289689" lon="12.9261511"><ele>216.5</ele><time>2026-04-18T08:19:01.271Z</time></trkpt><trkpt lat="43.628891" lon="12.9262838"><ele>215.75</ele><time>2026-04-18T08:19:02.27Z</time></trkpt><trkpt lat="43.6288161" lon="12.9264214"><ele>215.0</ele><time>2026-04-18T08:19:03.27Z</time></trkpt><trkpt lat="43.628742" lon="12.9265528"><ele>215.0</ele><time>2026-04-18T08:19:04.27Z</time></trkpt><trkpt lat="43.6286711" lon="12.926674"><ele>215.0</ele><time>2026-04-18T08:19:05.271Z</time></trkpt><trkpt lat="43.6285956" lon="12.9267944"><ele>215.0</ele><time>2026-04-18T08:19:06.271Z</time></trkpt><trkpt lat="43.6285257" lon="12.9269113"><ele>215.0</ele><time>2026-04-18T08:19:07.27Z</time></trkpt><trkpt lat="43.6284409" lon="12.927011"><ele>215.0</ele><time>2026-04-18T08:19:08.27Z</time></trkpt><trkpt lat="43.6283413" lon="12.9270859"><ele>211.5</ele><time>2026-04-18T08:19:09.271Z</time></trkpt><trkpt lat="43.6282181" lon="12.9271426"><ele>208.0</ele><time>2026-04-18T08:19:10.27Z</time></trkpt><trkpt lat="43.6280897" lon="12.9271824"><ele>204.5</ele><time>2026-04-18T08:19:11.271Z</time></trkpt><trkpt lat="43.6279608" lon="12.9272254"><ele>201.0</ele><time>2026-04-18T08:19:12.271Z</time></trkpt><trkpt lat="43.6278345" lon="12.927267"><ele>198.75</ele><time>2026-04-18T08:19:13.27Z</time></trkpt><trkpt lat="43.6277053" lon="12.9273055"><ele>196.5</ele><time>2026-04-18T08:19:14.27Z</time></trkpt><trkpt lat="43.6275765" lon="12.927352"><ele>194.25</ele><time>2026-04-18T08:19:15.27Z</time></trkpt><trkpt lat="43.6274539" lon="12.9274069"><ele>192.0</ele><time>2026-04-18T08:19:16.271Z</time></trkpt><trkpt lat="43.6273341" lon="12.9274607"><ele>192.0</ele><time>2026-04-18T08:19:17.271Z</time></trkpt><trkpt lat="43.6272159" lon="12.9275148"><ele>192.0</ele><time>2026-04-18T08:19:18.271Z</time></trkpt><trkpt lat="43.627099" lon="12.927564"><ele>192.0</ele><time>2026-04-18T08:19:19.27Z</time></trkpt><trkpt lat="43.626979" lon="12.9276128"><ele>192.0</ele><time>2026-04-18T08:19:20.27Z</time></trkpt><trkpt lat="43.6268558" lon="12.9276643"><ele>189.25</ele><time>2026-04-18T08:19:21.27Z</time></trkpt><trkpt lat="43.6267314" lon="12.9277197"><ele>186.5</ele><time>2026-04-18T08:19:22.27Z</time></trkpt><trkpt lat="43.6266077" lon="12.9277729"><ele>183.75</ele><time>2026-04-18T08:19:23.271Z</time></trkpt><trkpt lat="43.6264893" lon="12.9278208"><ele>181.0</ele><time>2026-04-18T08:19:24.27Z</time></trkpt><trkpt lat="43.6263737" lon="12.9278675"><ele>181.0</ele><time>2026-04-18T08:19:25.27Z</time></trkpt><trkpt lat="43.6262595" lon="12.9279153"><ele>181.0</ele><time>2026-04-18T08:19:26.271Z</time></trkpt><trkpt lat="43.6261512" lon="12.9279616"><ele>181.0</ele><time>2026-04-18T08:19:27.271Z</time></trkpt><trkpt lat="43.6260498" lon="12.9280021"><ele>181.0</ele><time>2026-04-18T08:19:28.27Z</time></trkpt><trkpt lat="43.6259542" lon="12.9280395"><ele>181.0</ele><time>2026-04-18T08:19:29.27Z</time></trkpt><trkpt lat="43.625865" lon="12.9280736"><ele>179.60000000000002</ele><time>2026-04-18T08:19:30.27Z</time></trkpt><trkpt lat="43.6257779" lon="12.928111"><ele>178.2</ele><time>2026-04-18T08:19:31.27Z</time></trkpt><trkpt lat="43.6256978" lon="12.9281487"><ele>176.8</ele><time>2026-04-18T08:19:32.27Z</time></trkpt><trkpt lat="43.6256235" lon="12.9281777"><ele>175.39999999999998</ele><time>2026-04-18T08:19:33.271Z</time></trkpt><trkpt lat="43.6255577" lon="12.9281855"><ele>174.0</ele><time>2026-04-18T08:19:34.27Z</time></trkpt><trkpt lat="43.6254529" lon="12.9280606"><ele>174.0</ele><time>2026-04-18T08:19:36.27Z</time></trkpt><trkpt lat="43.6253946" lon="12.9279298"><ele>174.0</ele><time>2026-04-18T08:19:37.27Z</time></trkpt><trkpt lat="43.6253295" lon="12.9277828"><ele>174.0</ele><time>2026-04-18T08:19:38.27Z</time></trkpt><trkpt lat="43.6252591" lon="12.927642"><ele>174.0</ele><time>2026-04-18T08:19:39.271Z</time></trkpt><trkpt lat="43.6251903" lon="12.9275014"><ele>174.0</ele><time>2026-04-18T08:19:40.27Z</time></trkpt><trkpt lat="43.625128" lon="12.9273555"><ele>174.0</ele><time>2026-04-18T08:19:41.271Z</time></trkpt><trkpt lat="43.6250817" lon="12.9272123"><ele>174.0</ele><time>2026-04-18T08:19:42.27Z</time></trkpt><trkpt lat="43.6250493" lon="12.9270688"><ele>174.0</ele><time>2026-04-18T08:19:43.27Z</time></trkpt><trkpt lat="43.6250362" lon="12.9269065"><ele>174.0</ele><time>2026-04-18T08:19:44.27Z</time></trkpt><trkpt lat="43.6250377" lon="12.9267311"><ele>174.0</ele><time>2026-04-18T08:19:45.27Z</time></trkpt><trkpt lat="43.6250553" lon="12.9265647"><ele>174.0</ele><time>2026-04-18T08:19:46.271Z</time></trkpt><trkpt lat="43.6250848" lon="12.9264034"><ele>174.0</ele><time>2026-04-18T08:19:47.271Z</time></trkpt><trkpt lat="43.6251109" lon="12.9262375"><ele>174.25</ele><time>2026-04-18T08:19:48.27Z</time></trkpt><trkpt lat="43.6251265" lon="12.9260647"><ele>174.5</ele><time>2026-04-18T08:19:49.271Z</time></trkpt><trkpt lat="43.6251277" lon="12.9258961"><ele>174.75</ele><time>2026-04-18T08:19:50.27Z</time></trkpt><trkpt lat="43.6251161" lon="12.9257213"><ele>175.0</ele><time>2026-04-18T08:19:51.27Z</time></trkpt><trkpt lat="43.6250982" lon="12.925538"><ele>175.0</ele><time>2026-04-18T08:19:52.27Z</time></trkpt><trkpt lat="43.6250762" lon="12.9253505"><ele>175.0</ele><time>2026-04-18T08:19:53.27Z</time></trkpt><trkpt lat="43.6250416" lon="12.9251544"><ele>175.0</ele><time>2026-04-18T08:19:54.27Z</time></trkpt><trkpt lat="43.6249992" lon="12.9249614"><ele>175.0</ele><time>2026-04-18T08:19:55.27Z</time></trkpt><trkpt lat="43.6249555" lon="12.9247792"><ele>175.25</ele><time>2026-04-18T08:19:56.271Z</time></trkpt><trkpt lat="43.6249108" lon="12.9246016"><ele>175.5</ele><time>2026-04-18T08:19:57.27Z</time></trkpt><trkpt lat="43.6248711" lon="12.9244338"><ele>175.75</ele><time>2026-04-18T08:19:58.271Z</time></trkpt><trkpt lat="43.6248389" lon="12.9242734"><ele>176.0</ele><time>2026-04-18T08:19:59.27Z</time></trkpt><trkpt lat="43.6248147" lon="12.9241061"><ele>176.25</ele><time>2026-04-18T08:20:00.271Z</time></trkpt><trkpt lat="43.6248015" lon="12.9239303"><ele>176.5</ele><time>2026-04-18T08:20:01.27Z</time></trkpt><trkpt lat="43.6247956" lon="12.9237525"><ele>176.75</ele><time>2026-04-18T08:20:02.271Z</time></trkpt><trkpt lat="43.6247898" lon="12.923575"><ele>177.0</ele><time>2026-04-18T08:20:03.27Z</time></trkpt><trkpt lat="43.6247878" lon="12.9233999"><ele>177.25</ele><time>2026-04-18T08:20:04.27Z</time></trkpt><trkpt lat="43.624786" lon="12.9232207"><ele>177.5</ele><time>2026-04-18T08:20:05.27Z</time></trkpt><trkpt lat="43.6247776" lon="12.9230358"><ele>177.75</ele><time>2026-04-18T08:20:06.271Z</time></trkpt><trkpt lat="43.6247625" lon="12.9228541"><ele>178.0</ele><time>2026-04-18T08:20:07.271Z</time></trkpt><trkpt lat="43.6247391" lon="12.9226725"><ele>178.5</ele><time>2026-04-18T08:20:08.27Z</time></trkpt><trkpt lat="43.6247153" lon="12.9224851"><ele>179.0</ele><time>2026-04-18T08:20:09.27Z</time></trkpt><trkpt lat="43.6246939" lon="12.9222999"><ele>179.5</ele><time>2026-04-18T08:20:10.27Z</time></trkpt><trkpt lat="43.6246832" lon="12.9221107"><ele>180.0</ele><time>2026-04-18T08:20:11.27Z</time></trkpt><trkpt lat="43.6246791" lon="12.9219235"><ele>180.25</ele><time>2026-04-18T08:20:12.271Z</time></trkpt><trkpt lat="43.6246841" lon="12.9217247"><ele>180.5</ele><time>2026-04-18T08:20:13.27Z</time></trkpt><trkpt lat="43.6246913" lon="12.92152"><ele>180.75</ele><time>2026-04-18T08:20:14.27Z</time></trkpt><trkpt lat="43.6247024" lon="12.9213188"><ele>181.0</ele><time>2026-04-18T08:20:15.27Z</time></trkpt><trkpt lat="43.6247035" lon="12.921125"><ele>181.0</ele><time>2026-04-18T08:20:16.27Z</time></trkpt><trkpt lat="43.624705" lon="12.9209386"><ele>181.0</ele><time>2026-04-18T08:20:17.27Z</time></trkpt><trkpt lat="43.6247137" lon="12.9207651"><ele>181.0</ele><time>2026-04-18T08:20:18.27Z</time></trkpt><trkpt lat="43.6247175" lon="12.9206028"><ele>181.0</ele><time>2026-04-18T08:20:19.271Z</time></trkpt><trkpt lat="43.6247105" lon="12.9204435"><ele>181.75</ele><time>2026-04-18T08:20:20.27Z</time></trkpt><trkpt lat="43.624684" lon="12.9202811"><ele>182.5</ele><time>2026-04-18T08:20:21.27Z</time></trkpt><trkpt lat="43.6246343" lon="12.9201123"><ele>183.25</ele><time>2026-04-18T08:20:22.271Z</time></trkpt><trkpt lat="43.624582" lon="12.9199436"><ele>184.0</ele><time>2026-04-18T08:20:23.271Z</time></trkpt><trkpt lat="43.6245348" lon="12.9197757"><ele>183.5</ele><time>2026-04-18T08:20:24.27Z</time></trkpt><trkpt lat="43.6244968" lon="12.9196115"><ele>183.0</ele><time>2026-04-18T08:20:25.271Z</time></trkpt><trkpt lat="43.6244634" lon="12.9194457"><ele>182.5</ele><time>2026-04-18T08:20:26.271Z</time></trkpt><trkpt lat="43.6244409" lon="12.9192726"><ele>182.0</ele><time>2026-04-18T08:20:27.27Z</time></trkpt><trkpt lat="43.6244274" lon="12.9190951"><ele>182.0</ele><time>2026-04-18T08:20:28.27Z</time></trkpt><trkpt lat="43.6244172" lon="12.9189178"><ele>182.0</ele><time>2026-04-18T08:20:29.271Z</time></trkpt><trkpt lat="43.6244126" lon="12.9187355"><ele>182.0</ele><time>2026-04-18T08:20:30.271Z</time></trkpt><trkpt lat="43.6244094" lon="12.9185527"><ele>182.0</ele><time>2026-04-18T08:20:31.271Z</time></trkpt><trkpt lat="43.6244042" lon="12.9183709"><ele>182.0</ele><time>2026-04-18T08:20:32.27Z</time></trkpt><trkpt lat="43.6243971" lon="12.9181918"><ele>182.0</ele><time>2026-04-18T08:20:33.271Z</time></trkpt><trkpt lat="43.6243845" lon="12.9180119"><ele>182.0</ele><time>2026-04-18T08:20:34.27Z</time></trkpt><trkpt lat="43.6243744" lon="12.9178268"><ele>182.0</ele><time>2026-04-18T08:20:35.27Z</time></trkpt><trkpt lat="43.6243693" lon="12.9176369"><ele>182.0</ele><time>2026-04-18T08:20:36.271Z</time></trkpt><trkpt lat="43.6243669" lon="12.9174442"><ele>182.0</ele><time>2026-04-18T08:20:37.27Z</time></trkpt><trkpt lat="43.6243663" lon="12.9172507"><ele>182.0</ele><time>2026-04-18T08:20:38.27Z</time></trkpt><trkpt lat="43.6243642" lon="12.9170565"><ele>182.0</ele><time>2026-04-18T08:20:39.271Z</time></trkpt><trkpt lat="43.6243591" lon="12.9168641"><ele>181.5</ele><time>2026-04-18T08:20:40.271Z</time></trkpt><trkpt lat="43.6243536" lon="12.9166766"><ele>181.0</ele><time>2026-04-18T08:20:41.27Z</time></trkpt><trkpt lat="43.624346" lon="12.9164898"><ele>180.5</ele><time>2026-04-18T08:20:42.27Z</time></trkpt><trkpt lat="43.6243424" lon="12.9162969"><ele>180.0</ele><time>2026-04-18T08:20:43.271Z</time></trkpt><trkpt lat="43.6243364" lon="12.9161008"><ele>180.0</ele><time>2026-04-18T08:20:44.27Z</time></trkpt><trkpt lat="43.6243299" lon="12.9159084"><ele>180.0</ele><time>2026-04-18T08:20:45.271Z</time></trkpt><trkpt lat="43.6243288" lon="12.9157149"><ele>180.0</ele><time>2026-04-18T08:20:46.27Z</time></trkpt><trkpt lat="43.6243313" lon="12.9155234"><ele>180.0</ele><time>2026-04-18T08:20:47.271Z</time></trkpt><trkpt lat="43.6243325" lon="12.9153286"><ele>181.25</ele><time>2026-04-18T08:20:48.271Z</time></trkpt><trkpt lat="43.6243309" lon="12.9151337"><ele>182.5</ele><time>2026-04-18T08:20:49.27Z</time></trkpt><trkpt lat="43.6243318" lon="12.9149397"><ele>183.75</ele><time>2026-04-18T08:20:50.27Z</time></trkpt><trkpt lat="43.6243364" lon="12.9147509"><ele>185.0</ele><time>2026-04-18T08:20:51.27Z</time></trkpt><trkpt lat="43.624338" lon="12.9145642"><ele>185.5</ele><time>2026-04-18T08:20:52.27Z</time></trkpt><trkpt lat="43.6243341" lon="12.9143794"><ele>186.0</ele><time>2026-04-18T08:20:53.271Z</time></trkpt><trkpt lat="43.624331" lon="12.9142005"><ele>186.5</ele><time>2026-04-18T08:20:54.27Z</time></trkpt><trkpt lat="43.624335" lon="12.9140205"><ele>187.0</ele><time>2026-04-18T08:20:55.27Z</time></trkpt><trkpt lat="43.6243417" lon="12.913844"><ele>188.0</ele><time>2026-04-18T08:20:56.271Z</time></trkpt><trkpt lat="43.6243467" lon="12.9136677"><ele>189.0</ele><time>2026-04-18T08:20:57.27Z</time></trkpt><trkpt lat="43.6243458" lon="12.9134913"><ele>190.0</ele><time>2026-04-18T08:20:58.27Z</time></trkpt><trkpt lat="43.6243456" lon="12.9133142"><ele>191.0</ele><time>2026-04-18T08:20:59.27Z</time></trkpt><trkpt lat="43.6243459" lon="12.9131376"><ele>192.0</ele><time>2026-04-18T08:21:00.271Z</time></trkpt><trkpt lat="43.6243457" lon="12.9129568"><ele>193.0</ele><time>2026-04-18T08:21:01.27Z</time></trkpt><trkpt lat="43.6243431" lon="12.9127745"><ele>194.0</ele><time>2026-04-18T08:21:02.27Z</time></trkpt><trkpt lat="43.6243417" lon="12.912594"><ele>195.0</ele><time>2026-04-18T08:21:03.271Z</time></trkpt><trkpt lat="43.6243405" lon="12.9124135"><ele>195.5</ele><time>2026-04-18T08:21:04.271Z</time></trkpt><trkpt lat="43.6243403" lon="12.912242"><ele>196.0</ele><time>2026-04-18T08:21:05.27Z</time></trkpt><trkpt lat="43.6243392" lon="12.912063"><ele>196.5</ele><time>2026-04-18T08:21:06.27Z</time></trkpt><trkpt lat="43.6243366" lon="12.9118987"><ele>197.0</ele><time>2026-04-18T08:21:07.27Z</time></trkpt><trkpt lat="43.6243357" lon="12.911761"><ele>197.50000000000003</ele><time>2026-04-18T08:21:08.27Z</time></trkpt><trkpt lat="43.6243343" lon="12.9116433"><ele>198.0</ele><time>2026-04-18T08:21:09.271Z</time></trkpt><trkpt lat="43.6243189" lon="12.9115508"><ele>198.5</ele><time>2026-04-18T08:21:10.27Z</time></trkpt><trkpt lat="43.6242741" lon="12.9114735"><ele>199.0</ele><time>2026-04-18T08:21:11.271Z</time></trkpt><trkpt lat="43.6242052" lon="12.9114251"><ele>199.50000000000003</ele><time>2026-04-18T08:21:12.271Z</time></trkpt><trkpt lat="43.6241197" lon="12.9114181"><ele>200.0</ele><time>2026-04-18T08:21:13.271Z</time></trkpt><trkpt lat="43.6240276" lon="12.9114242"><ele>200.00000000000003</ele><time>2026-04-18T08:21:14.27Z</time></trkpt><trkpt lat="43.6239367" lon="12.911438"><ele>200.0</ele><time>2026-04-18T08:21:15.271Z</time></trkpt><trkpt lat="43.6238513" lon="12.9114535"><ele>200.0</ele><time>2026-04-18T08:21:16.271Z</time></trkpt><trkpt lat="43.6237683" lon="12.9114421"><ele>200.0</ele><time>2026-04-18T08:21:17.271Z</time></trkpt><trkpt lat="43.6236928" lon="12.9114107"><ele>200.00000000000003</ele><time>2026-04-18T08:21:18.271Z</time></trkpt><trkpt lat="43.6236281" lon="12.9113529"><ele>200.0</ele><time>2026-04-18T08:21:19.271Z</time></trkpt><trkpt lat="43.6235844" lon="12.9112555"><ele>197.5</ele><time>2026-04-18T08:21:20.271Z</time></trkpt><trkpt lat="43.6235602" lon="12.9111231"><ele>195.0</ele><time>2026-04-18T08:21:21.271Z</time></trkpt><trkpt lat="43.6235418" lon="12.9109672"><ele>192.5</ele><time>2026-04-18T08:21:22.27Z</time></trkpt><trkpt lat="43.6235382" lon="12.9107959"><ele>190.0</ele><time>2026-04-18T08:21:23.27Z</time></trkpt><trkpt lat="43.6235419" lon="12.9106196"><ele>190.0</ele><time>2026-04-18T08:21:24.27Z</time></trkpt><trkpt lat="43.6235178" lon="12.9104375"><ele>190.0</ele><time>2026-04-18T08:21:25.271Z</time></trkpt><trkpt lat="43.6234916" lon="12.9102662"><ele>190.0</ele><time>2026-04-18T08:21:26.27Z</time></trkpt><trkpt lat="43.6234708" lon="12.9101014"><ele>190.0</ele><time>2026-04-18T08:21:27.27Z</time></trkpt><trkpt lat="43.6234508" lon="12.9099483"><ele>191.25</ele><time>2026-04-18T08:21:28.27Z</time></trkpt><trkpt lat="43.6234293" lon="12.9097988"><ele>192.5</ele><time>2026-04-18T08:21:29.27Z</time></trkpt><trkpt lat="43.6234046" lon="12.9096457"><ele>193.75</ele><time>2026-04-18T08:21:30.271Z</time></trkpt><trkpt lat="43.6233534" lon="12.9095111"><ele>195.0</ele><time>2026-04-18T08:21:31.271Z</time></trkpt><trkpt lat="43.6232766" lon="12.9093875"><ele>195.0</ele><time>2026-04-18T08:21:32.27Z</time></trkpt><trkpt lat="43.6231869" lon="12.9092664"><ele>195.0</ele><time>2026-04-18T08:21:33.27Z</time></trkpt><trkpt lat="43.6230947" lon="12.9091454"><ele>195.0</ele><time>2026-04-18T08:21:34.271Z</time></trkpt><trkpt lat="43.6230041" lon="12.9090224"><ele>195.0</ele><time>2026-04-18T08:21:35.27Z</time></trkpt><trkpt lat="43.6229073" lon="12.9089012"><ele>195.25</ele><time>2026-04-18T08:21:36.27Z</time></trkpt><trkpt lat="43.6228116" lon="12.9087724"><ele>195.5</ele><time>2026-04-18T08:21:37.271Z</time></trkpt><trkpt lat="43.6227136" lon="12.9086441"><ele>195.75</ele><time>2026-04-18T08:21:38.271Z</time></trkpt><trkpt lat="43.6226194" lon="12.9085088"><ele>196.0</ele><time>2026-04-18T08:21:39.27Z</time></trkpt><trkpt lat="43.6225358" lon="12.908371"><ele>196.0</ele><time>2026-04-18T08:21:40.27Z</time></trkpt><trkpt lat="43.622467" lon="12.908234"><ele>196.0</ele><time>2026-04-18T08:21:41.271Z</time></trkpt><trkpt lat="43.6224069" lon="12.9080963"><ele>196.0</ele><time>2026-04-18T08:21:42.27Z</time></trkpt><trkpt lat="43.6223516" lon="12.9079605"><ele>196.0</ele><time>2026-04-18T08:21:43.271Z</time></trkpt><trkpt lat="43.6223097" lon="12.9078267"><ele>196.0</ele><time>2026-04-18T08:21:44.271Z</time></trkpt><trkpt lat="43.6222839" lon="12.9076831"><ele>196.0</ele><time>2026-04-18T08:21:45.271Z</time></trkpt><trkpt lat="43.6222724" lon="12.9075309"><ele>196.0</ele><time>2026-04-18T08:21:46.271Z</time></trkpt><trkpt lat="43.622272" lon="12.9073854"><ele>196.0</ele><time>2026-04-18T08:21:47.27Z</time></trkpt><trkpt lat="43.6222746" lon="12.9072486"><ele>196.0</ele><time>2026-04-18T08:21:48.27Z</time></trkpt><trkpt lat="43.6222737" lon="12.9071105"><ele>197.0</ele><time>2026-04-18T08:21:49.27Z</time></trkpt><trkpt lat="43.6222666" lon="12.9069725"><ele>198.0</ele><time>2026-04-18T08:21:50.27Z</time></trkpt><trkpt lat="43.6222577" lon="12.9068235"><ele>199.0</ele><time>2026-04-18T08:21:51.271Z</time></trkpt><trkpt lat="43.6222541" lon="12.9066626"><ele>200.0</ele><time>2026-04-18T08:21:52.27Z</time></trkpt><trkpt lat="43.6222562" lon="12.906503"><ele>201.0</ele><time>2026-04-18T08:21:53.271Z</time></trkpt><trkpt lat="43.622267" lon="12.906341"><ele>201.5</ele><time>2026-04-18T08:21:54.271Z</time></trkpt><trkpt lat="43.6222899" lon="12.9061797"><ele>202.0</ele><time>2026-04-18T08:21:55.27Z</time></trkpt><trkpt lat="43.6223253" lon="12.9060298"><ele>202.5</ele><time>2026-04-18T08:21:56.27Z</time></trkpt><trkpt lat="43.6223569" lon="12.905881"><ele>203.0</ele><time>2026-04-18T08:21:57.27Z</time></trkpt><trkpt lat="43.6223754" lon="12.9057215"><ele>203.0</ele><time>2026-04-18T08:21:58.27Z</time></trkpt><trkpt lat="43.6223882" lon="12.9055585"><ele>203.0</ele><time>2026-04-18T08:21:59.271Z</time></trkpt><trkpt lat="43.6223998" lon="12.9053943"><ele>203.0</ele><time>2026-04-18T08:22:00.271Z</time></trkpt><trkpt lat="43.6224073" lon="12.9052263"><ele>203.0</ele><time>2026-04-18T08:22:01.27Z</time></trkpt><trkpt lat="43.6224205" lon="12.9050577"><ele>202.75</ele><time>2026-04-18T08:22:02.27Z</time></trkpt><trkpt lat="43.6224394" lon="12.904892"><ele>202.5</ele><time>2026-04-18T08:22:03.27Z</time></trkpt><trkpt lat="43.6224617" lon="12.9047271"><ele>202.25</ele><time>2026-04-18T08:22:04.271Z</time></trkpt><trkpt lat="43.6224777" lon="12.9045641"><ele>202.0</ele><time>2026-04-18T08:22:05.27Z</time></trkpt><trkpt lat="43.622489" lon="12.9043987"><ele>202.8</ele><time>2026-04-18T08:22:06.271Z</time></trkpt><trkpt lat="43.6224947" lon="12.9042386"><ele>203.6</ele><time>2026-04-18T08:22:07.27Z</time></trkpt><trkpt lat="43.6224997" lon="12.9040914"><ele>204.4</ele><time>2026-04-18T08:22:08.271Z</time></trkpt><trkpt lat="43.622498" lon="12.9039509"><ele>205.20000000000002</ele><time>2026-04-18T08:22:09.27Z</time></trkpt><trkpt lat="43.622497" lon="12.9038226"><ele>206.0</ele><time>2026-04-18T08:22:10.27Z</time></trkpt><trkpt lat="43.6224931" lon="12.903704"><ele>206.0</ele><time>2026-04-18T08:22:11.271Z</time></trkpt><trkpt lat="43.6224792" lon="12.9035745"><ele>206.0</ele><time>2026-04-18T08:22:12.271Z</time></trkpt><trkpt lat="43.6224598" lon="12.9034346"><ele>206.0</ele><time>2026-04-18T08:22:13.27Z</time></trkpt><trkpt lat="43.6224256" lon="12.9032853"><ele>206.0</ele><time>2026-04-18T08:22:14.27Z</time></trkpt><trkpt lat="43.6223725" lon="12.9031339"><ele>206.0</ele><time>2026-04-18T08:22:15.271Z</time></trkpt><trkpt lat="43.6223125" lon="12.9029852"><ele>206.5</ele><time>2026-04-18T08:22:16.27Z</time></trkpt><trkpt lat="43.6222461" lon="12.9028413"><ele>207.0</ele><time>2026-04-18T08:22:17.27Z</time></trkpt><trkpt lat="43.622181" lon="12.9027055"><ele>207.5</ele><time>2026-04-18T08:22:18.27Z</time></trkpt><trkpt lat="43.6221235" lon="12.9025718"><ele>208.0</ele><time>2026-04-18T08:22:19.271Z</time></trkpt><trkpt lat="43.6220858" lon="12.9024274"><ele>208.0</ele><time>2026-04-18T08:22:20.27Z</time></trkpt><trkpt lat="43.6220695" lon="12.9022635"><ele>208.0</ele><time>2026-04-18T08:22:21.27Z</time></trkpt><trkpt lat="43.6220766" lon="12.9020882"><ele>208.0</ele><time>2026-04-18T08:22:22.27Z</time></trkpt><trkpt lat="43.6220914" lon="12.9019045"><ele>208.0</ele><time>2026-04-18T08:22:23.27Z</time></trkpt><trkpt lat="43.6221121" lon="12.9017329"><ele>209.0</ele><time>2026-04-18T08:22:24.27Z</time></trkpt><trkpt lat="43.622147" lon="12.9015751"><ele>210.0</ele><time>2026-04-18T08:22:25.27Z</time></trkpt><trkpt lat="43.6221998" lon="12.9014246"><ele>211.0</ele><time>2026-04-18T08:22:26.271Z</time></trkpt><trkpt lat="43.6222612" lon="12.9012693"><ele>212.0</ele><time>2026-04-18T08:22:27.27Z</time></trkpt><trkpt lat="43.622311" lon="12.9011082"><ele>212.0</ele><time>2026-04-18T08:22:28.27Z</time></trkpt><trkpt lat="43.622353" lon="12.9009447"><ele>212.0</ele><time>2026-04-18T08:22:29.27Z</time></trkpt><trkpt lat="43.6224004" lon="12.9007802"><ele>212.0</ele><time>2026-04-18T08:22:30.271Z</time></trkpt><trkpt lat="43.6224547" lon="12.9006252"><ele>212.0</ele><time>2026-04-18T08:22:31.27Z</time></trkpt><trkpt lat="43.6225136" lon="12.9004873"><ele>212.2</ele><time>2026-04-18T08:22:32.27Z</time></trkpt><trkpt lat="43.622569" lon="12.9003659"><ele>212.39999999999998</ele><time>2026-04-18T08:22:33.27Z</time></trkpt><trkpt lat="43.6226177" lon="12.9002463"><ele>212.60000000000002</ele><time>2026-04-18T08:22:34.27Z</time></trkpt><trkpt lat="43.6226473" lon="12.9001303"><ele>212.8</ele><time>2026-04-18T08:22:35.27Z</time></trkpt><trkpt lat="43.6226416" lon="12.9000192"><ele>213.0</ele><time>2026-04-18T08:22:36.27Z</time></trkpt><trkpt lat="43.6226033" lon="12.8999263"><ele>213.33333333333334</ele><time>2026-04-18T08:22:37.27Z</time></trkpt><trkpt lat="43.6225402" lon="12.8998621"><ele>213.66666666666669</ele><time>2026-04-18T08:22:38.27Z</time></trkpt><trkpt lat="43.6224727" lon="12.8998095"><ele>214.0</ele><time>2026-04-18T08:22:39.271Z</time></trkpt><trkpt lat="43.6224195" lon="12.8997338"><ele>214.33333333333334</ele><time>2026-04-18T08:22:40.27Z</time></trkpt><trkpt lat="43.6223879" lon="12.8996384"><ele>214.66666666666669</ele><time>2026-04-18T08:22:41.27Z</time></trkpt><trkpt lat="43.62238" lon="12.8995297"><ele>215.0</ele><time>2026-04-18T08:22:42.27Z</time></trkpt><trkpt lat="43.6223847" lon="12.8994084"><ele>215.0</ele><time>2026-04-18T08:22:43.271Z</time></trkpt><trkpt lat="43.6223846" lon="12.8992875"><ele>215.0</ele><time>2026-04-18T08:22:44.27Z</time></trkpt><trkpt lat="43.6223666" lon="12.8991594"><ele>215.0</ele><time>2026-04-18T08:22:45.271Z</time></trkpt><trkpt lat="43.6223433" lon="12.8990305"><ele>215.0</ele><time>2026-04-18T08:22:46.27Z</time></trkpt><trkpt lat="43.6223107" lon="12.8989013"><ele>215.0</ele><time>2026-04-18T08:22:47.27Z</time></trkpt><trkpt lat="43.6222778" lon="12.8987652"><ele>216.0</ele><time>2026-04-18T08:22:48.27Z</time></trkpt><trkpt lat="43.6222541" lon="12.8986202"><ele>217.0</ele><time>2026-04-18T08:22:49.271Z</time></trkpt><trkpt lat="43.6222356" lon="12.8984716"><ele>218.0</ele><time>2026-04-18T08:22:50.271Z</time></trkpt><trkpt lat="43.6222246" lon="12.8983292"><ele>219.0</ele><time>2026-04-18T08:22:51.27Z</time></trkpt><trkpt lat="43.6222146" lon="12.8981922"><ele>220.0</ele><time>2026-04-18T08:22:52.27Z</time></trkpt><trkpt lat="43.6222041" lon="12.8980595"><ele>220.4</ele><time>2026-04-18T08:22:53.27Z</time></trkpt><trkpt lat="43.6221883" lon="12.8979247"><ele>220.8</ele><time>2026-04-18T08:22:54.271Z</time></trkpt><trkpt lat="43.622167" lon="12.8977886"><ele>221.2</ele><time>2026-04-18T08:22:55.27Z</time></trkpt><trkpt lat="43.6221415" lon="12.8976597"><ele>221.6</ele><time>2026-04-18T08:22:56.271Z</time></trkpt><trkpt lat="43.6221171" lon="12.89752"><ele>222.0</ele><time>2026-04-18T08:22:57.27Z</time></trkpt><trkpt lat="43.6220985" lon="12.8973644"><ele>223.25</ele><time>2026-04-18T08:22:58.27Z</time></trkpt><trkpt lat="43.6220929" lon="12.8972012"><ele>224.5</ele><time>2026-04-18T08:22:59.27Z</time></trkpt><trkpt lat="43.6220912" lon="12.8970334"><ele>225.75</ele><time>2026-04-18T08:23:00.27Z</time></trkpt><trkpt lat="43.6220916" lon="12.8968777"><ele>227.0</ele><time>2026-04-18T08:23:01.27Z</time></trkpt><trkpt lat="43.6220895" lon="12.8967175"><ele>227.0</ele><time>2026-04-18T08:23:02.27Z</time></trkpt><trkpt lat="43.6220838" lon="12.8965603"><ele>227.0</ele><time>2026-04-18T08:23:03.271Z</time></trkpt><trkpt lat="43.6220769" lon="12.8964135"><ele>227.0</ele><time>2026-04-18T08:23:04.27Z</time></trkpt><trkpt lat="43.6220586" lon="12.8962804"><ele>227.0</ele><time>2026-04-18T08:23:05.271Z</time></trkpt><trkpt lat="43.6220326" lon="12.8961575"><ele>227.0</ele><time>2026-04-18T08:23:06.27Z</time></trkpt><trkpt lat="43.6220078" lon="12.8960323"><ele>224.6</ele><time>2026-04-18T08:23:07.27Z</time></trkpt><trkpt lat="43.6219524" lon="12.8959236"><ele>222.2</ele><time>2026-04-18T08:23:08.27Z</time></trkpt><trkpt lat="43.6218732" lon="12.8958338"><ele>219.8</ele><time>2026-04-18T08:23:09.27Z</time></trkpt><trkpt lat="43.6217748" lon="12.8957661"><ele>217.4</ele><time>2026-04-18T08:23:10.271Z</time></trkpt><trkpt lat="43.621655" lon="12.8957161"><ele>215.0</ele><time>2026-04-18T08:23:11.271Z</time></trkpt><trkpt lat="43.6215295" lon="12.8956573"><ele>215.0</ele><time>2026-04-18T08:23:12.27Z</time></trkpt><trkpt lat="43.6214129" lon="12.8955863"><ele>215.0</ele><time>2026-04-18T08:23:13.27Z</time></trkpt><trkpt lat="43.6213037" lon="12.8955199"><ele>215.0</ele><time>2026-04-18T08:23:14.27Z</time></trkpt><trkpt lat="43.6211989" lon="12.8954511"><ele>215.0</ele><time>2026-04-18T08:23:15.27Z</time></trkpt><trkpt lat="43.6210907" lon="12.8953861"><ele>213.25</ele><time>2026-04-18T08:23:16.271Z</time></trkpt><trkpt lat="43.6209802" lon="12.8953203"><ele>211.5</ele><time>2026-04-18T08:23:17.27Z</time></trkpt><trkpt lat="43.6208773" lon="12.8952539"><ele>209.75</ele><time>2026-04-18T08:23:18.271Z</time></trkpt><trkpt lat="43.6207687" lon="12.8951852"><ele>208.0</ele><time>2026-04-18T08:23:19.27Z</time></trkpt><trkpt lat="43.6206589" lon="12.8951157"><ele>208.0</ele><time>2026-04-18T08:23:20.27Z</time></trkpt><trkpt lat="43.6205553" lon="12.8950316"><ele>208.0</ele><time>2026-04-18T08:23:21.271Z</time></trkpt><trkpt lat="43.6204581" lon="12.8949221"><ele>208.0</ele><time>2026-04-18T08:23:22.271Z</time></trkpt><trkpt lat="43.6203724" lon="12.8947994"><ele>208.0</ele><time>2026-04-18T08:23:23.271Z</time></trkpt><trkpt lat="43.6202947" lon="12.8946908"><ele>207.99999999999997</ele><time>2026-04-18T08:23:24.27Z</time></trkpt><trkpt lat="43.6202281" lon="12.8945962"><ele>208.0</ele><time>2026-04-18T08:23:25.27Z</time></trkpt><trkpt lat="43.620164" lon="12.8944964"><ele>208.0</ele><time>2026-04-18T08:23:26.271Z</time></trkpt><trkpt lat="43.6201092" lon="12.8943898"><ele>208.0</ele><time>2026-04-18T08:23:27.27Z</time></trkpt><trkpt lat="43.6200798" lon="12.8942841"><ele>207.99999999999997</ele><time>2026-04-18T08:23:28.27Z</time></trkpt><trkpt lat="43.6200786" lon="12.8941791"><ele>208.0</ele><time>2026-04-18T08:23:29.27Z</time></trkpt><trkpt lat="43.6200804" lon="12.8940903"><ele>208.60000000000002</ele><time>2026-04-18T08:23:30.27Z</time></trkpt><trkpt lat="43.6200289" lon="12.8939616"><ele>209.20000000000002</ele><time>2026-04-18T08:23:32.271Z</time></trkpt><trkpt lat="43.6199536" lon="12.8938944"><ele>209.8</ele><time>2026-04-18T08:23:33.27Z</time></trkpt><trkpt lat="43.6198692" lon="12.8938226"><ele>210.4</ele><time>2026-04-18T08:23:34.27Z</time></trkpt><trkpt lat="43.6197823" lon="12.8937375"><ele>211.0</ele><time>2026-04-18T08:23:35.27Z</time></trkpt><trkpt lat="43.6196934" lon="12.8936534"><ele>211.0</ele><time>2026-04-18T08:23:36.27Z</time></trkpt><trkpt lat="43.6196013" lon="12.8935686"><ele>211.0</ele><time>2026-04-18T08:23:37.27Z</time></trkpt><trkpt lat="43.6195149" lon="12.8934808"><ele>211.0</ele><time>2026-04-18T08:23:38.27Z</time></trkpt><trkpt lat="43.6194608" lon="12.8933661"><ele>211.0</ele><time>2026-04-18T08:23:39.27Z</time></trkpt><trkpt lat="43.6194246" lon="12.8932326"><ele>211.0</ele><time>2026-04-18T08:23:40.271Z</time></trkpt><trkpt lat="43.6193996" lon="12.8930753"><ele>211.25</ele><time>2026-04-18T08:23:41.271Z</time></trkpt><trkpt lat="43.6193814" lon="12.8929223"><ele>211.5</ele><time>2026-04-18T08:23:42.271Z</time></trkpt><trkpt lat="43.6193514" lon="12.8927811"><ele>211.75</ele><time>2026-04-18T08:23:43.27Z</time></trkpt><trkpt lat="43.6192941" lon="12.8926423"><ele>212.0</ele><time>2026-04-18T08:23:44.27Z</time></trkpt><trkpt lat="43.6192148" lon="12.8924958"><ele>213.25</ele><time>2026-04-18T08:23:45.27Z</time></trkpt><trkpt lat="43.6191409" lon="12.8923445"><ele>214.5</ele><time>2026-04-18T08:23:46.27Z</time></trkpt><trkpt lat="43.6190811" lon="12.8921982"><ele>215.75</ele><time>2026-04-18T08:23:47.27Z</time></trkpt><trkpt lat="43.6190206" lon="12.8920663"><ele>217.0</ele><time>2026-04-18T08:23:48.271Z</time></trkpt><trkpt lat="43.6189562" lon="12.8919584"><ele>217.0</ele><time>2026-04-18T08:23:49.27Z</time></trkpt><trkpt lat="43.6188809" lon="12.8918724"><ele>217.0</ele><time>2026-04-18T08:23:50.27Z</time></trkpt><trkpt lat="43.618776" lon="12.891791"><ele>217.0</ele><time>2026-04-18T08:23:51.27Z</time></trkpt><trkpt lat="43.6186556" lon="12.8917206"><ele>217.0</ele><time>2026-04-18T08:23:52.271Z</time></trkpt><trkpt lat="43.6185436" lon="12.8916726"><ele>219.8</ele><time>2026-04-18T08:23:53.27Z</time></trkpt><trkpt lat="43.6184357" lon="12.8916418"><ele>222.6</ele><time>2026-04-18T08:23:54.27Z</time></trkpt><trkpt lat="43.6183327" lon="12.8916233"><ele>225.40000000000003</ele><time>2026-04-18T08:23:55.27Z</time></trkpt><trkpt lat="43.61824" lon="12.8916009"><ele>228.20000000000002</ele><time>2026-04-18T08:23:56.271Z</time></trkpt><trkpt lat="43.6181474" lon="12.8915571"><ele>231.0</ele><time>2026-04-18T08:23:57.271Z</time></trkpt><trkpt lat="43.6180547" lon="12.8914733"><ele>231.0</ele><time>2026-04-18T08:23:58.27Z</time></trkpt><trkpt lat="43.6179622" lon="12.8913601"><ele>231.0</ele><time>2026-04-18T08:23:59.27Z</time></trkpt><trkpt lat="43.6178634" lon="12.8912537"><ele>231.0</ele><time>2026-04-18T08:24:00.271Z</time></trkpt><trkpt lat="43.6177598" lon="12.8911583"><ele>231.0</ele><time>2026-04-18T08:24:01.27Z</time></trkpt><trkpt lat="43.6176591" lon="12.8910648"><ele>231.5</ele><time>2026-04-18T08:24:02.271Z</time></trkpt><trkpt lat="43.617557" lon="12.8909852"><ele>232.0</ele><time>2026-04-18T08:24:03.27Z</time></trkpt><trkpt lat="43.6174543" lon="12.890915"><ele>232.5</ele><time>2026-04-18T08:24:04.271Z</time></trkpt><trkpt lat="43.6173448" lon="12.8908501"><ele>233.0</ele><time>2026-04-18T08:24:05.27Z</time></trkpt><trkpt lat="43.617236" lon="12.8907833"><ele>236.25</ele><time>2026-04-18T08:24:06.271Z</time></trkpt><trkpt lat="43.6171234" lon="12.8907091"><ele>239.5</ele><time>2026-04-18T08:24:07.271Z</time></trkpt><trkpt lat="43.6170073" lon="12.8906298"><ele>242.75</ele><time>2026-04-18T08:24:08.27Z</time></trkpt><trkpt lat="43.6168854" lon="12.8905474"><ele>246.0</ele><time>2026-04-18T08:24:09.27Z</time></trkpt><trkpt lat="43.6167622" lon="12.8904612"><ele>246.0</ele><time>2026-04-18T08:24:10.271Z</time></trkpt><trkpt lat="43.616644" lon="12.890372"><ele>246.0</ele><time>2026-04-18T08:24:11.271Z</time></trkpt><trkpt lat="43.616534" lon="12.8902892"><ele>246.0</ele><time>2026-04-18T08:24:12.27Z</time></trkpt><trkpt lat="43.616425" lon="12.8902235"><ele>246.0</ele><time>2026-04-18T08:24:13.27Z</time></trkpt><trkpt lat="43.6163165" lon="12.8901815"><ele>246.0</ele><time>2026-04-18T08:24:14.271Z</time></trkpt><trkpt lat="43.6162025" lon="12.8901509"><ele>246.00000000000003</ele><time>2026-04-18T08:24:15.27Z</time></trkpt><trkpt lat="43.6160906" lon="12.8901226"><ele>246.00000000000003</ele><time>2026-04-18T08:24:16.271Z</time></trkpt><trkpt lat="43.615982" lon="12.890107"><ele>246.0</ele><time>2026-04-18T08:24:17.271Z</time></trkpt><trkpt lat="43.6158745" lon="12.8901077"><ele>246.0</ele><time>2026-04-18T08:24:18.271Z</time></trkpt><trkpt lat="43.6157614" lon="12.8901211"><ele>246.5</ele><time>2026-04-18T08:24:19.27Z</time></trkpt><trkpt lat="43.6156512" lon="12.8901459"><ele>247.0</ele><time>2026-04-18T08:24:20.27Z</time></trkpt><trkpt lat="43.6155426" lon="12.8901792"><ele>247.5</ele><time>2026-04-18T08:24:21.271Z</time></trkpt><trkpt lat="43.6154291" lon="12.8902003"><ele>248.0</ele><time>2026-04-18T08:24:22.27Z</time></trkpt><trkpt lat="43.6153109" lon="12.8902041"><ele>249.5</ele><time>2026-04-18T08:24:23.271Z</time></trkpt><trkpt lat="43.6151902" lon="12.8901939"><ele>251.0</ele><time>2026-04-18T08:24:24.27Z</time></trkpt><trkpt lat="43.6150638" lon="12.8901573"><ele>252.5</ele><time>2026-04-18T08:24:25.27Z</time></trkpt><trkpt lat="43.6149411" lon="12.8900933"><ele>254.0</ele><time>2026-04-18T08:24:26.27Z</time></trkpt><trkpt lat="43.6148259" lon="12.890014"><ele>257.0</ele><time>2026-04-18T08:24:27.27Z</time></trkpt><trkpt lat="43.6147092" lon="12.8899278"><ele>260.0</ele><time>2026-04-18T08:24:28.271Z</time></trkpt><trkpt lat="43.6146013" lon="12.8898353"><ele>263.0</ele><time>2026-04-18T08:24:29.271Z</time></trkpt><trkpt lat="43.6144928" lon="12.8897472"><ele>266.0</ele><time>2026-04-18T08:24:30.27Z</time></trkpt><trkpt lat="43.6143846" lon="12.8896748"><ele>266.40000000000003</ele><time>2026-04-18T08:24:31.271Z</time></trkpt><trkpt lat="43.6142822" lon="12.8896088"><ele>266.8</ele><time>2026-04-18T08:24:32.271Z</time></trkpt><trkpt lat="43.6141813" lon="12.8895555"><ele>267.20000000000005</ele><time>2026-04-18T08:24:33.27Z</time></trkpt><trkpt lat="43.6140759" lon="12.8895081"><ele>267.6</ele><time>2026-04-18T08:24:34.27Z</time></trkpt><trkpt lat="43.6139671" lon="12.8894631"><ele>268.0</ele><time>2026-04-18T08:24:35.27Z</time></trkpt><trkpt lat="43.6138535" lon="12.8894185"><ele>268.0</ele><time>2026-04-18T08:24:36.27Z</time></trkpt><trkpt lat="43.6137373" lon="12.8893748"><ele>268.0</ele><time>2026-04-18T08:24:37.271Z</time></trkpt><trkpt lat="43.6136252" lon="12.8893357"><ele>268.0</ele><time>2026-04-18T08:24:38.27Z</time></trkpt><trkpt lat="43.6135106" lon="12.8893095"><ele>268.0</ele><time>2026-04-18T08:24:39.27Z</time></trkpt><trkpt lat="43.6133911" lon="12.8893084"><ele>269.75</ele><time>2026-04-18T08:24:40.27Z</time></trkpt><trkpt lat="43.6132713" lon="12.8893115"><ele>271.5</ele><time>2026-04-18T08:24:41.271Z</time></trkpt><trkpt lat="43.6131482" lon="12.8893244"><ele>273.25</ele><time>2026-04-18T08:24:42.27Z</time></trkpt><trkpt lat="43.6130219" lon="12.8893541"><ele>275.0</ele><time>2026-04-18T08:24:43.27Z</time></trkpt><trkpt lat="43.6128948" lon="12.8893988"><ele>277.5</ele><time>2026-04-18T08:24:44.271Z</time></trkpt><trkpt lat="43.6127691" lon="12.8894527"><ele>280.0</ele><time>2026-04-18T08:24:45.27Z</time></trkpt><trkpt lat="43.6126444" lon="12.889502"><ele>282.5</ele><time>2026-04-18T08:24:46.27Z</time></trkpt><trkpt lat="43.6125224" lon="12.8895427"><ele>285.0</ele><time>2026-04-18T08:24:47.271Z</time></trkpt><trkpt lat="43.6123996" lon="12.8895865"><ele>285.0</ele><time>2026-04-18T08:24:48.27Z</time></trkpt><trkpt lat="43.612276" lon="12.8896312"><ele>285.0</ele><time>2026-04-18T08:24:49.271Z</time></trkpt><trkpt lat="43.612149" lon="12.8896715"><ele>285.0</ele><time>2026-04-18T08:24:50.271Z</time></trkpt><trkpt lat="43.6120177" lon="12.8897113"><ele>285.0</ele><time>2026-04-18T08:24:51.271Z</time></trkpt><trkpt lat="43.6118788" lon="12.8897427"><ele>287.25</ele><time>2026-04-18T08:24:52.271Z</time></trkpt><trkpt lat="43.6117426" lon="12.8897698"><ele>289.5</ele><time>2026-04-18T08:24:53.27Z</time></trkpt><trkpt lat="43.6116075" lon="12.889787"><ele>291.75</ele><time>2026-04-18T08:24:54.271Z</time></trkpt><trkpt lat="43.6114659" lon="12.8897976"><ele>294.0</ele><time>2026-04-18T08:24:55.27Z</time></trkpt><trkpt lat="43.6113247" lon="12.8898023"><ele>294.0</ele><time>2026-04-18T08:24:56.27Z</time></trkpt><trkpt lat="43.6111859" lon="12.8898091"><ele>294.0</ele><time>2026-04-18T08:24:57.27Z</time></trkpt><trkpt lat="43.6110481" lon="12.889812"><ele>294.0</ele><time>2026-04-18T08:24:58.27Z</time></trkpt><trkpt lat="43.6109139" lon="12.8898146"><ele>294.0</ele><time>2026-04-18T08:24:59.271Z</time></trkpt><trkpt lat="43.610779" lon="12.8898128"><ele>297.5</ele><time>2026-04-18T08:25:00.27Z</time></trkpt><trkpt lat="43.6106475" lon="12.889805"><ele>301.0</ele><time>2026-04-18T08:25:01.271Z</time></trkpt><trkpt lat="43.6105191" lon="12.8898011"><ele>304.5</ele><time>2026-04-18T08:25:02.271Z</time></trkpt><trkpt lat="43.6103955" lon="12.889808"><ele>308.0</ele><time>2026-04-18T08:25:03.271Z</time></trkpt><trkpt lat="43.6102691" lon="12.8898171"><ele>311.25</ele><time>2026-04-18T08:25:04.27Z</time></trkpt><trkpt lat="43.610137" lon="12.889811"><ele>314.5</ele><time>2026-04-18T08:25:05.27Z</time></trkpt><trkpt lat="43.610008" lon="12.8897957"><ele>317.75</ele><time>2026-04-18T08:25:06.27Z</time></trkpt><trkpt lat="43.6098791" lon="12.889781"><ele>321.0</ele><time>2026-04-18T08:25:07.27Z</time></trkpt><trkpt lat="43.6097512" lon="12.8897626"><ele>321.0</ele><time>2026-04-18T08:25:08.27Z</time></trkpt><trkpt lat="43.6096269" lon="12.8897371"><ele>321.0</ele><time>2026-04-18T08:25:09.27Z</time></trkpt><trkpt lat="43.6094966" lon="12.8896985"><ele>321.0</ele><time>2026-04-18T08:25:10.271Z</time></trkpt><trkpt lat="43.6093646" lon="12.8896576"><ele>321.0</ele><time>2026-04-18T08:25:11.271Z</time></trkpt><trkpt lat="43.6092399" lon="12.8896141"><ele>325.25</ele><time>2026-04-18T08:25:12.271Z</time></trkpt><trkpt lat="43.6091261" lon="12.8895479"><ele>329.5</ele><time>2026-04-18T08:25:13.27Z</time></trkpt><trkpt lat="43.6090208" lon="12.8894699"><ele>333.75</ele><time>2026-04-18T08:25:14.27Z</time></trkpt><trkpt lat="43.6089181" lon="12.889391"><ele>338.0</ele><time>2026-04-18T08:25:15.27Z</time></trkpt><trkpt lat="43.608812" lon="12.8893179"><ele>337.5</ele><time>2026-04-18T08:25:16.27Z</time></trkpt><trkpt lat="43.608703" lon="12.8892447"><ele>337.0</ele><time>2026-04-18T08:25:17.27Z</time></trkpt><trkpt lat="43.6085891" lon="12.889179"><ele>336.5</ele><time>2026-04-18T08:25:18.27Z</time></trkpt><trkpt lat="43.6084804" lon="12.8891406"><ele>336.0</ele><time>2026-04-18T08:25:19.271Z</time></trkpt><trkpt lat="43.6083746" lon="12.8891137"><ele>339.20000000000005</ele><time>2026-04-18T08:25:20.27Z</time></trkpt><trkpt lat="43.6082754" lon="12.8890951"><ele>342.40000000000003</ele><time>2026-04-18T08:25:21.271Z</time></trkpt><trkpt lat="43.6082005" lon="12.8890877"><ele>345.6</ele><time>2026-04-18T08:25:22.27Z</time></trkpt><trkpt lat="43.6081055" lon="12.8890625"><ele>348.8</ele><time>2026-04-18T08:25:24.27Z</time></trkpt><trkpt lat="43.6080354" lon="12.8889134"><ele>352.0</ele><time>2026-04-18T08:25:26.27Z</time></trkpt><trkpt lat="43.6080131" lon="12.8887894"><ele>352.0</ele><time>2026-04-18T08:25:27.27Z</time></trkpt><trkpt lat="43.6079864" lon="12.8886647"><ele>352.0</ele><time>2026-04-18T08:25:28.27Z</time></trkpt><trkpt lat="43.6079474" lon="12.8885391"><ele>352.0</ele><time>2026-04-18T08:25:29.27Z</time></trkpt><trkpt lat="43.6078903" lon="12.8884092"><ele>352.0</ele><time>2026-04-18T08:25:30.27Z</time></trkpt><trkpt lat="43.6078204" lon="12.8882856"><ele>352.0</ele><time>2026-04-18T08:25:31.27Z</time></trkpt><trkpt lat="43.6077412" lon="12.8881709"><ele>353.5</ele><time>2026-04-18T08:25:32.271Z</time></trkpt><trkpt lat="43.6076524" lon="12.8880642"><ele>355.0</ele><time>2026-04-18T08:25:33.27Z</time></trkpt><trkpt lat="43.6075527" lon="12.8879673"><ele>356.5</ele><time>2026-04-18T08:25:34.27Z</time></trkpt><trkpt lat="43.6074487" lon="12.8878759"><ele>358.0</ele><time>2026-04-18T08:25:35.271Z</time></trkpt><trkpt lat="43.60735" lon="12.8877995"><ele>358.0</ele><time>2026-04-18T08:25:36.271Z</time></trkpt><trkpt lat="43.6072585" lon="12.8877417"><ele>358.0</ele><time>2026-04-18T08:25:37.27Z</time></trkpt><trkpt lat="43.6071782" lon="12.8877061"><ele>358.0</ele><time>2026-04-18T08:25:38.27Z</time></trkpt><trkpt lat="43.6070785" lon="12.8876326"><ele>358.0</ele><time>2026-04-18T08:25:40.271Z</time></trkpt><trkpt lat="43.6070068" lon="12.8875083"><ele>358.0</ele><time>2026-04-18T08:25:42.27Z</time></trkpt><trkpt lat="43.6069584" lon="12.8874273"><ele>359.59999999999997</ele><time>2026-04-18T08:25:43.27Z</time></trkpt><trkpt lat="43.6069059" lon="12.8873323"><ele>361.2</ele><time>2026-04-18T08:25:44.271Z</time></trkpt><trkpt lat="43.6068511" lon="12.8872308"><ele>362.8</ele><time>2026-04-18T08:25:45.27Z</time></trkpt><trkpt lat="43.6067945" lon="12.8871273"><ele>364.4</ele><time>2026-04-18T08:25:46.27Z</time></trkpt><trkpt lat="43.6067393" lon="12.8870269"><ele>366.0</ele><time>2026-04-18T08:25:47.27Z</time></trkpt><trkpt lat="43.6066817" lon="12.8869198"><ele>366.0</ele><time>2026-04-18T08:25:48.271Z</time></trkpt><trkpt lat="43.6066194" lon="12.8868142"><ele>366.0</ele><time>2026-04-18T08:25:49.271Z</time></trkpt><trkpt lat="43.6065559" lon="12.8867109"><ele>366.0</ele><time>2026-04-18T08:25:50.27Z</time></trkpt><trkpt lat="43.6064841" lon="12.8866021"><ele>366.0</ele><time>2026-04-18T08:25:51.271Z</time></trkpt><trkpt lat="43.6064086" lon="12.8864881"><ele>366.0</ele><time>2026-04-18T08:25:52.27Z</time></trkpt><trkpt lat="43.6063397" lon="12.88637"><ele>364.25</ele><time>2026-04-18T08:25:53.27Z</time></trkpt><trkpt lat="43.6062824" lon="12.8862241"><ele>362.5</ele><time>2026-04-18T08:25:54.27Z</time></trkpt><trkpt lat="43.6062375" lon="12.8860694"><ele>360.75</ele><time>2026-04-18T08:25:55.27Z</time></trkpt><trkpt lat="43.6061956" lon="12.8859198"><ele>359.0</ele><time>2026-04-18T08:25:56.27Z</time></trkpt><trkpt lat="43.6061543" lon="12.8857847"><ele>359.0</ele><time>2026-04-18T08:25:57.27Z</time></trkpt><trkpt lat="43.606111" lon="12.8856625"><ele>359.0</ele><time>2026-04-18T08:25:58.27Z</time></trkpt><trkpt lat="43.6060763" lon="12.885542"><ele>359.0</ele><time>2026-04-18T08:25:59.271Z</time></trkpt><trkpt lat="43.6060391" lon="12.8854177"><ele>359.0</ele><time>2026-04-18T08:26:00.27Z</time></trkpt><trkpt lat="43.6060191" lon="12.8852896"><ele>359.0</ele><time>2026-04-18T08:26:01.271Z</time></trkpt><trkpt lat="43.6060212" lon="12.88516"><ele>358.2</ele><time>2026-04-18T08:26:02.27Z</time></trkpt><trkpt lat="43.6060428" lon="12.8850326"><ele>357.4</ele><time>2026-04-18T08:26:03.27Z</time></trkpt><trkpt lat="43.6060904" lon="12.8849142"><ele>356.6</ele><time>2026-04-18T08:26:04.27Z</time></trkpt><trkpt lat="43.6061526" lon="12.8847996"><ele>355.8</ele><time>2026-04-18T08:26:05.27Z</time></trkpt><trkpt lat="43.6062276" lon="12.8847439"><ele>355.0</ele><time>2026-04-18T08:26:06.27Z</time></trkpt><trkpt lat="43.6063172" lon="12.8846802"><ele>355.25</ele><time>2026-04-18T08:26:07.271Z</time></trkpt><trkpt lat="43.6064042" lon="12.8846011"><ele>355.5</ele><time>2026-04-18T08:26:08.27Z</time></trkpt><trkpt lat="43.6064901" lon="12.8844773"><ele>355.75</ele><time>2026-04-18T08:26:09.27Z</time></trkpt><trkpt lat="43.6065705" lon="12.8843378"><ele>356.0</ele><time>2026-04-18T08:26:10.27Z</time></trkpt><trkpt lat="43.6066508" lon="12.8842084"><ele>356.0</ele><time>2026-04-18T08:26:11.271Z</time></trkpt><trkpt lat="43.6067198" lon="12.8841052"><ele>356.0</ele><time>2026-04-18T08:26:12.27Z</time></trkpt><trkpt lat="43.606777" lon="12.8840219"><ele>356.0</ele><time>2026-04-18T08:26:13.27Z</time></trkpt><trkpt lat="43.6068277" lon="12.883937"><ele>356.0</ele><time>2026-04-18T08:26:14.271Z</time></trkpt><trkpt lat="43.6068701" lon="12.883843"><ele>356.0</ele><time>2026-04-18T08:26:15.27Z</time></trkpt><trkpt lat="43.6068988" lon="12.8837169"><ele>356.0</ele><time>2026-04-18T08:26:16.271Z</time></trkpt><trkpt lat="43.6069154" lon="12.8835612"><ele>356.5</ele><time>2026-04-18T08:26:17.27Z</time></trkpt><trkpt lat="43.606926" lon="12.8834027"><ele>357.0</ele><time>2026-04-18T08:26:18.27Z</time></trkpt><trkpt lat="43.6069357" lon="12.8832618"><ele>357.5</ele><time>2026-04-18T08:26:19.27Z</time></trkpt><trkpt lat="43.6069633" lon="12.8831174"><ele>358.0</ele><time>2026-04-18T08:26:20.271Z</time></trkpt><trkpt lat="43.6070094" lon="12.8829558"><ele>354.0</ele><time>2026-04-18T08:26:21.27Z</time></trkpt><trkpt lat="43.6070568" lon="12.8827918"><ele>350.0</ele><time>2026-04-18T08:26:22.27Z</time></trkpt><trkpt lat="43.6070968" lon="12.8826293"><ele>346.0</ele><time>2026-04-18T08:26:23.27Z</time></trkpt><trkpt lat="43.607131" lon="12.8824854"><ele>342.0</ele><time>2026-04-18T08:26:24.27Z</time></trkpt><trkpt lat="43.6071586" lon="12.8823532"><ele>342.0</ele><time>2026-04-18T08:26:25.27Z</time></trkpt><trkpt lat="43.6071922" lon="12.8822413"><ele>342.0</ele><time>2026-04-18T08:26:26.27Z</time></trkpt><trkpt lat="43.6072547" lon="12.882171"><ele>342.0</ele><time>2026-04-18T08:26:27.271Z</time></trkpt><trkpt lat="43.6073469" lon="12.8821352"><ele>342.0</ele><time>2026-04-18T08:26:28.271Z</time></trkpt><trkpt lat="43.6074581" lon="12.8821038"><ele>342.0</ele><time>2026-04-18T08:26:29.27Z</time></trkpt><trkpt lat="43.6075787" lon="12.8820567"><ele>342.0</ele><time>2026-04-18T08:26:30.271Z</time></trkpt><trkpt lat="43.6077056" lon="12.8819872"><ele>342.0</ele><time>2026-04-18T08:26:31.27Z</time></trkpt><trkpt lat="43.6078336" lon="12.8819157"><ele>342.0</ele><time>2026-04-18T08:26:32.27Z</time></trkpt><trkpt lat="43.6079573" lon="12.8818463"><ele>342.0</ele><time>2026-04-18T08:26:33.271Z</time></trkpt><trkpt lat="43.6080833" lon="12.8817603"><ele>342.0</ele><time>2026-04-18T08:26:34.271Z</time></trkpt><trkpt lat="43.6082034" lon="12.8816874"><ele>342.0</ele><time>2026-04-18T08:26:35.271Z</time></trkpt><trkpt lat="43.6083194" lon="12.8816202"><ele>342.0</ele><time>2026-04-18T08:26:36.271Z</time></trkpt><trkpt lat="43.6084369" lon="12.8815494"><ele>342.0</ele><time>2026-04-18T08:26:37.27Z</time></trkpt><trkpt lat="43.6085551" lon="12.8814822"><ele>338.0</ele><time>2026-04-18T08:26:38.27Z</time></trkpt><trkpt lat="43.6086743" lon="12.881414"><ele>334.0</ele><time>2026-04-18T08:26:39.27Z</time></trkpt><trkpt lat="43.6087877" lon="12.8813382"><ele>330.0</ele><time>2026-04-18T08:26:40.27Z</time></trkpt><trkpt lat="43.6088962" lon="12.8812578"><ele>326.0</ele><time>2026-04-18T08:26:41.27Z</time></trkpt><trkpt lat="43.6090029" lon="12.8811836"><ele>326.0</ele><time>2026-04-18T08:26:42.271Z</time></trkpt><trkpt lat="43.6090977" lon="12.8811121"><ele>326.0</ele><time>2026-04-18T08:26:43.271Z</time></trkpt><trkpt lat="43.6091839" lon="12.8810247"><ele>326.0</ele><time>2026-04-18T08:26:44.271Z</time></trkpt><trkpt lat="43.6092477" lon="12.8809067"><ele>326.0</ele><time>2026-04-18T08:26:45.271Z</time></trkpt><trkpt lat="43.6092971" lon="12.8807753"><ele>326.0</ele><time>2026-04-18T08:26:46.271Z</time></trkpt><trkpt lat="43.6093461" lon="12.8806405"><ele>326.25</ele><time>2026-04-18T08:26:47.27Z</time></trkpt><trkpt lat="43.6094206" lon="12.88051"><ele>326.5</ele><time>2026-04-18T08:26:48.27Z</time></trkpt><trkpt lat="43.6095213" lon="12.8804037"><ele>326.75</ele><time>2026-04-18T08:26:49.271Z</time></trkpt><trkpt lat="43.6096341" lon="12.8803335"><ele>327.0</ele><time>2026-04-18T08:26:50.27Z</time></trkpt><trkpt lat="43.6097425" lon="12.8802767"><ele>327.0</ele><time>2026-04-18T08:26:51.27Z</time></trkpt><trkpt lat="43.6098456" lon="12.8802009"><ele>327.0</ele><time>2026-04-18T08:26:52.271Z</time></trkpt><trkpt lat="43.6099512" lon="12.8801144"><ele>327.0</ele><time>2026-04-18T08:26:53.27Z</time></trkpt><trkpt lat="43.6100602" lon="12.8800282"><ele>327.0</ele><time>2026-04-18T08:26:54.271Z</time></trkpt><trkpt lat="43.6101625" lon="12.8799436"><ele>330.0</ele><time>2026-04-18T08:26:55.27Z</time></trkpt><trkpt lat="43.6102496" lon="12.8798557"><ele>333.0</ele><time>2026-04-18T08:26:56.27Z</time></trkpt><trkpt lat="43.6103347" lon="12.8797541"><ele>336.0</ele><time>2026-04-18T08:26:57.27Z</time></trkpt><trkpt lat="43.6104144" lon="12.879645"><ele>339.0</ele><time>2026-04-18T08:26:58.27Z</time></trkpt><trkpt lat="43.6104922" lon="12.8795428"><ele>342.0</ele><time>2026-04-18T08:26:59.271Z</time></trkpt><trkpt lat="43.6105662" lon="12.8794575"><ele>342.0</ele><time>2026-04-18T08:27:00.271Z</time></trkpt><trkpt lat="43.6106388" lon="12.8794078"><ele>342.0</ele><time>2026-04-18T08:27:01.271Z</time></trkpt><trkpt lat="43.6107155" lon="12.8794117"><ele>342.0</ele><time>2026-04-18T08:27:02.271Z</time></trkpt><trkpt lat="43.6107815" lon="12.8794633"><ele>342.0</ele><time>2026-04-18T08:27:03.27Z</time></trkpt><trkpt lat="43.6108419" lon="12.879539"><ele>342.0</ele><time>2026-04-18T08:27:04.27Z</time></trkpt><trkpt lat="43.6108975" lon="12.8796147"><ele>342.0</ele><time>2026-04-18T08:27:05.27Z</time></trkpt><trkpt lat="43.6109685" lon="12.8796563"><ele>342.0</ele><time>2026-04-18T08:27:06.271Z</time></trkpt><trkpt lat="43.6110556" lon="12.8796704"><ele>342.0</ele><time>2026-04-18T08:27:07.27Z</time></trkpt><trkpt lat="43.611147" lon="12.8796697"><ele>342.0</ele><time>2026-04-18T08:27:08.27Z</time></trkpt><trkpt lat="43.6112474" lon="12.8796462"><ele>342.0</ele><time>2026-04-18T08:27:09.27Z</time></trkpt><trkpt lat="43.6113416" lon="12.8796149"><ele>342.0</ele><time>2026-04-18T08:27:10.27Z</time></trkpt><trkpt lat="43.6114207" lon="12.8795713"><ele>341.3333333333333</ele><time>2026-04-18T08:27:11.27Z</time></trkpt><trkpt lat="43.6114791" lon="12.8795021"><ele>340.6666666666667</ele><time>2026-04-18T08:27:12.27Z</time></trkpt><trkpt lat="43.6115358" lon="12.8794081"><ele>340.0</ele><time>2026-04-18T08:27:13.271Z</time></trkpt><trkpt lat="43.6115964" lon="12.8793128"><ele>339.33333333333337</ele><time>2026-04-18T08:27:14.271Z</time></trkpt><trkpt lat="43.6116616" lon="12.8792209"><ele>338.6666666666667</ele><time>2026-04-18T08:27:15.271Z</time></trkpt><trkpt lat="43.6117289" lon="12.8791413"><ele>338.0</ele><time>2026-04-18T08:27:16.271Z</time></trkpt><trkpt lat="43.6118011" lon="12.8790781"><ele>340.59999999999997</ele><time>2026-04-18T08:27:17.27Z</time></trkpt><trkpt lat="43.6118843" lon="12.8790457"><ele>343.2</ele><time>2026-04-18T08:27:18.271Z</time></trkpt><trkpt lat="43.6119791" lon="12.8790519"><ele>345.8</ele><time>2026-04-18T08:27:19.27Z</time></trkpt><trkpt lat="43.6120709" lon="12.8791128"><ele>348.4</ele><time>2026-04-18T08:27:20.27Z</time></trkpt><trkpt lat="43.6121602" lon="12.8791829"><ele>351.0</ele><time>2026-04-18T08:27:21.27Z</time></trkpt><trkpt lat="43.6122463" lon="12.8792469"><ele>347.6</ele><time>2026-04-18T08:27:22.27Z</time></trkpt><trkpt lat="43.6123367" lon="12.8793018"><ele>344.20000000000005</ele><time>2026-04-18T08:27:23.27Z</time></trkpt><trkpt lat="43.6124364" lon="12.8793441"><ele>340.79999999999995</ele><time>2026-04-18T08:27:24.27Z</time></trkpt><trkpt lat="43.6125377" lon="12.879377"><ele>337.4</ele><time>2026-04-18T08:27:25.271Z</time></trkpt><trkpt lat="43.6126427" lon="12.8794119"><ele>334.0</ele><time>2026-04-18T08:27:26.27Z</time></trkpt><trkpt lat="43.6127482" lon="12.8794588"><ele>334.0</ele><time>2026-04-18T08:27:27.27Z</time></trkpt><trkpt lat="43.6128413" lon="12.8795062"><ele>334.0</ele><time>2026-04-18T08:27:28.271Z</time></trkpt><trkpt lat="43.6129273" lon="12.8795494"><ele>334.0</ele><time>2026-04-18T08:27:29.271Z</time></trkpt><trkpt lat="43.6130087" lon="12.8795816"><ele>334.0</ele><time>2026-04-18T08:27:30.27Z</time></trkpt><trkpt lat="43.613092" lon="12.8795868"><ele>334.0</ele><time>2026-04-18T08:27:31.27Z</time></trkpt><trkpt lat="43.6131751" lon="12.879566"><ele>334.0</ele><time>2026-04-18T08:27:32.27Z</time></trkpt><trkpt lat="43.6132724" lon="12.8795184"><ele>334.0</ele><time>2026-04-18T08:27:33.27Z</time></trkpt><trkpt lat="43.6133858" lon="12.8794468"><ele>334.0</ele><time>2026-04-18T08:27:34.27Z</time></trkpt><trkpt lat="43.6134942" lon="12.8793727"><ele>334.0</ele><time>2026-04-18T08:27:35.27Z</time></trkpt><trkpt lat="43.6136003" lon="12.8792975"><ele>334.0</ele><time>2026-04-18T08:27:36.27Z</time></trkpt><trkpt lat="43.6137031" lon="12.8792233"><ele>333.5</ele><time>2026-04-18T08:27:37.27Z</time></trkpt><trkpt lat="43.6138064" lon="12.8791484"><ele>333.0</ele><time>2026-04-18T08:27:38.27Z</time></trkpt><trkpt lat="43.6139123" lon="12.8790711"><ele>332.5</ele><time>2026-04-18T08:27:39.271Z</time></trkpt><trkpt lat="43.6140152" lon="12.8789919"><ele>332.0</ele><time>2026-04-18T08:27:40.27Z</time></trkpt><trkpt lat="43.6141129" lon="12.8789174"><ele>332.0</ele><time>2026-04-18T08:27:41.27Z</time></trkpt><trkpt lat="43.6142126" lon="12.8788391"><ele>332.0</ele><time>2026-04-18T08:27:42.271Z</time></trkpt><trkpt lat="43.6143106" lon="12.8787479"><ele>332.0</ele><time>2026-04-18T08:27:43.27Z</time></trkpt><trkpt lat="43.6144056" lon="12.8786477"><ele>332.0</ele><time>2026-04-18T08:27:44.271Z</time></trkpt><trkpt lat="43.6145031" lon="12.8785501"><ele>329.25</ele><time>2026-04-18T08:27:45.271Z</time></trkpt><trkpt lat="43.6146012" lon="12.8784511"><ele>326.5</ele><time>2026-04-18T08:27:46.27Z</time></trkpt><trkpt lat="43.6146971" lon="12.8783585"><ele>323.75</ele><time>2026-04-18T08:27:47.27Z</time></trkpt><trkpt lat="43.614789" lon="12.87827"><ele>321.0</ele><time>2026-04-18T08:27:48.27Z</time></trkpt><trkpt lat="43.6148786" lon="12.878165"><ele>321.0</ele><time>2026-04-18T08:27:49.27Z</time></trkpt><trkpt lat="43.6149592" lon="12.878048"><ele>321.0</ele><time>2026-04-18T08:27:50.27Z</time></trkpt><trkpt lat="43.6150328" lon="12.8779306"><ele>321.0</ele><time>2026-04-18T08:27:51.27Z</time></trkpt><trkpt lat="43.6150973" lon="12.8778005"><ele>321.0</ele><time>2026-04-18T08:27:52.27Z</time></trkpt><trkpt lat="43.61515" lon="12.8776539"><ele>319.25</ele><time>2026-04-18T08:27:53.27Z</time></trkpt><trkpt lat="43.6151927" lon="12.8774905"><ele>317.5</ele><time>2026-04-18T08:27:54.271Z</time></trkpt><trkpt lat="43.6152349" lon="12.8773227"><ele>315.75</ele><time>2026-04-18T08:27:55.27Z</time></trkpt><trkpt lat="43.6152829" lon="12.8771633"><ele>314.0</ele><time>2026-04-18T08:27:56.27Z</time></trkpt><trkpt lat="43.6153352" lon="12.8770164"><ele>314.0</ele><time>2026-04-18T08:27:57.27Z</time></trkpt><trkpt lat="43.6153953" lon="12.8768802"><ele>314.0</ele><time>2026-04-18T08:27:58.27Z</time></trkpt><trkpt lat="43.6154492" lon="12.8767383"><ele>314.0</ele><time>2026-04-18T08:27:59.271Z</time></trkpt><trkpt lat="43.6154968" lon="12.8765885"><ele>314.0</ele><time>2026-04-18T08:28:00.27Z</time></trkpt><trkpt lat="43.6155433" lon="12.8764336"><ele>316.75</ele><time>2026-04-18T08:28:01.27Z</time></trkpt><trkpt lat="43.6156016" lon="12.8762839"><ele>319.5</ele><time>2026-04-18T08:28:02.271Z</time></trkpt><trkpt lat="43.6156725" lon="12.8761476"><ele>322.25</ele><time>2026-04-18T08:28:03.271Z</time></trkpt><trkpt lat="43.6157549" lon="12.8760253"><ele>325.0</ele><time>2026-04-18T08:28:04.27Z</time></trkpt><trkpt lat="43.6158371" lon="12.8759273"><ele>326.5</ele><time>2026-04-18T08:28:05.27Z</time></trkpt><trkpt lat="43.6159142" lon="12.8758471"><ele>328.0</ele><time>2026-04-18T08:28:06.27Z</time></trkpt><trkpt lat="43.6159565" lon="12.8757602"><ele>329.5</ele><time>2026-04-18T08:28:07.271Z</time></trkpt><trkpt lat="43.6159554" lon="12.8756649"><ele>331.0</ele><time>2026-04-18T08:28:08.271Z</time></trkpt><trkpt lat="43.6159273" lon="12.875572"><ele>332.5</ele><time>2026-04-18T08:28:09.271Z</time></trkpt><trkpt lat="43.615872" lon="12.8754676"><ele>334.0</ele><time>2026-04-18T08:28:10.27Z</time></trkpt><trkpt lat="43.615795" lon="12.8753535"><ele>334.0</ele><time>2026-04-18T08:28:11.271Z</time></trkpt><trkpt lat="43.6157067" lon="12.8752294"><ele>334.0</ele><time>2026-04-18T08:28:12.27Z</time></trkpt><trkpt lat="43.6156195" lon="12.8751118"><ele>334.0</ele><time>2026-04-18T08:28:13.27Z</time></trkpt><trkpt lat="43.6155383" lon="12.8750068"><ele>334.0</ele><time>2026-04-18T08:28:14.27Z</time></trkpt><trkpt lat="43.6154541" lon="12.8749189"><ele>336.4</ele><time>2026-04-18T08:28:15.27Z</time></trkpt><trkpt lat="43.6153715" lon="12.8748464"><ele>338.79999999999995</ele><time>2026-04-18T08:28:16.27Z</time></trkpt><trkpt lat="43.6152817" lon="12.8747889"><ele>341.20000000000005</ele><time>2026-04-18T08:28:17.27Z</time></trkpt><trkpt lat="43.6151812" lon="12.8747471"><ele>343.6</ele><time>2026-04-18T08:28:18.27Z</time></trkpt><trkpt lat="43.6150694" lon="12.874709"><ele>346.0</ele><time>2026-04-18T08:28:19.271Z</time></trkpt><trkpt lat="43.6149636" lon="12.8746774"><ele>346.0</ele><time>2026-04-18T08:28:20.27Z</time></trkpt><trkpt lat="43.6148684" lon="12.8746322"><ele>346.0</ele><time>2026-04-18T08:28:21.271Z</time></trkpt><trkpt lat="43.6147843" lon="12.8745732"><ele>346.0</ele><time>2026-04-18T08:28:22.271Z</time></trkpt><trkpt lat="43.6146963" lon="12.8745231"><ele>346.0</ele><time>2026-04-18T08:28:23.271Z</time></trkpt><trkpt lat="43.6146" lon="12.8744876"><ele>346.0</ele><time>2026-04-18T08:28:24.271Z</time></trkpt><trkpt lat="43.6145045" lon="12.874461"><ele>349.4</ele><time>2026-04-18T08:28:25.271Z</time></trkpt><trkpt lat="43.6144016" lon="12.874448"><ele>352.8</ele><time>2026-04-18T08:28:26.271Z</time></trkpt><trkpt lat="43.6143042" lon="12.8744401"><ele>356.2</ele><time>2026-04-18T08:28:27.27Z</time></trkpt><trkpt lat="43.6142181" lon="12.8744192"><ele>359.59999999999997</ele><time>2026-04-18T08:28:28.27Z</time></trkpt><trkpt lat="43.6141203" lon="12.8744324"><ele>363.0</ele><time>2026-04-18T08:28:29.271Z</time></trkpt><trkpt lat="43.614002" lon="12.8744562"><ele>363.0</ele><time>2026-04-18T08:28:30.271Z</time></trkpt><trkpt lat="43.6138799" lon="12.8744549"><ele>363.0</ele><time>2026-04-18T08:28:31.271Z</time></trkpt><trkpt lat="43.613778" lon="12.8744556"><ele>363.0</ele><time>2026-04-18T08:28:32.27Z</time></trkpt><trkpt lat="43.6136748" lon="12.8744688"><ele>363.0</ele><time>2026-04-18T08:28:33.27Z</time></trkpt><trkpt lat="43.6135691" lon="12.8745101"><ele>363.0</ele><time>2026-04-18T08:28:34.27Z</time></trkpt><trkpt lat="43.6134677" lon="12.8745537"><ele>365.4</ele><time>2026-04-18T08:28:35.271Z</time></trkpt><trkpt lat="43.6133743" lon="12.8745957"><ele>367.79999999999995</ele><time>2026-04-18T08:28:36.271Z</time></trkpt><trkpt lat="43.6132839" lon="12.8746134"><ele>370.2</ele><time>2026-04-18T08:28:37.27Z</time></trkpt><trkpt lat="43.6131868" lon="12.8745858"><ele>372.6</ele><time>2026-04-18T08:28:38.271Z</time></trkpt><trkpt lat="43.6130915" lon="12.8745421"><ele>375.0</ele><time>2026-04-18T08:28:39.271Z</time></trkpt><trkpt lat="43.6129884" lon="12.8744895"><ele>375.0</ele><time>2026-04-18T08:28:40.27Z</time></trkpt><trkpt lat="43.6128861" lon="12.8744296"><ele>375.0</ele><time>2026-04-18T08:28:41.27Z</time></trkpt><trkpt lat="43.612792" lon="12.8743747"><ele>375.0</ele><time>2026-04-18T08:28:42.27Z</time></trkpt><trkpt lat="43.6127028" lon="12.8743269"><ele>375.0</ele><time>2026-04-18T08:28:43.27Z</time></trkpt><trkpt lat="43.6126222" lon="12.8742787"><ele>375.0</ele><time>2026-04-18T08:28:44.27Z</time></trkpt><trkpt lat="43.6125442" lon="12.8742436"><ele>372.25</ele><time>2026-04-18T08:28:45.271Z</time></trkpt><trkpt lat="43.6124574" lon="12.8742121"><ele>369.5</ele><time>2026-04-18T08:28:46.27Z</time></trkpt><trkpt lat="43.6123578" lon="12.8742025"><ele>366.75</ele><time>2026-04-18T08:28:47.271Z</time></trkpt><trkpt lat="43.6122151" lon="12.8742225"><ele>364.0</ele><time>2026-04-18T08:28:48.271Z</time></trkpt><trkpt lat="43.612082" lon="12.8742485"><ele>367.6</ele><time>2026-04-18T08:28:49.27Z</time></trkpt><trkpt lat="43.6119629" lon="12.8742624"><ele>371.2</ele><time>2026-04-18T08:28:50.271Z</time></trkpt><trkpt lat="43.6118574" lon="12.874271"><ele>374.8</ele><time>2026-04-18T08:28:51.271Z</time></trkpt><trkpt lat="43.6117635" lon="12.8742726"><ele>378.40000000000003</ele><time>2026-04-18T08:28:52.27Z</time></trkpt><trkpt lat="43.6116718" lon="12.8742681"><ele>382.0</ele><time>2026-04-18T08:28:53.27Z</time></trkpt><trkpt lat="43.6115739" lon="12.8742542"><ele>382.0</ele><time>2026-04-18T08:28:54.27Z</time></trkpt><trkpt lat="43.6114766" lon="12.8742291"><ele>382.0</ele><time>2026-04-18T08:28:55.271Z</time></trkpt><trkpt lat="43.6113898" lon="12.8742003"><ele>382.0</ele><time>2026-04-18T08:28:56.27Z</time></trkpt><trkpt lat="43.6113061" lon="12.8741538"><ele>382.0</ele><time>2026-04-18T08:28:57.27Z</time></trkpt><trkpt lat="43.6112221" lon="12.8741074"><ele>382.0</ele><time>2026-04-18T08:28:58.271Z</time></trkpt><trkpt lat="43.611138" lon="12.8740208"><ele>386.8</ele><time>2026-04-18T08:28:59.271Z</time></trkpt><trkpt lat="43.6110708" lon="12.8739249"><ele>391.6</ele><time>2026-04-18T08:29:00.27Z</time></trkpt><trkpt lat="43.6110388" lon="12.8738123"><ele>396.40000000000003</ele><time>2026-04-18T08:29:01.271Z</time></trkpt><trkpt lat="43.6110358" lon="12.8736955"><ele>401.20000000000005</ele><time>2026-04-18T08:29:02.271Z</time></trkpt><trkpt lat="43.6110657" lon="12.8735761"><ele>406.0</ele><time>2026-04-18T08:29:03.27Z</time></trkpt><trkpt lat="43.6111144" lon="12.8734504"><ele>403.4</ele><time>2026-04-18T08:29:04.271Z</time></trkpt><trkpt lat="43.6111552" lon="12.8733227"><ele>400.8</ele><time>2026-04-18T08:29:05.27Z</time></trkpt><trkpt lat="43.6111815" lon="12.8731801"><ele>398.2</ele><time>2026-04-18T08:29:06.27Z</time></trkpt><trkpt lat="43.6111748" lon="12.8730232"><ele>395.59999999999997</ele><time>2026-04-18T08:29:07.27Z</time></trkpt><trkpt lat="43.6111482" lon="12.8728634"><ele>393.0</ele><time>2026-04-18T08:29:08.27Z</time></trkpt><trkpt lat="43.6111109" lon="12.8727202"><ele>392.8333333333333</ele><time>2026-04-18T08:29:09.27Z</time></trkpt><trkpt lat="43.611072" lon="12.8725994"><ele>392.66666666666663</ele><time>2026-04-18T08:29:10.27Z</time></trkpt><trkpt lat="43.6110391" lon="12.8724829"><ele>392.5</ele><time>2026-04-18T08:29:11.27Z</time></trkpt><trkpt lat="43.6110139" lon="12.8723736"><ele>392.3333333333333</ele><time>2026-04-18T08:29:12.271Z</time></trkpt><trkpt lat="43.6110108" lon="12.8722578"><ele>392.16666666666663</ele><time>2026-04-18T08:29:13.27Z</time></trkpt><trkpt lat="43.6110417" lon="12.8721524"><ele>392.0</ele><time>2026-04-18T08:29:14.27Z</time></trkpt><trkpt lat="43.6111138" lon="12.872053"><ele>390.5</ele><time>2026-04-18T08:29:15.271Z</time></trkpt><trkpt lat="43.6112032" lon="12.8719386"><ele>389.0</ele><time>2026-04-18T08:29:16.27Z</time></trkpt><trkpt lat="43.6112832" lon="12.8718157"><ele>387.5</ele><time>2026-04-18T08:29:17.271Z</time></trkpt><trkpt lat="43.6113505" lon="12.8717027"><ele>386.0</ele><time>2026-04-18T08:29:18.27Z</time></trkpt><trkpt lat="43.6114051" lon="12.8715828"><ele>386.0</ele><time>2026-04-18T08:29:19.27Z</time></trkpt><trkpt lat="43.6114436" lon="12.8714455"><ele>386.0</ele><time>2026-04-18T08:29:20.27Z</time></trkpt><trkpt lat="43.6114643" lon="12.8712973"><ele>386.0</ele><time>2026-04-18T08:29:21.27Z</time></trkpt><trkpt lat="43.6114545" lon="12.8711391"><ele>386.0</ele><time>2026-04-18T08:29:22.27Z</time></trkpt><trkpt lat="43.6114256" lon="12.8709923"><ele>386.0</ele><time>2026-04-18T08:29:23.271Z</time></trkpt><trkpt lat="43.61138" lon="12.8708656"><ele>387.75</ele><time>2026-04-18T08:29:24.27Z</time></trkpt><trkpt lat="43.611304" lon="12.8707562"><ele>389.5</ele><time>2026-04-18T08:29:25.271Z</time></trkpt><trkpt lat="43.6112038" lon="12.8706433"><ele>391.25</ele><time>2026-04-18T08:29:26.27Z</time></trkpt><trkpt lat="43.6110997" lon="12.8705306"><ele>393.0</ele><time>2026-04-18T08:29:27.27Z</time></trkpt><trkpt lat="43.6110039" lon="12.8704205"><ele>393.0</ele><time>2026-04-18T08:29:28.271Z</time></trkpt><trkpt lat="43.6109178" lon="12.8703043"><ele>393.0</ele><time>2026-04-18T08:29:29.27Z</time></trkpt><trkpt lat="43.6108398" lon="12.8701815"><ele>393.0</ele><time>2026-04-18T08:29:30.27Z</time></trkpt><trkpt lat="43.6107603" lon="12.8700523"><ele>393.0</ele><time>2026-04-18T08:29:31.271Z</time></trkpt><trkpt lat="43.610684" lon="12.8699229"><ele>395.79999999999995</ele><time>2026-04-18T08:29:32.27Z</time></trkpt><trkpt lat="43.6106101" lon="12.8698021"><ele>398.6</ele><time>2026-04-18T08:29:33.271Z</time></trkpt><trkpt lat="43.6105438" lon="12.8696884"><ele>401.4</ele><time>2026-04-18T08:29:34.27Z</time></trkpt><trkpt lat="43.6104722" lon="12.8695774"><ele>404.20000000000005</ele><time>2026-04-18T08:29:35.27Z</time></trkpt><trkpt lat="43.6103995" lon="12.869474"><ele>407.0</ele><time>2026-04-18T08:29:36.27Z</time></trkpt><trkpt lat="43.6103343" lon="12.8693658"><ele>407.6</ele><time>2026-04-18T08:29:37.27Z</time></trkpt><trkpt lat="43.6102762" lon="12.8692493"><ele>408.20000000000005</ele><time>2026-04-18T08:29:38.27Z</time></trkpt><trkpt lat="43.6102214" lon="12.869124"><ele>408.8</ele><time>2026-04-18T08:29:39.27Z</time></trkpt><trkpt lat="43.6101679" lon="12.8689958"><ele>409.4</ele><time>2026-04-18T08:29:40.27Z</time></trkpt><trkpt lat="43.6101084" lon="12.8688594"><ele>410.0</ele><time>2026-04-18T08:29:41.27Z</time></trkpt><trkpt lat="43.6100588" lon="12.8686995"><ele>410.0</ele><time>2026-04-18T08:29:42.27Z</time></trkpt><trkpt lat="43.6100122" lon="12.8685473"><ele>410.0</ele><time>2026-04-18T08:29:43.271Z</time></trkpt><trkpt lat="43.6099748" lon="12.8683843"><ele>410.0</ele><time>2026-04-18T08:29:44.271Z</time></trkpt><trkpt lat="43.6099392" lon="12.8682207"><ele>410.0</ele><time>2026-04-18T08:29:45.27Z</time></trkpt><trkpt lat="43.6099111" lon="12.8680714"><ele>412.0</ele><time>2026-04-18T08:29:46.271Z</time></trkpt><trkpt lat="43.6098975" lon="12.8679271"><ele>414.0</ele><time>2026-04-18T08:29:47.27Z</time></trkpt><trkpt lat="43.6098966" lon="12.8677818"><ele>416.0</ele><time>2026-04-18T08:29:48.271Z</time></trkpt><trkpt lat="43.6098953" lon="12.8676227"><ele>418.0</ele><time>2026-04-18T08:29:49.27Z</time></trkpt><trkpt lat="43.6099068" lon="12.8674667"><ele>420.0</ele><time>2026-04-18T08:29:50.271Z</time></trkpt><trkpt lat="43.6099273" lon="12.8673045"><ele>420.2</ele><time>2026-04-18T08:29:51.27Z</time></trkpt><trkpt lat="43.6099457" lon="12.8671477"><ele>420.4</ele><time>2026-04-18T08:29:52.27Z</time></trkpt><trkpt lat="43.6099634" lon="12.8669996"><ele>420.6</ele><time>2026-04-18T08:29:53.27Z</time></trkpt><trkpt lat="43.609965" lon="12.8668539"><ele>420.8</ele><time>2026-04-18T08:29:54.271Z</time></trkpt><trkpt lat="43.6099456" lon="12.8667091"><ele>421.0</ele><time>2026-04-18T08:29:55.271Z</time></trkpt><trkpt lat="43.6099093" lon="12.8665685"><ele>420.25</ele><time>2026-04-18T08:29:56.27Z</time></trkpt><trkpt lat="43.6098753" lon="12.8664289"><ele>419.5</ele><time>2026-04-18T08:29:57.27Z</time></trkpt><trkpt lat="43.6098596" lon="12.8662786"><ele>418.75</ele><time>2026-04-18T08:29:58.27Z</time></trkpt><trkpt lat="43.6098692" lon="12.8661181"><ele>418.0</ele><time>2026-04-18T08:29:59.27Z</time></trkpt><trkpt lat="43.6098842" lon="12.8659575"><ele>417.59999999999997</ele><time>2026-04-18T08:30:00.271Z</time></trkpt><trkpt lat="43.6098928" lon="12.8658023"><ele>417.2</ele><time>2026-04-18T08:30:01.27Z</time></trkpt><trkpt lat="43.6099021" lon="12.8656482"><ele>416.8</ele><time>2026-04-18T08:30:02.271Z</time></trkpt><trkpt lat="43.6099143" lon="12.8654972"><ele>416.4</ele><time>2026-04-18T08:30:03.27Z</time></trkpt><trkpt lat="43.6099266" lon="12.8653508"><ele>416.0</ele><time>2026-04-18T08:30:04.271Z</time></trkpt><trkpt lat="43.6099468" lon="12.8652143"><ele>415.8</ele><time>2026-04-18T08:30:05.271Z</time></trkpt><trkpt lat="43.6099833" lon="12.8650797"><ele>415.6</ele><time>2026-04-18T08:30:06.27Z</time></trkpt><trkpt lat="43.6100382" lon="12.8649478"><ele>415.4</ele><time>2026-04-18T08:30:07.27Z</time></trkpt><trkpt lat="43.6101116" lon="12.8648376"><ele>415.2</ele><time>2026-04-18T08:30:08.27Z</time></trkpt><trkpt lat="43.6101867" lon="12.8647369"><ele>415.0</ele><time>2026-04-18T08:30:09.271Z</time></trkpt><trkpt lat="43.6102483" lon="12.8646337"><ele>415.0</ele><time>2026-04-18T08:30:10.27Z</time></trkpt><trkpt lat="43.6102986" lon="12.8645112"><ele>415.0</ele><time>2026-04-18T08:30:11.271Z</time></trkpt><trkpt lat="43.6103372" lon="12.8643616"><ele>415.0</ele><time>2026-04-18T08:30:12.271Z</time></trkpt><trkpt lat="43.6103703" lon="12.8641878"><ele>415.0</ele><time>2026-04-18T08:30:13.27Z</time></trkpt><trkpt lat="43.6103936" lon="12.864019"><ele>411.0</ele><time>2026-04-18T08:30:14.271Z</time></trkpt><trkpt lat="43.6104119" lon="12.8638653"><ele>407.0</ele><time>2026-04-18T08:30:15.271Z</time></trkpt><trkpt lat="43.6104214" lon="12.863701"><ele>403.0</ele><time>2026-04-18T08:30:16.271Z</time></trkpt><trkpt lat="43.6104178" lon="12.8635319"><ele>399.0</ele><time>2026-04-18T08:30:17.27Z</time></trkpt><trkpt lat="43.6104029" lon="12.8633747"><ele>398.4</ele><time>2026-04-18T08:30:18.271Z</time></trkpt><trkpt lat="43.6103992" lon="12.8632309"><ele>397.79999999999995</ele><time>2026-04-18T08:30:19.271Z</time></trkpt><trkpt lat="43.610424" lon="12.8630996"><ele>397.20000000000005</ele><time>2026-04-18T08:30:20.27Z</time></trkpt><trkpt lat="43.6104803" lon="12.8629806"><ele>396.6</ele><time>2026-04-18T08:30:21.27Z</time></trkpt><trkpt lat="43.6105464" lon="12.8628765"><ele>396.0</ele><time>2026-04-18T08:30:22.271Z</time></trkpt><trkpt lat="43.6106053" lon="12.8627851"><ele>396.0</ele><time>2026-04-18T08:30:23.27Z</time></trkpt><trkpt lat="43.6106508" lon="12.862683"><ele>396.0</ele><time>2026-04-18T08:30:24.27Z</time></trkpt><trkpt lat="43.6106802" lon="12.8625736"><ele>396.0</ele><time>2026-04-18T08:30:25.27Z</time></trkpt><trkpt lat="43.610696" lon="12.8624528"><ele>396.0</ele><time>2026-04-18T08:30:26.27Z</time></trkpt><trkpt lat="43.6107026" lon="12.8623192"><ele>396.0</ele><time>2026-04-18T08:30:27.271Z</time></trkpt><trkpt lat="43.6106992" lon="12.8621857"><ele>395.8</ele><time>2026-04-18T08:30:28.271Z</time></trkpt><trkpt lat="43.6106892" lon="12.8620581"><ele>395.6</ele><time>2026-04-18T08:30:29.271Z</time></trkpt><trkpt lat="43.6106857" lon="12.8619283"><ele>395.4</ele><time>2026-04-18T08:30:30.271Z</time></trkpt><trkpt lat="43.6107037" lon="12.8617966"><ele>395.2</ele><time>2026-04-18T08:30:31.27Z</time></trkpt><trkpt lat="43.6107335" lon="12.8616768"><ele>395.0</ele><time>2026-04-18T08:30:32.27Z</time></trkpt><trkpt lat="43.6107872" lon="12.8615678"><ele>394.0</ele><time>2026-04-18T08:30:33.271Z</time></trkpt><trkpt lat="43.6108548" lon="12.861465"><ele>393.0</ele><time>2026-04-18T08:30:34.27Z</time></trkpt><trkpt lat="43.6109187" lon="12.8613531"><ele>392.0</ele><time>2026-04-18T08:30:35.271Z</time></trkpt><trkpt lat="43.6109639" lon="12.8612063"><ele>391.0</ele><time>2026-04-18T08:30:36.27Z</time></trkpt><trkpt lat="43.6109865" lon="12.8610143"><ele>390.75</ele><time>2026-04-18T08:30:37.271Z</time></trkpt><trkpt lat="43.6110098" lon="12.8608208"><ele>390.5</ele><time>2026-04-18T08:30:38.271Z</time></trkpt><trkpt lat="43.6110416" lon="12.860652"><ele>390.25</ele><time>2026-04-18T08:30:39.27Z</time></trkpt><trkpt lat="43.6110747" lon="12.8604889"><ele>390.0</ele><time>2026-04-18T08:30:40.271Z</time></trkpt><trkpt lat="43.6111137" lon="12.8603266"><ele>390.0</ele><time>2026-04-18T08:30:41.27Z</time></trkpt><trkpt lat="43.6111449" lon="12.8601609"><ele>390.0</ele><time>2026-04-18T08:30:42.27Z</time></trkpt><trkpt lat="43.6111702" lon="12.8599932"><ele>390.0</ele><time>2026-04-18T08:30:43.27Z</time></trkpt><trkpt lat="43.611199" lon="12.8598415"><ele>390.0</ele><time>2026-04-18T08:30:44.27Z</time></trkpt><trkpt lat="43.6112276" lon="12.8597087"><ele>388.5</ele><time>2026-04-18T08:30:45.271Z</time></trkpt><trkpt lat="43.6112473" lon="12.8595885"><ele>387.0</ele><time>2026-04-18T08:30:46.27Z</time></trkpt><trkpt lat="43.6112541" lon="12.8594698"><ele>385.5</ele><time>2026-04-18T08:30:47.271Z</time></trkpt><trkpt lat="43.6112523" lon="12.8593467"><ele>384.0</ele><time>2026-04-18T08:30:48.27Z</time></trkpt><trkpt lat="43.6112376" lon="12.8592224"><ele>382.5</ele><time>2026-04-18T08:30:49.27Z</time></trkpt><trkpt lat="43.6112243" lon="12.8591121"><ele>381.0</ele><time>2026-04-18T08:30:50.27Z</time></trkpt><trkpt lat="43.6112321" lon="12.8590227"><ele>381.0</ele><time>2026-04-18T08:30:51.27Z</time></trkpt><trkpt lat="43.611278" lon="12.8589486"><ele>381.0</ele><time>2026-04-18T08:30:52.27Z</time></trkpt><trkpt lat="43.6113511" lon="12.8588699"><ele>381.0</ele><time>2026-04-18T08:30:53.27Z</time></trkpt><trkpt lat="43.611425" lon="12.8587775"><ele>381.0</ele><time>2026-04-18T08:30:54.27Z</time></trkpt><trkpt lat="43.6114825" lon="12.8586796"><ele>381.0</ele><time>2026-04-18T08:30:55.27Z</time></trkpt><trkpt lat="43.6115196" lon="12.8585821"><ele>381.0</ele><time>2026-04-18T08:30:56.271Z</time></trkpt><trkpt lat="43.6115384" lon="12.8584797"><ele>381.0</ele><time>2026-04-18T08:30:57.271Z</time></trkpt><trkpt lat="43.6115534" lon="12.8583813"><ele>381.0</ele><time>2026-04-18T08:30:58.271Z</time></trkpt><trkpt lat="43.6115922" lon="12.8583013"><ele>381.0</ele><time>2026-04-18T08:30:59.27Z</time></trkpt><trkpt lat="43.6116588" lon="12.8582574"><ele>381.0</ele><time>2026-04-18T08:31:00.27Z</time></trkpt><trkpt lat="43.6117322" lon="12.8582673"><ele>381.0</ele><time>2026-04-18T08:31:01.27Z</time></trkpt><trkpt lat="43.6118001" lon="12.8583197"><ele>381.0</ele><time>2026-04-18T08:31:02.271Z</time></trkpt><trkpt lat="43.6118627" lon="12.8583851"><ele>381.0</ele><time>2026-04-18T08:31:03.271Z</time></trkpt><trkpt lat="43.611916" lon="12.8584626"><ele>381.0</ele><time>2026-04-18T08:31:04.27Z</time></trkpt><trkpt lat="43.6119123" lon="12.8586369"><ele>381.0</ele><time>2026-04-18T08:31:05.27Z</time></trkpt><trkpt lat="43.6119058" lon="12.8587704"><ele>381.0</ele><time>2026-04-18T08:31:06.27Z</time></trkpt><trkpt lat="43.611879" lon="12.8588926"><ele>381.0</ele><time>2026-04-18T08:31:07.27Z</time></trkpt><trkpt lat="43.6118476" lon="12.8590125"><ele>381.0</ele><time>2026-04-18T08:31:08.27Z</time></trkpt><trkpt lat="43.6118352" lon="12.8591416"><ele>381.0</ele><time>2026-04-18T08:31:09.271Z</time></trkpt><trkpt lat="43.6118532" lon="12.8592623"><ele>381.0</ele><time>2026-04-18T08:31:10.271Z</time></trkpt><trkpt lat="43.6118885" lon="12.8593595"><ele>381.0</ele><time>2026-04-18T08:31:11.27Z</time></trkpt><trkpt lat="43.6119487" lon="12.8594398"><ele>381.0</ele><time>2026-04-18T08:31:12.27Z</time></trkpt><trkpt lat="43.6120327" lon="12.8594952"><ele>381.0</ele><time>2026-04-18T08:31:13.27Z</time></trkpt><trkpt lat="43.6121168" lon="12.8595124"><ele>381.0</ele><time>2026-04-18T08:31:14.271Z</time></trkpt><trkpt lat="43.6121938" lon="12.8594876"><ele>381.0</ele><time>2026-04-18T08:31:15.27Z</time></trkpt><trkpt lat="43.6122714" lon="12.8594326"><ele>381.0</ele><time>2026-04-18T08:31:16.271Z</time></trkpt><trkpt lat="43.612357" lon="12.8593845"><ele>381.0</ele><time>2026-04-18T08:31:17.27Z</time></trkpt><trkpt lat="43.6124435" lon="12.8593851"><ele>381.0</ele><time>2026-04-18T08:31:18.271Z</time></trkpt><trkpt lat="43.6125402" lon="12.8594386"><ele>381.0</ele><time>2026-04-18T08:31:19.271Z</time></trkpt><trkpt lat="43.612652" lon="12.8595005"><ele>381.0</ele><time>2026-04-18T08:31:20.27Z</time></trkpt><trkpt lat="43.6127723" lon="12.8595572"><ele>381.0</ele><time>2026-04-18T08:31:21.271Z</time></trkpt><trkpt lat="43.61289" lon="12.8596155"><ele>381.0</ele><time>2026-04-18T08:31:22.27Z</time></trkpt><trkpt lat="43.6130123" lon="12.8596737"><ele>381.0</ele><time>2026-04-18T08:31:23.271Z</time></trkpt><trkpt lat="43.6131344" lon="12.8597278"><ele>381.5</ele><time>2026-04-18T08:31:24.27Z</time></trkpt><trkpt lat="43.6132503" lon="12.8597825"><ele>382.0</ele><time>2026-04-18T08:31:25.27Z</time></trkpt><trkpt lat="43.6133637" lon="12.8598341"><ele>382.5</ele><time>2026-04-18T08:31:26.271Z</time></trkpt><trkpt lat="43.6134777" lon="12.8598864"><ele>383.0</ele><time>2026-04-18T08:31:27.271Z</time></trkpt><trkpt lat="43.613594" lon="12.8599396"><ele>384.25</ele><time>2026-04-18T08:31:28.271Z</time></trkpt><trkpt lat="43.6137086" lon="12.8599944"><ele>385.5</ele><time>2026-04-18T08:31:29.27Z</time></trkpt><trkpt lat="43.613822" lon="12.8600474"><ele>386.75</ele><time>2026-04-18T08:31:30.27Z</time></trkpt><trkpt lat="43.6139292" lon="12.8601048"><ele>388.0</ele><time>2026-04-18T08:31:31.27Z</time></trkpt><trkpt lat="43.6140333" lon="12.8601712"><ele>387.0</ele><time>2026-04-18T08:31:32.27Z</time></trkpt><trkpt lat="43.614137" lon="12.8602341"><ele>386.0</ele><time>2026-04-18T08:31:33.27Z</time></trkpt><trkpt lat="43.6142377" lon="12.8602963"><ele>385.0</ele><time>2026-04-18T08:31:34.27Z</time></trkpt><trkpt lat="43.614334" lon="12.8603542"><ele>384.0</ele><time>2026-04-18T08:31:35.27Z</time></trkpt><trkpt lat="43.614435" lon="12.8603918"><ele>383.0</ele><time>2026-04-18T08:31:36.27Z</time></trkpt><trkpt lat="43.6145458" lon="12.8604053"><ele>383.0</ele><time>2026-04-18T08:31:37.271Z</time></trkpt><trkpt lat="43.6146585" lon="12.8604014"><ele>383.0</ele><time>2026-04-18T08:31:38.271Z</time></trkpt><trkpt lat="43.6147654" lon="12.8603952"><ele>383.0</ele><time>2026-04-18T08:31:39.27Z</time></trkpt><trkpt lat="43.6148735" lon="12.86039"><ele>383.0</ele><time>2026-04-18T08:31:40.27Z</time></trkpt><trkpt lat="43.6149726" lon="12.8604451"><ele>383.0</ele><time>2026-04-18T08:31:41.271Z</time></trkpt><trkpt lat="43.61506" lon="12.8605294"><ele>383.0</ele><time>2026-04-18T08:31:42.271Z</time></trkpt><trkpt lat="43.6151421" lon="12.86063"><ele>383.0</ele><time>2026-04-18T08:31:43.27Z</time></trkpt><trkpt lat="43.6152072" lon="12.8607431"><ele>383.0</ele><time>2026-04-18T08:31:44.271Z</time></trkpt><trkpt lat="43.6152498" lon="12.8608524"><ele>383.0</ele><time>2026-04-18T08:31:45.27Z</time></trkpt><trkpt lat="43.6152853" lon="12.8609458"><ele>383.0</ele><time>2026-04-18T08:31:46.27Z</time></trkpt><trkpt lat="43.6153339" lon="12.8610368"><ele>382.59999999999997</ele><time>2026-04-18T08:31:47.27Z</time></trkpt><trkpt lat="43.6154035" lon="12.8611185"><ele>382.2</ele><time>2026-04-18T08:31:48.27Z</time></trkpt><trkpt lat="43.6154976" lon="12.8611766"><ele>381.8</ele><time>2026-04-18T08:31:49.271Z</time></trkpt><trkpt lat="43.615613" lon="12.8612101"><ele>381.4</ele><time>2026-04-18T08:31:50.27Z</time></trkpt><trkpt lat="43.6157315" lon="12.8612359"><ele>381.0</ele><time>2026-04-18T08:31:51.27Z</time></trkpt><trkpt lat="43.615857" lon="12.8612562"><ele>381.0</ele><time>2026-04-18T08:31:52.271Z</time></trkpt><trkpt lat="43.6159763" lon="12.8612916"><ele>381.0</ele><time>2026-04-18T08:31:53.27Z</time></trkpt><trkpt lat="43.6160797" lon="12.8613428"><ele>381.0</ele><time>2026-04-18T08:31:54.27Z</time></trkpt><trkpt lat="43.6161776" lon="12.8613948"><ele>381.0</ele><time>2026-04-18T08:31:55.27Z</time></trkpt><trkpt lat="43.6162745" lon="12.8614238"><ele>381.0</ele><time>2026-04-18T08:31:56.27Z</time></trkpt><trkpt lat="43.6163755" lon="12.8614238"><ele>386.0</ele><time>2026-04-18T08:31:57.27Z</time></trkpt><trkpt lat="43.6164688" lon="12.8613962"><ele>391.0</ele><time>2026-04-18T08:31:58.27Z</time></trkpt><trkpt lat="43.6165482" lon="12.8613164"><ele>396.0</ele><time>2026-04-18T08:31:59.27Z</time></trkpt><trkpt lat="43.6166376" lon="12.861221"><ele>401.0</ele><time>2026-04-18T08:32:00.271Z</time></trkpt><trkpt lat="43.6167321" lon="12.8611241"><ele>406.0</ele><time>2026-04-18T08:32:01.271Z</time></trkpt><trkpt lat="43.6168354" lon="12.8610224"><ele>403.75</ele><time>2026-04-18T08:32:02.271Z</time></trkpt><trkpt lat="43.6169483" lon="12.8609085"><ele>401.5</ele><time>2026-04-18T08:32:03.27Z</time></trkpt><trkpt lat="43.6170503" lon="12.8608099"><ele>399.25</ele><time>2026-04-18T08:32:04.271Z</time></trkpt><trkpt lat="43.6171429" lon="12.8607144"><ele>397.0</ele><time>2026-04-18T08:32:05.27Z</time></trkpt><trkpt lat="43.6172257" lon="12.860601"><ele>403.0</ele><time>2026-04-18T08:32:06.27Z</time></trkpt><trkpt lat="43.6173043" lon="12.8604788"><ele>409.0</ele><time>2026-04-18T08:32:07.271Z</time></trkpt><trkpt lat="43.6173835" lon="12.8603559"><ele>415.0</ele><time>2026-04-18T08:32:08.27Z</time></trkpt><trkpt lat="43.6174707" lon="12.8602356"><ele>421.0</ele><time>2026-04-18T08:32:09.271Z</time></trkpt><trkpt lat="43.6175615" lon="12.86012"><ele>422.0</ele><time>2026-04-18T08:32:10.271Z</time></trkpt><trkpt lat="43.6176496" lon="12.8600121"><ele>423.0</ele><time>2026-04-18T08:32:11.271Z</time></trkpt><trkpt lat="43.6177383" lon="12.8599019"><ele>424.0</ele><time>2026-04-18T08:32:12.271Z</time></trkpt><trkpt lat="43.6178331" lon="12.8598076"><ele>425.0</ele><time>2026-04-18T08:32:13.27Z</time></trkpt><trkpt lat="43.617932" lon="12.8597313"><ele>425.0</ele><time>2026-04-18T08:32:14.27Z</time></trkpt><trkpt lat="43.6180336" lon="12.8596722"><ele>425.0</ele><time>2026-04-18T08:32:15.271Z</time></trkpt><trkpt lat="43.6181243" lon="12.8596155"><ele>425.0</ele><time>2026-04-18T08:32:16.271Z</time></trkpt><trkpt lat="43.6182049" lon="12.8595362"><ele>425.0</ele><time>2026-04-18T08:32:17.27Z</time></trkpt><trkpt lat="43.6182706" lon="12.8594282"><ele>425.0</ele><time>2026-04-18T08:32:18.27Z</time></trkpt><trkpt lat="43.6183169" lon="12.8593019"><ele>423.99999999999994</ele><time>2026-04-18T08:32:19.271Z</time></trkpt><trkpt lat="43.618344" lon="12.8591762"><ele>423.0</ele><time>2026-04-18T08:32:20.271Z</time></trkpt><trkpt lat="43.6183648" lon="12.8590502"><ele>422.0</ele><time>2026-04-18T08:32:21.27Z</time></trkpt><trkpt lat="43.6183854" lon="12.8589242"><ele>421.0</ele><time>2026-04-18T08:32:22.27Z</time></trkpt><trkpt lat="43.6184064" lon="12.8588107"><ele>419.99999999999994</ele><time>2026-04-18T08:32:23.271Z</time></trkpt><trkpt lat="43.618427" lon="12.8587109"><ele>419.0</ele><time>2026-04-18T08:32:24.27Z</time></trkpt><trkpt lat="43.6184513" lon="12.8585814"><ele>419.0</ele><time>2026-04-18T08:32:26.27Z</time></trkpt><trkpt lat="43.6184707" lon="12.8584882"><ele>419.0</ele><time>2026-04-18T08:32:38.279Z</time></trkpt><trkpt lat="43.6185364" lon="12.858441"><ele>419.0</ele><time>2026-04-18T08:32:41.281Z</time></trkpt><trkpt lat="43.6186903" lon="12.8585035"><ele>419.0</ele><time>2026-04-18T08:32:42.27Z</time></trkpt><trkpt lat="43.6188171" lon="12.8585541"><ele>419.0</ele><time>2026-04-18T08:32:43.271Z</time></trkpt><trkpt lat="43.6189537" lon="12.8586109"><ele>420.79999999999995</ele><time>2026-04-18T08:32:44.27Z</time></trkpt><trkpt lat="43.6190809" lon="12.858662"><ele>422.59999999999997</ele><time>2026-04-18T08:32:45.271Z</time></trkpt><trkpt lat="43.6191774" lon="12.8587018"><ele>424.4</ele><time>2026-04-18T08:32:46.27Z</time></trkpt><trkpt lat="43.6192651" lon="12.8587359"><ele>426.2</ele><time>2026-04-18T08:32:47.27Z</time></trkpt><trkpt lat="43.6193393" lon="12.8587603"><ele>428.0</ele><time>2026-04-18T08:32:48.27Z</time></trkpt><trkpt lat="43.619431" lon="12.858702"><ele>427.99999999999994</ele><time>2026-04-18T08:32:50.271Z</time></trkpt><trkpt lat="43.6194644" lon="12.8586154"><ele>428.0</ele><time>2026-04-18T08:32:51.27Z</time></trkpt><trkpt lat="43.6195103" lon="12.8585058"><ele>428.0</ele><time>2026-04-18T08:32:52.27Z</time></trkpt><trkpt lat="43.6195665" lon="12.8583891"><ele>428.0</ele><time>2026-04-18T08:32:53.27Z</time></trkpt><trkpt lat="43.6196246" lon="12.8582895"><ele>427.99999999999994</ele><time>2026-04-18T08:32:54.271Z</time></trkpt><trkpt lat="43.6196727" lon="12.8581996"><ele>428.0</ele><time>2026-04-18T08:32:55.271Z</time></trkpt><trkpt lat="43.6197078" lon="12.858101"><ele>426.99999999999994</ele><time>2026-04-18T08:32:56.271Z</time></trkpt><trkpt lat="43.6197167" lon="12.8579846"><ele>426.0</ele><time>2026-04-18T08:32:57.27Z</time></trkpt><trkpt lat="43.6197149" lon="12.8578654"><ele>425.0</ele><time>2026-04-18T08:32:58.271Z</time></trkpt><trkpt lat="43.6197005" lon="12.8577472"><ele>424.0</ele><time>2026-04-18T08:32:59.27Z</time></trkpt><trkpt lat="43.6196881" lon="12.8576401"><ele>422.99999999999994</ele><time>2026-04-18T08:33:00.27Z</time></trkpt><trkpt lat="43.6196914" lon="12.8575356"><ele>422.0</ele><time>2026-04-18T08:33:01.27Z</time></trkpt><trkpt lat="43.6197103" lon="12.8574248"><ele>421.49999999999994</ele><time>2026-04-18T08:33:02.27Z</time></trkpt><trkpt lat="43.6197404" lon="12.8573155"><ele>421.0</ele><time>2026-04-18T08:33:03.27Z</time></trkpt><trkpt lat="43.6197873" lon="12.8572239"><ele>420.5</ele><time>2026-04-18T08:33:04.27Z</time></trkpt><trkpt lat="43.6198396" lon="12.8571276"><ele>420.0</ele><time>2026-04-18T08:33:05.27Z</time></trkpt><trkpt lat="43.6198991" lon="12.8570324"><ele>419.49999999999994</ele><time>2026-04-18T08:33:06.27Z</time></trkpt><trkpt lat="43.6199589" lon="12.8569302"><ele>419.0</ele><time>2026-04-18T08:33:07.271Z</time></trkpt><trkpt lat="43.6200217" lon="12.8568169"><ele>418.2</ele><time>2026-04-18T08:33:08.27Z</time></trkpt><trkpt lat="43.6200875" lon="12.8567176"><ele>417.4</ele><time>2026-04-18T08:33:09.27Z</time></trkpt><trkpt lat="43.6201642" lon="12.8566349"><ele>416.6</ele><time>2026-04-18T08:33:10.27Z</time></trkpt><trkpt lat="43.6202593" lon="12.856566"><ele>415.8</ele><time>2026-04-18T08:33:11.27Z</time></trkpt><trkpt lat="43.620359" lon="12.8565169"><ele>415.0</ele><time>2026-04-18T08:33:12.27Z</time></trkpt><trkpt lat="43.6204651" lon="12.8564803"><ele>414.0</ele><time>2026-04-18T08:33:13.271Z</time></trkpt><trkpt lat="43.6205696" lon="12.856427"><ele>413.0</ele><time>2026-04-18T08:33:14.27Z</time></trkpt><trkpt lat="43.620666" lon="12.8563469"><ele>412.0</ele><time>2026-04-18T08:33:15.27Z</time></trkpt><trkpt lat="43.6207564" lon="12.8562568"><ele>411.0</ele><time>2026-04-18T08:33:16.27Z</time></trkpt><trkpt lat="43.6208491" lon="12.8561844"><ele>410.0</ele><time>2026-04-18T08:33:17.27Z</time></trkpt><trkpt lat="43.6209632" lon="12.8561375"><ele>410.0</ele><time>2026-04-18T08:33:18.271Z</time></trkpt><trkpt lat="43.6210767" lon="12.8561136"><ele>410.0</ele><time>2026-04-18T08:33:19.271Z</time></trkpt><trkpt lat="43.6211751" lon="12.8560922"><ele>410.0</ele><time>2026-04-18T08:33:20.271Z</time></trkpt><trkpt lat="43.6212723" lon="12.8560547"><ele>410.0</ele><time>2026-04-18T08:33:21.27Z</time></trkpt><trkpt lat="43.6213661" lon="12.8560026"><ele>410.0</ele><time>2026-04-18T08:33:22.27Z</time></trkpt><trkpt lat="43.6214518" lon="12.8559496"><ele>410.2</ele><time>2026-04-18T08:33:23.27Z</time></trkpt><trkpt lat="43.6215382" lon="12.8559228"><ele>410.4</ele><time>2026-04-18T08:33:24.27Z</time></trkpt><trkpt lat="43.6216401" lon="12.855929"><ele>410.6</ele><time>2026-04-18T08:33:25.271Z</time></trkpt><trkpt lat="43.6217545" lon="12.8559643"><ele>410.8</ele><time>2026-04-18T08:33:26.27Z</time></trkpt><trkpt lat="43.6218743" lon="12.8560186"><ele>411.0</ele><time>2026-04-18T08:33:27.271Z</time></trkpt><trkpt lat="43.6220026" lon="12.8560799"><ele>414.20000000000005</ele><time>2026-04-18T08:33:28.27Z</time></trkpt><trkpt lat="43.6221131" lon="12.8561432"><ele>417.40000000000003</ele><time>2026-04-18T08:33:29.271Z</time></trkpt><trkpt lat="43.6222182" lon="12.8562013"><ele>420.6</ele><time>2026-04-18T08:33:30.271Z</time></trkpt><trkpt lat="43.6223018" lon="12.8562336"><ele>423.8</ele><time>2026-04-18T08:33:31.27Z</time></trkpt><trkpt lat="43.6223922" lon="12.8562449"><ele>427.0</ele><time>2026-04-18T08:33:32.271Z</time></trkpt><trkpt lat="43.6224801" lon="12.8562436"><ele>427.0</ele><time>2026-04-18T08:33:33.27Z</time></trkpt><trkpt lat="43.6225793" lon="12.8562292"><ele>427.00000000000006</ele><time>2026-04-18T08:33:34.27Z</time></trkpt><trkpt lat="43.6226837" lon="12.8562134"><ele>427.00000000000006</ele><time>2026-04-18T08:33:35.27Z</time></trkpt><trkpt lat="43.6227969" lon="12.8561783"><ele>427.0</ele><time>2026-04-18T08:33:36.271Z</time></trkpt><trkpt lat="43.6229022" lon="12.8561327"><ele>427.0</ele><time>2026-04-18T08:33:37.271Z</time></trkpt><trkpt lat="43.6230071" lon="12.8560841"><ele>429.0</ele><time>2026-04-18T08:33:38.271Z</time></trkpt><trkpt lat="43.6231112" lon="12.8560094"><ele>431.0</ele><time>2026-04-18T08:33:39.271Z</time></trkpt><trkpt lat="43.6232143" lon="12.8559175"><ele>433.0</ele><time>2026-04-18T08:33:40.27Z</time></trkpt><trkpt lat="43.6233109" lon="12.8558243"><ele>435.0</ele><time>2026-04-18T08:33:41.27Z</time></trkpt><trkpt lat="43.6234068" lon="12.8557302"><ele>438.0</ele><time>2026-04-18T08:33:42.27Z</time></trkpt><trkpt lat="43.6234816" lon="12.8556353"><ele>441.0</ele><time>2026-04-18T08:33:43.27Z</time></trkpt><trkpt lat="43.6235349" lon="12.8555284"><ele>444.0</ele><time>2026-04-18T08:33:44.271Z</time></trkpt><trkpt lat="43.6235682" lon="12.855421"><ele>447.0</ele><time>2026-04-18T08:33:45.271Z</time></trkpt><trkpt lat="43.6235903" lon="12.8553057"><ele>450.0</ele><time>2026-04-18T08:33:46.27Z</time></trkpt><trkpt lat="43.6236069" lon="12.8551693"><ele>451.0</ele><time>2026-04-18T08:33:47.271Z</time></trkpt><trkpt lat="43.6236099" lon="12.8550343"><ele>452.0</ele><time>2026-04-18T08:33:48.27Z</time></trkpt><trkpt lat="43.6236123" lon="12.8549151"><ele>453.0</ele><time>2026-04-18T08:33:49.271Z</time></trkpt><trkpt lat="43.6236243" lon="12.8548293"><ele>454.0</ele><time>2026-04-18T08:33:50.271Z</time></trkpt><trkpt lat="43.6236757" lon="12.8547605"><ele>455.0</ele><time>2026-04-18T08:33:52.27Z</time></trkpt><trkpt lat="43.6237202" lon="12.8548539"><ele>456.0</ele><time>2026-04-18T08:33:55.27Z</time></trkpt><trkpt lat="43.6236999" lon="12.8550442"><ele>456.5</ele><time>2026-04-18T08:33:57.27Z</time></trkpt><trkpt lat="43.6237023" lon="12.8551709"><ele>457.0</ele><time>2026-04-18T08:33:58.27Z</time></trkpt><trkpt lat="43.6237213" lon="12.8552928"><ele>457.5</ele><time>2026-04-18T08:33:59.271Z</time></trkpt><trkpt lat="43.6237557" lon="12.8553834"><ele>458.0</ele><time>2026-04-18T08:34:00.27Z</time></trkpt><trkpt lat="43.6238361" lon="12.8554624"><ele>458.5</ele><time>2026-04-18T08:34:02.27Z</time></trkpt><trkpt lat="43.6238989" lon="12.8554499"><ele>459.0</ele><time>2026-04-18T08:34:06.27Z</time></trkpt><trkpt lat="43.6238428" lon="12.8553691"><ele>459.0</ele><time>2026-04-18T08:34:10.271Z</time></trkpt><trkpt lat="43.623746" lon="12.8552943"><ele>459.0</ele><time>2026-04-18T08:34:23.27Z</time></trkpt><trkpt lat="43.6237218" lon="12.8551945"><ele>459.0</ele><time>2026-04-18T08:34:24.27Z</time></trkpt><trkpt lat="43.6237103" lon="12.8550399"><ele>459.0</ele><time>2026-04-18T08:34:26.271Z</time></trkpt><trkpt lat="43.6237207" lon="12.8549227"><ele>459.0</ele><time>2026-04-18T08:34:28.27Z</time></trkpt><trkpt lat="43.6237267" lon="12.8548261"><ele>458.8333333333333</ele><time>2026-04-18T08:34:30.27Z</time></trkpt><trkpt lat="43.6237458" lon="12.8547208"><ele>458.66666666666663</ele><time>2026-04-18T08:34:32.27Z</time></trkpt><trkpt lat="43.6238248" lon="12.8546537"><ele>458.5</ele><time>2026-04-18T08:34:34.27Z</time></trkpt><trkpt lat="43.6238893" lon="12.8546667"><ele>458.3333333333333</ele><time>2026-04-18T08:34:35.27Z</time></trkpt><trkpt lat="43.6239693" lon="12.854695"><ele>458.16666666666663</ele><time>2026-04-18T08:34:36.27Z</time></trkpt><trkpt lat="43.6240626" lon="12.8547441"><ele>458.0</ele><time>2026-04-18T08:34:37.27Z</time></trkpt><trkpt lat="43.6241613" lon="12.8547925"><ele>458.0</ele><time>2026-04-18T08:34:38.271Z</time></trkpt><trkpt lat="43.6242638" lon="12.8548493"><ele>458.0</ele><time>2026-04-18T08:34:39.271Z</time></trkpt><trkpt lat="43.6243745" lon="12.8549029"><ele>458.0</ele><time>2026-04-18T08:34:40.27Z</time></trkpt><trkpt lat="43.6244854" lon="12.8549504"><ele>458.0</ele><time>2026-04-18T08:34:41.271Z</time></trkpt><trkpt lat="43.6245982" lon="12.8549939"><ele>458.2</ele><time>2026-04-18T08:34:42.271Z</time></trkpt><trkpt lat="43.6247011" lon="12.8550279"><ele>458.4</ele><time>2026-04-18T08:34:43.27Z</time></trkpt><trkpt lat="43.6248067" lon="12.8550563"><ele>458.59999999999997</ele><time>2026-04-18T08:34:44.271Z</time></trkpt><trkpt lat="43.6249051" lon="12.8550933"><ele>458.79999999999995</ele><time>2026-04-18T08:34:45.271Z</time></trkpt><trkpt lat="43.6249938" lon="12.8551559"><ele>459.0</ele><time>2026-04-18T08:34:46.271Z</time></trkpt><trkpt lat="43.6250797" lon="12.8552347"><ele>459.0</ele><time>2026-04-18T08:34:47.27Z</time></trkpt><trkpt lat="43.6251604" lon="12.8553271"><ele>459.0</ele><time>2026-04-18T08:34:48.27Z</time></trkpt><trkpt lat="43.6252407" lon="12.8554222"><ele>459.0</ele><time>2026-04-18T08:34:49.27Z</time></trkpt><trkpt lat="43.6253186" lon="12.8555221"><ele>459.0</ele><time>2026-04-18T08:34:50.271Z</time></trkpt><trkpt lat="43.6253973" lon="12.8556297"><ele>459.0</ele><time>2026-04-18T08:34:51.27Z</time></trkpt><trkpt lat="43.6254754" lon="12.8557329"><ele>457.6</ele><time>2026-04-18T08:34:52.271Z</time></trkpt><trkpt lat="43.6255517" lon="12.855835"><ele>456.2</ele><time>2026-04-18T08:34:53.271Z</time></trkpt><trkpt lat="43.6256273" lon="12.8559338"><ele>454.80000000000007</ele><time>2026-04-18T08:34:54.27Z</time></trkpt><trkpt lat="43.6256966" lon="12.8560288"><ele>453.40000000000003</ele><time>2026-04-18T08:34:55.271Z</time></trkpt><trkpt lat="43.6257536" lon="12.8561402"><ele>452.0</ele><time>2026-04-18T08:34:56.27Z</time></trkpt><trkpt lat="43.62579" lon="12.8562642"><ele>451.99999999999994</ele><time>2026-04-18T08:34:57.27Z</time></trkpt><trkpt lat="43.6258112" lon="12.8563898"><ele>452.0</ele><time>2026-04-18T08:34:58.27Z</time></trkpt><trkpt lat="43.6258296" lon="12.8565039"><ele>452.0</ele><time>2026-04-18T08:34:59.271Z</time></trkpt><trkpt lat="43.625856" lon="12.8566055"><ele>452.0</ele><time>2026-04-18T08:35:00.27Z</time></trkpt><trkpt lat="43.6259004" lon="12.8566947"><ele>451.99999999999994</ele><time>2026-04-18T08:35:01.27Z</time></trkpt><trkpt lat="43.6259635" lon="12.8567703"><ele>452.0</ele><time>2026-04-18T08:35:02.271Z</time></trkpt><trkpt lat="43.6260438" lon="12.8568373"><ele>450.0</ele><time>2026-04-18T08:35:03.27Z</time></trkpt><trkpt lat="43.6261229" lon="12.8569108"><ele>448.00000000000006</ele><time>2026-04-18T08:35:04.271Z</time></trkpt><trkpt lat="43.626201" lon="12.8569889"><ele>446.00000000000006</ele><time>2026-04-18T08:35:05.27Z</time></trkpt><trkpt lat="43.6262712" lon="12.8570675"><ele>444.0</ele><time>2026-04-18T08:35:06.27Z</time></trkpt><trkpt lat="43.6263371" lon="12.8571433"><ele>442.0</ele><time>2026-04-18T08:35:07.27Z</time></trkpt><trkpt lat="43.6263995" lon="12.8572234"><ele>442.0</ele><time>2026-04-18T08:35:08.27Z</time></trkpt><trkpt lat="43.6264565" lon="12.8572971"><ele>442.00000000000006</ele><time>2026-04-18T08:35:09.27Z</time></trkpt><trkpt lat="43.6265139" lon="12.8573472"><ele>442.00000000000006</ele><time>2026-04-18T08:35:10.271Z</time></trkpt><trkpt lat="43.6266212" lon="12.857341"><ele>442.0</ele><time>2026-04-18T08:35:12.27Z</time></trkpt><trkpt lat="43.6267108" lon="12.8572048"><ele>442.0</ele><time>2026-04-18T08:35:14.27Z</time></trkpt><trkpt lat="43.6267604" lon="12.8570931"><ele>442.0</ele><time>2026-04-18T08:35:15.27Z</time></trkpt><trkpt lat="43.6268058" lon="12.8569644"><ele>442.00000000000006</ele><time>2026-04-18T08:35:16.27Z</time></trkpt><trkpt lat="43.626848" lon="12.8568401"><ele>442.00000000000006</ele><time>2026-04-18T08:35:17.271Z</time></trkpt><trkpt lat="43.6268893" lon="12.8567209"><ele>442.0</ele><time>2026-04-18T08:35:18.271Z</time></trkpt><trkpt lat="43.6269376" lon="12.8566007"><ele>442.0</ele><time>2026-04-18T08:35:19.27Z</time></trkpt><trkpt lat="43.6269883" lon="12.8564753"><ele>439.0</ele><time>2026-04-18T08:35:20.27Z</time></trkpt><trkpt lat="43.6270395" lon="12.8563482"><ele>436.00000000000006</ele><time>2026-04-18T08:35:21.27Z</time></trkpt><trkpt lat="43.6270878" lon="12.8562221"><ele>433.00000000000006</ele><time>2026-04-18T08:35:22.27Z</time></trkpt><trkpt lat="43.6271374" lon="12.8561083"><ele>430.0</ele><time>2026-04-18T08:35:23.27Z</time></trkpt><trkpt lat="43.6271885" lon="12.856004"><ele>427.0</ele><time>2026-04-18T08:35:24.27Z</time></trkpt><trkpt lat="43.6272518" lon="12.8559163"><ele>426.6666666666667</ele><time>2026-04-18T08:35:25.27Z</time></trkpt><trkpt lat="43.6273251" lon="12.8558535"><ele>426.33333333333337</ele><time>2026-04-18T08:35:26.27Z</time></trkpt><trkpt lat="43.6273977" lon="12.8558143"><ele>426.0</ele><time>2026-04-18T08:35:27.27Z</time></trkpt><trkpt lat="43.6274657" lon="12.8557933"><ele>425.66666666666663</ele><time>2026-04-18T08:35:28.271Z</time></trkpt><trkpt lat="43.6275356" lon="12.8557798"><ele>425.3333333333333</ele><time>2026-04-18T08:35:29.27Z</time></trkpt><trkpt lat="43.6276108" lon="12.8557665"><ele>425.0</ele><time>2026-04-18T08:35:30.27Z</time></trkpt><trkpt lat="43.6276878" lon="12.8557606"><ele>424.99999999999994</ele><time>2026-04-18T08:35:31.27Z</time></trkpt><trkpt lat="43.6277627" lon="12.8557566"><ele>425.0</ele><time>2026-04-18T08:35:32.27Z</time></trkpt><trkpt lat="43.6278409" lon="12.8557572"><ele>425.0</ele><time>2026-04-18T08:35:33.271Z</time></trkpt><trkpt lat="43.6279192" lon="12.8557627"><ele>425.0</ele><time>2026-04-18T08:35:34.271Z</time></trkpt><trkpt lat="43.627994" lon="12.8557703"><ele>424.99999999999994</ele><time>2026-04-18T08:35:35.27Z</time></trkpt><trkpt lat="43.6280733" lon="12.8557768"><ele>425.0</ele><time>2026-04-18T08:35:36.27Z</time></trkpt><trkpt lat="43.628148" lon="12.8557864"><ele>423.99999999999994</ele><time>2026-04-18T08:35:37.271Z</time></trkpt><trkpt lat="43.6282161" lon="12.8558009"><ele>423.0</ele><time>2026-04-18T08:35:38.27Z</time></trkpt><trkpt lat="43.6283146" lon="12.8557712"><ele>422.0</ele><time>2026-04-18T08:35:40.27Z</time></trkpt><trkpt lat="43.6283137" lon="12.8556371"><ele>421.0</ele><time>2026-04-18T08:35:42.27Z</time></trkpt><trkpt lat="43.6282334" lon="12.8555473"><ele>419.99999999999994</ele><time>2026-04-18T08:35:44.271Z</time></trkpt><trkpt lat="43.6281701" lon="12.8555178"><ele>419.0</ele><time>2026-04-18T08:35:45.27Z</time></trkpt><trkpt lat="43.6280957" lon="12.8554823"><ele>419.0</ele><time>2026-04-18T08:35:46.271Z</time></trkpt><trkpt lat="43.6280183" lon="12.8554586"><ele>419.0</ele><time>2026-04-18T08:35:47.271Z</time></trkpt><trkpt lat="43.6279449" lon="12.8554404"><ele>419.0</ele><time>2026-04-18T08:35:48.27Z</time></trkpt><trkpt lat="43.6278782" lon="12.8554303"><ele>419.0</ele><time>2026-04-18T08:35:49.271Z</time></trkpt><trkpt lat="43.6277579" lon="12.8554103"><ele>419.0</ele><time>2026-04-18T08:35:51.271Z</time></trkpt><trkpt lat="43.6276361" lon="12.8553814"><ele>420.2</ele><time>2026-04-18T08:35:53.27Z</time></trkpt><trkpt lat="43.6275639" lon="12.8553909"><ele>421.4</ele><time>2026-04-18T08:35:54.271Z</time></trkpt><trkpt lat="43.6274849" lon="12.8554086"><ele>422.6</ele><time>2026-04-18T08:35:55.27Z</time></trkpt><trkpt lat="43.6274136" lon="12.8554324"><ele>423.8</ele><time>2026-04-18T08:35:56.271Z</time></trkpt><trkpt lat="43.6272911" lon="12.8554553"><ele>425.0</ele><time>2026-04-18T08:35:58.27Z</time></trkpt><trkpt lat="43.6271673" lon="12.8554742"><ele>425.0</ele><time>2026-04-18T08:36:00.271Z</time></trkpt><trkpt lat="43.6270949" lon="12.8554732"><ele>425.0</ele><time>2026-04-18T08:36:01.27Z</time></trkpt><trkpt lat="43.6270258" lon="12.8554584"><ele>425.0</ele><time>2026-04-18T08:36:02.271Z</time></trkpt><trkpt lat="43.6269665" lon="12.8554102"><ele>425.0</ele><time>2026-04-18T08:36:03.271Z</time></trkpt><trkpt lat="43.6269208" lon="12.8553392"><ele>425.0</ele><time>2026-04-18T08:36:04.271Z</time></trkpt><trkpt lat="43.6268905" lon="12.8552501"><ele>425.0</ele><time>2026-04-18T08:36:05.27Z</time></trkpt><trkpt lat="43.6268806" lon="12.8551446"><ele>425.0</ele><time>2026-04-18T08:36:06.27Z</time></trkpt><trkpt lat="43.6268857" lon="12.8550333"><ele>423.16666666666663</ele><time>2026-04-18T08:36:07.271Z</time></trkpt><trkpt lat="43.6268911" lon="12.854928"><ele>421.3333333333333</ele><time>2026-04-18T08:36:08.271Z</time></trkpt><trkpt lat="43.6268983" lon="12.8548292"><ele>419.5</ele><time>2026-04-18T08:36:09.27Z</time></trkpt><trkpt lat="43.6269159" lon="12.8547256"><ele>417.66666666666663</ele><time>2026-04-18T08:36:10.271Z</time></trkpt><trkpt lat="43.6269356" lon="12.8546166"><ele>415.8333333333333</ele><time>2026-04-18T08:36:11.271Z</time></trkpt><trkpt lat="43.6269504" lon="12.8544987"><ele>414.0</ele><time>2026-04-18T08:36:12.271Z</time></trkpt><trkpt lat="43.6269665" lon="12.8543865"><ele>411.6666666666667</ele><time>2026-04-18T08:36:13.27Z</time></trkpt><trkpt lat="43.6269767" lon="12.8542787"><ele>409.33333333333337</ele><time>2026-04-18T08:36:14.271Z</time></trkpt><trkpt lat="43.6269856" lon="12.8541744"><ele>407.0</ele><time>2026-04-18T08:36:15.27Z</time></trkpt><trkpt lat="43.6269901" lon="12.854081"><ele>404.6666666666667</ele><time>2026-04-18T08:36:16.27Z</time></trkpt><trkpt lat="43.6269602" lon="12.8539223"><ele>402.33333333333337</ele><time>2026-04-18T08:36:18.271Z</time></trkpt><trkpt lat="43.6269163" lon="12.8538582"><ele>400.0</ele><time>2026-04-18T08:36:19.27Z</time></trkpt><trkpt lat="43.6268579" lon="12.8538239"><ele>400.00000000000006</ele><time>2026-04-18T08:36:20.27Z</time></trkpt><trkpt lat="43.6267933" lon="12.8537971"><ele>400.0</ele><time>2026-04-18T08:36:21.271Z</time></trkpt><trkpt lat="43.6267259" lon="12.8537465"><ele>400.0</ele><time>2026-04-18T08:36:22.27Z</time></trkpt><trkpt lat="43.6266644" lon="12.8536885"><ele>400.0</ele><time>2026-04-18T08:36:23.27Z</time></trkpt><trkpt lat="43.626612" lon="12.8536239"><ele>400.0</ele><time>2026-04-18T08:36:24.27Z</time></trkpt><trkpt lat="43.6265691" lon="12.8535528"><ele>400.00000000000006</ele><time>2026-04-18T08:36:25.27Z</time></trkpt><trkpt lat="43.6265347" lon="12.8534669"><ele>400.0</ele><time>2026-04-18T08:36:26.27Z</time></trkpt><trkpt lat="43.6265109" lon="12.8533692"><ele>398.33333333333337</ele><time>2026-04-18T08:36:27.27Z</time></trkpt><trkpt lat="43.626495" lon="12.8532711"><ele>396.6666666666667</ele><time>2026-04-18T08:36:28.27Z</time></trkpt><trkpt lat="43.6264885" lon="12.8531795"><ele>395.0</ele><time>2026-04-18T08:36:29.27Z</time></trkpt><trkpt lat="43.6264941" lon="12.8530813"><ele>393.33333333333337</ele><time>2026-04-18T08:36:30.27Z</time></trkpt><trkpt lat="43.6265161" lon="12.852971"><ele>391.6666666666667</ele><time>2026-04-18T08:36:31.27Z</time></trkpt><trkpt lat="43.6265462" lon="12.8528663"><ele>390.0</ele><time>2026-04-18T08:36:32.271Z</time></trkpt><trkpt lat="43.6265871" lon="12.852767"><ele>390.0</ele><time>2026-04-18T08:36:33.271Z</time></trkpt><trkpt lat="43.6266342" lon="12.8526745"><ele>390.0</ele><time>2026-04-18T08:36:34.271Z</time></trkpt><trkpt lat="43.6266914" lon="12.8525817"><ele>390.0</ele><time>2026-04-18T08:36:35.27Z</time></trkpt><trkpt lat="43.6267394" lon="12.8524877"><ele>390.0</ele><time>2026-04-18T08:36:36.27Z</time></trkpt><trkpt lat="43.6267879" lon="12.8523987"><ele>390.0</ele><time>2026-04-18T08:36:37.27Z</time></trkpt><trkpt lat="43.6268334" lon="12.8523147"><ele>390.0</ele><time>2026-04-18T08:36:38.27Z</time></trkpt><trkpt lat="43.6268789" lon="12.8522371"><ele>388.3333333333333</ele><time>2026-04-18T08:36:39.27Z</time></trkpt><trkpt lat="43.6269242" lon="12.8521637"><ele>386.6666666666667</ele><time>2026-04-18T08:36:40.271Z</time></trkpt><trkpt lat="43.6269691" lon="12.8520918"><ele>385.0</ele><time>2026-04-18T08:36:41.27Z</time></trkpt><trkpt lat="43.627023" lon="12.8520111"><ele>383.33333333333337</ele><time>2026-04-18T08:36:42.27Z</time></trkpt><trkpt lat="43.6270815" lon="12.8519241"><ele>381.6666666666667</ele><time>2026-04-18T08:36:43.271Z</time></trkpt><trkpt lat="43.6271452" lon="12.8518425"><ele>380.0</ele><time>2026-04-18T08:36:44.27Z</time></trkpt><trkpt lat="43.6272179" lon="12.8517727"><ele>378.0</ele><time>2026-04-18T08:36:45.271Z</time></trkpt><trkpt lat="43.6272982" lon="12.8517034"><ele>376.0</ele><time>2026-04-18T08:36:46.271Z</time></trkpt><trkpt lat="43.6273856" lon="12.8516292"><ele>374.0</ele><time>2026-04-18T08:36:47.27Z</time></trkpt><trkpt lat="43.6274779" lon="12.8515492"><ele>372.0</ele><time>2026-04-18T08:36:48.271Z</time></trkpt><trkpt lat="43.6275771" lon="12.8514696"><ele>370.0</ele><time>2026-04-18T08:36:49.27Z</time></trkpt><trkpt lat="43.6276764" lon="12.8513893"><ele>370.0</ele><time>2026-04-18T08:36:50.27Z</time></trkpt><trkpt lat="43.627774" lon="12.8513142"><ele>370.0</ele><time>2026-04-18T08:36:51.27Z</time></trkpt><trkpt lat="43.6278689" lon="12.851241"><ele>370.0</ele><time>2026-04-18T08:36:52.27Z</time></trkpt><trkpt lat="43.6279576" lon="12.8511627"><ele>370.0</ele><time>2026-04-18T08:36:53.27Z</time></trkpt><trkpt lat="43.6280367" lon="12.8510808"><ele>370.0</ele><time>2026-04-18T08:36:54.27Z</time></trkpt><trkpt lat="43.6281076" lon="12.851003"><ele>369.66666666666663</ele><time>2026-04-18T08:36:55.271Z</time></trkpt><trkpt lat="43.6281673" lon="12.8509312"><ele>369.3333333333333</ele><time>2026-04-18T08:36:56.27Z</time></trkpt><trkpt lat="43.6282202" lon="12.8508693"><ele>369.0</ele><time>2026-04-18T08:36:57.271Z</time></trkpt><trkpt lat="43.6283354" lon="12.8508555"><ele>368.6666666666667</ele><time>2026-04-18T08:36:59.27Z</time></trkpt><trkpt lat="43.6284028" lon="12.850884"><ele>368.33333333333337</ele><time>2026-04-18T08:37:00.27Z</time></trkpt><trkpt lat="43.6284706" lon="12.8509279"><ele>368.0</ele><time>2026-04-18T08:37:01.27Z</time></trkpt><trkpt lat="43.6285317" lon="12.8509725"><ele>368.0</ele><time>2026-04-18T08:37:02.271Z</time></trkpt><trkpt lat="43.6285894" lon="12.8510144"><ele>368.0</ele><time>2026-04-18T08:37:03.27Z</time></trkpt><trkpt lat="43.6286925" lon="12.8510905"><ele>368.0</ele><time>2026-04-18T08:37:05.271Z</time></trkpt><trkpt lat="43.628756" lon="12.8511331"><ele>368.0</ele><time>2026-04-18T08:37:07.271Z</time></trkpt><trkpt lat="43.6288605" lon="12.8511961"><ele>368.0</ele><time>2026-04-18T08:37:48.27Z</time></trkpt><trkpt lat="43.6289866" lon="12.851258"><ele>367.59999999999997</ele><time>2026-04-18T08:37:50.27Z</time></trkpt><trkpt lat="43.6290503" lon="12.8512664"><ele>367.2</ele><time>2026-04-18T08:37:51.271Z</time></trkpt><trkpt lat="43.6291157" lon="12.8512574"><ele>366.8</ele><time>2026-04-18T08:37:52.271Z</time></trkpt><trkpt lat="43.6292274" lon="12.8512035"><ele>366.4</ele><time>2026-04-18T08:37:54.271Z</time></trkpt><trkpt lat="43.6292846" lon="12.851048"><ele>366.0</ele><time>2026-04-18T08:37:56.27Z</time></trkpt><trkpt lat="43.6293196" lon="12.8508734"><ele>367.14285714285717</ele><time>2026-04-18T08:37:58.27Z</time></trkpt><trkpt lat="43.6293408" lon="12.8507774"><ele>368.28571428571433</ele><time>2026-04-18T08:37:59.27Z</time></trkpt><trkpt lat="43.6293581" lon="12.8506802"><ele>369.42857142857144</ele><time>2026-04-18T08:38:00.271Z</time></trkpt><trkpt lat="43.6293728" lon="12.8505875"><ele>370.57142857142856</ele><time>2026-04-18T08:38:01.27Z</time></trkpt><trkpt lat="43.6293948" lon="12.8504937"><ele>371.7142857142857</ele><time>2026-04-18T08:38:02.271Z</time></trkpt><trkpt lat="43.6294174" lon="12.8504043"><ele>372.85714285714283</ele><time>2026-04-18T08:38:03.27Z</time></trkpt><trkpt lat="43.6294493" lon="12.8503144"><ele>374.0</ele><time>2026-04-18T08:38:04.27Z</time></trkpt><trkpt lat="43.6294853" lon="12.8502223"><ele>371.0</ele><time>2026-04-18T08:38:05.271Z</time></trkpt><trkpt lat="43.6295165" lon="12.8501293"><ele>368.0</ele><time>2026-04-18T08:38:06.27Z</time></trkpt><trkpt lat="43.6295479" lon="12.8500313"><ele>365.0</ele><time>2026-04-18T08:38:07.27Z</time></trkpt><trkpt lat="43.6295863" lon="12.8499245"><ele>362.0</ele><time>2026-04-18T08:38:08.271Z</time></trkpt><trkpt lat="43.6296205" lon="12.8498313"><ele>359.0</ele><time>2026-04-18T08:38:09.271Z</time></trkpt><trkpt lat="43.629655" lon="12.8497362"><ele>356.0</ele><time>2026-04-18T08:38:10.271Z</time></trkpt><trkpt lat="43.629688" lon="12.8496433"><ele>355.99999999999994</ele><time>2026-04-18T08:38:11.27Z</time></trkpt><trkpt lat="43.629726" lon="12.8495566"><ele>356.0</ele><time>2026-04-18T08:38:12.27Z</time></trkpt><trkpt lat="43.6297607" lon="12.8494697"><ele>356.0</ele><time>2026-04-18T08:38:13.27Z</time></trkpt><trkpt lat="43.6297936" lon="12.8493872"><ele>356.0</ele><time>2026-04-18T08:38:14.27Z</time></trkpt><trkpt lat="43.6298209" lon="12.8492957"><ele>356.0</ele><time>2026-04-18T08:38:15.27Z</time></trkpt><trkpt lat="43.6298572" lon="12.8491978"><ele>355.99999999999994</ele><time>2026-04-18T08:38:16.271Z</time></trkpt><trkpt lat="43.6298878" lon="12.8491057"><ele>356.0</ele><time>2026-04-18T08:38:17.27Z</time></trkpt><trkpt lat="43.6299116" lon="12.8490077"><ele>356.1666666666667</ele><time>2026-04-18T08:38:18.271Z</time></trkpt><trkpt lat="43.629925" lon="12.8489001"><ele>356.33333333333337</ele><time>2026-04-18T08:38:19.27Z</time></trkpt><trkpt lat="43.6299353" lon="12.8487834"><ele>356.5</ele><time>2026-04-18T08:38:20.27Z</time></trkpt><trkpt lat="43.6299491" lon="12.8486732"><ele>356.6666666666667</ele><time>2026-04-18T08:38:21.27Z</time></trkpt><trkpt lat="43.62996" lon="12.8485627"><ele>356.8333333333333</ele><time>2026-04-18T08:38:22.27Z</time></trkpt><trkpt lat="43.6299722" lon="12.8484559"><ele>357.0</ele><time>2026-04-18T08:38:23.271Z</time></trkpt><trkpt lat="43.6299828" lon="12.8483492"><ele>357.5</ele><time>2026-04-18T08:38:24.27Z</time></trkpt><trkpt lat="43.6299915" lon="12.8482385"><ele>358.0</ele><time>2026-04-18T08:38:25.27Z</time></trkpt><trkpt lat="43.6299929" lon="12.8481305"><ele>358.5</ele><time>2026-04-18T08:38:26.27Z</time></trkpt><trkpt lat="43.6300074" lon="12.8480317"><ele>359.0</ele><time>2026-04-18T08:38:27.27Z</time></trkpt><trkpt lat="43.630038" lon="12.8479356"><ele>359.5</ele><time>2026-04-18T08:38:28.271Z</time></trkpt><trkpt lat="43.6301209" lon="12.8477933"><ele>360.0</ele><time>2026-04-18T08:38:30.271Z</time></trkpt><trkpt lat="43.630185" lon="12.8477362"><ele>360.0</ele><time>2026-04-18T08:38:31.271Z</time></trkpt><trkpt lat="43.6302449" lon="12.8477049"><ele>360.0</ele><time>2026-04-18T08:38:32.271Z</time></trkpt><trkpt lat="43.6303645" lon="12.8477117"><ele>360.0</ele><time>2026-04-18T08:38:34.27Z</time></trkpt><trkpt lat="43.6304847" lon="12.8477989"><ele>360.0</ele><time>2026-04-18T08:38:36.271Z</time></trkpt><trkpt lat="43.6305591" lon="12.8478705"><ele>360.0</ele><time>2026-04-18T08:38:37.27Z</time></trkpt><trkpt lat="43.630634" lon="12.8479526"><ele>360.0</ele><time>2026-04-18T08:38:38.27Z</time></trkpt><trkpt lat="43.6306923" lon="12.8480322"><ele>360.0</ele><time>2026-04-18T08:38:39.27Z</time></trkpt><trkpt lat="43.6307619" lon="12.8481005"><ele>360.0</ele><time>2026-04-18T08:38:40.271Z</time></trkpt><trkpt lat="43.6308364" lon="12.8481751"><ele>360.0</ele><time>2026-04-18T08:38:41.271Z</time></trkpt><trkpt lat="43.6308942" lon="12.8482384"><ele>360.0</ele><time>2026-04-18T08:38:42.27Z</time></trkpt><trkpt lat="43.6309587" lon="12.848302"><ele>360.0</ele><time>2026-04-18T08:38:43.27Z</time></trkpt><trkpt lat="43.6310202" lon="12.8483715"><ele>360.0</ele><time>2026-04-18T08:38:44.27Z</time></trkpt><trkpt lat="43.6310788" lon="12.8484335"><ele>360.0</ele><time>2026-04-18T08:38:45.27Z</time></trkpt><trkpt lat="43.6311394" lon="12.8484986"><ele>360.0</ele><time>2026-04-18T08:38:46.27Z</time></trkpt><trkpt lat="43.6312099" lon="12.8485599"><ele>360.0</ele><time>2026-04-18T08:38:47.271Z</time></trkpt><trkpt lat="43.6312737" lon="12.8486109"><ele>360.0</ele><time>2026-04-18T08:38:48.27Z</time></trkpt><trkpt lat="43.6313379" lon="12.8486748"><ele>360.0</ele><time>2026-04-18T08:38:49.271Z</time></trkpt><trkpt lat="43.6314046" lon="12.8487284"><ele>359.8333333333333</ele><time>2026-04-18T08:38:50.271Z</time></trkpt><trkpt lat="43.6314764" lon="12.8487794"><ele>359.6666666666667</ele><time>2026-04-18T08:38:51.271Z</time></trkpt><trkpt lat="43.6315479" lon="12.8488355"><ele>359.5</ele><time>2026-04-18T08:38:52.27Z</time></trkpt><trkpt lat="43.6316212" lon="12.8488839"><ele>359.33333333333337</ele><time>2026-04-18T08:38:53.27Z</time></trkpt><trkpt lat="43.6316954" lon="12.8489337"><ele>359.1666666666667</ele><time>2026-04-18T08:38:54.27Z</time></trkpt><trkpt lat="43.6317592" lon="12.8489796"><ele>359.0</ele><time>2026-04-18T08:38:55.27Z</time></trkpt><trkpt lat="43.631865" lon="12.8490368"><ele>359.0</ele><time>2026-04-18T08:38:57.27Z</time></trkpt><trkpt lat="43.6319354" lon="12.8490063"><ele>359.0</ele><time>2026-04-18T08:38:59.27Z</time></trkpt><trkpt lat="43.6319685" lon="12.8488944"><ele>359.0</ele><time>2026-04-18T08:39:01.27Z</time></trkpt><trkpt lat="43.6319102" lon="12.8487627"><ele>359.0</ele><time>2026-04-18T08:39:03.27Z</time></trkpt><trkpt lat="43.6318352" lon="12.8486483"><ele>359.0</ele><time>2026-04-18T08:39:05.27Z</time></trkpt><trkpt lat="43.6317729" lon="12.8485505"><ele>361.79999999999995</ele><time>2026-04-18T08:39:07.271Z</time></trkpt><trkpt lat="43.6316985" lon="12.848414"><ele>364.59999999999997</ele><time>2026-04-18T08:39:09.27Z</time></trkpt><trkpt lat="43.6316493" lon="12.8483352"><ele>367.4</ele><time>2026-04-18T08:39:10.271Z</time></trkpt><trkpt lat="43.6315994" lon="12.8482357"><ele>370.2</ele><time>2026-04-18T08:39:11.27Z</time></trkpt><trkpt lat="43.6315469" lon="12.8481307"><ele>373.0</ele><time>2026-04-18T08:39:12.271Z</time></trkpt><trkpt lat="43.6314987" lon="12.8480382"><ele>373.0</ele><time>2026-04-18T08:39:13.27Z</time></trkpt><trkpt lat="43.6314513" lon="12.8479323"><ele>373.0</ele><time>2026-04-18T08:39:14.27Z</time></trkpt><trkpt lat="43.631408" lon="12.8478119"><ele>373.0</ele><time>2026-04-18T08:39:15.271Z</time></trkpt><trkpt lat="43.6313687" lon="12.8476588"><ele>373.0</ele><time>2026-04-18T08:39:16.27Z</time></trkpt><trkpt lat="43.6313321" lon="12.8474998"><ele>373.0</ele><time>2026-04-18T08:39:17.271Z</time></trkpt><trkpt lat="43.6313038" lon="12.8473408"><ele>373.59999999999997</ele><time>2026-04-18T08:39:18.271Z</time></trkpt><trkpt lat="43.6312777" lon="12.8471868"><ele>374.2</ele><time>2026-04-18T08:39:19.271Z</time></trkpt><trkpt lat="43.6312496" lon="12.8470411"><ele>374.8</ele><time>2026-04-18T08:39:20.27Z</time></trkpt><trkpt lat="43.6312336" lon="12.8469056"><ele>375.4</ele><time>2026-04-18T08:39:21.271Z</time></trkpt><trkpt lat="43.6312248" lon="12.8467785"><ele>376.0</ele><time>2026-04-18T08:39:22.271Z</time></trkpt><trkpt lat="43.6312203" lon="12.8466543"><ele>376.66666666666663</ele><time>2026-04-18T08:39:23.27Z</time></trkpt><trkpt lat="43.6312186" lon="12.8465027"><ele>377.3333333333333</ele><time>2026-04-18T08:39:24.271Z</time></trkpt><trkpt lat="43.6312231" lon="12.8463689"><ele>378.0</ele><time>2026-04-18T08:39:25.27Z</time></trkpt><trkpt lat="43.6312221" lon="12.8462689"><ele>378.6666666666667</ele><time>2026-04-18T08:39:26.27Z</time></trkpt><trkpt lat="43.631236" lon="12.8461662"><ele>379.33333333333337</ele><time>2026-04-18T08:39:27.27Z</time></trkpt><trkpt lat="43.6312777" lon="12.8460535"><ele>380.0</ele><time>2026-04-18T08:39:28.271Z</time></trkpt><trkpt lat="43.6313237" lon="12.8459404"><ele>381.1666666666667</ele><time>2026-04-18T08:39:29.271Z</time></trkpt><trkpt lat="43.6313769" lon="12.8458265"><ele>382.33333333333337</ele><time>2026-04-18T08:39:30.27Z</time></trkpt><trkpt lat="43.6314254" lon="12.8457095"><ele>383.5</ele><time>2026-04-18T08:39:31.27Z</time></trkpt><trkpt lat="43.6314689" lon="12.8455995"><ele>384.6666666666667</ele><time>2026-04-18T08:39:32.27Z</time></trkpt><trkpt lat="43.6314994" lon="12.8454992"><ele>385.8333333333333</ele><time>2026-04-18T08:39:33.27Z</time></trkpt><trkpt lat="43.631516" lon="12.8453988"><ele>387.0</ele><time>2026-04-18T08:39:34.271Z</time></trkpt><trkpt lat="43.6315242" lon="12.8453004"><ele>387.0</ele><time>2026-04-18T08:39:35.27Z</time></trkpt><trkpt lat="43.6315395" lon="12.8451985"><ele>387.0</ele><time>2026-04-18T08:39:36.27Z</time></trkpt><trkpt lat="43.6315808" lon="12.8451049"><ele>387.0</ele><time>2026-04-18T08:39:37.271Z</time></trkpt><trkpt lat="43.6316435" lon="12.8450307"><ele>387.0</ele><time>2026-04-18T08:39:38.27Z</time></trkpt><trkpt lat="43.6317146" lon="12.8449651"><ele>387.0</ele><time>2026-04-18T08:39:39.271Z</time></trkpt><trkpt lat="43.6317894" lon="12.844921"><ele>387.0</ele><time>2026-04-18T08:39:40.27Z</time></trkpt><trkpt lat="43.6318609" lon="12.8448933"><ele>387.1666666666667</ele><time>2026-04-18T08:39:41.27Z</time></trkpt><trkpt lat="43.6319224" lon="12.8448583"><ele>387.33333333333337</ele><time>2026-04-18T08:39:42.271Z</time></trkpt><trkpt lat="43.631978" lon="12.8448"><ele>387.5</ele><time>2026-04-18T08:39:43.271Z</time></trkpt><trkpt lat="43.6320292" lon="12.8447127"><ele>387.6666666666667</ele><time>2026-04-18T08:39:44.27Z</time></trkpt><trkpt lat="43.6320837" lon="12.8446162"><ele>387.83333333333337</ele><time>2026-04-18T08:39:45.271Z</time></trkpt><trkpt lat="43.6321375" lon="12.8445174"><ele>388.0</ele><time>2026-04-18T08:39:46.27Z</time></trkpt><trkpt lat="43.6321963" lon="12.844416"><ele>384.59999999999997</ele><time>2026-04-18T08:39:47.271Z</time></trkpt><trkpt lat="43.6322609" lon="12.8443089"><ele>381.2</ele><time>2026-04-18T08:39:48.27Z</time></trkpt><trkpt lat="43.6323293" lon="12.8441986"><ele>377.8</ele><time>2026-04-18T08:39:49.271Z</time></trkpt><trkpt lat="43.6324066" lon="12.8440932"><ele>374.4</ele><time>2026-04-18T08:39:50.271Z</time></trkpt><trkpt lat="43.6324927" lon="12.8440078"><ele>371.0</ele><time>2026-04-18T08:39:51.27Z</time></trkpt><trkpt lat="43.6325749" lon="12.8439438"><ele>371.0</ele><time>2026-04-18T08:39:52.27Z</time></trkpt><trkpt lat="43.6326513" lon="12.8438808"><ele>371.0</ele><time>2026-04-18T08:39:53.271Z</time></trkpt><trkpt lat="43.6327298" lon="12.843816"><ele>371.0</ele><time>2026-04-18T08:39:54.27Z</time></trkpt><trkpt lat="43.6327819" lon="12.8437301"><ele>371.0</ele><time>2026-04-18T08:39:55.27Z</time></trkpt><trkpt lat="43.6328132" lon="12.8436219"><ele>371.0</ele><time>2026-04-18T08:39:56.27Z</time></trkpt><trkpt lat="43.6328318" lon="12.8435048"><ele>371.0</ele><time>2026-04-18T08:39:57.27Z</time></trkpt><trkpt lat="43.6328378" lon="12.8433797"><ele>368.5</ele><time>2026-04-18T08:39:58.27Z</time></trkpt><trkpt lat="43.6328265" lon="12.8432552"><ele>366.0</ele><time>2026-04-18T08:39:59.27Z</time></trkpt><trkpt lat="43.632825" lon="12.8431359"><ele>363.5</ele><time>2026-04-18T08:40:00.27Z</time></trkpt><trkpt lat="43.6328331" lon="12.8430279"><ele>361.0</ele><time>2026-04-18T08:40:01.27Z</time></trkpt><trkpt lat="43.6328728" lon="12.842947"><ele>358.5</ele><time>2026-04-18T08:40:02.27Z</time></trkpt><trkpt lat="43.6329424" lon="12.8428925"><ele>356.0</ele><time>2026-04-18T08:40:03.27Z</time></trkpt><trkpt lat="43.6330239" lon="12.8428294"><ele>356.0</ele><time>2026-04-18T08:40:04.27Z</time></trkpt><trkpt lat="43.6331009" lon="12.8427438"><ele>356.0</ele><time>2026-04-18T08:40:05.27Z</time></trkpt><trkpt lat="43.6331723" lon="12.8426273"><ele>356.0</ele><time>2026-04-18T08:40:06.271Z</time></trkpt><trkpt lat="43.6332442" lon="12.8425004"><ele>356.0</ele><time>2026-04-18T08:40:07.27Z</time></trkpt><trkpt lat="43.633323" lon="12.8423763"><ele>356.0</ele><time>2026-04-18T08:40:08.271Z</time></trkpt><trkpt lat="43.6334005" lon="12.8422507"><ele>355.20000000000005</ele><time>2026-04-18T08:40:09.27Z</time></trkpt><trkpt lat="43.6334757" lon="12.8421346"><ele>354.40000000000003</ele><time>2026-04-18T08:40:10.271Z</time></trkpt><trkpt lat="43.6335503" lon="12.8420359"><ele>353.6</ele><time>2026-04-18T08:40:11.27Z</time></trkpt><trkpt lat="43.6336282" lon="12.8419472"><ele>352.8</ele><time>2026-04-18T08:40:12.271Z</time></trkpt><trkpt lat="43.6337185" lon="12.8418627"><ele>352.0</ele><time>2026-04-18T08:40:13.27Z</time></trkpt><trkpt lat="43.6338102" lon="12.8417842"><ele>352.0</ele><time>2026-04-18T08:40:14.271Z</time></trkpt><trkpt lat="43.6338928" lon="12.8417078"><ele>352.0</ele><time>2026-04-18T08:40:15.27Z</time></trkpt><trkpt lat="43.6339715" lon="12.8416188"><ele>352.0</ele><time>2026-04-18T08:40:16.271Z</time></trkpt><trkpt lat="43.6340421" lon="12.8415161"><ele>352.0</ele><time>2026-04-18T08:40:17.271Z</time></trkpt><trkpt lat="43.6340948" lon="12.8414148"><ele>352.0</ele><time>2026-04-18T08:40:18.271Z</time></trkpt><trkpt lat="43.6341319" lon="12.8413153"><ele>352.0</ele><time>2026-04-18T08:40:19.27Z</time></trkpt><trkpt lat="43.6341476" lon="12.8412035"><ele>352.0</ele><time>2026-04-18T08:40:20.27Z</time></trkpt><trkpt lat="43.6341349" lon="12.841077"><ele>352.0</ele><time>2026-04-18T08:40:21.271Z</time></trkpt><trkpt lat="43.6341025" lon="12.8409372"><ele>352.0</ele><time>2026-04-18T08:40:22.27Z</time></trkpt><trkpt lat="43.6340542" lon="12.8407957"><ele>352.0</ele><time>2026-04-18T08:40:23.271Z</time></trkpt><trkpt lat="43.6340178" lon="12.8406584"><ele>353.3333333333333</ele><time>2026-04-18T08:40:24.27Z</time></trkpt><trkpt lat="43.6339963" lon="12.8405378"><ele>354.66666666666663</ele><time>2026-04-18T08:40:25.271Z</time></trkpt><trkpt lat="43.6339851" lon="12.8404277"><ele>356.0</ele><time>2026-04-18T08:40:26.27Z</time></trkpt><trkpt lat="43.6339749" lon="12.8403226"><ele>357.3333333333333</ele><time>2026-04-18T08:40:27.271Z</time></trkpt><trkpt lat="43.6339363" lon="12.8402445"><ele>358.6666666666667</ele><time>2026-04-18T08:40:28.271Z</time></trkpt><trkpt lat="43.6338672" lon="12.8401764"><ele>360.0</ele><time>2026-04-18T08:40:29.27Z</time></trkpt><trkpt lat="43.633792" lon="12.8401192"><ele>360.0</ele><time>2026-04-18T08:40:30.27Z</time></trkpt><trkpt lat="43.6337201" lon="12.840062"><ele>360.0</ele><time>2026-04-18T08:40:31.27Z</time></trkpt><trkpt lat="43.6336573" lon="12.8399855"><ele>360.0</ele><time>2026-04-18T08:40:32.27Z</time></trkpt><trkpt lat="43.633643" lon="12.8398624"><ele>360.0</ele><time>2026-04-18T08:40:33.27Z</time></trkpt><trkpt lat="43.6336404" lon="12.8397339"><ele>360.0</ele><time>2026-04-18T08:40:34.27Z</time></trkpt><trkpt lat="43.6336418" lon="12.8396013"><ele>360.0</ele><time>2026-04-18T08:40:35.27Z</time></trkpt><trkpt lat="43.6336401" lon="12.8394782"><ele>360.0</ele><time>2026-04-18T08:40:36.27Z</time></trkpt><trkpt lat="43.6336396" lon="12.8393513"><ele>360.0</ele><time>2026-04-18T08:40:37.271Z</time></trkpt><trkpt lat="43.6336448" lon="12.8392166"><ele>360.0</ele><time>2026-04-18T08:40:38.271Z</time></trkpt><trkpt lat="43.6336539" lon="12.8390652"><ele>360.0</ele><time>2026-04-18T08:40:39.27Z</time></trkpt><trkpt lat="43.6336611" lon="12.838911"><ele>360.0</ele><time>2026-04-18T08:40:40.27Z</time></trkpt><trkpt lat="43.6336692" lon="12.8387484"><ele>359.8</ele><time>2026-04-18T08:40:41.27Z</time></trkpt><trkpt lat="43.6336786" lon="12.8385898"><ele>359.6</ele><time>2026-04-18T08:40:42.27Z</time></trkpt><trkpt lat="43.6336735" lon="12.8384312"><ele>359.4</ele><time>2026-04-18T08:40:43.27Z</time></trkpt><trkpt lat="43.6336885" lon="12.8382871"><ele>359.2</ele><time>2026-04-18T08:40:44.271Z</time></trkpt><trkpt lat="43.6337019" lon="12.8381673"><ele>359.0</ele><time>2026-04-18T08:40:45.271Z</time></trkpt><trkpt lat="43.6337103" lon="12.8380615"><ele>359.1666666666667</ele><time>2026-04-18T08:40:46.271Z</time></trkpt><trkpt lat="43.63372" lon="12.8379536"><ele>359.33333333333337</ele><time>2026-04-18T08:40:47.271Z</time></trkpt><trkpt lat="43.6337237" lon="12.8378537"><ele>359.5</ele><time>2026-04-18T08:40:48.27Z</time></trkpt><trkpt lat="43.6336759" lon="12.8377247"><ele>359.6666666666667</ele><time>2026-04-18T08:40:50.271Z</time></trkpt><trkpt lat="43.6336197" lon="12.837684"><ele>359.8333333333333</ele><time>2026-04-18T08:40:51.27Z</time></trkpt><trkpt lat="43.6335454" lon="12.8376599"><ele>360.0</ele><time>2026-04-18T08:40:52.27Z</time></trkpt><trkpt lat="43.6334529" lon="12.8376228"><ele>360.0</ele><time>2026-04-18T08:40:53.27Z</time></trkpt><trkpt lat="43.6333534" lon="12.8375777"><ele>360.0</ele><time>2026-04-18T08:40:54.27Z</time></trkpt><trkpt lat="43.6332521" lon="12.8375304"><ele>360.0</ele><time>2026-04-18T08:40:55.27Z</time></trkpt><trkpt lat="43.6331566" lon="12.8375002"><ele>360.0</ele><time>2026-04-18T08:40:56.27Z</time></trkpt><trkpt lat="43.6330718" lon="12.8374965"><ele>360.0</ele><time>2026-04-18T08:40:57.27Z</time></trkpt><trkpt lat="43.6330013" lon="12.8374907"><ele>360.0</ele><time>2026-04-18T08:40:58.271Z</time></trkpt><trkpt lat="43.632926" lon="12.8374547"><ele>360.0</ele><time>2026-04-18T08:40:59.27Z</time></trkpt><trkpt lat="43.6328503" lon="12.837384"><ele>360.0</ele><time>2026-04-18T08:41:00.27Z</time></trkpt><trkpt lat="43.6327806" lon="12.8372833"><ele>360.0</ele><time>2026-04-18T08:41:01.27Z</time></trkpt><trkpt lat="43.6327225" lon="12.837184"><ele>360.0</ele><time>2026-04-18T08:41:02.271Z</time></trkpt><trkpt lat="43.6326652" lon="12.8370843"><ele>359.6</ele><time>2026-04-18T08:41:03.27Z</time></trkpt><trkpt lat="43.6326072" lon="12.8369815"><ele>359.2</ele><time>2026-04-18T08:41:04.27Z</time></trkpt><trkpt lat="43.632551" lon="12.8368752"><ele>358.79999999999995</ele><time>2026-04-18T08:41:05.27Z</time></trkpt><trkpt lat="43.6324899" lon="12.836784"><ele>358.4</ele><time>2026-04-18T08:41:06.27Z</time></trkpt><trkpt lat="43.6324052" lon="12.83672"><ele>358.0</ele><time>2026-04-18T08:41:07.27Z</time></trkpt><trkpt lat="43.6323123" lon="12.8366862"><ele>358.0</ele><time>2026-04-18T08:41:08.271Z</time></trkpt><trkpt lat="43.6322404" lon="12.8366764"><ele>358.0</ele><time>2026-04-18T08:41:09.27Z</time></trkpt><trkpt lat="43.6321729" lon="12.8366495"><ele>358.0</ele><time>2026-04-18T08:41:10.27Z</time></trkpt><trkpt lat="43.632113" lon="12.836581"><ele>358.0</ele><time>2026-04-18T08:41:11.27Z</time></trkpt><trkpt lat="43.6321066" lon="12.8364504"><ele>358.0</ele><time>2026-04-18T08:41:12.271Z</time></trkpt><trkpt lat="43.6321196" lon="12.8363044"><ele>358.0</ele><time>2026-04-18T08:41:13.27Z</time></trkpt><trkpt lat="43.6321357" lon="12.8361253"><ele>355.5</ele><time>2026-04-18T08:41:14.27Z</time></trkpt><trkpt lat="43.6321561" lon="12.8359488"><ele>353.0</ele><time>2026-04-18T08:41:15.27Z</time></trkpt><trkpt lat="43.6321554" lon="12.8357926"><ele>350.5</ele><time>2026-04-18T08:41:16.271Z</time></trkpt><trkpt lat="43.6321275" lon="12.8356476"><ele>348.0</ele><time>2026-04-18T08:41:17.27Z</time></trkpt><trkpt lat="43.6320783" lon="12.8355154"><ele>348.0</ele><time>2026-04-18T08:41:18.271Z</time></trkpt><trkpt lat="43.6320096" lon="12.8354094"><ele>348.0</ele><time>2026-04-18T08:41:19.271Z</time></trkpt><trkpt lat="43.6319312" lon="12.8353358"><ele>348.0</ele><time>2026-04-18T08:41:20.271Z</time></trkpt><trkpt lat="43.6318434" lon="12.8352709"><ele>348.0</ele><time>2026-04-18T08:41:21.271Z</time></trkpt><trkpt lat="43.6317442" lon="12.8352213"><ele>348.0</ele><time>2026-04-18T08:41:22.27Z</time></trkpt><trkpt lat="43.6316385" lon="12.835191"><ele>351.4</ele><time>2026-04-18T08:41:23.27Z</time></trkpt><trkpt lat="43.6315374" lon="12.8351647"><ele>354.79999999999995</ele><time>2026-04-18T08:41:24.271Z</time></trkpt><trkpt lat="43.6314541" lon="12.8351293"><ele>358.2</ele><time>2026-04-18T08:41:25.27Z</time></trkpt><trkpt lat="43.6313725" lon="12.8350881"><ele>361.6</ele><time>2026-04-18T08:41:26.27Z</time></trkpt><trkpt lat="43.6312856" lon="12.8350724"><ele>365.0</ele><time>2026-04-18T08:41:27.27Z</time></trkpt><trkpt lat="43.6311918" lon="12.8350975"><ele>369.6666666666667</ele><time>2026-04-18T08:41:28.271Z</time></trkpt><trkpt lat="43.6311009" lon="12.8351533"><ele>374.33333333333337</ele><time>2026-04-18T08:41:29.27Z</time></trkpt><trkpt lat="43.6310188" lon="12.8352073"><ele>379.0</ele><time>2026-04-18T08:41:30.271Z</time></trkpt><trkpt lat="43.6309394" lon="12.8352354"><ele>383.6666666666667</ele><time>2026-04-18T08:41:31.27Z</time></trkpt><trkpt lat="43.630861" lon="12.835237"><ele>388.3333333333333</ele><time>2026-04-18T08:41:32.27Z</time></trkpt><trkpt lat="43.6307896" lon="12.8352343"><ele>393.0</ele><time>2026-04-18T08:41:33.271Z</time></trkpt><trkpt lat="43.6307222" lon="12.8352119"><ele>393.0</ele><time>2026-04-18T08:41:34.271Z</time></trkpt><trkpt lat="43.6306443" lon="12.8351703"><ele>393.0</ele><time>2026-04-18T08:41:35.27Z</time></trkpt><trkpt lat="43.6306231" lon="12.835019"><ele>393.0</ele><time>2026-04-18T08:41:36.27Z</time></trkpt><trkpt lat="43.6305805" lon="12.8348937"><ele>393.0</ele><time>2026-04-18T08:41:37.27Z</time></trkpt><trkpt lat="43.6305173" lon="12.8348119"><ele>393.0</ele><time>2026-04-18T08:41:38.27Z</time></trkpt><trkpt lat="43.6304287" lon="12.83477"><ele>390.0</ele><time>2026-04-18T08:41:39.27Z</time></trkpt><trkpt lat="43.6303253" lon="12.8347477"><ele>387.0</ele><time>2026-04-18T08:41:40.27Z</time></trkpt><trkpt lat="43.6302132" lon="12.8347361"><ele>384.0</ele><time>2026-04-18T08:41:41.271Z</time></trkpt><trkpt lat="43.6301139" lon="12.8347266"><ele>381.0</ele><time>2026-04-18T08:41:42.27Z</time></trkpt><trkpt lat="43.6300222" lon="12.8347083"><ele>378.0</ele><time>2026-04-18T08:41:43.27Z</time></trkpt><trkpt lat="43.629937" lon="12.8347064"><ele>378.0</ele><time>2026-04-18T08:41:44.27Z</time></trkpt><trkpt lat="43.62985" lon="12.8347389"><ele>378.0</ele><time>2026-04-18T08:41:45.271Z</time></trkpt><trkpt lat="43.6297548" lon="12.8347895"><ele>378.0</ele><time>2026-04-18T08:41:46.27Z</time></trkpt><trkpt lat="43.6296702" lon="12.8348624"><ele>378.0</ele><time>2026-04-18T08:41:47.27Z</time></trkpt><trkpt lat="43.6295915" lon="12.8349464"><ele>378.0</ele><time>2026-04-18T08:41:48.271Z</time></trkpt><trkpt lat="43.6295085" lon="12.8350157"><ele>378.59999999999997</ele><time>2026-04-18T08:41:49.27Z</time></trkpt><trkpt lat="43.629423" lon="12.8350588"><ele>379.2</ele><time>2026-04-18T08:41:50.27Z</time></trkpt><trkpt lat="43.6293358" lon="12.8350628"><ele>379.8</ele><time>2026-04-18T08:41:51.27Z</time></trkpt><trkpt lat="43.6292543" lon="12.8350138"><ele>380.4</ele><time>2026-04-18T08:41:52.271Z</time></trkpt><trkpt lat="43.6291714" lon="12.8349528"><ele>381.0</ele><time>2026-04-18T08:41:53.27Z</time></trkpt><trkpt lat="43.6290992" lon="12.8348536"><ele>381.0</ele><time>2026-04-18T08:41:54.27Z</time></trkpt><trkpt lat="43.6290218" lon="12.8347728"><ele>381.0</ele><time>2026-04-18T08:41:55.27Z</time></trkpt><trkpt lat="43.6289295" lon="12.8347322"><ele>381.0</ele><time>2026-04-18T08:41:56.271Z</time></trkpt><trkpt lat="43.6288237" lon="12.8347186"><ele>381.0</ele><time>2026-04-18T08:41:57.27Z</time></trkpt><trkpt lat="43.6287315" lon="12.8346963"><ele>381.0</ele><time>2026-04-18T08:41:58.27Z</time></trkpt><trkpt lat="43.628655" lon="12.8346556"><ele>381.1666666666667</ele><time>2026-04-18T08:41:59.271Z</time></trkpt><trkpt lat="43.6285815" lon="12.8345889"><ele>381.3333333333333</ele><time>2026-04-18T08:42:00.271Z</time></trkpt><trkpt lat="43.6285223" lon="12.8345013"><ele>381.5</ele><time>2026-04-18T08:42:01.27Z</time></trkpt><trkpt lat="43.6284726" lon="12.8344085"><ele>381.66666666666663</ele><time>2026-04-18T08:42:02.271Z</time></trkpt><trkpt lat="43.6284107" lon="12.8343313"><ele>381.8333333333333</ele><time>2026-04-18T08:42:03.271Z</time></trkpt><trkpt lat="43.6283361" lon="12.8342692"><ele>382.0</ele><time>2026-04-18T08:42:04.27Z</time></trkpt><trkpt lat="43.6282503" lon="12.8342237"><ele>380.66666666666663</ele><time>2026-04-18T08:42:05.27Z</time></trkpt><trkpt lat="43.6281538" lon="12.8341851"><ele>379.3333333333333</ele><time>2026-04-18T08:42:06.27Z</time></trkpt><trkpt lat="43.6280566" lon="12.8341571"><ele>378.0</ele><time>2026-04-18T08:42:07.27Z</time></trkpt><trkpt lat="43.6279646" lon="12.8341369"><ele>376.6666666666667</ele><time>2026-04-18T08:42:08.271Z</time></trkpt><trkpt lat="43.6278831" lon="12.8341291"><ele>375.33333333333337</ele><time>2026-04-18T08:42:09.271Z</time></trkpt><trkpt lat="43.6278103" lon="12.8341404"><ele>374.0</ele><time>2026-04-18T08:42:10.27Z</time></trkpt><trkpt lat="43.6277425" lon="12.8341727"><ele>374.1666666666667</ele><time>2026-04-18T08:42:11.27Z</time></trkpt><trkpt lat="43.6276822" lon="12.8342271"><ele>374.33333333333337</ele><time>2026-04-18T08:42:12.271Z</time></trkpt><trkpt lat="43.6276206" lon="12.8343024"><ele>374.5</ele><time>2026-04-18T08:42:13.27Z</time></trkpt><trkpt lat="43.62756" lon="12.8343912"><ele>374.6666666666667</ele><time>2026-04-18T08:42:14.271Z</time></trkpt><trkpt lat="43.6275058" lon="12.8344728"><ele>374.8333333333333</ele><time>2026-04-18T08:42:15.271Z</time></trkpt><trkpt lat="43.6274541" lon="12.8345411"><ele>375.0</ele><time>2026-04-18T08:42:16.27Z</time></trkpt><trkpt lat="43.6273944" lon="12.8345792"><ele>375.0</ele><time>2026-04-18T08:42:17.271Z</time></trkpt><trkpt lat="43.6273286" lon="12.8345648"><ele>375.0</ele><time>2026-04-18T08:42:18.271Z</time></trkpt><trkpt lat="43.6272544" lon="12.8345148"><ele>375.0</ele><time>2026-04-18T08:42:19.27Z</time></trkpt><trkpt lat="43.6271972" lon="12.8343803"><ele>375.0</ele><time>2026-04-18T08:42:20.27Z</time></trkpt><trkpt lat="43.6271481" lon="12.8342194"><ele>375.0</ele><time>2026-04-18T08:42:21.271Z</time></trkpt><trkpt lat="43.6270994" lon="12.8340857"><ele>372.6</ele><time>2026-04-18T08:42:22.27Z</time></trkpt><trkpt lat="43.6270516" lon="12.8339648"><ele>370.2</ele><time>2026-04-18T08:42:23.27Z</time></trkpt><trkpt lat="43.6269993" lon="12.8338563"><ele>367.79999999999995</ele><time>2026-04-18T08:42:24.271Z</time></trkpt><trkpt lat="43.626937" lon="12.8337681"><ele>365.4</ele><time>2026-04-18T08:42:25.271Z</time></trkpt><trkpt lat="43.6268478" lon="12.8336886"><ele>363.0</ele><time>2026-04-18T08:42:26.271Z</time></trkpt><trkpt lat="43.6267357" lon="12.8336273"><ele>363.0</ele><time>2026-04-18T08:42:27.27Z</time></trkpt><trkpt lat="43.62662" lon="12.8335902"><ele>363.0</ele><time>2026-04-18T08:42:28.27Z</time></trkpt><trkpt lat="43.6265022" lon="12.833566"><ele>363.0</ele><time>2026-04-18T08:42:29.271Z</time></trkpt><trkpt lat="43.6263875" lon="12.833543"><ele>363.0</ele><time>2026-04-18T08:42:30.27Z</time></trkpt><trkpt lat="43.6262805" lon="12.833512"><ele>359.79999999999995</ele><time>2026-04-18T08:42:31.27Z</time></trkpt><trkpt lat="43.6261753" lon="12.8334697"><ele>356.6</ele><time>2026-04-18T08:42:32.271Z</time></trkpt><trkpt lat="43.6260672" lon="12.8334354"><ele>353.4</ele><time>2026-04-18T08:42:33.27Z</time></trkpt><trkpt lat="43.6259571" lon="12.833427"><ele>350.20000000000005</ele><time>2026-04-18T08:42:34.27Z</time></trkpt><trkpt lat="43.6258429" lon="12.8334319"><ele>347.0</ele><time>2026-04-18T08:42:35.271Z</time></trkpt><trkpt lat="43.6257286" lon="12.8334306"><ele>346.6</ele><time>2026-04-18T08:42:36.27Z</time></trkpt><trkpt lat="43.6256227" lon="12.8334143"><ele>346.20000000000005</ele><time>2026-04-18T08:42:37.271Z</time></trkpt><trkpt lat="43.6255249" lon="12.8333985"><ele>345.8</ele><time>2026-04-18T08:42:38.271Z</time></trkpt><trkpt lat="43.6254294" lon="12.8333998"><ele>345.4</ele><time>2026-04-18T08:42:39.27Z</time></trkpt><trkpt lat="43.6253286" lon="12.8334361"><ele>345.0</ele><time>2026-04-18T08:42:40.27Z</time></trkpt><trkpt lat="43.6252374" lon="12.8335006"><ele>345.0</ele><time>2026-04-18T08:42:41.27Z</time></trkpt><trkpt lat="43.6251685" lon="12.8335904"><ele>345.0</ele><time>2026-04-18T08:42:42.271Z</time></trkpt><trkpt lat="43.6251189" lon="12.8337004"><ele>345.0</ele><time>2026-04-18T08:42:43.271Z</time></trkpt><trkpt lat="43.6250815" lon="12.8338186"><ele>345.0</ele><time>2026-04-18T08:42:44.27Z</time></trkpt><trkpt lat="43.6250512" lon="12.8339261"><ele>345.0</ele><time>2026-04-18T08:42:45.271Z</time></trkpt><trkpt lat="43.6250217" lon="12.8340191"><ele>345.0</ele><time>2026-04-18T08:42:46.27Z</time></trkpt><trkpt lat="43.6249838" lon="12.8340991"><ele>345.0</ele><time>2026-04-18T08:42:47.27Z</time></trkpt><trkpt lat="43.6249406" lon="12.8341662"><ele>345.0</ele><time>2026-04-18T08:42:48.27Z</time></trkpt><trkpt lat="43.6248822" lon="12.8342441"><ele>345.0</ele><time>2026-04-18T08:42:50.27Z</time></trkpt><trkpt lat="43.6248321" lon="12.834155"><ele>345.0</ele><time>2026-04-18T08:42:53.27Z</time></trkpt><trkpt lat="43.6248649" lon="12.8340534"><ele>345.0</ele><time>2026-04-18T08:42:55.27Z</time></trkpt><trkpt lat="43.624917" lon="12.8339544"><ele>345.0</ele><time>2026-04-18T08:42:57.27Z</time></trkpt><trkpt lat="43.6249552" lon="12.8338698"><ele>345.0</ele><time>2026-04-18T08:43:00.315Z</time></trkpt><trkpt lat="43.6250047" lon="12.8338155"><ele>345.0</ele><time>2026-04-18T08:43:04.27Z</time></trkpt><trkpt lat="43.6249399" lon="12.8338538"><ele>345.0</ele><time>2026-04-18T08:43:36.27Z</time></trkpt><trkpt lat="43.6249091" lon="12.8339795"><ele>345.0</ele><time>2026-04-18T08:43:38.271Z</time></trkpt><trkpt lat="43.6248472" lon="12.8341188"><ele>345.0</ele><time>2026-04-18T08:43:40.27Z</time></trkpt><trkpt lat="43.624808" lon="12.8342074"><ele>345.0</ele><time>2026-04-18T08:43:41.27Z</time></trkpt><trkpt lat="43.6247705" lon="12.8342943"><ele>346.5</ele><time>2026-04-18T08:43:42.27Z</time></trkpt><trkpt lat="43.6247263" lon="12.8343789"><ele>348.0</ele><time>2026-04-18T08:43:43.271Z</time></trkpt><trkpt lat="43.6246817" lon="12.8344616"><ele>349.5</ele><time>2026-04-18T08:43:44.27Z</time></trkpt><trkpt lat="43.6246397" lon="12.8345389"><ele>351.0</ele><time>2026-04-18T08:43:45.27Z</time></trkpt><trkpt lat="43.6245986" lon="12.8346071"><ele>352.5</ele><time>2026-04-18T08:43:46.271Z</time></trkpt><trkpt lat="43.6245267" lon="12.8347201"><ele>354.0</ele><time>2026-04-18T08:43:48.27Z</time></trkpt><trkpt lat="43.6244131" lon="12.8347703"><ele>354.0</ele><time>2026-04-18T08:43:50.271Z</time></trkpt><trkpt lat="43.6243501" lon="12.8347443"><ele>354.0</ele><time>2026-04-18T08:43:51.27Z</time></trkpt><trkpt lat="43.6243045" lon="12.8346813"><ele>354.0</ele><time>2026-04-18T08:43:52.27Z</time></trkpt><trkpt lat="43.6242737" lon="12.8345772"><ele>354.0</ele><time>2026-04-18T08:43:53.27Z</time></trkpt><trkpt lat="43.6242526" lon="12.8344414"><ele>354.0</ele><time>2026-04-18T08:43:54.27Z</time></trkpt><trkpt lat="43.6242432" lon="12.8343095"><ele>354.0</ele><time>2026-04-18T08:43:55.27Z</time></trkpt><trkpt lat="43.6242415" lon="12.8341888"><ele>352.4</ele><time>2026-04-18T08:43:56.27Z</time></trkpt><trkpt lat="43.6242326" lon="12.8340706"><ele>350.79999999999995</ele><time>2026-04-18T08:43:57.27Z</time></trkpt><trkpt lat="43.6242029" lon="12.8339541"><ele>349.20000000000005</ele><time>2026-04-18T08:43:58.27Z</time></trkpt><trkpt lat="43.6241505" lon="12.8338397"><ele>347.6</ele><time>2026-04-18T08:43:59.27Z</time></trkpt><trkpt lat="43.6240857" lon="12.8337389"><ele>346.0</ele><time>2026-04-18T08:44:00.27Z</time></trkpt><trkpt lat="43.6240099" lon="12.8336592"><ele>346.0</ele><time>2026-04-18T08:44:01.27Z</time></trkpt><trkpt lat="43.6239279" lon="12.833591"><ele>346.0</ele><time>2026-04-18T08:44:02.27Z</time></trkpt><trkpt lat="43.6238308" lon="12.8335224"><ele>346.0</ele><time>2026-04-18T08:44:03.27Z</time></trkpt><trkpt lat="43.6237264" lon="12.833443"><ele>346.0</ele><time>2026-04-18T08:44:04.27Z</time></trkpt><trkpt lat="43.6236092" lon="12.8333474"><ele>348.25</ele><time>2026-04-18T08:44:05.27Z</time></trkpt><trkpt lat="43.6234936" lon="12.8332423"><ele>350.5</ele><time>2026-04-18T08:44:06.27Z</time></trkpt><trkpt lat="43.6233848" lon="12.8331293"><ele>352.75</ele><time>2026-04-18T08:44:07.271Z</time></trkpt><trkpt lat="43.6232736" lon="12.83301"><ele>355.0</ele><time>2026-04-18T08:44:08.27Z</time></trkpt><trkpt lat="43.6231598" lon="12.8328911"><ele>355.0</ele><time>2026-04-18T08:44:09.27Z</time></trkpt><trkpt lat="43.6230534" lon="12.8327704"><ele>355.0</ele><time>2026-04-18T08:44:10.271Z</time></trkpt><trkpt lat="43.6229518" lon="12.8326574"><ele>355.0</ele><time>2026-04-18T08:44:11.271Z</time></trkpt><trkpt lat="43.6228471" lon="12.8325567"><ele>355.0</ele><time>2026-04-18T08:44:12.27Z</time></trkpt><trkpt lat="43.6227469" lon="12.832467"><ele>355.2</ele><time>2026-04-18T08:44:13.271Z</time></trkpt><trkpt lat="43.6226549" lon="12.8323902"><ele>355.4</ele><time>2026-04-18T08:44:14.271Z</time></trkpt><trkpt lat="43.6225652" lon="12.8323214"><ele>355.6</ele><time>2026-04-18T08:44:15.27Z</time></trkpt><trkpt lat="43.6224759" lon="12.8322491"><ele>355.8</ele><time>2026-04-18T08:44:16.271Z</time></trkpt><trkpt lat="43.6223838" lon="12.8321598"><ele>356.0</ele><time>2026-04-18T08:44:17.271Z</time></trkpt><trkpt lat="43.6222962" lon="12.8320458"><ele>356.0</ele><time>2026-04-18T08:44:18.27Z</time></trkpt><trkpt lat="43.6222106" lon="12.831916"><ele>356.0</ele><time>2026-04-18T08:44:19.27Z</time></trkpt><trkpt lat="43.6221322" lon="12.8317818"><ele>356.0</ele><time>2026-04-18T08:44:20.271Z</time></trkpt><trkpt lat="43.6220655" lon="12.8316436"><ele>356.0</ele><time>2026-04-18T08:44:21.27Z</time></trkpt><trkpt lat="43.6220038" lon="12.8314993"><ele>355.25</ele><time>2026-04-18T08:44:22.271Z</time></trkpt><trkpt lat="43.6219426" lon="12.8313449"><ele>354.5</ele><time>2026-04-18T08:44:23.27Z</time></trkpt><trkpt lat="43.6218918" lon="12.8311874"><ele>353.75</ele><time>2026-04-18T08:44:24.27Z</time></trkpt><trkpt lat="43.6218562" lon="12.8310346"><ele>353.0</ele><time>2026-04-18T08:44:25.271Z</time></trkpt><trkpt lat="43.6218261" lon="12.8308937"><ele>353.0</ele><time>2026-04-18T08:44:26.27Z</time></trkpt><trkpt lat="43.6217941" lon="12.8307669"><ele>353.0</ele><time>2026-04-18T08:44:27.27Z</time></trkpt><trkpt lat="43.6217627" lon="12.8306576"><ele>353.0</ele><time>2026-04-18T08:44:28.27Z</time></trkpt><trkpt lat="43.6217249" lon="12.8305591"><ele>353.0</ele><time>2026-04-18T08:44:29.27Z</time></trkpt><trkpt lat="43.6216788" lon="12.8304618"><ele>353.0</ele><time>2026-04-18T08:44:30.27Z</time></trkpt><trkpt lat="43.6216227" lon="12.8303691"><ele>353.0</ele><time>2026-04-18T08:44:31.27Z</time></trkpt><trkpt lat="43.6215618" lon="12.83028"><ele>353.0</ele><time>2026-04-18T08:44:32.27Z</time></trkpt><trkpt lat="43.6214863" lon="12.8301947"><ele>353.0</ele><time>2026-04-18T08:44:33.27Z</time></trkpt><trkpt lat="43.6214001" lon="12.8301156"><ele>353.0</ele><time>2026-04-18T08:44:34.27Z</time></trkpt><trkpt lat="43.6213093" lon="12.8300387"><ele>353.0</ele><time>2026-04-18T08:44:35.27Z</time></trkpt><trkpt lat="43.6212188" lon="12.8299555"><ele>353.0</ele><time>2026-04-18T08:44:36.271Z</time></trkpt><trkpt lat="43.6211285" lon="12.8298693"><ele>353.5</ele><time>2026-04-18T08:44:37.27Z</time></trkpt><trkpt lat="43.621024" lon="12.8297804"><ele>354.0</ele><time>2026-04-18T08:44:38.271Z</time></trkpt><trkpt lat="43.620911" lon="12.8296731"><ele>354.5</ele><time>2026-04-18T08:44:39.27Z</time></trkpt><trkpt lat="43.6207982" lon="12.8295444"><ele>355.0</ele><time>2026-04-18T08:44:40.27Z</time></trkpt><trkpt lat="43.6206949" lon="12.8294074"><ele>354.25</ele><time>2026-04-18T08:44:41.27Z</time></trkpt><trkpt lat="43.6205982" lon="12.8292651"><ele>353.5</ele><time>2026-04-18T08:44:42.27Z</time></trkpt><trkpt lat="43.6205034" lon="12.8291199"><ele>352.75</ele><time>2026-04-18T08:44:43.27Z</time></trkpt><trkpt lat="43.6204154" lon="12.8289749"><ele>352.0</ele><time>2026-04-18T08:44:44.27Z</time></trkpt><trkpt lat="43.6203394" lon="12.8288342"><ele>351.6</ele><time>2026-04-18T08:44:45.27Z</time></trkpt><trkpt lat="43.6202656" lon="12.8287107"><ele>351.20000000000005</ele><time>2026-04-18T08:44:46.271Z</time></trkpt><trkpt lat="43.6201964" lon="12.8285988"><ele>350.8</ele><time>2026-04-18T08:44:47.271Z</time></trkpt><trkpt lat="43.6201254" lon="12.8284952"><ele>350.4</ele><time>2026-04-18T08:44:48.27Z</time></trkpt><trkpt lat="43.6200414" lon="12.8284026"><ele>350.0</ele><time>2026-04-18T08:44:49.27Z</time></trkpt><trkpt lat="43.6199428" lon="12.8283155"><ele>351.5</ele><time>2026-04-18T08:44:50.27Z</time></trkpt><trkpt lat="43.6198367" lon="12.8282372"><ele>353.0</ele><time>2026-04-18T08:44:51.271Z</time></trkpt><trkpt lat="43.6197215" lon="12.8281717"><ele>354.5</ele><time>2026-04-18T08:44:52.27Z</time></trkpt><trkpt lat="43.6196055" lon="12.8281166"><ele>356.0</ele><time>2026-04-18T08:44:53.271Z</time></trkpt><trkpt lat="43.619486" lon="12.8280561"><ele>352.0</ele><time>2026-04-18T08:44:54.27Z</time></trkpt><trkpt lat="43.6193689" lon="12.8279787"><ele>348.0</ele><time>2026-04-18T08:44:55.27Z</time></trkpt><trkpt lat="43.6192571" lon="12.8278987"><ele>344.0</ele><time>2026-04-18T08:44:56.27Z</time></trkpt><trkpt lat="43.6191512" lon="12.8278337"><ele>340.0</ele><time>2026-04-18T08:44:57.27Z</time></trkpt><trkpt lat="43.6190508" lon="12.827768"><ele>340.0</ele><time>2026-04-18T08:44:58.27Z</time></trkpt><trkpt lat="43.6189561" lon="12.8276991"><ele>340.0</ele><time>2026-04-18T08:44:59.271Z</time></trkpt><trkpt lat="43.6188735" lon="12.8276254"><ele>340.0</ele><time>2026-04-18T08:45:00.27Z</time></trkpt><trkpt lat="43.618804" lon="12.8275348"><ele>340.0</ele><time>2026-04-18T08:45:01.271Z</time></trkpt><trkpt lat="43.6187533" lon="12.8274254"><ele>340.0</ele><time>2026-04-18T08:45:02.271Z</time></trkpt><trkpt lat="43.618728" lon="12.8272979"><ele>339.4</ele><time>2026-04-18T08:45:03.27Z</time></trkpt><trkpt lat="43.6187211" lon="12.8271667"><ele>338.8</ele><time>2026-04-18T08:45:04.27Z</time></trkpt><trkpt lat="43.618716" lon="12.8270432"><ele>338.20000000000005</ele><time>2026-04-18T08:45:05.271Z</time></trkpt><trkpt lat="43.6186935" lon="12.8269332"><ele>337.6</ele><time>2026-04-18T08:45:06.271Z</time></trkpt><trkpt lat="43.6186446" lon="12.8268394"><ele>337.0</ele><time>2026-04-18T08:45:07.27Z</time></trkpt><trkpt lat="43.6185681" lon="12.8267453"><ele>336.75</ele><time>2026-04-18T08:45:08.27Z</time></trkpt><trkpt lat="43.6184801" lon="12.8266636"><ele>336.5</ele><time>2026-04-18T08:45:09.271Z</time></trkpt><trkpt lat="43.6183756" lon="12.8266047"><ele>336.25</ele><time>2026-04-18T08:45:10.27Z</time></trkpt><trkpt lat="43.6182512" lon="12.8265549"><ele>336.0</ele><time>2026-04-18T08:45:11.27Z</time></trkpt><trkpt lat="43.6181257" lon="12.8265147"><ele>336.0</ele><time>2026-04-18T08:45:12.271Z</time></trkpt><trkpt lat="43.6180049" lon="12.8264761"><ele>336.0</ele><time>2026-04-18T08:45:13.27Z</time></trkpt><trkpt lat="43.6178782" lon="12.8264424"><ele>336.0</ele><time>2026-04-18T08:45:14.271Z</time></trkpt><trkpt lat="43.6177456" lon="12.8264175"><ele>336.0</ele><time>2026-04-18T08:45:15.27Z</time></trkpt><trkpt lat="43.617614" lon="12.8263977"><ele>334.25</ele><time>2026-04-18T08:45:16.27Z</time></trkpt><trkpt lat="43.6174836" lon="12.8263842"><ele>332.5</ele><time>2026-04-18T08:45:17.27Z</time></trkpt><trkpt lat="43.6173532" lon="12.8263693"><ele>330.75</ele><time>2026-04-18T08:45:18.27Z</time></trkpt><trkpt lat="43.6172248" lon="12.8263489"><ele>329.0</ele><time>2026-04-18T08:45:19.27Z</time></trkpt><trkpt lat="43.6170972" lon="12.8263225"><ele>329.0</ele><time>2026-04-18T08:45:20.271Z</time></trkpt><trkpt lat="43.6169734" lon="12.8262863"><ele>329.0</ele><time>2026-04-18T08:45:21.271Z</time></trkpt><trkpt lat="43.616857" lon="12.8262392"><ele>329.0</ele><time>2026-04-18T08:45:22.271Z</time></trkpt><trkpt lat="43.6167428" lon="12.8261645"><ele>329.0</ele><time>2026-04-18T08:45:23.27Z</time></trkpt><trkpt lat="43.6166339" lon="12.8260652"><ele>326.4</ele><time>2026-04-18T08:45:24.27Z</time></trkpt><trkpt lat="43.6165364" lon="12.8259638"><ele>323.79999999999995</ele><time>2026-04-18T08:45:25.27Z</time></trkpt><trkpt lat="43.6164443" lon="12.8258698"><ele>321.20000000000005</ele><time>2026-04-18T08:45:26.27Z</time></trkpt><trkpt lat="43.6163706" lon="12.8257663"><ele>318.6</ele><time>2026-04-18T08:45:27.27Z</time></trkpt><trkpt lat="43.6163242" lon="12.8256406"><ele>316.0</ele><time>2026-04-18T08:45:28.27Z</time></trkpt><trkpt lat="43.6162978" lon="12.8255177"><ele>316.0</ele><time>2026-04-18T08:45:29.27Z</time></trkpt><trkpt lat="43.6162733" lon="12.8254106"><ele>316.0</ele><time>2026-04-18T08:45:30.271Z</time></trkpt><trkpt lat="43.6162307" lon="12.8253243"><ele>316.0</ele><time>2026-04-18T08:45:31.27Z</time></trkpt><trkpt lat="43.6161658" lon="12.8252771"><ele>316.0</ele><time>2026-04-18T08:45:32.27Z</time></trkpt><trkpt lat="43.616078" lon="12.8252698"><ele>316.0</ele><time>2026-04-18T08:45:33.27Z</time></trkpt><trkpt lat="43.6159772" lon="12.8252988"><ele>316.0</ele><time>2026-04-18T08:45:34.27Z</time></trkpt><trkpt lat="43.6158722" lon="12.825351"><ele>316.0</ele><time>2026-04-18T08:45:35.27Z</time></trkpt><trkpt lat="43.6157768" lon="12.8254018"><ele>316.0</ele><time>2026-04-18T08:45:36.27Z</time></trkpt><trkpt lat="43.6156993" lon="12.8254434"><ele>316.0</ele><time>2026-04-18T08:45:37.27Z</time></trkpt><trkpt lat="43.6156261" lon="12.8254947"><ele>316.0</ele><time>2026-04-18T08:45:38.27Z</time></trkpt><trkpt lat="43.6155728" lon="12.8255712"><ele>316.0</ele><time>2026-04-18T08:45:39.27Z</time></trkpt><trkpt lat="43.6155318" lon="12.8256756"><ele>316.0</ele><time>2026-04-18T08:45:40.271Z</time></trkpt><trkpt lat="43.6155031" lon="12.8258161"><ele>318.0</ele><time>2026-04-18T08:45:41.271Z</time></trkpt><trkpt lat="43.6154796" lon="12.8259824"><ele>320.0</ele><time>2026-04-18T08:45:42.271Z</time></trkpt><trkpt lat="43.6154499" lon="12.8261474"><ele>322.0</ele><time>2026-04-18T08:45:43.27Z</time></trkpt><trkpt lat="43.6154147" lon="12.8263011"><ele>324.0</ele><time>2026-04-18T08:45:44.27Z</time></trkpt><trkpt lat="43.6153715" lon="12.8264325"><ele>318.1666666666667</ele><time>2026-04-18T08:45:45.27Z</time></trkpt><trkpt lat="43.6153172" lon="12.8265445"><ele>312.3333333333333</ele><time>2026-04-18T08:45:46.27Z</time></trkpt><trkpt lat="43.6152676" lon="12.8266428"><ele>306.5</ele><time>2026-04-18T08:45:47.271Z</time></trkpt><trkpt lat="43.615242" lon="12.8267368"><ele>300.66666666666663</ele><time>2026-04-18T08:45:48.27Z</time></trkpt><trkpt lat="43.6152429" lon="12.8268449"><ele>294.8333333333333</ele><time>2026-04-18T08:45:49.271Z</time></trkpt><trkpt lat="43.6152643" lon="12.8269608"><ele>289.0</ele><time>2026-04-18T08:45:50.27Z</time></trkpt><trkpt lat="43.6153109" lon="12.8270605"><ele>292.59999999999997</ele><time>2026-04-18T08:45:51.27Z</time></trkpt><trkpt lat="43.615378" lon="12.8271444"><ele>296.2</ele><time>2026-04-18T08:45:52.27Z</time></trkpt><trkpt lat="43.6154591" lon="12.8272247"><ele>299.79999999999995</ele><time>2026-04-18T08:45:53.27Z</time></trkpt><trkpt lat="43.6155445" lon="12.8273136"><ele>303.4</ele><time>2026-04-18T08:45:54.271Z</time></trkpt><trkpt lat="43.6156285" lon="12.8274243"><ele>307.0</ele><time>2026-04-18T08:45:55.271Z</time></trkpt><trkpt lat="43.6157086" lon="12.827542"><ele>301.25</ele><time>2026-04-18T08:45:56.27Z</time></trkpt><trkpt lat="43.6157896" lon="12.8276565"><ele>295.5</ele><time>2026-04-18T08:45:57.27Z</time></trkpt><trkpt lat="43.615877" lon="12.8277708"><ele>289.75</ele><time>2026-04-18T08:45:58.271Z</time></trkpt><trkpt lat="43.615963" lon="12.8278768"><ele>284.0</ele><time>2026-04-18T08:45:59.27Z</time></trkpt><trkpt lat="43.6160568" lon="12.8279846"><ele>286.5</ele><time>2026-04-18T08:46:00.27Z</time></trkpt><trkpt lat="43.6161537" lon="12.8280942"><ele>289.0</ele><time>2026-04-18T08:46:01.27Z</time></trkpt><trkpt lat="43.6162397" lon="12.8282027"><ele>291.5</ele><time>2026-04-18T08:46:02.271Z</time></trkpt><trkpt lat="43.6163248" lon="12.8283178"><ele>294.0</ele><time>2026-04-18T08:46:03.27Z</time></trkpt><trkpt lat="43.6164075" lon="12.8284324"><ele>291.59999999999997</ele><time>2026-04-18T08:46:04.271Z</time></trkpt><trkpt lat="43.6164823" lon="12.8285356"><ele>289.2</ele><time>2026-04-18T08:46:05.27Z</time></trkpt><trkpt lat="43.6165562" lon="12.828628"><ele>286.79999999999995</ele><time>2026-04-18T08:46:06.27Z</time></trkpt><trkpt lat="43.6166223" lon="12.8287181"><ele>284.4</ele><time>2026-04-18T08:46:07.27Z</time></trkpt><trkpt lat="43.6166853" lon="12.8288051"><ele>282.0</ele><time>2026-04-18T08:46:08.271Z</time></trkpt><trkpt lat="43.6167427" lon="12.8288815"><ele>282.0</ele><time>2026-04-18T08:46:09.27Z</time></trkpt><trkpt lat="43.6167927" lon="12.8289457"><ele>282.0</ele><time>2026-04-18T08:46:10.27Z</time></trkpt><trkpt lat="43.6168449" lon="12.8290785"><ele>282.0</ele><time>2026-04-18T08:46:12.27Z</time></trkpt><trkpt lat="43.6167563" lon="12.8291473"><ele>282.0</ele><time>2026-04-18T08:46:14.27Z</time></trkpt><trkpt lat="43.6166863" lon="12.8291431"><ele>282.0</ele><time>2026-04-18T08:46:15.27Z</time></trkpt><trkpt lat="43.6166042" lon="12.8291133"><ele>282.0</ele><time>2026-04-18T08:46:16.271Z</time></trkpt><trkpt lat="43.6165179" lon="12.829055"><ele>282.0</ele><time>2026-04-18T08:46:17.27Z</time></trkpt><trkpt lat="43.6164272" lon="12.8289685"><ele>282.0</ele><time>2026-04-18T08:46:18.27Z</time></trkpt><trkpt lat="43.616331" lon="12.8288756"><ele>282.0</ele><time>2026-04-18T08:46:19.271Z</time></trkpt><trkpt lat="43.6162188" lon="12.82879"><ele>282.0</ele><time>2026-04-18T08:46:20.27Z</time></trkpt><trkpt lat="43.6160979" lon="12.8287289"><ele>282.5</ele><time>2026-04-18T08:46:21.27Z</time></trkpt><trkpt lat="43.6159808" lon="12.8286758"><ele>283.0</ele><time>2026-04-18T08:46:22.271Z</time></trkpt><trkpt lat="43.6158629" lon="12.8286202"><ele>283.5</ele><time>2026-04-18T08:46:23.271Z</time></trkpt><trkpt lat="43.6157511" lon="12.8285528"><ele>284.0</ele><time>2026-04-18T08:46:24.271Z</time></trkpt><trkpt lat="43.6156438" lon="12.8284731"><ele>284.0</ele><time>2026-04-18T08:46:25.27Z</time></trkpt><trkpt lat="43.6155351" lon="12.8283753"><ele>284.0</ele><time>2026-04-18T08:46:26.27Z</time></trkpt><trkpt lat="43.6154237" lon="12.8282698"><ele>284.0</ele><time>2026-04-18T08:46:27.27Z</time></trkpt><trkpt lat="43.6153155" lon="12.8281595"><ele>284.0</ele><time>2026-04-18T08:46:28.27Z</time></trkpt><trkpt lat="43.6152135" lon="12.8280559"><ele>283.5</ele><time>2026-04-18T08:46:29.27Z</time></trkpt><trkpt lat="43.6151206" lon="12.8279644"><ele>283.0</ele><time>2026-04-18T08:46:30.27Z</time></trkpt><trkpt lat="43.6150302" lon="12.8278824"><ele>282.5</ele><time>2026-04-18T08:46:31.27Z</time></trkpt><trkpt lat="43.614956" lon="12.8277632"><ele>282.0</ele><time>2026-04-18T08:46:32.27Z</time></trkpt><trkpt lat="43.6148857" lon="12.8276374"><ele>282.0</ele><time>2026-04-18T08:46:33.27Z</time></trkpt><trkpt lat="43.6148158" lon="12.8275084"><ele>282.0</ele><time>2026-04-18T08:46:34.27Z</time></trkpt><trkpt lat="43.6147572" lon="12.827372"><ele>282.0</ele><time>2026-04-18T08:46:35.27Z</time></trkpt><trkpt lat="43.6147132" lon="12.827229"><ele>282.0</ele><time>2026-04-18T08:46:36.27Z</time></trkpt><trkpt lat="43.6146714" lon="12.8270829"><ele>282.0</ele><time>2026-04-18T08:46:37.27Z</time></trkpt><trkpt lat="43.6146257" lon="12.8269649"><ele>282.0</ele><time>2026-04-18T08:46:38.27Z</time></trkpt><trkpt lat="43.6145778" lon="12.8268626"><ele>282.0</ele><time>2026-04-18T08:46:39.271Z</time></trkpt><trkpt lat="43.6145303" lon="12.8267554"><ele>282.0</ele><time>2026-04-18T08:46:40.27Z</time></trkpt><trkpt lat="43.6144959" lon="12.8266425"><ele>282.0</ele><time>2026-04-18T08:46:41.271Z</time></trkpt><trkpt lat="43.6144789" lon="12.8265251"><ele>282.4</ele><time>2026-04-18T08:46:42.27Z</time></trkpt><trkpt lat="43.6144712" lon="12.8264104"><ele>282.79999999999995</ele><time>2026-04-18T08:46:43.27Z</time></trkpt><trkpt lat="43.6145086" lon="12.8262681"><ele>283.2</ele><time>2026-04-18T08:46:44.271Z</time></trkpt><trkpt lat="43.6145546" lon="12.8261279"><ele>283.59999999999997</ele><time>2026-04-18T08:46:45.27Z</time></trkpt><trkpt lat="43.6145858" lon="12.8259805"><ele>284.0</ele><time>2026-04-18T08:46:46.271Z</time></trkpt><trkpt lat="43.6146019" lon="12.825814"><ele>284.0</ele><time>2026-04-18T08:46:47.271Z</time></trkpt><trkpt lat="43.614625" lon="12.8256355"><ele>284.0</ele><time>2026-04-18T08:46:48.271Z</time></trkpt><trkpt lat="43.6146492" lon="12.8254654"><ele>284.0</ele><time>2026-04-18T08:46:49.271Z</time></trkpt><trkpt lat="43.6146781" lon="12.825298"><ele>284.0</ele><time>2026-04-18T08:46:50.271Z</time></trkpt><trkpt lat="43.614714" lon="12.8251383"><ele>281.25</ele><time>2026-04-18T08:46:51.27Z</time></trkpt><trkpt lat="43.6147532" lon="12.8249888"><ele>278.5</ele><time>2026-04-18T08:46:52.27Z</time></trkpt><trkpt lat="43.6147947" lon="12.82484"><ele>275.75</ele><time>2026-04-18T08:46:53.271Z</time></trkpt><trkpt lat="43.6148344" lon="12.824693"><ele>273.0</ele><time>2026-04-18T08:46:54.271Z</time></trkpt><trkpt lat="43.6148819" lon="12.8245485"><ele>273.0</ele><time>2026-04-18T08:46:55.27Z</time></trkpt><trkpt lat="43.6149311" lon="12.824413"><ele>273.0</ele><time>2026-04-18T08:46:56.27Z</time></trkpt><trkpt lat="43.614986" lon="12.8242918"><ele>273.0</ele><time>2026-04-18T08:46:57.27Z</time></trkpt><trkpt lat="43.6150502" lon="12.824187"><ele>273.0</ele><time>2026-04-18T08:46:58.271Z</time></trkpt><trkpt lat="43.6151184" lon="12.8240943"><ele>273.0</ele><time>2026-04-18T08:46:59.271Z</time></trkpt><trkpt lat="43.6151797" lon="12.8240052"><ele>270.2</ele><time>2026-04-18T08:47:00.27Z</time></trkpt><trkpt lat="43.6152176" lon="12.8238912"><ele>267.4</ele><time>2026-04-18T08:47:01.27Z</time></trkpt><trkpt lat="43.6152389" lon="12.823758"><ele>264.59999999999997</ele><time>2026-04-18T08:47:02.271Z</time></trkpt><trkpt lat="43.6152378" lon="12.8236071"><ele>261.8</ele><time>2026-04-18T08:47:03.27Z</time></trkpt><trkpt lat="43.6152408" lon="12.8234689"><ele>259.0</ele><time>2026-04-18T08:47:04.27Z</time></trkpt><trkpt lat="43.6152743" lon="12.8233322"><ele>260.0</ele><time>2026-04-18T08:47:05.27Z</time></trkpt><trkpt lat="43.6153312" lon="12.8231947"><ele>261.0</ele><time>2026-04-18T08:47:06.271Z</time></trkpt><trkpt lat="43.6153929" lon="12.8230636"><ele>262.0</ele><time>2026-04-18T08:47:07.27Z</time></trkpt><trkpt lat="43.6154742" lon="12.8229329"><ele>263.0</ele><time>2026-04-18T08:47:08.27Z</time></trkpt><trkpt lat="43.6155635" lon="12.8228097"><ele>263.0</ele><time>2026-04-18T08:47:09.27Z</time></trkpt><trkpt lat="43.6156543" lon="12.8227044"><ele>263.0</ele><time>2026-04-18T08:47:10.27Z</time></trkpt><trkpt lat="43.6157514" lon="12.8226165"><ele>263.0</ele><time>2026-04-18T08:47:11.271Z</time></trkpt><trkpt lat="43.6158374" lon="12.8225275"><ele>263.0</ele><time>2026-04-18T08:47:12.27Z</time></trkpt><trkpt lat="43.6159013" lon="12.8224395"><ele>263.0</ele><time>2026-04-18T08:47:13.27Z</time></trkpt><trkpt lat="43.6159422" lon="12.8223463"><ele>260.0</ele><time>2026-04-18T08:47:14.271Z</time></trkpt><trkpt lat="43.6159574" lon="12.8222436"><ele>257.0</ele><time>2026-04-18T08:47:15.27Z</time></trkpt><trkpt lat="43.6159436" lon="12.8221376"><ele>254.0</ele><time>2026-04-18T08:47:16.27Z</time></trkpt><trkpt lat="43.615904" lon="12.8220289"><ele>251.0</ele><time>2026-04-18T08:47:17.27Z</time></trkpt><trkpt lat="43.615841" lon="12.8219346"><ele>248.00000000000003</ele><time>2026-04-18T08:47:18.271Z</time></trkpt><trkpt lat="43.6157628" lon="12.8218625"><ele>245.0</ele><time>2026-04-18T08:47:19.27Z</time></trkpt><trkpt lat="43.6156917" lon="12.8218153"><ele>244.2</ele><time>2026-04-18T08:47:20.27Z</time></trkpt><trkpt lat="43.6155891" lon="12.8217642"><ele>243.4</ele><time>2026-04-18T08:47:22.271Z</time></trkpt><trkpt lat="43.615531" lon="12.8216826"><ele>242.60000000000002</ele><time>2026-04-18T08:47:25.271Z</time></trkpt><trkpt lat="43.6155819" lon="12.8215256"><ele>241.8</ele><time>2026-04-18T08:47:27.271Z</time></trkpt><trkpt lat="43.6156349" lon="12.8214132"><ele>241.0</ele><time>2026-04-18T08:47:28.27Z</time></trkpt><trkpt lat="43.6156888" lon="12.8212848"><ele>241.0</ele><time>2026-04-18T08:47:29.271Z</time></trkpt><trkpt lat="43.615745" lon="12.821153"><ele>241.00000000000003</ele><time>2026-04-18T08:47:30.27Z</time></trkpt><trkpt lat="43.6158034" lon="12.8210269"><ele>241.00000000000003</ele><time>2026-04-18T08:47:31.27Z</time></trkpt><trkpt lat="43.6158612" lon="12.8209109"><ele>241.0</ele><time>2026-04-18T08:47:32.271Z</time></trkpt><trkpt lat="43.6159184" lon="12.8208158"><ele>241.0</ele><time>2026-04-18T08:47:33.27Z</time></trkpt><trkpt lat="43.6159779" lon="12.8207337"><ele>241.8</ele><time>2026-04-18T08:47:34.27Z</time></trkpt><trkpt lat="43.6160399" lon="12.8206693"><ele>242.60000000000002</ele><time>2026-04-18T08:47:35.271Z</time></trkpt><trkpt lat="43.6160994" lon="12.8206294"><ele>243.4</ele><time>2026-04-18T08:47:36.271Z</time></trkpt><trkpt lat="43.6161918" lon="12.8205248"><ele>244.2</ele><time>2026-04-18T08:47:38.271Z</time></trkpt><trkpt lat="43.6161899" lon="12.8203583"><ele>245.0</ele><time>2026-04-18T08:47:40.271Z</time></trkpt><trkpt lat="43.6161526" lon="12.8202798"><ele>245.2</ele><time>2026-04-18T08:47:41.271Z</time></trkpt><trkpt lat="43.6161" lon="12.8201932"><ele>245.4</ele><time>2026-04-18T08:47:42.27Z</time></trkpt><trkpt lat="43.6160431" lon="12.8200887"><ele>245.60000000000002</ele><time>2026-04-18T08:47:43.271Z</time></trkpt><trkpt lat="43.6159786" lon="12.8199687"><ele>245.8</ele><time>2026-04-18T08:47:44.27Z</time></trkpt><trkpt lat="43.6159094" lon="12.8198531"><ele>246.0</ele><time>2026-04-18T08:47:45.27Z</time></trkpt><trkpt lat="43.6158377" lon="12.8197388"><ele>246.5</ele><time>2026-04-18T08:47:46.27Z</time></trkpt><trkpt lat="43.615762" lon="12.8196159"><ele>247.0</ele><time>2026-04-18T08:47:47.271Z</time></trkpt><trkpt lat="43.615685" lon="12.819494"><ele>247.5</ele><time>2026-04-18T08:47:48.27Z</time></trkpt><trkpt lat="43.6156092" lon="12.8193688"><ele>248.0</ele><time>2026-04-18T08:47:49.27Z</time></trkpt><trkpt lat="43.6155344" lon="12.8192407"><ele>248.25</ele><time>2026-04-18T08:47:50.27Z</time></trkpt><trkpt lat="43.6154634" lon="12.8191064"><ele>248.5</ele><time>2026-04-18T08:47:51.27Z</time></trkpt><trkpt lat="43.6153971" lon="12.818965"><ele>248.75</ele><time>2026-04-18T08:47:52.27Z</time></trkpt><trkpt lat="43.6153421" lon="12.8188143"><ele>249.0</ele><time>2026-04-18T08:47:53.27Z</time></trkpt><trkpt lat="43.6152866" lon="12.8186691"><ele>249.0</ele><time>2026-04-18T08:47:54.27Z</time></trkpt><trkpt lat="43.6152138" lon="12.818542"><ele>249.0</ele><time>2026-04-18T08:47:55.27Z</time></trkpt><trkpt lat="43.6151162" lon="12.8184237"><ele>249.0</ele><time>2026-04-18T08:47:56.27Z</time></trkpt><trkpt lat="43.6150183" lon="12.818313"><ele>249.0</ele><time>2026-04-18T08:47:57.271Z</time></trkpt><trkpt lat="43.6149241" lon="12.8182112"><ele>250.25</ele><time>2026-04-18T08:47:58.27Z</time></trkpt><trkpt lat="43.6148188" lon="12.8181198"><ele>251.5</ele><time>2026-04-18T08:47:59.27Z</time></trkpt><trkpt lat="43.6147058" lon="12.8180415"><ele>252.75</ele><time>2026-04-18T08:48:00.271Z</time></trkpt><trkpt lat="43.6145961" lon="12.817962"><ele>254.0</ele><time>2026-04-18T08:48:01.27Z</time></trkpt><trkpt lat="43.6144839" lon="12.8178845"><ele>254.0</ele><time>2026-04-18T08:48:02.27Z</time></trkpt><trkpt lat="43.6143689" lon="12.8178019"><ele>254.0</ele><time>2026-04-18T08:48:03.27Z</time></trkpt><trkpt lat="43.6142596" lon="12.8177071"><ele>254.0</ele><time>2026-04-18T08:48:04.27Z</time></trkpt><trkpt lat="43.6141526" lon="12.8175991"><ele>254.0</ele><time>2026-04-18T08:48:05.27Z</time></trkpt><trkpt lat="43.6140474" lon="12.8174853"><ele>255.0</ele><time>2026-04-18T08:48:06.271Z</time></trkpt><trkpt lat="43.6139422" lon="12.8173683"><ele>256.0</ele><time>2026-04-18T08:48:07.27Z</time></trkpt><trkpt lat="43.6138333" lon="12.8172584"><ele>257.0</ele><time>2026-04-18T08:48:08.271Z</time></trkpt><trkpt lat="43.6137246" lon="12.8171535"><ele>258.0</ele><time>2026-04-18T08:48:09.27Z</time></trkpt><trkpt lat="43.6136189" lon="12.817046"><ele>258.0</ele><time>2026-04-18T08:48:10.271Z</time></trkpt><trkpt lat="43.6135127" lon="12.8169372"><ele>258.0</ele><time>2026-04-18T08:48:11.27Z</time></trkpt><trkpt lat="43.6134074" lon="12.8168348"><ele>258.0</ele><time>2026-04-18T08:48:12.27Z</time></trkpt><trkpt lat="43.6132969" lon="12.8167304"><ele>258.0</ele><time>2026-04-18T08:48:13.27Z</time></trkpt><trkpt lat="43.6131846" lon="12.8166211"><ele>257.6666666666667</ele><time>2026-04-18T08:48:14.27Z</time></trkpt><trkpt lat="43.6130657" lon="12.8165006"><ele>257.33333333333337</ele><time>2026-04-18T08:48:15.27Z</time></trkpt><trkpt lat="43.6129381" lon="12.8163596"><ele>257.0</ele><time>2026-04-18T08:48:16.27Z</time></trkpt><trkpt lat="43.6128094" lon="12.8162163"><ele>257.0</ele><time>2026-04-18T08:48:17.27Z</time></trkpt><trkpt lat="43.6126927" lon="12.8160894"><ele>257.0</ele><time>2026-04-18T08:48:18.271Z</time></trkpt><trkpt lat="43.612596" lon="12.8159647"><ele>257.0</ele><time>2026-04-18T08:48:19.271Z</time></trkpt><trkpt lat="43.6125157" lon="12.8158433"><ele>257.0</ele><time>2026-04-18T08:48:20.27Z</time></trkpt><trkpt lat="43.6124533" lon="12.815723"><ele>259.83333333333337</ele><time>2026-04-18T08:48:21.27Z</time></trkpt><trkpt lat="43.612416" lon="12.8156119"><ele>262.6666666666667</ele><time>2026-04-18T08:48:22.271Z</time></trkpt><trkpt lat="43.6123822" lon="12.8155214"><ele>265.5</ele><time>2026-04-18T08:48:23.271Z</time></trkpt><trkpt lat="43.6123264" lon="12.8154657"><ele>268.3333333333333</ele><time>2026-04-18T08:48:24.27Z</time></trkpt><trkpt lat="43.6122535" lon="12.8154698"><ele>271.16666666666663</ele><time>2026-04-18T08:48:25.27Z</time></trkpt><trkpt lat="43.6121818" lon="12.8155281"><ele>274.0</ele><time>2026-04-18T08:48:26.27Z</time></trkpt><trkpt lat="43.6121143" lon="12.815613"><ele>274.0</ele><time>2026-04-18T08:48:27.271Z</time></trkpt><trkpt lat="43.6120398" lon="12.8156768"><ele>274.0</ele><time>2026-04-18T08:48:28.271Z</time></trkpt><trkpt lat="43.6119618" lon="12.8156967"><ele>274.0</ele><time>2026-04-18T08:48:29.271Z</time></trkpt><trkpt lat="43.6118716" lon="12.8156828"><ele>274.0</ele><time>2026-04-18T08:48:30.271Z</time></trkpt><trkpt lat="43.6117667" lon="12.8156581"><ele>274.0</ele><time>2026-04-18T08:48:31.271Z</time></trkpt><trkpt lat="43.6116601" lon="12.815593"><ele>272.66666666666663</ele><time>2026-04-18T08:48:32.271Z</time></trkpt><trkpt lat="43.6115678" lon="12.8155208"><ele>271.3333333333333</ele><time>2026-04-18T08:48:33.27Z</time></trkpt><trkpt lat="43.6114871" lon="12.8154657"><ele>270.0</ele><time>2026-04-18T08:48:34.27Z</time></trkpt><trkpt lat="43.6114137" lon="12.8154203"><ele>268.6666666666667</ele><time>2026-04-18T08:48:35.27Z</time></trkpt><trkpt lat="43.6113507" lon="12.8153702"><ele>267.33333333333337</ele><time>2026-04-18T08:48:36.27Z</time></trkpt><trkpt lat="43.6112922" lon="12.8153229"><ele>266.0</ele><time>2026-04-18T08:48:37.27Z</time></trkpt><trkpt lat="43.6112291" lon="12.8152747"><ele>266.0</ele><time>2026-04-18T08:48:38.27Z</time></trkpt><trkpt lat="43.6111641" lon="12.8152163"><ele>266.0</ele><time>2026-04-18T08:48:39.27Z</time></trkpt><trkpt lat="43.6111045" lon="12.8151624"><ele>266.0</ele><time>2026-04-18T08:48:40.271Z</time></trkpt><trkpt lat="43.6110242" lon="12.815099"><ele>266.0</ele><time>2026-04-18T08:48:42.271Z</time></trkpt><trkpt lat="43.6109535" lon="12.815055"><ele>266.0</ele><time>2026-04-18T08:48:45.271Z</time></trkpt><trkpt lat="43.6108667" lon="12.8149861"><ele>266.0</ele><time>2026-04-18T08:48:47.27Z</time></trkpt><trkpt lat="43.610806" lon="12.8149311"><ele>267.42857142857144</ele><time>2026-04-18T08:48:48.27Z</time></trkpt><trkpt lat="43.6107467" lon="12.8148713"><ele>268.8571428571429</ele><time>2026-04-18T08:48:49.271Z</time></trkpt><trkpt lat="43.6106911" lon="12.8148083"><ele>270.2857142857143</ele><time>2026-04-18T08:48:50.271Z</time></trkpt><trkpt lat="43.6106376" lon="12.8147524"><ele>271.7142857142857</ele><time>2026-04-18T08:48:51.27Z</time></trkpt><trkpt lat="43.6105853" lon="12.8147024"><ele>273.14285714285717</ele><time>2026-04-18T08:48:52.27Z</time></trkpt><trkpt lat="43.6105331" lon="12.8146472"><ele>274.57142857142856</ele><time>2026-04-18T08:48:53.27Z</time></trkpt><trkpt lat="43.6104737" lon="12.8145827"><ele>276.0</ele><time>2026-04-18T08:48:54.27Z</time></trkpt><trkpt lat="43.6104133" lon="12.8145148"><ele>276.0</ele><time>2026-04-18T08:48:55.27Z</time></trkpt><trkpt lat="43.6103582" lon="12.8144517"><ele>276.0</ele><time>2026-04-18T08:48:56.271Z</time></trkpt><trkpt lat="43.6103037" lon="12.8143964"><ele>276.0</ele><time>2026-04-18T08:48:57.27Z</time></trkpt><trkpt lat="43.6102446" lon="12.8143355"><ele>276.0</ele><time>2026-04-18T08:48:58.27Z</time></trkpt><trkpt lat="43.6101814" lon="12.8142678"><ele>276.0</ele><time>2026-04-18T08:48:59.271Z</time></trkpt><trkpt lat="43.6101127" lon="12.814191"><ele>276.0</ele><time>2026-04-18T08:49:00.271Z</time></trkpt><trkpt lat="43.6100316" lon="12.8141149"><ele>275.2</ele><time>2026-04-18T08:49:01.27Z</time></trkpt><trkpt lat="43.609946" lon="12.8140431"><ele>274.40000000000003</ele><time>2026-04-18T08:49:02.27Z</time></trkpt><trkpt lat="43.6098603" lon="12.8139824"><ele>273.6</ele><time>2026-04-18T08:49:03.27Z</time></trkpt><trkpt lat="43.6097751" lon="12.8139107"><ele>272.8</ele><time>2026-04-18T08:49:04.27Z</time></trkpt><trkpt lat="43.609688" lon="12.8138178"><ele>272.0</ele><time>2026-04-18T08:49:05.27Z</time></trkpt><trkpt lat="43.6095939" lon="12.8137009"><ele>272.0</ele><time>2026-04-18T08:49:06.27Z</time></trkpt><trkpt lat="43.6094998" lon="12.8135596"><ele>272.0</ele><time>2026-04-18T08:49:07.271Z</time></trkpt><trkpt lat="43.6093981" lon="12.8133967"><ele>272.0</ele><time>2026-04-18T08:49:08.27Z</time></trkpt><trkpt lat="43.6092952" lon="12.8132323"><ele>271.5</ele><time>2026-04-18T08:49:09.27Z</time></trkpt><trkpt lat="43.6091929" lon="12.8130864"><ele>271.0</ele><time>2026-04-18T08:49:10.271Z</time></trkpt><trkpt lat="43.6090864" lon="12.8129603"><ele>270.5</ele><time>2026-04-18T08:49:11.271Z</time></trkpt><trkpt lat="43.6089884" lon="12.8128488"><ele>270.0</ele><time>2026-04-18T08:49:12.27Z</time></trkpt><trkpt lat="43.6088906" lon="12.8127442"><ele>271.0</ele><time>2026-04-18T08:49:13.27Z</time></trkpt><trkpt lat="43.6087762" lon="12.8126515"><ele>272.0</ele><time>2026-04-18T08:49:14.271Z</time></trkpt><trkpt lat="43.6086367" lon="12.8125855"><ele>273.0</ele><time>2026-04-18T08:49:15.271Z</time></trkpt><trkpt lat="43.60849" lon="12.8125374"><ele>274.0</ele><time>2026-04-18T08:49:16.27Z</time></trkpt><trkpt lat="43.6083474" lon="12.8124871"><ele>274.0</ele><time>2026-04-18T08:49:17.271Z</time></trkpt><trkpt lat="43.6082096" lon="12.8124269"><ele>274.0</ele><time>2026-04-18T08:49:18.27Z</time></trkpt><trkpt lat="43.6080747" lon="12.8123541"><ele>274.0</ele><time>2026-04-18T08:49:19.271Z</time></trkpt><trkpt lat="43.6079387" lon="12.8122645"><ele>274.0</ele><time>2026-04-18T08:49:20.27Z</time></trkpt><trkpt lat="43.6077994" lon="12.8121682"><ele>272.3333333333333</ele><time>2026-04-18T08:49:21.271Z</time></trkpt><trkpt lat="43.6076579" lon="12.8120601"><ele>270.6666666666667</ele><time>2026-04-18T08:49:22.27Z</time></trkpt><trkpt lat="43.6075132" lon="12.8119519"><ele>269.0</ele><time>2026-04-18T08:49:23.27Z</time></trkpt><trkpt lat="43.607372" lon="12.8118506"><ele>271.0</ele><time>2026-04-18T08:49:24.27Z</time></trkpt><trkpt lat="43.607234" lon="12.8117623"><ele>273.0</ele><time>2026-04-18T08:49:25.271Z</time></trkpt><trkpt lat="43.6070959" lon="12.8116788"><ele>275.0</ele><time>2026-04-18T08:49:26.27Z</time></trkpt><trkpt lat="43.6069612" lon="12.8115966"><ele>275.0</ele><time>2026-04-18T08:49:27.271Z</time></trkpt><trkpt lat="43.6068284" lon="12.8115162"><ele>275.0</ele><time>2026-04-18T08:49:28.27Z</time></trkpt><trkpt lat="43.6066999" lon="12.8114431"><ele>275.0</ele><time>2026-04-18T08:49:29.271Z</time></trkpt><trkpt lat="43.6065704" lon="12.8113742"><ele>275.0</ele><time>2026-04-18T08:49:30.27Z</time></trkpt><trkpt lat="43.6064392" lon="12.811303"><ele>275.0</ele><time>2026-04-18T08:49:31.27Z</time></trkpt><trkpt lat="43.6063201" lon="12.8112228"><ele>275.0</ele><time>2026-04-18T08:49:32.27Z</time></trkpt><trkpt lat="43.6062235" lon="12.8111393"><ele>275.0</ele><time>2026-04-18T08:49:33.27Z</time></trkpt><trkpt lat="43.6061504" lon="12.8110487"><ele>275.0</ele><time>2026-04-18T08:49:34.27Z</time></trkpt><trkpt lat="43.6060978" lon="12.8109235"><ele>275.0</ele><time>2026-04-18T08:49:35.271Z</time></trkpt><trkpt lat="43.6060453" lon="12.8107564"><ele>275.33333333333337</ele><time>2026-04-18T08:49:36.271Z</time></trkpt><trkpt lat="43.6059795" lon="12.8105741"><ele>275.6666666666667</ele><time>2026-04-18T08:49:37.27Z</time></trkpt><trkpt lat="43.6058965" lon="12.8103945"><ele>276.0</ele><time>2026-04-18T08:49:38.271Z</time></trkpt><trkpt lat="43.605797" lon="12.8102382"><ele>280.0</ele><time>2026-04-18T08:49:39.27Z</time></trkpt><trkpt lat="43.6056893" lon="12.8101048"><ele>284.0</ele><time>2026-04-18T08:49:40.27Z</time></trkpt><trkpt lat="43.6055839" lon="12.8099826"><ele>288.0</ele><time>2026-04-18T08:49:41.27Z</time></trkpt><trkpt lat="43.6054826" lon="12.8098694"><ele>292.0</ele><time>2026-04-18T08:49:42.271Z</time></trkpt><trkpt lat="43.6053824" lon="12.809766"><ele>288.5</ele><time>2026-04-18T08:49:43.271Z</time></trkpt><trkpt lat="43.6052834" lon="12.8096829"><ele>285.0</ele><time>2026-04-18T08:49:44.271Z</time></trkpt><trkpt lat="43.6051767" lon="12.809613"><ele>281.5</ele><time>2026-04-18T08:49:45.27Z</time></trkpt><trkpt lat="43.6050703" lon="12.8095425"><ele>278.0</ele><time>2026-04-18T08:49:46.271Z</time></trkpt><trkpt lat="43.6049549" lon="12.8094607"><ele>278.0</ele><time>2026-04-18T08:49:47.27Z</time></trkpt><trkpt lat="43.6048423" lon="12.8093745"><ele>278.0</ele><time>2026-04-18T08:49:48.27Z</time></trkpt><trkpt lat="43.6047353" lon="12.8092785"><ele>278.0</ele><time>2026-04-18T08:49:49.271Z</time></trkpt><trkpt lat="43.6046268" lon="12.809168"><ele>278.0</ele><time>2026-04-18T08:49:50.271Z</time></trkpt><trkpt lat="43.6045251" lon="12.8090515"><ele>279.2</ele><time>2026-04-18T08:49:51.271Z</time></trkpt><trkpt lat="43.604438" lon="12.8089422"><ele>280.4</ele><time>2026-04-18T08:49:52.27Z</time></trkpt><trkpt lat="43.6043633" lon="12.8088499"><ele>281.59999999999997</ele><time>2026-04-18T08:49:53.27Z</time></trkpt><trkpt lat="43.6042923" lon="12.8087737"><ele>282.8</ele><time>2026-04-18T08:49:54.27Z</time></trkpt><trkpt lat="43.6042164" lon="12.8087362"><ele>284.0</ele><time>2026-04-18T08:49:55.27Z</time></trkpt><trkpt lat="43.6041323" lon="12.8087501"><ele>284.0</ele><time>2026-04-18T08:49:56.271Z</time></trkpt><trkpt lat="43.6040489" lon="12.8088075"><ele>284.0</ele><time>2026-04-18T08:49:57.27Z</time></trkpt><trkpt lat="43.6039725" lon="12.8088772"><ele>284.0</ele><time>2026-04-18T08:49:58.271Z</time></trkpt><trkpt lat="43.603906" lon="12.8089282"><ele>284.0</ele><time>2026-04-18T08:49:59.271Z</time></trkpt><trkpt lat="43.6038429" lon="12.808935"><ele>284.0</ele><time>2026-04-18T08:50:00.27Z</time></trkpt><trkpt lat="43.6037842" lon="12.8088912"><ele>284.0</ele><time>2026-04-18T08:50:01.27Z</time></trkpt><trkpt lat="43.6037356" lon="12.8088112"><ele>284.0</ele><time>2026-04-18T08:50:02.271Z</time></trkpt><trkpt lat="43.6036883" lon="12.8087032"><ele>284.0</ele><time>2026-04-18T08:50:03.27Z</time></trkpt><trkpt lat="43.6036341" lon="12.8085785"><ele>284.0</ele><time>2026-04-18T08:50:04.271Z</time></trkpt><trkpt lat="43.6035771" lon="12.8084493"><ele>284.0</ele><time>2026-04-18T08:50:05.27Z</time></trkpt><trkpt lat="43.6035179" lon="12.8083171"><ele>284.0</ele><time>2026-04-18T08:50:06.27Z</time></trkpt><trkpt lat="43.6034563" lon="12.8081865"><ele>286.2</ele><time>2026-04-18T08:50:07.27Z</time></trkpt><trkpt lat="43.6034043" lon="12.8080557"><ele>288.4</ele><time>2026-04-18T08:50:08.27Z</time></trkpt><trkpt lat="43.6033424" lon="12.8079467"><ele>290.6</ele><time>2026-04-18T08:50:09.27Z</time></trkpt><trkpt lat="43.603271" lon="12.8078543"><ele>292.8</ele><time>2026-04-18T08:50:10.271Z</time></trkpt><trkpt lat="43.6031909" lon="12.8077588"><ele>295.0</ele><time>2026-04-18T08:50:11.27Z</time></trkpt><trkpt lat="43.6031104" lon="12.8076653"><ele>293.0</ele><time>2026-04-18T08:50:12.27Z</time></trkpt><trkpt lat="43.6030456" lon="12.8075703"><ele>291.0</ele><time>2026-04-18T08:50:13.271Z</time></trkpt><trkpt lat="43.6029962" lon="12.8074557"><ele>289.0</ele><time>2026-04-18T08:50:14.271Z</time></trkpt><trkpt lat="43.6029597" lon="12.8073157"><ele>287.0</ele><time>2026-04-18T08:50:15.271Z</time></trkpt><trkpt lat="43.602942" lon="12.8071502"><ele>285.0</ele><time>2026-04-18T08:50:16.271Z</time></trkpt><trkpt lat="43.6029328" lon="12.8069743"><ele>284.8</ele><time>2026-04-18T08:50:17.271Z</time></trkpt><trkpt lat="43.602922" lon="12.8068097"><ele>284.6</ele><time>2026-04-18T08:50:18.27Z</time></trkpt><trkpt lat="43.6029147" lon="12.8066539"><ele>284.4</ele><time>2026-04-18T08:50:19.27Z</time></trkpt><trkpt lat="43.6029225" lon="12.8065151"><ele>284.2</ele><time>2026-04-18T08:50:20.27Z</time></trkpt><trkpt lat="43.6029471" lon="12.8063827"><ele>284.0</ele><time>2026-04-18T08:50:21.27Z</time></trkpt><trkpt lat="43.602978" lon="12.8062537"><ele>284.0</ele><time>2026-04-18T08:50:22.271Z</time></trkpt><trkpt lat="43.6030021" lon="12.8061311"><ele>284.0</ele><time>2026-04-18T08:50:23.271Z</time></trkpt><trkpt lat="43.6030174" lon="12.8060153"><ele>284.0</ele><time>2026-04-18T08:50:24.27Z</time></trkpt><trkpt lat="43.6030058" lon="12.8059093"><ele>284.0</ele><time>2026-04-18T08:50:25.27Z</time></trkpt><trkpt lat="43.6029602" lon="12.8058181"><ele>284.0</ele><time>2026-04-18T08:50:26.27Z</time></trkpt><trkpt lat="43.6028959" lon="12.8057509"><ele>284.0</ele><time>2026-04-18T08:50:27.27Z</time></trkpt><trkpt lat="43.6028135" lon="12.8057086"><ele>288.75</ele><time>2026-04-18T08:50:28.271Z</time></trkpt><trkpt lat="43.6027142" lon="12.8056696"><ele>293.5</ele><time>2026-04-18T08:50:29.27Z</time></trkpt><trkpt lat="43.6026056" lon="12.8056257"><ele>298.25</ele><time>2026-04-18T08:50:30.27Z</time></trkpt><trkpt lat="43.6024856" lon="12.8055608"><ele>303.0</ele><time>2026-04-18T08:50:31.27Z</time></trkpt><trkpt lat="43.6023635" lon="12.8054743"><ele>303.0</ele><time>2026-04-18T08:50:32.271Z</time></trkpt><trkpt lat="43.6022448" lon="12.8053794"><ele>303.0</ele><time>2026-04-18T08:50:33.271Z</time></trkpt><trkpt lat="43.6021403" lon="12.8052752"><ele>303.0</ele><time>2026-04-18T08:50:34.271Z</time></trkpt><trkpt lat="43.6020346" lon="12.8051662"><ele>303.0</ele><time>2026-04-18T08:50:35.271Z</time></trkpt><trkpt lat="43.6019369" lon="12.8050595"><ele>306.75</ele><time>2026-04-18T08:50:36.27Z</time></trkpt><trkpt lat="43.6018431" lon="12.8049392"><ele>310.5</ele><time>2026-04-18T08:50:37.27Z</time></trkpt><trkpt lat="43.6017539" lon="12.8048179"><ele>314.25</ele><time>2026-04-18T08:50:38.271Z</time></trkpt><trkpt lat="43.6016704" lon="12.8046836"><ele>318.0</ele><time>2026-04-18T08:50:39.271Z</time></trkpt><trkpt lat="43.6015901" lon="12.8045405"><ele>318.0</ele><time>2026-04-18T08:50:40.27Z</time></trkpt><trkpt lat="43.6015114" lon="12.8043887"><ele>318.0</ele><time>2026-04-18T08:50:41.27Z</time></trkpt><trkpt lat="43.6014438" lon="12.8042371"><ele>318.0</ele><time>2026-04-18T08:50:42.27Z</time></trkpt><trkpt lat="43.6013894" lon="12.8040837"><ele>318.0</ele><time>2026-04-18T08:50:43.271Z</time></trkpt><trkpt lat="43.6013396" lon="12.8039243"><ele>312.5</ele><time>2026-04-18T08:50:44.271Z</time></trkpt><trkpt lat="43.6012946" lon="12.8037649"><ele>307.0</ele><time>2026-04-18T08:50:45.27Z</time></trkpt><trkpt lat="43.6012509" lon="12.8035948"><ele>301.5</ele><time>2026-04-18T08:50:46.27Z</time></trkpt><trkpt lat="43.6012101" lon="12.803421"><ele>296.0</ele><time>2026-04-18T08:50:47.271Z</time></trkpt><trkpt lat="43.6011673" lon="12.8032559"><ele>297.5</ele><time>2026-04-18T08:50:48.27Z</time></trkpt><trkpt lat="43.6011231" lon="12.8030896"><ele>299.0</ele><time>2026-04-18T08:50:49.27Z</time></trkpt><trkpt lat="43.6010717" lon="12.8029293"><ele>300.5</ele><time>2026-04-18T08:50:50.27Z</time></trkpt><trkpt lat="43.6010135" lon="12.8027866"><ele>302.0</ele><time>2026-04-18T08:50:51.271Z</time></trkpt><trkpt lat="43.6009499" lon="12.8026643"><ele>302.0</ele><time>2026-04-18T08:50:52.27Z</time></trkpt><trkpt lat="43.6008691" lon="12.8025648"><ele>302.0</ele><time>2026-04-18T08:50:53.27Z</time></trkpt><trkpt lat="43.6007657" lon="12.8024821"><ele>302.0</ele><time>2026-04-18T08:50:54.27Z</time></trkpt><trkpt lat="43.6006496" lon="12.8024094"><ele>302.0</ele><time>2026-04-18T08:50:55.27Z</time></trkpt><trkpt lat="43.6005365" lon="12.8023354"><ele>302.0</ele><time>2026-04-18T08:50:56.271Z</time></trkpt><trkpt lat="43.600427" lon="12.8022511"><ele>302.0</ele><time>2026-04-18T08:50:57.27Z</time></trkpt><trkpt lat="43.6003206" lon="12.8021584"><ele>302.0</ele><time>2026-04-18T08:50:58.271Z</time></trkpt><trkpt lat="43.6002144" lon="12.8020554"><ele>302.0</ele><time>2026-04-18T08:50:59.27Z</time></trkpt><trkpt lat="43.6001098" lon="12.8019519"><ele>303.4</ele><time>2026-04-18T08:51:00.27Z</time></trkpt><trkpt lat="43.6000145" lon="12.8018545"><ele>304.79999999999995</ele><time>2026-04-18T08:51:01.271Z</time></trkpt><trkpt lat="43.5999244" lon="12.801769"><ele>306.2</ele><time>2026-04-18T08:51:02.271Z</time></trkpt><trkpt lat="43.5998399" lon="12.8016906"><ele>307.59999999999997</ele><time>2026-04-18T08:51:03.271Z</time></trkpt><trkpt lat="43.5997647" lon="12.8016041"><ele>309.0</ele><time>2026-04-18T08:51:04.27Z</time></trkpt><trkpt lat="43.5996902" lon="12.801501"><ele>309.0</ele><time>2026-04-18T08:51:05.27Z</time></trkpt><trkpt lat="43.599614" lon="12.8013852"><ele>309.0</ele><time>2026-04-18T08:51:06.271Z</time></trkpt><trkpt lat="43.5995432" lon="12.8012612"><ele>309.0</ele><time>2026-04-18T08:51:07.271Z</time></trkpt><trkpt lat="43.5994797" lon="12.8011203"><ele>309.0</ele><time>2026-04-18T08:51:08.271Z</time></trkpt><trkpt lat="43.5994277" lon="12.8009759"><ele>312.25</ele><time>2026-04-18T08:51:09.271Z</time></trkpt><trkpt lat="43.5993886" lon="12.8008364"><ele>315.5</ele><time>2026-04-18T08:51:10.27Z</time></trkpt><trkpt lat="43.599343" lon="12.8006878"><ele>318.75</ele><time>2026-04-18T08:51:11.271Z</time></trkpt><trkpt lat="43.5992774" lon="12.8005415"><ele>322.0</ele><time>2026-04-18T08:51:12.27Z</time></trkpt><trkpt lat="43.5992067" lon="12.8004031"><ele>322.0</ele><time>2026-04-18T08:51:13.27Z</time></trkpt><trkpt lat="43.5991319" lon="12.8002681"><ele>322.0</ele><time>2026-04-18T08:51:14.271Z</time></trkpt><trkpt lat="43.5990548" lon="12.8001316"><ele>322.0</ele><time>2026-04-18T08:51:15.271Z</time></trkpt><trkpt lat="43.5989772" lon="12.7999935"><ele>322.0</ele><time>2026-04-18T08:51:16.271Z</time></trkpt><trkpt lat="43.5988997" lon="12.799839"><ele>322.5</ele><time>2026-04-18T08:51:17.27Z</time></trkpt><trkpt lat="43.5988205" lon="12.7996748"><ele>323.0</ele><time>2026-04-18T08:51:18.271Z</time></trkpt><trkpt lat="43.5987436" lon="12.7995157"><ele>323.5</ele><time>2026-04-18T08:51:19.27Z</time></trkpt><trkpt lat="43.5986605" lon="12.7993687"><ele>324.0</ele><time>2026-04-18T08:51:20.271Z</time></trkpt><trkpt lat="43.5985767" lon="12.7992226"><ele>324.0</ele><time>2026-04-18T08:51:21.27Z</time></trkpt><trkpt lat="43.5984913" lon="12.7990765"><ele>324.0</ele><time>2026-04-18T08:51:22.27Z</time></trkpt><trkpt lat="43.5984047" lon="12.7989254"><ele>324.0</ele><time>2026-04-18T08:51:23.27Z</time></trkpt><trkpt lat="43.5983201" lon="12.7987809"><ele>324.0</ele><time>2026-04-18T08:51:24.27Z</time></trkpt><trkpt lat="43.5982475" lon="12.7986522"><ele>324.0</ele><time>2026-04-18T08:51:25.27Z</time></trkpt><trkpt lat="43.5981922" lon="12.7985229"><ele>324.0</ele><time>2026-04-18T08:51:26.271Z</time></trkpt><trkpt lat="43.5981549" lon="12.7983704"><ele>324.0</ele><time>2026-04-18T08:51:27.27Z</time></trkpt><trkpt lat="43.5981266" lon="12.7982131"><ele>324.0</ele><time>2026-04-18T08:51:28.27Z</time></trkpt><trkpt lat="43.5980949" lon="12.7980585"><ele>321.75</ele><time>2026-04-18T08:51:29.271Z</time></trkpt><trkpt lat="43.5980512" lon="12.7979001"><ele>319.5</ele><time>2026-04-18T08:51:30.27Z</time></trkpt><trkpt lat="43.5979854" lon="12.7977299"><ele>317.25</ele><time>2026-04-18T08:51:31.271Z</time></trkpt><trkpt lat="43.5979184" lon="12.7975644"><ele>315.0</ele><time>2026-04-18T08:51:32.27Z</time></trkpt><trkpt lat="43.5978573" lon="12.797414"><ele>316.5</ele><time>2026-04-18T08:51:33.27Z</time></trkpt><trkpt lat="43.59779" lon="12.7972622"><ele>318.0</ele><time>2026-04-18T08:51:34.271Z</time></trkpt><trkpt lat="43.5977258" lon="12.7971047"><ele>319.5</ele><time>2026-04-18T08:51:35.27Z</time></trkpt><trkpt lat="43.5976619" lon="12.7969513"><ele>321.0</ele><time>2026-04-18T08:51:36.27Z</time></trkpt><trkpt lat="43.5975991" lon="12.7968016"><ele>321.0</ele><time>2026-04-18T08:51:37.27Z</time></trkpt><trkpt lat="43.5975367" lon="12.7966498"><ele>321.0</ele><time>2026-04-18T08:51:38.27Z</time></trkpt><trkpt lat="43.5974724" lon="12.7964986"><ele>321.0</ele><time>2026-04-18T08:51:39.271Z</time></trkpt><trkpt lat="43.5974033" lon="12.7963553"><ele>321.0</ele><time>2026-04-18T08:51:40.271Z</time></trkpt><trkpt lat="43.5973385" lon="12.7962189"><ele>321.0</ele><time>2026-04-18T08:51:41.271Z</time></trkpt><trkpt lat="43.5972811" lon="12.7960804"><ele>321.0</ele><time>2026-04-18T08:51:42.27Z</time></trkpt><trkpt lat="43.597228" lon="12.7959289"><ele>321.0</ele><time>2026-04-18T08:51:43.27Z</time></trkpt><trkpt lat="43.5971812" lon="12.7957536"><ele>321.0</ele><time>2026-04-18T08:51:44.271Z</time></trkpt><trkpt lat="43.5971466" lon="12.7955636"><ele>318.75</ele><time>2026-04-18T08:51:45.27Z</time></trkpt><trkpt lat="43.597121" lon="12.7953692"><ele>316.5</ele><time>2026-04-18T08:51:46.27Z</time></trkpt><trkpt lat="43.5970999" lon="12.795172"><ele>314.25</ele><time>2026-04-18T08:51:47.271Z</time></trkpt><trkpt lat="43.597073" lon="12.7949811"><ele>312.0</ele><time>2026-04-18T08:51:48.27Z</time></trkpt><trkpt lat="43.5970391" lon="12.7947969"><ele>312.0</ele><time>2026-04-18T08:51:49.27Z</time></trkpt><trkpt lat="43.5970032" lon="12.7946191"><ele>312.0</ele><time>2026-04-18T08:51:50.27Z</time></trkpt><trkpt lat="43.5969584" lon="12.794444"><ele>312.0</ele><time>2026-04-18T08:51:51.27Z</time></trkpt><trkpt lat="43.5968953" lon="12.7942743"><ele>312.0</ele><time>2026-04-18T08:51:52.27Z</time></trkpt><trkpt lat="43.596821" lon="12.7941117"><ele>314.5</ele><time>2026-04-18T08:51:53.271Z</time></trkpt><trkpt lat="43.5967387" lon="12.793961"><ele>317.0</ele><time>2026-04-18T08:51:54.27Z</time></trkpt><trkpt lat="43.596651" lon="12.7938179"><ele>319.5</ele><time>2026-04-18T08:51:55.27Z</time></trkpt><trkpt lat="43.5965477" lon="12.7936837"><ele>322.0</ele><time>2026-04-18T08:51:56.27Z</time></trkpt><trkpt lat="43.5964281" lon="12.7935691"><ele>323.5</ele><time>2026-04-18T08:51:57.27Z</time></trkpt><trkpt lat="43.5962976" lon="12.7934721"><ele>325.0</ele><time>2026-04-18T08:51:58.271Z</time></trkpt><trkpt lat="43.5961693" lon="12.7933774"><ele>326.5</ele><time>2026-04-18T08:51:59.27Z</time></trkpt><trkpt lat="43.5960453" lon="12.7932789"><ele>328.0</ele><time>2026-04-18T08:52:00.27Z</time></trkpt><trkpt lat="43.5959224" lon="12.7931769"><ele>328.0</ele><time>2026-04-18T08:52:01.27Z</time></trkpt><trkpt lat="43.5957992" lon="12.7930736"><ele>328.0</ele><time>2026-04-18T08:52:02.27Z</time></trkpt><trkpt lat="43.5956768" lon="12.7929702"><ele>328.0</ele><time>2026-04-18T08:52:03.27Z</time></trkpt><trkpt lat="43.595553" lon="12.7928656"><ele>328.0</ele><time>2026-04-18T08:52:04.27Z</time></trkpt><trkpt lat="43.5954308" lon="12.7927583"><ele>326.5</ele><time>2026-04-18T08:52:05.271Z</time></trkpt><trkpt lat="43.5953108" lon="12.7926488"><ele>325.0</ele><time>2026-04-18T08:52:06.27Z</time></trkpt><trkpt lat="43.5951965" lon="12.7925412"><ele>323.5</ele><time>2026-04-18T08:52:07.27Z</time></trkpt><trkpt lat="43.5950914" lon="12.7924283"><ele>322.0</ele><time>2026-04-18T08:52:08.27Z</time></trkpt><trkpt lat="43.5950022" lon="12.7923065"><ele>322.0</ele><time>2026-04-18T08:52:09.271Z</time></trkpt><trkpt lat="43.5949347" lon="12.7921673"><ele>322.0</ele><time>2026-04-18T08:52:10.27Z</time></trkpt><trkpt lat="43.5948845" lon="12.7920084"><ele>322.0</ele><time>2026-04-18T08:52:11.271Z</time></trkpt><trkpt lat="43.5948459" lon="12.7918358"><ele>322.0</ele><time>2026-04-18T08:52:12.27Z</time></trkpt><trkpt lat="43.5948248" lon="12.7916506"><ele>320.0</ele><time>2026-04-18T08:52:13.271Z</time></trkpt><trkpt lat="43.5948132" lon="12.7914623"><ele>318.0</ele><time>2026-04-18T08:52:14.27Z</time></trkpt><trkpt lat="43.594802" lon="12.7912674"><ele>316.0</ele><time>2026-04-18T08:52:15.271Z</time></trkpt><trkpt lat="43.5947872" lon="12.7910736"><ele>314.0</ele><time>2026-04-18T08:52:16.27Z</time></trkpt><trkpt lat="43.5947674" lon="12.7908803"><ele>314.0</ele><time>2026-04-18T08:52:17.271Z</time></trkpt><trkpt lat="43.5947506" lon="12.7906875"><ele>314.0</ele><time>2026-04-18T08:52:18.27Z</time></trkpt><trkpt lat="43.5947392" lon="12.7904952"><ele>314.0</ele><time>2026-04-18T08:52:19.27Z</time></trkpt><trkpt lat="43.5947275" lon="12.7903093"><ele>314.0</ele><time>2026-04-18T08:52:20.27Z</time></trkpt><trkpt lat="43.5947153" lon="12.7901304"><ele>314.75</ele><time>2026-04-18T08:52:21.27Z</time></trkpt><trkpt lat="43.5946962" lon="12.7899599"><ele>315.5</ele><time>2026-04-18T08:52:22.27Z</time></trkpt><trkpt lat="43.594672" lon="12.7897813"><ele>316.25</ele><time>2026-04-18T08:52:23.271Z</time></trkpt><trkpt lat="43.5946401" lon="12.7896022"><ele>317.0</ele><time>2026-04-18T08:52:24.27Z</time></trkpt><trkpt lat="43.5945875" lon="12.7894302"><ele>317.75</ele><time>2026-04-18T08:52:25.27Z</time></trkpt><trkpt lat="43.5945082" lon="12.7892696"><ele>318.5</ele><time>2026-04-18T08:52:26.27Z</time></trkpt><trkpt lat="43.5944163" lon="12.7891235"><ele>319.25</ele><time>2026-04-18T08:52:27.271Z</time></trkpt><trkpt lat="43.5943146" lon="12.7889929"><ele>320.0</ele><time>2026-04-18T08:52:28.27Z</time></trkpt><trkpt lat="43.5942017" lon="12.7888731"><ele>320.0</ele><time>2026-04-18T08:52:29.27Z</time></trkpt><trkpt lat="43.5940814" lon="12.7887516"><ele>320.0</ele><time>2026-04-18T08:52:30.271Z</time></trkpt><trkpt lat="43.5939608" lon="12.7886242"><ele>320.0</ele><time>2026-04-18T08:52:31.27Z</time></trkpt><trkpt lat="43.5938388" lon="12.7884931"><ele>319.0</ele><time>2026-04-18T08:52:32.27Z</time></trkpt><trkpt lat="43.5937112" lon="12.788351"><ele>318.0</ele><time>2026-04-18T08:52:33.27Z</time></trkpt><trkpt lat="43.593582" lon="12.7882051"><ele>317.0</ele><time>2026-04-18T08:52:34.271Z</time></trkpt><trkpt lat="43.5934574" lon="12.7880707"><ele>317.0</ele><time>2026-04-18T08:52:35.271Z</time></trkpt><trkpt lat="43.5933398" lon="12.7879477"><ele>317.0</ele><time>2026-04-18T08:52:36.27Z</time></trkpt><trkpt lat="43.5932252" lon="12.7878299"><ele>317.0</ele><time>2026-04-18T08:52:37.27Z</time></trkpt><trkpt lat="43.5931111" lon="12.7877096"><ele>317.0</ele><time>2026-04-18T08:52:38.27Z</time></trkpt><trkpt lat="43.592995" lon="12.7875927"><ele>317.5</ele><time>2026-04-18T08:52:39.27Z</time></trkpt><trkpt lat="43.5928797" lon="12.7874724"><ele>318.0</ele><time>2026-04-18T08:52:40.271Z</time></trkpt><trkpt lat="43.5927663" lon="12.7873494"><ele>318.5</ele><time>2026-04-18T08:52:41.271Z</time></trkpt><trkpt lat="43.5926588" lon="12.7872172"><ele>319.0</ele><time>2026-04-18T08:52:42.27Z</time></trkpt><trkpt lat="43.5925523" lon="12.7870722"><ele>319.0</ele><time>2026-04-18T08:52:43.27Z</time></trkpt><trkpt lat="43.5924441" lon="12.7869257"><ele>319.0</ele><time>2026-04-18T08:52:44.271Z</time></trkpt><trkpt lat="43.5923384" lon="12.7867741"><ele>319.0</ele><time>2026-04-18T08:52:45.27Z</time></trkpt><trkpt lat="43.5922345" lon="12.7866065"><ele>318.66666666666663</ele><time>2026-04-18T08:52:46.27Z</time></trkpt><trkpt lat="43.592128" lon="12.7864276"><ele>318.3333333333333</ele><time>2026-04-18T08:52:47.27Z</time></trkpt><trkpt lat="43.5920215" lon="12.7862499"><ele>318.0</ele><time>2026-04-18T08:52:48.271Z</time></trkpt><trkpt lat="43.5919154" lon="12.786079"><ele>320.0</ele><time>2026-04-18T08:52:49.27Z</time></trkpt><trkpt lat="43.5918095" lon="12.7859032"><ele>322.0</ele><time>2026-04-18T08:52:50.27Z</time></trkpt><trkpt lat="43.591704" lon="12.785723"><ele>324.0</ele><time>2026-04-18T08:52:51.27Z</time></trkpt><trkpt lat="43.5916001" lon="12.785551"><ele>324.0</ele><time>2026-04-18T08:52:52.27Z</time></trkpt><trkpt lat="43.5914972" lon="12.7853877"><ele>324.0</ele><time>2026-04-18T08:52:53.27Z</time></trkpt><trkpt lat="43.5913998" lon="12.785234"><ele>324.0</ele><time>2026-04-18T08:52:54.271Z</time></trkpt><trkpt lat="43.5913125" lon="12.7850819"><ele>324.0</ele><time>2026-04-18T08:52:55.271Z</time></trkpt><trkpt lat="43.5912209" lon="12.7849306"><ele>323.75</ele><time>2026-04-18T08:52:56.27Z</time></trkpt><trkpt lat="43.591128" lon="12.7847789"><ele>323.5</ele><time>2026-04-18T08:52:57.271Z</time></trkpt><trkpt lat="43.5910324" lon="12.7846199"><ele>323.25</ele><time>2026-04-18T08:52:58.271Z</time></trkpt><trkpt lat="43.5909364" lon="12.7844605"><ele>323.0</ele><time>2026-04-18T08:52:59.27Z</time></trkpt><trkpt lat="43.590842" lon="12.7843026"><ele>326.33333333333337</ele><time>2026-04-18T08:53:00.27Z</time></trkpt><trkpt lat="43.5907456" lon="12.7841372"><ele>329.6666666666667</ele><time>2026-04-18T08:53:01.27Z</time></trkpt><trkpt lat="43.5906517" lon="12.7839667"><ele>333.0</ele><time>2026-04-18T08:53:02.27Z</time></trkpt><trkpt lat="43.5905548" lon="12.7837946"><ele>333.0</ele><time>2026-04-18T08:53:03.271Z</time></trkpt><trkpt lat="43.5904559" lon="12.783617"><ele>333.0</ele><time>2026-04-18T08:53:04.27Z</time></trkpt><trkpt lat="43.590354" lon="12.7834476"><ele>333.0</ele><time>2026-04-18T08:53:05.27Z</time></trkpt><trkpt lat="43.5902522" lon="12.7832775"><ele>329.6666666666667</ele><time>2026-04-18T08:53:06.271Z</time></trkpt><trkpt lat="43.5901556" lon="12.7831012"><ele>326.33333333333337</ele><time>2026-04-18T08:53:07.271Z</time></trkpt><trkpt lat="43.5900618" lon="12.782926"><ele>323.0</ele><time>2026-04-18T08:53:08.271Z</time></trkpt><trkpt lat="43.5899643" lon="12.7827526"><ele>324.33333333333337</ele><time>2026-04-18T08:53:09.271Z</time></trkpt><trkpt lat="43.5898593" lon="12.7825823"><ele>325.6666666666667</ele><time>2026-04-18T08:53:10.27Z</time></trkpt><trkpt lat="43.5897515" lon="12.7824169"><ele>327.0</ele><time>2026-04-18T08:53:11.27Z</time></trkpt><trkpt lat="43.5896442" lon="12.7822527"><ele>327.0</ele><time>2026-04-18T08:53:12.27Z</time></trkpt><trkpt lat="43.589539" lon="12.7820842"><ele>327.0</ele><time>2026-04-18T08:53:13.27Z</time></trkpt><trkpt lat="43.5894358" lon="12.7819078"><ele>327.0</ele><time>2026-04-18T08:53:14.271Z</time></trkpt><trkpt lat="43.5893294" lon="12.7817319"><ele>325.6666666666667</ele><time>2026-04-18T08:53:15.27Z</time></trkpt><trkpt lat="43.5892202" lon="12.7815604"><ele>324.33333333333337</ele><time>2026-04-18T08:53:16.27Z</time></trkpt><trkpt lat="43.5891081" lon="12.781394"><ele>323.0</ele><time>2026-04-18T08:53:17.27Z</time></trkpt><trkpt lat="43.5889846" lon="12.7812348"><ele>323.0</ele><time>2026-04-18T08:53:18.27Z</time></trkpt><trkpt lat="43.5888518" lon="12.7810811"><ele>323.0</ele><time>2026-04-18T08:53:19.27Z</time></trkpt><trkpt lat="43.5887245" lon="12.7809287"><ele>323.0</ele><time>2026-04-18T08:53:20.271Z</time></trkpt><trkpt lat="43.5886004" lon="12.7807753"><ele>322.6666666666667</ele><time>2026-04-18T08:53:21.27Z</time></trkpt><trkpt lat="43.5884772" lon="12.7806275"><ele>322.3333333333333</ele><time>2026-04-18T08:53:22.27Z</time></trkpt><trkpt lat="43.588364" lon="12.7804905"><ele>322.0</ele><time>2026-04-18T08:53:23.271Z</time></trkpt><trkpt lat="43.5882613" lon="12.780366"><ele>322.0</ele><time>2026-04-18T08:53:24.27Z</time></trkpt><trkpt lat="43.5881697" lon="12.7802517"><ele>322.0</ele><time>2026-04-18T08:53:25.271Z</time></trkpt><trkpt lat="43.5880987" lon="12.7801363"><ele>322.0</ele><time>2026-04-18T08:53:26.27Z</time></trkpt><trkpt lat="43.5880486" lon="12.7800026"><ele>322.0</ele><time>2026-04-18T08:53:27.271Z</time></trkpt><trkpt lat="43.5880136" lon="12.7798371"><ele>324.75</ele><time>2026-04-18T08:53:28.27Z</time></trkpt><trkpt lat="43.5879828" lon="12.7796558"><ele>327.5</ele><time>2026-04-18T08:53:29.27Z</time></trkpt><trkpt lat="43.5879484" lon="12.7794741"><ele>330.25</ele><time>2026-04-18T08:53:30.27Z</time></trkpt><trkpt lat="43.5879137" lon="12.7792971"><ele>333.0</ele><time>2026-04-18T08:53:31.27Z</time></trkpt><trkpt lat="43.5878791" lon="12.7791175"><ele>332.0</ele><time>2026-04-18T08:53:32.27Z</time></trkpt><trkpt lat="43.5878474" lon="12.7789316"><ele>331.0</ele><time>2026-04-18T08:53:33.27Z</time></trkpt><trkpt lat="43.5878152" lon="12.7787389"><ele>330.0</ele><time>2026-04-18T08:53:34.27Z</time></trkpt><trkpt lat="43.5877814" lon="12.7785385"><ele>329.0</ele><time>2026-04-18T08:53:35.27Z</time></trkpt><trkpt lat="43.5877458" lon="12.7783474"><ele>329.0</ele><time>2026-04-18T08:53:36.27Z</time></trkpt><trkpt lat="43.5877131" lon="12.7781688"><ele>329.0</ele><time>2026-04-18T08:53:37.27Z</time></trkpt><trkpt lat="43.5876827" lon="12.7779871"><ele>329.0</ele><time>2026-04-18T08:53:38.27Z</time></trkpt><trkpt lat="43.5876495" lon="12.7777939"><ele>329.0</ele><time>2026-04-18T08:53:39.27Z</time></trkpt><trkpt lat="43.5876135" lon="12.7775985"><ele>329.0</ele><time>2026-04-18T08:53:40.27Z</time></trkpt><trkpt lat="43.5875672" lon="12.7774102"><ele>329.0</ele><time>2026-04-18T08:53:41.271Z</time></trkpt><trkpt lat="43.5875081" lon="12.7772327"><ele>329.0</ele><time>2026-04-18T08:53:42.27Z</time></trkpt><trkpt lat="43.5874233" lon="12.7770602"><ele>329.0</ele><time>2026-04-18T08:53:43.27Z</time></trkpt><trkpt lat="43.5873169" lon="12.7768992"><ele>329.5</ele><time>2026-04-18T08:53:44.27Z</time></trkpt><trkpt lat="43.5872088" lon="12.7767434"><ele>330.0</ele><time>2026-04-18T08:53:45.27Z</time></trkpt><trkpt lat="43.5871111" lon="12.7765964"><ele>330.5</ele><time>2026-04-18T08:53:46.271Z</time></trkpt><trkpt lat="43.5870206" lon="12.776466"><ele>331.0</ele><time>2026-04-18T08:53:47.27Z</time></trkpt><trkpt lat="43.5869276" lon="12.7763389"><ele>331.0</ele><time>2026-04-18T08:53:48.27Z</time></trkpt><trkpt lat="43.5868351" lon="12.7762091"><ele>331.0</ele><time>2026-04-18T08:53:49.271Z</time></trkpt><trkpt lat="43.5867492" lon="12.7760844"><ele>331.0</ele><time>2026-04-18T08:53:50.27Z</time></trkpt><trkpt lat="43.5866734" lon="12.775965"><ele>331.0</ele><time>2026-04-18T08:53:51.27Z</time></trkpt><trkpt lat="43.5866082" lon="12.7758402"><ele>330.6</ele><time>2026-04-18T08:53:52.27Z</time></trkpt><trkpt lat="43.5865705" lon="12.7757042"><ele>330.20000000000005</ele><time>2026-04-18T08:53:53.27Z</time></trkpt><trkpt lat="43.5865561" lon="12.7755589"><ele>329.79999999999995</ele><time>2026-04-18T08:53:54.271Z</time></trkpt><trkpt lat="43.5865642" lon="12.7754238"><ele>329.4</ele><time>2026-04-18T08:53:55.271Z</time></trkpt><trkpt lat="43.5865821" lon="12.7753095"><ele>329.0</ele><time>2026-04-18T08:53:56.27Z</time></trkpt><trkpt lat="43.5866029" lon="12.7752107"><ele>329.33333333333337</ele><time>2026-04-18T08:53:57.271Z</time></trkpt><trkpt lat="43.5866321" lon="12.7750695"><ele>329.6666666666667</ele><time>2026-04-18T08:53:59.27Z</time></trkpt><trkpt lat="43.5866396" lon="12.7749759"><ele>330.0</ele><time>2026-04-18T08:54:01.27Z</time></trkpt><trkpt lat="43.5865815" lon="12.7749089"><ele>330.3333333333333</ele><time>2026-04-18T08:54:04.271Z</time></trkpt><trkpt lat="43.5865" lon="12.7749895"><ele>330.66666666666663</ele><time>2026-04-18T08:54:06.27Z</time></trkpt><trkpt lat="43.5864403" lon="12.775075"><ele>331.0</ele><time>2026-04-18T08:54:07.271Z</time></trkpt><trkpt lat="43.5863652" lon="12.7751582"><ele>330.6</ele><time>2026-04-18T08:54:08.27Z</time></trkpt><trkpt lat="43.5862923" lon="12.7752269"><ele>330.20000000000005</ele><time>2026-04-18T08:54:09.27Z</time></trkpt><trkpt lat="43.5862158" lon="12.7753005"><ele>329.79999999999995</ele><time>2026-04-18T08:54:10.27Z</time></trkpt><trkpt lat="43.5861432" lon="12.775378"><ele>329.4</ele><time>2026-04-18T08:54:11.271Z</time></trkpt><trkpt lat="43.5860734" lon="12.7754662"><ele>329.0</ele><time>2026-04-18T08:54:12.27Z</time></trkpt><trkpt lat="43.5860012" lon="12.7755645"><ele>330.0</ele><time>2026-04-18T08:54:13.27Z</time></trkpt><trkpt lat="43.5859289" lon="12.7756654"><ele>331.0</ele><time>2026-04-18T08:54:14.27Z</time></trkpt><trkpt lat="43.5858564" lon="12.7757684"><ele>332.0</ele><time>2026-04-18T08:54:15.271Z</time></trkpt><trkpt lat="43.5857912" lon="12.7758623"><ele>333.0</ele><time>2026-04-18T08:54:16.27Z</time></trkpt><trkpt lat="43.5857294" lon="12.7759531"><ele>334.0</ele><time>2026-04-18T08:54:17.27Z</time></trkpt><trkpt lat="43.5856649" lon="12.7760374"><ele>334.0</ele><time>2026-04-18T08:54:18.271Z</time></trkpt><trkpt lat="43.5855952" lon="12.7760946"><ele>334.0</ele><time>2026-04-18T08:54:19.27Z</time></trkpt><trkpt lat="43.5855203" lon="12.7761134"><ele>334.0</ele><time>2026-04-18T08:54:20.27Z</time></trkpt><trkpt lat="43.5854384" lon="12.7760979"><ele>334.0</ele><time>2026-04-18T08:54:21.27Z</time></trkpt><trkpt lat="43.5853595" lon="12.7760943"><ele>334.0</ele><time>2026-04-18T08:54:22.271Z</time></trkpt><trkpt lat="43.5852834" lon="12.7761292"><ele>334.0</ele><time>2026-04-18T08:54:23.27Z</time></trkpt><trkpt lat="43.5852094" lon="12.776182"><ele>334.79999999999995</ele><time>2026-04-18T08:54:24.27Z</time></trkpt><trkpt lat="43.5851399" lon="12.7762487"><ele>335.59999999999997</ele><time>2026-04-18T08:54:25.27Z</time></trkpt><trkpt lat="43.585081" lon="12.7763492"><ele>336.4</ele><time>2026-04-18T08:54:26.271Z</time></trkpt><trkpt lat="43.5850392" lon="12.77648"><ele>337.2</ele><time>2026-04-18T08:54:27.271Z</time></trkpt><trkpt lat="43.5850208" lon="12.7766318"><ele>338.0</ele><time>2026-04-18T08:54:28.27Z</time></trkpt><trkpt lat="43.5850191" lon="12.776791"><ele>339.25</ele><time>2026-04-18T08:54:29.271Z</time></trkpt><trkpt lat="43.5850226" lon="12.7769498"><ele>340.5</ele><time>2026-04-18T08:54:30.271Z</time></trkpt><trkpt lat="43.5850199" lon="12.7771088"><ele>341.75</ele><time>2026-04-18T08:54:31.271Z</time></trkpt><trkpt lat="43.5850092" lon="12.7772685"><ele>343.0</ele><time>2026-04-18T08:54:32.271Z</time></trkpt><trkpt lat="43.5849977" lon="12.7774307"><ele>343.0</ele><time>2026-04-18T08:54:33.27Z</time></trkpt><trkpt lat="43.5849902" lon="12.77759"><ele>343.0</ele><time>2026-04-18T08:54:34.271Z</time></trkpt><trkpt lat="43.5849805" lon="12.7777475"><ele>343.0</ele><time>2026-04-18T08:54:35.27Z</time></trkpt><trkpt lat="43.5849744" lon="12.7778971"><ele>343.0</ele><time>2026-04-18T08:54:36.271Z</time></trkpt><trkpt lat="43.5849754" lon="12.7780283"><ele>343.0</ele><time>2026-04-18T08:54:37.271Z</time></trkpt><trkpt lat="43.5849748" lon="12.7781529"><ele>343.59999999999997</ele><time>2026-04-18T08:54:38.27Z</time></trkpt><trkpt lat="43.5849775" lon="12.7782791"><ele>344.2</ele><time>2026-04-18T08:54:39.27Z</time></trkpt><trkpt lat="43.5849678" lon="12.778399"><ele>344.8</ele><time>2026-04-18T08:54:40.271Z</time></trkpt><trkpt lat="43.5849376" lon="12.7785155"><ele>345.4</ele><time>2026-04-18T08:54:41.27Z</time></trkpt><trkpt lat="43.5848868" lon="12.778627"><ele>346.0</ele><time>2026-04-18T08:54:42.271Z</time></trkpt><trkpt lat="43.5848291" lon="12.7787241"><ele>346.0</ele><time>2026-04-18T08:54:43.271Z</time></trkpt><trkpt lat="43.5847578" lon="12.7787879"><ele>346.0</ele><time>2026-04-18T08:54:44.27Z</time></trkpt><trkpt lat="43.5846574" lon="12.7788198"><ele>346.0</ele><time>2026-04-18T08:54:45.27Z</time></trkpt><trkpt lat="43.5845555" lon="12.7788087"><ele>346.0</ele><time>2026-04-18T08:54:46.27Z</time></trkpt><trkpt lat="43.5844725" lon="12.7787529"><ele>346.0</ele><time>2026-04-18T08:54:47.271Z</time></trkpt><trkpt lat="43.5844183" lon="12.778658"><ele>346.0</ele><time>2026-04-18T08:54:48.27Z</time></trkpt><trkpt lat="43.5844003" lon="12.7785362"><ele>346.0</ele><time>2026-04-18T08:54:49.27Z</time></trkpt><trkpt lat="43.5844244" lon="12.7784223"><ele>346.0</ele><time>2026-04-18T08:54:50.27Z</time></trkpt><trkpt lat="43.584463" lon="12.7783233"><ele>346.0</ele><time>2026-04-18T08:54:51.27Z</time></trkpt><trkpt lat="43.58448" lon="12.7782202"><ele>346.0</ele><time>2026-04-18T08:54:52.27Z</time></trkpt><trkpt lat="43.5844712" lon="12.7781052"><ele>346.0</ele><time>2026-04-18T08:54:53.271Z</time></trkpt><trkpt lat="43.5844417" lon="12.7779883"><ele>349.20000000000005</ele><time>2026-04-18T08:54:54.271Z</time></trkpt><trkpt lat="43.5844" lon="12.7778656"><ele>352.40000000000003</ele><time>2026-04-18T08:54:55.27Z</time></trkpt><trkpt lat="43.5843479" lon="12.7777405"><ele>355.6</ele><time>2026-04-18T08:54:56.271Z</time></trkpt><trkpt lat="43.5842936" lon="12.7776133"><ele>358.8</ele><time>2026-04-18T08:54:57.271Z</time></trkpt><trkpt lat="43.5842407" lon="12.7774744"><ele>362.0</ele><time>2026-04-18T08:54:58.27Z</time></trkpt><trkpt lat="43.5841891" lon="12.7773388"><ele>361.0</ele><time>2026-04-18T08:54:59.271Z</time></trkpt><trkpt lat="43.5841359" lon="12.7772127"><ele>360.0</ele><time>2026-04-18T08:55:00.27Z</time></trkpt><trkpt lat="43.5840704" lon="12.7770926"><ele>359.0</ele><time>2026-04-18T08:55:01.27Z</time></trkpt><trkpt lat="43.583985" lon="12.7769888"><ele>358.0</ele><time>2026-04-18T08:55:02.27Z</time></trkpt><trkpt lat="43.5838929" lon="12.7769038"><ele>357.0</ele><time>2026-04-18T08:55:03.271Z</time></trkpt><trkpt lat="43.5837877" lon="12.7768269"><ele>357.0</ele><time>2026-04-18T08:55:04.27Z</time></trkpt><trkpt lat="43.5836815" lon="12.7767718"><ele>357.0</ele><time>2026-04-18T08:55:05.27Z</time></trkpt><trkpt lat="43.5835772" lon="12.7767464"><ele>357.0</ele><time>2026-04-18T08:55:06.27Z</time></trkpt><trkpt lat="43.5834673" lon="12.7767313"><ele>357.0</ele><time>2026-04-18T08:55:07.27Z</time></trkpt><trkpt lat="43.5833611" lon="12.776686"><ele>357.0</ele><time>2026-04-18T08:55:08.27Z</time></trkpt><trkpt lat="43.5832595" lon="12.7766106"><ele>361.0</ele><time>2026-04-18T08:55:09.27Z</time></trkpt><trkpt lat="43.5831668" lon="12.7765331"><ele>365.0</ele><time>2026-04-18T08:55:10.271Z</time></trkpt><trkpt lat="43.5830713" lon="12.7764823"><ele>369.0</ele><time>2026-04-18T08:55:11.271Z</time></trkpt><trkpt lat="43.5829627" lon="12.7764747"><ele>373.0</ele><time>2026-04-18T08:55:12.27Z</time></trkpt><trkpt lat="43.5828428" lon="12.7765023"><ele>377.0</ele><time>2026-04-18T08:55:13.27Z</time></trkpt><trkpt lat="43.5827225" lon="12.7765283"><ele>377.0</ele><time>2026-04-18T08:55:14.27Z</time></trkpt><trkpt lat="43.582608" lon="12.7765375"><ele>377.0</ele><time>2026-04-18T08:55:15.271Z</time></trkpt><trkpt lat="43.5824971" lon="12.7765293"><ele>377.0</ele><time>2026-04-18T08:55:16.27Z</time></trkpt><trkpt lat="43.5823999" lon="12.7764978"><ele>377.0</ele><time>2026-04-18T08:55:17.27Z</time></trkpt><trkpt lat="43.5823045" lon="12.7764301"><ele>377.0</ele><time>2026-04-18T08:55:18.27Z</time></trkpt><trkpt lat="43.5822142" lon="12.7763248"><ele>377.0</ele><time>2026-04-18T08:55:19.271Z</time></trkpt><trkpt lat="43.5821233" lon="12.7762"><ele>377.0</ele><time>2026-04-18T08:55:20.27Z</time></trkpt><trkpt lat="43.5820321" lon="12.7760743"><ele>377.0</ele><time>2026-04-18T08:55:21.271Z</time></trkpt><trkpt lat="43.5819428" lon="12.7759542"><ele>377.0</ele><time>2026-04-18T08:55:22.27Z</time></trkpt><trkpt lat="43.5818546" lon="12.775835"><ele>379.75</ele><time>2026-04-18T08:55:23.27Z</time></trkpt><trkpt lat="43.581775" lon="12.7757159"><ele>382.5</ele><time>2026-04-18T08:55:24.27Z</time></trkpt><trkpt lat="43.5816958" lon="12.7755964"><ele>385.25</ele><time>2026-04-18T08:55:25.271Z</time></trkpt><trkpt lat="43.5816119" lon="12.7754869"><ele>388.0</ele><time>2026-04-18T08:55:26.27Z</time></trkpt><trkpt lat="43.5815277" lon="12.7753792"><ele>388.0</ele><time>2026-04-18T08:55:27.271Z</time></trkpt><trkpt lat="43.5814456" lon="12.7752723"><ele>388.0</ele><time>2026-04-18T08:55:28.27Z</time></trkpt><trkpt lat="43.5813643" lon="12.7751674"><ele>388.0</ele><time>2026-04-18T08:55:29.271Z</time></trkpt><trkpt lat="43.5812911" lon="12.77506"><ele>388.0</ele><time>2026-04-18T08:55:30.27Z</time></trkpt><trkpt lat="43.581227" lon="12.7749384"><ele>388.0</ele><time>2026-04-18T08:55:31.271Z</time></trkpt><trkpt lat="43.5811782" lon="12.7747965"><ele>389.0</ele><time>2026-04-18T08:55:32.27Z</time></trkpt><trkpt lat="43.5811453" lon="12.774653"><ele>390.0</ele><time>2026-04-18T08:55:33.27Z</time></trkpt><trkpt lat="43.5811162" lon="12.7745203"><ele>391.0</ele><time>2026-04-18T08:55:34.271Z</time></trkpt><trkpt lat="43.5810663" lon="12.7744079"><ele>392.0</ele><time>2026-04-18T08:55:35.27Z</time></trkpt><trkpt lat="43.5809833" lon="12.7743334"><ele>393.0</ele><time>2026-04-18T08:55:36.271Z</time></trkpt><trkpt lat="43.5808781" lon="12.7742959"><ele>397.0</ele><time>2026-04-18T08:55:37.27Z</time></trkpt><trkpt lat="43.5807683" lon="12.7742572"><ele>401.0</ele><time>2026-04-18T08:55:38.27Z</time></trkpt><trkpt lat="43.5806502" lon="12.7741835"><ele>405.0</ele><time>2026-04-18T08:55:39.27Z</time></trkpt><trkpt lat="43.5805308" lon="12.7740835"><ele>409.0</ele><time>2026-04-18T08:55:40.271Z</time></trkpt><trkpt lat="43.5804037" lon="12.773986"><ele>409.0</ele><time>2026-04-18T08:55:41.27Z</time></trkpt><trkpt lat="43.5802736" lon="12.7739023"><ele>409.0</ele><time>2026-04-18T08:55:42.271Z</time></trkpt><trkpt lat="43.5801539" lon="12.7738123"><ele>409.0</ele><time>2026-04-18T08:55:43.27Z</time></trkpt><trkpt lat="43.5800579" lon="12.7737207"><ele>409.0</ele><time>2026-04-18T08:55:44.27Z</time></trkpt><trkpt lat="43.5799779" lon="12.7736397"><ele>409.0</ele><time>2026-04-18T08:55:45.27Z</time></trkpt><trkpt lat="43.5798996" lon="12.773558"><ele>409.0</ele><time>2026-04-18T08:55:46.271Z</time></trkpt><trkpt lat="43.5798133" lon="12.7734807"><ele>409.0</ele><time>2026-04-18T08:55:47.27Z</time></trkpt><trkpt lat="43.5797227" lon="12.7734061"><ele>409.0</ele><time>2026-04-18T08:55:48.27Z</time></trkpt><trkpt lat="43.5796275" lon="12.77334"><ele>409.0</ele><time>2026-04-18T08:55:49.27Z</time></trkpt><trkpt lat="43.5795246" lon="12.7732774"><ele>411.79999999999995</ele><time>2026-04-18T08:55:50.271Z</time></trkpt><trkpt lat="43.5794275" lon="12.7732066"><ele>414.59999999999997</ele><time>2026-04-18T08:55:51.271Z</time></trkpt><trkpt lat="43.5793477" lon="12.7731137"><ele>417.4</ele><time>2026-04-18T08:55:52.271Z</time></trkpt><trkpt lat="43.5792815" lon="12.7730026"><ele>420.2</ele><time>2026-04-18T08:55:53.27Z</time></trkpt><trkpt lat="43.5792293" lon="12.7728678"><ele>423.0</ele><time>2026-04-18T08:55:54.271Z</time></trkpt><trkpt lat="43.5791735" lon="12.7727266"><ele>422.75</ele><time>2026-04-18T08:55:55.271Z</time></trkpt><trkpt lat="43.5791086" lon="12.7725813"><ele>422.5</ele><time>2026-04-18T08:55:56.271Z</time></trkpt><trkpt lat="43.5790398" lon="12.7724354"><ele>422.25</ele><time>2026-04-18T08:55:57.27Z</time></trkpt><trkpt lat="43.5789728" lon="12.7722893"><ele>422.0</ele><time>2026-04-18T08:55:58.27Z</time></trkpt><trkpt lat="43.5788868" lon="12.7721521"><ele>422.0</ele><time>2026-04-18T08:55:59.271Z</time></trkpt><trkpt lat="43.5787932" lon="12.7720232"><ele>422.0</ele><time>2026-04-18T08:56:00.27Z</time></trkpt><trkpt lat="43.5787129" lon="12.7718893"><ele>422.0</ele><time>2026-04-18T08:56:01.27Z</time></trkpt><trkpt lat="43.578633" lon="12.7717543"><ele>422.0</ele><time>2026-04-18T08:56:02.271Z</time></trkpt><trkpt lat="43.5785553" lon="12.7716172"><ele>425.0</ele><time>2026-04-18T08:56:03.27Z</time></trkpt><trkpt lat="43.5784669" lon="12.7714813"><ele>428.0</ele><time>2026-04-18T08:56:04.27Z</time></trkpt><trkpt lat="43.5783596" lon="12.7713721"><ele>431.0</ele><time>2026-04-18T08:56:05.271Z</time></trkpt><trkpt lat="43.5782412" lon="12.7712819"><ele>434.0</ele><time>2026-04-18T08:56:06.27Z</time></trkpt><trkpt lat="43.578113" lon="12.7711994"><ele>434.0</ele><time>2026-04-18T08:56:07.271Z</time></trkpt><trkpt lat="43.577983" lon="12.7711283"><ele>434.0</ele><time>2026-04-18T08:56:08.27Z</time></trkpt><trkpt lat="43.5778528" lon="12.7710684"><ele>434.0</ele><time>2026-04-18T08:56:09.27Z</time></trkpt><trkpt lat="43.5777166" lon="12.7710138"><ele>434.0</ele><time>2026-04-18T08:56:10.27Z</time></trkpt><trkpt lat="43.5775754" lon="12.7709507"><ele>439.5</ele><time>2026-04-18T08:56:11.27Z</time></trkpt><trkpt lat="43.5774344" lon="12.770887"><ele>445.0</ele><time>2026-04-18T08:56:12.271Z</time></trkpt><trkpt lat="43.5772929" lon="12.7708289"><ele>450.5</ele><time>2026-04-18T08:56:13.27Z</time></trkpt><trkpt lat="43.5771521" lon="12.7707735"><ele>456.0</ele><time>2026-04-18T08:56:14.27Z</time></trkpt><trkpt lat="43.57702" lon="12.7707156"><ele>458.25</ele><time>2026-04-18T08:56:15.27Z</time></trkpt><trkpt lat="43.5769032" lon="12.7706479"><ele>460.5</ele><time>2026-04-18T08:56:16.27Z</time></trkpt><trkpt lat="43.5767875" lon="12.7705754"><ele>462.75</ele><time>2026-04-18T08:56:17.27Z</time></trkpt><trkpt lat="43.5766704" lon="12.7705007"><ele>465.0</ele><time>2026-04-18T08:56:18.27Z</time></trkpt><trkpt lat="43.5765673" lon="12.7704329"><ele>465.0</ele><time>2026-04-18T08:56:19.271Z</time></trkpt><trkpt lat="43.5764766" lon="12.7703851"><ele>465.0</ele><time>2026-04-18T08:56:20.27Z</time></trkpt><trkpt lat="43.5763938" lon="12.7703836"><ele>465.0</ele><time>2026-04-18T08:56:21.27Z</time></trkpt><trkpt lat="43.5763207" lon="12.7704374"><ele>465.0</ele><time>2026-04-18T08:56:22.271Z</time></trkpt><trkpt lat="43.5762663" lon="12.7705299"><ele>465.0</ele><time>2026-04-18T08:56:23.271Z</time></trkpt><trkpt lat="43.5762112" lon="12.7706198"><ele>465.0</ele><time>2026-04-18T08:56:24.27Z</time></trkpt><trkpt lat="43.5761253" lon="12.7706505"><ele>466.0</ele><time>2026-04-18T08:56:25.27Z</time></trkpt><trkpt lat="43.5760234" lon="12.7706261"><ele>467.0</ele><time>2026-04-18T08:56:26.27Z</time></trkpt><trkpt lat="43.5759244" lon="12.7705452"><ele>468.0</ele><time>2026-04-18T08:56:27.271Z</time></trkpt><trkpt lat="43.5758146" lon="12.7704394"><ele>469.0</ele><time>2026-04-18T08:56:28.27Z</time></trkpt><trkpt lat="43.5756911" lon="12.7703294"><ele>469.0</ele><time>2026-04-18T08:56:29.271Z</time></trkpt><trkpt lat="43.5755596" lon="12.7702283"><ele>469.0</ele><time>2026-04-18T08:56:30.271Z</time></trkpt><trkpt lat="43.5754312" lon="12.7701491"><ele>469.0</ele><time>2026-04-18T08:56:31.27Z</time></trkpt><trkpt lat="43.5753037" lon="12.7700929"><ele>469.0</ele><time>2026-04-18T08:56:32.27Z</time></trkpt><trkpt lat="43.575176" lon="12.7700623"><ele>469.5</ele><time>2026-04-18T08:56:33.27Z</time></trkpt><trkpt lat="43.5750489" lon="12.7700718"><ele>470.0</ele><time>2026-04-18T08:56:34.27Z</time></trkpt><trkpt lat="43.5749258" lon="12.7701263"><ele>470.5</ele><time>2026-04-18T08:56:35.271Z</time></trkpt><trkpt lat="43.5748142" lon="12.7702267"><ele>471.0</ele><time>2026-04-18T08:56:36.271Z</time></trkpt><trkpt lat="43.5747056" lon="12.7703527"><ele>471.0</ele><time>2026-04-18T08:56:37.27Z</time></trkpt><trkpt lat="43.5745978" lon="12.7704909"><ele>471.0</ele><time>2026-04-18T08:56:38.27Z</time></trkpt><trkpt lat="43.57449" lon="12.7706182"><ele>471.0</ele><time>2026-04-18T08:56:39.271Z</time></trkpt><trkpt lat="43.5743835" lon="12.7707286"><ele>471.0</ele><time>2026-04-18T08:56:40.27Z</time></trkpt><trkpt lat="43.5742709" lon="12.7708276"><ele>470.75</ele><time>2026-04-18T08:56:41.27Z</time></trkpt><trkpt lat="43.5741532" lon="12.7709115"><ele>470.5</ele><time>2026-04-18T08:56:42.271Z</time></trkpt><trkpt lat="43.574023" lon="12.770972"><ele>470.25</ele><time>2026-04-18T08:56:43.27Z</time></trkpt><trkpt lat="43.5738835" lon="12.7710103"><ele>470.0</ele><time>2026-04-18T08:56:44.27Z</time></trkpt><trkpt lat="43.5737384" lon="12.7710286"><ele>471.75</ele><time>2026-04-18T08:56:45.271Z</time></trkpt><trkpt lat="43.5735927" lon="12.7710386"><ele>473.5</ele><time>2026-04-18T08:56:46.271Z</time></trkpt><trkpt lat="43.5734532" lon="12.7710495"><ele>475.25</ele><time>2026-04-18T08:56:47.27Z</time></trkpt><trkpt lat="43.5733132" lon="12.7710742"><ele>477.0</ele><time>2026-04-18T08:56:48.271Z</time></trkpt><trkpt lat="43.5731789" lon="12.7711296"><ele>477.0</ele><time>2026-04-18T08:56:49.27Z</time></trkpt><trkpt lat="43.5730452" lon="12.771211"><ele>477.0</ele><time>2026-04-18T08:56:50.27Z</time></trkpt><trkpt lat="43.572911" lon="12.771291"><ele>477.0</ele><time>2026-04-18T08:56:51.271Z</time></trkpt><trkpt lat="43.5727785" lon="12.7713684"><ele>477.0</ele><time>2026-04-18T08:56:52.27Z</time></trkpt><trkpt lat="43.5726546" lon="12.7714358"><ele>479.25</ele><time>2026-04-18T08:56:53.271Z</time></trkpt><trkpt lat="43.5725412" lon="12.7714973"><ele>481.5</ele><time>2026-04-18T08:56:54.271Z</time></trkpt><trkpt lat="43.5724349" lon="12.771563"><ele>483.75</ele><time>2026-04-18T08:56:55.27Z</time></trkpt><trkpt lat="43.5723386" lon="12.7716401"><ele>486.0</ele><time>2026-04-18T08:56:56.27Z</time></trkpt><trkpt lat="43.5722622" lon="12.7717478"><ele>484.0</ele><time>2026-04-18T08:56:57.271Z</time></trkpt><trkpt lat="43.5722206" lon="12.7718891"><ele>482.0</ele><time>2026-04-18T08:56:58.27Z</time></trkpt><trkpt lat="43.5722088" lon="12.772053"><ele>480.0</ele><time>2026-04-18T08:56:59.27Z</time></trkpt><trkpt lat="43.5722038" lon="12.7722266"><ele>478.0</ele><time>2026-04-18T08:57:00.271Z</time></trkpt><trkpt lat="43.5721876" lon="12.7723955"><ele>478.0</ele><time>2026-04-18T08:57:01.271Z</time></trkpt><trkpt lat="43.5721513" lon="12.7725542"><ele>478.0</ele><time>2026-04-18T08:57:02.27Z</time></trkpt><trkpt lat="43.5720992" lon="12.7727063"><ele>478.0</ele><time>2026-04-18T08:57:03.27Z</time></trkpt><trkpt lat="43.572037" lon="12.7728641"><ele>478.0</ele><time>2026-04-18T08:57:04.27Z</time></trkpt><trkpt lat="43.5719768" lon="12.7730262"><ele>482.25</ele><time>2026-04-18T08:57:05.27Z</time></trkpt><trkpt lat="43.5719304" lon="12.7731873"><ele>486.5</ele><time>2026-04-18T08:57:06.271Z</time></trkpt><trkpt lat="43.5718945" lon="12.7733524"><ele>490.75</ele><time>2026-04-18T08:57:07.27Z</time></trkpt><trkpt lat="43.571878" lon="12.7735247"><ele>495.0</ele><time>2026-04-18T08:57:08.27Z</time></trkpt><trkpt lat="43.5718902" lon="12.7737082"><ele>495.0</ele><time>2026-04-18T08:57:09.271Z</time></trkpt><trkpt lat="43.5719225" lon="12.7739039"><ele>495.0</ele><time>2026-04-18T08:57:10.27Z</time></trkpt><trkpt lat="43.5719757" lon="12.7740999"><ele>495.0</ele><time>2026-04-18T08:57:11.27Z</time></trkpt><trkpt lat="43.5720459" lon="12.774289"><ele>492.0</ele><time>2026-04-18T08:57:12.27Z</time></trkpt><trkpt lat="43.5721128" lon="12.7744794"><ele>489.0</ele><time>2026-04-18T08:57:13.271Z</time></trkpt><trkpt lat="43.5721627" lon="12.774685"><ele>486.0</ele><time>2026-04-18T08:57:14.27Z</time></trkpt><trkpt lat="43.5722031" lon="12.774893"><ele>486.0</ele><time>2026-04-18T08:57:15.27Z</time></trkpt><trkpt lat="43.5722486" lon="12.7750897"><ele>486.0</ele><time>2026-04-18T08:57:16.271Z</time></trkpt><trkpt lat="43.5723027" lon="12.775284"><ele>486.0</ele><time>2026-04-18T08:57:17.27Z</time></trkpt><trkpt lat="43.5723609" lon="12.7754713"><ele>486.0</ele><time>2026-04-18T08:57:18.27Z</time></trkpt><trkpt lat="43.5724176" lon="12.7756413"><ele>489.0</ele><time>2026-04-18T08:57:19.271Z</time></trkpt><trkpt lat="43.5724716" lon="12.7757965"><ele>492.0</ele><time>2026-04-18T08:57:20.27Z</time></trkpt><trkpt lat="43.5725145" lon="12.7759519"><ele>495.0</ele><time>2026-04-18T08:57:21.27Z</time></trkpt><trkpt lat="43.5725342" lon="12.7761219"><ele>498.0</ele><time>2026-04-18T08:57:22.27Z</time></trkpt><trkpt lat="43.5725407" lon="12.776297"><ele>498.8333333333333</ele><time>2026-04-18T08:57:23.27Z</time></trkpt><trkpt lat="43.5725427" lon="12.7764561"><ele>499.66666666666663</ele><time>2026-04-18T08:57:24.27Z</time></trkpt><trkpt lat="43.5725356" lon="12.7765883"><ele>500.5</ele><time>2026-04-18T08:57:25.27Z</time></trkpt><trkpt lat="43.5725036" lon="12.7766929"><ele>501.3333333333333</ele><time>2026-04-18T08:57:26.271Z</time></trkpt><trkpt lat="43.5724424" lon="12.7767491"><ele>502.16666666666663</ele><time>2026-04-18T08:57:27.27Z</time></trkpt><trkpt lat="43.5723675" lon="12.7767455"><ele>503.0</ele><time>2026-04-18T08:57:28.27Z</time></trkpt><trkpt lat="43.5722825" lon="12.7767113"><ele>503.0</ele><time>2026-04-18T08:57:29.271Z</time></trkpt><trkpt lat="43.5721843" lon="12.7766685"><ele>502.99999999999994</ele><time>2026-04-18T08:57:30.27Z</time></trkpt><trkpt lat="43.5720802" lon="12.7766225"><ele>502.99999999999994</ele><time>2026-04-18T08:57:31.27Z</time></trkpt><trkpt lat="43.5719723" lon="12.7765707"><ele>503.0</ele><time>2026-04-18T08:57:32.27Z</time></trkpt><trkpt lat="43.5718763" lon="12.7765069"><ele>503.0</ele><time>2026-04-18T08:57:33.27Z</time></trkpt><trkpt lat="43.5717972" lon="12.7764365"><ele>503.79999999999995</ele><time>2026-04-18T08:57:34.271Z</time></trkpt><trkpt lat="43.5717314" lon="12.7763855"><ele>504.59999999999997</ele><time>2026-04-18T08:57:35.27Z</time></trkpt><trkpt lat="43.5716514" lon="12.7763967"><ele>505.40000000000003</ele><time>2026-04-18T08:57:36.27Z</time></trkpt><trkpt lat="43.5715639" lon="12.7764782"><ele>506.20000000000005</ele><time>2026-04-18T08:57:37.271Z</time></trkpt><trkpt lat="43.5714772" lon="12.7765979"><ele>507.0</ele><time>2026-04-18T08:57:38.271Z</time></trkpt><trkpt lat="43.5713936" lon="12.7767285"><ele>504.6</ele><time>2026-04-18T08:57:39.271Z</time></trkpt><trkpt lat="43.5713179" lon="12.776858"><ele>502.20000000000005</ele><time>2026-04-18T08:57:40.271Z</time></trkpt><trkpt lat="43.5712522" lon="12.7769779"><ele>499.8</ele><time>2026-04-18T08:57:41.27Z</time></trkpt><trkpt lat="43.5711815" lon="12.7770856"><ele>497.4</ele><time>2026-04-18T08:57:42.27Z</time></trkpt><trkpt lat="43.5710945" lon="12.777165"><ele>495.0</ele><time>2026-04-18T08:57:43.271Z</time></trkpt><trkpt lat="43.5709891" lon="12.7771942"><ele>495.0</ele><time>2026-04-18T08:57:44.27Z</time></trkpt><trkpt lat="43.5708762" lon="12.7771783"><ele>495.0</ele><time>2026-04-18T08:57:45.27Z</time></trkpt><trkpt lat="43.5707707" lon="12.7771565"><ele>495.0</ele><time>2026-04-18T08:57:46.271Z</time></trkpt><trkpt lat="43.5706795" lon="12.7771565"><ele>495.0</ele><time>2026-04-18T08:57:47.271Z</time></trkpt><trkpt lat="43.5706056" lon="12.7771999"><ele>495.0</ele><time>2026-04-18T08:57:48.27Z</time></trkpt><trkpt lat="43.5705451" lon="12.7772762"><ele>495.0</ele><time>2026-04-18T08:57:49.271Z</time></trkpt><trkpt lat="43.5705274" lon="12.7774173"><ele>495.0</ele><time>2026-04-18T08:57:50.271Z</time></trkpt><trkpt lat="43.5705104" lon="12.7775904"><ele>495.0</ele><time>2026-04-18T08:57:51.271Z</time></trkpt><trkpt lat="43.5704875" lon="12.7777682"><ele>495.0</ele><time>2026-04-18T08:57:52.27Z</time></trkpt><trkpt lat="43.5704682" lon="12.7779409"><ele>493.25</ele><time>2026-04-18T08:57:53.271Z</time></trkpt><trkpt lat="43.5704605" lon="12.7781039"><ele>491.5</ele><time>2026-04-18T08:57:54.271Z</time></trkpt><trkpt lat="43.5704553" lon="12.778259"><ele>489.75</ele><time>2026-04-18T08:57:55.27Z</time></trkpt><trkpt lat="43.5704363" lon="12.7784099"><ele>488.0</ele><time>2026-04-18T08:57:56.271Z</time></trkpt><trkpt lat="43.57041" lon="12.7785553"><ele>487.0</ele><time>2026-04-18T08:57:57.271Z</time></trkpt><trkpt lat="43.5703853" lon="12.7786982"><ele>485.99999999999994</ele><time>2026-04-18T08:57:58.27Z</time></trkpt><trkpt lat="43.5703789" lon="12.778846"><ele>484.99999999999994</ele><time>2026-04-18T08:57:59.271Z</time></trkpt><trkpt lat="43.5703916" lon="12.7790036"><ele>484.0</ele><time>2026-04-18T08:58:00.271Z</time></trkpt><trkpt lat="43.5704075" lon="12.7791586"><ele>483.0</ele><time>2026-04-18T08:58:01.271Z</time></trkpt><trkpt lat="43.5704044" lon="12.7793004"><ele>481.59999999999997</ele><time>2026-04-18T08:58:02.271Z</time></trkpt><trkpt lat="43.5703662" lon="12.7794232"><ele>480.19999999999993</ele><time>2026-04-18T08:58:03.27Z</time></trkpt><trkpt lat="43.5702936" lon="12.7795121"><ele>478.8</ele><time>2026-04-18T08:58:04.27Z</time></trkpt><trkpt lat="43.5702051" lon="12.7795854"><ele>477.4</ele><time>2026-04-18T08:58:05.27Z</time></trkpt><trkpt lat="43.5700943" lon="12.7796312"><ele>476.0</ele><time>2026-04-18T08:58:06.271Z</time></trkpt><trkpt lat="43.5699816" lon="12.7796627"><ele>480.4</ele><time>2026-04-18T08:58:07.27Z</time></trkpt><trkpt lat="43.5698826" lon="12.779725"><ele>484.8</ele><time>2026-04-18T08:58:08.271Z</time></trkpt><trkpt lat="43.5697778" lon="12.779762"><ele>489.19999999999993</ele><time>2026-04-18T08:58:09.27Z</time></trkpt><trkpt lat="43.5696779" lon="12.7797463"><ele>493.59999999999997</ele><time>2026-04-18T08:58:10.27Z</time></trkpt><trkpt lat="43.5695866" lon="12.7796928"><ele>498.0</ele><time>2026-04-18T08:58:11.27Z</time></trkpt><trkpt lat="43.5695007" lon="12.7796094"><ele>498.0</ele><time>2026-04-18T08:58:12.271Z</time></trkpt><trkpt lat="43.5694139" lon="12.7795093"><ele>497.99999999999994</ele><time>2026-04-18T08:58:13.27Z</time></trkpt><trkpt lat="43.5693354" lon="12.779391"><ele>497.99999999999994</ele><time>2026-04-18T08:58:14.27Z</time></trkpt><trkpt lat="43.5692697" lon="12.7792683"><ele>498.0</ele><time>2026-04-18T08:58:15.27Z</time></trkpt><trkpt lat="43.5692219" lon="12.7791376"><ele>498.0</ele><time>2026-04-18T08:58:16.27Z</time></trkpt><trkpt lat="43.5691888" lon="12.7789959"><ele>499.4</ele><time>2026-04-18T08:58:17.271Z</time></trkpt><trkpt lat="43.5691555" lon="12.7788528"><ele>500.79999999999995</ele><time>2026-04-18T08:58:18.27Z</time></trkpt><trkpt lat="43.5691046" lon="12.7787307"><ele>502.2</ele><time>2026-04-18T08:58:19.27Z</time></trkpt><trkpt lat="43.5690295" lon="12.7786128"><ele>503.6</ele><time>2026-04-18T08:58:20.27Z</time></trkpt><trkpt lat="43.5689616" lon="12.7785064"><ele>505.0</ele><time>2026-04-18T08:58:21.271Z</time></trkpt><trkpt lat="43.5688599" lon="12.7784778"><ele>507.0</ele><time>2026-04-18T08:58:22.271Z</time></trkpt><trkpt lat="43.5687719" lon="12.7784362"><ele>509.0</ele><time>2026-04-18T08:58:23.27Z</time></trkpt><trkpt lat="43.5686718" lon="12.7784581"><ele>511.0</ele><time>2026-04-18T08:58:24.27Z</time></trkpt><trkpt lat="43.5685915" lon="12.7785118"><ele>513.0</ele><time>2026-04-18T08:58:25.27Z</time></trkpt><trkpt lat="43.5684898" lon="12.7785762"><ele>515.0</ele><time>2026-04-18T08:58:26.271Z</time></trkpt><trkpt lat="43.56838" lon="12.7786228"><ele>510.6</ele><time>2026-04-18T08:58:27.271Z</time></trkpt><trkpt lat="43.568288" lon="12.7786763"><ele>506.2</ele><time>2026-04-18T08:58:28.27Z</time></trkpt><trkpt lat="43.5682012" lon="12.7787185"><ele>501.79999999999995</ele><time>2026-04-18T08:58:29.27Z</time></trkpt><trkpt lat="43.5681128" lon="12.7786891"><ele>497.4</ele><time>2026-04-18T08:58:30.271Z</time></trkpt><trkpt lat="43.5680383" lon="12.7786237"><ele>493.0</ele><time>2026-04-18T08:58:31.27Z</time></trkpt><trkpt lat="43.5679762" lon="12.7785485"><ele>493.00000000000006</ele><time>2026-04-18T08:58:32.27Z</time></trkpt><trkpt lat="43.5679059" lon="12.7785362"><ele>493.0</ele><time>2026-04-18T08:58:33.27Z</time></trkpt><trkpt lat="43.5678495" lon="12.7786021"><ele>493.0</ele><time>2026-04-18T08:58:34.271Z</time></trkpt><trkpt lat="43.5678054" lon="12.7786929"><ele>493.0</ele><time>2026-04-18T08:58:35.27Z</time></trkpt><trkpt lat="43.5677887" lon="12.7788222"><ele>493.00000000000006</ele><time>2026-04-18T08:58:36.271Z</time></trkpt><trkpt lat="43.5677693" lon="12.7789545"><ele>493.0</ele><time>2026-04-18T08:58:37.27Z</time></trkpt><trkpt lat="43.5677448" lon="12.7790894"><ele>494.0</ele><time>2026-04-18T08:58:38.27Z</time></trkpt><trkpt lat="43.5676942" lon="12.7792054"><ele>494.99999999999994</ele><time>2026-04-18T08:58:39.271Z</time></trkpt><trkpt lat="43.5676436" lon="12.7793102"><ele>495.99999999999994</ele><time>2026-04-18T08:58:40.27Z</time></trkpt><trkpt lat="43.5675812" lon="12.7794021"><ele>497.0</ele><time>2026-04-18T08:58:41.271Z</time></trkpt><trkpt lat="43.5675075" lon="12.7794845"><ele>498.0</ele><time>2026-04-18T08:58:42.27Z</time></trkpt><trkpt lat="43.5674448" lon="12.7795443"><ele>498.0</ele><time>2026-04-18T08:58:43.27Z</time></trkpt><trkpt lat="43.5673513" lon="12.7796064"><ele>497.99999999999994</ele><time>2026-04-18T08:58:45.27Z</time></trkpt><trkpt lat="43.5672875" lon="12.7795864"><ele>497.99999999999994</ele><time>2026-04-18T08:58:48.27Z</time></trkpt><trkpt lat="43.5672792" lon="12.7794486"><ele>498.0</ele><time>2026-04-18T08:58:51.27Z</time></trkpt><trkpt lat="43.5672785" lon="12.7792879"><ele>498.0</ele><time>2026-04-18T08:58:53.27Z</time></trkpt><trkpt lat="43.5672728" lon="12.7791774"><ele>498.0</ele><time>2026-04-18T08:58:54.27Z</time></trkpt><trkpt lat="43.5672612" lon="12.7790866"><ele>497.99999999999994</ele><time>2026-04-18T08:58:55.27Z</time></trkpt><trkpt lat="43.5672137" lon="12.7789506"><ele>497.99999999999994</ele><time>2026-04-18T08:58:57.27Z</time></trkpt><trkpt lat="43.5671117" lon="12.7788976"><ele>498.0</ele><time>2026-04-18T08:58:59.27Z</time></trkpt><trkpt lat="43.5669842" lon="12.7788902"><ele>498.0</ele><time>2026-04-18T08:59:01.27Z</time></trkpt><trkpt lat="43.5669028" lon="12.7788783"><ele>498.59999999999997</ele><time>2026-04-18T08:59:02.271Z</time></trkpt><trkpt lat="43.5668121" lon="12.7788764"><ele>499.19999999999993</ele><time>2026-04-18T08:59:03.27Z</time></trkpt><trkpt lat="43.5667197" lon="12.7788747"><ele>499.8</ele><time>2026-04-18T08:59:04.27Z</time></trkpt><trkpt lat="43.5666203" lon="12.7788655"><ele>500.4</ele><time>2026-04-18T08:59:05.27Z</time></trkpt><trkpt lat="43.5665228" lon="12.7788596"><ele>501.0</ele><time>2026-04-18T08:59:06.27Z</time></trkpt><trkpt lat="43.5664202" lon="12.7788605"><ele>501.0</ele><time>2026-04-18T08:59:07.271Z</time></trkpt><trkpt lat="43.5663169" lon="12.7788608"><ele>501.0</ele><time>2026-04-18T08:59:08.271Z</time></trkpt><trkpt lat="43.5662192" lon="12.7788507"><ele>501.0</ele><time>2026-04-18T08:59:09.27Z</time></trkpt><trkpt lat="43.5661213" lon="12.7788424"><ele>501.0</ele><time>2026-04-18T08:59:10.27Z</time></trkpt><trkpt lat="43.5660292" lon="12.7788141"><ele>501.0</ele><time>2026-04-18T08:59:11.271Z</time></trkpt><trkpt lat="43.5659715" lon="12.7787792"><ele>502.0</ele><time>2026-04-18T08:59:12.27Z</time></trkpt><trkpt lat="43.5659195" lon="12.7786657"><ele>503.0</ele><time>2026-04-18T08:59:14.27Z</time></trkpt><trkpt lat="43.5659493" lon="12.7785404"><ele>504.0</ele><time>2026-04-18T08:59:16.271Z</time></trkpt><trkpt lat="43.5660311" lon="12.7783985"><ele>505.0</ele><time>2026-04-18T08:59:18.27Z</time></trkpt><trkpt lat="43.5660774" lon="12.7783192"><ele>506.0</ele><time>2026-04-18T08:59:19.27Z</time></trkpt><trkpt lat="43.5661317" lon="12.7782411"><ele>508.49999999999994</ele><time>2026-04-18T08:59:20.27Z</time></trkpt><trkpt lat="43.5661871" lon="12.7781673"><ele>511.0</ele><time>2026-04-18T08:59:21.27Z</time></trkpt><trkpt lat="43.5662344" lon="12.7780983"><ele>513.5</ele><time>2026-04-18T08:59:22.27Z</time></trkpt><trkpt lat="43.5662605" lon="12.7779565"><ele>516.0</ele><time>2026-04-18T08:59:24.27Z</time></trkpt><trkpt lat="43.5661772" lon="12.7778683"><ele>518.5</ele><time>2026-04-18T08:59:26.271Z</time></trkpt><trkpt lat="43.5661025" lon="12.7778669"><ele>521.0</ele><time>2026-04-18T08:59:27.27Z</time></trkpt><trkpt lat="43.5660034" lon="12.7778633"><ele>521.8</ele><time>2026-04-18T08:59:28.271Z</time></trkpt><trkpt lat="43.5659108" lon="12.7778376"><ele>522.6</ele><time>2026-04-18T08:59:29.271Z</time></trkpt><trkpt lat="43.5658305" lon="12.7777833"><ele>523.4</ele><time>2026-04-18T08:59:30.27Z</time></trkpt><trkpt lat="43.5657578" lon="12.777707"><ele>524.2</ele><time>2026-04-18T08:59:31.27Z</time></trkpt><trkpt lat="43.5656933" lon="12.7776197"><ele>525.0</ele><time>2026-04-18T08:59:32.27Z</time></trkpt><trkpt lat="43.5656415" lon="12.7775207"><ele>528.1666666666666</ele><time>2026-04-18T08:59:33.27Z</time></trkpt><trkpt lat="43.5655913" lon="12.777417"><ele>531.3333333333334</ele><time>2026-04-18T08:59:34.271Z</time></trkpt><trkpt lat="43.565532" lon="12.7773382"><ele>534.5</ele><time>2026-04-18T08:59:35.27Z</time></trkpt><trkpt lat="43.565458" lon="12.7772931"><ele>537.6666666666667</ele><time>2026-04-18T08:59:36.27Z</time></trkpt><trkpt lat="43.5653736" lon="12.7772731"><ele>540.8333333333334</ele><time>2026-04-18T08:59:37.27Z</time></trkpt><trkpt lat="43.5652852" lon="12.7772707"><ele>544.0</ele><time>2026-04-18T08:59:38.271Z</time></trkpt><trkpt lat="43.5651908" lon="12.7772731"><ele>544.0</ele><time>2026-04-18T08:59:39.27Z</time></trkpt><trkpt lat="43.5650927" lon="12.777272"><ele>544.0</ele><time>2026-04-18T08:59:40.271Z</time></trkpt><trkpt lat="43.5649924" lon="12.7772707"><ele>544.0</ele><time>2026-04-18T08:59:41.27Z</time></trkpt><trkpt lat="43.5648924" lon="12.7772676"><ele>544.0</ele><time>2026-04-18T08:59:42.271Z</time></trkpt><trkpt lat="43.5647866" lon="12.7772807"><ele>544.0</ele><time>2026-04-18T08:59:43.27Z</time></trkpt><trkpt lat="43.5646776" lon="12.7773151"><ele>544.0</ele><time>2026-04-18T08:59:44.27Z</time></trkpt><trkpt lat="43.5645676" lon="12.7773547"><ele>544.0</ele><time>2026-04-18T08:59:45.271Z</time></trkpt><trkpt lat="43.564458" lon="12.777402"><ele>544.0</ele><time>2026-04-18T08:59:46.271Z</time></trkpt><trkpt lat="43.5643551" lon="12.7774412"><ele>544.0</ele><time>2026-04-18T08:59:47.27Z</time></trkpt><trkpt lat="43.5642585" lon="12.7774626"><ele>544.0</ele><time>2026-04-18T08:59:48.27Z</time></trkpt><trkpt lat="43.5641615" lon="12.7774825"><ele>543.5</ele><time>2026-04-18T08:59:49.271Z</time></trkpt><trkpt lat="43.564065" lon="12.7774932"><ele>543.0</ele><time>2026-04-18T08:59:50.27Z</time></trkpt><trkpt lat="43.5639787" lon="12.7774878"><ele>542.5</ele><time>2026-04-18T08:59:51.271Z</time></trkpt><trkpt lat="43.5639061" lon="12.7774722"><ele>542.0</ele><time>2026-04-18T08:59:52.271Z</time></trkpt><trkpt lat="43.5638223" lon="12.7774145"><ele>541.5</ele><time>2026-04-18T08:59:54.271Z</time></trkpt><trkpt lat="43.5638314" lon="12.7772881"><ele>541.0</ele><time>2026-04-18T08:59:57.27Z</time></trkpt><trkpt lat="43.5639151" lon="12.7771883"><ele>541.0</ele><time>2026-04-18T08:59:59.27Z</time></trkpt><trkpt lat="43.5639819" lon="12.7771316"><ele>541.0</ele><time>2026-04-18T09:00:00.271Z</time></trkpt><trkpt lat="43.564062" lon="12.7770792"><ele>541.0</ele><time>2026-04-18T09:00:01.271Z</time></trkpt><trkpt lat="43.5641439" lon="12.7770216"><ele>541.0</ele><time>2026-04-18T09:00:02.27Z</time></trkpt><trkpt lat="43.5642247" lon="12.7769546"><ele>541.0</ele><time>2026-04-18T09:00:03.271Z</time></trkpt><trkpt lat="43.564301" lon="12.7768863"><ele>541.0</ele><time>2026-04-18T09:00:04.27Z</time></trkpt><trkpt lat="43.5643617" lon="12.7767904"><ele>543.5</ele><time>2026-04-18T09:00:05.27Z</time></trkpt><trkpt lat="43.564354" lon="12.7766403"><ele>546.0</ele><time>2026-04-18T09:00:06.27Z</time></trkpt><trkpt lat="43.5643332" lon="12.7764659"><ele>548.5</ele><time>2026-04-18T09:00:07.27Z</time></trkpt><trkpt lat="43.5643142" lon="12.7762989"><ele>551.0</ele><time>2026-04-18T09:00:08.27Z</time></trkpt><trkpt lat="43.5643016" lon="12.7761509"><ele>552.0</ele><time>2026-04-18T09:00:09.27Z</time></trkpt><trkpt lat="43.5642912" lon="12.7760085"><ele>553.0</ele><time>2026-04-18T09:00:10.27Z</time></trkpt><trkpt lat="43.5642759" lon="12.7758778"><ele>554.0</ele><time>2026-04-18T09:00:11.271Z</time></trkpt><trkpt lat="43.5642553" lon="12.7757536"><ele>555.0</ele><time>2026-04-18T09:00:12.27Z</time></trkpt><trkpt lat="43.5642361" lon="12.7756363"><ele>556.0</ele><time>2026-04-18T09:00:13.27Z</time></trkpt><trkpt lat="43.5642142" lon="12.7755249"><ele>556.0</ele><time>2026-04-18T09:00:14.27Z</time></trkpt><trkpt lat="43.5641936" lon="12.7754251"><ele>556.0</ele><time>2026-04-18T09:00:15.27Z</time></trkpt><trkpt lat="43.5641785" lon="12.7753335"><ele>556.0</ele><time>2026-04-18T09:00:16.27Z</time></trkpt><trkpt lat="43.5641734" lon="12.775235"><ele>556.0</ele><time>2026-04-18T09:00:17.27Z</time></trkpt><trkpt lat="43.5641896" lon="12.775128"><ele>556.0</ele><time>2026-04-18T09:00:18.27Z</time></trkpt><trkpt lat="43.5642302" lon="12.7750351"><ele>556.0</ele><time>2026-04-18T09:00:19.27Z</time></trkpt><trkpt lat="43.5642854" lon="12.7749603"><ele>555.4</ele><time>2026-04-18T09:00:20.271Z</time></trkpt><trkpt lat="43.5643578" lon="12.7748943"><ele>554.8</ele><time>2026-04-18T09:00:21.271Z</time></trkpt><trkpt lat="43.5644392" lon="12.7748322"><ele>554.1999999999999</ele><time>2026-04-18T09:00:22.271Z</time></trkpt><trkpt lat="43.5645281" lon="12.7747798"><ele>553.6</ele><time>2026-04-18T09:00:23.271Z</time></trkpt><trkpt lat="43.5646137" lon="12.7747366"><ele>553.0</ele><time>2026-04-18T09:00:24.271Z</time></trkpt><trkpt lat="43.5646956" lon="12.7746938"><ele>555.0</ele><time>2026-04-18T09:00:25.27Z</time></trkpt><trkpt lat="43.564781" lon="12.7746584"><ele>557.0</ele><time>2026-04-18T09:00:26.27Z</time></trkpt><trkpt lat="43.5648701" lon="12.7746267"><ele>559.0</ele><time>2026-04-18T09:00:27.27Z</time></trkpt><trkpt lat="43.5649589" lon="12.7745972"><ele>561.0</ele><time>2026-04-18T09:00:28.27Z</time></trkpt><trkpt lat="43.5650443" lon="12.7745747"><ele>563.0</ele><time>2026-04-18T09:00:29.27Z</time></trkpt><trkpt lat="43.5651189" lon="12.7745401"><ele>565.0</ele><time>2026-04-18T09:00:30.27Z</time></trkpt><trkpt lat="43.5651729" lon="12.7744664"><ele>563.0</ele><time>2026-04-18T09:00:31.271Z</time></trkpt><trkpt lat="43.5652028" lon="12.7743547"><ele>561.0</ele><time>2026-04-18T09:00:32.271Z</time></trkpt><trkpt lat="43.5652187" lon="12.7742278"><ele>559.0</ele><time>2026-04-18T09:00:33.27Z</time></trkpt><trkpt lat="43.5652202" lon="12.7740883"><ele>557.0</ele><time>2026-04-18T09:00:34.27Z</time></trkpt><trkpt lat="43.5651948" lon="12.7739521"><ele>555.0</ele><time>2026-04-18T09:00:35.27Z</time></trkpt><trkpt lat="43.5651621" lon="12.7738234"><ele>555.0</ele><time>2026-04-18T09:00:36.27Z</time></trkpt><trkpt lat="43.5651218" lon="12.7737057"><ele>555.0</ele><time>2026-04-18T09:00:37.27Z</time></trkpt><trkpt lat="43.5650583" lon="12.7735961"><ele>555.0</ele><time>2026-04-18T09:00:38.271Z</time></trkpt><trkpt lat="43.5649704" lon="12.7735125"><ele>555.0</ele><time>2026-04-18T09:00:39.27Z</time></trkpt><trkpt lat="43.564869" lon="12.7734639"><ele>555.0</ele><time>2026-04-18T09:00:40.271Z</time></trkpt><trkpt lat="43.5647667" lon="12.7734392"><ele>555.5</ele><time>2026-04-18T09:00:41.27Z</time></trkpt><trkpt lat="43.5646769" lon="12.7734062"><ele>556.0</ele><time>2026-04-18T09:00:42.271Z</time></trkpt><trkpt lat="43.5646007" lon="12.7733574"><ele>556.5</ele><time>2026-04-18T09:00:43.271Z</time></trkpt><trkpt lat="43.564528" lon="12.7733003"><ele>557.0</ele><time>2026-04-18T09:00:44.27Z</time></trkpt><trkpt lat="43.5644595" lon="12.7732233"><ele>557.5</ele><time>2026-04-18T09:00:45.27Z</time></trkpt><trkpt lat="43.5644" lon="12.7731271"><ele>558.0</ele><time>2026-04-18T09:00:46.27Z</time></trkpt><trkpt lat="43.5643559" lon="12.7730052"><ele>555.0</ele><time>2026-04-18T09:00:47.271Z</time></trkpt><trkpt lat="43.5643327" lon="12.7728653"><ele>552.0</ele><time>2026-04-18T09:00:48.27Z</time></trkpt><trkpt lat="43.5643354" lon="12.7727312"><ele>549.0</ele><time>2026-04-18T09:00:49.27Z</time></trkpt><trkpt lat="43.5643447" lon="12.772603"><ele>546.0</ele><time>2026-04-18T09:00:50.27Z</time></trkpt><trkpt lat="43.5643496" lon="12.7724743"><ele>543.0</ele><time>2026-04-18T09:00:51.271Z</time></trkpt><trkpt lat="43.5643578" lon="12.7723474"><ele>543.0</ele><time>2026-04-18T09:00:52.271Z</time></trkpt><trkpt lat="43.5643715" lon="12.7722148"><ele>543.0</ele><time>2026-04-18T09:00:53.27Z</time></trkpt><trkpt lat="43.5643904" lon="12.7720777"><ele>543.0</ele><time>2026-04-18T09:00:54.27Z</time></trkpt><trkpt lat="43.5644138" lon="12.7719477"><ele>543.0</ele><time>2026-04-18T09:00:55.27Z</time></trkpt><trkpt lat="43.5644505" lon="12.7718256"><ele>543.0</ele><time>2026-04-18T09:00:56.271Z</time></trkpt><trkpt lat="43.5645011" lon="12.7716982"><ele>549.0</ele><time>2026-04-18T09:00:57.27Z</time></trkpt><trkpt lat="43.5645586" lon="12.7715702"><ele>555.0</ele><time>2026-04-18T09:00:58.27Z</time></trkpt><trkpt lat="43.5646162" lon="12.7714527"><ele>561.0</ele><time>2026-04-18T09:00:59.27Z</time></trkpt><trkpt lat="43.5646663" lon="12.7713494"><ele>567.0</ele><time>2026-04-18T09:01:00.271Z</time></trkpt><trkpt lat="43.5647077" lon="12.7712474"><ele>573.0</ele><time>2026-04-18T09:01:01.27Z</time></trkpt><trkpt lat="43.564726" lon="12.7711364"><ele>570.5</ele><time>2026-04-18T09:01:02.27Z</time></trkpt><trkpt lat="43.564729" lon="12.7710226"><ele>568.0</ele><time>2026-04-18T09:01:03.271Z</time></trkpt><trkpt lat="43.5646742" lon="12.7709114"><ele>565.5</ele><time>2026-04-18T09:01:04.27Z</time></trkpt><trkpt lat="43.5646264" lon="12.7708061"><ele>563.0</ele><time>2026-04-18T09:01:05.271Z</time></trkpt><trkpt lat="43.5646168" lon="12.7706984"><ele>560.5</ele><time>2026-04-18T09:01:06.27Z</time></trkpt><trkpt lat="43.5646341" lon="12.7705881"><ele>558.0</ele><time>2026-04-18T09:01:07.27Z</time></trkpt><trkpt lat="43.5646686" lon="12.7704861"><ele>558.0</ele><time>2026-04-18T09:01:08.27Z</time></trkpt><trkpt lat="43.5647253" lon="12.7704095"><ele>558.0</ele><time>2026-04-18T09:01:09.27Z</time></trkpt><trkpt lat="43.5648053" lon="12.7703389"><ele>558.0</ele><time>2026-04-18T09:01:10.27Z</time></trkpt><trkpt lat="43.5649091" lon="12.7702638"><ele>558.0</ele><time>2026-04-18T09:01:11.271Z</time></trkpt><trkpt lat="43.5650201" lon="12.7701928"><ele>558.0</ele><time>2026-04-18T09:01:12.27Z</time></trkpt><trkpt lat="43.565121" lon="12.7701307"><ele>555.6666666666666</ele><time>2026-04-18T09:01:13.271Z</time></trkpt><trkpt lat="43.5652062" lon="12.7700719"><ele>553.3333333333334</ele><time>2026-04-18T09:01:14.27Z</time></trkpt><trkpt lat="43.5652748" lon="12.7700095"><ele>551.0</ele><time>2026-04-18T09:01:15.27Z</time></trkpt><trkpt lat="43.565323" lon="12.7699251"><ele>548.6666666666667</ele><time>2026-04-18T09:01:16.27Z</time></trkpt><trkpt lat="43.5653434" lon="12.7698151"><ele>546.3333333333334</ele><time>2026-04-18T09:01:17.27Z</time></trkpt><trkpt lat="43.5653234" lon="12.7697069"><ele>544.0</ele><time>2026-04-18T09:01:18.27Z</time></trkpt><trkpt lat="43.5652653" lon="12.7696163"><ele>544.0</ele><time>2026-04-18T09:01:19.27Z</time></trkpt><trkpt lat="43.5651838" lon="12.7695352"><ele>544.0</ele><time>2026-04-18T09:01:20.27Z</time></trkpt><trkpt lat="43.5651004" lon="12.7694496"><ele>544.0</ele><time>2026-04-18T09:01:21.27Z</time></trkpt><trkpt lat="43.5649996" lon="12.7693397"><ele>544.0</ele><time>2026-04-18T09:01:22.271Z</time></trkpt><trkpt lat="43.5648945" lon="12.7692317"><ele>545.2</ele><time>2026-04-18T09:01:23.27Z</time></trkpt><trkpt lat="43.5648106" lon="12.7691297"><ele>546.4</ele><time>2026-04-18T09:01:24.27Z</time></trkpt><trkpt lat="43.5647368" lon="12.7690307"><ele>547.6</ele><time>2026-04-18T09:01:25.27Z</time></trkpt><trkpt lat="43.564674" lon="12.7689291"><ele>548.8</ele><time>2026-04-18T09:01:26.27Z</time></trkpt><trkpt lat="43.5646269" lon="12.7688065"><ele>550.0</ele><time>2026-04-18T09:01:27.27Z</time></trkpt><trkpt lat="43.5646053" lon="12.7686521"><ele>551.6</ele><time>2026-04-18T09:01:28.27Z</time></trkpt><trkpt lat="43.5646007" lon="12.7684845"><ele>553.2</ele><time>2026-04-18T09:01:29.27Z</time></trkpt><trkpt lat="43.5646021" lon="12.7683251"><ele>554.8</ele><time>2026-04-18T09:01:30.271Z</time></trkpt><trkpt lat="43.5646043" lon="12.7681795"><ele>556.4</ele><time>2026-04-18T09:01:31.271Z</time></trkpt><trkpt lat="43.564612" lon="12.7680477"><ele>558.0</ele><time>2026-04-18T09:01:32.271Z</time></trkpt><trkpt lat="43.5646252" lon="12.7679146"><ele>558.0</ele><time>2026-04-18T09:01:33.27Z</time></trkpt><trkpt lat="43.5646385" lon="12.7677807"><ele>558.0</ele><time>2026-04-18T09:01:34.27Z</time></trkpt><trkpt lat="43.5646524" lon="12.7676547"><ele>558.0</ele><time>2026-04-18T09:01:35.271Z</time></trkpt><trkpt lat="43.5646599" lon="12.7675233"><ele>558.0</ele><time>2026-04-18T09:01:36.27Z</time></trkpt><trkpt lat="43.5646648" lon="12.7673684"><ele>558.0</ele><time>2026-04-18T09:01:37.27Z</time></trkpt><trkpt lat="43.5646566" lon="12.7671932"><ele>555.75</ele><time>2026-04-18T09:01:38.27Z</time></trkpt><trkpt lat="43.5646311" lon="12.7670117"><ele>553.5</ele><time>2026-04-18T09:01:39.27Z</time></trkpt><trkpt lat="43.5645961" lon="12.7668367"><ele>551.25</ele><time>2026-04-18T09:01:40.27Z</time></trkpt><trkpt lat="43.5645475" lon="12.7666713"><ele>549.0</ele><time>2026-04-18T09:01:41.27Z</time></trkpt><trkpt lat="43.5644878" lon="12.7665125"><ele>548.5</ele><time>2026-04-18T09:01:42.271Z</time></trkpt><trkpt lat="43.5644295" lon="12.7663585"><ele>548.0</ele><time>2026-04-18T09:01:43.27Z</time></trkpt><trkpt lat="43.5643765" lon="12.7662153"><ele>547.5</ele><time>2026-04-18T09:01:44.271Z</time></trkpt><trkpt lat="43.5643227" lon="12.7660734"><ele>547.0</ele><time>2026-04-18T09:01:45.27Z</time></trkpt><trkpt lat="43.5642701" lon="12.7659333"><ele>547.0</ele><time>2026-04-18T09:01:46.27Z</time></trkpt><trkpt lat="43.5642175" lon="12.7657957"><ele>547.0</ele><time>2026-04-18T09:01:47.27Z</time></trkpt><trkpt lat="43.5641753" lon="12.7656646"><ele>547.0</ele><time>2026-04-18T09:01:48.27Z</time></trkpt><trkpt lat="43.5641438" lon="12.7655379"><ele>547.0</ele><time>2026-04-18T09:01:49.27Z</time></trkpt><trkpt lat="43.5641158" lon="12.7654015"><ele>547.0</ele><time>2026-04-18T09:01:50.27Z</time></trkpt><trkpt lat="43.5640887" lon="12.7652484"><ele>546.5</ele><time>2026-04-18T09:01:51.27Z</time></trkpt><trkpt lat="43.5640675" lon="12.7650941"><ele>546.0</ele><time>2026-04-18T09:01:52.271Z</time></trkpt><trkpt lat="43.5640422" lon="12.7649428"><ele>545.5</ele><time>2026-04-18T09:01:53.271Z</time></trkpt><trkpt lat="43.5640154" lon="12.7647836"><ele>545.0</ele><time>2026-04-18T09:01:54.271Z</time></trkpt><trkpt lat="43.563988" lon="12.7646192"><ele>545.0</ele><time>2026-04-18T09:01:55.271Z</time></trkpt><trkpt lat="43.5639598" lon="12.7644554"><ele>545.0</ele><time>2026-04-18T09:01:56.27Z</time></trkpt><trkpt lat="43.5639276" lon="12.7643099"><ele>545.0</ele><time>2026-04-18T09:01:57.271Z</time></trkpt><trkpt lat="43.5638713" lon="12.7641792"><ele>545.0</ele><time>2026-04-18T09:01:58.27Z</time></trkpt><trkpt lat="43.5637931" lon="12.7640508"><ele>543.5</ele><time>2026-04-18T09:01:59.27Z</time></trkpt><trkpt lat="43.5637084" lon="12.7639191"><ele>542.0</ele><time>2026-04-18T09:02:00.271Z</time></trkpt><trkpt lat="43.5636207" lon="12.7637841"><ele>540.5</ele><time>2026-04-18T09:02:01.27Z</time></trkpt><trkpt lat="43.5635387" lon="12.763649"><ele>539.0</ele><time>2026-04-18T09:02:02.27Z</time></trkpt><trkpt lat="43.5634666" lon="12.7635148"><ele>538.5</ele><time>2026-04-18T09:02:03.27Z</time></trkpt><trkpt lat="43.5633946" lon="12.7633778"><ele>538.0</ele><time>2026-04-18T09:02:04.27Z</time></trkpt><trkpt lat="43.5633268" lon="12.763242"><ele>537.5</ele><time>2026-04-18T09:02:05.27Z</time></trkpt><trkpt lat="43.5632602" lon="12.7631105"><ele>537.0</ele><time>2026-04-18T09:02:06.27Z</time></trkpt><trkpt lat="43.56318" lon="12.7629896"><ele>537.0</ele><time>2026-04-18T09:02:07.271Z</time></trkpt><trkpt lat="43.5630814" lon="12.7628736"><ele>537.0</ele><time>2026-04-18T09:02:08.27Z</time></trkpt><trkpt lat="43.5629739" lon="12.7627617"><ele>537.0</ele><time>2026-04-18T09:02:09.271Z</time></trkpt><trkpt lat="43.5628664" lon="12.7626579"><ele>537.0</ele><time>2026-04-18T09:02:10.271Z</time></trkpt><trkpt lat="43.5627645" lon="12.7625534"><ele>535.5</ele><time>2026-04-18T09:02:11.27Z</time></trkpt><trkpt lat="43.5626668" lon="12.7624405"><ele>534.0</ele><time>2026-04-18T09:02:12.27Z</time></trkpt><trkpt lat="43.5625733" lon="12.7623093"><ele>532.5</ele><time>2026-04-18T09:02:13.271Z</time></trkpt><trkpt lat="43.5624789" lon="12.7621854"><ele>531.0</ele><time>2026-04-18T09:02:14.271Z</time></trkpt><trkpt lat="43.5623851" lon="12.7620714"><ele>531.0</ele><time>2026-04-18T09:02:15.271Z</time></trkpt><trkpt lat="43.5623" lon="12.7619584"><ele>531.0</ele><time>2026-04-18T09:02:16.27Z</time></trkpt><trkpt lat="43.5622186" lon="12.7618525"><ele>531.0</ele><time>2026-04-18T09:02:17.27Z</time></trkpt><trkpt lat="43.5621386" lon="12.7617491"><ele>531.0</ele><time>2026-04-18T09:02:18.27Z</time></trkpt><trkpt lat="43.562058" lon="12.7616556"><ele>531.0</ele><time>2026-04-18T09:02:19.271Z</time></trkpt><trkpt lat="43.5619737" lon="12.7615811"><ele>529.2</ele><time>2026-04-18T09:02:20.27Z</time></trkpt><trkpt lat="43.5618766" lon="12.7615325"><ele>527.4000000000001</ele><time>2026-04-18T09:02:21.27Z</time></trkpt><trkpt lat="43.5617784" lon="12.7614829"><ele>525.6</ele><time>2026-04-18T09:02:22.27Z</time></trkpt><trkpt lat="43.5616964" lon="12.7614032"><ele>523.8000000000001</ele><time>2026-04-18T09:02:23.27Z</time></trkpt><trkpt lat="43.5616387" lon="12.7613095"><ele>522.0</ele><time>2026-04-18T09:02:24.27Z</time></trkpt><trkpt lat="43.5616118" lon="12.761224"><ele>522.0</ele><time>2026-04-18T09:02:25.27Z</time></trkpt><trkpt lat="43.5615744" lon="12.7610901"><ele>522.0</ele><time>2026-04-18T09:02:27.27Z</time></trkpt><trkpt lat="43.5614637" lon="12.7609922"><ele>522.0</ele><time>2026-04-18T09:02:29.271Z</time></trkpt><trkpt lat="43.5613952" lon="12.7609361"><ele>522.0</ele><time>2026-04-18T09:02:30.27Z</time></trkpt><trkpt lat="43.5613276" lon="12.760879"><ele>522.0</ele><time>2026-04-18T09:02:31.27Z</time></trkpt><trkpt lat="43.561256" lon="12.7608238"><ele>520.6</ele><time>2026-04-18T09:02:32.271Z</time></trkpt><trkpt lat="43.5611708" lon="12.76079"><ele>519.2</ele><time>2026-04-18T09:02:33.27Z</time></trkpt><trkpt lat="43.5610731" lon="12.7607848"><ele>517.8</ele><time>2026-04-18T09:02:34.27Z</time></trkpt><trkpt lat="43.5609756" lon="12.7607933"><ele>516.4</ele><time>2026-04-18T09:02:35.271Z</time></trkpt><trkpt lat="43.5608754" lon="12.7608026"><ele>515.0</ele><time>2026-04-18T09:02:36.271Z</time></trkpt><trkpt lat="43.5607723" lon="12.7608059"><ele>515.0</ele><time>2026-04-18T09:02:37.271Z</time></trkpt><trkpt lat="43.5606728" lon="12.7607961"><ele>515.0</ele><time>2026-04-18T09:02:38.271Z</time></trkpt><trkpt lat="43.56058" lon="12.7607667"><ele>515.0</ele><time>2026-04-18T09:02:39.271Z</time></trkpt><trkpt lat="43.5604916" lon="12.76071"><ele>515.0</ele><time>2026-04-18T09:02:40.271Z</time></trkpt><trkpt lat="43.5604035" lon="12.7606262"><ele>515.0</ele><time>2026-04-18T09:02:41.27Z</time></trkpt><trkpt lat="43.560323" lon="12.760528"><ele>512.0</ele><time>2026-04-18T09:02:42.27Z</time></trkpt><trkpt lat="43.5602482" lon="12.7604287"><ele>509.0</ele><time>2026-04-18T09:02:43.27Z</time></trkpt><trkpt lat="43.5601713" lon="12.7603301"><ele>506.0</ele><time>2026-04-18T09:02:44.27Z</time></trkpt><trkpt lat="43.5600964" lon="12.7602304"><ele>503.0</ele><time>2026-04-18T09:02:45.271Z</time></trkpt><trkpt lat="43.5600229" lon="12.7601337"><ele>500.0</ele><time>2026-04-18T09:02:46.27Z</time></trkpt><trkpt lat="43.5599491" lon="12.7600339"><ele>499.0</ele><time>2026-04-18T09:02:47.27Z</time></trkpt><trkpt lat="43.5598721" lon="12.759931"><ele>498.0</ele><time>2026-04-18T09:02:48.271Z</time></trkpt><trkpt lat="43.5597904" lon="12.759828"><ele>497.0</ele><time>2026-04-18T09:02:49.27Z</time></trkpt><trkpt lat="43.5597024" lon="12.7597256"><ele>496.0</ele><time>2026-04-18T09:02:50.27Z</time></trkpt><trkpt lat="43.5596115" lon="12.759621"><ele>494.25</ele><time>2026-04-18T09:02:51.271Z</time></trkpt><trkpt lat="43.5595189" lon="12.7595134"><ele>492.5</ele><time>2026-04-18T09:02:52.27Z</time></trkpt><trkpt lat="43.5594255" lon="12.7593968"><ele>490.75</ele><time>2026-04-18T09:02:53.27Z</time></trkpt><trkpt lat="43.55933" lon="12.7592836"><ele>489.0</ele><time>2026-04-18T09:02:54.27Z</time></trkpt><trkpt lat="43.5592346" lon="12.7591893"><ele>489.0</ele><time>2026-04-18T09:02:55.27Z</time></trkpt><trkpt lat="43.559134" lon="12.7591037"><ele>489.0</ele><time>2026-04-18T09:02:56.271Z</time></trkpt><trkpt lat="43.5590337" lon="12.7590267"><ele>489.0</ele><time>2026-04-18T09:02:57.271Z</time></trkpt><trkpt lat="43.5589368" lon="12.7589499"><ele>489.0</ele><time>2026-04-18T09:02:58.271Z</time></trkpt><trkpt lat="43.5588384" lon="12.7588735"><ele>489.0</ele><time>2026-04-18T09:02:59.27Z</time></trkpt><trkpt lat="43.5587404" lon="12.7588095"><ele>489.0</ele><time>2026-04-18T09:03:00.271Z</time></trkpt><trkpt lat="43.5586393" lon="12.7587536"><ele>489.0</ele><time>2026-04-18T09:03:01.27Z</time></trkpt><trkpt lat="43.5585261" lon="12.7587171"><ele>489.0</ele><time>2026-04-18T09:03:02.27Z</time></trkpt><trkpt lat="43.5584023" lon="12.7587013"><ele>488.2</ele><time>2026-04-18T09:03:03.271Z</time></trkpt><trkpt lat="43.5582858" lon="12.7587072"><ele>487.4</ele><time>2026-04-18T09:03:04.271Z</time></trkpt><trkpt lat="43.5581789" lon="12.7587161"><ele>486.6</ele><time>2026-04-18T09:03:05.271Z</time></trkpt><trkpt lat="43.5580748" lon="12.7587222"><ele>485.8</ele><time>2026-04-18T09:03:06.271Z</time></trkpt><trkpt lat="43.5579689" lon="12.7587329"><ele>485.0</ele><time>2026-04-18T09:03:07.271Z</time></trkpt><trkpt lat="43.5578626" lon="12.7587549"><ele>483.25</ele><time>2026-04-18T09:03:08.27Z</time></trkpt><trkpt lat="43.5577572" lon="12.7588031"><ele>481.5</ele><time>2026-04-18T09:03:09.271Z</time></trkpt><trkpt lat="43.5576518" lon="12.7588617"><ele>479.75</ele><time>2026-04-18T09:03:10.271Z</time></trkpt><trkpt lat="43.5575521" lon="12.7589409"><ele>478.0</ele><time>2026-04-18T09:03:11.27Z</time></trkpt><trkpt lat="43.5574504" lon="12.7590223"><ele>478.0</ele><time>2026-04-18T09:03:12.271Z</time></trkpt><trkpt lat="43.5573488" lon="12.7591017"><ele>478.0</ele><time>2026-04-18T09:03:13.27Z</time></trkpt><trkpt lat="43.5572482" lon="12.7591809"><ele>478.0</ele><time>2026-04-18T09:03:14.27Z</time></trkpt><trkpt lat="43.5571484" lon="12.7592591"><ele>478.0</ele><time>2026-04-18T09:03:15.27Z</time></trkpt><trkpt lat="43.5570545" lon="12.7593362"><ele>475.0</ele><time>2026-04-18T09:03:16.271Z</time></trkpt><trkpt lat="43.5569634" lon="12.7594043"><ele>471.99999999999994</ele><time>2026-04-18T09:03:17.27Z</time></trkpt><trkpt lat="43.5568668" lon="12.7594561"><ele>468.99999999999994</ele><time>2026-04-18T09:03:18.27Z</time></trkpt><trkpt lat="43.5567556" lon="12.7594881"><ele>466.0</ele><time>2026-04-18T09:03:19.27Z</time></trkpt><trkpt lat="43.5566323" lon="12.7595045"><ele>463.0</ele><time>2026-04-18T09:03:20.27Z</time></trkpt><trkpt lat="43.5565232" lon="12.759499"><ele>463.00000000000006</ele><time>2026-04-18T09:03:21.27Z</time></trkpt><trkpt lat="43.556445" lon="12.7594783"><ele>463.0</ele><time>2026-04-18T09:03:22.271Z</time></trkpt><trkpt lat="43.5563468" lon="12.759445"><ele>463.0</ele><time>2026-04-18T09:03:24.271Z</time></trkpt><trkpt lat="43.556285" lon="12.7594231"><ele>463.0</ele><time>2026-04-18T09:03:26.27Z</time></trkpt><trkpt lat="43.5562076" lon="12.7593854"><ele>463.00000000000006</ele><time>2026-04-18T09:03:30.271Z</time></trkpt><trkpt lat="43.5560981" lon="12.7593445"><ele>463.0</ele><time>2026-04-18T09:03:33.27Z</time></trkpt><trkpt lat="43.5560371" lon="12.7593104"><ele>462.83333333333337</ele><time>2026-04-18T09:03:34.271Z</time></trkpt><trkpt lat="43.5559765" lon="12.7592836"><ele>462.6666666666667</ele><time>2026-04-18T09:03:35.271Z</time></trkpt><trkpt lat="43.5559078" lon="12.7592503"><ele>462.5</ele><time>2026-04-18T09:03:36.271Z</time></trkpt><trkpt lat="43.5558334" lon="12.7592099"><ele>462.33333333333337</ele><time>2026-04-18T09:03:37.271Z</time></trkpt><trkpt lat="43.5557614" lon="12.7591555"><ele>462.1666666666667</ele><time>2026-04-18T09:03:38.27Z</time></trkpt><trkpt lat="43.5556839" lon="12.7590864"><ele>462.0</ele><time>2026-04-18T09:03:39.27Z</time></trkpt><trkpt lat="43.5556013" lon="12.7590071"><ele>462.0</ele><time>2026-04-18T09:03:40.27Z</time></trkpt><trkpt lat="43.5555148" lon="12.7589201"><ele>462.00000000000006</ele><time>2026-04-18T09:03:41.27Z</time></trkpt><trkpt lat="43.5554286" lon="12.7588294"><ele>462.00000000000006</ele><time>2026-04-18T09:03:42.27Z</time></trkpt><trkpt lat="43.555343" lon="12.7587399"><ele>462.0</ele><time>2026-04-18T09:03:43.27Z</time></trkpt><trkpt lat="43.5552585" lon="12.75865"><ele>462.0</ele><time>2026-04-18T09:03:44.271Z</time></trkpt><trkpt lat="43.5551741" lon="12.7585564"><ele>460.5</ele><time>2026-04-18T09:03:45.27Z</time></trkpt><trkpt lat="43.5550848" lon="12.7584572"><ele>459.0</ele><time>2026-04-18T09:03:46.27Z</time></trkpt><trkpt lat="43.5549963" lon="12.7583555"><ele>457.5</ele><time>2026-04-18T09:03:47.271Z</time></trkpt><trkpt lat="43.5549103" lon="12.7582561"><ele>456.0</ele><time>2026-04-18T09:03:48.27Z</time></trkpt><trkpt lat="43.5548247" lon="12.7581642"><ele>456.0</ele><time>2026-04-18T09:03:49.27Z</time></trkpt><trkpt lat="43.5547366" lon="12.7580899"><ele>456.0</ele><time>2026-04-18T09:03:50.27Z</time></trkpt><trkpt lat="43.5546449" lon="12.7580302"><ele>456.0</ele><time>2026-04-18T09:03:51.271Z</time></trkpt><trkpt lat="43.5545494" lon="12.7579863"><ele>456.0</ele><time>2026-04-18T09:03:52.271Z</time></trkpt><trkpt lat="43.5544451" lon="12.7579519"><ele>456.0</ele><time>2026-04-18T09:03:53.27Z</time></trkpt><trkpt lat="43.5543313" lon="12.7579171"><ele>456.75</ele><time>2026-04-18T09:03:54.271Z</time></trkpt><trkpt lat="43.5542145" lon="12.7578799"><ele>457.5</ele><time>2026-04-18T09:03:55.271Z</time></trkpt><trkpt lat="43.5540987" lon="12.7578411"><ele>458.25</ele><time>2026-04-18T09:03:56.271Z</time></trkpt><trkpt lat="43.55398" lon="12.7577893"><ele>459.0</ele><time>2026-04-18T09:03:57.27Z</time></trkpt><trkpt lat="43.5538541" lon="12.7577208"><ele>459.25</ele><time>2026-04-18T09:03:58.271Z</time></trkpt><trkpt lat="43.5537291" lon="12.7576445"><ele>459.5</ele><time>2026-04-18T09:03:59.27Z</time></trkpt><trkpt lat="43.5536089" lon="12.7575657"><ele>459.75</ele><time>2026-04-18T09:04:00.271Z</time></trkpt><trkpt lat="43.5534871" lon="12.7574939"><ele>460.0</ele><time>2026-04-18T09:04:01.271Z</time></trkpt><trkpt lat="43.553362" lon="12.7574411"><ele>460.0</ele><time>2026-04-18T09:04:02.27Z</time></trkpt><trkpt lat="43.553229" lon="12.7574137"><ele>460.0</ele><time>2026-04-18T09:04:03.27Z</time></trkpt><trkpt lat="43.5530913" lon="12.7574119"><ele>460.0</ele><time>2026-04-18T09:04:04.27Z</time></trkpt><trkpt lat="43.5529481" lon="12.7574291"><ele>460.0</ele><time>2026-04-18T09:04:05.27Z</time></trkpt><trkpt lat="43.5528091" lon="12.7574486"><ele>460.25</ele><time>2026-04-18T09:04:06.27Z</time></trkpt><trkpt lat="43.5526792" lon="12.7574681"><ele>460.5</ele><time>2026-04-18T09:04:07.27Z</time></trkpt><trkpt lat="43.5525492" lon="12.7574817"><ele>460.75</ele><time>2026-04-18T09:04:08.271Z</time></trkpt><trkpt lat="43.5524146" lon="12.7574845"><ele>461.0</ele><time>2026-04-18T09:04:09.27Z</time></trkpt><trkpt lat="43.5522758" lon="12.757465"><ele>461.0</ele><time>2026-04-18T09:04:10.27Z</time></trkpt><trkpt lat="43.5521386" lon="12.7574211"><ele>461.0</ele><time>2026-04-18T09:04:11.27Z</time></trkpt><trkpt lat="43.5520052" lon="12.757361"><ele>461.0</ele><time>2026-04-18T09:04:12.27Z</time></trkpt><trkpt lat="43.5518758" lon="12.7572926"><ele>461.0</ele><time>2026-04-18T09:04:13.27Z</time></trkpt><trkpt lat="43.5517492" lon="12.7572177"><ele>461.25</ele><time>2026-04-18T09:04:14.27Z</time></trkpt><trkpt lat="43.5516242" lon="12.7571381"><ele>461.5</ele><time>2026-04-18T09:04:15.27Z</time></trkpt><trkpt lat="43.5514994" lon="12.7570595"><ele>461.75</ele><time>2026-04-18T09:04:16.271Z</time></trkpt><trkpt lat="43.5513759" lon="12.7569834"><ele>462.0</ele><time>2026-04-18T09:04:17.271Z</time></trkpt><trkpt lat="43.5512584" lon="12.7569093"><ele>463.40000000000003</ele><time>2026-04-18T09:04:18.271Z</time></trkpt><trkpt lat="43.5511477" lon="12.7568309"><ele>464.80000000000007</ele><time>2026-04-18T09:04:19.27Z</time></trkpt><trkpt lat="43.5510523" lon="12.756746"><ele>466.2</ele><time>2026-04-18T09:04:20.271Z</time></trkpt><trkpt lat="43.5509679" lon="12.7566593"><ele>467.6</ele><time>2026-04-18T09:04:21.27Z</time></trkpt><trkpt lat="43.5508905" lon="12.7565696"><ele>469.0</ele><time>2026-04-18T09:04:22.27Z</time></trkpt><trkpt lat="43.5508008" lon="12.756481"><ele>469.0</ele><time>2026-04-18T09:04:23.27Z</time></trkpt><trkpt lat="43.5506972" lon="12.7563963"><ele>469.0</ele><time>2026-04-18T09:04:24.271Z</time></trkpt><trkpt lat="43.5505858" lon="12.7563317"><ele>469.0</ele><time>2026-04-18T09:04:25.27Z</time></trkpt><trkpt lat="43.5504729" lon="12.7562668"><ele>469.0</ele><time>2026-04-18T09:04:26.271Z</time></trkpt><trkpt lat="43.5503596" lon="12.7561849"><ele>468.75</ele><time>2026-04-18T09:04:27.27Z</time></trkpt><trkpt lat="43.5502458" lon="12.7561037"><ele>468.5</ele><time>2026-04-18T09:04:28.27Z</time></trkpt><trkpt lat="43.5501281" lon="12.7560312"><ele>468.25</ele><time>2026-04-18T09:04:29.271Z</time></trkpt><trkpt lat="43.5500145" lon="12.7559701"><ele>468.0</ele><time>2026-04-18T09:04:30.27Z</time></trkpt><trkpt lat="43.5498937" lon="12.7559258"><ele>468.0</ele><time>2026-04-18T09:04:31.27Z</time></trkpt><trkpt lat="43.5497647" lon="12.7558974"><ele>468.0</ele><time>2026-04-18T09:04:32.27Z</time></trkpt><trkpt lat="43.5496301" lon="12.7558879"><ele>468.0</ele><time>2026-04-18T09:04:33.27Z</time></trkpt><trkpt lat="43.5494964" lon="12.7558972"><ele>468.0</ele><time>2026-04-18T09:04:34.27Z</time></trkpt><trkpt lat="43.5493651" lon="12.7559208"><ele>467.75</ele><time>2026-04-18T09:04:35.27Z</time></trkpt><trkpt lat="43.5492357" lon="12.7559448"><ele>467.5</ele><time>2026-04-18T09:04:36.27Z</time></trkpt><trkpt lat="43.5491071" lon="12.7559614"><ele>467.25</ele><time>2026-04-18T09:04:37.271Z</time></trkpt><trkpt lat="43.5489804" lon="12.7559746"><ele>467.0</ele><time>2026-04-18T09:04:38.27Z</time></trkpt><trkpt lat="43.5488558" lon="12.755972"><ele>467.0</ele><time>2026-04-18T09:04:39.27Z</time></trkpt><trkpt lat="43.5487372" lon="12.7559492"><ele>467.0</ele><time>2026-04-18T09:04:40.27Z</time></trkpt><trkpt lat="43.5486182" lon="12.7559002"><ele>467.0</ele><time>2026-04-18T09:04:41.271Z</time></trkpt><trkpt lat="43.5484904" lon="12.7558395"><ele>467.0</ele><time>2026-04-18T09:04:42.27Z</time></trkpt><trkpt lat="43.5483578" lon="12.7557848"><ele>466.75</ele><time>2026-04-18T09:04:43.27Z</time></trkpt><trkpt lat="43.548225" lon="12.7557496"><ele>466.5</ele><time>2026-04-18T09:04:44.271Z</time></trkpt><trkpt lat="43.5480895" lon="12.7557329"><ele>466.25</ele><time>2026-04-18T09:04:45.27Z</time></trkpt><trkpt lat="43.5479591" lon="12.755717"><ele>466.0</ele><time>2026-04-18T09:04:46.271Z</time></trkpt><trkpt lat="43.5478426" lon="12.755691"><ele>465.4</ele><time>2026-04-18T09:04:47.271Z</time></trkpt><trkpt lat="43.5477414" lon="12.7556618"><ele>464.8</ele><time>2026-04-18T09:04:48.271Z</time></trkpt><trkpt lat="43.5476566" lon="12.7556332"><ele>464.19999999999993</ele><time>2026-04-18T09:04:49.271Z</time></trkpt><trkpt lat="43.5475756" lon="12.7556056"><ele>463.59999999999997</ele><time>2026-04-18T09:04:50.271Z</time></trkpt><trkpt lat="43.5474933" lon="12.7555962"><ele>463.0</ele><time>2026-04-18T09:04:51.27Z</time></trkpt><trkpt lat="43.5473964" lon="12.7556456"><ele>463.0</ele><time>2026-04-18T09:04:52.271Z</time></trkpt><trkpt lat="43.5472911" lon="12.7557213"><ele>463.0</ele><time>2026-04-18T09:04:53.27Z</time></trkpt><trkpt lat="43.5471974" lon="12.7558071"><ele>463.0</ele><time>2026-04-18T09:04:54.27Z</time></trkpt><trkpt lat="43.5471142" lon="12.7559003"><ele>463.0</ele><time>2026-04-18T09:04:55.271Z</time></trkpt><trkpt lat="43.5470272" lon="12.7560022"><ele>460.5</ele><time>2026-04-18T09:04:56.27Z</time></trkpt><trkpt lat="43.5469364" lon="12.7560976"><ele>458.0</ele><time>2026-04-18T09:04:57.271Z</time></trkpt><trkpt lat="43.5468491" lon="12.7561877"><ele>455.5</ele><time>2026-04-18T09:04:58.271Z</time></trkpt><trkpt lat="43.546759" lon="12.7562883"><ele>453.0</ele><time>2026-04-18T09:04:59.271Z</time></trkpt><trkpt lat="43.5466614" lon="12.7563994"><ele>453.0</ele><time>2026-04-18T09:05:00.271Z</time></trkpt><trkpt lat="43.5465604" lon="12.7565085"><ele>453.0</ele><time>2026-04-18T09:05:01.27Z</time></trkpt><trkpt lat="43.5464651" lon="12.7566165"><ele>453.0</ele><time>2026-04-18T09:05:02.271Z</time></trkpt><trkpt lat="43.5463741" lon="12.7567214"><ele>453.0</ele><time>2026-04-18T09:05:03.271Z</time></trkpt><trkpt lat="43.5462875" lon="12.7568248"><ele>450.75</ele><time>2026-04-18T09:05:04.271Z</time></trkpt><trkpt lat="43.5462018" lon="12.7569235"><ele>448.5</ele><time>2026-04-18T09:05:05.271Z</time></trkpt><trkpt lat="43.5461064" lon="12.7570082"><ele>446.25</ele><time>2026-04-18T09:05:06.27Z</time></trkpt><trkpt lat="43.5459965" lon="12.7570663"><ele>444.0</ele><time>2026-04-18T09:05:07.27Z</time></trkpt><trkpt lat="43.5458752" lon="12.7571122"><ele>444.0</ele><time>2026-04-18T09:05:08.27Z</time></trkpt><trkpt lat="43.5457544" lon="12.7571612"><ele>444.0</ele><time>2026-04-18T09:05:09.27Z</time></trkpt><trkpt lat="43.5456431" lon="12.757229"><ele>444.0</ele><time>2026-04-18T09:05:10.271Z</time></trkpt><trkpt lat="43.5455435" lon="12.7573151"><ele>444.0</ele><time>2026-04-18T09:05:11.27Z</time></trkpt><trkpt lat="43.5454626" lon="12.7574158"><ele>444.0</ele><time>2026-04-18T09:05:12.27Z</time></trkpt><trkpt lat="43.5454046" lon="12.7575344"><ele>444.0</ele><time>2026-04-18T09:05:13.271Z</time></trkpt><trkpt lat="43.5453711" lon="12.7576721"><ele>444.0</ele><time>2026-04-18T09:05:14.27Z</time></trkpt><trkpt lat="43.5453629" lon="12.7578225"><ele>444.0</ele><time>2026-04-18T09:05:15.271Z</time></trkpt><trkpt lat="43.5453793" lon="12.7579802"><ele>444.0</ele><time>2026-04-18T09:05:16.27Z</time></trkpt><trkpt lat="43.5454165" lon="12.7581376"><ele>442.2</ele><time>2026-04-18T09:05:17.27Z</time></trkpt><trkpt lat="43.5454684" lon="12.7582821"><ele>440.4</ele><time>2026-04-18T09:05:18.271Z</time></trkpt><trkpt lat="43.5455276" lon="12.7584147"><ele>438.6</ele><time>2026-04-18T09:05:19.271Z</time></trkpt><trkpt lat="43.5455849" lon="12.7585413"><ele>436.8</ele><time>2026-04-18T09:05:20.27Z</time></trkpt><trkpt lat="43.5456346" lon="12.7586647"><ele>435.0</ele><time>2026-04-18T09:05:21.27Z</time></trkpt><trkpt lat="43.5456798" lon="12.7587661"><ele>432.1666666666667</ele><time>2026-04-18T09:05:22.27Z</time></trkpt><trkpt lat="43.5457132" lon="12.7588578"><ele>429.33333333333337</ele><time>2026-04-18T09:05:23.271Z</time></trkpt><trkpt lat="43.5457132" lon="12.7589611"><ele>426.5</ele><time>2026-04-18T09:05:24.27Z</time></trkpt><trkpt lat="43.5456687" lon="12.7590536"><ele>423.6666666666667</ele><time>2026-04-18T09:05:25.27Z</time></trkpt><trkpt lat="43.5455907" lon="12.7591294"><ele>420.83333333333337</ele><time>2026-04-18T09:05:26.27Z</time></trkpt><trkpt lat="43.5455012" lon="12.7591947"><ele>418.0</ele><time>2026-04-18T09:05:27.27Z</time></trkpt><trkpt lat="43.5454047" lon="12.7592631"><ele>416.75</ele><time>2026-04-18T09:05:28.27Z</time></trkpt><trkpt lat="43.545298" lon="12.7593374"><ele>415.5</ele><time>2026-04-18T09:05:29.27Z</time></trkpt><trkpt lat="43.5451897" lon="12.7594128"><ele>414.25</ele><time>2026-04-18T09:05:30.27Z</time></trkpt><trkpt lat="43.5450831" lon="12.7594886"><ele>413.0</ele><time>2026-04-18T09:05:31.27Z</time></trkpt><trkpt lat="43.5449736" lon="12.7595611"><ele>409.5</ele><time>2026-04-18T09:05:32.27Z</time></trkpt><trkpt lat="43.5448584" lon="12.7596162"><ele>406.0</ele><time>2026-04-18T09:05:33.271Z</time></trkpt><trkpt lat="43.5447423" lon="12.7596429"><ele>402.5</ele><time>2026-04-18T09:05:34.27Z</time></trkpt><trkpt lat="43.5446281" lon="12.7596334"><ele>399.0</ele><time>2026-04-18T09:05:35.271Z</time></trkpt><trkpt lat="43.5445214" lon="12.7596008"><ele>397.6666666666667</ele><time>2026-04-18T09:05:36.271Z</time></trkpt><trkpt lat="43.544424" lon="12.7595678"><ele>396.33333333333337</ele><time>2026-04-18T09:05:37.27Z</time></trkpt><trkpt lat="43.5443381" lon="12.7595393"><ele>395.0</ele><time>2026-04-18T09:05:38.271Z</time></trkpt><trkpt lat="43.5442601" lon="12.7595307"><ele>393.6666666666667</ele><time>2026-04-18T09:05:39.27Z</time></trkpt><trkpt lat="43.5441938" lon="12.7595667"><ele>392.33333333333337</ele><time>2026-04-18T09:05:40.27Z</time></trkpt><trkpt lat="43.544152" lon="12.7596573"><ele>391.0</ele><time>2026-04-18T09:05:41.27Z</time></trkpt><trkpt lat="43.5441312" lon="12.7597792"><ele>391.0</ele><time>2026-04-18T09:05:42.27Z</time></trkpt><trkpt lat="43.5441107" lon="12.7599051"><ele>391.0</ele><time>2026-04-18T09:05:43.27Z</time></trkpt><trkpt lat="43.5440502" lon="12.7600316"><ele>391.0</ele><time>2026-04-18T09:05:44.271Z</time></trkpt><trkpt lat="43.5439717" lon="12.7601423"><ele>391.0</ele><time>2026-04-18T09:05:45.27Z</time></trkpt><trkpt lat="43.5438958" lon="12.7602553"><ele>391.0</ele><time>2026-04-18T09:05:46.27Z</time></trkpt><trkpt lat="43.5438179" lon="12.7603598"><ele>389.4</ele><time>2026-04-18T09:05:47.27Z</time></trkpt><trkpt lat="43.5437426" lon="12.7604565"><ele>387.8</ele><time>2026-04-18T09:05:48.27Z</time></trkpt><trkpt lat="43.5436739" lon="12.7605523"><ele>386.2</ele><time>2026-04-18T09:05:49.27Z</time></trkpt><trkpt lat="43.5436083" lon="12.7606352"><ele>384.59999999999997</ele><time>2026-04-18T09:05:50.27Z</time></trkpt><trkpt lat="43.5435249" lon="12.7606871"><ele>383.0</ele><time>2026-04-18T09:05:51.27Z</time></trkpt><trkpt lat="43.543434" lon="12.7606942"><ele>381.33333333333337</ele><time>2026-04-18T09:05:52.27Z</time></trkpt><trkpt lat="43.5433507" lon="12.7606801"><ele>379.6666666666667</ele><time>2026-04-18T09:05:53.27Z</time></trkpt><trkpt lat="43.5432802" lon="12.7606654"><ele>378.0</ele><time>2026-04-18T09:05:54.27Z</time></trkpt><trkpt lat="43.5431931" lon="12.7606488"><ele>376.3333333333333</ele><time>2026-04-18T09:05:56.271Z</time></trkpt><trkpt lat="43.5431439" lon="12.760588"><ele>374.66666666666663</ele><time>2026-04-18T09:05:58.27Z</time></trkpt><trkpt lat="43.5431524" lon="12.7604305"><ele>373.0</ele><time>2026-04-18T09:06:00.271Z</time></trkpt><trkpt lat="43.5431651" lon="12.7603444"><ele>373.8333333333333</ele><time>2026-04-18T09:06:01.27Z</time></trkpt><trkpt lat="43.5431742" lon="12.7601951"><ele>374.66666666666663</ele><time>2026-04-18T09:06:03.27Z</time></trkpt><trkpt lat="43.5431965" lon="12.7600675"><ele>375.5</ele><time>2026-04-18T09:06:05.271Z</time></trkpt><trkpt lat="43.5432261" lon="12.7599684"><ele>376.3333333333333</ele><time>2026-04-18T09:06:07.27Z</time></trkpt><trkpt lat="43.5432345" lon="12.7598698"><ele>377.1666666666667</ele><time>2026-04-18T09:06:09.27Z</time></trkpt><trkpt lat="43.5432633" lon="12.7597683"><ele>378.0</ele><time>2026-04-18T09:06:31.27Z</time></trkpt><trkpt lat="43.5432654" lon="12.7596539"><ele>378.0</ele><time>2026-04-18T09:06:33.271Z</time></trkpt><trkpt lat="43.5432775" lon="12.7595532"><ele>378.0</ele><time>2026-04-18T09:06:34.271Z</time></trkpt><trkpt lat="43.5432929" lon="12.7594474"><ele>378.0</ele><time>2026-04-18T09:06:35.271Z</time></trkpt><trkpt lat="43.5432954" lon="12.7593417"><ele>378.0</ele><time>2026-04-18T09:06:36.27Z</time></trkpt><trkpt lat="43.5432825" lon="12.7592354"><ele>378.0</ele><time>2026-04-18T09:06:37.271Z</time></trkpt><trkpt lat="43.5432518" lon="12.7591186"><ele>378.0</ele><time>2026-04-18T09:06:38.27Z</time></trkpt><trkpt lat="43.5432015" lon="12.7590049"><ele>378.4</ele><time>2026-04-18T09:06:39.27Z</time></trkpt><trkpt lat="43.5431274" lon="12.7589209"><ele>378.79999999999995</ele><time>2026-04-18T09:06:40.27Z</time></trkpt><trkpt lat="43.543051" lon="12.7588492"><ele>379.2</ele><time>2026-04-18T09:06:41.27Z</time></trkpt><trkpt lat="43.5429662" lon="12.7587919"><ele>379.6</ele><time>2026-04-18T09:06:42.27Z</time></trkpt><trkpt lat="43.5428695" lon="12.7587492"><ele>380.0</ele><time>2026-04-18T09:06:43.27Z</time></trkpt><trkpt lat="43.5427569" lon="12.7587058"><ele>381.25</ele><time>2026-04-18T09:06:44.27Z</time></trkpt><trkpt lat="43.5426351" lon="12.7586577"><ele>382.5</ele><time>2026-04-18T09:06:45.27Z</time></trkpt><trkpt lat="43.5425196" lon="12.7586052"><ele>383.75</ele><time>2026-04-18T09:06:46.271Z</time></trkpt><trkpt lat="43.542397" lon="12.7585535"><ele>385.0</ele><time>2026-04-18T09:06:47.27Z</time></trkpt><trkpt lat="43.5422768" lon="12.7584897"><ele>385.0</ele><time>2026-04-18T09:06:48.27Z</time></trkpt><trkpt lat="43.5421652" lon="12.7584105"><ele>385.0</ele><time>2026-04-18T09:06:49.271Z</time></trkpt><trkpt lat="43.5420651" lon="12.7583134"><ele>385.0</ele><time>2026-04-18T09:06:50.271Z</time></trkpt><trkpt lat="43.5419736" lon="12.7582026"><ele>385.0</ele><time>2026-04-18T09:06:51.27Z</time></trkpt><trkpt lat="43.5418964" lon="12.7580722"><ele>385.75</ele><time>2026-04-18T09:06:52.27Z</time></trkpt><trkpt lat="43.541831" lon="12.7579143"><ele>386.5</ele><time>2026-04-18T09:06:53.27Z</time></trkpt><trkpt lat="43.5417814" lon="12.7577366"><ele>387.25</ele><time>2026-04-18T09:06:54.27Z</time></trkpt><trkpt lat="43.5417427" lon="12.7575412"><ele>388.0</ele><time>2026-04-18T09:06:55.27Z</time></trkpt><trkpt lat="43.5417078" lon="12.7573492"><ele>388.0</ele><time>2026-04-18T09:06:56.27Z</time></trkpt><trkpt lat="43.5416716" lon="12.7571589"><ele>388.0</ele><time>2026-04-18T09:06:57.27Z</time></trkpt><trkpt lat="43.5416302" lon="12.7569638"><ele>388.0</ele><time>2026-04-18T09:06:58.27Z</time></trkpt><trkpt lat="43.5415857" lon="12.7567574"><ele>388.0</ele><time>2026-04-18T09:06:59.271Z</time></trkpt><trkpt lat="43.5415448" lon="12.7565458"><ele>390.6666666666667</ele><time>2026-04-18T09:07:00.271Z</time></trkpt><trkpt lat="43.5415048" lon="12.7563403"><ele>393.33333333333337</ele><time>2026-04-18T09:07:01.27Z</time></trkpt><trkpt lat="43.5414644" lon="12.7561349"><ele>396.0</ele><time>2026-04-18T09:07:02.27Z</time></trkpt><trkpt lat="43.541418" lon="12.7559391"><ele>394.66666666666663</ele><time>2026-04-18T09:07:03.271Z</time></trkpt><trkpt lat="43.5413532" lon="12.7557501"><ele>393.3333333333333</ele><time>2026-04-18T09:07:04.27Z</time></trkpt><trkpt lat="43.5412638" lon="12.7555911"><ele>392.0</ele><time>2026-04-18T09:07:05.271Z</time></trkpt><trkpt lat="43.5411538" lon="12.7554458"><ele>392.0</ele><time>2026-04-18T09:07:06.271Z</time></trkpt><trkpt lat="43.5410376" lon="12.7553248"><ele>392.0</ele><time>2026-04-18T09:07:07.27Z</time></trkpt><trkpt lat="43.5408974" lon="12.7552304"><ele>392.0</ele><time>2026-04-18T09:07:08.27Z</time></trkpt><trkpt lat="43.5407428" lon="12.7551541"><ele>393.3333333333333</ele><time>2026-04-18T09:07:09.27Z</time></trkpt><trkpt lat="43.5405865" lon="12.7550828"><ele>394.66666666666663</ele><time>2026-04-18T09:07:10.27Z</time></trkpt><trkpt lat="43.5404323" lon="12.7550203"><ele>396.0</ele><time>2026-04-18T09:07:11.27Z</time></trkpt><trkpt lat="43.5402772" lon="12.7549532"><ele>396.0</ele><time>2026-04-18T09:07:12.27Z</time></trkpt><trkpt lat="43.5401193" lon="12.7548825"><ele>396.0</ele><time>2026-04-18T09:07:13.27Z</time></trkpt><trkpt lat="43.5399556" lon="12.7548183"><ele>396.0</ele><time>2026-04-18T09:07:14.271Z</time></trkpt><trkpt lat="43.5397896" lon="12.7547418"><ele>396.0</ele><time>2026-04-18T09:07:15.271Z</time></trkpt><trkpt lat="43.5396193" lon="12.7546702"><ele>396.0</ele><time>2026-04-18T09:07:16.271Z</time></trkpt><trkpt lat="43.5394481" lon="12.7545968"><ele>396.0</ele><time>2026-04-18T09:07:17.271Z</time></trkpt><trkpt lat="43.5392865" lon="12.754528"><ele>397.0</ele><time>2026-04-18T09:07:18.27Z</time></trkpt><trkpt lat="43.5391342" lon="12.7544651"><ele>398.0</ele><time>2026-04-18T09:07:19.27Z</time></trkpt><trkpt lat="43.5389904" lon="12.7544059"><ele>399.0</ele><time>2026-04-18T09:07:20.271Z</time></trkpt><trkpt lat="43.5388532" lon="12.7543406"><ele>399.0</ele><time>2026-04-18T09:07:21.271Z</time></trkpt><trkpt lat="43.5387187" lon="12.7542848"><ele>399.0</ele><time>2026-04-18T09:07:22.27Z</time></trkpt><trkpt lat="43.5385769" lon="12.754224"><ele>399.0</ele><time>2026-04-18T09:07:23.271Z</time></trkpt><trkpt lat="43.538437" lon="12.754168"><ele>399.0</ele><time>2026-04-18T09:07:24.27Z</time></trkpt><trkpt lat="43.5382924" lon="12.7541097"><ele>398.75</ele><time>2026-04-18T09:07:25.271Z</time></trkpt><trkpt lat="43.538158" lon="12.7540538"><ele>398.5</ele><time>2026-04-18T09:07:26.271Z</time></trkpt><trkpt lat="43.5380372" lon="12.7539974"><ele>398.25</ele><time>2026-04-18T09:07:27.271Z</time></trkpt><trkpt lat="43.5379231" lon="12.7539015"><ele>398.0</ele><time>2026-04-18T09:07:28.27Z</time></trkpt><trkpt lat="43.5378343" lon="12.7537652"><ele>398.25</ele><time>2026-04-18T09:07:29.27Z</time></trkpt><trkpt lat="43.5377671" lon="12.7536089"><ele>398.5</ele><time>2026-04-18T09:07:30.27Z</time></trkpt><trkpt lat="43.5377181" lon="12.7534288"><ele>398.75</ele><time>2026-04-18T09:07:31.27Z</time></trkpt><trkpt lat="43.5376892" lon="12.7532164"><ele>399.0</ele><time>2026-04-18T09:07:32.271Z</time></trkpt><trkpt lat="43.5376601" lon="12.7530025"><ele>399.0</ele><time>2026-04-18T09:07:33.271Z</time></trkpt><trkpt lat="43.5376336" lon="12.7527561"><ele>399.0</ele><time>2026-04-18T09:07:34.271Z</time></trkpt><trkpt lat="43.5375988" lon="12.7525225"><ele>399.0</ele><time>2026-04-18T09:07:35.271Z</time></trkpt><trkpt lat="43.5375721" lon="12.7522891"><ele>399.0</ele><time>2026-04-18T09:07:36.27Z</time></trkpt><trkpt lat="43.5375463" lon="12.752052"><ele>399.0</ele><time>2026-04-18T09:07:37.271Z</time></trkpt><trkpt lat="43.5375158" lon="12.7518148"><ele>399.0</ele><time>2026-04-18T09:07:38.27Z</time></trkpt><trkpt lat="43.5374802" lon="12.7515682"><ele>399.0</ele><time>2026-04-18T09:07:39.271Z</time></trkpt><trkpt lat="43.5374431" lon="12.7513183"><ele>399.0</ele><time>2026-04-18T09:07:40.27Z</time></trkpt><trkpt lat="43.5374014" lon="12.7510705"><ele>399.0</ele><time>2026-04-18T09:07:41.271Z</time></trkpt><trkpt lat="43.5373517" lon="12.7508225"><ele>400.0</ele><time>2026-04-18T09:07:42.27Z</time></trkpt><trkpt lat="43.5373015" lon="12.7505699"><ele>401.0</ele><time>2026-04-18T09:07:43.27Z</time></trkpt><trkpt lat="43.5372492" lon="12.7503189"><ele>402.0</ele><time>2026-04-18T09:07:44.271Z</time></trkpt><trkpt lat="43.5371982" lon="12.7500628"><ele>402.33333333333337</ele><time>2026-04-18T09:07:45.27Z</time></trkpt><trkpt lat="43.537145" lon="12.7498118"><ele>402.6666666666667</ele><time>2026-04-18T09:07:46.271Z</time></trkpt><trkpt lat="43.5370931" lon="12.7495609"><ele>403.0</ele><time>2026-04-18T09:07:47.27Z</time></trkpt><trkpt lat="43.5370456" lon="12.7493086"><ele>399.33333333333337</ele><time>2026-04-18T09:07:48.27Z</time></trkpt><trkpt lat="43.537002" lon="12.7490643"><ele>395.66666666666663</ele><time>2026-04-18T09:07:49.271Z</time></trkpt><trkpt lat="43.5369686" lon="12.7488392"><ele>392.0</ele><time>2026-04-18T09:07:50.271Z</time></trkpt><trkpt lat="43.5369579" lon="12.7486332"><ele>392.0</ele><time>2026-04-18T09:07:51.27Z</time></trkpt><trkpt lat="43.5369829" lon="12.7484598"><ele>392.0</ele><time>2026-04-18T09:07:52.271Z</time></trkpt><trkpt lat="43.5370396" lon="12.748308"><ele>392.0</ele><time>2026-04-18T09:07:53.271Z</time></trkpt><trkpt lat="43.5371272" lon="12.7481704"><ele>392.0</ele><time>2026-04-18T09:07:54.271Z</time></trkpt><trkpt lat="43.5372471" lon="12.7480568"><ele>397.0</ele><time>2026-04-18T09:07:55.27Z</time></trkpt><trkpt lat="43.5373766" lon="12.7479492"><ele>402.0</ele><time>2026-04-18T09:07:56.27Z</time></trkpt><trkpt lat="43.5375074" lon="12.7478385"><ele>407.0</ele><time>2026-04-18T09:07:57.27Z</time></trkpt><trkpt lat="43.5376486" lon="12.747719"><ele>403.66666666666663</ele><time>2026-04-18T09:07:58.271Z</time></trkpt><trkpt lat="43.5377912" lon="12.747597"><ele>400.33333333333337</ele><time>2026-04-18T09:07:59.27Z</time></trkpt><trkpt lat="43.5379359" lon="12.7474753"><ele>397.0</ele><time>2026-04-18T09:08:00.271Z</time></trkpt><trkpt lat="43.5380851" lon="12.7473549"><ele>397.0</ele><time>2026-04-18T09:08:01.27Z</time></trkpt><trkpt lat="43.5382363" lon="12.7472276"><ele>397.0</ele><time>2026-04-18T09:08:02.27Z</time></trkpt><trkpt lat="43.5383882" lon="12.7470982"><ele>397.0</ele><time>2026-04-18T09:08:03.271Z</time></trkpt><trkpt lat="43.5385347" lon="12.7469748"><ele>393.6666666666667</ele><time>2026-04-18T09:08:04.271Z</time></trkpt><trkpt lat="43.5386768" lon="12.7468539"><ele>390.33333333333337</ele><time>2026-04-18T09:08:05.27Z</time></trkpt><trkpt lat="43.5388215" lon="12.7467226"><ele>387.0</ele><time>2026-04-18T09:08:06.27Z</time></trkpt><trkpt lat="43.5389594" lon="12.7465887"><ele>387.0</ele><time>2026-04-18T09:08:07.27Z</time></trkpt><trkpt lat="43.5390885" lon="12.7464434"><ele>387.0</ele><time>2026-04-18T09:08:08.27Z</time></trkpt><trkpt lat="43.5392035" lon="12.7462842"><ele>387.0</ele><time>2026-04-18T09:08:09.27Z</time></trkpt><trkpt lat="43.5393222" lon="12.7461166"><ele>385.3333333333333</ele><time>2026-04-18T09:08:10.271Z</time></trkpt><trkpt lat="43.5394408" lon="12.74595"><ele>383.66666666666663</ele><time>2026-04-18T09:08:11.27Z</time></trkpt><trkpt lat="43.5395531" lon="12.7457929"><ele>382.0</ele><time>2026-04-18T09:08:12.271Z</time></trkpt><trkpt lat="43.539659" lon="12.7456442"><ele>382.0</ele><time>2026-04-18T09:08:13.27Z</time></trkpt><trkpt lat="43.5397578" lon="12.7454978"><ele>382.0</ele><time>2026-04-18T09:08:14.27Z</time></trkpt><trkpt lat="43.5398329" lon="12.7453505"><ele>382.0</ele><time>2026-04-18T09:08:15.27Z</time></trkpt><trkpt lat="43.5398833" lon="12.7452019"><ele>382.0</ele><time>2026-04-18T09:08:16.27Z</time></trkpt><trkpt lat="43.5398991" lon="12.7450371"><ele>380.5</ele><time>2026-04-18T09:08:17.27Z</time></trkpt><trkpt lat="43.5398739" lon="12.7448673"><ele>379.0</ele><time>2026-04-18T09:08:18.271Z</time></trkpt><trkpt lat="43.5398383" lon="12.7447109"><ele>377.5</ele><time>2026-04-18T09:08:19.271Z</time></trkpt><trkpt lat="43.5397767" lon="12.7445835"><ele>376.0</ele><time>2026-04-18T09:08:20.27Z</time></trkpt><trkpt lat="43.53969" lon="12.744489"><ele>376.0</ele><time>2026-04-18T09:08:21.27Z</time></trkpt><trkpt lat="43.5395977" lon="12.7444219"><ele>376.0</ele><time>2026-04-18T09:08:22.27Z</time></trkpt><trkpt lat="43.5394188" lon="12.7445363"><ele>376.0</ele><time>2026-04-18T09:08:23.27Z</time></trkpt><trkpt lat="43.5392751" lon="12.7446043"><ele>376.66666666666663</ele><time>2026-04-18T09:08:24.271Z</time></trkpt><trkpt lat="43.5391201" lon="12.7446811"><ele>377.3333333333333</ele><time>2026-04-18T09:08:25.27Z</time></trkpt><trkpt lat="43.5389642" lon="12.7447345"><ele>378.0</ele><time>2026-04-18T09:08:26.27Z</time></trkpt><trkpt lat="43.5388073" lon="12.7447701"><ele>377.6666666666667</ele><time>2026-04-18T09:08:27.27Z</time></trkpt><trkpt lat="43.5386582" lon="12.7447661"><ele>377.33333333333337</ele><time>2026-04-18T09:08:28.271Z</time></trkpt><trkpt lat="43.5385048" lon="12.7447398"><ele>377.0</ele><time>2026-04-18T09:08:29.271Z</time></trkpt><trkpt lat="43.5383627" lon="12.7446859"><ele>377.0</ele><time>2026-04-18T09:08:30.27Z</time></trkpt><trkpt lat="43.5382265" lon="12.7446065"><ele>377.0</ele><time>2026-04-18T09:08:31.27Z</time></trkpt><trkpt lat="43.5380968" lon="12.7445059"><ele>377.0</ele><time>2026-04-18T09:08:32.27Z</time></trkpt><trkpt lat="43.5379799" lon="12.7443778"><ele>377.0</ele><time>2026-04-18T09:08:33.27Z</time></trkpt><trkpt lat="43.537873" lon="12.7442237"><ele>379.33333333333337</ele><time>2026-04-18T09:08:34.271Z</time></trkpt><trkpt lat="43.5377864" lon="12.7440541"><ele>381.6666666666667</ele><time>2026-04-18T09:08:35.27Z</time></trkpt><trkpt lat="43.5377206" lon="12.7438593"><ele>384.0</ele><time>2026-04-18T09:08:36.27Z</time></trkpt><trkpt lat="43.5376723" lon="12.7436618"><ele>386.33333333333337</ele><time>2026-04-18T09:08:37.27Z</time></trkpt><trkpt lat="43.5376375" lon="12.7434625"><ele>388.6666666666667</ele><time>2026-04-18T09:08:38.27Z</time></trkpt><trkpt lat="43.5376277" lon="12.7432552"><ele>391.0</ele><time>2026-04-18T09:08:39.271Z</time></trkpt><trkpt lat="43.5376377" lon="12.7430424"><ele>391.0</ele><time>2026-04-18T09:08:40.27Z</time></trkpt><trkpt lat="43.5376714" lon="12.7428333"><ele>391.0</ele><time>2026-04-18T09:08:41.271Z</time></trkpt><trkpt lat="43.5377222" lon="12.7426345"><ele>391.0</ele><time>2026-04-18T09:08:42.27Z</time></trkpt><trkpt lat="43.5377872" lon="12.7424447"><ele>391.25</ele><time>2026-04-18T09:08:43.271Z</time></trkpt><trkpt lat="43.5378566" lon="12.7422627"><ele>391.5</ele><time>2026-04-18T09:08:44.271Z</time></trkpt><trkpt lat="43.5379216" lon="12.7420825"><ele>391.75</ele><time>2026-04-18T09:08:45.27Z</time></trkpt><trkpt lat="43.537988" lon="12.7419144"><ele>392.0</ele><time>2026-04-18T09:08:46.27Z</time></trkpt><trkpt lat="43.5380793" lon="12.7417707"><ele>393.5</ele><time>2026-04-18T09:08:47.271Z</time></trkpt><trkpt lat="43.5381959" lon="12.7416522"><ele>395.0</ele><time>2026-04-18T09:08:48.27Z</time></trkpt><trkpt lat="43.5383175" lon="12.7415456"><ele>396.5</ele><time>2026-04-18T09:08:49.27Z</time></trkpt><trkpt lat="43.5384372" lon="12.7414276"><ele>398.0</ele><time>2026-04-18T09:08:50.27Z</time></trkpt><trkpt lat="43.5385339" lon="12.7412817"><ele>398.0</ele><time>2026-04-18T09:08:51.27Z</time></trkpt><trkpt lat="43.5386063" lon="12.7411001"><ele>398.0</ele><time>2026-04-18T09:08:52.271Z</time></trkpt><trkpt lat="43.5386455" lon="12.7408907"><ele>398.0</ele><time>2026-04-18T09:08:53.271Z</time></trkpt><trkpt lat="43.5386501" lon="12.7406688"><ele>398.0</ele><time>2026-04-18T09:08:54.27Z</time></trkpt><trkpt lat="43.5386421" lon="12.740446"><ele>398.0</ele><time>2026-04-18T09:08:55.27Z</time></trkpt><trkpt lat="43.5386263" lon="12.7402255"><ele>398.0</ele><time>2026-04-18T09:08:56.271Z</time></trkpt><trkpt lat="43.5386104" lon="12.7400124"><ele>399.0</ele><time>2026-04-18T09:08:57.27Z</time></trkpt><trkpt lat="43.5385992" lon="12.7397939"><ele>400.0</ele><time>2026-04-18T09:08:58.271Z</time></trkpt><trkpt lat="43.5385785" lon="12.7395769"><ele>401.0</ele><time>2026-04-18T09:08:59.271Z</time></trkpt><trkpt lat="43.538557" lon="12.7393669"><ele>401.66666666666663</ele><time>2026-04-18T09:09:00.271Z</time></trkpt><trkpt lat="43.5385323" lon="12.7391568"><ele>402.33333333333337</ele><time>2026-04-18T09:09:01.27Z</time></trkpt><trkpt lat="43.5385011" lon="12.738953"><ele>403.0</ele><time>2026-04-18T09:09:02.27Z</time></trkpt><trkpt lat="43.5384479" lon="12.7387558"><ele>403.0</ele><time>2026-04-18T09:09:03.271Z</time></trkpt><trkpt lat="43.5383761" lon="12.7385705"><ele>403.0</ele><time>2026-04-18T09:09:04.271Z</time></trkpt><trkpt lat="43.5382879" lon="12.7384027"><ele>403.0</ele><time>2026-04-18T09:09:05.27Z</time></trkpt><trkpt lat="43.5381711" lon="12.738252"><ele>403.75</ele><time>2026-04-18T09:09:06.27Z</time></trkpt><trkpt lat="43.5380402" lon="12.7381396"><ele>404.5</ele><time>2026-04-18T09:09:07.271Z</time></trkpt><trkpt lat="43.5379159" lon="12.7380566"><ele>405.25</ele><time>2026-04-18T09:09:08.271Z</time></trkpt><trkpt lat="43.5377907" lon="12.7379732"><ele>406.0</ele><time>2026-04-18T09:09:09.27Z</time></trkpt><trkpt lat="43.5376723" lon="12.7378791"><ele>406.0</ele><time>2026-04-18T09:09:10.271Z</time></trkpt><trkpt lat="43.537562" lon="12.7377679"><ele>406.0</ele><time>2026-04-18T09:09:11.271Z</time></trkpt><trkpt lat="43.5374642" lon="12.7376342"><ele>406.0</ele><time>2026-04-18T09:09:12.27Z</time></trkpt><trkpt lat="43.5373818" lon="12.737487"><ele>406.0</ele><time>2026-04-18T09:09:13.271Z</time></trkpt><trkpt lat="43.5373074" lon="12.7373391"><ele>407.4</ele><time>2026-04-18T09:09:14.27Z</time></trkpt><trkpt lat="43.5372388" lon="12.7372069"><ele>408.8</ele><time>2026-04-18T09:09:15.271Z</time></trkpt><trkpt lat="43.5371753" lon="12.7370786"><ele>410.2</ele><time>2026-04-18T09:09:16.271Z</time></trkpt><trkpt lat="43.537126" lon="12.7369641"><ele>411.59999999999997</ele><time>2026-04-18T09:09:17.27Z</time></trkpt><trkpt lat="43.5370838" lon="12.7368468"><ele>413.0</ele><time>2026-04-18T09:09:18.27Z</time></trkpt><trkpt lat="43.5370376" lon="12.7367818"><ele>413.0</ele><time>2026-04-18T09:09:19.27Z</time></trkpt><trkpt lat="43.536975" lon="12.7367254"><ele>413.0</ele><time>2026-04-18T09:09:20.271Z</time></trkpt><trkpt lat="43.5369032" lon="12.736679"><ele>413.0</ele><time>2026-04-18T09:09:21.27Z</time></trkpt><trkpt lat="43.53682" lon="12.7366346"><ele>413.0</ele><time>2026-04-18T09:09:22.27Z</time></trkpt><trkpt lat="43.5367284" lon="12.7365758"><ele>413.0</ele><time>2026-04-18T09:09:23.27Z</time></trkpt><trkpt lat="43.5366311" lon="12.7364985"><ele>413.0</ele><time>2026-04-18T09:09:24.27Z</time></trkpt><trkpt lat="43.536521" lon="12.7364138"><ele>413.0</ele><time>2026-04-18T09:09:25.27Z</time></trkpt><trkpt lat="43.5364133" lon="12.7363218"><ele>413.0</ele><time>2026-04-18T09:09:26.27Z</time></trkpt><trkpt lat="43.5363034" lon="12.7362327"><ele>413.0</ele><time>2026-04-18T09:09:27.27Z</time></trkpt><trkpt lat="43.5361819" lon="12.7361535"><ele>411.0</ele><time>2026-04-18T09:09:28.27Z</time></trkpt><trkpt lat="43.5360477" lon="12.7360916"><ele>409.0</ele><time>2026-04-18T09:09:29.271Z</time></trkpt><trkpt lat="43.5359047" lon="12.7360601"><ele>407.0</ele><time>2026-04-18T09:09:30.27Z</time></trkpt><trkpt lat="43.5357541" lon="12.7360338"><ele>405.0</ele><time>2026-04-18T09:09:31.271Z</time></trkpt><trkpt lat="43.5355931" lon="12.7360165"><ele>405.0</ele><time>2026-04-18T09:09:32.27Z</time></trkpt><trkpt lat="43.5354307" lon="12.7360021"><ele>405.0</ele><time>2026-04-18T09:09:33.271Z</time></trkpt><trkpt lat="43.5352682" lon="12.7359933"><ele>405.0</ele><time>2026-04-18T09:09:34.27Z</time></trkpt><trkpt lat="43.5351013" lon="12.7359879"><ele>403.66666666666663</ele><time>2026-04-18T09:09:35.27Z</time></trkpt><trkpt lat="43.5349354" lon="12.7359758"><ele>402.3333333333333</ele><time>2026-04-18T09:09:36.27Z</time></trkpt><trkpt lat="43.5347701" lon="12.7359672"><ele>401.0</ele><time>2026-04-18T09:09:37.27Z</time></trkpt><trkpt lat="43.5346058" lon="12.7359595"><ele>400.3333333333333</ele><time>2026-04-18T09:09:38.271Z</time></trkpt><trkpt lat="43.5344407" lon="12.7359481"><ele>399.66666666666663</ele><time>2026-04-18T09:09:39.27Z</time></trkpt><trkpt lat="43.5342732" lon="12.7359338"><ele>399.0</ele><time>2026-04-18T09:09:40.271Z</time></trkpt><trkpt lat="43.5341175" lon="12.7359213"><ele>399.0</ele><time>2026-04-18T09:09:41.271Z</time></trkpt><trkpt lat="43.5339633" lon="12.7359144"><ele>399.0</ele><time>2026-04-18T09:09:42.271Z</time></trkpt><trkpt lat="43.533818" lon="12.7358996"><ele>399.0</ele><time>2026-04-18T09:09:43.27Z</time></trkpt><trkpt lat="43.5336696" lon="12.7358822"><ele>399.0</ele><time>2026-04-18T09:09:44.271Z</time></trkpt><trkpt lat="43.533517" lon="12.7358644"><ele>398.33333333333337</ele><time>2026-04-18T09:09:45.27Z</time></trkpt><trkpt lat="43.53336" lon="12.7358472"><ele>397.6666666666667</ele><time>2026-04-18T09:09:46.27Z</time></trkpt><trkpt lat="43.5331957" lon="12.7358251"><ele>397.0</ele><time>2026-04-18T09:09:47.271Z</time></trkpt><trkpt lat="43.5330256" lon="12.7358034"><ele>396.33333333333337</ele><time>2026-04-18T09:09:48.27Z</time></trkpt><trkpt lat="43.5328539" lon="12.7357694"><ele>395.66666666666663</ele><time>2026-04-18T09:09:49.271Z</time></trkpt><trkpt lat="43.5326768" lon="12.7357335"><ele>395.0</ele><time>2026-04-18T09:09:50.271Z</time></trkpt><trkpt lat="43.5324919" lon="12.7356974"><ele>395.0</ele><time>2026-04-18T09:09:51.27Z</time></trkpt><trkpt lat="43.532309" lon="12.7356609"><ele>395.0</ele><time>2026-04-18T09:09:52.27Z</time></trkpt><trkpt lat="43.532142" lon="12.7356254"><ele>395.0</ele><time>2026-04-18T09:09:53.271Z</time></trkpt><trkpt lat="43.5319922" lon="12.7356"><ele>396.75</ele><time>2026-04-18T09:09:54.27Z</time></trkpt><trkpt lat="43.5318425" lon="12.735592"><ele>398.5</ele><time>2026-04-18T09:09:55.27Z</time></trkpt><trkpt lat="43.5316984" lon="12.7355611"><ele>400.25</ele><time>2026-04-18T09:09:56.27Z</time></trkpt><trkpt lat="43.5315486" lon="12.7355173"><ele>402.0</ele><time>2026-04-18T09:09:57.271Z</time></trkpt><trkpt lat="43.5310809" lon="12.7353912"><ele>403.0</ele><time>2026-04-18T09:10:00.27Z</time></trkpt><trkpt lat="43.5309543" lon="12.7353587"><ele>404.0</ele><time>2026-04-18T09:10:01.27Z</time></trkpt><trkpt lat="43.5308375" lon="12.7353201"><ele>405.0</ele><time>2026-04-18T09:10:02.27Z</time></trkpt><trkpt lat="43.5307201" lon="12.7352701"><ele>406.0</ele><time>2026-04-18T09:10:03.27Z</time></trkpt><trkpt lat="43.5304934" lon="12.7351053"><ele>406.0</ele><time>2026-04-18T09:10:05.271Z</time></trkpt><trkpt lat="43.5303998" lon="12.7349722"><ele>406.0</ele><time>2026-04-18T09:10:06.271Z</time></trkpt><trkpt lat="43.5303177" lon="12.7348148"><ele>406.0</ele><time>2026-04-18T09:10:07.27Z</time></trkpt><trkpt lat="43.5302377" lon="12.7346474"><ele>406.0</ele><time>2026-04-18T09:10:08.271Z</time></trkpt><trkpt lat="43.5301539" lon="12.7344752"><ele>408.0</ele><time>2026-04-18T09:10:09.271Z</time></trkpt><trkpt lat="43.5300628" lon="12.7343004"><ele>410.0</ele><time>2026-04-18T09:10:10.27Z</time></trkpt><trkpt lat="43.529973" lon="12.7341198"><ele>412.0</ele><time>2026-04-18T09:10:11.27Z</time></trkpt><trkpt lat="43.5298839" lon="12.7339331"><ele>412.0</ele><time>2026-04-18T09:10:12.27Z</time></trkpt><trkpt lat="43.5297905" lon="12.7337413"><ele>412.0</ele><time>2026-04-18T09:10:13.27Z</time></trkpt><trkpt lat="43.5296981" lon="12.7335553"><ele>412.0</ele><time>2026-04-18T09:10:14.271Z</time></trkpt><trkpt lat="43.529612" lon="12.7333763"><ele>415.25</ele><time>2026-04-18T09:10:15.27Z</time></trkpt><trkpt lat="43.5295337" lon="12.7332046"><ele>418.5</ele><time>2026-04-18T09:10:16.271Z</time></trkpt><trkpt lat="43.5294689" lon="12.7330404"><ele>421.75</ele><time>2026-04-18T09:10:17.271Z</time></trkpt><trkpt lat="43.5294323" lon="12.7328666"><ele>425.0</ele><time>2026-04-18T09:10:18.27Z</time></trkpt><trkpt lat="43.5294197" lon="12.7326871"><ele>426.0</ele><time>2026-04-18T09:10:19.27Z</time></trkpt><trkpt lat="43.5294049" lon="12.7325146"><ele>427.0</ele><time>2026-04-18T09:10:20.271Z</time></trkpt><trkpt lat="43.5293813" lon="12.7323371"><ele>428.0</ele><time>2026-04-18T09:10:21.27Z</time></trkpt><trkpt lat="43.5293492" lon="12.7321554"><ele>429.0</ele><time>2026-04-18T09:10:22.27Z</time></trkpt><trkpt lat="43.5293097" lon="12.7319675"><ele>430.0</ele><time>2026-04-18T09:10:23.27Z</time></trkpt><trkpt lat="43.5292726" lon="12.731777"><ele>431.0</ele><time>2026-04-18T09:10:24.27Z</time></trkpt><trkpt lat="43.5292396" lon="12.7315844"><ele>432.0</ele><time>2026-04-18T09:10:25.27Z</time></trkpt><trkpt lat="43.5292039" lon="12.7313967"><ele>433.0</ele><time>2026-04-18T09:10:26.271Z</time></trkpt><trkpt lat="43.5291626" lon="12.7312177"><ele>433.0</ele><time>2026-04-18T09:10:27.27Z</time></trkpt><trkpt lat="43.5291107" lon="12.731069"><ele>433.0</ele><time>2026-04-18T09:10:28.27Z</time></trkpt><trkpt lat="43.5290382" lon="12.7309421"><ele>433.0</ele><time>2026-04-18T09:10:29.27Z</time></trkpt><trkpt lat="43.5289395" lon="12.7308476"><ele>433.0</ele><time>2026-04-18T09:10:30.27Z</time></trkpt><trkpt lat="43.5288175" lon="12.730792"><ele>435.5</ele><time>2026-04-18T09:10:31.271Z</time></trkpt><trkpt lat="43.5286774" lon="12.7307559"><ele>438.0</ele><time>2026-04-18T09:10:32.27Z</time></trkpt><trkpt lat="43.5285311" lon="12.7307169"><ele>440.5</ele><time>2026-04-18T09:10:33.27Z</time></trkpt><trkpt lat="43.5283854" lon="12.730667"><ele>443.0</ele><time>2026-04-18T09:10:34.271Z</time></trkpt><trkpt lat="43.5282426" lon="12.7306158"><ele>443.0</ele><time>2026-04-18T09:10:35.27Z</time></trkpt><trkpt lat="43.5280975" lon="12.7305721"><ele>443.0</ele><time>2026-04-18T09:10:36.27Z</time></trkpt><trkpt lat="43.527956" lon="12.7305372"><ele>443.0</ele><time>2026-04-18T09:10:37.27Z</time></trkpt><trkpt lat="43.527825" lon="12.7305041"><ele>443.0</ele><time>2026-04-18T09:10:38.271Z</time></trkpt><trkpt lat="43.5277043" lon="12.7304894"><ele>445.0</ele><time>2026-04-18T09:10:39.27Z</time></trkpt><trkpt lat="43.5275899" lon="12.7305072"><ele>447.0</ele><time>2026-04-18T09:10:40.27Z</time></trkpt><trkpt lat="43.5274839" lon="12.730577"><ele>449.0</ele><time>2026-04-18T09:10:41.27Z</time></trkpt><trkpt lat="43.5273917" lon="12.7306975"><ele>451.0</ele><time>2026-04-18T09:10:42.271Z</time></trkpt><trkpt lat="43.5273189" lon="12.7308466"><ele>451.0</ele><time>2026-04-18T09:10:43.271Z</time></trkpt><trkpt lat="43.5272663" lon="12.7310156"><ele>451.0</ele><time>2026-04-18T09:10:44.271Z</time></trkpt><trkpt lat="43.5272312" lon="12.7312009"><ele>451.0</ele><time>2026-04-18T09:10:45.27Z</time></trkpt><trkpt lat="43.5272091" lon="12.7313899"><ele>451.0</ele><time>2026-04-18T09:10:46.27Z</time></trkpt><trkpt lat="43.5271911" lon="12.7315764"><ele>452.25</ele><time>2026-04-18T09:10:47.27Z</time></trkpt><trkpt lat="43.5271829" lon="12.7317637"><ele>453.5</ele><time>2026-04-18T09:10:48.271Z</time></trkpt><trkpt lat="43.5271918" lon="12.7319544"><ele>454.75</ele><time>2026-04-18T09:10:49.27Z</time></trkpt><trkpt lat="43.5272124" lon="12.7321389"><ele>456.0</ele><time>2026-04-18T09:10:50.27Z</time></trkpt><trkpt lat="43.5272295" lon="12.7323231"><ele>456.0</ele><time>2026-04-18T09:10:51.271Z</time></trkpt><trkpt lat="43.5272227" lon="12.7325142"><ele>456.0</ele><time>2026-04-18T09:10:52.27Z</time></trkpt><trkpt lat="43.5271861" lon="12.7327041"><ele>456.0</ele><time>2026-04-18T09:10:53.27Z</time></trkpt><trkpt lat="43.5271243" lon="12.7328897"><ele>456.0</ele><time>2026-04-18T09:10:54.27Z</time></trkpt><trkpt lat="43.5270506" lon="12.7330521"><ele>459.25</ele><time>2026-04-18T09:10:55.27Z</time></trkpt><trkpt lat="43.5269701" lon="12.7331824"><ele>462.5</ele><time>2026-04-18T09:10:56.27Z</time></trkpt><trkpt lat="43.5268614" lon="12.7332795"><ele>465.75</ele><time>2026-04-18T09:10:57.27Z</time></trkpt><trkpt lat="43.5267254" lon="12.7333287"><ele>469.0</ele><time>2026-04-18T09:10:58.27Z</time></trkpt><trkpt lat="43.526574" lon="12.7333326"><ele>469.0</ele><time>2026-04-18T09:10:59.27Z</time></trkpt><trkpt lat="43.5264155" lon="12.7333009"><ele>469.0</ele><time>2026-04-18T09:11:00.27Z</time></trkpt><trkpt lat="43.5262617" lon="12.7332576"><ele>469.0</ele><time>2026-04-18T09:11:01.27Z</time></trkpt><trkpt lat="43.5261268" lon="12.7331972"><ele>470.25</ele><time>2026-04-18T09:11:02.27Z</time></trkpt><trkpt lat="43.5260079" lon="12.733116"><ele>471.5</ele><time>2026-04-18T09:11:03.27Z</time></trkpt><trkpt lat="43.5259074" lon="12.7330042"><ele>472.75</ele><time>2026-04-18T09:11:04.27Z</time></trkpt><trkpt lat="43.5258318" lon="12.7328636"><ele>474.0</ele><time>2026-04-18T09:11:05.27Z</time></trkpt><trkpt lat="43.52578" lon="12.7327094"><ele>476.25</ele><time>2026-04-18T09:11:06.27Z</time></trkpt><trkpt lat="43.5257348" lon="12.7325455"><ele>478.5</ele><time>2026-04-18T09:11:07.271Z</time></trkpt><trkpt lat="43.5256676" lon="12.7323842"><ele>480.75</ele><time>2026-04-18T09:11:08.27Z</time></trkpt><trkpt lat="43.5255747" lon="12.7322418"><ele>483.0</ele><time>2026-04-18T09:11:09.27Z</time></trkpt><trkpt lat="43.5254678" lon="12.7321151"><ele>482.25</ele><time>2026-04-18T09:11:10.271Z</time></trkpt><trkpt lat="43.5253585" lon="12.7319956"><ele>481.5</ele><time>2026-04-18T09:11:11.27Z</time></trkpt><trkpt lat="43.5252605" lon="12.7318814"><ele>480.75</ele><time>2026-04-18T09:11:12.27Z</time></trkpt><trkpt lat="43.5251922" lon="12.73175"><ele>480.0</ele><time>2026-04-18T09:11:13.271Z</time></trkpt><trkpt lat="43.525161" lon="12.7315917"><ele>480.0</ele><time>2026-04-18T09:11:14.271Z</time></trkpt><trkpt lat="43.5251613" lon="12.7314237"><ele>480.0</ele><time>2026-04-18T09:11:15.271Z</time></trkpt><trkpt lat="43.5251701" lon="12.73125"><ele>480.0</ele><time>2026-04-18T09:11:16.27Z</time></trkpt><trkpt lat="43.5251698" lon="12.7310792"><ele>480.0</ele><time>2026-04-18T09:11:17.271Z</time></trkpt><trkpt lat="43.5251458" lon="12.7309262"><ele>482.0</ele><time>2026-04-18T09:11:18.27Z</time></trkpt><trkpt lat="43.5250846" lon="12.730815"><ele>484.0</ele><time>2026-04-18T09:11:19.271Z</time></trkpt><trkpt lat="43.5249927" lon="12.730728"><ele>486.0</ele><time>2026-04-18T09:11:20.271Z</time></trkpt><trkpt lat="43.5248804" lon="12.7306615"><ele>488.0</ele><time>2026-04-18T09:11:21.27Z</time></trkpt><trkpt lat="43.5247529" lon="12.7306161"><ele>488.0</ele><time>2026-04-18T09:11:22.271Z</time></trkpt><trkpt lat="43.5246241" lon="12.7305918"><ele>488.0</ele><time>2026-04-18T09:11:23.271Z</time></trkpt><trkpt lat="43.5244999" lon="12.7305755"><ele>488.0</ele><time>2026-04-18T09:11:24.27Z</time></trkpt><trkpt lat="43.5243862" lon="12.7305465"><ele>488.0</ele><time>2026-04-18T09:11:25.27Z</time></trkpt><trkpt lat="43.5242767" lon="12.7305004"><ele>487.5</ele><time>2026-04-18T09:11:26.27Z</time></trkpt><trkpt lat="43.5241699" lon="12.7304294"><ele>487.0</ele><time>2026-04-18T09:11:27.27Z</time></trkpt><trkpt lat="43.5240741" lon="12.7303304"><ele>486.5</ele><time>2026-04-18T09:11:28.27Z</time></trkpt><trkpt lat="43.5239916" lon="12.7302027"><ele>486.0</ele><time>2026-04-18T09:11:29.27Z</time></trkpt><trkpt lat="43.5239173" lon="12.7300575"><ele>485.25</ele><time>2026-04-18T09:11:30.27Z</time></trkpt><trkpt lat="43.5238445" lon="12.7299117"><ele>484.5</ele><time>2026-04-18T09:11:31.271Z</time></trkpt><trkpt lat="43.5237722" lon="12.7297618"><ele>483.75</ele><time>2026-04-18T09:11:32.27Z</time></trkpt><trkpt lat="43.5237025" lon="12.7296076"><ele>483.0</ele><time>2026-04-18T09:11:33.27Z</time></trkpt><trkpt lat="43.5236392" lon="12.7294493"><ele>485.75</ele><time>2026-04-18T09:11:34.27Z</time></trkpt><trkpt lat="43.5235795" lon="12.7292865"><ele>488.5</ele><time>2026-04-18T09:11:35.27Z</time></trkpt><trkpt lat="43.5235171" lon="12.729128"><ele>491.25</ele><time>2026-04-18T09:11:36.271Z</time></trkpt><trkpt lat="43.523448" lon="12.7289807"><ele>494.0</ele><time>2026-04-18T09:11:37.27Z</time></trkpt><trkpt lat="43.5233531" lon="12.7288722"><ele>494.0</ele><time>2026-04-18T09:11:38.27Z</time></trkpt><trkpt lat="43.5232269" lon="12.7288067"><ele>494.0</ele><time>2026-04-18T09:11:39.27Z</time></trkpt><trkpt lat="43.5230839" lon="12.7287802"><ele>494.0</ele><time>2026-04-18T09:11:40.27Z</time></trkpt><trkpt lat="43.5229303" lon="12.7287782"><ele>494.0</ele><time>2026-04-18T09:11:41.271Z</time></trkpt><trkpt lat="43.5227704" lon="12.7287998"><ele>491.3333333333333</ele><time>2026-04-18T09:11:42.27Z</time></trkpt><trkpt lat="43.5226099" lon="12.7288379"><ele>488.66666666666663</ele><time>2026-04-18T09:11:43.271Z</time></trkpt><trkpt lat="43.5224558" lon="12.7288687"><ele>486.0</ele><time>2026-04-18T09:11:44.271Z</time></trkpt><trkpt lat="43.5223074" lon="12.7288842"><ele>486.0</ele><time>2026-04-18T09:11:45.27Z</time></trkpt><trkpt lat="43.5221571" lon="12.728886"><ele>486.0</ele><time>2026-04-18T09:11:46.27Z</time></trkpt><trkpt lat="43.5220048" lon="12.7288674"><ele>486.0</ele><time>2026-04-18T09:11:47.271Z</time></trkpt><trkpt lat="43.5218505" lon="12.7288405"><ele>486.5</ele><time>2026-04-18T09:11:48.271Z</time></trkpt><trkpt lat="43.5216942" lon="12.7288183"><ele>487.0</ele><time>2026-04-18T09:11:49.27Z</time></trkpt><trkpt lat="43.5215517" lon="12.7287915"><ele>487.5</ele><time>2026-04-18T09:11:50.271Z</time></trkpt><trkpt lat="43.521414" lon="12.7287621"><ele>488.0</ele><time>2026-04-18T09:11:51.27Z</time></trkpt><trkpt lat="43.5212864" lon="12.7287298"><ele>488.0</ele><time>2026-04-18T09:11:52.271Z</time></trkpt><trkpt lat="43.5211667" lon="12.7286713"><ele>488.0</ele><time>2026-04-18T09:11:53.271Z</time></trkpt><trkpt lat="43.5210564" lon="12.728569"><ele>488.0</ele><time>2026-04-18T09:11:54.27Z</time></trkpt><trkpt lat="43.5209568" lon="12.7284399"><ele>488.0</ele><time>2026-04-18T09:11:55.27Z</time></trkpt><trkpt lat="43.5208599" lon="12.7282956"><ele>488.0</ele><time>2026-04-18T09:11:56.271Z</time></trkpt><trkpt lat="43.5207601" lon="12.7281658"><ele>488.0</ele><time>2026-04-18T09:11:57.27Z</time></trkpt><trkpt lat="43.5206589" lon="12.7280591"><ele>488.0</ele><time>2026-04-18T09:11:58.27Z</time></trkpt><trkpt lat="43.5205645" lon="12.7279656"><ele>488.0</ele><time>2026-04-18T09:11:59.27Z</time></trkpt><trkpt lat="43.5204784" lon="12.7278819"><ele>487.4</ele><time>2026-04-18T09:12:00.271Z</time></trkpt><trkpt lat="43.5203912" lon="12.7278099"><ele>486.79999999999995</ele><time>2026-04-18T09:12:01.27Z</time></trkpt><trkpt lat="43.5202967" lon="12.7277475"><ele>486.2</ele><time>2026-04-18T09:12:02.27Z</time></trkpt><trkpt lat="43.5201925" lon="12.7277217"><ele>485.6</ele><time>2026-04-18T09:12:03.27Z</time></trkpt><trkpt lat="43.5200717" lon="12.7277356"><ele>485.0</ele><time>2026-04-18T09:12:04.27Z</time></trkpt><trkpt lat="43.5199668" lon="12.7277673"><ele>485.0</ele><time>2026-04-18T09:12:05.27Z</time></trkpt><trkpt lat="43.5198663" lon="12.7278107"><ele>485.0</ele><time>2026-04-18T09:12:06.27Z</time></trkpt><trkpt lat="43.519771" lon="12.7278668"><ele>485.0</ele><time>2026-04-18T09:12:07.271Z</time></trkpt><trkpt lat="43.5196658" lon="12.7279212"><ele>485.0</ele><time>2026-04-18T09:12:08.27Z</time></trkpt><trkpt lat="43.5195623" lon="12.727968"><ele>485.0</ele><time>2026-04-18T09:12:09.27Z</time></trkpt><trkpt lat="43.5194592" lon="12.7280214"><ele>484.2</ele><time>2026-04-18T09:12:10.271Z</time></trkpt><trkpt lat="43.5193566" lon="12.7280815"><ele>483.4</ele><time>2026-04-18T09:12:11.27Z</time></trkpt><trkpt lat="43.5192483" lon="12.7281336"><ele>482.6</ele><time>2026-04-18T09:12:12.27Z</time></trkpt><trkpt lat="43.5191418" lon="12.7281788"><ele>481.8</ele><time>2026-04-18T09:12:13.27Z</time></trkpt><trkpt lat="43.5190371" lon="12.7281923"><ele>481.0</ele><time>2026-04-18T09:12:14.27Z</time></trkpt><trkpt lat="43.5189431" lon="12.728155"><ele>481.0</ele><time>2026-04-18T09:12:15.271Z</time></trkpt><trkpt lat="43.5188808" lon="12.7280614"><ele>481.0</ele><time>2026-04-18T09:12:16.271Z</time></trkpt><trkpt lat="43.5188342" lon="12.7279638"><ele>481.0</ele><time>2026-04-18T09:12:17.27Z</time></trkpt><trkpt lat="43.5188327" lon="12.7278116"><ele>481.0</ele><time>2026-04-18T09:12:18.27Z</time></trkpt><trkpt lat="43.5188082" lon="12.7276835"><ele>481.0</ele><time>2026-04-18T09:12:19.271Z</time></trkpt><trkpt lat="43.5187881" lon="12.7275557"><ele>481.20000000000005</ele><time>2026-04-18T09:12:20.27Z</time></trkpt><trkpt lat="43.5187615" lon="12.7274262"><ele>481.40000000000003</ele><time>2026-04-18T09:12:21.27Z</time></trkpt><trkpt lat="43.5187253" lon="12.7272906"><ele>481.6</ele><time>2026-04-18T09:12:22.27Z</time></trkpt><trkpt lat="43.5186995" lon="12.7271536"><ele>481.8</ele><time>2026-04-18T09:12:23.271Z</time></trkpt><trkpt lat="43.518625" lon="12.7270037"><ele>482.0</ele><time>2026-04-18T09:12:24.271Z</time></trkpt><trkpt lat="43.5185705" lon="12.7268542"><ele>488.0</ele><time>2026-04-18T09:12:25.27Z</time></trkpt><trkpt lat="43.5184655" lon="12.7266909"><ele>494.0</ele><time>2026-04-18T09:12:26.271Z</time></trkpt><trkpt lat="43.5183877" lon="12.7265383"><ele>500.0</ele><time>2026-04-18T09:12:27.27Z</time></trkpt><trkpt lat="43.518311" lon="12.7263974"><ele>506.0</ele><time>2026-04-18T09:12:28.271Z</time></trkpt><trkpt lat="43.5182469" lon="12.7262737"><ele>505.99999999999994</ele><time>2026-04-18T09:12:29.27Z</time></trkpt><trkpt lat="43.5181896" lon="12.7261658"><ele>506.0</ele><time>2026-04-18T09:12:30.27Z</time></trkpt><trkpt lat="43.5181456" lon="12.7260677"><ele>506.0</ele><time>2026-04-18T09:12:31.271Z</time></trkpt><trkpt lat="43.5181" lon="12.7259949"><ele>506.0</ele><time>2026-04-18T09:12:32.27Z</time></trkpt><trkpt lat="43.5179952" lon="12.7260251"><ele>505.99999999999994</ele><time>2026-04-18T09:12:34.27Z</time></trkpt><trkpt lat="43.5179857" lon="12.7261114"><ele>506.0</ele><time>2026-04-18T09:12:35.271Z</time></trkpt><trkpt lat="43.5180096" lon="12.7262336"><ele>506.0</ele><time>2026-04-18T09:12:36.271Z</time></trkpt><trkpt lat="43.5180414" lon="12.7263924"><ele>506.0</ele><time>2026-04-18T09:12:37.27Z</time></trkpt><trkpt lat="43.5180618" lon="12.7265834"><ele>506.0</ele><time>2026-04-18T09:12:38.27Z</time></trkpt><trkpt lat="43.518077" lon="12.7267476"><ele>506.0</ele><time>2026-04-18T09:12:39.271Z</time></trkpt><trkpt lat="43.5180904" lon="12.7269115"><ele>507.4</ele><time>2026-04-18T09:12:40.27Z</time></trkpt><trkpt lat="43.5180855" lon="12.7270632"><ele>508.8</ele><time>2026-04-18T09:12:41.27Z</time></trkpt><trkpt lat="43.5180652" lon="12.7272078"><ele>510.19999999999993</ele><time>2026-04-18T09:12:42.27Z</time></trkpt><trkpt lat="43.5180356" lon="12.7273545"><ele>511.59999999999997</ele><time>2026-04-18T09:12:43.27Z</time></trkpt><trkpt lat="43.5180005" lon="12.727501"><ele>513.0</ele><time>2026-04-18T09:12:44.271Z</time></trkpt><trkpt lat="43.5179539" lon="12.7276462"><ele>523.5</ele><time>2026-04-18T09:12:45.27Z</time></trkpt><trkpt lat="43.5179013" lon="12.7277896"><ele>534.0</ele><time>2026-04-18T09:12:46.27Z</time></trkpt><trkpt lat="43.5178398" lon="12.7279333"><ele>544.5</ele><time>2026-04-18T09:12:47.271Z</time></trkpt><trkpt lat="43.5177684" lon="12.7280813"><ele>555.0</ele><time>2026-04-18T09:12:48.27Z</time></trkpt><trkpt lat="43.5176987" lon="12.7282463"><ele>555.0</ele><time>2026-04-18T09:12:49.27Z</time></trkpt><trkpt lat="43.5176188" lon="12.7284155"><ele>555.0</ele><time>2026-04-18T09:12:50.271Z</time></trkpt><trkpt lat="43.5175386" lon="12.7285853"><ele>555.0</ele><time>2026-04-18T09:12:51.271Z</time></trkpt><trkpt lat="43.5174703" lon="12.7287551"><ele>555.0</ele><time>2026-04-18T09:12:52.271Z</time></trkpt><trkpt lat="43.5173923" lon="12.7288968"><ele>553.0</ele><time>2026-04-18T09:12:53.27Z</time></trkpt><trkpt lat="43.5173204" lon="12.7290261"><ele>551.0</ele><time>2026-04-18T09:12:54.27Z</time></trkpt><trkpt lat="43.5172453" lon="12.7291455"><ele>549.0</ele><time>2026-04-18T09:12:55.27Z</time></trkpt><trkpt lat="43.5171763" lon="12.7292535"><ele>547.0</ele><time>2026-04-18T09:12:56.27Z</time></trkpt><trkpt lat="43.5171012" lon="12.729354"><ele>545.0</ele><time>2026-04-18T09:12:57.27Z</time></trkpt><trkpt lat="43.5170257" lon="12.7294471"><ele>545.0</ele><time>2026-04-18T09:12:58.27Z</time></trkpt><trkpt lat="43.5169305" lon="12.7295091"><ele>545.0</ele><time>2026-04-18T09:12:59.27Z</time></trkpt><trkpt lat="43.516838" lon="12.7295587"><ele>545.0</ele><time>2026-04-18T09:13:00.271Z</time></trkpt><trkpt lat="43.5167447" lon="12.7295985"><ele>545.0</ele><time>2026-04-18T09:13:01.271Z</time></trkpt><trkpt lat="43.5166385" lon="12.7296027"><ele>545.0</ele><time>2026-04-18T09:13:02.27Z</time></trkpt><trkpt lat="43.5165608" lon="12.7295648"><ele>545.0</ele><time>2026-04-18T09:13:03.27Z</time></trkpt><trkpt lat="43.5165021" lon="12.7294985"><ele>545.0</ele><time>2026-04-18T09:13:04.27Z</time></trkpt><trkpt lat="43.5164555" lon="12.7293978"><ele>545.0</ele><time>2026-04-18T09:13:05.271Z</time></trkpt><trkpt lat="43.5164103" lon="12.7292787"><ele>545.0</ele><time>2026-04-18T09:13:06.27Z</time></trkpt><trkpt lat="43.5163756" lon="12.729148"><ele>545.0</ele><time>2026-04-18T09:13:07.27Z</time></trkpt><trkpt lat="43.5163597" lon="12.7290182"><ele>548.2</ele><time>2026-04-18T09:13:08.271Z</time></trkpt><trkpt lat="43.5163801" lon="12.7288855"><ele>551.4</ele><time>2026-04-18T09:13:09.271Z</time></trkpt><trkpt lat="43.5164294" lon="12.7287766"><ele>554.6</ele><time>2026-04-18T09:13:10.27Z</time></trkpt><trkpt lat="43.5164899" lon="12.7286897"><ele>557.8</ele><time>2026-04-18T09:13:11.27Z</time></trkpt><trkpt lat="43.5165595" lon="12.7286162"><ele>561.0</ele><time>2026-04-18T09:13:12.271Z</time></trkpt><trkpt lat="43.5166323" lon="12.7285451"><ele>561.0</ele><time>2026-04-18T09:13:13.271Z</time></trkpt><trkpt lat="43.5167062" lon="12.7284763"><ele>561.0</ele><time>2026-04-18T09:13:14.271Z</time></trkpt><trkpt lat="43.5167754" lon="12.7284261"><ele>561.0</ele><time>2026-04-18T09:13:15.27Z</time></trkpt><trkpt lat="43.5168396" lon="12.7283707"><ele>561.0</ele><time>2026-04-18T09:13:16.27Z</time></trkpt><trkpt lat="43.5168998" lon="12.7283147"><ele>561.0</ele><time>2026-04-18T09:13:17.27Z</time></trkpt><trkpt lat="43.5169517" lon="12.7282638"><ele>561.0</ele><time>2026-04-18T09:13:18.27Z</time></trkpt><trkpt lat="43.5169991" lon="12.7282056"><ele>561.0</ele><time>2026-04-18T09:13:19.27Z</time></trkpt><trkpt lat="43.5170511" lon="12.7281392"><ele>560.3333333333334</ele><time>2026-04-18T09:13:20.27Z</time></trkpt><trkpt lat="43.5170914" lon="12.7280667"><ele>559.6666666666666</ele><time>2026-04-18T09:13:21.271Z</time></trkpt><trkpt lat="43.517131" lon="12.7279878"><ele>559.0</ele><time>2026-04-18T09:13:22.271Z</time></trkpt><trkpt lat="43.5171649" lon="12.7279052"><ele>558.3333333333333</ele><time>2026-04-18T09:13:23.271Z</time></trkpt><trkpt lat="43.5171921" lon="12.7278218"><ele>557.6666666666666</ele><time>2026-04-18T09:13:24.27Z</time></trkpt><trkpt lat="43.5172142" lon="12.7277367"><ele>557.0</ele><time>2026-04-18T09:13:25.27Z</time></trkpt><trkpt lat="43.517253" lon="12.7275728"><ele>557.0</ele><time>2026-04-18T09:13:27.271Z</time></trkpt><trkpt lat="43.5172784" lon="12.7274263"><ele>557.0</ele><time>2026-04-18T09:13:29.271Z</time></trkpt><trkpt lat="43.5173047" lon="12.7273388"><ele>557.0</ele><time>2026-04-18T09:13:31.27Z</time></trkpt><trkpt lat="43.5173623" lon="12.7273037"><ele>557.0</ele><time>2026-04-18T09:13:34.27Z</time></trkpt><trkpt lat="43.5174372" lon="12.7272999"><ele>557.0</ele><time>2026-04-18T09:13:37.271Z</time></trkpt><trkpt lat="43.5174122" lon="12.7272196"><ele>557.0</ele><time>2026-04-18T09:13:41.27Z</time></trkpt><trkpt lat="43.5173374" lon="12.727262"><ele>557.0</ele><time>2026-04-18T10:03:59.285Z</time></trkpt><trkpt lat="43.517275" lon="12.7272971"><ele>557.0</ele><time>2026-04-18T10:04:01.284Z</time></trkpt><trkpt lat="43.5172034" lon="12.7273545"><ele>557.0</ele><time>2026-04-18T10:04:03.285Z</time></trkpt><trkpt lat="43.5171255" lon="12.727479"><ele>557.0</ele><time>2026-04-18T10:04:05.284Z</time></trkpt><trkpt lat="43.5170983" lon="12.7275611"><ele>557.0</ele><time>2026-04-18T10:04:06.285Z</time></trkpt><trkpt lat="43.5170676" lon="12.7276491"><ele>557.0</ele><time>2026-04-18T10:04:07.284Z</time></trkpt><trkpt lat="43.5170303" lon="12.7277385"><ele>557.8000000000001</ele><time>2026-04-18T10:04:08.285Z</time></trkpt><trkpt lat="43.5169825" lon="12.7278285"><ele>558.6</ele><time>2026-04-18T10:04:09.284Z</time></trkpt><trkpt lat="43.516921" lon="12.7279278"><ele>559.4000000000001</ele><time>2026-04-18T10:04:10.285Z</time></trkpt><trkpt lat="43.5168644" lon="12.728027"><ele>560.2</ele><time>2026-04-18T10:04:11.285Z</time></trkpt><trkpt lat="43.5167993" lon="12.7281308"><ele>561.0</ele><time>2026-04-18T10:04:12.284Z</time></trkpt><trkpt lat="43.5167438" lon="12.7282268"><ele>561.0</ele><time>2026-04-18T10:04:13.284Z</time></trkpt><trkpt lat="43.5166865" lon="12.7283223"><ele>561.0</ele><time>2026-04-18T10:04:14.285Z</time></trkpt><trkpt lat="43.5166269" lon="12.7284109"><ele>561.0</ele><time>2026-04-18T10:04:15.285Z</time></trkpt><trkpt lat="43.5165708" lon="12.7284829"><ele>561.0</ele><time>2026-04-18T10:04:16.284Z</time></trkpt><trkpt lat="43.5165181" lon="12.7285557"><ele>561.0</ele><time>2026-04-18T10:04:17.284Z</time></trkpt><trkpt lat="43.5164581" lon="12.728637"><ele>561.0</ele><time>2026-04-18T10:04:18.285Z</time></trkpt><trkpt lat="43.5164033" lon="12.7287246"><ele>562.6666666666666</ele><time>2026-04-18T10:04:19.285Z</time></trkpt><trkpt lat="43.516357" lon="12.7288133"><ele>564.3333333333334</ele><time>2026-04-18T10:04:20.285Z</time></trkpt><trkpt lat="43.5163309" lon="12.728912"><ele>566.0</ele><time>2026-04-18T10:04:21.284Z</time></trkpt><trkpt lat="43.5163331" lon="12.7290154"><ele>567.6666666666667</ele><time>2026-04-18T10:04:22.285Z</time></trkpt><trkpt lat="43.5163484" lon="12.7291136"><ele>569.3333333333334</ele><time>2026-04-18T10:04:23.285Z</time></trkpt><trkpt lat="43.5163746" lon="12.7292099"><ele>571.0</ele><time>2026-04-18T10:04:24.285Z</time></trkpt><trkpt lat="43.5164029" lon="12.7293059"><ele>566.6666666666667</ele><time>2026-04-18T10:04:25.284Z</time></trkpt><trkpt lat="43.5164372" lon="12.7294034"><ele>562.3333333333334</ele><time>2026-04-18T10:04:26.284Z</time></trkpt><trkpt lat="43.5164785" lon="12.7294993"><ele>558.0</ele><time>2026-04-18T10:04:27.284Z</time></trkpt><trkpt lat="43.516524" lon="12.729575"><ele>553.6666666666666</ele><time>2026-04-18T10:04:28.284Z</time></trkpt><trkpt lat="43.5166003" lon="12.7296114"><ele>549.3333333333333</ele><time>2026-04-18T10:04:29.284Z</time></trkpt><trkpt lat="43.5166845" lon="12.7296159"><ele>545.0</ele><time>2026-04-18T10:04:30.284Z</time></trkpt><trkpt lat="43.5167814" lon="12.7295748"><ele>545.0</ele><time>2026-04-18T10:04:31.285Z</time></trkpt><trkpt lat="43.5168713" lon="12.7295256"><ele>545.0</ele><time>2026-04-18T10:04:32.284Z</time></trkpt><trkpt lat="43.516964" lon="12.7294643"><ele>545.0</ele><time>2026-04-18T10:04:33.284Z</time></trkpt><trkpt lat="43.517051" lon="12.7293903"><ele>545.0</ele><time>2026-04-18T10:04:34.284Z</time></trkpt><trkpt lat="43.5171269" lon="12.7292991"><ele>545.0</ele><time>2026-04-18T10:04:35.284Z</time></trkpt><trkpt lat="43.517202" lon="12.7291959"><ele>544.25</ele><time>2026-04-18T10:04:36.284Z</time></trkpt><trkpt lat="43.5172822" lon="12.7290779"><ele>543.5</ele><time>2026-04-18T10:04:37.284Z</time></trkpt><trkpt lat="43.5173632" lon="12.7289451"><ele>542.75</ele><time>2026-04-18T10:04:38.284Z</time></trkpt><trkpt lat="43.5174359" lon="12.7288059"><ele>542.0</ele><time>2026-04-18T10:04:39.285Z</time></trkpt><trkpt lat="43.5175094" lon="12.728669"><ele>545.25</ele><time>2026-04-18T10:04:40.284Z</time></trkpt><trkpt lat="43.5175782" lon="12.7285246"><ele>548.5</ele><time>2026-04-18T10:04:41.284Z</time></trkpt><trkpt lat="43.5176468" lon="12.7283801"><ele>551.75</ele><time>2026-04-18T10:04:42.284Z</time></trkpt><trkpt lat="43.5177148" lon="12.7282384"><ele>555.0</ele><time>2026-04-18T10:04:43.285Z</time></trkpt><trkpt lat="43.5177893" lon="12.7280942"><ele>555.0</ele><time>2026-04-18T10:04:44.285Z</time></trkpt><trkpt lat="43.5178587" lon="12.7279559"><ele>555.0</ele><time>2026-04-18T10:04:45.284Z</time></trkpt><trkpt lat="43.5179217" lon="12.7277998"><ele>555.0</ele><time>2026-04-18T10:04:46.285Z</time></trkpt><trkpt lat="43.5179814" lon="12.7276551"><ele>555.0</ele><time>2026-04-18T10:04:47.285Z</time></trkpt><trkpt lat="43.5180286" lon="12.7275093"><ele>544.5</ele><time>2026-04-18T10:04:48.285Z</time></trkpt><trkpt lat="43.5180659" lon="12.727357"><ele>534.0</ele><time>2026-04-18T10:04:49.285Z</time></trkpt><trkpt lat="43.5180978" lon="12.7272027"><ele>523.5</ele><time>2026-04-18T10:04:50.284Z</time></trkpt><trkpt lat="43.518111" lon="12.7270193"><ele>513.0</ele><time>2026-04-18T10:04:51.285Z</time></trkpt><trkpt lat="43.518109" lon="12.7268307"><ele>511.59999999999997</ele><time>2026-04-18T10:04:52.284Z</time></trkpt><trkpt lat="43.5180959" lon="12.7266599"><ele>510.19999999999993</ele><time>2026-04-18T10:04:53.284Z</time></trkpt><trkpt lat="43.5180718" lon="12.7265027"><ele>508.8</ele><time>2026-04-18T10:04:54.285Z</time></trkpt><trkpt lat="43.5180483" lon="12.7263722"><ele>507.4</ele><time>2026-04-18T10:04:55.285Z</time></trkpt><trkpt lat="43.5180164" lon="12.726253"><ele>506.0</ele><time>2026-04-18T10:04:56.284Z</time></trkpt><trkpt lat="43.5179902" lon="12.7261607"><ele>506.0</ele><time>2026-04-18T10:04:57.284Z</time></trkpt><trkpt lat="43.5180296" lon="12.7260259"><ele>506.0</ele><time>2026-04-18T10:04:59.285Z</time></trkpt><trkpt lat="43.518125" lon="12.7260966"><ele>506.0</ele><time>2026-04-18T10:05:01.284Z</time></trkpt><trkpt lat="43.5181874" lon="12.7262014"><ele>506.0</ele><time>2026-04-18T10:05:02.284Z</time></trkpt><trkpt lat="43.5182487" lon="12.7263126"><ele>506.0</ele><time>2026-04-18T10:05:03.285Z</time></trkpt><trkpt lat="43.5183168" lon="12.7264315"><ele>506.0</ele><time>2026-04-18T10:05:04.285Z</time></trkpt><trkpt lat="43.5183925" lon="12.7265655"><ele>506.0</ele><time>2026-04-18T10:05:05.284Z</time></trkpt><trkpt lat="43.5184665" lon="12.7266999"><ele>506.0</ele><time>2026-04-18T10:05:06.285Z</time></trkpt><trkpt lat="43.5185382" lon="12.7268412"><ele>506.0</ele><time>2026-04-18T10:05:07.284Z</time></trkpt><trkpt lat="43.5186093" lon="12.7269864"><ele>507.75</ele><time>2026-04-18T10:05:08.285Z</time></trkpt><trkpt lat="43.5186723" lon="12.7271535"><ele>509.5</ele><time>2026-04-18T10:05:09.285Z</time></trkpt><trkpt lat="43.5187192" lon="12.7273273"><ele>511.25</ele><time>2026-04-18T10:05:10.285Z</time></trkpt><trkpt lat="43.5187528" lon="12.7274992"><ele>513.0</ele><time>2026-04-18T10:05:11.285Z</time></trkpt><trkpt lat="43.5187758" lon="12.7276728"><ele>506.59999999999997</ele><time>2026-04-18T10:05:12.285Z</time></trkpt><trkpt lat="43.5187994" lon="12.727834"><ele>500.19999999999993</ele><time>2026-04-18T10:05:13.284Z</time></trkpt><trkpt lat="43.5188189" lon="12.7279787"><ele>493.8</ele><time>2026-04-18T10:05:14.285Z</time></trkpt><trkpt lat="43.5188612" lon="12.7281025"><ele>487.4</ele><time>2026-04-18T10:05:15.284Z</time></trkpt><trkpt lat="43.5189348" lon="12.7281893"><ele>481.0</ele><time>2026-04-18T10:05:16.284Z</time></trkpt><trkpt lat="43.5190298" lon="12.7282316"><ele>481.0</ele><time>2026-04-18T10:05:17.284Z</time></trkpt><trkpt lat="43.5191412" lon="12.7282029"><ele>481.0</ele><time>2026-04-18T10:05:18.284Z</time></trkpt><trkpt lat="43.5192318" lon="12.7281643"><ele>481.0</ele><time>2026-04-18T10:05:19.285Z</time></trkpt><trkpt lat="43.5193168" lon="12.7281173"><ele>481.0</ele><time>2026-04-18T10:05:20.285Z</time></trkpt><trkpt lat="43.5193974" lon="12.7280773"><ele>481.0</ele><time>2026-04-18T10:05:21.284Z</time></trkpt><trkpt lat="43.5194592" lon="12.7280376"><ele>481.0</ele><time>2026-04-18T10:05:22.285Z</time></trkpt><trkpt lat="43.519554" lon="12.7279816"><ele>481.0</ele><time>2026-04-18T10:05:24.284Z</time></trkpt><trkpt lat="43.5195504" lon="12.7280945"><ele>481.0</ele><time>2026-04-18T10:05:27.284Z</time></trkpt><trkpt lat="43.5194435" lon="12.7281838"><ele>481.0</ele><time>2026-04-18T10:05:29.285Z</time></trkpt><trkpt lat="43.519365" lon="12.7282435"><ele>481.0</ele><time>2026-04-18T10:05:30.285Z</time></trkpt><trkpt lat="43.5192824" lon="12.7283156"><ele>481.0</ele><time>2026-04-18T10:05:31.285Z</time></trkpt><trkpt lat="43.5192015" lon="12.7284063"><ele>481.0</ele><time>2026-04-18T10:05:32.284Z</time></trkpt><trkpt lat="43.5191214" lon="12.7285152"><ele>481.0</ele><time>2026-04-18T10:05:33.284Z</time></trkpt><trkpt lat="43.5190519" lon="12.7286519"><ele>481.0</ele><time>2026-04-18T10:05:34.285Z</time></trkpt><trkpt lat="43.5189776" lon="12.7287944"><ele>480.75</ele><time>2026-04-18T10:05:35.285Z</time></trkpt><trkpt lat="43.5189132" lon="12.7289377"><ele>480.5</ele><time>2026-04-18T10:05:36.285Z</time></trkpt><trkpt lat="43.5188471" lon="12.7290879"><ele>480.25</ele><time>2026-04-18T10:05:37.284Z</time></trkpt><trkpt lat="43.5187857" lon="12.7292505"><ele>480.0</ele><time>2026-04-18T10:05:38.285Z</time></trkpt><trkpt lat="43.518728" lon="12.7294191"><ele>480.0</ele><time>2026-04-18T10:05:39.285Z</time></trkpt><trkpt lat="43.5186744" lon="12.7295874"><ele>480.0</ele><time>2026-04-18T10:05:40.284Z</time></trkpt><trkpt lat="43.5186225" lon="12.72975"><ele>480.0</ele><time>2026-04-18T10:05:41.284Z</time></trkpt><trkpt lat="43.5185821" lon="12.729918"><ele>480.0</ele><time>2026-04-18T10:05:42.284Z</time></trkpt><trkpt lat="43.5185461" lon="12.7300884"><ele>478.25</ele><time>2026-04-18T10:05:43.284Z</time></trkpt><trkpt lat="43.5185256" lon="12.7302728"><ele>476.5</ele><time>2026-04-18T10:05:44.284Z</time></trkpt><trkpt lat="43.5185101" lon="12.7304567"><ele>474.75</ele><time>2026-04-18T10:05:45.284Z</time></trkpt><trkpt lat="43.5184833" lon="12.7306371"><ele>473.0</ele><time>2026-04-18T10:05:46.284Z</time></trkpt><trkpt lat="43.5184396" lon="12.7308156"><ele>473.0</ele><time>2026-04-18T10:05:47.284Z</time></trkpt><trkpt lat="43.5183805" lon="12.7309837"><ele>473.0</ele><time>2026-04-18T10:05:48.284Z</time></trkpt><trkpt lat="43.5182929" lon="12.7311384"><ele>473.0</ele><time>2026-04-18T10:05:49.285Z</time></trkpt><trkpt lat="43.5181886" lon="12.7312841"><ele>473.0</ele><time>2026-04-18T10:05:50.285Z</time></trkpt><trkpt lat="43.5180699" lon="12.7314194"><ele>472.0</ele><time>2026-04-18T10:05:51.285Z</time></trkpt><trkpt lat="43.5179467" lon="12.7315384"><ele>471.0</ele><time>2026-04-18T10:05:52.284Z</time></trkpt><trkpt lat="43.517826" lon="12.7316648"><ele>470.0</ele><time>2026-04-18T10:05:53.285Z</time></trkpt><trkpt lat="43.5177066" lon="12.7317865"><ele>465.25</ele><time>2026-04-18T10:05:54.284Z</time></trkpt><trkpt lat="43.517597" lon="12.7319168"><ele>460.5</ele><time>2026-04-18T10:05:55.285Z</time></trkpt><trkpt lat="43.5175024" lon="12.732049"><ele>455.75</ele><time>2026-04-18T10:05:56.284Z</time></trkpt><trkpt lat="43.5174253" lon="12.7321898"><ele>451.0</ele><time>2026-04-18T10:05:57.285Z</time></trkpt><trkpt lat="43.5173606" lon="12.7323578"><ele>451.0</ele><time>2026-04-18T10:05:58.285Z</time></trkpt><trkpt lat="43.5173227" lon="12.7325406"><ele>451.0</ele><time>2026-04-18T10:05:59.284Z</time></trkpt><trkpt lat="43.5172981" lon="12.7327128"><ele>451.0</ele><time>2026-04-18T10:06:00.285Z</time></trkpt><trkpt lat="43.5172718" lon="12.7328747"><ele>451.0</ele><time>2026-04-18T10:06:01.284Z</time></trkpt><trkpt lat="43.5172223" lon="12.7330265"><ele>450.75</ele><time>2026-04-18T10:06:02.284Z</time></trkpt><trkpt lat="43.5171393" lon="12.7331552"><ele>450.5</ele><time>2026-04-18T10:06:03.284Z</time></trkpt><trkpt lat="43.5170239" lon="12.7332465"><ele>450.25</ele><time>2026-04-18T10:06:04.284Z</time></trkpt><trkpt lat="43.5169072" lon="12.7333307"><ele>450.0</ele><time>2026-04-18T10:06:05.284Z</time></trkpt><trkpt lat="43.5167921" lon="12.7334128"><ele>451.0</ele><time>2026-04-18T10:06:06.284Z</time></trkpt><trkpt lat="43.5166818" lon="12.7334918"><ele>452.0</ele><time>2026-04-18T10:06:07.285Z</time></trkpt><trkpt lat="43.5165798" lon="12.7335796"><ele>453.0</ele><time>2026-04-18T10:06:08.285Z</time></trkpt><trkpt lat="43.5164839" lon="12.7336568"><ele>454.0</ele><time>2026-04-18T10:06:09.284Z</time></trkpt><trkpt lat="43.5163978" lon="12.7337274"><ele>454.0</ele><time>2026-04-18T10:06:10.285Z</time></trkpt><trkpt lat="43.5163231" lon="12.7337814"><ele>454.0</ele><time>2026-04-18T10:06:11.285Z</time></trkpt><trkpt lat="43.5162491" lon="12.7338043"><ele>454.0</ele><time>2026-04-18T10:06:12.285Z</time></trkpt><trkpt lat="43.5161814" lon="12.7337708"><ele>454.0</ele><time>2026-04-18T10:06:13.284Z</time></trkpt><trkpt lat="43.5161714" lon="12.7335798"><ele>454.0</ele><time>2026-04-18T10:06:15.284Z</time></trkpt><trkpt lat="43.5162168" lon="12.7334703"><ele>452.33333333333337</ele><time>2026-04-18T10:06:16.284Z</time></trkpt><trkpt lat="43.5162584" lon="12.733369"><ele>450.6666666666667</ele><time>2026-04-18T10:06:17.285Z</time></trkpt><trkpt lat="43.51626" lon="12.7332649"><ele>449.0</ele><time>2026-04-18T10:06:18.285Z</time></trkpt><trkpt lat="43.5162125" lon="12.7331832"><ele>447.33333333333337</ele><time>2026-04-18T10:06:19.284Z</time></trkpt><trkpt lat="43.5161317" lon="12.7331453"><ele>445.6666666666667</ele><time>2026-04-18T10:06:20.285Z</time></trkpt><trkpt lat="43.5160224" lon="12.7331374"><ele>444.0</ele><time>2026-04-18T10:06:21.284Z</time></trkpt><trkpt lat="43.5158958" lon="12.7331654"><ele>441.5</ele><time>2026-04-18T10:06:22.285Z</time></trkpt><trkpt lat="43.5157654" lon="12.7331894"><ele>439.0</ele><time>2026-04-18T10:06:23.285Z</time></trkpt><trkpt lat="43.5156419" lon="12.7331856"><ele>436.5</ele><time>2026-04-18T10:06:24.284Z</time></trkpt><trkpt lat="43.515516" lon="12.7331847"><ele>434.0</ele><time>2026-04-18T10:06:25.285Z</time></trkpt><trkpt lat="43.5153917" lon="12.7331619"><ele>432.6</ele><time>2026-04-18T10:06:26.284Z</time></trkpt><trkpt lat="43.5152877" lon="12.7331181"><ele>431.2</ele><time>2026-04-18T10:06:27.284Z</time></trkpt><trkpt lat="43.515202" lon="12.733031"><ele>429.80000000000007</ele><time>2026-04-18T10:06:28.285Z</time></trkpt><trkpt lat="43.5151384" lon="12.7329066"><ele>428.40000000000003</ele><time>2026-04-18T10:06:29.284Z</time></trkpt><trkpt lat="43.51509" lon="12.7327659"><ele>427.0</ele><time>2026-04-18T10:06:30.285Z</time></trkpt><trkpt lat="43.5150619" lon="12.7326106"><ele>427.0</ele><time>2026-04-18T10:06:31.284Z</time></trkpt><trkpt lat="43.51501" lon="12.7324685"><ele>427.0</ele><time>2026-04-18T10:06:32.285Z</time></trkpt><trkpt lat="43.514938" lon="12.7323322"><ele>427.0</ele><time>2026-04-18T10:06:33.284Z</time></trkpt><trkpt lat="43.5148521" lon="12.732198"><ele>427.0</ele><time>2026-04-18T10:06:34.285Z</time></trkpt><trkpt lat="43.5147658" lon="12.7320663"><ele>427.0</ele><time>2026-04-18T10:06:35.284Z</time></trkpt><trkpt lat="43.5146743" lon="12.7319385"><ele>427.0</ele><time>2026-04-18T10:06:36.285Z</time></trkpt><trkpt lat="43.5145815" lon="12.73181"><ele>427.0</ele><time>2026-04-18T10:06:37.284Z</time></trkpt><trkpt lat="43.5144912" lon="12.7316827"><ele>427.0</ele><time>2026-04-18T10:06:38.284Z</time></trkpt><trkpt lat="43.5143935" lon="12.7315906"><ele>424.75</ele><time>2026-04-18T10:06:39.284Z</time></trkpt><trkpt lat="43.5143054" lon="12.7314603"><ele>422.5</ele><time>2026-04-18T10:06:40.285Z</time></trkpt><trkpt lat="43.5142196" lon="12.7313282"><ele>420.25</ele><time>2026-04-18T10:06:41.285Z</time></trkpt><trkpt lat="43.5141397" lon="12.731201"><ele>418.0</ele><time>2026-04-18T10:06:42.284Z</time></trkpt><trkpt lat="43.5140568" lon="12.731087"><ele>420.0</ele><time>2026-04-18T10:06:43.284Z</time></trkpt><trkpt lat="43.5139803" lon="12.7309749"><ele>422.0</ele><time>2026-04-18T10:06:44.285Z</time></trkpt><trkpt lat="43.5139073" lon="12.7308724"><ele>423.99999999999994</ele><time>2026-04-18T10:06:45.285Z</time></trkpt><trkpt lat="43.5138437" lon="12.7307848"><ele>426.0</ele><time>2026-04-18T10:06:46.285Z</time></trkpt><trkpt lat="43.5137897" lon="12.7307092"><ele>428.0</ele><time>2026-04-18T10:06:47.285Z</time></trkpt><trkpt lat="43.5137412" lon="12.7306358"><ele>427.2</ele><time>2026-04-18T10:06:48.285Z</time></trkpt><trkpt lat="43.5136813" lon="12.7305422"><ele>426.4</ele><time>2026-04-18T10:06:50.285Z</time></trkpt><trkpt lat="43.5136183" lon="12.7304269"><ele>425.59999999999997</ele><time>2026-04-18T10:06:57.285Z</time></trkpt><trkpt lat="43.5135605" lon="12.7303814"><ele>424.79999999999995</ele><time>2026-04-18T10:06:58.284Z</time></trkpt><trkpt lat="43.5134538" lon="12.7303385"><ele>424.0</ele><time>2026-04-18T10:07:00.285Z</time></trkpt><trkpt lat="43.5134099" lon="12.7301959"><ele>424.00000000000006</ele><time>2026-04-18T10:07:02.284Z</time></trkpt><trkpt lat="43.5134297" lon="12.7301061"><ele>424.0</ele><time>2026-04-18T10:07:03.285Z</time></trkpt><trkpt lat="43.5134669" lon="12.7300091"><ele>424.0</ele><time>2026-04-18T10:07:04.284Z</time></trkpt><trkpt lat="43.5135028" lon="12.729895"><ele>424.0</ele><time>2026-04-18T10:07:05.284Z</time></trkpt><trkpt lat="43.5135429" lon="12.7297794"><ele>424.00000000000006</ele><time>2026-04-18T10:07:06.284Z</time></trkpt><trkpt lat="43.5135893" lon="12.7296468"><ele>424.0</ele><time>2026-04-18T10:07:07.285Z</time></trkpt><trkpt lat="43.5136341" lon="12.7295145"><ele>424.5</ele><time>2026-04-18T10:07:08.284Z</time></trkpt><trkpt lat="43.5136674" lon="12.729379"><ele>425.0</ele><time>2026-04-18T10:07:09.284Z</time></trkpt><trkpt lat="43.5136743" lon="12.7292221"><ele>425.5</ele><time>2026-04-18T10:07:10.284Z</time></trkpt><trkpt lat="43.5136511" lon="12.729068"><ele>426.0</ele><time>2026-04-18T10:07:11.285Z</time></trkpt><trkpt lat="43.5135928" lon="12.7289266"><ele>426.0</ele><time>2026-04-18T10:07:12.285Z</time></trkpt><trkpt lat="43.5135386" lon="12.728788"><ele>426.0</ele><time>2026-04-18T10:07:13.285Z</time></trkpt><trkpt lat="43.513491" lon="12.7286681"><ele>426.0</ele><time>2026-04-18T10:07:14.284Z</time></trkpt><trkpt lat="43.5134467" lon="12.7285614"><ele>426.0</ele><time>2026-04-18T10:07:15.285Z</time></trkpt><trkpt lat="43.5134085" lon="12.7284693"><ele>426.0</ele><time>2026-04-18T10:07:16.284Z</time></trkpt><trkpt lat="43.5133689" lon="12.7283825"><ele>426.0</ele><time>2026-04-18T10:07:17.284Z</time></trkpt><trkpt lat="43.513309" lon="12.7283519"><ele>426.0</ele><time>2026-04-18T10:07:18.284Z</time></trkpt><trkpt lat="43.5132067" lon="12.7284397"><ele>426.0</ele><time>2026-04-18T10:07:20.284Z</time></trkpt><trkpt lat="43.5131514" lon="12.7285386"><ele>426.0</ele><time>2026-04-18T10:07:21.285Z</time></trkpt><trkpt lat="43.5130965" lon="12.7286623"><ele>426.0</ele><time>2026-04-18T10:07:22.285Z</time></trkpt><trkpt lat="43.5130394" lon="12.7287834"><ele>426.0</ele><time>2026-04-18T10:07:23.285Z</time></trkpt><trkpt lat="43.5129818" lon="12.7289214"><ele>426.0</ele><time>2026-04-18T10:07:24.284Z</time></trkpt><trkpt lat="43.5129289" lon="12.7290739"><ele>426.0</ele><time>2026-04-18T10:07:25.284Z</time></trkpt><trkpt lat="43.5128784" lon="12.7292304"><ele>426.0</ele><time>2026-04-18T10:07:26.284Z</time></trkpt><trkpt lat="43.5128299" lon="12.7293863"><ele>425.75</ele><time>2026-04-18T10:07:27.285Z</time></trkpt><trkpt lat="43.5127888" lon="12.7295448"><ele>425.5</ele><time>2026-04-18T10:07:28.284Z</time></trkpt><trkpt lat="43.5127481" lon="12.7297141"><ele>425.25</ele><time>2026-04-18T10:07:29.285Z</time></trkpt><trkpt lat="43.5127083" lon="12.7298897"><ele>425.0</ele><time>2026-04-18T10:07:30.285Z</time></trkpt><trkpt lat="43.5126652" lon="12.7300689"><ele>424.75</ele><time>2026-04-18T10:07:31.285Z</time></trkpt><trkpt lat="43.5126212" lon="12.7302597"><ele>424.5</ele><time>2026-04-18T10:07:32.284Z</time></trkpt><trkpt lat="43.512579" lon="12.7304462"><ele>424.25</ele><time>2026-04-18T10:07:33.284Z</time></trkpt><trkpt lat="43.5125376" lon="12.7306264"><ele>424.0</ele><time>2026-04-18T10:07:34.285Z</time></trkpt><trkpt lat="43.5124951" lon="12.7307997"><ele>424.0</ele><time>2026-04-18T10:07:35.285Z</time></trkpt><trkpt lat="43.5124524" lon="12.7309733"><ele>424.0</ele><time>2026-04-18T10:07:36.284Z</time></trkpt><trkpt lat="43.5124071" lon="12.7311508"><ele>424.0</ele><time>2026-04-18T10:07:37.285Z</time></trkpt><trkpt lat="43.5123676" lon="12.7313311"><ele>424.0</ele><time>2026-04-18T10:07:38.284Z</time></trkpt><trkpt lat="43.5123291" lon="12.7315122"><ele>423.0</ele><time>2026-04-18T10:07:39.285Z</time></trkpt><trkpt lat="43.51229" lon="12.7316916"><ele>422.0</ele><time>2026-04-18T10:07:40.284Z</time></trkpt><trkpt lat="43.5122515" lon="12.7318673"><ele>421.0</ele><time>2026-04-18T10:07:41.285Z</time></trkpt><trkpt lat="43.5122208" lon="12.7320532"><ele>420.0</ele><time>2026-04-18T10:07:42.284Z</time></trkpt><trkpt lat="43.5121889" lon="12.7322336"><ele>419.75</ele><time>2026-04-18T10:07:43.284Z</time></trkpt><trkpt lat="43.5121657" lon="12.7324158"><ele>419.5</ele><time>2026-04-18T10:07:44.284Z</time></trkpt><trkpt lat="43.5121498" lon="12.7326029"><ele>419.25</ele><time>2026-04-18T10:07:45.284Z</time></trkpt><trkpt lat="43.5121399" lon="12.7327945"><ele>419.0</ele><time>2026-04-18T10:07:46.284Z</time></trkpt><trkpt lat="43.5121348" lon="12.732982"><ele>419.25</ele><time>2026-04-18T10:07:47.284Z</time></trkpt><trkpt lat="43.5121374" lon="12.7331703"><ele>419.5</ele><time>2026-04-18T10:07:48.284Z</time></trkpt><trkpt lat="43.5121517" lon="12.7333521"><ele>419.75</ele><time>2026-04-18T10:07:49.285Z</time></trkpt><trkpt lat="43.5121669" lon="12.7335387"><ele>420.0</ele><time>2026-04-18T10:07:50.285Z</time></trkpt><trkpt lat="43.5121971" lon="12.7337232"><ele>420.0</ele><time>2026-04-18T10:07:51.285Z</time></trkpt><trkpt lat="43.5122248" lon="12.7339078"><ele>420.0</ele><time>2026-04-18T10:07:52.285Z</time></trkpt><trkpt lat="43.512276" lon="12.7340912"><ele>420.0</ele><time>2026-04-18T10:07:53.284Z</time></trkpt><trkpt lat="43.5123284" lon="12.7342661"><ele>420.0</ele><time>2026-04-18T10:07:54.284Z</time></trkpt><trkpt lat="43.512386" lon="12.734432"><ele>421.0</ele><time>2026-04-18T10:07:55.285Z</time></trkpt><trkpt lat="43.5124415" lon="12.7346022"><ele>422.0</ele><time>2026-04-18T10:07:56.284Z</time></trkpt><trkpt lat="43.5124952" lon="12.734776"><ele>423.0</ele><time>2026-04-18T10:07:57.284Z</time></trkpt><trkpt lat="43.5125608" lon="12.7349485"><ele>424.0</ele><time>2026-04-18T10:07:58.284Z</time></trkpt><trkpt lat="43.5126241" lon="12.7351188"><ele>427.0</ele><time>2026-04-18T10:07:59.285Z</time></trkpt><trkpt lat="43.5126927" lon="12.7352856"><ele>430.0</ele><time>2026-04-18T10:08:00.285Z</time></trkpt><trkpt lat="43.5127553" lon="12.7354484"><ele>433.0</ele><time>2026-04-18T10:08:01.284Z</time></trkpt><trkpt lat="43.512825" lon="12.7356209"><ele>436.0</ele><time>2026-04-18T10:08:02.285Z</time></trkpt><trkpt lat="43.5128861" lon="12.7357864"><ele>432.75</ele><time>2026-04-18T10:08:03.284Z</time></trkpt><trkpt lat="43.5129436" lon="12.7359442"><ele>429.5</ele><time>2026-04-18T10:08:04.284Z</time></trkpt><trkpt lat="43.5129966" lon="12.7360819"><ele>426.25</ele><time>2026-04-18T10:08:05.284Z</time></trkpt><trkpt lat="43.5130512" lon="12.7362195"><ele>423.0</ele><time>2026-04-18T10:08:06.285Z</time></trkpt><trkpt lat="43.5131061" lon="12.7363506"><ele>423.0</ele><time>2026-04-18T10:08:07.284Z</time></trkpt><trkpt lat="43.5131555" lon="12.7364845"><ele>423.0</ele><time>2026-04-18T10:08:08.285Z</time></trkpt><trkpt lat="43.5132073" lon="12.7366281"><ele>423.0</ele><time>2026-04-18T10:08:09.284Z</time></trkpt><trkpt lat="43.5132567" lon="12.736783"><ele>423.0</ele><time>2026-04-18T10:08:10.284Z</time></trkpt><trkpt lat="43.5133111" lon="12.7369464"><ele>422.25</ele><time>2026-04-18T10:08:11.285Z</time></trkpt><trkpt lat="43.5133658" lon="12.7371064"><ele>421.5</ele><time>2026-04-18T10:08:12.285Z</time></trkpt><trkpt lat="43.5134187" lon="12.7372686"><ele>420.75</ele><time>2026-04-18T10:08:13.284Z</time></trkpt><trkpt lat="43.5134702" lon="12.7374161"><ele>420.0</ele><time>2026-04-18T10:08:14.284Z</time></trkpt><trkpt lat="43.5135184" lon="12.7375474"><ele>420.0</ele><time>2026-04-18T10:08:15.284Z</time></trkpt><trkpt lat="43.5135659" lon="12.7376705"><ele>420.0</ele><time>2026-04-18T10:08:16.284Z</time></trkpt><trkpt lat="43.5136149" lon="12.7377983"><ele>420.0</ele><time>2026-04-18T10:08:17.285Z</time></trkpt><trkpt lat="43.5136615" lon="12.7379118"><ele>420.0</ele><time>2026-04-18T10:08:18.284Z</time></trkpt><trkpt lat="43.513717" lon="12.7380058"><ele>420.0</ele><time>2026-04-18T10:08:19.285Z</time></trkpt><trkpt lat="43.5137741" lon="12.7380893"><ele>418.8333333333333</ele><time>2026-04-18T10:08:20.284Z</time></trkpt><trkpt lat="43.5138278" lon="12.7381594"><ele>417.66666666666663</ele><time>2026-04-18T10:08:21.284Z</time></trkpt><trkpt lat="43.5138802" lon="12.7382596"><ele>416.5</ele><time>2026-04-18T10:08:23.285Z</time></trkpt><trkpt lat="43.5139018" lon="12.7383631"><ele>415.3333333333333</ele><time>2026-04-18T10:08:25.285Z</time></trkpt><trkpt lat="43.5139031" lon="12.73845"><ele>414.16666666666663</ele><time>2026-04-18T10:08:27.285Z</time></trkpt><trkpt lat="43.5139139" lon="12.7385626"><ele>413.0</ele><time>2026-04-18T10:08:30.285Z</time></trkpt><trkpt lat="43.5139779" lon="12.738562"><ele>413.0</ele><time>2026-04-18T10:08:34.285Z</time></trkpt><trkpt lat="43.5139533" lon="12.7384472"><ele>413.0</ele><time>2026-04-18T10:08:37.285Z</time></trkpt><trkpt lat="43.5139508" lon="12.7383591"><ele>413.0</ele><time>2026-04-18T10:08:39.304Z</time></trkpt><trkpt lat="43.5140117" lon="12.7382625"><ele>413.0</ele><time>2026-04-18T10:08:41.288Z</time></trkpt><trkpt lat="43.5141136" lon="12.7382653"><ele>413.0</ele><time>2026-04-18T10:08:43.284Z</time></trkpt><trkpt lat="43.5141949" lon="12.7383859"><ele>412.99999999999994</ele><time>2026-04-18T10:08:45.284Z</time></trkpt><trkpt lat="43.5142244" lon="12.7384757"><ele>413.0</ele><time>2026-04-18T10:08:46.284Z</time></trkpt><trkpt lat="43.5142514" lon="12.7385655"><ele>413.0</ele><time>2026-04-18T10:08:47.284Z</time></trkpt><trkpt lat="43.5142852" lon="12.7386624"><ele>413.0</ele><time>2026-04-18T10:08:48.284Z</time></trkpt><trkpt lat="43.5143266" lon="12.7387735"><ele>412.99999999999994</ele><time>2026-04-18T10:08:49.285Z</time></trkpt><trkpt lat="43.5143699" lon="12.7388959"><ele>413.0</ele><time>2026-04-18T10:08:50.285Z</time></trkpt><trkpt lat="43.5144121" lon="12.7390169"><ele>412.79999999999995</ele><time>2026-04-18T10:08:51.284Z</time></trkpt><trkpt lat="43.5144518" lon="12.7391333"><ele>412.6</ele><time>2026-04-18T10:08:52.284Z</time></trkpt><trkpt lat="43.5144943" lon="12.7392606"><ele>412.4</ele><time>2026-04-18T10:08:53.285Z</time></trkpt><trkpt lat="43.5145406" lon="12.7393993"><ele>412.20000000000005</ele><time>2026-04-18T10:08:54.285Z</time></trkpt><trkpt lat="43.5145919" lon="12.739546"><ele>412.0</ele><time>2026-04-18T10:08:55.285Z</time></trkpt><trkpt lat="43.5146428" lon="12.7397034"><ele>411.75</ele><time>2026-04-18T10:08:56.284Z</time></trkpt><trkpt lat="43.5146949" lon="12.7398657"><ele>411.5</ele><time>2026-04-18T10:08:57.285Z</time></trkpt><trkpt lat="43.5147509" lon="12.7400246"><ele>411.25</ele><time>2026-04-18T10:08:58.284Z</time></trkpt><trkpt lat="43.5148052" lon="12.7401877"><ele>411.0</ele><time>2026-04-18T10:08:59.284Z</time></trkpt><trkpt lat="43.5148592" lon="12.7403536"><ele>410.5</ele><time>2026-04-18T10:09:00.284Z</time></trkpt><trkpt lat="43.5149124" lon="12.7405185"><ele>410.0</ele><time>2026-04-18T10:09:01.285Z</time></trkpt><trkpt lat="43.5149655" lon="12.7406861"><ele>409.5</ele><time>2026-04-18T10:09:02.285Z</time></trkpt><trkpt lat="43.5150219" lon="12.7408509"><ele>409.0</ele><time>2026-04-18T10:09:03.285Z</time></trkpt><trkpt lat="43.5150775" lon="12.7410187"><ele>408.75</ele><time>2026-04-18T10:09:04.284Z</time></trkpt><trkpt lat="43.5151347" lon="12.7411853"><ele>408.5</ele><time>2026-04-18T10:09:05.284Z</time></trkpt><trkpt lat="43.5151891" lon="12.741353"><ele>408.25</ele><time>2026-04-18T10:09:06.285Z</time></trkpt><trkpt lat="43.5152438" lon="12.7415225"><ele>408.0</ele><time>2026-04-18T10:09:07.285Z</time></trkpt><trkpt lat="43.5153034" lon="12.7416941"><ele>408.0</ele><time>2026-04-18T10:09:08.284Z</time></trkpt><trkpt lat="43.5153645" lon="12.7418692"><ele>408.0</ele><time>2026-04-18T10:09:09.284Z</time></trkpt><trkpt lat="43.5154232" lon="12.7420404"><ele>408.0</ele><time>2026-04-18T10:09:10.285Z</time></trkpt><trkpt lat="43.5154839" lon="12.7422156"><ele>408.0</ele><time>2026-04-18T10:09:11.284Z</time></trkpt><trkpt lat="43.515547" lon="12.7423962"><ele>407.66666666666663</ele><time>2026-04-18T10:09:12.284Z</time></trkpt><trkpt lat="43.5156105" lon="12.7425793"><ele>407.3333333333333</ele><time>2026-04-18T10:09:13.284Z</time></trkpt><trkpt lat="43.5156759" lon="12.7427743"><ele>407.0</ele><time>2026-04-18T10:09:14.284Z</time></trkpt><trkpt lat="43.5157397" lon="12.7429629"><ele>406.75</ele><time>2026-04-18T10:09:15.284Z</time></trkpt><trkpt lat="43.5158037" lon="12.7431411"><ele>406.5</ele><time>2026-04-18T10:09:16.284Z</time></trkpt><trkpt lat="43.5158635" lon="12.7433038"><ele>406.25</ele><time>2026-04-18T10:09:17.284Z</time></trkpt><trkpt lat="43.5159263" lon="12.7434452"><ele>406.0</ele><time>2026-04-18T10:09:18.285Z</time></trkpt><trkpt lat="43.5159962" lon="12.7435706"><ele>406.0</ele><time>2026-04-18T10:09:19.284Z</time></trkpt><trkpt lat="43.5160755" lon="12.7436892"><ele>406.0</ele><time>2026-04-18T10:09:20.284Z</time></trkpt><trkpt lat="43.516147" lon="12.7438011"><ele>406.0</ele><time>2026-04-18T10:09:21.285Z</time></trkpt><trkpt lat="43.5162039" lon="12.7438938"><ele>406.0</ele><time>2026-04-18T10:09:22.285Z</time></trkpt><trkpt lat="43.516247" lon="12.7439639"><ele>406.0</ele><time>2026-04-18T10:09:23.284Z</time></trkpt><trkpt lat="43.5163214" lon="12.7440761"><ele>405.1666666666667</ele><time>2026-04-18T10:09:25.285Z</time></trkpt><trkpt lat="43.5163898" lon="12.7441716"><ele>404.33333333333337</ele><time>2026-04-18T10:09:27.284Z</time></trkpt><trkpt lat="43.5164507" lon="12.7442225"><ele>403.5</ele><time>2026-04-18T10:09:29.285Z</time></trkpt><trkpt lat="43.5165118" lon="12.7441526"><ele>402.66666666666663</ele><time>2026-04-18T10:09:32.284Z</time></trkpt><trkpt lat="43.5164626" lon="12.7440664"><ele>401.8333333333333</ele><time>2026-04-18T10:09:38.285Z</time></trkpt><trkpt lat="43.5163989" lon="12.7440369"><ele>401.0</ele><time>2026-04-18T10:12:52.284Z</time></trkpt><trkpt lat="43.516327" lon="12.7439759"><ele>400.99999999999994</ele><time>2026-04-18T10:12:58.284Z</time></trkpt><trkpt lat="43.5162452" lon="12.7438786"><ele>401.0</ele><time>2026-04-18T10:13:00.284Z</time></trkpt><trkpt lat="43.516192" lon="12.7438032"><ele>401.0</ele><time>2026-04-18T10:13:01.284Z</time></trkpt><trkpt lat="43.5161488" lon="12.743735"><ele>401.0</ele><time>2026-04-18T10:13:02.284Z</time></trkpt><trkpt lat="43.5160997" lon="12.7436553"><ele>400.99999999999994</ele><time>2026-04-18T10:13:03.284Z</time></trkpt><trkpt lat="43.5160476" lon="12.7435663"><ele>401.0</ele><time>2026-04-18T10:13:04.284Z</time></trkpt><trkpt lat="43.5159906" lon="12.7434756"><ele>401.8</ele><time>2026-04-18T10:13:05.284Z</time></trkpt><trkpt lat="43.5159367" lon="12.7433661"><ele>402.6</ele><time>2026-04-18T10:13:06.284Z</time></trkpt><trkpt lat="43.5158901" lon="12.7432462"><ele>403.4</ele><time>2026-04-18T10:13:07.284Z</time></trkpt><trkpt lat="43.5158474" lon="12.7431284"><ele>404.2</ele><time>2026-04-18T10:13:08.284Z</time></trkpt><trkpt lat="43.5158056" lon="12.7429978"><ele>405.0</ele><time>2026-04-18T10:13:09.284Z</time></trkpt><trkpt lat="43.5157592" lon="12.7428583"><ele>405.0</ele><time>2026-04-18T10:13:10.284Z</time></trkpt><trkpt lat="43.5157116" lon="12.7427157"><ele>405.0</ele><time>2026-04-18T10:13:11.285Z</time></trkpt><trkpt lat="43.515662" lon="12.7425673"><ele>405.0</ele><time>2026-04-18T10:13:12.285Z</time></trkpt><trkpt lat="43.5156068" lon="12.7424111"><ele>405.0</ele><time>2026-04-18T10:13:13.285Z</time></trkpt><trkpt lat="43.5155496" lon="12.7422451"><ele>405.5</ele><time>2026-04-18T10:13:14.285Z</time></trkpt><trkpt lat="43.5154988" lon="12.7420849"><ele>406.0</ele><time>2026-04-18T10:13:15.284Z</time></trkpt><trkpt lat="43.515448" lon="12.7419294"><ele>406.5</ele><time>2026-04-18T10:13:16.285Z</time></trkpt><trkpt lat="43.5153913" lon="12.7417608"><ele>407.0</ele><time>2026-04-18T10:13:17.284Z</time></trkpt><trkpt lat="43.5153328" lon="12.7415874"><ele>407.25</ele><time>2026-04-18T10:13:18.284Z</time></trkpt><trkpt lat="43.5152715" lon="12.7414153"><ele>407.5</ele><time>2026-04-18T10:13:19.284Z</time></trkpt><trkpt lat="43.5152072" lon="12.7412347"><ele>407.75</ele><time>2026-04-18T10:13:20.285Z</time></trkpt><trkpt lat="43.5151442" lon="12.741062"><ele>408.0</ele><time>2026-04-18T10:13:21.284Z</time></trkpt><trkpt lat="43.5150809" lon="12.7408822"><ele>408.25</ele><time>2026-04-18T10:13:22.284Z</time></trkpt><trkpt lat="43.5150174" lon="12.7406989"><ele>408.5</ele><time>2026-04-18T10:13:23.284Z</time></trkpt><trkpt lat="43.5149564" lon="12.7405119"><ele>408.75</ele><time>2026-04-18T10:13:24.285Z</time></trkpt><trkpt lat="43.5148924" lon="12.7403269"><ele>409.0</ele><time>2026-04-18T10:13:25.284Z</time></trkpt><trkpt lat="43.5148284" lon="12.7401482"><ele>409.5</ele><time>2026-04-18T10:13:26.284Z</time></trkpt><trkpt lat="43.5147609" lon="12.7399729"><ele>410.0</ele><time>2026-04-18T10:13:27.284Z</time></trkpt><trkpt lat="43.514706" lon="12.7398107"><ele>410.5</ele><time>2026-04-18T10:13:28.285Z</time></trkpt><trkpt lat="43.5146481" lon="12.739653"><ele>411.0</ele><time>2026-04-18T10:13:29.284Z</time></trkpt><trkpt lat="43.5145889" lon="12.7394852"><ele>411.25</ele><time>2026-04-18T10:13:30.284Z</time></trkpt><trkpt lat="43.5145317" lon="12.7393172"><ele>411.5</ele><time>2026-04-18T10:13:31.284Z</time></trkpt><trkpt lat="43.5144754" lon="12.7391448"><ele>411.75</ele><time>2026-04-18T10:13:32.284Z</time></trkpt><trkpt lat="43.5144201" lon="12.7389858"><ele>412.0</ele><time>2026-04-18T10:13:33.285Z</time></trkpt><trkpt lat="43.5143684" lon="12.7388427"><ele>412.0</ele><time>2026-04-18T10:13:34.285Z</time></trkpt><trkpt lat="43.5143235" lon="12.7387146"><ele>412.0</ele><time>2026-04-18T10:13:35.285Z</time></trkpt><trkpt lat="43.514275" lon="12.7385906"><ele>412.0</ele><time>2026-04-18T10:13:36.284Z</time></trkpt><trkpt lat="43.5142356" lon="12.738482"><ele>412.0</ele><time>2026-04-18T10:13:37.284Z</time></trkpt><trkpt lat="43.5142001" lon="12.7383923"><ele>412.0</ele><time>2026-04-18T10:13:38.285Z</time></trkpt><trkpt lat="43.5141416" lon="12.7382344"><ele>412.20000000000005</ele><time>2026-04-18T10:13:40.284Z</time></trkpt><trkpt lat="43.5141142" lon="12.7381435"><ele>412.4</ele><time>2026-04-18T10:13:41.284Z</time></trkpt><trkpt lat="43.5140525" lon="12.738005"><ele>412.6</ele><time>2026-04-18T10:13:43.284Z</time></trkpt><trkpt lat="43.5139542" lon="12.738002"><ele>412.79999999999995</ele><time>2026-04-18T10:13:45.284Z</time></trkpt><trkpt lat="43.5139114" lon="12.7381669"><ele>413.0</ele><time>2026-04-18T10:13:47.284Z</time></trkpt><trkpt lat="43.513909" lon="12.7382853"><ele>413.0</ele><time>2026-04-18T10:13:48.285Z</time></trkpt><trkpt lat="43.5139088" lon="12.7384184"><ele>413.0</ele><time>2026-04-18T10:13:49.284Z</time></trkpt><trkpt lat="43.5139175" lon="12.7385645"><ele>413.0</ele><time>2026-04-18T10:13:50.284Z</time></trkpt><trkpt lat="43.5139321" lon="12.7387144"><ele>413.0</ele><time>2026-04-18T10:13:51.284Z</time></trkpt><trkpt lat="43.5139473" lon="12.7388765"><ele>413.0</ele><time>2026-04-18T10:13:52.284Z</time></trkpt><trkpt lat="43.5139638" lon="12.7390425"><ele>412.75</ele><time>2026-04-18T10:13:53.284Z</time></trkpt><trkpt lat="43.5139795" lon="12.7392122"><ele>412.5</ele><time>2026-04-18T10:13:54.284Z</time></trkpt><trkpt lat="43.5139922" lon="12.7393707"><ele>412.25</ele><time>2026-04-18T10:13:55.284Z</time></trkpt><trkpt lat="43.5140048" lon="12.7395305"><ele>412.0</ele><time>2026-04-18T10:13:56.284Z</time></trkpt><trkpt lat="43.5140166" lon="12.7396957"><ele>413.0</ele><time>2026-04-18T10:13:57.284Z</time></trkpt><trkpt lat="43.5140298" lon="12.7398643"><ele>414.0</ele><time>2026-04-18T10:13:58.284Z</time></trkpt><trkpt lat="43.5140427" lon="12.7400235"><ele>415.0</ele><time>2026-04-18T10:13:59.284Z</time></trkpt><trkpt lat="43.5140576" lon="12.7401801"><ele>416.0</ele><time>2026-04-18T10:14:00.285Z</time></trkpt><trkpt lat="43.5140723" lon="12.7403474"><ele>416.5</ele><time>2026-04-18T10:14:01.284Z</time></trkpt><trkpt lat="43.5140896" lon="12.740518"><ele>417.0</ele><time>2026-04-18T10:14:02.284Z</time></trkpt><trkpt lat="43.5141046" lon="12.7406913"><ele>417.5</ele><time>2026-04-18T10:14:03.285Z</time></trkpt><trkpt lat="43.5141185" lon="12.7408628"><ele>418.0</ele><time>2026-04-18T10:14:04.284Z</time></trkpt><trkpt lat="43.5141365" lon="12.74104"><ele>418.0</ele><time>2026-04-18T10:14:05.285Z</time></trkpt><trkpt lat="43.5141512" lon="12.7412243"><ele>418.0</ele><time>2026-04-18T10:14:06.284Z</time></trkpt><trkpt lat="43.5141645" lon="12.7413992"><ele>418.0</ele><time>2026-04-18T10:14:07.285Z</time></trkpt><trkpt lat="43.5141766" lon="12.7415665"><ele>418.0</ele><time>2026-04-18T10:14:08.285Z</time></trkpt><trkpt lat="43.5141769" lon="12.7417456"><ele>418.25</ele><time>2026-04-18T10:14:09.285Z</time></trkpt><trkpt lat="43.5141664" lon="12.741918"><ele>418.5</ele><time>2026-04-18T10:14:10.284Z</time></trkpt><trkpt lat="43.5141366" lon="12.7420896"><ele>418.75</ele><time>2026-04-18T10:14:11.284Z</time></trkpt><trkpt lat="43.5140968" lon="12.7422671"><ele>419.0</ele><time>2026-04-18T10:14:12.284Z</time></trkpt><trkpt lat="43.5140463" lon="12.7424429"><ele>419.0</ele><time>2026-04-18T10:14:13.284Z</time></trkpt><trkpt lat="43.513981" lon="12.7426183"><ele>419.0</ele><time>2026-04-18T10:14:14.284Z</time></trkpt><trkpt lat="43.5139079" lon="12.7428004"><ele>419.0</ele><time>2026-04-18T10:14:15.284Z</time></trkpt><trkpt lat="43.5138343" lon="12.7429932"><ele>419.3333333333333</ele><time>2026-04-18T10:14:16.284Z</time></trkpt><trkpt lat="43.5137647" lon="12.7431899"><ele>419.66666666666663</ele><time>2026-04-18T10:14:17.285Z</time></trkpt><trkpt lat="43.5136887" lon="12.7433906"><ele>420.0</ele><time>2026-04-18T10:14:18.285Z</time></trkpt><trkpt lat="43.5136126" lon="12.743596"><ele>425.33333333333337</ele><time>2026-04-18T10:14:19.284Z</time></trkpt><trkpt lat="43.5135347" lon="12.7437964"><ele>430.6666666666667</ele><time>2026-04-18T10:14:20.284Z</time></trkpt><trkpt lat="43.5134576" lon="12.7439984"><ele>436.0</ele><time>2026-04-18T10:14:21.284Z</time></trkpt><trkpt lat="43.5133782" lon="12.7442031"><ele>437.33333333333337</ele><time>2026-04-18T10:14:22.284Z</time></trkpt><trkpt lat="43.5132996" lon="12.7444117"><ele>438.66666666666663</ele><time>2026-04-18T10:14:23.285Z</time></trkpt><trkpt lat="43.513224" lon="12.7446201"><ele>440.0</ele><time>2026-04-18T10:14:24.284Z</time></trkpt><trkpt lat="43.5131488" lon="12.7448214"><ele>440.0</ele><time>2026-04-18T10:14:25.284Z</time></trkpt><trkpt lat="43.5130739" lon="12.7450181"><ele>440.0</ele><time>2026-04-18T10:14:26.284Z</time></trkpt><trkpt lat="43.5129989" lon="12.7452128"><ele>440.0</ele><time>2026-04-18T10:14:27.285Z</time></trkpt><trkpt lat="43.5129321" lon="12.7454092"><ele>445.66666666666663</ele><time>2026-04-18T10:14:28.284Z</time></trkpt><trkpt lat="43.5128811" lon="12.7456155"><ele>451.33333333333337</ele><time>2026-04-18T10:14:29.285Z</time></trkpt><trkpt lat="43.5128404" lon="12.7458315"><ele>457.0</ele><time>2026-04-18T10:14:30.285Z</time></trkpt><trkpt lat="43.512787" lon="12.7460477"><ele>458.33333333333337</ele><time>2026-04-18T10:14:31.285Z</time></trkpt><trkpt lat="43.5127207" lon="12.7462516"><ele>459.66666666666663</ele><time>2026-04-18T10:14:32.285Z</time></trkpt><trkpt lat="43.5126629" lon="12.7464532"><ele>461.0</ele><time>2026-04-18T10:14:33.284Z</time></trkpt><trkpt lat="43.5125688" lon="12.7466175"><ele>461.0</ele><time>2026-04-18T10:14:34.284Z</time></trkpt><trkpt lat="43.5124404" lon="12.7467483"><ele>461.0</ele><time>2026-04-18T10:14:35.284Z</time></trkpt><trkpt lat="43.5123005" lon="12.7468532"><ele>461.0</ele><time>2026-04-18T10:14:36.285Z</time></trkpt><trkpt lat="43.5121552" lon="12.7469517"><ele>458.0</ele><time>2026-04-18T10:14:37.284Z</time></trkpt><trkpt lat="43.512004" lon="12.7470374"><ele>455.0</ele><time>2026-04-18T10:14:38.285Z</time></trkpt><trkpt lat="43.5118417" lon="12.7470835"><ele>452.0</ele><time>2026-04-18T10:14:39.285Z</time></trkpt><trkpt lat="43.5116707" lon="12.7470723"><ele>452.0</ele><time>2026-04-18T10:14:40.284Z</time></trkpt><trkpt lat="43.5114927" lon="12.7470111"><ele>452.0</ele><time>2026-04-18T10:14:41.284Z</time></trkpt><trkpt lat="43.5113117" lon="12.7469433"><ele>452.0</ele><time>2026-04-18T10:14:42.284Z</time></trkpt><trkpt lat="43.5111347" lon="12.746887"><ele>450.66666666666663</ele><time>2026-04-18T10:14:43.285Z</time></trkpt><trkpt lat="43.5109635" lon="12.746832"><ele>449.33333333333337</ele><time>2026-04-18T10:14:44.285Z</time></trkpt><trkpt lat="43.5107985" lon="12.7467744"><ele>448.0</ele><time>2026-04-18T10:14:45.285Z</time></trkpt><trkpt lat="43.5106379" lon="12.7467142"><ele>448.0</ele><time>2026-04-18T10:14:46.285Z</time></trkpt><trkpt lat="43.510482" lon="12.7466575"><ele>448.0</ele><time>2026-04-18T10:14:47.284Z</time></trkpt><trkpt lat="43.5103259" lon="12.7465989"><ele>448.0</ele><time>2026-04-18T10:14:48.284Z</time></trkpt><trkpt lat="43.5101708" lon="12.7465375"><ele>444.33333333333337</ele><time>2026-04-18T10:14:49.284Z</time></trkpt><trkpt lat="43.5100201" lon="12.7464653"><ele>440.66666666666663</ele><time>2026-04-18T10:14:50.284Z</time></trkpt><trkpt lat="43.5098744" lon="12.7463767"><ele>437.0</ele><time>2026-04-18T10:14:51.284Z</time></trkpt><trkpt lat="43.5097299" lon="12.7462694"><ele>437.0</ele><time>2026-04-18T10:14:52.285Z</time></trkpt><trkpt lat="43.5095854" lon="12.7461527"><ele>437.0</ele><time>2026-04-18T10:14:53.284Z</time></trkpt><trkpt lat="43.50944" lon="12.7460364"><ele>437.0</ele><time>2026-04-18T10:14:54.285Z</time></trkpt><trkpt lat="43.5092976" lon="12.7459193"><ele>439.0</ele><time>2026-04-18T10:14:55.285Z</time></trkpt><trkpt lat="43.5091543" lon="12.7458053"><ele>441.0</ele><time>2026-04-18T10:14:56.285Z</time></trkpt><trkpt lat="43.5090114" lon="12.7456975"><ele>443.0</ele><time>2026-04-18T10:14:57.284Z</time></trkpt><trkpt lat="43.5088685" lon="12.7455869"><ele>438.3333333333333</ele><time>2026-04-18T10:14:58.285Z</time></trkpt><trkpt lat="43.5087257" lon="12.745472"><ele>433.66666666666663</ele><time>2026-04-18T10:14:59.285Z</time></trkpt><trkpt lat="43.5085831" lon="12.7453572"><ele>429.0</ele><time>2026-04-18T10:15:00.284Z</time></trkpt><trkpt lat="43.5084401" lon="12.7452453"><ele>432.66666666666663</ele><time>2026-04-18T10:15:01.284Z</time></trkpt><trkpt lat="43.5082988" lon="12.7451304"><ele>436.3333333333333</ele><time>2026-04-18T10:15:02.285Z</time></trkpt><trkpt lat="43.5081579" lon="12.7450128"><ele>440.0</ele><time>2026-04-18T10:15:03.285Z</time></trkpt><trkpt lat="43.5080203" lon="12.7449021"><ele>438.5</ele><time>2026-04-18T10:15:04.284Z</time></trkpt><trkpt lat="43.5078903" lon="12.7448004"><ele>437.0</ele><time>2026-04-18T10:15:05.284Z</time></trkpt><trkpt lat="43.5077671" lon="12.7447023"><ele>435.5</ele><time>2026-04-18T10:15:06.284Z</time></trkpt><trkpt lat="43.5076508" lon="12.744616"><ele>434.0</ele><time>2026-04-18T10:15:07.284Z</time></trkpt><trkpt lat="43.5075392" lon="12.7445532"><ele>434.0</ele><time>2026-04-18T10:15:08.284Z</time></trkpt><trkpt lat="43.5074273" lon="12.7445432"><ele>434.0</ele><time>2026-04-18T10:15:09.285Z</time></trkpt><trkpt lat="43.5073163" lon="12.7445992"><ele>434.0</ele><time>2026-04-18T10:15:10.284Z</time></trkpt><trkpt lat="43.5072133" lon="12.7446951"><ele>434.0</ele><time>2026-04-18T10:15:11.284Z</time></trkpt><trkpt lat="43.5071187" lon="12.7448031"><ele>436.0</ele><time>2026-04-18T10:15:12.284Z</time></trkpt><trkpt lat="43.5070311" lon="12.7449216"><ele>438.0</ele><time>2026-04-18T10:15:13.285Z</time></trkpt><trkpt lat="43.5069668" lon="12.7450693"><ele>440.0</ele><time>2026-04-18T10:15:14.285Z</time></trkpt><trkpt lat="43.5069446" lon="12.7452423"><ele>442.0</ele><time>2026-04-18T10:15:15.285Z</time></trkpt><trkpt lat="43.5069579" lon="12.7454168"><ele>443.75</ele><time>2026-04-18T10:15:16.285Z</time></trkpt><trkpt lat="43.5069913" lon="12.7455835"><ele>445.5</ele><time>2026-04-18T10:15:17.284Z</time></trkpt><trkpt lat="43.5070341" lon="12.7457498"><ele>447.25</ele><time>2026-04-18T10:15:18.284Z</time></trkpt><trkpt lat="43.5070792" lon="12.7459181"><ele>449.0</ele><time>2026-04-18T10:15:19.284Z</time></trkpt><trkpt lat="43.5071181" lon="12.746089"><ele>444.5</ele><time>2026-04-18T10:15:20.285Z</time></trkpt><trkpt lat="43.5071453" lon="12.7462649"><ele>440.0</ele><time>2026-04-18T10:15:21.284Z</time></trkpt><trkpt lat="43.5071612" lon="12.7464421"><ele>435.5</ele><time>2026-04-18T10:15:22.284Z</time></trkpt><trkpt lat="43.5071629" lon="12.7466271"><ele>431.0</ele><time>2026-04-18T10:15:23.284Z</time></trkpt><trkpt lat="43.5071685" lon="12.746823"><ele>431.0</ele><time>2026-04-18T10:15:24.284Z</time></trkpt><trkpt lat="43.5071737" lon="12.7470322"><ele>431.0</ele><time>2026-04-18T10:15:25.284Z</time></trkpt><trkpt lat="43.5071815" lon="12.747251"><ele>431.0</ele><time>2026-04-18T10:15:26.285Z</time></trkpt><trkpt lat="43.5071868" lon="12.7474762"><ele>431.0</ele><time>2026-04-18T10:15:27.284Z</time></trkpt><trkpt lat="43.5071853" lon="12.7476945"><ele>431.0</ele><time>2026-04-18T10:15:28.284Z</time></trkpt><trkpt lat="43.5071678" lon="12.7479176"><ele>431.0</ele><time>2026-04-18T10:15:29.284Z</time></trkpt><trkpt lat="43.5071322" lon="12.7481451"><ele>430.3333333333333</ele><time>2026-04-18T10:15:30.284Z</time></trkpt><trkpt lat="43.5070839" lon="12.7483812"><ele>429.66666666666663</ele><time>2026-04-18T10:15:31.284Z</time></trkpt><trkpt lat="43.507026" lon="12.7486154"><ele>429.0</ele><time>2026-04-18T10:15:32.284Z</time></trkpt><trkpt lat="43.5069601" lon="12.7488472"><ele>433.33333333333337</ele><time>2026-04-18T10:15:33.284Z</time></trkpt><trkpt lat="43.5068816" lon="12.7490714"><ele>437.6666666666667</ele><time>2026-04-18T10:15:34.284Z</time></trkpt><trkpt lat="43.506792" lon="12.7492845"><ele>442.0</ele><time>2026-04-18T10:15:35.285Z</time></trkpt><trkpt lat="43.5066923" lon="12.7494841"><ele>443.0</ele><time>2026-04-18T10:15:36.285Z</time></trkpt><trkpt lat="43.5065925" lon="12.7496875"><ele>444.0</ele><time>2026-04-18T10:15:37.284Z</time></trkpt><trkpt lat="43.5064899" lon="12.7498911"><ele>445.0</ele><time>2026-04-18T10:15:38.284Z</time></trkpt><trkpt lat="43.506387" lon="12.7500978"><ele>444.0</ele><time>2026-04-18T10:15:39.284Z</time></trkpt><trkpt lat="43.5062882" lon="12.7503011"><ele>443.0</ele><time>2026-04-18T10:15:40.284Z</time></trkpt><trkpt lat="43.5061921" lon="12.7505037"><ele>442.0</ele><time>2026-04-18T10:15:41.285Z</time></trkpt><trkpt lat="43.5060959" lon="12.7507077"><ele>446.33333333333337</ele><time>2026-04-18T10:15:42.284Z</time></trkpt><trkpt lat="43.5060006" lon="12.7509114"><ele>450.66666666666663</ele><time>2026-04-18T10:15:43.284Z</time></trkpt><trkpt lat="43.505917" lon="12.7511212"><ele>455.0</ele><time>2026-04-18T10:15:44.284Z</time></trkpt><trkpt lat="43.5058448" lon="12.7513386"><ele>455.0</ele><time>2026-04-18T10:15:45.285Z</time></trkpt><trkpt lat="43.5057782" lon="12.7515563"><ele>455.0</ele><time>2026-04-18T10:15:46.284Z</time></trkpt><trkpt lat="43.5057145" lon="12.7517698"><ele>455.0</ele><time>2026-04-18T10:15:47.285Z</time></trkpt><trkpt lat="43.5056536" lon="12.7519676"><ele>455.0</ele><time>2026-04-18T10:15:48.284Z</time></trkpt><trkpt lat="43.5055948" lon="12.7521489"><ele>455.0</ele><time>2026-04-18T10:15:49.284Z</time></trkpt><trkpt lat="43.505527" lon="12.7523191"><ele>455.0</ele><time>2026-04-18T10:15:50.285Z</time></trkpt><trkpt lat="43.5054338" lon="12.752473"><ele>455.0</ele><time>2026-04-18T10:15:51.284Z</time></trkpt><trkpt lat="43.5053158" lon="12.7526"><ele>457.0</ele><time>2026-04-18T10:15:52.284Z</time></trkpt><trkpt lat="43.505183" lon="12.7526924"><ele>459.0</ele><time>2026-04-18T10:15:53.285Z</time></trkpt><trkpt lat="43.5050369" lon="12.7527453"><ele>461.0</ele><time>2026-04-18T10:15:54.285Z</time></trkpt><trkpt lat="43.5048766" lon="12.7527751"><ele>461.0</ele><time>2026-04-18T10:15:55.284Z</time></trkpt><trkpt lat="43.5047089" lon="12.7527954"><ele>461.0</ele><time>2026-04-18T10:15:56.284Z</time></trkpt><trkpt lat="43.5045452" lon="12.7528244"><ele>461.0</ele><time>2026-04-18T10:15:57.284Z</time></trkpt><trkpt lat="43.504388" lon="12.7528788"><ele>463.0</ele><time>2026-04-18T10:15:58.284Z</time></trkpt><trkpt lat="43.5042338" lon="12.7529664"><ele>465.0</ele><time>2026-04-18T10:15:59.284Z</time></trkpt><trkpt lat="43.5040881" lon="12.7530889"><ele>467.0</ele><time>2026-04-18T10:16:00.285Z</time></trkpt><trkpt lat="43.5039523" lon="12.7532471"><ele>467.0</ele><time>2026-04-18T10:16:01.284Z</time></trkpt><trkpt lat="43.5038312" lon="12.7534411"><ele>467.0</ele><time>2026-04-18T10:16:02.284Z</time></trkpt><trkpt lat="43.5037323" lon="12.7536557"><ele>467.0</ele><time>2026-04-18T10:16:03.285Z</time></trkpt><trkpt lat="43.5036518" lon="12.7538778"><ele>471.3333333333333</ele><time>2026-04-18T10:16:04.284Z</time></trkpt><trkpt lat="43.5035801" lon="12.7541043"><ele>475.66666666666663</ele><time>2026-04-18T10:16:05.285Z</time></trkpt><trkpt lat="43.5035148" lon="12.7543255"><ele>480.0</ele><time>2026-04-18T10:16:06.284Z</time></trkpt><trkpt lat="43.503449" lon="12.7545412"><ele>480.0</ele><time>2026-04-18T10:16:07.284Z</time></trkpt><trkpt lat="43.5033833" lon="12.754752"><ele>480.0</ele><time>2026-04-18T10:16:08.284Z</time></trkpt><trkpt lat="43.5033181" lon="12.7549572"><ele>480.0</ele><time>2026-04-18T10:16:09.284Z</time></trkpt><trkpt lat="43.503252" lon="12.7551555"><ele>480.33333333333337</ele><time>2026-04-18T10:16:10.284Z</time></trkpt><trkpt lat="43.5031759" lon="12.7553471"><ele>480.6666666666667</ele><time>2026-04-18T10:16:11.285Z</time></trkpt><trkpt lat="43.5030908" lon="12.7555295"><ele>481.0</ele><time>2026-04-18T10:16:12.284Z</time></trkpt><trkpt lat="43.5029924" lon="12.7557109"><ele>480.0</ele><time>2026-04-18T10:16:13.285Z</time></trkpt><trkpt lat="43.5028858" lon="12.7559015"><ele>479.0</ele><time>2026-04-18T10:16:14.284Z</time></trkpt><trkpt lat="43.5027769" lon="12.7560981"><ele>478.0</ele><time>2026-04-18T10:16:15.285Z</time></trkpt><trkpt lat="43.5026661" lon="12.7563015"><ele>477.33333333333337</ele><time>2026-04-18T10:16:16.284Z</time></trkpt><trkpt lat="43.5025548" lon="12.7565045"><ele>476.66666666666663</ele><time>2026-04-18T10:16:17.284Z</time></trkpt><trkpt lat="43.5024444" lon="12.7567073"><ele>476.0</ele><time>2026-04-18T10:16:18.285Z</time></trkpt><trkpt lat="43.502334" lon="12.7569021"><ele>476.0</ele><time>2026-04-18T10:16:19.285Z</time></trkpt><trkpt lat="43.5022181" lon="12.7570815"><ele>476.0</ele><time>2026-04-18T10:16:20.285Z</time></trkpt><trkpt lat="43.5020882" lon="12.7572434"><ele>476.0</ele><time>2026-04-18T10:16:21.285Z</time></trkpt><trkpt lat="43.5019414" lon="12.7573807"><ele>474.0</ele><time>2026-04-18T10:16:22.285Z</time></trkpt><trkpt lat="43.5017828" lon="12.7575013"><ele>472.0</ele><time>2026-04-18T10:16:23.285Z</time></trkpt><trkpt lat="43.5016209" lon="12.7576169"><ele>470.0</ele><time>2026-04-18T10:16:24.284Z</time></trkpt><trkpt lat="43.5014619" lon="12.7577343"><ele>466.3333333333333</ele><time>2026-04-18T10:16:25.285Z</time></trkpt><trkpt lat="43.5013106" lon="12.7578464"><ele>462.66666666666663</ele><time>2026-04-18T10:16:26.284Z</time></trkpt><trkpt lat="43.5011682" lon="12.7579509"><ele>459.0</ele><time>2026-04-18T10:16:27.284Z</time></trkpt><trkpt lat="43.5010343" lon="12.7580632"><ele>459.0</ele><time>2026-04-18T10:16:28.285Z</time></trkpt><trkpt lat="43.5009191" lon="12.7581999"><ele>459.0</ele><time>2026-04-18T10:16:29.284Z</time></trkpt><trkpt lat="43.5008181" lon="12.7583624"><ele>459.0</ele><time>2026-04-18T10:16:30.284Z</time></trkpt><trkpt lat="43.5007205" lon="12.7585427"><ele>458.33333333333337</ele><time>2026-04-18T10:16:31.284Z</time></trkpt><trkpt lat="43.5006312" lon="12.7587284"><ele>457.6666666666667</ele><time>2026-04-18T10:16:32.285Z</time></trkpt><trkpt lat="43.5005504" lon="12.7589194"><ele>457.0</ele><time>2026-04-18T10:16:33.285Z</time></trkpt><trkpt lat="43.5004742" lon="12.7591091"><ele>457.33333333333337</ele><time>2026-04-18T10:16:34.285Z</time></trkpt><trkpt lat="43.5004" lon="12.7592999"><ele>457.66666666666663</ele><time>2026-04-18T10:16:35.285Z</time></trkpt><trkpt lat="43.5003198" lon="12.7594904"><ele>458.0</ele><time>2026-04-18T10:16:36.284Z</time></trkpt><trkpt lat="43.5002307" lon="12.7596758"><ele>458.0</ele><time>2026-04-18T10:16:37.284Z</time></trkpt><trkpt lat="43.500132" lon="12.7598505"><ele>458.0</ele><time>2026-04-18T10:16:38.284Z</time></trkpt><trkpt lat="43.5000264" lon="12.7600219"><ele>458.0</ele><time>2026-04-18T10:16:39.285Z</time></trkpt><trkpt lat="43.4999151" lon="12.7601888"><ele>457.3333333333333</ele><time>2026-04-18T10:16:40.284Z</time></trkpt><trkpt lat="43.4998007" lon="12.7603534"><ele>456.66666666666663</ele><time>2026-04-18T10:16:41.284Z</time></trkpt><trkpt lat="43.4996839" lon="12.760519"><ele>456.0</ele><time>2026-04-18T10:16:42.284Z</time></trkpt><trkpt lat="43.4995655" lon="12.7606821"><ele>456.66666666666663</ele><time>2026-04-18T10:16:43.284Z</time></trkpt><trkpt lat="43.49944" lon="12.7608484"><ele>457.3333333333333</ele><time>2026-04-18T10:16:44.284Z</time></trkpt><trkpt lat="43.4993006" lon="12.7610097"><ele>458.0</ele><time>2026-04-18T10:16:45.285Z</time></trkpt><trkpt lat="43.4991537" lon="12.7611659"><ele>458.0</ele><time>2026-04-18T10:16:46.284Z</time></trkpt><trkpt lat="43.4990001" lon="12.7613197"><ele>458.0</ele><time>2026-04-18T10:16:47.285Z</time></trkpt><trkpt lat="43.4988438" lon="12.7614704"><ele>458.0</ele><time>2026-04-18T10:16:48.284Z</time></trkpt><trkpt lat="43.4986731" lon="12.7616099"><ele>459.0</ele><time>2026-04-18T10:16:49.285Z</time></trkpt><trkpt lat="43.4984869" lon="12.7617554"><ele>460.0</ele><time>2026-04-18T10:16:50.285Z</time></trkpt><trkpt lat="43.4982973" lon="12.7619005"><ele>461.0</ele><time>2026-04-18T10:16:51.284Z</time></trkpt><trkpt lat="43.4981102" lon="12.7620402"><ele>461.0</ele><time>2026-04-18T10:16:52.284Z</time></trkpt><trkpt lat="43.4979296" lon="12.762169"><ele>461.0</ele><time>2026-04-18T10:16:53.285Z</time></trkpt><trkpt lat="43.4977618" lon="12.7622856"><ele>461.0</ele><time>2026-04-18T10:16:54.284Z</time></trkpt><trkpt lat="43.4976103" lon="12.762427"><ele>461.0</ele><time>2026-04-18T10:16:55.284Z</time></trkpt><trkpt lat="43.4974675" lon="12.7625856"><ele>461.0</ele><time>2026-04-18T10:16:56.284Z</time></trkpt><trkpt lat="43.4973359" lon="12.7627731"><ele>461.0</ele><time>2026-04-18T10:16:57.284Z</time></trkpt><trkpt lat="43.497214" lon="12.7629791"><ele>461.0</ele><time>2026-04-18T10:16:58.284Z</time></trkpt><trkpt lat="43.4971013" lon="12.7631924"><ele>461.0</ele><time>2026-04-18T10:16:59.284Z</time></trkpt><trkpt lat="43.4969868" lon="12.7634"><ele>461.0</ele><time>2026-04-18T10:17:00.284Z</time></trkpt><trkpt lat="43.4968765" lon="12.7636064"><ele>463.66666666666663</ele><time>2026-04-18T10:17:01.284Z</time></trkpt><trkpt lat="43.4967671" lon="12.7638142"><ele>466.33333333333337</ele><time>2026-04-18T10:17:02.284Z</time></trkpt><trkpt lat="43.4966489" lon="12.7640099"><ele>469.0</ele><time>2026-04-18T10:17:03.284Z</time></trkpt><trkpt lat="43.4965342" lon="12.7642064"><ele>470.0</ele><time>2026-04-18T10:17:04.284Z</time></trkpt><trkpt lat="43.4964247" lon="12.7644014"><ele>471.0</ele><time>2026-04-18T10:17:05.284Z</time></trkpt><trkpt lat="43.496315" lon="12.7645926"><ele>472.0</ele><time>2026-04-18T10:17:06.284Z</time></trkpt><trkpt lat="43.4962061" lon="12.7647791"><ele>472.33333333333337</ele><time>2026-04-18T10:17:07.285Z</time></trkpt><trkpt lat="43.496101" lon="12.7649655"><ele>472.66666666666663</ele><time>2026-04-18T10:17:08.284Z</time></trkpt><trkpt lat="43.4959977" lon="12.7651499"><ele>473.0</ele><time>2026-04-18T10:17:09.284Z</time></trkpt><trkpt lat="43.495897" lon="12.7653305"><ele>473.0</ele><time>2026-04-18T10:17:10.284Z</time></trkpt><trkpt lat="43.4958045" lon="12.7655195"><ele>473.0</ele><time>2026-04-18T10:17:11.284Z</time></trkpt><trkpt lat="43.4957201" lon="12.7657239"><ele>473.0</ele><time>2026-04-18T10:17:12.284Z</time></trkpt><trkpt lat="43.4956454" lon="12.7659355"><ele>473.0</ele><time>2026-04-18T10:17:13.284Z</time></trkpt><trkpt lat="43.4955798" lon="12.7661569"><ele>473.0</ele><time>2026-04-18T10:17:14.285Z</time></trkpt><trkpt lat="43.4955126" lon="12.7663831"><ele>473.0</ele><time>2026-04-18T10:17:15.284Z</time></trkpt><trkpt lat="43.49545" lon="12.7666084"><ele>475.66666666666663</ele><time>2026-04-18T10:17:16.285Z</time></trkpt><trkpt lat="43.495384" lon="12.766833"><ele>478.33333333333337</ele><time>2026-04-18T10:17:17.285Z</time></trkpt><trkpt lat="43.4953171" lon="12.7670545"><ele>481.0</ele><time>2026-04-18T10:17:18.285Z</time></trkpt><trkpt lat="43.4952537" lon="12.7672713"><ele>481.0</ele><time>2026-04-18T10:17:19.285Z</time></trkpt><trkpt lat="43.4951933" lon="12.7674792"><ele>481.0</ele><time>2026-04-18T10:17:20.284Z</time></trkpt><trkpt lat="43.4951272" lon="12.7676788"><ele>481.0</ele><time>2026-04-18T10:17:21.285Z</time></trkpt><trkpt lat="43.495047" lon="12.76786"><ele>478.6666666666667</ele><time>2026-04-18T10:17:22.285Z</time></trkpt><trkpt lat="43.494941" lon="12.7680181"><ele>476.33333333333337</ele><time>2026-04-18T10:17:23.284Z</time></trkpt><trkpt lat="43.4948133" lon="12.7681437"><ele>474.0</ele><time>2026-04-18T10:17:24.285Z</time></trkpt><trkpt lat="43.494693" lon="12.7682485"><ele>476.33333333333337</ele><time>2026-04-18T10:17:25.285Z</time></trkpt><trkpt lat="43.4945373" lon="12.768247"><ele>478.6666666666667</ele><time>2026-04-18T10:17:26.284Z</time></trkpt><trkpt lat="43.4943872" lon="12.7682449"><ele>481.0</ele><time>2026-04-18T10:17:27.284Z</time></trkpt><trkpt lat="43.4942313" lon="12.7682077"><ele>481.0</ele><time>2026-04-18T10:17:28.285Z</time></trkpt><trkpt lat="43.4940707" lon="12.7681627"><ele>481.0</ele><time>2026-04-18T10:17:29.284Z</time></trkpt><trkpt lat="43.4939121" lon="12.7681155"><ele>481.0</ele><time>2026-04-18T10:17:30.285Z</time></trkpt><trkpt lat="43.4937493" lon="12.7680774"><ele>481.0</ele><time>2026-04-18T10:17:31.284Z</time></trkpt><trkpt lat="43.4935784" lon="12.7680655"><ele>481.0</ele><time>2026-04-18T10:17:32.284Z</time></trkpt><trkpt lat="43.4934031" lon="12.76808"><ele>481.0</ele><time>2026-04-18T10:17:33.284Z</time></trkpt><trkpt lat="43.4932333" lon="12.7681216"><ele>481.0</ele><time>2026-04-18T10:17:34.284Z</time></trkpt><trkpt lat="43.4930644" lon="12.7681619"><ele>481.0</ele><time>2026-04-18T10:17:35.284Z</time></trkpt><trkpt lat="43.4928939" lon="12.7681901"><ele>481.0</ele><time>2026-04-18T10:17:36.284Z</time></trkpt><trkpt lat="43.4927237" lon="12.768201"><ele>484.6666666666667</ele><time>2026-04-18T10:17:37.284Z</time></trkpt><trkpt lat="43.4925485" lon="12.7681995"><ele>488.33333333333337</ele><time>2026-04-18T10:17:38.284Z</time></trkpt><trkpt lat="43.4923829" lon="12.7681808"><ele>492.0</ele><time>2026-04-18T10:17:39.285Z</time></trkpt><trkpt lat="43.4922175" lon="12.7681396"><ele>492.66666666666663</ele><time>2026-04-18T10:17:40.284Z</time></trkpt><trkpt lat="43.4920508" lon="12.7681045"><ele>493.3333333333333</ele><time>2026-04-18T10:17:41.284Z</time></trkpt><trkpt lat="43.4918894" lon="12.7680762"><ele>494.0</ele><time>2026-04-18T10:17:42.285Z</time></trkpt><trkpt lat="43.4917238" lon="12.7680437"><ele>494.0</ele><time>2026-04-18T10:17:43.285Z</time></trkpt><trkpt lat="43.4915611" lon="12.7680033"><ele>494.0</ele><time>2026-04-18T10:17:44.284Z</time></trkpt><trkpt lat="43.4913957" lon="12.7679656"><ele>494.0</ele><time>2026-04-18T10:17:45.285Z</time></trkpt><trkpt lat="43.4912254" lon="12.7679317"><ele>496.3333333333333</ele><time>2026-04-18T10:17:46.285Z</time></trkpt><trkpt lat="43.4910598" lon="12.767896"><ele>498.66666666666663</ele><time>2026-04-18T10:17:47.284Z</time></trkpt><trkpt lat="43.4909085" lon="12.7678788"><ele>501.0</ele><time>2026-04-18T10:17:48.284Z</time></trkpt><trkpt lat="43.490768" lon="12.7679011"><ele>501.0</ele><time>2026-04-18T10:17:49.285Z</time></trkpt><trkpt lat="43.4906339" lon="12.7679806"><ele>501.0</ele><time>2026-04-18T10:17:50.284Z</time></trkpt><trkpt lat="43.4905123" lon="12.7680959"><ele>501.0</ele><time>2026-04-18T10:17:51.284Z</time></trkpt><trkpt lat="43.4903853" lon="12.7682182"><ele>501.0</ele><time>2026-04-18T10:17:52.284Z</time></trkpt><trkpt lat="43.4902875" lon="12.7683697"><ele>509.0</ele><time>2026-04-18T10:17:53.284Z</time></trkpt><trkpt lat="43.4903187" lon="12.7686597"><ele>517.0</ele><time>2026-04-18T10:17:54.284Z</time></trkpt><trkpt lat="43.4902707" lon="12.7688563"><ele>525.0</ele><time>2026-04-18T10:17:55.285Z</time></trkpt><trkpt lat="43.4902397" lon="12.7690686"><ele>525.0</ele><time>2026-04-18T10:17:56.284Z</time></trkpt><trkpt lat="43.4902127" lon="12.7692733"><ele>525.0</ele><time>2026-04-18T10:17:57.285Z</time></trkpt><trkpt lat="43.490181" lon="12.7694774"><ele>525.0</ele><time>2026-04-18T10:17:58.285Z</time></trkpt><trkpt lat="43.4901736" lon="12.7696562"><ele>525.0</ele><time>2026-04-18T10:17:59.284Z</time></trkpt><trkpt lat="43.4901481" lon="12.7698295"><ele>524.0</ele><time>2026-04-18T10:18:00.284Z</time></trkpt><trkpt lat="43.4901312" lon="12.7699681"><ele>523.0</ele><time>2026-04-18T10:18:01.285Z</time></trkpt><trkpt lat="43.4901041" lon="12.7701063"><ele>522.0</ele><time>2026-04-18T10:18:02.285Z</time></trkpt><trkpt lat="43.4900956" lon="12.770235"><ele>521.0</ele><time>2026-04-18T10:18:03.285Z</time></trkpt><trkpt lat="43.4900908" lon="12.770355"><ele>520.0</ele><time>2026-04-18T10:18:04.285Z</time></trkpt><trkpt lat="43.4901142" lon="12.7704813"><ele>520.0</ele><time>2026-04-18T10:18:05.284Z</time></trkpt><trkpt lat="43.4901329" lon="12.7705975"><ele>520.0</ele><time>2026-04-18T10:18:06.284Z</time></trkpt><trkpt lat="43.4901596" lon="12.7707296"><ele>520.0</ele><time>2026-04-18T10:18:07.284Z</time></trkpt><trkpt lat="43.4901936" lon="12.7708717"><ele>520.0</ele><time>2026-04-18T10:18:08.284Z</time></trkpt><trkpt lat="43.4902308" lon="12.7710184"><ele>520.0</ele><time>2026-04-18T10:18:09.284Z</time></trkpt><trkpt lat="43.4902775" lon="12.7711699"><ele>519.75</ele><time>2026-04-18T10:18:10.284Z</time></trkpt><trkpt lat="43.4903306" lon="12.7713309"><ele>519.5</ele><time>2026-04-18T10:18:11.284Z</time></trkpt><trkpt lat="43.4903805" lon="12.7715194"><ele>519.25</ele><time>2026-04-18T10:18:12.284Z</time></trkpt><trkpt lat="43.4904289" lon="12.7717215"><ele>519.0</ele><time>2026-04-18T10:18:13.284Z</time></trkpt><trkpt lat="43.4904713" lon="12.7719305"><ele>519.0</ele><time>2026-04-18T10:18:14.284Z</time></trkpt><trkpt lat="43.4904995" lon="12.7721526"><ele>519.0</ele><time>2026-04-18T10:18:15.284Z</time></trkpt><trkpt lat="43.4905184" lon="12.7723899"><ele>519.0</ele><time>2026-04-18T10:18:16.284Z</time></trkpt><trkpt lat="43.4905253" lon="12.7726293"><ele>517.0</ele><time>2026-04-18T10:18:17.284Z</time></trkpt><trkpt lat="43.4905223" lon="12.7728782"><ele>515.0</ele><time>2026-04-18T10:18:18.284Z</time></trkpt><trkpt lat="43.4905088" lon="12.7731211"><ele>513.0</ele><time>2026-04-18T10:18:19.285Z</time></trkpt><trkpt lat="43.4904957" lon="12.7733608"><ele>510.0</ele><time>2026-04-18T10:18:20.284Z</time></trkpt><trkpt lat="43.4904794" lon="12.7735864"><ele>507.0</ele><time>2026-04-18T10:18:21.284Z</time></trkpt><trkpt lat="43.4904712" lon="12.773798"><ele>504.0</ele><time>2026-04-18T10:18:22.285Z</time></trkpt><trkpt lat="43.4904624" lon="12.7739996"><ele>504.0</ele><time>2026-04-18T10:18:23.284Z</time></trkpt><trkpt lat="43.4904461" lon="12.7741828"><ele>504.0</ele><time>2026-04-18T10:18:24.284Z</time></trkpt><trkpt lat="43.4904271" lon="12.7743602"><ele>504.0</ele><time>2026-04-18T10:18:25.285Z</time></trkpt><trkpt lat="43.4904063" lon="12.7745329"><ele>504.0</ele><time>2026-04-18T10:18:26.284Z</time></trkpt><trkpt lat="43.4903899" lon="12.774698"><ele>503.0</ele><time>2026-04-18T10:18:27.284Z</time></trkpt><trkpt lat="43.4903839" lon="12.7748691"><ele>502.0</ele><time>2026-04-18T10:18:28.285Z</time></trkpt><trkpt lat="43.4904083" lon="12.7750337"><ele>501.0</ele><time>2026-04-18T10:18:29.284Z</time></trkpt><trkpt lat="43.4904564" lon="12.7751686"><ele>500.0</ele><time>2026-04-18T10:18:30.284Z</time></trkpt><trkpt lat="43.4905164" lon="12.775271"><ele>498.66666666666663</ele><time>2026-04-18T10:18:31.284Z</time></trkpt><trkpt lat="43.4905699" lon="12.7753535"><ele>497.3333333333333</ele><time>2026-04-18T10:18:32.284Z</time></trkpt><trkpt lat="43.4905893" lon="12.775451"><ele>496.0</ele><time>2026-04-18T10:18:33.284Z</time></trkpt><trkpt lat="43.4905683" lon="12.7755491"><ele>494.66666666666663</ele><time>2026-04-18T10:18:34.285Z</time></trkpt><trkpt lat="43.4905032" lon="12.7756155"><ele>493.3333333333333</ele><time>2026-04-18T10:18:35.284Z</time></trkpt><trkpt lat="43.4904089" lon="12.7756466"><ele>492.0</ele><time>2026-04-18T10:18:36.284Z</time></trkpt><trkpt lat="43.4902976" lon="12.7756816"><ele>490.40000000000003</ele><time>2026-04-18T10:18:37.284Z</time></trkpt><trkpt lat="43.4901823" lon="12.7757203"><ele>488.80000000000007</ele><time>2026-04-18T10:18:38.284Z</time></trkpt><trkpt lat="43.4900797" lon="12.7757579"><ele>487.2</ele><time>2026-04-18T10:18:39.285Z</time></trkpt><trkpt lat="43.4899819" lon="12.7757968"><ele>485.6</ele><time>2026-04-18T10:18:40.284Z</time></trkpt><trkpt lat="43.4898929" lon="12.7758173"><ele>484.0</ele><time>2026-04-18T10:18:41.285Z</time></trkpt><trkpt lat="43.4898137" lon="12.7757881"><ele>484.0</ele><time>2026-04-18T10:18:42.285Z</time></trkpt><trkpt lat="43.4897623" lon="12.7757155"><ele>484.0</ele><time>2026-04-18T10:18:43.284Z</time></trkpt><trkpt lat="43.4897636" lon="12.7755931"><ele>484.0</ele><time>2026-04-18T10:18:44.285Z</time></trkpt><trkpt lat="43.4897873" lon="12.7754621"><ele>484.0</ele><time>2026-04-18T10:18:45.284Z</time></trkpt><trkpt lat="43.4898101" lon="12.7753055"><ele>484.0</ele><time>2026-04-18T10:18:46.285Z</time></trkpt><trkpt lat="43.4898323" lon="12.7751394"><ele>484.75</ele><time>2026-04-18T10:18:47.284Z</time></trkpt><trkpt lat="43.4898603" lon="12.7749595"><ele>485.5</ele><time>2026-04-18T10:18:48.284Z</time></trkpt><trkpt lat="43.4898876" lon="12.7747765"><ele>486.25</ele><time>2026-04-18T10:18:49.285Z</time></trkpt><trkpt lat="43.4899175" lon="12.7745923"><ele>487.0</ele><time>2026-04-18T10:18:50.284Z</time></trkpt><trkpt lat="43.4899479" lon="12.7744141"><ele>486.75</ele><time>2026-04-18T10:18:51.284Z</time></trkpt><trkpt lat="43.4899677" lon="12.7742361"><ele>486.5</ele><time>2026-04-18T10:18:52.285Z</time></trkpt><trkpt lat="43.4899629" lon="12.7740645"><ele>486.25</ele><time>2026-04-18T10:18:53.285Z</time></trkpt><trkpt lat="43.489946" lon="12.7738943"><ele>486.0</ele><time>2026-04-18T10:18:54.284Z</time></trkpt><trkpt lat="43.4899206" lon="12.7737356"><ele>486.0</ele><time>2026-04-18T10:18:55.285Z</time></trkpt><trkpt lat="43.4898765" lon="12.7736"><ele>486.0</ele><time>2026-04-18T10:18:56.285Z</time></trkpt><trkpt lat="43.4898095" lon="12.7734966"><ele>486.0</ele><time>2026-04-18T10:18:57.284Z</time></trkpt><trkpt lat="43.489724" lon="12.7734386"><ele>486.0</ele><time>2026-04-18T10:18:58.284Z</time></trkpt><trkpt lat="43.4896291" lon="12.7734306"><ele>486.0</ele><time>2026-04-18T10:18:59.285Z</time></trkpt><trkpt lat="43.4895337" lon="12.7734854"><ele>482.75</ele><time>2026-04-18T10:19:00.284Z</time></trkpt><trkpt lat="43.4894438" lon="12.7735908"><ele>479.5</ele><time>2026-04-18T10:19:01.284Z</time></trkpt><trkpt lat="43.4893386" lon="12.7737134"><ele>476.25</ele><time>2026-04-18T10:19:02.284Z</time></trkpt><trkpt lat="43.4892244" lon="12.7738312"><ele>473.0</ele><time>2026-04-18T10:19:03.284Z</time></trkpt><trkpt lat="43.4891107" lon="12.7739393"><ele>473.0</ele><time>2026-04-18T10:19:04.284Z</time></trkpt><trkpt lat="43.4889971" lon="12.7740385"><ele>473.0</ele><time>2026-04-18T10:19:05.284Z</time></trkpt><trkpt lat="43.4888924" lon="12.7741431"><ele>473.0</ele><time>2026-04-18T10:19:06.284Z</time></trkpt><trkpt lat="43.4887905" lon="12.7742447"><ele>473.0</ele><time>2026-04-18T10:19:07.285Z</time></trkpt><trkpt lat="43.4886829" lon="12.7743463"><ele>470.5</ele><time>2026-04-18T10:19:08.284Z</time></trkpt><trkpt lat="43.4885663" lon="12.7744526"><ele>468.0</ele><time>2026-04-18T10:19:09.284Z</time></trkpt><trkpt lat="43.4884427" lon="12.7745515"><ele>465.5</ele><time>2026-04-18T10:19:10.284Z</time></trkpt><trkpt lat="43.488313" lon="12.7746437"><ele>463.0</ele><time>2026-04-18T10:19:11.284Z</time></trkpt><trkpt lat="43.4881839" lon="12.7747338"><ele>463.0</ele><time>2026-04-18T10:19:12.284Z</time></trkpt><trkpt lat="43.488069" lon="12.7748269"><ele>463.0</ele><time>2026-04-18T10:19:13.285Z</time></trkpt><trkpt lat="43.4879715" lon="12.7749155"><ele>463.0</ele><time>2026-04-18T10:19:14.284Z</time></trkpt><trkpt lat="43.487867" lon="12.7750204"><ele>463.0</ele><time>2026-04-18T10:19:15.285Z</time></trkpt><trkpt lat="43.487775" lon="12.7751261"><ele>460.59999999999997</ele><time>2026-04-18T10:19:16.284Z</time></trkpt><trkpt lat="43.4877107" lon="12.7752146"><ele>458.19999999999993</ele><time>2026-04-18T10:19:17.284Z</time></trkpt><trkpt lat="43.487641" lon="12.7753049"><ele>455.8</ele><time>2026-04-18T10:19:18.284Z</time></trkpt><trkpt lat="43.4875865" lon="12.775401"><ele>453.4</ele><time>2026-04-18T10:19:19.285Z</time></trkpt><trkpt lat="43.4875576" lon="12.775511"><ele>451.0</ele><time>2026-04-18T10:19:20.285Z</time></trkpt><trkpt lat="43.4875695" lon="12.7756416"><ele>451.0</ele><time>2026-04-18T10:19:21.285Z</time></trkpt><trkpt lat="43.4876385" lon="12.7757685"><ele>451.0</ele><time>2026-04-18T10:19:22.285Z</time></trkpt><trkpt lat="43.4877453" lon="12.7758645"><ele>451.0</ele><time>2026-04-18T10:19:23.285Z</time></trkpt><trkpt lat="43.4878639" lon="12.7759468"><ele>451.0</ele><time>2026-04-18T10:19:24.284Z</time></trkpt><trkpt lat="43.4879734" lon="12.7760311"><ele>451.20000000000005</ele><time>2026-04-18T10:19:25.285Z</time></trkpt><trkpt lat="43.4880691" lon="12.776113"><ele>451.40000000000003</ele><time>2026-04-18T10:19:26.284Z</time></trkpt><trkpt lat="43.4881364" lon="12.7762044"><ele>451.6</ele><time>2026-04-18T10:19:27.285Z</time></trkpt><trkpt lat="43.4881542" lon="12.7763147"><ele>451.8</ele><time>2026-04-18T10:19:28.285Z</time></trkpt><trkpt lat="43.4881145" lon="12.7764222"><ele>452.0</ele><time>2026-04-18T10:19:29.285Z</time></trkpt><trkpt lat="43.4880377" lon="12.7765201"><ele>452.0</ele><time>2026-04-18T10:19:30.285Z</time></trkpt><trkpt lat="43.487937" lon="12.7766234"><ele>452.0</ele><time>2026-04-18T10:19:31.284Z</time></trkpt><trkpt lat="43.4878283" lon="12.7767381"><ele>452.0</ele><time>2026-04-18T10:19:32.284Z</time></trkpt><trkpt lat="43.4877138" lon="12.7768608"><ele>452.0</ele><time>2026-04-18T10:19:33.285Z</time></trkpt><trkpt lat="43.4875963" lon="12.7769976"><ele>445.3333333333333</ele><time>2026-04-18T10:19:34.284Z</time></trkpt><trkpt lat="43.4874756" lon="12.7771423"><ele>438.66666666666663</ele><time>2026-04-18T10:19:35.285Z</time></trkpt><trkpt lat="43.48735" lon="12.7772905"><ele>432.0</ele><time>2026-04-18T10:19:36.284Z</time></trkpt><trkpt lat="43.4872237" lon="12.7774479"><ele>432.0</ele><time>2026-04-18T10:19:37.285Z</time></trkpt><trkpt lat="43.4871051" lon="12.7776218"><ele>432.0</ele><time>2026-04-18T10:19:38.284Z</time></trkpt><trkpt lat="43.4869897" lon="12.7778109"><ele>432.0</ele><time>2026-04-18T10:19:39.285Z</time></trkpt><trkpt lat="43.4868817" lon="12.7780133"><ele>431.0</ele><time>2026-04-18T10:19:40.284Z</time></trkpt><trkpt lat="43.4867769" lon="12.7782112"><ele>430.0</ele><time>2026-04-18T10:19:41.284Z</time></trkpt><trkpt lat="43.4866769" lon="12.7784058"><ele>429.0</ele><time>2026-04-18T10:19:42.285Z</time></trkpt><trkpt lat="43.4865801" lon="12.7785998"><ele>429.0</ele><time>2026-04-18T10:19:43.285Z</time></trkpt><trkpt lat="43.4864856" lon="12.7787989"><ele>429.0</ele><time>2026-04-18T10:19:44.284Z</time></trkpt><trkpt lat="43.4863985" lon="12.7790023"><ele>429.0</ele><time>2026-04-18T10:19:45.284Z</time></trkpt><trkpt lat="43.4863187" lon="12.7792121"><ele>431.0</ele><time>2026-04-18T10:19:46.284Z</time></trkpt><trkpt lat="43.4862458" lon="12.779419"><ele>433.0</ele><time>2026-04-18T10:19:47.285Z</time></trkpt><trkpt lat="43.4861702" lon="12.7796248"><ele>435.0</ele><time>2026-04-18T10:19:48.285Z</time></trkpt><trkpt lat="43.4860942" lon="12.7798369"><ele>435.0</ele><time>2026-04-18T10:19:49.284Z</time></trkpt><trkpt lat="43.4860202" lon="12.7800596"><ele>435.0</ele><time>2026-04-18T10:19:50.284Z</time></trkpt><trkpt lat="43.4859521" lon="12.7802897"><ele>435.0</ele><time>2026-04-18T10:19:51.285Z</time></trkpt><trkpt lat="43.4858919" lon="12.7805284"><ele>436.0</ele><time>2026-04-18T10:19:52.284Z</time></trkpt><trkpt lat="43.4858346" lon="12.7807741"><ele>437.0</ele><time>2026-04-18T10:19:53.285Z</time></trkpt><trkpt lat="43.4857807" lon="12.7810353"><ele>438.0</ele><time>2026-04-18T10:19:54.284Z</time></trkpt><trkpt lat="43.4857243" lon="12.7812967"><ele>438.0</ele><time>2026-04-18T10:19:55.284Z</time></trkpt><trkpt lat="43.485671" lon="12.7815511"><ele>438.0</ele><time>2026-04-18T10:19:56.284Z</time></trkpt><trkpt lat="43.4856137" lon="12.7818071"><ele>438.0</ele><time>2026-04-18T10:19:57.284Z</time></trkpt><trkpt lat="43.4855479" lon="12.782046"><ele>441.0</ele><time>2026-04-18T10:19:58.284Z</time></trkpt><trkpt lat="43.4854808" lon="12.7822736"><ele>444.0</ele><time>2026-04-18T10:19:59.284Z</time></trkpt><trkpt lat="43.4854073" lon="12.7824932"><ele>447.0</ele><time>2026-04-18T10:20:00.285Z</time></trkpt><trkpt lat="43.4853313" lon="12.7827111"><ele>448.33333333333337</ele><time>2026-04-18T10:20:01.285Z</time></trkpt><trkpt lat="43.4852541" lon="12.7829299"><ele>449.6666666666667</ele><time>2026-04-18T10:20:02.285Z</time></trkpt><trkpt lat="43.4851785" lon="12.7831442"><ele>451.0</ele><time>2026-04-18T10:20:03.284Z</time></trkpt><trkpt lat="43.485104" lon="12.7833671"><ele>451.6666666666667</ele><time>2026-04-18T10:20:04.285Z</time></trkpt><trkpt lat="43.4850288" lon="12.7835874"><ele>452.33333333333337</ele><time>2026-04-18T10:20:05.284Z</time></trkpt><trkpt lat="43.4849515" lon="12.7838041"><ele>453.0</ele><time>2026-04-18T10:20:06.285Z</time></trkpt><trkpt lat="43.4848829" lon="12.7840234"><ele>453.0</ele><time>2026-04-18T10:20:07.284Z</time></trkpt><trkpt lat="43.4848175" lon="12.7842408"><ele>453.0</ele><time>2026-04-18T10:20:08.284Z</time></trkpt><trkpt lat="43.4847575" lon="12.7844555"><ele>453.0</ele><time>2026-04-18T10:20:09.284Z</time></trkpt><trkpt lat="43.4846971" lon="12.7846631"><ele>452.33333333333337</ele><time>2026-04-18T10:20:10.285Z</time></trkpt><trkpt lat="43.4846518" lon="12.7848768"><ele>451.6666666666667</ele><time>2026-04-18T10:20:11.284Z</time></trkpt><trkpt lat="43.484627" lon="12.7850972"><ele>451.0</ele><time>2026-04-18T10:20:12.285Z</time></trkpt><trkpt lat="43.4846232" lon="12.7853136"><ele>451.0</ele><time>2026-04-18T10:20:13.285Z</time></trkpt><trkpt lat="43.4846333" lon="12.7855103"><ele>451.0</ele><time>2026-04-18T10:20:14.284Z</time></trkpt><trkpt lat="43.4846394" lon="12.7856969"><ele>451.0</ele><time>2026-04-18T10:20:15.284Z</time></trkpt><trkpt lat="43.4846091" lon="12.7858586"><ele>451.0</ele><time>2026-04-18T10:20:16.284Z</time></trkpt><trkpt lat="43.4845626" lon="12.7860031"><ele>454.6666666666667</ele><time>2026-04-18T10:20:17.284Z</time></trkpt><trkpt lat="43.4845038" lon="12.7861487"><ele>458.33333333333337</ele><time>2026-04-18T10:20:18.284Z</time></trkpt><trkpt lat="43.4842974" lon="12.7862523"><ele>462.0</ele><time>2026-04-18T10:20:19.284Z</time></trkpt><trkpt lat="43.4841787" lon="12.7863748"><ele>462.0</ele><time>2026-04-18T10:20:20.284Z</time></trkpt><trkpt lat="43.4840393" lon="12.7864895"><ele>462.0</ele><time>2026-04-18T10:20:21.285Z</time></trkpt><trkpt lat="43.4839059" lon="12.7866007"><ele>462.0</ele><time>2026-04-18T10:20:22.284Z</time></trkpt><trkpt lat="43.4837743" lon="12.7867066"><ele>465.0</ele><time>2026-04-18T10:20:23.284Z</time></trkpt><trkpt lat="43.48364" lon="12.7868119"><ele>468.0</ele><time>2026-04-18T10:20:24.285Z</time></trkpt><trkpt lat="43.4835055" lon="12.7869142"><ele>471.0</ele><time>2026-04-18T10:20:25.285Z</time></trkpt><trkpt lat="43.4833625" lon="12.7870203"><ele>471.0</ele><time>2026-04-18T10:20:26.284Z</time></trkpt><trkpt lat="43.4832209" lon="12.7871243"><ele>471.0</ele><time>2026-04-18T10:20:27.284Z</time></trkpt><trkpt lat="43.4830777" lon="12.7872221"><ele>471.0</ele><time>2026-04-18T10:20:28.285Z</time></trkpt><trkpt lat="43.48294" lon="12.7873191"><ele>473.25</ele><time>2026-04-18T10:20:29.284Z</time></trkpt><trkpt lat="43.4828083" lon="12.7874309"><ele>475.5</ele><time>2026-04-18T10:20:30.285Z</time></trkpt><trkpt lat="43.4826863" lon="12.7875392"><ele>477.75</ele><time>2026-04-18T10:20:31.284Z</time></trkpt><trkpt lat="43.4825792" lon="12.7876547"><ele>480.0</ele><time>2026-04-18T10:20:32.284Z</time></trkpt><trkpt lat="43.4824851" lon="12.7877761"><ele>480.0</ele><time>2026-04-18T10:20:33.285Z</time></trkpt><trkpt lat="43.4824046" lon="12.7878856"><ele>480.0</ele><time>2026-04-18T10:20:34.285Z</time></trkpt><trkpt lat="43.4823414" lon="12.787984"><ele>480.0</ele><time>2026-04-18T10:20:35.285Z</time></trkpt><trkpt lat="43.4823015" lon="12.7880682"><ele>480.0</ele><time>2026-04-18T10:20:36.284Z</time></trkpt><trkpt lat="43.4822485" lon="12.7881676"><ele>480.0</ele><time>2026-04-18T10:20:38.285Z</time></trkpt><trkpt lat="43.4821921" lon="12.7881244"><ele>480.0</ele><time>2026-04-18T10:20:40.285Z</time></trkpt><trkpt lat="43.4822154" lon="12.7879834"><ele>480.0</ele><time>2026-04-18T10:20:42.284Z</time></trkpt><trkpt lat="43.4822533" lon="12.7878929"><ele>480.0</ele><time>2026-04-18T10:20:43.284Z</time></trkpt><trkpt lat="43.4822944" lon="12.7877972"><ele>480.0</ele><time>2026-04-18T10:20:44.284Z</time></trkpt><trkpt lat="43.4823409" lon="12.787694"><ele>480.0</ele><time>2026-04-18T10:20:45.284Z</time></trkpt><trkpt lat="43.4823786" lon="12.7876024"><ele>480.0</ele><time>2026-04-18T10:20:46.284Z</time></trkpt><trkpt lat="43.4824175" lon="12.7875015"><ele>480.0</ele><time>2026-04-18T10:20:47.284Z</time></trkpt><trkpt lat="43.4824473" lon="12.7874079"><ele>480.0</ele><time>2026-04-18T10:20:48.285Z</time></trkpt><trkpt lat="43.4824644" lon="12.7872676"><ele>480.0</ele><time>2026-04-18T10:20:50.284Z</time></trkpt><trkpt lat="43.4824021" lon="12.7872341"><ele>480.0</ele><time>2026-04-18T10:20:53.284Z</time></trkpt><trkpt lat="43.4822958" lon="12.7873478"><ele>480.0</ele><time>2026-04-18T10:20:55.284Z</time></trkpt><trkpt lat="43.4822362" lon="12.7874311"><ele>480.0</ele><time>2026-04-18T10:20:56.284Z</time></trkpt><trkpt lat="43.4821733" lon="12.787512"><ele>480.0</ele><time>2026-04-18T10:20:57.285Z</time></trkpt><trkpt lat="43.4821031" lon="12.7875935"><ele>480.0</ele><time>2026-04-18T10:20:58.284Z</time></trkpt><trkpt lat="43.4820246" lon="12.7876641"><ele>480.0</ele><time>2026-04-18T10:20:59.284Z</time></trkpt><trkpt lat="43.48194" lon="12.787721"><ele>480.0</ele><time>2026-04-18T10:21:00.284Z</time></trkpt><trkpt lat="43.4818421" lon="12.7877738"><ele>480.0</ele><time>2026-04-18T10:21:01.284Z</time></trkpt><trkpt lat="43.4817419" lon="12.7878117"><ele>481.8333333333333</ele><time>2026-04-18T10:21:02.285Z</time></trkpt><trkpt lat="43.4816493" lon="12.7878391"><ele>483.66666666666663</ele><time>2026-04-18T10:21:03.285Z</time></trkpt><trkpt lat="43.4815669" lon="12.7878705"><ele>485.5</ele><time>2026-04-18T10:21:04.284Z</time></trkpt><trkpt lat="43.481493" lon="12.7879263"><ele>487.3333333333333</ele><time>2026-04-18T10:21:05.285Z</time></trkpt><trkpt lat="43.4814257" lon="12.7880058"><ele>489.16666666666663</ele><time>2026-04-18T10:21:06.285Z</time></trkpt><trkpt lat="43.4813729" lon="12.7881082"><ele>491.0</ele><time>2026-04-18T10:21:07.284Z</time></trkpt><trkpt lat="43.4813298" lon="12.7882312"><ele>491.0</ele><time>2026-04-18T10:21:08.284Z</time></trkpt><trkpt lat="43.4813023" lon="12.7883714"><ele>491.0</ele><time>2026-04-18T10:21:09.284Z</time></trkpt><trkpt lat="43.4812944" lon="12.7885183"><ele>491.0</ele><time>2026-04-18T10:21:10.284Z</time></trkpt><trkpt lat="43.4812999" lon="12.788662"><ele>491.0</ele><time>2026-04-18T10:21:11.285Z</time></trkpt><trkpt lat="43.4813174" lon="12.7888054"><ele>491.0</ele><time>2026-04-18T10:21:12.284Z</time></trkpt><trkpt lat="43.4813362" lon="12.7889448"><ele>491.16666666666663</ele><time>2026-04-18T10:21:13.284Z</time></trkpt><trkpt lat="43.4813514" lon="12.789075"><ele>491.3333333333333</ele><time>2026-04-18T10:21:14.285Z</time></trkpt><trkpt lat="43.481365" lon="12.7891981"><ele>491.5</ele><time>2026-04-18T10:21:15.284Z</time></trkpt><trkpt lat="43.4813685" lon="12.7893108"><ele>491.66666666666663</ele><time>2026-04-18T10:21:16.284Z</time></trkpt><trkpt lat="43.4813615" lon="12.7894132"><ele>491.8333333333333</ele><time>2026-04-18T10:21:17.284Z</time></trkpt><trkpt lat="43.4813357" lon="12.7895123"><ele>492.0</ele><time>2026-04-18T10:21:18.284Z</time></trkpt><trkpt lat="43.4812879" lon="12.7895976"><ele>494.0</ele><time>2026-04-18T10:21:19.285Z</time></trkpt><trkpt lat="43.4812232" lon="12.7896596"><ele>496.00000000000006</ele><time>2026-04-18T10:21:20.285Z</time></trkpt><trkpt lat="43.4811422" lon="12.7897022"><ele>498.00000000000006</ele><time>2026-04-18T10:21:21.284Z</time></trkpt><trkpt lat="43.4810501" lon="12.7897341"><ele>500.0</ele><time>2026-04-18T10:21:22.285Z</time></trkpt><trkpt lat="43.4809519" lon="12.7897601"><ele>502.0</ele><time>2026-04-18T10:21:23.285Z</time></trkpt><trkpt lat="43.4808583" lon="12.7897785"><ele>502.0</ele><time>2026-04-18T10:21:24.285Z</time></trkpt><trkpt lat="43.4807594" lon="12.7898135"><ele>502.00000000000006</ele><time>2026-04-18T10:21:25.285Z</time></trkpt><trkpt lat="43.4806655" lon="12.7898736"><ele>502.00000000000006</ele><time>2026-04-18T10:21:26.284Z</time></trkpt><trkpt lat="43.4805754" lon="12.7899645"><ele>502.0</ele><time>2026-04-18T10:21:27.285Z</time></trkpt><trkpt lat="43.4804756" lon="12.7900692"><ele>502.0</ele><time>2026-04-18T10:21:28.285Z</time></trkpt><trkpt lat="43.4803732" lon="12.7901765"><ele>502.25</ele><time>2026-04-18T10:21:29.284Z</time></trkpt><trkpt lat="43.4802719" lon="12.7902789"><ele>502.5</ele><time>2026-04-18T10:21:30.284Z</time></trkpt><trkpt lat="43.4801711" lon="12.7903611"><ele>502.75</ele><time>2026-04-18T10:21:31.284Z</time></trkpt><trkpt lat="43.4800694" lon="12.7904214"><ele>503.0</ele><time>2026-04-18T10:21:32.285Z</time></trkpt><trkpt lat="43.4799634" lon="12.790461"><ele>503.0</ele><time>2026-04-18T10:21:33.284Z</time></trkpt><trkpt lat="43.4798569" lon="12.7904892"><ele>502.99999999999994</ele><time>2026-04-18T10:21:34.284Z</time></trkpt><trkpt lat="43.4797544" lon="12.7905049"><ele>502.99999999999994</ele><time>2026-04-18T10:21:35.284Z</time></trkpt><trkpt lat="43.4796505" lon="12.7904866"><ele>503.0</ele><time>2026-04-18T10:21:36.284Z</time></trkpt><trkpt lat="43.4795438" lon="12.7904531"><ele>503.0</ele><time>2026-04-18T10:21:37.284Z</time></trkpt><trkpt lat="43.4794487" lon="12.7904141"><ele>504.0</ele><time>2026-04-18T10:21:38.285Z</time></trkpt><trkpt lat="43.4793486" lon="12.7903636"><ele>504.99999999999994</ele><time>2026-04-18T10:21:39.285Z</time></trkpt><trkpt lat="43.4792488" lon="12.7903155"><ele>505.99999999999994</ele><time>2026-04-18T10:21:40.284Z</time></trkpt><trkpt lat="43.4791585" lon="12.7902685"><ele>507.0</ele><time>2026-04-18T10:21:41.284Z</time></trkpt><trkpt lat="43.4790613" lon="12.7902275"><ele>508.0</ele><time>2026-04-18T10:21:42.285Z</time></trkpt><trkpt lat="43.4789625" lon="12.7901981"><ele>508.0</ele><time>2026-04-18T10:21:43.285Z</time></trkpt><trkpt lat="43.4788575" lon="12.7901898"><ele>507.99999999999994</ele><time>2026-04-18T10:21:44.284Z</time></trkpt><trkpt lat="43.4787468" lon="12.7901958"><ele>507.99999999999994</ele><time>2026-04-18T10:21:45.284Z</time></trkpt><trkpt lat="43.4786306" lon="12.7901976"><ele>508.0</ele><time>2026-04-18T10:21:46.285Z</time></trkpt><trkpt lat="43.478519" lon="12.7901978"><ele>508.0</ele><time>2026-04-18T10:21:47.284Z</time></trkpt><trkpt lat="43.4784113" lon="12.7901993"><ele>508.4</ele><time>2026-04-18T10:21:48.284Z</time></trkpt><trkpt lat="43.4783056" lon="12.7902048"><ele>508.79999999999995</ele><time>2026-04-18T10:21:49.284Z</time></trkpt><trkpt lat="43.4782016" lon="12.7902135"><ele>509.2</ele><time>2026-04-18T10:21:50.284Z</time></trkpt><trkpt lat="43.4780962" lon="12.7902269"><ele>509.6</ele><time>2026-04-18T10:21:51.284Z</time></trkpt><trkpt lat="43.4779894" lon="12.7902418"><ele>510.0</ele><time>2026-04-18T10:21:52.284Z</time></trkpt><trkpt lat="43.4778747" lon="12.7902558"><ele>510.0</ele><time>2026-04-18T10:21:53.284Z</time></trkpt><trkpt lat="43.4777602" lon="12.7902574"><ele>510.0</ele><time>2026-04-18T10:21:54.285Z</time></trkpt><trkpt lat="43.4776496" lon="12.7902482"><ele>510.0</ele><time>2026-04-18T10:21:55.284Z</time></trkpt><trkpt lat="43.4775426" lon="12.7902333"><ele>510.0</ele><time>2026-04-18T10:21:56.284Z</time></trkpt><trkpt lat="43.4774351" lon="12.7902144"><ele>510.0</ele><time>2026-04-18T10:21:57.285Z</time></trkpt><trkpt lat="43.4773279" lon="12.7901884"><ele>509.0</ele><time>2026-04-18T10:21:58.284Z</time></trkpt><trkpt lat="43.477225" lon="12.790153"><ele>508.0</ele><time>2026-04-18T10:21:59.284Z</time></trkpt><trkpt lat="43.4771237" lon="12.790102"><ele>507.0</ele><time>2026-04-18T10:22:00.285Z</time></trkpt><trkpt lat="43.4770223" lon="12.7900463"><ele>506.0</ele><time>2026-04-18T10:22:01.284Z</time></trkpt><trkpt lat="43.4769227" lon="12.7899904"><ele>505.0</ele><time>2026-04-18T10:22:02.285Z</time></trkpt><trkpt lat="43.4768256" lon="12.7899318"><ele>504.0</ele><time>2026-04-18T10:22:03.284Z</time></trkpt><trkpt lat="43.4767291" lon="12.7898666"><ele>503.0</ele><time>2026-04-18T10:22:04.285Z</time></trkpt><trkpt lat="43.476629" lon="12.7898128"><ele>502.0</ele><time>2026-04-18T10:22:05.284Z</time></trkpt><trkpt lat="43.4765302" lon="12.7897769"><ele>501.0</ele><time>2026-04-18T10:22:06.284Z</time></trkpt><trkpt lat="43.4764415" lon="12.7897484"><ele>500.0</ele><time>2026-04-18T10:22:07.284Z</time></trkpt><trkpt lat="43.4763595" lon="12.7897223"><ele>500.0</ele><time>2026-04-18T10:22:08.285Z</time></trkpt><trkpt lat="43.4762707" lon="12.7897004"><ele>500.0</ele><time>2026-04-18T10:22:09.285Z</time></trkpt><trkpt lat="43.476173" lon="12.7896891"><ele>500.0</ele><time>2026-04-18T10:22:10.284Z</time></trkpt><trkpt lat="43.4760733" lon="12.7896909"><ele>500.0</ele><time>2026-04-18T10:22:11.284Z</time></trkpt><trkpt lat="43.4759778" lon="12.7897137"><ele>500.0</ele><time>2026-04-18T10:22:12.284Z</time></trkpt><trkpt lat="43.4758899" lon="12.7897442"><ele>499.0</ele><time>2026-04-18T10:22:13.284Z</time></trkpt><trkpt lat="43.475801" lon="12.7897525"><ele>498.0</ele><time>2026-04-18T10:22:14.284Z</time></trkpt><trkpt lat="43.4757074" lon="12.7897206"><ele>497.0</ele><time>2026-04-18T10:22:15.285Z</time></trkpt><trkpt lat="43.475621" lon="12.7896728"><ele>496.0</ele><time>2026-04-18T10:22:16.284Z</time></trkpt><trkpt lat="43.4755366" lon="12.7895768"><ele>495.0</ele><time>2026-04-18T10:22:17.284Z</time></trkpt><trkpt lat="43.4754605" lon="12.7894773"><ele>494.6</ele><time>2026-04-18T10:22:18.284Z</time></trkpt><trkpt lat="43.475392" lon="12.7893997"><ele>494.2</ele><time>2026-04-18T10:22:19.284Z</time></trkpt><trkpt lat="43.475318" lon="12.7893375"><ele>493.79999999999995</ele><time>2026-04-18T10:22:20.284Z</time></trkpt><trkpt lat="43.4752287" lon="12.7892942"><ele>493.4</ele><time>2026-04-18T10:22:21.284Z</time></trkpt><trkpt lat="43.4751335" lon="12.7892822"><ele>493.0</ele><time>2026-04-18T10:22:22.285Z</time></trkpt><trkpt lat="43.4750461" lon="12.7893022"><ele>493.0</ele><time>2026-04-18T10:22:23.284Z</time></trkpt><trkpt lat="43.4749578" lon="12.7893437"><ele>492.99999999999994</ele><time>2026-04-18T10:22:24.284Z</time></trkpt><trkpt lat="43.4748788" lon="12.7894075"><ele>492.99999999999994</ele><time>2026-04-18T10:22:25.285Z</time></trkpt><trkpt lat="43.4748158" lon="12.7894974"><ele>493.0</ele><time>2026-04-18T10:22:26.285Z</time></trkpt><trkpt lat="43.4747737" lon="12.7896097"><ele>493.0</ele><time>2026-04-18T10:22:27.284Z</time></trkpt><trkpt lat="43.4747627" lon="12.7897457"><ele>493.0</ele><time>2026-04-18T10:22:28.284Z</time></trkpt><trkpt lat="43.4747628" lon="12.7899139"><ele>493.0</ele><time>2026-04-18T10:22:29.284Z</time></trkpt><trkpt lat="43.4747668" lon="12.7900982"><ele>493.0</ele><time>2026-04-18T10:22:30.284Z</time></trkpt><trkpt lat="43.4747647" lon="12.7902759"><ele>493.0</ele><time>2026-04-18T10:22:31.284Z</time></trkpt><trkpt lat="43.4747648" lon="12.7904522"><ele>492.75</ele><time>2026-04-18T10:22:32.284Z</time></trkpt><trkpt lat="43.4747683" lon="12.7906303"><ele>492.5</ele><time>2026-04-18T10:22:33.284Z</time></trkpt><trkpt lat="43.4747742" lon="12.7908148"><ele>492.25</ele><time>2026-04-18T10:22:34.284Z</time></trkpt><trkpt lat="43.4747855" lon="12.7909987"><ele>492.0</ele><time>2026-04-18T10:22:35.284Z</time></trkpt><trkpt lat="43.4748041" lon="12.7911773"><ele>492.75</ele><time>2026-04-18T10:22:36.285Z</time></trkpt><trkpt lat="43.474828" lon="12.7913479"><ele>493.5</ele><time>2026-04-18T10:22:37.284Z</time></trkpt><trkpt lat="43.4748531" lon="12.7915145"><ele>494.25</ele><time>2026-04-18T10:22:38.284Z</time></trkpt><trkpt lat="43.47487" lon="12.7916606"><ele>495.0</ele><time>2026-04-18T10:22:39.284Z</time></trkpt><trkpt lat="43.474883" lon="12.7917919"><ele>496.0</ele><time>2026-04-18T10:22:40.284Z</time></trkpt><trkpt lat="43.4748804" lon="12.7919119"><ele>497.0</ele><time>2026-04-18T10:22:41.285Z</time></trkpt><trkpt lat="43.4748486" lon="12.7920293"><ele>498.0</ele><time>2026-04-18T10:22:42.285Z</time></trkpt><trkpt lat="43.4747905" lon="12.7921249"><ele>499.0</ele><time>2026-04-18T10:22:43.284Z</time></trkpt><trkpt lat="43.4747139" lon="12.7921888"><ele>500.0</ele><time>2026-04-18T10:22:44.285Z</time></trkpt><trkpt lat="43.4746327" lon="12.7922382"><ele>501.0</ele><time>2026-04-18T10:22:45.284Z</time></trkpt><trkpt lat="43.4745597" lon="12.7922763"><ele>501.8333333333333</ele><time>2026-04-18T10:22:46.284Z</time></trkpt><trkpt lat="43.474493" lon="12.7922919"><ele>502.66666666666663</ele><time>2026-04-18T10:22:47.284Z</time></trkpt><trkpt lat="43.4744301" lon="12.7922724"><ele>503.5</ele><time>2026-04-18T10:22:48.284Z</time></trkpt><trkpt lat="43.4743636" lon="12.7922299"><ele>504.3333333333333</ele><time>2026-04-18T10:22:49.285Z</time></trkpt><trkpt lat="43.4742836" lon="12.7921875"><ele>505.16666666666663</ele><time>2026-04-18T10:22:50.284Z</time></trkpt><trkpt lat="43.4741879" lon="12.7921744"><ele>506.0</ele><time>2026-04-18T10:22:51.284Z</time></trkpt><trkpt lat="43.4740786" lon="12.7921923"><ele>506.0</ele><time>2026-04-18T10:22:52.284Z</time></trkpt><trkpt lat="43.4739711" lon="12.7922287"><ele>506.0</ele><time>2026-04-18T10:22:53.284Z</time></trkpt><trkpt lat="43.4738695" lon="12.7922686"><ele>506.0</ele><time>2026-04-18T10:22:54.284Z</time></trkpt><trkpt lat="43.4737694" lon="12.7922798"><ele>506.0</ele><time>2026-04-18T10:22:55.284Z</time></trkpt><trkpt lat="43.4736702" lon="12.7922386"><ele>506.0</ele><time>2026-04-18T10:22:56.284Z</time></trkpt><trkpt lat="43.4735782" lon="12.7921504"><ele>506.0</ele><time>2026-04-18T10:22:57.284Z</time></trkpt><trkpt lat="43.4734902" lon="12.7920355"><ele>506.0</ele><time>2026-04-18T10:22:58.284Z</time></trkpt><trkpt lat="43.4734028" lon="12.7919121"><ele>506.0</ele><time>2026-04-18T10:22:59.285Z</time></trkpt><trkpt lat="43.4733181" lon="12.7917895"><ele>506.0</ele><time>2026-04-18T10:23:00.284Z</time></trkpt><trkpt lat="43.4732405" lon="12.7916582"><ele>508.25</ele><time>2026-04-18T10:23:01.284Z</time></trkpt><trkpt lat="43.4731697" lon="12.7915245"><ele>510.5</ele><time>2026-04-18T10:23:02.284Z</time></trkpt><trkpt lat="43.4731027" lon="12.7913956"><ele>512.75</ele><time>2026-04-18T10:23:03.285Z</time></trkpt><trkpt lat="43.4730384" lon="12.7912703"><ele>515.0</ele><time>2026-04-18T10:23:04.284Z</time></trkpt><trkpt lat="43.4729789" lon="12.7911511"><ele>514.8</ele><time>2026-04-18T10:23:05.285Z</time></trkpt><trkpt lat="43.4729185" lon="12.7910417"><ele>514.6</ele><time>2026-04-18T10:23:06.284Z</time></trkpt><trkpt lat="43.4728459" lon="12.7909609"><ele>514.4</ele><time>2026-04-18T10:23:07.284Z</time></trkpt><trkpt lat="43.4727664" lon="12.7908971"><ele>514.2</ele><time>2026-04-18T10:23:08.285Z</time></trkpt><trkpt lat="43.4726818" lon="12.7908426"><ele>514.0</ele><time>2026-04-18T10:23:09.284Z</time></trkpt><trkpt lat="43.4726022" lon="12.7907817"><ele>516.0</ele><time>2026-04-18T10:23:10.284Z</time></trkpt><trkpt lat="43.4725269" lon="12.7907077"><ele>518.0</ele><time>2026-04-18T10:23:11.285Z</time></trkpt><trkpt lat="43.4724533" lon="12.7906276"><ele>520.0</ele><time>2026-04-18T10:23:12.285Z</time></trkpt><trkpt lat="43.4723859" lon="12.7905301"><ele>522.0</ele><time>2026-04-18T10:23:13.284Z</time></trkpt><trkpt lat="43.4723209" lon="12.7904195"><ele>524.0</ele><time>2026-04-18T10:23:14.284Z</time></trkpt><trkpt lat="43.4722599" lon="12.7902984"><ele>524.0</ele><time>2026-04-18T10:23:15.285Z</time></trkpt><trkpt lat="43.4722071" lon="12.7901769"><ele>524.0</ele><time>2026-04-18T10:23:16.285Z</time></trkpt><trkpt lat="43.4721536" lon="12.7900533"><ele>524.0</ele><time>2026-04-18T10:23:17.285Z</time></trkpt><trkpt lat="43.4720984" lon="12.7899231"><ele>524.0</ele><time>2026-04-18T10:23:18.284Z</time></trkpt><trkpt lat="43.4720448" lon="12.7897999"><ele>524.0</ele><time>2026-04-18T10:23:19.284Z</time></trkpt><trkpt lat="43.4719938" lon="12.7896874"><ele>523.6666666666666</ele><time>2026-04-18T10:23:20.285Z</time></trkpt><trkpt lat="43.4719509" lon="12.7895941"><ele>523.3333333333333</ele><time>2026-04-18T10:23:21.284Z</time></trkpt><trkpt lat="43.471889" lon="12.7894625"><ele>523.0</ele><time>2026-04-18T10:23:23.284Z</time></trkpt><trkpt lat="43.4718369" lon="12.7893743"><ele>522.6666666666666</ele><time>2026-04-18T10:23:25.285Z</time></trkpt><trkpt lat="43.4717504" lon="12.7894118"><ele>522.3333333333334</ele><time>2026-04-18T10:23:27.285Z</time></trkpt><trkpt lat="43.4716888" lon="12.7894464"><ele>522.0</ele><time>2026-04-18T10:23:28.285Z</time></trkpt><trkpt lat="43.4716156" lon="12.7894634"><ele>522.0</ele><time>2026-04-18T10:23:29.285Z</time></trkpt><trkpt lat="43.4715294" lon="12.7894479"><ele>522.0</ele><time>2026-04-18T10:23:30.285Z</time></trkpt><trkpt lat="43.4714412" lon="12.7893849"><ele>522.0</ele><time>2026-04-18T10:23:31.284Z</time></trkpt><trkpt lat="43.4713557" lon="12.7893039"><ele>522.0</ele><time>2026-04-18T10:23:32.285Z</time></trkpt><trkpt lat="43.4712644" lon="12.7892268"><ele>522.0</ele><time>2026-04-18T10:23:33.284Z</time></trkpt><trkpt lat="43.4711703" lon="12.7891504"><ele>521.0</ele><time>2026-04-18T10:23:34.284Z</time></trkpt><trkpt lat="43.4710725" lon="12.7890725"><ele>520.0</ele><time>2026-04-18T10:23:35.284Z</time></trkpt><trkpt lat="43.4709874" lon="12.7889956"><ele>519.0</ele><time>2026-04-18T10:23:36.284Z</time></trkpt><trkpt lat="43.4709059" lon="12.7889165"><ele>518.0</ele><time>2026-04-18T10:23:37.284Z</time></trkpt><trkpt lat="43.4708301" lon="12.7888352"><ele>517.0</ele><time>2026-04-18T10:23:38.285Z</time></trkpt><trkpt lat="43.470758" lon="12.7887537"><ele>517.0</ele><time>2026-04-18T10:23:39.284Z</time></trkpt><trkpt lat="43.4706894" lon="12.7886654"><ele>517.0</ele><time>2026-04-18T10:23:40.284Z</time></trkpt><trkpt lat="43.4706272" lon="12.7885907"><ele>517.0</ele><time>2026-04-18T10:23:41.284Z</time></trkpt><trkpt lat="43.4705635" lon="12.7885256"><ele>517.0</ele><time>2026-04-18T10:23:42.284Z</time></trkpt><trkpt lat="43.470494" lon="12.7884801"><ele>517.0</ele><time>2026-04-18T10:23:43.285Z</time></trkpt><trkpt lat="43.4704152" lon="12.7884749"><ele>517.0</ele><time>2026-04-18T10:23:44.284Z</time></trkpt><trkpt lat="43.470335" lon="12.7884944"><ele>513.25</ele><time>2026-04-18T10:23:45.284Z</time></trkpt><trkpt lat="43.470238" lon="12.7885485"><ele>509.5</ele><time>2026-04-18T10:23:46.284Z</time></trkpt><trkpt lat="43.4701223" lon="12.7886313"><ele>505.75</ele><time>2026-04-18T10:23:47.284Z</time></trkpt><trkpt lat="43.4700025" lon="12.7887325"><ele>502.0</ele><time>2026-04-18T10:23:48.285Z</time></trkpt><trkpt lat="43.4698936" lon="12.7888356"><ele>502.0</ele><time>2026-04-18T10:23:49.284Z</time></trkpt><trkpt lat="43.4697961" lon="12.7889369"><ele>502.0</ele><time>2026-04-18T10:23:50.284Z</time></trkpt><trkpt lat="43.4696983" lon="12.7890305"><ele>502.0</ele><time>2026-04-18T10:23:51.284Z</time></trkpt><trkpt lat="43.4696025" lon="12.7891192"><ele>502.0</ele><time>2026-04-18T10:23:52.284Z</time></trkpt><trkpt lat="43.4695097" lon="12.7892092"><ele>501.0</ele><time>2026-04-18T10:23:53.284Z</time></trkpt><trkpt lat="43.469428" lon="12.7893046"><ele>500.00000000000006</ele><time>2026-04-18T10:23:54.285Z</time></trkpt><trkpt lat="43.4693591" lon="12.7894079"><ele>499.00000000000006</ele><time>2026-04-18T10:23:55.284Z</time></trkpt><trkpt lat="43.4693118" lon="12.7895363"><ele>498.0</ele><time>2026-04-18T10:23:56.285Z</time></trkpt><trkpt lat="43.4692885" lon="12.7897021"><ele>497.0</ele><time>2026-04-18T10:23:57.284Z</time></trkpt><trkpt lat="43.4692761" lon="12.7898843"><ele>496.0</ele><time>2026-04-18T10:23:58.284Z</time></trkpt><trkpt lat="43.4692654" lon="12.790076"><ele>495.0</ele><time>2026-04-18T10:23:59.284Z</time></trkpt><trkpt lat="43.4692454" lon="12.7902688"><ele>494.0</ele><time>2026-04-18T10:24:00.284Z</time></trkpt><trkpt lat="43.4692157" lon="12.7904538"><ele>493.0</ele><time>2026-04-18T10:24:01.284Z</time></trkpt><trkpt lat="43.4691767" lon="12.7906244"><ele>491.5</ele><time>2026-04-18T10:24:02.284Z</time></trkpt><trkpt lat="43.4691229" lon="12.7907795"><ele>490.0</ele><time>2026-04-18T10:24:03.285Z</time></trkpt><trkpt lat="43.4690555" lon="12.790924"><ele>488.5</ele><time>2026-04-18T10:24:04.285Z</time></trkpt><trkpt lat="43.4689954" lon="12.7910601"><ele>487.0</ele><time>2026-04-18T10:24:05.284Z</time></trkpt><trkpt lat="43.4689676" lon="12.791191"><ele>486.0</ele><time>2026-04-18T10:24:06.284Z</time></trkpt><trkpt lat="43.4689573" lon="12.7913185"><ele>485.00000000000006</ele><time>2026-04-18T10:24:07.284Z</time></trkpt><trkpt lat="43.468949" lon="12.7914522"><ele>484.00000000000006</ele><time>2026-04-18T10:24:08.284Z</time></trkpt><trkpt lat="43.4689353" lon="12.7916072"><ele>483.0</ele><time>2026-04-18T10:24:09.285Z</time></trkpt><trkpt lat="43.4689184" lon="12.7917869"><ele>482.0</ele><time>2026-04-18T10:24:10.285Z</time></trkpt><trkpt lat="43.4689022" lon="12.7919725"><ele>480.75</ele><time>2026-04-18T10:24:11.284Z</time></trkpt><trkpt lat="43.4688875" lon="12.7921525"><ele>479.5</ele><time>2026-04-18T10:24:12.285Z</time></trkpt><trkpt lat="43.4688768" lon="12.792343"><ele>478.25</ele><time>2026-04-18T10:24:13.284Z</time></trkpt><trkpt lat="43.4688661" lon="12.7925345"><ele>477.0</ele><time>2026-04-18T10:24:14.284Z</time></trkpt><trkpt lat="43.4688533" lon="12.7927259"><ele>475.75</ele><time>2026-04-18T10:24:15.285Z</time></trkpt><trkpt lat="43.4688365" lon="12.7929104"><ele>474.5</ele><time>2026-04-18T10:24:16.285Z</time></trkpt><trkpt lat="43.4688155" lon="12.7930821"><ele>473.25</ele><time>2026-04-18T10:24:17.284Z</time></trkpt><trkpt lat="43.4688047" lon="12.7932521"><ele>472.0</ele><time>2026-04-18T10:24:18.284Z</time></trkpt><trkpt lat="43.4688106" lon="12.7934145"><ele>471.40000000000003</ele><time>2026-04-18T10:24:19.284Z</time></trkpt><trkpt lat="43.468827" lon="12.7935664"><ele>470.80000000000007</ele><time>2026-04-18T10:24:20.284Z</time></trkpt><trkpt lat="43.4688488" lon="12.7937057"><ele>470.2</ele><time>2026-04-18T10:24:21.284Z</time></trkpt><trkpt lat="43.4688638" lon="12.793833"><ele>469.6</ele><time>2026-04-18T10:24:22.284Z</time></trkpt><trkpt lat="43.4688797" lon="12.7939604"><ele>469.0</ele><time>2026-04-18T10:24:23.284Z</time></trkpt><trkpt lat="43.4688876" lon="12.7940928"><ele>469.0</ele><time>2026-04-18T10:24:24.284Z</time></trkpt><trkpt lat="43.4688838" lon="12.7942253"><ele>469.0</ele><time>2026-04-18T10:24:25.284Z</time></trkpt><trkpt lat="43.4688735" lon="12.7943628"><ele>469.0</ele><time>2026-04-18T10:24:26.285Z</time></trkpt><trkpt lat="43.4688581" lon="12.7944973"><ele>469.0</ele><time>2026-04-18T10:24:27.284Z</time></trkpt><trkpt lat="43.4688459" lon="12.7946411"><ele>469.0</ele><time>2026-04-18T10:24:28.284Z</time></trkpt><trkpt lat="43.4688334" lon="12.7947765"><ele>468.75</ele><time>2026-04-18T10:24:29.284Z</time></trkpt><trkpt lat="43.4688432" lon="12.7949189"><ele>468.5</ele><time>2026-04-18T10:24:30.284Z</time></trkpt><trkpt lat="43.4688818" lon="12.7950889"><ele>468.25</ele><time>2026-04-18T10:24:31.285Z</time></trkpt><trkpt lat="43.4689625" lon="12.7952099"><ele>468.0</ele><time>2026-04-18T10:24:32.284Z</time></trkpt><trkpt lat="43.4690208" lon="12.7953251"><ele>468.0</ele><time>2026-04-18T10:24:33.284Z</time></trkpt><trkpt lat="43.4690739" lon="12.7954602"><ele>468.0</ele><time>2026-04-18T10:24:34.284Z</time></trkpt><trkpt lat="43.4691253" lon="12.7956167"><ele>468.0</ele><time>2026-04-18T10:24:35.284Z</time></trkpt><trkpt lat="43.4691799" lon="12.7957724"><ele>468.0</ele><time>2026-04-18T10:24:36.284Z</time></trkpt><trkpt lat="43.4692299" lon="12.7959271"><ele>467.25</ele><time>2026-04-18T10:24:37.285Z</time></trkpt><trkpt lat="43.4692728" lon="12.7960817"><ele>466.5</ele><time>2026-04-18T10:24:38.285Z</time></trkpt><trkpt lat="43.46931" lon="12.7962325"><ele>465.75</ele><time>2026-04-18T10:24:39.285Z</time></trkpt><trkpt lat="43.4693428" lon="12.7963888"><ele>465.0</ele><time>2026-04-18T10:24:40.285Z</time></trkpt><trkpt lat="43.4693722" lon="12.7965517"><ele>465.0</ele><time>2026-04-18T10:24:41.284Z</time></trkpt><trkpt lat="43.4693973" lon="12.7967218"><ele>465.0</ele><time>2026-04-18T10:24:42.284Z</time></trkpt><trkpt lat="43.4694139" lon="12.7968964"><ele>465.0</ele><time>2026-04-18T10:24:43.284Z</time></trkpt><trkpt lat="43.4694236" lon="12.7970687"><ele>465.0</ele><time>2026-04-18T10:24:44.284Z</time></trkpt><trkpt lat="43.469421" lon="12.7972357"><ele>465.0</ele><time>2026-04-18T10:24:45.284Z</time></trkpt><trkpt lat="43.4694084" lon="12.7974061"><ele>465.0</ele><time>2026-04-18T10:24:46.284Z</time></trkpt><trkpt lat="43.4693939" lon="12.7975754"><ele>465.0</ele><time>2026-04-18T10:24:47.285Z</time></trkpt><trkpt lat="43.469379" lon="12.7977404"><ele>465.0</ele><time>2026-04-18T10:24:48.284Z</time></trkpt><trkpt lat="43.4693694" lon="12.7978959"><ele>464.0</ele><time>2026-04-18T10:24:49.284Z</time></trkpt><trkpt lat="43.4693604" lon="12.798045"><ele>463.0</ele><time>2026-04-18T10:24:50.284Z</time></trkpt><trkpt lat="43.4693523" lon="12.7981776"><ele>462.0</ele><time>2026-04-18T10:24:51.284Z</time></trkpt><trkpt lat="43.469349" lon="12.7982966"><ele>461.0</ele><time>2026-04-18T10:24:52.284Z</time></trkpt><trkpt lat="43.4693581" lon="12.7984056"><ele>460.0</ele><time>2026-04-18T10:24:53.284Z</time></trkpt><trkpt lat="43.4693932" lon="12.7985098"><ele>459.6</ele><time>2026-04-18T10:24:54.285Z</time></trkpt><trkpt lat="43.4694573" lon="12.7986112"><ele>459.2</ele><time>2026-04-18T10:24:55.285Z</time></trkpt><trkpt lat="43.4695293" lon="12.798715"><ele>458.79999999999995</ele><time>2026-04-18T10:24:56.284Z</time></trkpt><trkpt lat="43.4696144" lon="12.7988103"><ele>458.4</ele><time>2026-04-18T10:24:57.285Z</time></trkpt><trkpt lat="43.4696995" lon="12.7989095"><ele>458.0</ele><time>2026-04-18T10:24:58.284Z</time></trkpt><trkpt lat="43.4697736" lon="12.7990034"><ele>458.0</ele><time>2026-04-18T10:24:59.284Z</time></trkpt><trkpt lat="43.4698245" lon="12.7991181"><ele>457.99999999999994</ele><time>2026-04-18T10:25:00.285Z</time></trkpt><trkpt lat="43.4698574" lon="12.799254"><ele>457.99999999999994</ele><time>2026-04-18T10:25:01.284Z</time></trkpt><trkpt lat="43.4698713" lon="12.7994031"><ele>458.0</ele><time>2026-04-18T10:25:02.285Z</time></trkpt><trkpt lat="43.4698622" lon="12.7995681"><ele>458.0</ele><time>2026-04-18T10:25:03.285Z</time></trkpt><trkpt lat="43.4698422" lon="12.7997396"><ele>459.0</ele><time>2026-04-18T10:25:04.284Z</time></trkpt><trkpt lat="43.4698196" lon="12.7998998"><ele>460.0</ele><time>2026-04-18T10:25:05.285Z</time></trkpt><trkpt lat="43.469797" lon="12.8000573"><ele>461.0</ele><time>2026-04-18T10:25:06.284Z</time></trkpt><trkpt lat="43.469773" lon="12.8002109"><ele>462.0</ele><time>2026-04-18T10:25:07.285Z</time></trkpt><trkpt lat="43.4697572" lon="12.8003727"><ele>462.75</ele><time>2026-04-18T10:25:08.284Z</time></trkpt><trkpt lat="43.4697475" lon="12.8005409"><ele>463.5</ele><time>2026-04-18T10:25:09.284Z</time></trkpt><trkpt lat="43.4697447" lon="12.800707"><ele>464.25</ele><time>2026-04-18T10:25:10.284Z</time></trkpt><trkpt lat="43.4697396" lon="12.8008843"><ele>465.0</ele><time>2026-04-18T10:25:11.284Z</time></trkpt><trkpt lat="43.4697288" lon="12.801053"><ele>465.0</ele><time>2026-04-18T10:25:12.285Z</time></trkpt><trkpt lat="43.4697281" lon="12.8012183"><ele>465.0</ele><time>2026-04-18T10:25:13.284Z</time></trkpt><trkpt lat="43.4697277" lon="12.8013871"><ele>465.0</ele><time>2026-04-18T10:25:14.284Z</time></trkpt><trkpt lat="43.4697257" lon="12.8015491"><ele>465.0</ele><time>2026-04-18T10:25:15.285Z</time></trkpt><trkpt lat="43.4697294" lon="12.8017066"><ele>464.4</ele><time>2026-04-18T10:25:16.284Z</time></trkpt><trkpt lat="43.4697306" lon="12.8018566"><ele>463.8</ele><time>2026-04-18T10:25:17.284Z</time></trkpt><trkpt lat="43.4697378" lon="12.8020041"><ele>463.20000000000005</ele><time>2026-04-18T10:25:18.284Z</time></trkpt><trkpt lat="43.4697448" lon="12.8021414"><ele>462.6</ele><time>2026-04-18T10:25:19.284Z</time></trkpt><trkpt lat="43.4697315" lon="12.8022839"><ele>462.0</ele><time>2026-04-18T10:25:20.284Z</time></trkpt><trkpt lat="43.4696932" lon="12.8024273"><ele>462.0</ele><time>2026-04-18T10:25:21.285Z</time></trkpt><trkpt lat="43.4696308" lon="12.8025633"><ele>462.0</ele><time>2026-04-18T10:25:22.285Z</time></trkpt><trkpt lat="43.4695484" lon="12.8026914"><ele>462.0</ele><time>2026-04-18T10:25:23.284Z</time></trkpt><trkpt lat="43.4694551" lon="12.8028046"><ele>462.0</ele><time>2026-04-18T10:25:24.285Z</time></trkpt><trkpt lat="43.4693704" lon="12.8029229"><ele>461.0</ele><time>2026-04-18T10:25:25.284Z</time></trkpt><trkpt lat="43.4692932" lon="12.8030405"><ele>460.0</ele><time>2026-04-18T10:25:26.284Z</time></trkpt><trkpt lat="43.4692238" lon="12.8031576"><ele>459.0</ele><time>2026-04-18T10:25:27.285Z</time></trkpt><trkpt lat="43.4691643" lon="12.8032949"><ele>458.0</ele><time>2026-04-18T10:25:28.285Z</time></trkpt><trkpt lat="43.4691125" lon="12.8034283"><ele>458.4</ele><time>2026-04-18T10:25:29.285Z</time></trkpt><trkpt lat="43.4690621" lon="12.8035523"><ele>458.79999999999995</ele><time>2026-04-18T10:25:30.285Z</time></trkpt><trkpt lat="43.4690088" lon="12.8036817"><ele>459.2</ele><time>2026-04-18T10:25:31.285Z</time></trkpt><trkpt lat="43.4689354" lon="12.8037923"><ele>459.6</ele><time>2026-04-18T10:25:32.285Z</time></trkpt><trkpt lat="43.4688454" lon="12.803882"><ele>460.0</ele><time>2026-04-18T10:25:33.284Z</time></trkpt><trkpt lat="43.4687618" lon="12.8039682"><ele>458.0</ele><time>2026-04-18T10:25:34.284Z</time></trkpt><trkpt lat="43.468689" lon="12.8040628"><ele>456.0</ele><time>2026-04-18T10:25:35.285Z</time></trkpt><trkpt lat="43.4686254" lon="12.8041903"><ele>454.0</ele><time>2026-04-18T10:25:36.284Z</time></trkpt><trkpt lat="43.4685692" lon="12.8043406"><ele>452.0</ele><time>2026-04-18T10:25:37.284Z</time></trkpt><trkpt lat="43.4685265" lon="12.8045089"><ele>452.0</ele><time>2026-04-18T10:25:38.285Z</time></trkpt><trkpt lat="43.468488" lon="12.804677"><ele>452.0</ele><time>2026-04-18T10:25:39.285Z</time></trkpt><trkpt lat="43.4684621" lon="12.8048454"><ele>452.0</ele><time>2026-04-18T10:25:40.285Z</time></trkpt><trkpt lat="43.4684443" lon="12.8050105"><ele>452.0</ele><time>2026-04-18T10:25:41.285Z</time></trkpt><trkpt lat="43.4684301" lon="12.8051671"><ele>451.20000000000005</ele><time>2026-04-18T10:25:42.285Z</time></trkpt><trkpt lat="43.468414" lon="12.8053156"><ele>450.40000000000003</ele><time>2026-04-18T10:25:43.284Z</time></trkpt><trkpt lat="43.4683861" lon="12.8054527"><ele>449.59999999999997</ele><time>2026-04-18T10:25:44.285Z</time></trkpt><trkpt lat="43.4683311" lon="12.8055788"><ele>448.79999999999995</ele><time>2026-04-18T10:25:45.284Z</time></trkpt><trkpt lat="43.4682469" lon="12.805693"><ele>448.0</ele><time>2026-04-18T10:25:46.285Z</time></trkpt><trkpt lat="43.4681603" lon="12.8057796"><ele>448.0</ele><time>2026-04-18T10:25:47.285Z</time></trkpt><trkpt lat="43.4680874" lon="12.8058512"><ele>447.99999999999994</ele><time>2026-04-18T10:25:48.284Z</time></trkpt><trkpt lat="43.468025" lon="12.8059395"><ele>447.99999999999994</ele><time>2026-04-18T10:25:49.285Z</time></trkpt><trkpt lat="43.4679677" lon="12.8060432"><ele>448.0</ele><time>2026-04-18T10:25:50.285Z</time></trkpt><trkpt lat="43.467928" lon="12.8061839"><ele>448.0</ele><time>2026-04-18T10:25:51.284Z</time></trkpt><trkpt lat="43.4679039" lon="12.8063514"><ele>446.5</ele><time>2026-04-18T10:25:52.285Z</time></trkpt><trkpt lat="43.467888" lon="12.8065265"><ele>445.0</ele><time>2026-04-18T10:25:53.284Z</time></trkpt><trkpt lat="43.4678711" lon="12.8067064"><ele>443.5</ele><time>2026-04-18T10:25:54.284Z</time></trkpt><trkpt lat="43.4678503" lon="12.8068764"><ele>442.0</ele><time>2026-04-18T10:25:55.285Z</time></trkpt><trkpt lat="43.4678265" lon="12.8070372"><ele>441.75</ele><time>2026-04-18T10:25:56.284Z</time></trkpt><trkpt lat="43.4678024" lon="12.8071908"><ele>441.5</ele><time>2026-04-18T10:25:57.284Z</time></trkpt><trkpt lat="43.467783" lon="12.8073412"><ele>441.25</ele><time>2026-04-18T10:25:58.284Z</time></trkpt><trkpt lat="43.467763" lon="12.8074888"><ele>441.0</ele><time>2026-04-18T10:25:59.285Z</time></trkpt><trkpt lat="43.4677473" lon="12.8076474"><ele>440.0</ele><time>2026-04-18T10:26:00.284Z</time></trkpt><trkpt lat="43.4677362" lon="12.807814"><ele>439.0</ele><time>2026-04-18T10:26:01.284Z</time></trkpt><trkpt lat="43.4677197" lon="12.8079796"><ele>438.0</ele><time>2026-04-18T10:26:02.285Z</time></trkpt><trkpt lat="43.4676921" lon="12.8081395"><ele>437.0</ele><time>2026-04-18T10:26:03.285Z</time></trkpt><trkpt lat="43.4676568" lon="12.8082954"><ele>437.0</ele><time>2026-04-18T10:26:04.284Z</time></trkpt><trkpt lat="43.4676152" lon="12.8084441"><ele>437.00000000000006</ele><time>2026-04-18T10:26:05.285Z</time></trkpt><trkpt lat="43.4675723" lon="12.8085875"><ele>437.00000000000006</ele><time>2026-04-18T10:26:06.285Z</time></trkpt><trkpt lat="43.4675266" lon="12.8087225"><ele>437.0</ele><time>2026-04-18T10:26:07.284Z</time></trkpt><trkpt lat="43.4674839" lon="12.8088598"><ele>437.0</ele><time>2026-04-18T10:26:08.285Z</time></trkpt><trkpt lat="43.4674442" lon="12.8089983"><ele>437.20000000000005</ele><time>2026-04-18T10:26:09.284Z</time></trkpt><trkpt lat="43.4674042" lon="12.8091381"><ele>437.40000000000003</ele><time>2026-04-18T10:26:10.285Z</time></trkpt><trkpt lat="43.4673715" lon="12.80928"><ele>437.59999999999997</ele><time>2026-04-18T10:26:11.285Z</time></trkpt><trkpt lat="43.4673415" lon="12.8094232"><ele>437.79999999999995</ele><time>2026-04-18T10:26:12.285Z</time></trkpt><trkpt lat="43.4673104" lon="12.8095547"><ele>438.0</ele><time>2026-04-18T10:26:13.284Z</time></trkpt><trkpt lat="43.4672803" lon="12.8096775"><ele>437.2</ele><time>2026-04-18T10:26:14.284Z</time></trkpt><trkpt lat="43.4672542" lon="12.8097982"><ele>436.4</ele><time>2026-04-18T10:26:15.284Z</time></trkpt><trkpt lat="43.4672347" lon="12.8099242"><ele>435.59999999999997</ele><time>2026-04-18T10:26:16.284Z</time></trkpt><trkpt lat="43.4672269" lon="12.8100554"><ele>434.79999999999995</ele><time>2026-04-18T10:26:17.284Z</time></trkpt><trkpt lat="43.4672267" lon="12.8101868"><ele>434.0</ele><time>2026-04-18T10:26:18.284Z</time></trkpt><trkpt lat="43.4672156" lon="12.81032"><ele>433.2</ele><time>2026-04-18T10:26:19.284Z</time></trkpt><trkpt lat="43.4671837" lon="12.8104589"><ele>432.4</ele><time>2026-04-18T10:26:20.284Z</time></trkpt><trkpt lat="43.4671379" lon="12.8105837"><ele>431.6</ele><time>2026-04-18T10:26:21.284Z</time></trkpt><trkpt lat="43.467089" lon="12.8106923"><ele>430.8</ele><time>2026-04-18T10:26:22.284Z</time></trkpt><trkpt lat="43.4670314" lon="12.8107988"><ele>430.0</ele><time>2026-04-18T10:26:23.284Z</time></trkpt><trkpt lat="43.4669718" lon="12.8109013"><ele>427.8</ele><time>2026-04-18T10:26:24.285Z</time></trkpt><trkpt lat="43.4668961" lon="12.810994"><ele>425.6</ele><time>2026-04-18T10:26:25.284Z</time></trkpt><trkpt lat="43.4668049" lon="12.8110759"><ele>423.4</ele><time>2026-04-18T10:26:26.285Z</time></trkpt><trkpt lat="43.4667006" lon="12.8111312"><ele>421.2</ele><time>2026-04-18T10:26:27.285Z</time></trkpt><trkpt lat="43.4665844" lon="12.8111641"><ele>419.0</ele><time>2026-04-18T10:26:28.285Z</time></trkpt><trkpt lat="43.4664657" lon="12.8111875"><ele>419.0</ele><time>2026-04-18T10:26:29.284Z</time></trkpt><trkpt lat="43.4663504" lon="12.8112119"><ele>419.0</ele><time>2026-04-18T10:26:30.284Z</time></trkpt><trkpt lat="43.4662293" lon="12.8112438"><ele>419.0</ele><time>2026-04-18T10:26:31.285Z</time></trkpt><trkpt lat="43.4661111" lon="12.8112871"><ele>419.0</ele><time>2026-04-18T10:26:32.285Z</time></trkpt><trkpt lat="43.4660022" lon="12.8113258"><ele>416.8333333333333</ele><time>2026-04-18T10:26:33.284Z</time></trkpt><trkpt lat="43.4658987" lon="12.8113444"><ele>414.66666666666663</ele><time>2026-04-18T10:26:34.284Z</time></trkpt><trkpt lat="43.4658007" lon="12.8113498"><ele>412.5</ele><time>2026-04-18T10:26:35.284Z</time></trkpt><trkpt lat="43.4657091" lon="12.8113528"><ele>410.33333333333337</ele><time>2026-04-18T10:26:36.285Z</time></trkpt><trkpt lat="43.4656291" lon="12.8113719"><ele>408.1666666666667</ele><time>2026-04-18T10:26:37.285Z</time></trkpt><trkpt lat="43.4655767" lon="12.8114316"><ele>406.0</ele><time>2026-04-18T10:26:38.284Z</time></trkpt><trkpt lat="43.4655549" lon="12.8115244"><ele>406.00000000000006</ele><time>2026-04-18T10:26:39.284Z</time></trkpt><trkpt lat="43.4655693" lon="12.8116364"><ele>406.0</ele><time>2026-04-18T10:26:40.284Z</time></trkpt><trkpt lat="43.4656041" lon="12.8117474"><ele>406.0</ele><time>2026-04-18T10:26:41.284Z</time></trkpt><trkpt lat="43.4656278" lon="12.8118434"><ele>406.0</ele><time>2026-04-18T10:26:42.284Z</time></trkpt><trkpt lat="43.4656303" lon="12.8119312"><ele>406.00000000000006</ele><time>2026-04-18T10:26:43.284Z</time></trkpt><trkpt lat="43.4656078" lon="12.8120588"><ele>406.0</ele><time>2026-04-18T10:26:45.285Z</time></trkpt><trkpt lat="43.4655165" lon="12.8119969"><ele>404.6666666666667</ele><time>2026-04-18T10:26:48.285Z</time></trkpt><trkpt lat="43.465477" lon="12.8119105"><ele>403.33333333333337</ele><time>2026-04-18T10:26:49.284Z</time></trkpt><trkpt lat="43.4654291" lon="12.8118123"><ele>402.0</ele><time>2026-04-18T10:26:50.285Z</time></trkpt><trkpt lat="43.4653694" lon="12.8117283"><ele>400.66666666666663</ele><time>2026-04-18T10:26:51.284Z</time></trkpt><trkpt lat="43.4653061" lon="12.8116393"><ele>399.3333333333333</ele><time>2026-04-18T10:26:52.284Z</time></trkpt><trkpt lat="43.4652451" lon="12.8115445"><ele>398.0</ele><time>2026-04-18T10:26:53.285Z</time></trkpt><trkpt lat="43.465196" lon="12.8114308"><ele>398.0</ele><time>2026-04-18T10:26:54.285Z</time></trkpt><trkpt lat="43.4651741" lon="12.8112926"><ele>398.0</ele><time>2026-04-18T10:26:55.284Z</time></trkpt><trkpt lat="43.465178" lon="12.8111292"><ele>398.0</ele><time>2026-04-18T10:26:56.284Z</time></trkpt><trkpt lat="43.4651994" lon="12.8109477"><ele>398.0</ele><time>2026-04-18T10:26:57.285Z</time></trkpt><trkpt lat="43.4652363" lon="12.8107583"><ele>398.66666666666663</ele><time>2026-04-18T10:26:58.284Z</time></trkpt><trkpt lat="43.4652915" lon="12.8105637"><ele>399.33333333333337</ele><time>2026-04-18T10:26:59.285Z</time></trkpt><trkpt lat="43.46536" lon="12.8103782"><ele>400.0</ele><time>2026-04-18T10:27:00.285Z</time></trkpt><trkpt lat="43.465438" lon="12.8101964"><ele>401.6666666666667</ele><time>2026-04-18T10:27:01.284Z</time></trkpt><trkpt lat="43.4655194" lon="12.8100094"><ele>403.33333333333337</ele><time>2026-04-18T10:27:02.284Z</time></trkpt><trkpt lat="43.4655952" lon="12.8098154"><ele>405.0</ele><time>2026-04-18T10:27:03.285Z</time></trkpt><trkpt lat="43.4656755" lon="12.8096252"><ele>405.0</ele><time>2026-04-18T10:27:04.285Z</time></trkpt><trkpt lat="43.4657553" lon="12.809442"><ele>405.0</ele><time>2026-04-18T10:27:05.285Z</time></trkpt><trkpt lat="43.4658249" lon="12.8092789"><ele>405.0</ele><time>2026-04-18T10:27:06.285Z</time></trkpt><trkpt lat="43.4658804" lon="12.8091404"><ele>405.0</ele><time>2026-04-18T10:27:07.285Z</time></trkpt><trkpt lat="43.4659189" lon="12.8090195"><ele>405.1666666666667</ele><time>2026-04-18T10:27:08.285Z</time></trkpt><trkpt lat="43.465926" lon="12.8089055"><ele>405.33333333333337</ele><time>2026-04-18T10:27:09.285Z</time></trkpt><trkpt lat="43.4658965" lon="12.8088111"><ele>405.5</ele><time>2026-04-18T10:27:10.284Z</time></trkpt><trkpt lat="43.4658314" lon="12.8087396"><ele>405.6666666666667</ele><time>2026-04-18T10:27:11.284Z</time></trkpt><trkpt lat="43.4657447" lon="12.80869"><ele>405.83333333333337</ele><time>2026-04-18T10:27:12.284Z</time></trkpt><trkpt lat="43.4656365" lon="12.8086682"><ele>406.0</ele><time>2026-04-18T10:27:13.284Z</time></trkpt><trkpt lat="43.4655156" lon="12.8086801"><ele>406.25</ele><time>2026-04-18T10:27:14.284Z</time></trkpt><trkpt lat="43.4653923" lon="12.8087289"><ele>406.5</ele><time>2026-04-18T10:27:15.284Z</time></trkpt><trkpt lat="43.4652667" lon="12.8088068"><ele>406.75</ele><time>2026-04-18T10:27:16.285Z</time></trkpt><trkpt lat="43.465145" lon="12.8088849"><ele>407.0</ele><time>2026-04-18T10:27:17.285Z</time></trkpt><trkpt lat="43.4650292" lon="12.8089507"><ele>407.0</ele><time>2026-04-18T10:27:18.284Z</time></trkpt><trkpt lat="43.4649083" lon="12.8089994"><ele>407.0</ele><time>2026-04-18T10:27:19.284Z</time></trkpt><trkpt lat="43.4647791" lon="12.8090296"><ele>407.0</ele><time>2026-04-18T10:27:20.284Z</time></trkpt><trkpt lat="43.4646456" lon="12.809054"><ele>407.0</ele><time>2026-04-18T10:27:21.285Z</time></trkpt><trkpt lat="43.4645192" lon="12.8090825"><ele>407.6</ele><time>2026-04-18T10:27:22.285Z</time></trkpt><trkpt lat="43.4644002" lon="12.8091198"><ele>408.20000000000005</ele><time>2026-04-18T10:27:23.284Z</time></trkpt><trkpt lat="43.4642927" lon="12.8091873"><ele>408.8</ele><time>2026-04-18T10:27:24.284Z</time></trkpt><trkpt lat="43.464204" lon="12.8092739"><ele>409.4</ele><time>2026-04-18T10:27:25.285Z</time></trkpt><trkpt lat="43.4641257" lon="12.8093449"><ele>410.0</ele><time>2026-04-18T10:27:26.284Z</time></trkpt><trkpt lat="43.4640352" lon="12.8093688"><ele>410.0</ele><time>2026-04-18T10:27:27.285Z</time></trkpt><trkpt lat="43.4639408" lon="12.809333"><ele>410.0</ele><time>2026-04-18T10:27:28.285Z</time></trkpt><trkpt lat="43.4638604" lon="12.8092516"><ele>410.0</ele><time>2026-04-18T10:27:29.285Z</time></trkpt><trkpt lat="43.4637917" lon="12.8091519"><ele>410.0</ele><time>2026-04-18T10:27:30.284Z</time></trkpt><trkpt lat="43.4637202" lon="12.8090353"><ele>410.0</ele><time>2026-04-18T10:27:31.284Z</time></trkpt><trkpt lat="43.463645" lon="12.8089051"><ele>412.5</ele><time>2026-04-18T10:27:32.285Z</time></trkpt><trkpt lat="43.4635668" lon="12.8087681"><ele>415.0</ele><time>2026-04-18T10:27:33.284Z</time></trkpt><trkpt lat="43.4634836" lon="12.808633"><ele>417.5</ele><time>2026-04-18T10:27:34.284Z</time></trkpt><trkpt lat="43.4634028" lon="12.8084981"><ele>420.0</ele><time>2026-04-18T10:27:35.284Z</time></trkpt><trkpt lat="43.4633226" lon="12.808365"><ele>422.25</ele><time>2026-04-18T10:27:36.284Z</time></trkpt><trkpt lat="43.4632411" lon="12.8082324"><ele>424.5</ele><time>2026-04-18T10:27:37.285Z</time></trkpt><trkpt lat="43.4631583" lon="12.8081024"><ele>426.75</ele><time>2026-04-18T10:27:38.285Z</time></trkpt><trkpt lat="43.4630808" lon="12.8079719"><ele>429.0</ele><time>2026-04-18T10:27:39.285Z</time></trkpt><trkpt lat="43.4630078" lon="12.807842"><ele>429.25</ele><time>2026-04-18T10:27:40.285Z</time></trkpt><trkpt lat="43.462934" lon="12.8077118"><ele>429.5</ele><time>2026-04-18T10:27:41.284Z</time></trkpt><trkpt lat="43.4628576" lon="12.8075816"><ele>429.75</ele><time>2026-04-18T10:27:42.284Z</time></trkpt><trkpt lat="43.462782" lon="12.8074482"><ele>430.0</ele><time>2026-04-18T10:27:43.284Z</time></trkpt><trkpt lat="43.4627055" lon="12.8073137"><ele>432.0</ele><time>2026-04-18T10:27:44.284Z</time></trkpt><trkpt lat="43.4626252" lon="12.8071835"><ele>434.0</ele><time>2026-04-18T10:27:45.284Z</time></trkpt><trkpt lat="43.4625288" lon="12.8070753"><ele>436.0</ele><time>2026-04-18T10:27:46.284Z</time></trkpt><trkpt lat="43.4624185" lon="12.8069968"><ele>438.0</ele><time>2026-04-18T10:27:47.284Z</time></trkpt><trkpt lat="43.4623003" lon="12.8069361"><ele>438.0</ele><time>2026-04-18T10:27:48.284Z</time></trkpt><trkpt lat="43.4621787" lon="12.8068731"><ele>438.0</ele><time>2026-04-18T10:27:49.285Z</time></trkpt><trkpt lat="43.4620585" lon="12.8068054"><ele>438.0</ele><time>2026-04-18T10:27:50.284Z</time></trkpt><trkpt lat="43.4619467" lon="12.8067224"><ele>438.0</ele><time>2026-04-18T10:27:51.284Z</time></trkpt><trkpt lat="43.4618389" lon="12.8066271"><ele>440.5</ele><time>2026-04-18T10:27:52.284Z</time></trkpt><trkpt lat="43.4617391" lon="12.8065227"><ele>443.0</ele><time>2026-04-18T10:27:53.284Z</time></trkpt><trkpt lat="43.4616429" lon="12.8064256"><ele>445.5</ele><time>2026-04-18T10:27:54.285Z</time></trkpt><trkpt lat="43.4615404" lon="12.8063674"><ele>448.0</ele><time>2026-04-18T10:27:55.284Z</time></trkpt><trkpt lat="43.4614166" lon="12.8063578"><ele>448.0</ele><time>2026-04-18T10:27:56.284Z</time></trkpt><trkpt lat="43.4612813" lon="12.8063725"><ele>448.0</ele><time>2026-04-18T10:27:57.284Z</time></trkpt><trkpt lat="43.4611507" lon="12.8063941"><ele>448.0</ele><time>2026-04-18T10:27:58.284Z</time></trkpt><trkpt lat="43.4610185" lon="12.8064003"><ele>448.0</ele><time>2026-04-18T10:27:59.285Z</time></trkpt><trkpt lat="43.4608822" lon="12.8063835"><ele>448.0</ele><time>2026-04-18T10:28:00.284Z</time></trkpt><trkpt lat="43.4607491" lon="12.8063418"><ele>448.0</ele><time>2026-04-18T10:28:01.284Z</time></trkpt><trkpt lat="43.4606151" lon="12.8062912"><ele>448.0</ele><time>2026-04-18T10:28:02.284Z</time></trkpt><trkpt lat="43.4604779" lon="12.8062286"><ele>448.0</ele><time>2026-04-18T10:28:03.285Z</time></trkpt><trkpt lat="43.46034" lon="12.8061657"><ele>449.25</ele><time>2026-04-18T10:28:04.285Z</time></trkpt><trkpt lat="43.4602055" lon="12.8061057"><ele>450.5</ele><time>2026-04-18T10:28:05.285Z</time></trkpt><trkpt lat="43.46007" lon="12.8060486"><ele>451.75</ele><time>2026-04-18T10:28:06.285Z</time></trkpt><trkpt lat="43.4599309" lon="12.8059874"><ele>453.0</ele><time>2026-04-18T10:28:07.285Z</time></trkpt><trkpt lat="43.4597973" lon="12.8059296"><ele>455.75</ele><time>2026-04-18T10:28:08.284Z</time></trkpt><trkpt lat="43.4596633" lon="12.8058715"><ele>458.5</ele><time>2026-04-18T10:28:09.284Z</time></trkpt><trkpt lat="43.4595287" lon="12.8058125"><ele>461.25</ele><time>2026-04-18T10:28:10.284Z</time></trkpt><trkpt lat="43.4593972" lon="12.8057558"><ele>464.0</ele><time>2026-04-18T10:28:11.285Z</time></trkpt><trkpt lat="43.4592661" lon="12.8057003"><ele>464.0</ele><time>2026-04-18T10:28:12.285Z</time></trkpt><trkpt lat="43.4591367" lon="12.8056522"><ele>464.0</ele><time>2026-04-18T10:28:13.285Z</time></trkpt><trkpt lat="43.4590065" lon="12.805605"><ele>464.0</ele><time>2026-04-18T10:28:14.284Z</time></trkpt><trkpt lat="43.458892" lon="12.8055588"><ele>464.0</ele><time>2026-04-18T10:28:15.284Z</time></trkpt><trkpt lat="43.4588012" lon="12.8055125"><ele>463.79999999999995</ele><time>2026-04-18T10:28:16.285Z</time></trkpt><trkpt lat="43.4587254" lon="12.8054517"><ele>463.59999999999997</ele><time>2026-04-18T10:28:17.284Z</time></trkpt><trkpt lat="43.4586696" lon="12.8053614"><ele>463.4</ele><time>2026-04-18T10:28:18.284Z</time></trkpt><trkpt lat="43.4586572" lon="12.8052389"><ele>463.2</ele><time>2026-04-18T10:28:19.284Z</time></trkpt><trkpt lat="43.4586979" lon="12.8051196"><ele>463.0</ele><time>2026-04-18T10:28:20.284Z</time></trkpt><trkpt lat="43.4587783" lon="12.8050459"><ele>466.5</ele><time>2026-04-18T10:28:21.284Z</time></trkpt><trkpt lat="43.4588849" lon="12.8050151"><ele>470.0</ele><time>2026-04-18T10:28:22.284Z</time></trkpt><trkpt lat="43.4590087" lon="12.8049994"><ele>473.5</ele><time>2026-04-18T10:28:23.285Z</time></trkpt><trkpt lat="43.4591367" lon="12.804978"><ele>477.0</ele><time>2026-04-18T10:28:24.284Z</time></trkpt><trkpt lat="43.4592625" lon="12.8049478"><ele>477.0</ele><time>2026-04-18T10:28:25.285Z</time></trkpt><trkpt lat="43.4593885" lon="12.8049209"><ele>477.0</ele><time>2026-04-18T10:28:26.284Z</time></trkpt><trkpt lat="43.4595144" lon="12.804897"><ele>477.0</ele><time>2026-04-18T10:28:27.284Z</time></trkpt><trkpt lat="43.459646" lon="12.804881"><ele>477.0</ele><time>2026-04-18T10:28:28.285Z</time></trkpt><trkpt lat="43.459778" lon="12.804875"><ele>477.5</ele><time>2026-04-18T10:28:29.284Z</time></trkpt><trkpt lat="43.4599131" lon="12.8048775"><ele>478.0</ele><time>2026-04-18T10:28:30.284Z</time></trkpt><trkpt lat="43.4600496" lon="12.8048817"><ele>478.5</ele><time>2026-04-18T10:28:31.285Z</time></trkpt><trkpt lat="43.4601822" lon="12.8048789"><ele>479.0</ele><time>2026-04-18T10:28:32.284Z</time></trkpt><trkpt lat="43.4603029" lon="12.8048659"><ele>479.0</ele><time>2026-04-18T10:28:33.284Z</time></trkpt><trkpt lat="43.4604099" lon="12.8048357"><ele>479.0</ele><time>2026-04-18T10:28:34.284Z</time></trkpt><trkpt lat="43.4605014" lon="12.8047692"><ele>479.0</ele><time>2026-04-18T10:28:35.284Z</time></trkpt><trkpt lat="43.4605778" lon="12.8046731"><ele>479.0</ele><time>2026-04-18T10:28:36.284Z</time></trkpt><trkpt lat="43.4606517" lon="12.8045792"><ele>479.0</ele><time>2026-04-18T10:28:37.284Z</time></trkpt><trkpt lat="43.4607308" lon="12.8044886"><ele>479.79999999999995</ele><time>2026-04-18T10:28:38.284Z</time></trkpt><trkpt lat="43.4608104" lon="12.804391"><ele>480.59999999999997</ele><time>2026-04-18T10:28:39.284Z</time></trkpt><trkpt lat="43.4608898" lon="12.8042896"><ele>481.4</ele><time>2026-04-18T10:28:40.285Z</time></trkpt><trkpt lat="43.4609642" lon="12.8041894"><ele>482.2</ele><time>2026-04-18T10:28:41.284Z</time></trkpt><trkpt lat="43.4610237" lon="12.8041027"><ele>483.0</ele><time>2026-04-18T10:28:42.285Z</time></trkpt><trkpt lat="43.4610617" lon="12.8040227"><ele>484.8333333333333</ele><time>2026-04-18T10:28:43.285Z</time></trkpt><trkpt lat="43.4610771" lon="12.8039381"><ele>486.66666666666663</ele><time>2026-04-18T10:28:44.285Z</time></trkpt><trkpt lat="43.4610458" lon="12.8038108"><ele>488.5</ele><time>2026-04-18T10:28:46.284Z</time></trkpt><trkpt lat="43.4609434" lon="12.8037838"><ele>490.3333333333333</ele><time>2026-04-18T10:28:48.284Z</time></trkpt><trkpt lat="43.4608782" lon="12.8037916"><ele>492.16666666666663</ele><time>2026-04-18T10:28:49.284Z</time></trkpt><trkpt lat="43.4608035" lon="12.8037937"><ele>494.0</ele><time>2026-04-18T10:28:50.284Z</time></trkpt><trkpt lat="43.4607235" lon="12.8037916"><ele>494.0</ele><time>2026-04-18T10:28:51.285Z</time></trkpt><trkpt lat="43.4606377" lon="12.8037792"><ele>494.0</ele><time>2026-04-18T10:28:52.284Z</time></trkpt><trkpt lat="43.4605507" lon="12.8037648"><ele>494.0</ele><time>2026-04-18T10:28:53.284Z</time></trkpt><trkpt lat="43.4604614" lon="12.8037552"><ele>494.0</ele><time>2026-04-18T10:28:54.285Z</time></trkpt><trkpt lat="43.4603667" lon="12.803743"><ele>494.0</ele><time>2026-04-18T10:28:55.284Z</time></trkpt><trkpt lat="43.4602662" lon="12.8037267"><ele>493.2</ele><time>2026-04-18T10:28:56.285Z</time></trkpt><trkpt lat="43.460164" lon="12.8037088"><ele>492.4</ele><time>2026-04-18T10:28:57.285Z</time></trkpt><trkpt lat="43.4600571" lon="12.8036975"><ele>491.6</ele><time>2026-04-18T10:28:58.285Z</time></trkpt><trkpt lat="43.4599486" lon="12.8036961"><ele>490.8</ele><time>2026-04-18T10:28:59.285Z</time></trkpt><trkpt lat="43.4598347" lon="12.8037135"><ele>490.0</ele><time>2026-04-18T10:29:00.284Z</time></trkpt><trkpt lat="43.4597235" lon="12.803758"><ele>490.0</ele><time>2026-04-18T10:29:01.285Z</time></trkpt><trkpt lat="43.4596304" lon="12.8037962"><ele>490.0</ele><time>2026-04-18T10:29:02.284Z</time></trkpt><trkpt lat="43.4595331" lon="12.8038266"><ele>490.0</ele><time>2026-04-18T10:29:03.284Z</time></trkpt><trkpt lat="43.459428" lon="12.8038435"><ele>490.0</ele><time>2026-04-18T10:29:04.284Z</time></trkpt><trkpt lat="43.4593164" lon="12.8038319"><ele>490.0</ele><time>2026-04-18T10:29:05.284Z</time></trkpt><trkpt lat="43.4592002" lon="12.8038013"><ele>489.75</ele><time>2026-04-18T10:29:06.284Z</time></trkpt><trkpt lat="43.4590916" lon="12.8037571"><ele>489.5</ele><time>2026-04-18T10:29:07.284Z</time></trkpt><trkpt lat="43.4589848" lon="12.8037117"><ele>489.25</ele><time>2026-04-18T10:29:08.284Z</time></trkpt><trkpt lat="43.4588713" lon="12.8036912"><ele>489.0</ele><time>2026-04-18T10:29:09.284Z</time></trkpt><trkpt lat="43.4587595" lon="12.8036969"><ele>489.0</ele><time>2026-04-18T10:29:10.284Z</time></trkpt><trkpt lat="43.4586527" lon="12.8037187"><ele>489.0</ele><time>2026-04-18T10:29:11.284Z</time></trkpt><trkpt lat="43.4585516" lon="12.8037629"><ele>489.0</ele><time>2026-04-18T10:29:12.284Z</time></trkpt><trkpt lat="43.4584576" lon="12.8038178"><ele>489.0</ele><time>2026-04-18T10:29:13.284Z</time></trkpt><trkpt lat="43.4583525" lon="12.8038536"><ele>489.0</ele><time>2026-04-18T10:29:14.284Z</time></trkpt><trkpt lat="43.4582396" lon="12.8038618"><ele>489.0</ele><time>2026-04-18T10:29:15.285Z</time></trkpt><trkpt lat="43.4581276" lon="12.8038526"><ele>489.0</ele><time>2026-04-18T10:29:16.284Z</time></trkpt><trkpt lat="43.4580188" lon="12.8038234"><ele>489.0</ele><time>2026-04-18T10:29:17.285Z</time></trkpt><trkpt lat="43.4579194" lon="12.8037625"><ele>489.0</ele><time>2026-04-18T10:29:18.285Z</time></trkpt><trkpt lat="43.4578268" lon="12.8036791"><ele>489.0</ele><time>2026-04-18T10:29:19.284Z</time></trkpt><trkpt lat="43.4577288" lon="12.8035947"><ele>489.75</ele><time>2026-04-18T10:29:20.284Z</time></trkpt><trkpt lat="43.4576196" lon="12.8035241"><ele>490.5</ele><time>2026-04-18T10:29:21.284Z</time></trkpt><trkpt lat="43.4575024" lon="12.8034838"><ele>491.25</ele><time>2026-04-18T10:29:22.284Z</time></trkpt><trkpt lat="43.4573903" lon="12.8034523"><ele>492.0</ele><time>2026-04-18T10:29:23.284Z</time></trkpt><trkpt lat="43.4572946" lon="12.8034185"><ele>492.0</ele><time>2026-04-18T10:29:24.285Z</time></trkpt><trkpt lat="43.4572135" lon="12.8033684"><ele>492.00000000000006</ele><time>2026-04-18T10:29:25.285Z</time></trkpt><trkpt lat="43.4571366" lon="12.8032895"><ele>492.00000000000006</ele><time>2026-04-18T10:29:26.285Z</time></trkpt><trkpt lat="43.4570536" lon="12.8031996"><ele>492.0</ele><time>2026-04-18T10:29:27.285Z</time></trkpt><trkpt lat="43.4569611" lon="12.8031193"><ele>492.0</ele><time>2026-04-18T10:29:28.285Z</time></trkpt><trkpt lat="43.4568552" lon="12.8030524"><ele>488.75</ele><time>2026-04-18T10:29:29.284Z</time></trkpt><trkpt lat="43.456744" lon="12.8029917"><ele>485.5</ele><time>2026-04-18T10:29:30.284Z</time></trkpt><trkpt lat="43.4566333" lon="12.8029361"><ele>482.25</ele><time>2026-04-18T10:29:31.284Z</time></trkpt><trkpt lat="43.4565239" lon="12.8028873"><ele>479.0</ele><time>2026-04-18T10:29:32.285Z</time></trkpt><trkpt lat="43.4564131" lon="12.8028443"><ele>479.0</ele><time>2026-04-18T10:29:33.284Z</time></trkpt><trkpt lat="43.4562947" lon="12.8028065"><ele>479.0</ele><time>2026-04-18T10:29:34.284Z</time></trkpt><trkpt lat="43.4561742" lon="12.8027803"><ele>479.0</ele><time>2026-04-18T10:29:35.285Z</time></trkpt><trkpt lat="43.4560563" lon="12.8027518"><ele>479.0</ele><time>2026-04-18T10:29:36.284Z</time></trkpt><trkpt lat="43.4559422" lon="12.8027191"><ele>478.79999999999995</ele><time>2026-04-18T10:29:37.284Z</time></trkpt><trkpt lat="43.4558316" lon="12.8026853"><ele>478.59999999999997</ele><time>2026-04-18T10:29:38.285Z</time></trkpt><trkpt lat="43.4557267" lon="12.8026557"><ele>478.4</ele><time>2026-04-18T10:29:39.284Z</time></trkpt><trkpt lat="43.4556263" lon="12.8026403"><ele>478.2</ele><time>2026-04-18T10:29:40.284Z</time></trkpt><trkpt lat="43.4555248" lon="12.8026415"><ele>478.0</ele><time>2026-04-18T10:29:41.284Z</time></trkpt><trkpt lat="43.4554253" lon="12.80267"><ele>480.25</ele><time>2026-04-18T10:29:42.284Z</time></trkpt><trkpt lat="43.4553328" lon="12.8027345"><ele>482.5</ele><time>2026-04-18T10:29:43.284Z</time></trkpt><trkpt lat="43.4552548" lon="12.8028343"><ele>484.75</ele><time>2026-04-18T10:29:44.285Z</time></trkpt><trkpt lat="43.4551912" lon="12.8029712"><ele>487.0</ele><time>2026-04-18T10:29:45.285Z</time></trkpt><trkpt lat="43.4551335" lon="12.8031291"><ele>487.0</ele><time>2026-04-18T10:29:46.284Z</time></trkpt><trkpt lat="43.4550845" lon="12.8032691"><ele>487.00000000000006</ele><time>2026-04-18T10:29:47.284Z</time></trkpt><trkpt lat="43.4550289" lon="12.8033886"><ele>487.00000000000006</ele><time>2026-04-18T10:29:48.285Z</time></trkpt><trkpt lat="43.4549613" lon="12.8034971"><ele>487.0</ele><time>2026-04-18T10:29:49.285Z</time></trkpt><trkpt lat="43.454882" lon="12.8035858"><ele>487.0</ele><time>2026-04-18T10:29:50.284Z</time></trkpt><trkpt lat="43.4547768" lon="12.8036561"><ele>486.5</ele><time>2026-04-18T10:29:51.285Z</time></trkpt><trkpt lat="43.454653" lon="12.8036997"><ele>486.0</ele><time>2026-04-18T10:29:52.284Z</time></trkpt><trkpt lat="43.4545234" lon="12.8037353"><ele>485.5</ele><time>2026-04-18T10:29:53.285Z</time></trkpt><trkpt lat="43.4543934" lon="12.8037771"><ele>485.0</ele><time>2026-04-18T10:29:54.285Z</time></trkpt><trkpt lat="43.454263" lon="12.8038193"><ele>485.0</ele><time>2026-04-18T10:29:55.284Z</time></trkpt><trkpt lat="43.4541408" lon="12.8038649"><ele>485.0</ele><time>2026-04-18T10:29:56.285Z</time></trkpt><trkpt lat="43.4540283" lon="12.8039082"><ele>485.0</ele><time>2026-04-18T10:29:57.285Z</time></trkpt><trkpt lat="43.4539144" lon="12.8039435"><ele>485.0</ele><time>2026-04-18T10:29:58.285Z</time></trkpt><trkpt lat="43.4538079" lon="12.8039684"><ele>485.4</ele><time>2026-04-18T10:29:59.285Z</time></trkpt><trkpt lat="43.4536984" lon="12.8039808"><ele>485.8</ele><time>2026-04-18T10:30:00.284Z</time></trkpt><trkpt lat="43.4535862" lon="12.8039819"><ele>486.20000000000005</ele><time>2026-04-18T10:30:01.285Z</time></trkpt><trkpt lat="43.4534739" lon="12.8039586"><ele>486.6</ele><time>2026-04-18T10:30:02.285Z</time></trkpt><trkpt lat="43.4533703" lon="12.803923"><ele>487.0</ele><time>2026-04-18T10:30:03.285Z</time></trkpt><trkpt lat="43.4532896" lon="12.8038932"><ele>487.00000000000006</ele><time>2026-04-18T10:30:04.284Z</time></trkpt><trkpt lat="43.4531823" lon="12.8038552"><ele>487.0</ele><time>2026-04-18T10:30:06.284Z</time></trkpt><trkpt lat="43.4531067" lon="12.8038477"><ele>487.0</ele><time>2026-04-18T10:30:08.284Z</time></trkpt><trkpt lat="43.4530642" lon="12.8039368"><ele>487.0</ele><time>2026-04-18T10:30:10.285Z</time></trkpt><trkpt lat="43.4530954" lon="12.8040795"><ele>487.00000000000006</ele><time>2026-04-18T10:30:12.284Z</time></trkpt><trkpt lat="43.4531398" lon="12.8041605"><ele>487.0</ele><time>2026-04-18T10:30:13.285Z</time></trkpt><trkpt lat="43.453198" lon="12.8042397"><ele>485.50000000000006</ele><time>2026-04-18T10:30:14.284Z</time></trkpt><trkpt lat="43.4532546" lon="12.8043298"><ele>484.0</ele><time>2026-04-18T10:30:15.284Z</time></trkpt><trkpt lat="43.4533036" lon="12.8044291"><ele>482.5</ele><time>2026-04-18T10:30:16.284Z</time></trkpt><trkpt lat="43.4533363" lon="12.804528"><ele>481.0</ele><time>2026-04-18T10:30:17.285Z</time></trkpt><trkpt lat="43.453349" lon="12.8046326"><ele>479.50000000000006</ele><time>2026-04-18T10:30:18.284Z</time></trkpt><trkpt lat="43.4533338" lon="12.8047468"><ele>478.0</ele><time>2026-04-18T10:30:19.284Z</time></trkpt><trkpt lat="43.4532934" lon="12.8048577"><ele>478.00000000000006</ele><time>2026-04-18T10:30:20.284Z</time></trkpt><trkpt lat="43.4532523" lon="12.8049585"><ele>478.0</ele><time>2026-04-18T10:30:21.284Z</time></trkpt><trkpt lat="43.4532185" lon="12.8050702"><ele>478.0</ele><time>2026-04-18T10:30:22.284Z</time></trkpt><trkpt lat="43.4531991" lon="12.805191"><ele>478.0</ele><time>2026-04-18T10:30:23.284Z</time></trkpt><trkpt lat="43.4531942" lon="12.8053138"><ele>478.00000000000006</ele><time>2026-04-18T10:30:24.284Z</time></trkpt><trkpt lat="43.4531975" lon="12.8054397"><ele>478.0</ele><time>2026-04-18T10:30:25.285Z</time></trkpt><trkpt lat="43.453215" lon="12.8055712"><ele>476.6666666666667</ele><time>2026-04-18T10:30:26.284Z</time></trkpt><trkpt lat="43.4532387" lon="12.8056984"><ele>475.33333333333337</ele><time>2026-04-18T10:30:27.284Z</time></trkpt><trkpt lat="43.4532565" lon="12.8058094"><ele>474.0</ele><time>2026-04-18T10:30:28.284Z</time></trkpt><trkpt lat="43.4532839" lon="12.8059257"><ele>472.66666666666663</ele><time>2026-04-18T10:30:29.284Z</time></trkpt><trkpt lat="43.4533131" lon="12.8060446"><ele>471.3333333333333</ele><time>2026-04-18T10:30:30.284Z</time></trkpt><trkpt lat="43.4533313" lon="12.8061605"><ele>470.0</ele><time>2026-04-18T10:30:31.285Z</time></trkpt><trkpt lat="43.4533469" lon="12.8062826"><ele>468.2</ele><time>2026-04-18T10:30:32.284Z</time></trkpt><trkpt lat="43.4533674" lon="12.8064092"><ele>466.4</ele><time>2026-04-18T10:30:33.285Z</time></trkpt><trkpt lat="43.4533995" lon="12.8065349"><ele>464.6</ele><time>2026-04-18T10:30:34.284Z</time></trkpt><trkpt lat="43.4534347" lon="12.8066616"><ele>462.8</ele><time>2026-04-18T10:30:35.285Z</time></trkpt><trkpt lat="43.4534645" lon="12.8067763"><ele>461.0</ele><time>2026-04-18T10:30:36.285Z</time></trkpt><trkpt lat="43.4534903" lon="12.8068894"><ele>460.4</ele><time>2026-04-18T10:30:37.285Z</time></trkpt><trkpt lat="43.4535186" lon="12.8070059"><ele>459.8</ele><time>2026-04-18T10:30:38.284Z</time></trkpt><trkpt lat="43.4535456" lon="12.8071186"><ele>459.19999999999993</ele><time>2026-04-18T10:30:39.284Z</time></trkpt><trkpt lat="43.4535764" lon="12.8072329"><ele>458.59999999999997</ele><time>2026-04-18T10:30:40.284Z</time></trkpt><trkpt lat="43.4536198" lon="12.8073475"><ele>458.0</ele><time>2026-04-18T10:30:41.285Z</time></trkpt><trkpt lat="43.4536864" lon="12.8074468"><ele>457.99999999999994</ele><time>2026-04-18T10:30:42.284Z</time></trkpt><trkpt lat="43.4537564" lon="12.8075357"><ele>458.0</ele><time>2026-04-18T10:30:43.285Z</time></trkpt><trkpt lat="43.4538085" lon="12.807622"><ele>458.0</ele><time>2026-04-18T10:30:44.285Z</time></trkpt><trkpt lat="43.4538364" lon="12.8077221"><ele>458.0</ele><time>2026-04-18T10:30:45.285Z</time></trkpt><trkpt lat="43.4538444" lon="12.8078363"><ele>457.99999999999994</ele><time>2026-04-18T10:30:46.284Z</time></trkpt><trkpt lat="43.4538457" lon="12.8079491"><ele>458.0</ele><time>2026-04-18T10:30:47.284Z</time></trkpt><trkpt lat="43.4538503" lon="12.8080386"><ele>457.79999999999995</ele><time>2026-04-18T10:30:48.284Z</time></trkpt><trkpt lat="43.4538586" lon="12.8081936"><ele>457.59999999999997</ele><time>2026-04-18T10:30:50.284Z</time></trkpt><trkpt lat="43.4537935" lon="12.8083341"><ele>457.40000000000003</ele><time>2026-04-18T10:30:52.285Z</time></trkpt><trkpt lat="43.4537455" lon="12.8083971"><ele>457.20000000000005</ele><time>2026-04-18T10:30:53.285Z</time></trkpt><trkpt lat="43.4536709" lon="12.8085323"><ele>457.0</ele><time>2026-04-18T10:30:55.284Z</time></trkpt><trkpt lat="43.4536475" lon="12.808634"><ele>455.0</ele><time>2026-04-18T10:30:56.285Z</time></trkpt><trkpt lat="43.4536171" lon="12.8087628"><ele>453.00000000000006</ele><time>2026-04-18T10:30:57.284Z</time></trkpt><trkpt lat="43.4535886" lon="12.8088891"><ele>451.00000000000006</ele><time>2026-04-18T10:30:58.284Z</time></trkpt><trkpt lat="43.4535652" lon="12.8090121"><ele>449.0</ele><time>2026-04-18T10:30:59.284Z</time></trkpt><trkpt lat="43.453532" lon="12.8091437"><ele>447.0</ele><time>2026-04-18T10:31:00.284Z</time></trkpt><trkpt lat="43.4534949" lon="12.8092831"><ele>446.20000000000005</ele><time>2026-04-18T10:31:01.284Z</time></trkpt><trkpt lat="43.4534541" lon="12.809422"><ele>445.40000000000003</ele><time>2026-04-18T10:31:02.284Z</time></trkpt><trkpt lat="43.4534185" lon="12.8095415"><ele>444.59999999999997</ele><time>2026-04-18T10:31:03.284Z</time></trkpt><trkpt lat="43.4533643" lon="12.8096553"><ele>443.79999999999995</ele><time>2026-04-18T10:31:04.284Z</time></trkpt><trkpt lat="43.4532896" lon="12.8097523"><ele>443.0</ele><time>2026-04-18T10:31:05.284Z</time></trkpt><trkpt lat="43.4531959" lon="12.8098326"><ele>443.0</ele><time>2026-04-18T10:31:06.284Z</time></trkpt><trkpt lat="43.4530873" lon="12.8098977"><ele>443.0</ele><time>2026-04-18T10:31:07.284Z</time></trkpt><trkpt lat="43.452967" lon="12.8099499"><ele>443.0</ele><time>2026-04-18T10:31:08.285Z</time></trkpt><trkpt lat="43.4528495" lon="12.8099902"><ele>443.0</ele><time>2026-04-18T10:31:09.285Z</time></trkpt><trkpt lat="43.4527457" lon="12.8100276"><ele>441.59999999999997</ele><time>2026-04-18T10:31:10.284Z</time></trkpt><trkpt lat="43.4526547" lon="12.8100647"><ele>440.19999999999993</ele><time>2026-04-18T10:31:11.284Z</time></trkpt><trkpt lat="43.4525681" lon="12.8100986"><ele>438.8</ele><time>2026-04-18T10:31:12.285Z</time></trkpt><trkpt lat="43.4524862" lon="12.8101512"><ele>437.4</ele><time>2026-04-18T10:31:13.284Z</time></trkpt><trkpt lat="43.4524145" lon="12.8102413"><ele>436.0</ele><time>2026-04-18T10:31:14.284Z</time></trkpt><trkpt lat="43.4523572" lon="12.81037"><ele>435.25</ele><time>2026-04-18T10:31:15.284Z</time></trkpt><trkpt lat="43.452327" lon="12.810521"><ele>434.5</ele><time>2026-04-18T10:31:16.284Z</time></trkpt><trkpt lat="43.4523162" lon="12.810704"><ele>433.75</ele><time>2026-04-18T10:31:17.285Z</time></trkpt><trkpt lat="43.4523141" lon="12.810905"><ele>433.0</ele><time>2026-04-18T10:31:18.285Z</time></trkpt><trkpt lat="43.4523171" lon="12.8110947"><ele>431.75</ele><time>2026-04-18T10:31:19.284Z</time></trkpt><trkpt lat="43.4523238" lon="12.8112826"><ele>430.5</ele><time>2026-04-18T10:31:20.285Z</time></trkpt><trkpt lat="43.4523238" lon="12.8114716"><ele>429.25</ele><time>2026-04-18T10:31:21.285Z</time></trkpt><trkpt lat="43.4523229" lon="12.8116487"><ele>428.0</ele><time>2026-04-18T10:31:22.284Z</time></trkpt><trkpt lat="43.4523154" lon="12.8118145"><ele>427.25</ele><time>2026-04-18T10:31:23.284Z</time></trkpt><trkpt lat="43.4523103" lon="12.8119955"><ele>426.5</ele><time>2026-04-18T10:31:24.285Z</time></trkpt><trkpt lat="43.4522983" lon="12.8121754"><ele>425.75</ele><time>2026-04-18T10:31:25.284Z</time></trkpt><trkpt lat="43.4522805" lon="12.81234"><ele>425.0</ele><time>2026-04-18T10:31:26.284Z</time></trkpt><trkpt lat="43.4522622" lon="12.8124927"><ele>425.0</ele><time>2026-04-18T10:31:27.285Z</time></trkpt><trkpt lat="43.4522492" lon="12.8126365"><ele>425.0</ele><time>2026-04-18T10:31:28.284Z</time></trkpt><trkpt lat="43.4522524" lon="12.812773"><ele>425.0</ele><time>2026-04-18T10:31:29.285Z</time></trkpt><trkpt lat="43.4522707" lon="12.8129012"><ele>425.0</ele><time>2026-04-18T10:31:30.285Z</time></trkpt><trkpt lat="43.4523034" lon="12.8130256"><ele>425.0</ele><time>2026-04-18T10:31:31.284Z</time></trkpt><trkpt lat="43.4523439" lon="12.8131419"><ele>424.8</ele><time>2026-04-18T10:31:32.285Z</time></trkpt><trkpt lat="43.4523724" lon="12.813261"><ele>424.6</ele><time>2026-04-18T10:31:33.284Z</time></trkpt><trkpt lat="43.4523817" lon="12.8133994"><ele>424.4</ele><time>2026-04-18T10:31:34.285Z</time></trkpt><trkpt lat="43.4523742" lon="12.8135415"><ele>424.2</ele><time>2026-04-18T10:31:35.285Z</time></trkpt><trkpt lat="43.4523579" lon="12.8136786"><ele>424.0</ele><time>2026-04-18T10:31:36.284Z</time></trkpt><trkpt lat="43.4523533" lon="12.8138216"><ele>423.4</ele><time>2026-04-18T10:31:37.285Z</time></trkpt><trkpt lat="43.4523649" lon="12.8139673"><ele>422.79999999999995</ele><time>2026-04-18T10:31:38.285Z</time></trkpt><trkpt lat="43.4523837" lon="12.8141102"><ele>422.20000000000005</ele><time>2026-04-18T10:31:39.285Z</time></trkpt><trkpt lat="43.4523951" lon="12.8142504"><ele>421.6</ele><time>2026-04-18T10:31:40.284Z</time></trkpt><trkpt lat="43.4523997" lon="12.8143891"><ele>421.0</ele><time>2026-04-18T10:31:41.284Z</time></trkpt><trkpt lat="43.4523925" lon="12.8145194"><ele>420.6</ele><time>2026-04-18T10:31:42.285Z</time></trkpt><trkpt lat="43.4523594" lon="12.814644"><ele>420.20000000000005</ele><time>2026-04-18T10:31:43.284Z</time></trkpt><trkpt lat="43.4522925" lon="12.8147533"><ele>419.79999999999995</ele><time>2026-04-18T10:31:44.284Z</time></trkpt><trkpt lat="43.4522116" lon="12.8148497"><ele>419.4</ele><time>2026-04-18T10:31:45.284Z</time></trkpt><trkpt lat="43.452149" lon="12.814952"><ele>419.0</ele><time>2026-04-18T10:31:46.284Z</time></trkpt><trkpt lat="43.4521205" lon="12.8150777"><ele>418.49999999999994</ele><time>2026-04-18T10:31:47.284Z</time></trkpt><trkpt lat="43.4521201" lon="12.8152098"><ele>418.0</ele><time>2026-04-18T10:31:48.285Z</time></trkpt><trkpt lat="43.4521367" lon="12.8153346"><ele>417.5</ele><time>2026-04-18T10:31:49.284Z</time></trkpt><trkpt lat="43.4521565" lon="12.8154383"><ele>417.0</ele><time>2026-04-18T10:31:50.284Z</time></trkpt><trkpt lat="43.4521689" lon="12.8155244"><ele>416.49999999999994</ele><time>2026-04-18T10:31:51.285Z</time></trkpt><trkpt lat="43.4521813" lon="12.8156521"><ele>416.0</ele><time>2026-04-18T10:31:53.285Z</time></trkpt><trkpt lat="43.4521991" lon="12.8158121"><ele>416.0</ele><time>2026-04-18T10:31:55.284Z</time></trkpt><trkpt lat="43.4522265" lon="12.8159252"><ele>416.0</ele><time>2026-04-18T10:31:56.284Z</time></trkpt><trkpt lat="43.4522558" lon="12.8160386"><ele>416.0</ele><time>2026-04-18T10:31:57.285Z</time></trkpt><trkpt lat="43.4522866" lon="12.8161694"><ele>416.0</ele><time>2026-04-18T10:31:58.284Z</time></trkpt><trkpt lat="43.4523089" lon="12.8163273"><ele>416.0</ele><time>2026-04-18T10:31:59.284Z</time></trkpt><trkpt lat="43.4523194" lon="12.8165064"><ele>415.25</ele><time>2026-04-18T10:32:00.284Z</time></trkpt><trkpt lat="43.4523297" lon="12.8166695"><ele>414.5</ele><time>2026-04-18T10:32:01.284Z</time></trkpt><trkpt lat="43.4523385" lon="12.8168383"><ele>413.75</ele><time>2026-04-18T10:32:02.284Z</time></trkpt><trkpt lat="43.4523464" lon="12.8170166"><ele>413.0</ele><time>2026-04-18T10:32:03.284Z</time></trkpt><trkpt lat="43.4523537" lon="12.8172066"><ele>412.75</ele><time>2026-04-18T10:32:04.285Z</time></trkpt><trkpt lat="43.4523651" lon="12.8174"><ele>412.5</ele><time>2026-04-18T10:32:05.284Z</time></trkpt><trkpt lat="43.4523789" lon="12.8175908"><ele>412.25</ele><time>2026-04-18T10:32:06.284Z</time></trkpt><trkpt lat="43.4523962" lon="12.8177859"><ele>412.0</ele><time>2026-04-18T10:32:07.284Z</time></trkpt><trkpt lat="43.4524203" lon="12.8179907"><ele>411.6666666666667</ele><time>2026-04-18T10:32:08.284Z</time></trkpt><trkpt lat="43.4524476" lon="12.8181996"><ele>411.33333333333337</ele><time>2026-04-18T10:32:09.284Z</time></trkpt><trkpt lat="43.4524879" lon="12.8184062"><ele>411.0</ele><time>2026-04-18T10:32:10.284Z</time></trkpt><trkpt lat="43.4525357" lon="12.818616"><ele>410.33333333333337</ele><time>2026-04-18T10:32:11.284Z</time></trkpt><trkpt lat="43.4525843" lon="12.8188262"><ele>409.6666666666667</ele><time>2026-04-18T10:32:12.284Z</time></trkpt><trkpt lat="43.4526321" lon="12.8190256"><ele>409.0</ele><time>2026-04-18T10:32:13.284Z</time></trkpt><trkpt lat="43.4526756" lon="12.8192268"><ele>408.5</ele><time>2026-04-18T10:32:14.284Z</time></trkpt><trkpt lat="43.4527212" lon="12.8194175"><ele>408.0</ele><time>2026-04-18T10:32:15.285Z</time></trkpt><trkpt lat="43.4527725" lon="12.819598"><ele>407.5</ele><time>2026-04-18T10:32:16.285Z</time></trkpt><trkpt lat="43.4528329" lon="12.8197846"><ele>407.0</ele><time>2026-04-18T10:32:17.284Z</time></trkpt><trkpt lat="43.4528939" lon="12.8199666"><ele>407.0</ele><time>2026-04-18T10:32:18.285Z</time></trkpt><trkpt lat="43.4529529" lon="12.8201493"><ele>407.0</ele><time>2026-04-18T10:32:19.285Z</time></trkpt><trkpt lat="43.4530087" lon="12.8203254"><ele>407.0</ele><time>2026-04-18T10:32:20.285Z</time></trkpt><trkpt lat="43.4530669" lon="12.8205004"><ele>407.0</ele><time>2026-04-18T10:32:21.284Z</time></trkpt><trkpt lat="43.4531178" lon="12.8206808"><ele>405.75</ele><time>2026-04-18T10:32:22.285Z</time></trkpt><trkpt lat="43.4531617" lon="12.8208717"><ele>404.5</ele><time>2026-04-18T10:32:23.284Z</time></trkpt><trkpt lat="43.4531922" lon="12.8210672"><ele>403.25</ele><time>2026-04-18T10:32:24.284Z</time></trkpt><trkpt lat="43.4532093" lon="12.8212733"><ele>402.0</ele><time>2026-04-18T10:32:25.284Z</time></trkpt><trkpt lat="43.4532291" lon="12.821482"><ele>401.33333333333337</ele><time>2026-04-18T10:32:26.284Z</time></trkpt><trkpt lat="43.4532441" lon="12.8216901"><ele>400.6666666666667</ele><time>2026-04-18T10:32:27.284Z</time></trkpt><trkpt lat="43.4532583" lon="12.8218977"><ele>400.0</ele><time>2026-04-18T10:32:28.285Z</time></trkpt><trkpt lat="43.4532721" lon="12.8221065"><ele>400.0</ele><time>2026-04-18T10:32:29.284Z</time></trkpt><trkpt lat="43.4532862" lon="12.8223026"><ele>400.0</ele><time>2026-04-18T10:32:30.285Z</time></trkpt><trkpt lat="43.4533067" lon="12.8225034"><ele>400.0</ele><time>2026-04-18T10:32:31.284Z</time></trkpt><trkpt lat="43.4533283" lon="12.8227119"><ele>400.0</ele><time>2026-04-18T10:32:32.284Z</time></trkpt><trkpt lat="43.4533498" lon="12.8229133"><ele>399.0</ele><time>2026-04-18T10:32:33.284Z</time></trkpt><trkpt lat="43.4533714" lon="12.8231194"><ele>398.0</ele><time>2026-04-18T10:32:34.285Z</time></trkpt><trkpt lat="43.4533905" lon="12.8233285"><ele>397.0</ele><time>2026-04-18T10:32:35.284Z</time></trkpt><trkpt lat="43.4534018" lon="12.8235474"><ele>396.6666666666667</ele><time>2026-04-18T10:32:36.285Z</time></trkpt><trkpt lat="43.4534199" lon="12.8237754"><ele>396.33333333333337</ele><time>2026-04-18T10:32:37.285Z</time></trkpt><trkpt lat="43.4534413" lon="12.8239999"><ele>396.0</ele><time>2026-04-18T10:32:38.285Z</time></trkpt><trkpt lat="43.4534774" lon="12.8242232"><ele>396.33333333333337</ele><time>2026-04-18T10:32:39.285Z</time></trkpt><trkpt lat="43.4535171" lon="12.824446"><ele>396.6666666666667</ele><time>2026-04-18T10:32:40.284Z</time></trkpt><trkpt lat="43.453557" lon="12.8246597"><ele>397.0</ele><time>2026-04-18T10:32:41.284Z</time></trkpt><trkpt lat="43.4535934" lon="12.824873"><ele>397.0</ele><time>2026-04-18T10:32:42.284Z</time></trkpt><trkpt lat="43.4536287" lon="12.8250959"><ele>397.0</ele><time>2026-04-18T10:32:43.285Z</time></trkpt><trkpt lat="43.4536633" lon="12.825328"><ele>397.0</ele><time>2026-04-18T10:32:44.285Z</time></trkpt><trkpt lat="43.4536969" lon="12.8255545"><ele>396.6666666666667</ele><time>2026-04-18T10:32:45.285Z</time></trkpt><trkpt lat="43.4537305" lon="12.825786"><ele>396.33333333333337</ele><time>2026-04-18T10:32:46.285Z</time></trkpt><trkpt lat="43.4537615" lon="12.8260192"><ele>396.0</ele><time>2026-04-18T10:32:47.285Z</time></trkpt><trkpt lat="43.4537985" lon="12.8262551"><ele>395.66666666666663</ele><time>2026-04-18T10:32:48.285Z</time></trkpt><trkpt lat="43.4538415" lon="12.8264903"><ele>395.3333333333333</ele><time>2026-04-18T10:32:49.285Z</time></trkpt><trkpt lat="43.4538786" lon="12.8267015"><ele>395.0</ele><time>2026-04-18T10:32:50.284Z</time></trkpt><trkpt lat="43.4539137" lon="12.8268956"><ele>395.4</ele><time>2026-04-18T10:32:51.284Z</time></trkpt><trkpt lat="43.453944" lon="12.8270658"><ele>395.8</ele><time>2026-04-18T10:32:52.285Z</time></trkpt><trkpt lat="43.453976" lon="12.8272107"><ele>396.20000000000005</ele><time>2026-04-18T10:32:53.284Z</time></trkpt><trkpt lat="43.4540027" lon="12.8273315"><ele>396.6</ele><time>2026-04-18T10:32:54.285Z</time></trkpt><trkpt lat="43.4540297" lon="12.8274401"><ele>397.0</ele><time>2026-04-18T10:32:55.284Z</time></trkpt><trkpt lat="43.45406" lon="12.8275793"><ele>398.75</ele><time>2026-04-18T10:32:57.284Z</time></trkpt><trkpt lat="43.4540746" lon="12.8277822"><ele>400.5</ele><time>2026-04-18T10:32:59.284Z</time></trkpt><trkpt lat="43.4540785" lon="12.8279247"><ele>402.25</ele><time>2026-04-18T10:33:00.284Z</time></trkpt><trkpt lat="43.4540781" lon="12.8280692"><ele>404.0</ele><time>2026-04-18T10:33:01.285Z</time></trkpt><trkpt lat="43.4540746" lon="12.828224"><ele>404.0</ele><time>2026-04-18T10:33:02.284Z</time></trkpt><trkpt lat="43.4540705" lon="12.8283849"><ele>404.0</ele><time>2026-04-18T10:33:03.284Z</time></trkpt><trkpt lat="43.4540737" lon="12.8285578"><ele>404.0</ele><time>2026-04-18T10:33:04.284Z</time></trkpt><trkpt lat="43.4540685" lon="12.8287371"><ele>404.0</ele><time>2026-04-18T10:33:05.285Z</time></trkpt><trkpt lat="43.45406" lon="12.8289276"><ele>404.25</ele><time>2026-04-18T10:33:06.284Z</time></trkpt><trkpt lat="43.4540497" lon="12.8291351"><ele>404.5</ele><time>2026-04-18T10:33:07.284Z</time></trkpt><trkpt lat="43.4540299" lon="12.8293311"><ele>404.75</ele><time>2026-04-18T10:33:08.284Z</time></trkpt><trkpt lat="43.4539991" lon="12.8295174"><ele>405.0</ele><time>2026-04-18T10:33:09.284Z</time></trkpt><trkpt lat="43.4539527" lon="12.8297004"><ele>405.0</ele><time>2026-04-18T10:33:10.285Z</time></trkpt><trkpt lat="43.4539031" lon="12.82988"><ele>405.0</ele><time>2026-04-18T10:33:11.285Z</time></trkpt><trkpt lat="43.4538378" lon="12.8300476"><ele>405.0</ele><time>2026-04-18T10:33:12.284Z</time></trkpt><trkpt lat="43.4537532" lon="12.8301894"><ele>405.0</ele><time>2026-04-18T10:33:13.284Z</time></trkpt><trkpt lat="43.4536538" lon="12.8303187"><ele>404.25</ele><time>2026-04-18T10:33:14.284Z</time></trkpt><trkpt lat="43.4535462" lon="12.8304469"><ele>403.5</ele><time>2026-04-18T10:33:15.284Z</time></trkpt><trkpt lat="43.4534413" lon="12.8305718"><ele>402.75</ele><time>2026-04-18T10:33:16.284Z</time></trkpt><trkpt lat="43.4533414" lon="12.8307148"><ele>402.0</ele><time>2026-04-18T10:33:17.285Z</time></trkpt><trkpt lat="43.4532602" lon="12.8308788"><ele>402.66666666666663</ele><time>2026-04-18T10:33:18.284Z</time></trkpt><trkpt lat="43.4531873" lon="12.8310538"><ele>403.3333333333333</ele><time>2026-04-18T10:33:19.284Z</time></trkpt><trkpt lat="43.4531176" lon="12.83124"><ele>404.0</ele><time>2026-04-18T10:33:20.285Z</time></trkpt><trkpt lat="43.4530464" lon="12.83143"><ele>404.0</ele><time>2026-04-18T10:33:21.285Z</time></trkpt><trkpt lat="43.4529809" lon="12.8316216"><ele>404.0</ele><time>2026-04-18T10:33:22.284Z</time></trkpt><trkpt lat="43.4529159" lon="12.8318005"><ele>404.0</ele><time>2026-04-18T10:33:23.284Z</time></trkpt><trkpt lat="43.4528585" lon="12.8319818"><ele>404.0</ele><time>2026-04-18T10:33:24.284Z</time></trkpt><trkpt lat="43.4528038" lon="12.8321546"><ele>401.75</ele><time>2026-04-18T10:33:25.285Z</time></trkpt><trkpt lat="43.4527774" lon="12.8323451"><ele>399.5</ele><time>2026-04-18T10:33:26.284Z</time></trkpt><trkpt lat="43.4527808" lon="12.8325446"><ele>397.25</ele><time>2026-04-18T10:33:27.285Z</time></trkpt><trkpt lat="43.452808" lon="12.8327413"><ele>395.0</ele><time>2026-04-18T10:33:28.284Z</time></trkpt><trkpt lat="43.4528483" lon="12.8329317"><ele>394.5</ele><time>2026-04-18T10:33:29.285Z</time></trkpt><trkpt lat="43.4528903" lon="12.8331286"><ele>394.0</ele><time>2026-04-18T10:33:30.285Z</time></trkpt><trkpt lat="43.4529306" lon="12.8333187"><ele>393.5</ele><time>2026-04-18T10:33:31.284Z</time></trkpt><trkpt lat="43.4529767" lon="12.8334983"><ele>393.0</ele><time>2026-04-18T10:33:32.284Z</time></trkpt><trkpt lat="43.4530312" lon="12.8336779"><ele>392.75</ele><time>2026-04-18T10:33:33.284Z</time></trkpt><trkpt lat="43.4530878" lon="12.8338486"><ele>392.5</ele><time>2026-04-18T10:33:34.285Z</time></trkpt><trkpt lat="43.4531416" lon="12.834008"><ele>392.25</ele><time>2026-04-18T10:33:35.285Z</time></trkpt><trkpt lat="43.4531952" lon="12.8341622"><ele>392.0</ele><time>2026-04-18T10:33:36.284Z</time></trkpt><trkpt lat="43.4532472" lon="12.8343154"><ele>391.25</ele><time>2026-04-18T10:33:37.284Z</time></trkpt><trkpt lat="43.4532983" lon="12.8344641"><ele>390.5</ele><time>2026-04-18T10:33:38.284Z</time></trkpt><trkpt lat="43.4533527" lon="12.8346239"><ele>389.75</ele><time>2026-04-18T10:33:39.285Z</time></trkpt><trkpt lat="43.4533991" lon="12.8347882"><ele>389.0</ele><time>2026-04-18T10:33:40.285Z</time></trkpt><trkpt lat="43.453441" lon="12.8349642"><ele>388.25</ele><time>2026-04-18T10:33:41.284Z</time></trkpt><trkpt lat="43.4534678" lon="12.8351455"><ele>387.5</ele><time>2026-04-18T10:33:42.284Z</time></trkpt><trkpt lat="43.4534794" lon="12.8353221"><ele>386.75</ele><time>2026-04-18T10:33:43.284Z</time></trkpt><trkpt lat="43.4534816" lon="12.8354962"><ele>386.0</ele><time>2026-04-18T10:33:44.284Z</time></trkpt><trkpt lat="43.4534798" lon="12.8356713"><ele>386.0</ele><time>2026-04-18T10:33:45.284Z</time></trkpt><trkpt lat="43.453477" lon="12.8358526"><ele>386.0</ele><time>2026-04-18T10:33:46.284Z</time></trkpt><trkpt lat="43.4534768" lon="12.8360431"><ele>386.0</ele><time>2026-04-18T10:33:47.284Z</time></trkpt><trkpt lat="43.4534752" lon="12.8362434"><ele>386.0</ele><time>2026-04-18T10:33:48.284Z</time></trkpt><trkpt lat="43.4534717" lon="12.8364445"><ele>385.0</ele><time>2026-04-18T10:33:49.284Z</time></trkpt><trkpt lat="43.4534693" lon="12.8366517"><ele>384.0</ele><time>2026-04-18T10:33:50.284Z</time></trkpt><trkpt lat="43.4534641" lon="12.8368464"><ele>383.0</ele><time>2026-04-18T10:33:51.284Z</time></trkpt><trkpt lat="43.4534585" lon="12.8370324"><ele>382.0</ele><time>2026-04-18T10:33:52.284Z</time></trkpt><trkpt lat="43.4534531" lon="12.837208"><ele>382.0</ele><time>2026-04-18T10:33:53.285Z</time></trkpt><trkpt lat="43.4534481" lon="12.8373714"><ele>382.0</ele><time>2026-04-18T10:33:54.284Z</time></trkpt><trkpt lat="43.4534283" lon="12.8375287"><ele>382.0</ele><time>2026-04-18T10:33:55.285Z</time></trkpt><trkpt lat="43.4533921" lon="12.8376779"><ele>382.0</ele><time>2026-04-18T10:33:56.284Z</time></trkpt><trkpt lat="43.4533207" lon="12.8378202"><ele>382.0</ele><time>2026-04-18T10:33:57.284Z</time></trkpt><trkpt lat="43.4532273" lon="12.8379315"><ele>382.0</ele><time>2026-04-18T10:33:58.284Z</time></trkpt><trkpt lat="43.4531302" lon="12.8380262"><ele>382.0</ele><time>2026-04-18T10:33:59.284Z</time></trkpt><trkpt lat="43.4530149" lon="12.8381287"><ele>382.0</ele><time>2026-04-18T10:34:00.284Z</time></trkpt><trkpt lat="43.4528934" lon="12.8382367"><ele>379.66666666666663</ele><time>2026-04-18T10:34:01.284Z</time></trkpt><trkpt lat="43.4527644" lon="12.8383451"><ele>377.3333333333333</ele><time>2026-04-18T10:34:02.284Z</time></trkpt><trkpt lat="43.4526247" lon="12.8384525"><ele>375.0</ele><time>2026-04-18T10:34:03.285Z</time></trkpt><trkpt lat="43.4524763" lon="12.8385602"><ele>375.0</ele><time>2026-04-18T10:34:04.285Z</time></trkpt><trkpt lat="43.452334" lon="12.8386612"><ele>375.0</ele><time>2026-04-18T10:34:05.284Z</time></trkpt><trkpt lat="43.4521854" lon="12.8387734"><ele>375.0</ele><time>2026-04-18T10:34:06.284Z</time></trkpt><trkpt lat="43.45204" lon="12.8388693"><ele>374.6666666666667</ele><time>2026-04-18T10:34:07.284Z</time></trkpt><trkpt lat="43.4518877" lon="12.8389583"><ele>374.33333333333337</ele><time>2026-04-18T10:34:08.285Z</time></trkpt><trkpt lat="43.4517382" lon="12.8390434"><ele>374.0</ele><time>2026-04-18T10:34:09.284Z</time></trkpt><trkpt lat="43.4515863" lon="12.8391149"><ele>374.0</ele><time>2026-04-18T10:34:10.284Z</time></trkpt><trkpt lat="43.4514334" lon="12.8391755"><ele>374.0</ele><time>2026-04-18T10:34:11.284Z</time></trkpt><trkpt lat="43.4512798" lon="12.8392437"><ele>374.0</ele><time>2026-04-18T10:34:12.285Z</time></trkpt><trkpt lat="43.451126" lon="12.8393064"><ele>373.0</ele><time>2026-04-18T10:34:13.284Z</time></trkpt><trkpt lat="43.4509772" lon="12.8393709"><ele>372.0</ele><time>2026-04-18T10:34:14.284Z</time></trkpt><trkpt lat="43.4508289" lon="12.8394219"><ele>371.0</ele><time>2026-04-18T10:34:15.285Z</time></trkpt><trkpt lat="43.4506733" lon="12.8394839"><ele>371.0</ele><time>2026-04-18T10:34:16.285Z</time></trkpt><trkpt lat="43.4505114" lon="12.8395462"><ele>371.0</ele><time>2026-04-18T10:34:17.284Z</time></trkpt><trkpt lat="43.4503457" lon="12.8396083"><ele>371.0</ele><time>2026-04-18T10:34:18.284Z</time></trkpt><trkpt lat="43.4501723" lon="12.8396787"><ele>370.0</ele><time>2026-04-18T10:34:19.285Z</time></trkpt><trkpt lat="43.449991" lon="12.8397582"><ele>369.0</ele><time>2026-04-18T10:34:20.285Z</time></trkpt><trkpt lat="43.4498018" lon="12.8398425"><ele>368.0</ele><time>2026-04-18T10:34:21.284Z</time></trkpt><trkpt lat="43.4496168" lon="12.8399248"><ele>368.0</ele><time>2026-04-18T10:34:22.284Z</time></trkpt><trkpt lat="43.4494368" lon="12.8399987"><ele>368.0</ele><time>2026-04-18T10:34:23.284Z</time></trkpt><trkpt lat="43.4492707" lon="12.8400683"><ele>368.0</ele><time>2026-04-18T10:34:24.285Z</time></trkpt><trkpt lat="43.4491173" lon="12.8401282"><ele>367.5</ele><time>2026-04-18T10:34:25.285Z</time></trkpt><trkpt lat="43.4489721" lon="12.8401873"><ele>367.0</ele><time>2026-04-18T10:34:26.285Z</time></trkpt><trkpt lat="43.4488279" lon="12.8402392"><ele>366.5</ele><time>2026-04-18T10:34:27.284Z</time></trkpt><trkpt lat="43.4486874" lon="12.8402865"><ele>366.0</ele><time>2026-04-18T10:34:28.284Z</time></trkpt><trkpt lat="43.4485478" lon="12.8403341"><ele>365.5</ele><time>2026-04-18T10:34:29.284Z</time></trkpt><trkpt lat="43.4484098" lon="12.8403816"><ele>365.0</ele><time>2026-04-18T10:34:30.284Z</time></trkpt><trkpt lat="43.4482803" lon="12.8404373"><ele>364.5</ele><time>2026-04-18T10:34:31.285Z</time></trkpt><trkpt lat="43.4481656" lon="12.840515"><ele>364.0</ele><time>2026-04-18T10:34:32.284Z</time></trkpt><trkpt lat="43.4480755" lon="12.8406241"><ele>364.0</ele><time>2026-04-18T10:34:33.284Z</time></trkpt><trkpt lat="43.4479924" lon="12.8407654"><ele>364.0</ele><time>2026-04-18T10:34:34.284Z</time></trkpt><trkpt lat="43.4479071" lon="12.840924"><ele>364.0</ele><time>2026-04-18T10:34:35.285Z</time></trkpt><trkpt lat="43.447814" lon="12.8410933"><ele>364.0</ele><time>2026-04-18T10:34:36.285Z</time></trkpt><trkpt lat="43.4477137" lon="12.8412586"><ele>361.0</ele><time>2026-04-18T10:34:37.285Z</time></trkpt><trkpt lat="43.4476139" lon="12.8414224"><ele>358.0</ele><time>2026-04-18T10:34:38.284Z</time></trkpt><trkpt lat="43.4475259" lon="12.8415732"><ele>355.0</ele><time>2026-04-18T10:34:39.284Z</time></trkpt><trkpt lat="43.4474352" lon="12.8417083"><ele>352.0</ele><time>2026-04-18T10:34:40.284Z</time></trkpt><trkpt lat="43.4473465" lon="12.8418322"><ele>351.0</ele><time>2026-04-18T10:34:41.284Z</time></trkpt><trkpt lat="43.4472661" lon="12.8419627"><ele>350.0</ele><time>2026-04-18T10:34:42.285Z</time></trkpt><trkpt lat="43.4471959" lon="12.8421022"><ele>349.0</ele><time>2026-04-18T10:34:43.284Z</time></trkpt><trkpt lat="43.4471438" lon="12.8422556"><ele>348.0</ele><time>2026-04-18T10:34:44.284Z</time></trkpt><trkpt lat="43.4471155" lon="12.8424306"><ele>344.6666666666667</ele><time>2026-04-18T10:34:45.284Z</time></trkpt><trkpt lat="43.4471059" lon="12.8426311"><ele>341.33333333333337</ele><time>2026-04-18T10:34:46.284Z</time></trkpt><trkpt lat="43.4471088" lon="12.8428422"><ele>338.0</ele><time>2026-04-18T10:34:47.284Z</time></trkpt><trkpt lat="43.4471078" lon="12.8430609"><ele>336.0</ele><time>2026-04-18T10:34:48.285Z</time></trkpt><trkpt lat="43.4471081" lon="12.8432841"><ele>334.0</ele><time>2026-04-18T10:34:49.284Z</time></trkpt><trkpt lat="43.4471121" lon="12.8435133"><ele>332.0</ele><time>2026-04-18T10:34:50.285Z</time></trkpt><trkpt lat="43.4471167" lon="12.8437505"><ele>329.33333333333337</ele><time>2026-04-18T10:34:51.284Z</time></trkpt><trkpt lat="43.4471181" lon="12.8439774"><ele>326.6666666666667</ele><time>2026-04-18T10:34:52.284Z</time></trkpt><trkpt lat="43.4471146" lon="12.8441937"><ele>324.0</ele><time>2026-04-18T10:34:53.284Z</time></trkpt><trkpt lat="43.4471068" lon="12.8444007"><ele>323.5</ele><time>2026-04-18T10:34:54.284Z</time></trkpt><trkpt lat="43.447092" lon="12.8446"><ele>323.0</ele><time>2026-04-18T10:34:55.285Z</time></trkpt><trkpt lat="43.4470683" lon="12.8448002"><ele>322.5</ele><time>2026-04-18T10:34:56.284Z</time></trkpt><trkpt lat="43.4470424" lon="12.8450059"><ele>322.0</ele><time>2026-04-18T10:34:57.284Z</time></trkpt><trkpt lat="43.447015" lon="12.845206"><ele>321.5</ele><time>2026-04-18T10:34:58.285Z</time></trkpt><trkpt lat="43.4469916" lon="12.8453974"><ele>321.0</ele><time>2026-04-18T10:34:59.284Z</time></trkpt><trkpt lat="43.4469774" lon="12.8455847"><ele>320.5</ele><time>2026-04-18T10:35:00.285Z</time></trkpt><trkpt lat="43.4469748" lon="12.8457668"><ele>320.0</ele><time>2026-04-18T10:35:01.285Z</time></trkpt><trkpt lat="43.4469942" lon="12.8459318"><ele>319.75</ele><time>2026-04-18T10:35:02.285Z</time></trkpt><trkpt lat="43.4470409" lon="12.846066"><ele>319.5</ele><time>2026-04-18T10:35:03.285Z</time></trkpt><trkpt lat="43.4471183" lon="12.8461787"><ele>319.25</ele><time>2026-04-18T10:35:04.284Z</time></trkpt><trkpt lat="43.4472191" lon="12.8462739"><ele>319.0</ele><time>2026-04-18T10:35:05.284Z</time></trkpt><trkpt lat="43.4473338" lon="12.8463442"><ele>320.0</ele><time>2026-04-18T10:35:06.285Z</time></trkpt><trkpt lat="43.4474462" lon="12.846385"><ele>321.0</ele><time>2026-04-18T10:35:07.285Z</time></trkpt><trkpt lat="43.4475508" lon="12.8463937"><ele>322.0</ele><time>2026-04-18T10:35:08.284Z</time></trkpt><trkpt lat="43.4476479" lon="12.8464039"><ele>323.0</ele><time>2026-04-18T10:35:09.285Z</time></trkpt><trkpt lat="43.4477391" lon="12.8464339"><ele>324.0</ele><time>2026-04-18T10:35:10.285Z</time></trkpt><trkpt lat="43.4478145" lon="12.8464818"><ele>324.0</ele><time>2026-04-18T10:35:11.285Z</time></trkpt><trkpt lat="43.4478723" lon="12.8465419"><ele>324.0</ele><time>2026-04-18T10:35:12.284Z</time></trkpt><trkpt lat="43.4479198" lon="12.8466193"><ele>324.0</ele><time>2026-04-18T10:35:13.284Z</time></trkpt><trkpt lat="43.4479569" lon="12.8467218"><ele>324.0</ele><time>2026-04-18T10:35:14.284Z</time></trkpt><trkpt lat="43.4479853" lon="12.8468571"><ele>324.0</ele><time>2026-04-18T10:35:15.284Z</time></trkpt><trkpt lat="43.4480106" lon="12.8470071"><ele>324.0</ele><time>2026-04-18T10:35:16.284Z</time></trkpt><trkpt lat="43.4480382" lon="12.8471638"><ele>324.3333333333333</ele><time>2026-04-18T10:35:17.284Z</time></trkpt><trkpt lat="43.4480716" lon="12.8473085"><ele>324.6666666666667</ele><time>2026-04-18T10:35:18.285Z</time></trkpt><trkpt lat="43.4481004" lon="12.8474314"><ele>325.0</ele><time>2026-04-18T10:35:19.285Z</time></trkpt><trkpt lat="43.4481221" lon="12.8475348"><ele>325.33333333333337</ele><time>2026-04-18T10:35:20.285Z</time></trkpt><trkpt lat="43.448136" lon="12.8476235"><ele>325.6666666666667</ele><time>2026-04-18T10:35:21.284Z</time></trkpt><trkpt lat="43.4481275" lon="12.8477423"><ele>326.0</ele><time>2026-04-18T10:35:23.284Z</time></trkpt><trkpt lat="43.448054" lon="12.847817"><ele>326.0</ele><time>2026-04-18T10:35:25.284Z</time></trkpt><trkpt lat="43.4479814" lon="12.847834"><ele>326.0</ele><time>2026-04-18T10:35:26.285Z</time></trkpt><trkpt lat="43.4478807" lon="12.8478369"><ele>326.0</ele><time>2026-04-18T10:35:27.284Z</time></trkpt><trkpt lat="43.4477611" lon="12.8478418"><ele>326.0</ele><time>2026-04-18T10:35:28.285Z</time></trkpt><trkpt lat="43.447642" lon="12.8478598"><ele>326.0</ele><time>2026-04-18T10:35:29.284Z</time></trkpt><trkpt lat="43.4475297" lon="12.8478754"><ele>325.5</ele><time>2026-04-18T10:35:30.284Z</time></trkpt><trkpt lat="43.4474134" lon="12.8478864"><ele>325.0</ele><time>2026-04-18T10:35:31.285Z</time></trkpt><trkpt lat="43.4472924" lon="12.8478925"><ele>324.5</ele><time>2026-04-18T10:35:32.284Z</time></trkpt><trkpt lat="43.4471744" lon="12.8478912"><ele>324.0</ele><time>2026-04-18T10:35:33.284Z</time></trkpt><trkpt lat="43.4470583" lon="12.8478749"><ele>323.5</ele><time>2026-04-18T10:35:34.285Z</time></trkpt><trkpt lat="43.4469348" lon="12.8478448"><ele>323.0</ele><time>2026-04-18T10:35:35.284Z</time></trkpt><trkpt lat="43.4468104" lon="12.8477927"><ele>322.5</ele><time>2026-04-18T10:35:36.285Z</time></trkpt><trkpt lat="43.4466915" lon="12.8477229"><ele>322.0</ele><time>2026-04-18T10:35:37.284Z</time></trkpt><trkpt lat="43.446577" lon="12.847643"><ele>321.75</ele><time>2026-04-18T10:35:38.285Z</time></trkpt><trkpt lat="43.4464625" lon="12.8475521"><ele>321.5</ele><time>2026-04-18T10:35:39.284Z</time></trkpt><trkpt lat="43.4463489" lon="12.8474546"><ele>321.25</ele><time>2026-04-18T10:35:40.285Z</time></trkpt><trkpt lat="43.4462314" lon="12.8473626"><ele>321.0</ele><time>2026-04-18T10:35:41.284Z</time></trkpt><trkpt lat="43.4461042" lon="12.8472861"><ele>319.25</ele><time>2026-04-18T10:35:42.284Z</time></trkpt><trkpt lat="43.4459744" lon="12.8472457"><ele>317.5</ele><time>2026-04-18T10:35:43.284Z</time></trkpt><trkpt lat="43.4458389" lon="12.8472304"><ele>315.75</ele><time>2026-04-18T10:35:44.284Z</time></trkpt><trkpt lat="43.4457019" lon="12.8472336"><ele>314.0</ele><time>2026-04-18T10:35:45.285Z</time></trkpt><trkpt lat="43.4455716" lon="12.8472549"><ele>314.75</ele><time>2026-04-18T10:35:46.284Z</time></trkpt><trkpt lat="43.4454442" lon="12.8472918"><ele>315.5</ele><time>2026-04-18T10:35:47.285Z</time></trkpt><trkpt lat="43.4453179" lon="12.8473557"><ele>316.25</ele><time>2026-04-18T10:35:48.285Z</time></trkpt><trkpt lat="43.4451947" lon="12.8474467"><ele>317.0</ele><time>2026-04-18T10:35:49.285Z</time></trkpt><trkpt lat="43.4450655" lon="12.8475467"><ele>315.33333333333337</ele><time>2026-04-18T10:35:50.284Z</time></trkpt><trkpt lat="43.4449309" lon="12.8476611"><ele>313.6666666666667</ele><time>2026-04-18T10:35:51.285Z</time></trkpt><trkpt lat="43.4447992" lon="12.8477874"><ele>312.0</ele><time>2026-04-18T10:35:52.284Z</time></trkpt><trkpt lat="43.4446663" lon="12.8479159"><ele>313.0</ele><time>2026-04-18T10:35:53.284Z</time></trkpt><trkpt lat="43.4445408" lon="12.8480332"><ele>314.0</ele><time>2026-04-18T10:35:54.284Z</time></trkpt><trkpt lat="43.4444257" lon="12.8481417"><ele>315.0</ele><time>2026-04-18T10:35:55.285Z</time></trkpt><trkpt lat="43.4443167" lon="12.8482464"><ele>316.0</ele><time>2026-04-18T10:35:56.285Z</time></trkpt><trkpt lat="43.444208" lon="12.8483456"><ele>316.0</ele><time>2026-04-18T10:35:57.284Z</time></trkpt><trkpt lat="43.4440929" lon="12.848447"><ele>316.0</ele><time>2026-04-18T10:35:58.285Z</time></trkpt><trkpt lat="43.4439744" lon="12.8485466"><ele>316.0</ele><time>2026-04-18T10:35:59.284Z</time></trkpt><trkpt lat="43.4438567" lon="12.848649"><ele>316.0</ele><time>2026-04-18T10:36:00.284Z</time></trkpt><trkpt lat="43.4437392" lon="12.8487477"><ele>315.25</ele><time>2026-04-18T10:36:01.284Z</time></trkpt><trkpt lat="43.4436218" lon="12.8488435"><ele>314.5</ele><time>2026-04-18T10:36:02.285Z</time></trkpt><trkpt lat="43.4435013" lon="12.8489293"><ele>313.75</ele><time>2026-04-18T10:36:03.284Z</time></trkpt><trkpt lat="43.4433779" lon="12.8490065"><ele>313.0</ele><time>2026-04-18T10:36:04.284Z</time></trkpt><trkpt lat="43.4432531" lon="12.8490802"><ele>313.0</ele><time>2026-04-18T10:36:05.285Z</time></trkpt><trkpt lat="43.4431309" lon="12.8491425"><ele>313.0</ele><time>2026-04-18T10:36:06.285Z</time></trkpt><trkpt lat="43.4430048" lon="12.8491888"><ele>313.0</ele><time>2026-04-18T10:36:07.284Z</time></trkpt><trkpt lat="43.4428781" lon="12.8492322"><ele>313.0</ele><time>2026-04-18T10:36:08.285Z</time></trkpt><trkpt lat="43.4427514" lon="12.849276"><ele>313.0</ele><time>2026-04-18T10:36:09.284Z</time></trkpt><trkpt lat="43.4426208" lon="12.8493161"><ele>313.0</ele><time>2026-04-18T10:36:10.285Z</time></trkpt><trkpt lat="43.442488" lon="12.8493555"><ele>313.0</ele><time>2026-04-18T10:36:11.284Z</time></trkpt><trkpt lat="43.4423547" lon="12.8494001"><ele>313.0</ele><time>2026-04-18T10:36:12.285Z</time></trkpt><trkpt lat="43.442221" lon="12.8494429"><ele>313.25</ele><time>2026-04-18T10:36:13.284Z</time></trkpt><trkpt lat="43.4420867" lon="12.8494891"><ele>313.5</ele><time>2026-04-18T10:36:14.284Z</time></trkpt><trkpt lat="43.441953" lon="12.8495332"><ele>313.75</ele><time>2026-04-18T10:36:15.284Z</time></trkpt><trkpt lat="43.4418167" lon="12.8495695"><ele>314.0</ele><time>2026-04-18T10:36:16.284Z</time></trkpt><trkpt lat="43.4416795" lon="12.8496085"><ele>314.0</ele><time>2026-04-18T10:36:17.285Z</time></trkpt><trkpt lat="43.4415452" lon="12.8496472"><ele>314.0</ele><time>2026-04-18T10:36:18.284Z</time></trkpt><trkpt lat="43.4414149" lon="12.8496862"><ele>314.0</ele><time>2026-04-18T10:36:19.285Z</time></trkpt><trkpt lat="43.441286" lon="12.8497243"><ele>314.0</ele><time>2026-04-18T10:36:20.284Z</time></trkpt><trkpt lat="43.441157" lon="12.8497567"><ele>313.75</ele><time>2026-04-18T10:36:21.284Z</time></trkpt><trkpt lat="43.4410214" lon="12.8497987"><ele>313.5</ele><time>2026-04-18T10:36:22.284Z</time></trkpt><trkpt lat="43.4408845" lon="12.8498485"><ele>313.25</ele><time>2026-04-18T10:36:23.285Z</time></trkpt><trkpt lat="43.440745" lon="12.8498928"><ele>313.0</ele><time>2026-04-18T10:36:24.285Z</time></trkpt><trkpt lat="43.4406067" lon="12.849937"><ele>313.0</ele><time>2026-04-18T10:36:25.284Z</time></trkpt><trkpt lat="43.4404664" lon="12.8499818"><ele>313.0</ele><time>2026-04-18T10:36:26.284Z</time></trkpt><trkpt lat="43.4403277" lon="12.8500229"><ele>313.0</ele><time>2026-04-18T10:36:27.285Z</time></trkpt><trkpt lat="43.4401897" lon="12.8500634"><ele>313.0</ele><time>2026-04-18T10:36:28.284Z</time></trkpt><trkpt lat="43.4400519" lon="12.850105"><ele>311.5</ele><time>2026-04-18T10:36:29.284Z</time></trkpt><trkpt lat="43.4399161" lon="12.8501462"><ele>310.0</ele><time>2026-04-18T10:36:30.284Z</time></trkpt><trkpt lat="43.4397792" lon="12.8501816"><ele>308.5</ele><time>2026-04-18T10:36:31.284Z</time></trkpt><trkpt lat="43.4396416" lon="12.850219"><ele>307.0</ele><time>2026-04-18T10:36:32.284Z</time></trkpt><trkpt lat="43.4395025" lon="12.8502599"><ele>307.0</ele><time>2026-04-18T10:36:33.284Z</time></trkpt><trkpt lat="43.439364" lon="12.8502964"><ele>307.0</ele><time>2026-04-18T10:36:34.285Z</time></trkpt><trkpt lat="43.4392279" lon="12.8503368"><ele>307.0</ele><time>2026-04-18T10:36:35.284Z</time></trkpt><trkpt lat="43.4390907" lon="12.8503799"><ele>307.0</ele><time>2026-04-18T10:36:36.284Z</time></trkpt><trkpt lat="43.4389542" lon="12.8504263"><ele>307.0</ele><time>2026-04-18T10:36:37.285Z</time></trkpt><trkpt lat="43.4388185" lon="12.8504706"><ele>307.0</ele><time>2026-04-18T10:36:38.285Z</time></trkpt><trkpt lat="43.4386792" lon="12.8505109"><ele>307.0</ele><time>2026-04-18T10:36:39.285Z</time></trkpt><trkpt lat="43.4385402" lon="12.8505569"><ele>307.0</ele><time>2026-04-18T10:36:40.284Z</time></trkpt><trkpt lat="43.4384063" lon="12.8506118"><ele>306.75</ele><time>2026-04-18T10:36:41.284Z</time></trkpt><trkpt lat="43.4382777" lon="12.8506841"><ele>306.5</ele><time>2026-04-18T10:36:42.284Z</time></trkpt><trkpt lat="43.4381513" lon="12.8507724"><ele>306.25</ele><time>2026-04-18T10:36:43.284Z</time></trkpt><trkpt lat="43.4380249" lon="12.8508638"><ele>306.0</ele><time>2026-04-18T10:36:44.284Z</time></trkpt><trkpt lat="43.4379033" lon="12.8509697"><ele>305.25</ele><time>2026-04-18T10:36:45.285Z</time></trkpt><trkpt lat="43.4377812" lon="12.8510768"><ele>304.5</ele><time>2026-04-18T10:36:46.285Z</time></trkpt><trkpt lat="43.4376665" lon="12.8511772"><ele>303.75</ele><time>2026-04-18T10:36:47.285Z</time></trkpt><trkpt lat="43.4375586" lon="12.8512705"><ele>303.0</ele><time>2026-04-18T10:36:48.285Z</time></trkpt><trkpt lat="43.4374591" lon="12.8513726"><ele>303.0</ele><time>2026-04-18T10:36:49.284Z</time></trkpt><trkpt lat="43.4373401" lon="12.8514398"><ele>303.0</ele><time>2026-04-18T10:36:50.284Z</time></trkpt><trkpt lat="43.4372175" lon="12.8514862"><ele>303.0</ele><time>2026-04-18T10:36:51.284Z</time></trkpt><trkpt lat="43.4370914" lon="12.8515345"><ele>303.0</ele><time>2026-04-18T10:36:52.284Z</time></trkpt><trkpt lat="43.4369597" lon="12.8515885"><ele>302.75</ele><time>2026-04-18T10:36:53.285Z</time></trkpt><trkpt lat="43.4368241" lon="12.8516528"><ele>302.5</ele><time>2026-04-18T10:36:54.285Z</time></trkpt><trkpt lat="43.4367006" lon="12.8517155"><ele>302.25</ele><time>2026-04-18T10:36:55.285Z</time></trkpt><trkpt lat="43.4365898" lon="12.8517716"><ele>302.0</ele><time>2026-04-18T10:36:56.285Z</time></trkpt><trkpt lat="43.4364881" lon="12.8518221"><ele>301.0</ele><time>2026-04-18T10:36:57.285Z</time></trkpt><trkpt lat="43.4363903" lon="12.8518726"><ele>300.0</ele><time>2026-04-18T10:36:58.284Z</time></trkpt><trkpt lat="43.4362965" lon="12.8519253"><ele>299.0</ele><time>2026-04-18T10:36:59.284Z</time></trkpt><trkpt lat="43.4362062" lon="12.8519829"><ele>298.0</ele><time>2026-04-18T10:37:00.284Z</time></trkpt><trkpt lat="43.4361146" lon="12.8520402"><ele>297.0</ele><time>2026-04-18T10:37:01.284Z</time></trkpt><trkpt lat="43.4360188" lon="12.8520944"><ele>297.0</ele><time>2026-04-18T10:37:02.284Z</time></trkpt><trkpt lat="43.4359121" lon="12.8521396"><ele>297.0</ele><time>2026-04-18T10:37:03.284Z</time></trkpt><trkpt lat="43.4358005" lon="12.8521842"><ele>297.0</ele><time>2026-04-18T10:37:04.284Z</time></trkpt><trkpt lat="43.4356884" lon="12.8522343"><ele>297.0</ele><time>2026-04-18T10:37:05.285Z</time></trkpt><trkpt lat="43.435576" lon="12.8522783"><ele>297.4</ele><time>2026-04-18T10:37:06.285Z</time></trkpt><trkpt lat="43.4354641" lon="12.8523199"><ele>297.79999999999995</ele><time>2026-04-18T10:37:07.285Z</time></trkpt><trkpt lat="43.4353544" lon="12.8523639"><ele>298.2</ele><time>2026-04-18T10:37:08.284Z</time></trkpt><trkpt lat="43.4352524" lon="12.8524121"><ele>298.59999999999997</ele><time>2026-04-18T10:37:09.284Z</time></trkpt><trkpt lat="43.4351594" lon="12.8524466"><ele>299.0</ele><time>2026-04-18T10:37:10.285Z</time></trkpt><trkpt lat="43.4350676" lon="12.852481"><ele>299.0</ele><time>2026-04-18T10:37:11.284Z</time></trkpt><trkpt lat="43.4349703" lon="12.8524972"><ele>299.0</ele><time>2026-04-18T10:37:12.284Z</time></trkpt><trkpt lat="43.434877" lon="12.8524638"><ele>299.0</ele><time>2026-04-18T10:37:13.284Z</time></trkpt><trkpt lat="43.4347766" lon="12.8524088"><ele>299.0</ele><time>2026-04-18T10:37:14.284Z</time></trkpt><trkpt lat="43.434675" lon="12.8523726"><ele>299.0</ele><time>2026-04-18T10:37:15.285Z</time></trkpt><trkpt lat="43.4345723" lon="12.8523572"><ele>299.5</ele><time>2026-04-18T10:37:16.284Z</time></trkpt><trkpt lat="43.4344637" lon="12.8523593"><ele>300.0</ele><time>2026-04-18T10:37:17.285Z</time></trkpt><trkpt lat="43.434346" lon="12.8523695"><ele>300.5</ele><time>2026-04-18T10:37:18.285Z</time></trkpt><trkpt lat="43.4342253" lon="12.8523877"><ele>301.0</ele><time>2026-04-18T10:37:19.284Z</time></trkpt><trkpt lat="43.4341068" lon="12.852409"><ele>301.0</ele><time>2026-04-18T10:37:20.284Z</time></trkpt><trkpt lat="43.4339896" lon="12.8524284"><ele>301.0</ele><time>2026-04-18T10:37:21.284Z</time></trkpt><trkpt lat="43.4338726" lon="12.8524589"><ele>301.0</ele><time>2026-04-18T10:37:22.284Z</time></trkpt><trkpt lat="43.4337613" lon="12.8525036"><ele>301.0</ele><time>2026-04-18T10:37:23.285Z</time></trkpt><trkpt lat="43.4336578" lon="12.8525804"><ele>300.25</ele><time>2026-04-18T10:37:24.284Z</time></trkpt><trkpt lat="43.4335572" lon="12.8526792"><ele>299.5</ele><time>2026-04-18T10:37:25.284Z</time></trkpt><trkpt lat="43.4334533" lon="12.8527877"><ele>298.75</ele><time>2026-04-18T10:37:26.284Z</time></trkpt><trkpt lat="43.43335" lon="12.8528786"><ele>298.0</ele><time>2026-04-18T10:37:27.284Z</time></trkpt><trkpt lat="43.4332565" lon="12.8529657"><ele>298.0</ele><time>2026-04-18T10:37:28.284Z</time></trkpt><trkpt lat="43.4331618" lon="12.8530575"><ele>298.0</ele><time>2026-04-18T10:37:29.284Z</time></trkpt><trkpt lat="43.4330636" lon="12.8531517"><ele>298.0</ele><time>2026-04-18T10:37:30.285Z</time></trkpt><trkpt lat="43.4329609" lon="12.8532376"><ele>298.0</ele><time>2026-04-18T10:37:31.284Z</time></trkpt><trkpt lat="43.4328623" lon="12.8533244"><ele>297.5</ele><time>2026-04-18T10:37:32.285Z</time></trkpt><trkpt lat="43.4327604" lon="12.8534151"><ele>297.0</ele><time>2026-04-18T10:37:33.284Z</time></trkpt><trkpt lat="43.4326578" lon="12.8535125"><ele>296.5</ele><time>2026-04-18T10:37:34.284Z</time></trkpt><trkpt lat="43.4325619" lon="12.8536029"><ele>296.0</ele><time>2026-04-18T10:37:35.284Z</time></trkpt><trkpt lat="43.4324771" lon="12.8536871"><ele>296.0</ele><time>2026-04-18T10:37:36.285Z</time></trkpt><trkpt lat="43.4323976" lon="12.8537643"><ele>296.0</ele><time>2026-04-18T10:37:37.285Z</time></trkpt><trkpt lat="43.4323203" lon="12.8538378"><ele>296.0</ele><time>2026-04-18T10:37:38.285Z</time></trkpt><trkpt lat="43.4322432" lon="12.8539048"><ele>296.0</ele><time>2026-04-18T10:37:39.284Z</time></trkpt><trkpt lat="43.4321748" lon="12.8539714"><ele>296.0</ele><time>2026-04-18T10:37:40.284Z</time></trkpt><trkpt lat="43.4321116" lon="12.8540362"><ele>296.0</ele><time>2026-04-18T10:37:41.284Z</time></trkpt><trkpt lat="43.4320545" lon="12.8540926"><ele>296.0</ele><time>2026-04-18T10:37:42.284Z</time></trkpt><trkpt lat="43.431977" lon="12.8542052"><ele>296.0</ele><time>2026-04-18T10:37:44.284Z</time></trkpt><trkpt lat="43.4319999" lon="12.8543798"><ele>296.0</ele><time>2026-04-18T10:37:46.285Z</time></trkpt><trkpt lat="43.432045" lon="12.8544796"><ele>296.0</ele><time>2026-04-18T10:37:47.285Z</time></trkpt><trkpt lat="43.4320937" lon="12.8545757"><ele>296.0</ele><time>2026-04-18T10:37:48.285Z</time></trkpt><trkpt lat="43.4321397" lon="12.8546693"><ele>295.8</ele><time>2026-04-18T10:37:49.284Z</time></trkpt><trkpt lat="43.4321909" lon="12.854767"><ele>295.6</ele><time>2026-04-18T10:37:50.285Z</time></trkpt><trkpt lat="43.4322456" lon="12.8548702"><ele>295.4</ele><time>2026-04-18T10:37:51.285Z</time></trkpt><trkpt lat="43.4322945" lon="12.8549801"><ele>295.2</ele><time>2026-04-18T10:37:52.284Z</time></trkpt><trkpt lat="43.4323497" lon="12.8550842"><ele>295.0</ele><time>2026-04-18T10:37:53.285Z</time></trkpt><trkpt lat="43.432408" lon="12.8551874"><ele>295.0</ele><time>2026-04-18T10:37:54.284Z</time></trkpt><trkpt lat="43.4324655" lon="12.8552909"><ele>295.0</ele><time>2026-04-18T10:37:55.284Z</time></trkpt><trkpt lat="43.4325168" lon="12.8553997"><ele>295.0</ele><time>2026-04-18T10:37:56.285Z</time></trkpt><trkpt lat="43.432565" lon="12.8554976"><ele>295.0</ele><time>2026-04-18T10:37:57.284Z</time></trkpt><trkpt lat="43.4326093" lon="12.8555808"><ele>295.0</ele><time>2026-04-18T10:37:58.284Z</time></trkpt><trkpt lat="43.4326556" lon="12.8556628"><ele>295.0</ele><time>2026-04-18T10:37:59.285Z</time></trkpt><trkpt lat="43.4326959" lon="12.8557459"><ele>295.0</ele><time>2026-04-18T10:38:00.284Z</time></trkpt><trkpt lat="43.432742" lon="12.8558386"><ele>295.0</ele><time>2026-04-18T10:38:02.284Z</time></trkpt><trkpt lat="43.4329368" lon="12.8557897"><ele>295.0</ele><time>2026-04-18T10:38:09.284Z</time></trkpt><trkpt lat="43.4330066" lon="12.8557126"><ele>295.0</ele><time>2026-04-18T10:38:10.284Z</time></trkpt><trkpt lat="43.4330763" lon="12.8556365"><ele>296.3333333333333</ele><time>2026-04-18T10:38:11.284Z</time></trkpt><trkpt lat="43.4331509" lon="12.8555632"><ele>297.66666666666663</ele><time>2026-04-18T10:38:12.284Z</time></trkpt><trkpt lat="43.4332324" lon="12.8554866"><ele>299.0</ele><time>2026-04-18T10:38:13.284Z</time></trkpt><trkpt lat="43.4333052" lon="12.8554165"><ele>300.3333333333333</ele><time>2026-04-18T10:38:14.285Z</time></trkpt><trkpt lat="43.4333713" lon="12.8553497"><ele>301.6666666666667</ele><time>2026-04-18T10:38:15.284Z</time></trkpt><trkpt lat="43.4334363" lon="12.8552847"><ele>303.0</ele><time>2026-04-18T10:38:16.285Z</time></trkpt><trkpt lat="43.433505" lon="12.8552177"><ele>303.0</ele><time>2026-04-18T10:38:17.285Z</time></trkpt><trkpt lat="43.4335828" lon="12.8551474"><ele>303.0</ele><time>2026-04-18T10:38:18.285Z</time></trkpt><trkpt lat="43.4336596" lon="12.855074"><ele>303.0</ele><time>2026-04-18T10:38:19.284Z</time></trkpt><trkpt lat="43.4337464" lon="12.8550015"><ele>303.0</ele><time>2026-04-18T10:38:20.284Z</time></trkpt><trkpt lat="43.4338163" lon="12.8549252"><ele>303.0</ele><time>2026-04-18T10:38:21.285Z</time></trkpt><trkpt lat="43.4338882" lon="12.8548412"><ele>301.8</ele><time>2026-04-18T10:38:22.284Z</time></trkpt><trkpt lat="43.4339608" lon="12.8547541"><ele>300.6</ele><time>2026-04-18T10:38:23.284Z</time></trkpt><trkpt lat="43.4340347" lon="12.8546623"><ele>299.4</ele><time>2026-04-18T10:38:24.284Z</time></trkpt><trkpt lat="43.4341107" lon="12.8545651"><ele>298.2</ele><time>2026-04-18T10:38:25.284Z</time></trkpt><trkpt lat="43.434191" lon="12.854474"><ele>297.0</ele><time>2026-04-18T10:38:26.284Z</time></trkpt><trkpt lat="43.434265" lon="12.8543722"><ele>296.4</ele><time>2026-04-18T10:38:27.285Z</time></trkpt><trkpt lat="43.4343397" lon="12.8542759"><ele>295.79999999999995</ele><time>2026-04-18T10:38:28.284Z</time></trkpt><trkpt lat="43.4344185" lon="12.8541864"><ele>295.2</ele><time>2026-04-18T10:38:29.285Z</time></trkpt><trkpt lat="43.4344937" lon="12.8540947"><ele>294.59999999999997</ele><time>2026-04-18T10:38:30.284Z</time></trkpt><trkpt lat="43.4345655" lon="12.8540083"><ele>294.0</ele><time>2026-04-18T10:38:31.284Z</time></trkpt><trkpt lat="43.4346412" lon="12.8539156"><ele>294.0</ele><time>2026-04-18T10:38:32.285Z</time></trkpt><trkpt lat="43.4347193" lon="12.8538059"><ele>294.0</ele><time>2026-04-18T10:38:33.284Z</time></trkpt><trkpt lat="43.4347987" lon="12.8537071"><ele>294.0</ele><time>2026-04-18T10:38:34.285Z</time></trkpt><trkpt lat="43.4348861" lon="12.8535941"><ele>294.0</ele><time>2026-04-18T10:38:35.284Z</time></trkpt><trkpt lat="43.4349768" lon="12.8534701"><ele>293.25</ele><time>2026-04-18T10:38:36.284Z</time></trkpt><trkpt lat="43.4350736" lon="12.8533463"><ele>292.5</ele><time>2026-04-18T10:38:37.284Z</time></trkpt><trkpt lat="43.4351738" lon="12.8532266"><ele>291.75</ele><time>2026-04-18T10:38:38.285Z</time></trkpt><trkpt lat="43.4352731" lon="12.8531055"><ele>291.0</ele><time>2026-04-18T10:38:39.285Z</time></trkpt><trkpt lat="43.4353729" lon="12.8529819"><ele>291.0</ele><time>2026-04-18T10:38:40.284Z</time></trkpt><trkpt lat="43.4354684" lon="12.8528736"><ele>291.0</ele><time>2026-04-18T10:38:41.284Z</time></trkpt><trkpt lat="43.435559" lon="12.85276"><ele>291.0</ele><time>2026-04-18T10:38:42.285Z</time></trkpt><trkpt lat="43.4356503" lon="12.8526391"><ele>291.0</ele><time>2026-04-18T10:38:43.284Z</time></trkpt><trkpt lat="43.4357402" lon="12.8525354"><ele>292.2</ele><time>2026-04-18T10:38:44.284Z</time></trkpt><trkpt lat="43.435829" lon="12.8524363"><ele>293.40000000000003</ele><time>2026-04-18T10:38:45.284Z</time></trkpt><trkpt lat="43.4359182" lon="12.8523453"><ele>294.6</ele><time>2026-04-18T10:38:46.285Z</time></trkpt><trkpt lat="43.435997" lon="12.8522588"><ele>295.8</ele><time>2026-04-18T10:38:47.284Z</time></trkpt><trkpt lat="43.436071" lon="12.8522098"><ele>297.0</ele><time>2026-04-18T10:38:48.284Z</time></trkpt><trkpt lat="43.4361501" lon="12.8521473"><ele>297.0</ele><time>2026-04-18T10:38:49.285Z</time></trkpt><trkpt lat="43.4362349" lon="12.8520967"><ele>297.0</ele><time>2026-04-18T10:38:50.284Z</time></trkpt><trkpt lat="43.436329" lon="12.8520528"><ele>297.0</ele><time>2026-04-18T10:38:51.284Z</time></trkpt><trkpt lat="43.4364322" lon="12.8520048"><ele>297.0</ele><time>2026-04-18T10:38:52.285Z</time></trkpt><trkpt lat="43.4365351" lon="12.8519587"><ele>297.0</ele><time>2026-04-18T10:38:53.284Z</time></trkpt><trkpt lat="43.4366259" lon="12.8519193"><ele>295.8333333333333</ele><time>2026-04-18T10:38:54.284Z</time></trkpt><trkpt lat="43.4367126" lon="12.8518821"><ele>294.6666666666667</ele><time>2026-04-18T10:38:55.284Z</time></trkpt><trkpt lat="43.4367917" lon="12.8518672"><ele>293.5</ele><time>2026-04-18T10:38:56.284Z</time></trkpt><trkpt lat="43.4368999" lon="12.851895"><ele>292.33333333333337</ele><time>2026-04-18T10:38:58.285Z</time></trkpt><trkpt lat="43.4369581" lon="12.85199"><ele>291.1666666666667</ele><time>2026-04-18T10:39:00.285Z</time></trkpt><trkpt lat="43.4369676" lon="12.8520799"><ele>290.0</ele><time>2026-04-18T10:39:01.284Z</time></trkpt><trkpt lat="43.436972" lon="12.8521843"><ele>290.0</ele><time>2026-04-18T10:39:02.284Z</time></trkpt><trkpt lat="43.4369767" lon="12.8523036"><ele>290.0</ele><time>2026-04-18T10:39:03.285Z</time></trkpt><trkpt lat="43.4369788" lon="12.8524326"><ele>290.0</ele><time>2026-04-18T10:39:04.285Z</time></trkpt><trkpt lat="43.4369715" lon="12.8525702"><ele>290.0</ele><time>2026-04-18T10:39:05.284Z</time></trkpt><trkpt lat="43.4369594" lon="12.8526926"><ele>290.0</ele><time>2026-04-18T10:39:06.285Z</time></trkpt><trkpt lat="43.4369414" lon="12.8528084"><ele>289.8</ele><time>2026-04-18T10:39:07.284Z</time></trkpt><trkpt lat="43.4369211" lon="12.8529244"><ele>289.6</ele><time>2026-04-18T10:39:08.285Z</time></trkpt><trkpt lat="43.4368949" lon="12.853053"><ele>289.4</ele><time>2026-04-18T10:39:09.285Z</time></trkpt><trkpt lat="43.436876" lon="12.853182"><ele>289.2</ele><time>2026-04-18T10:39:10.284Z</time></trkpt><trkpt lat="43.4368619" lon="12.8533189"><ele>289.0</ele><time>2026-04-18T10:39:11.284Z</time></trkpt><trkpt lat="43.4368398" lon="12.8534521"><ele>290.8</ele><time>2026-04-18T10:39:12.285Z</time></trkpt><trkpt lat="43.4368059" lon="12.853581"><ele>292.59999999999997</ele><time>2026-04-18T10:39:13.285Z</time></trkpt><trkpt lat="43.4367497" lon="12.8536948"><ele>294.4</ele><time>2026-04-18T10:39:14.284Z</time></trkpt><trkpt lat="43.4366743" lon="12.8537925"><ele>296.2</ele><time>2026-04-18T10:39:15.284Z</time></trkpt><trkpt lat="43.4365906" lon="12.8538853"><ele>298.0</ele><time>2026-04-18T10:39:16.284Z</time></trkpt><trkpt lat="43.4365027" lon="12.8539605"><ele>298.0</ele><time>2026-04-18T10:39:17.284Z</time></trkpt><trkpt lat="43.4364138" lon="12.8540419"><ele>298.0</ele><time>2026-04-18T10:39:18.285Z</time></trkpt><trkpt lat="43.4363225" lon="12.8541113"><ele>298.0</ele><time>2026-04-18T10:39:19.284Z</time></trkpt><trkpt lat="43.4362359" lon="12.8541887"><ele>298.0</ele><time>2026-04-18T10:39:20.284Z</time></trkpt><trkpt lat="43.4361445" lon="12.8542593"><ele>298.0</ele><time>2026-04-18T10:39:21.284Z</time></trkpt><trkpt lat="43.436052" lon="12.8543314"><ele>300.8</ele><time>2026-04-18T10:39:22.284Z</time></trkpt><trkpt lat="43.4359621" lon="12.8544079"><ele>303.6</ele><time>2026-04-18T10:39:23.284Z</time></trkpt><trkpt lat="43.4358775" lon="12.8544782"><ele>306.4</ele><time>2026-04-18T10:39:24.284Z</time></trkpt><trkpt lat="43.4357939" lon="12.8545396"><ele>309.2</ele><time>2026-04-18T10:39:25.285Z</time></trkpt><trkpt lat="43.4357083" lon="12.8545964"><ele>312.0</ele><time>2026-04-18T10:39:26.285Z</time></trkpt><trkpt lat="43.4356231" lon="12.8546372"><ele>312.0</ele><time>2026-04-18T10:39:27.284Z</time></trkpt><trkpt lat="43.4355407" lon="12.8546883"><ele>312.0</ele><time>2026-04-18T10:39:28.284Z</time></trkpt><trkpt lat="43.4354599" lon="12.85473"><ele>312.0</ele><time>2026-04-18T10:39:29.284Z</time></trkpt><trkpt lat="43.435391" lon="12.8547539"><ele>312.0</ele><time>2026-04-18T10:39:30.284Z</time></trkpt><trkpt lat="43.4352897" lon="12.8547961"><ele>312.0</ele><time>2026-04-18T10:39:32.285Z</time></trkpt><trkpt lat="43.4351835" lon="12.8548273"><ele>310.8333333333333</ele><time>2026-04-18T10:39:34.285Z</time></trkpt><trkpt lat="43.4351038" lon="12.8548964"><ele>309.6666666666667</ele><time>2026-04-18T10:39:36.284Z</time></trkpt><trkpt lat="43.4351261" lon="12.8550362"><ele>308.5</ele><time>2026-04-18T10:39:38.284Z</time></trkpt><trkpt lat="43.4351954" lon="12.8550734"><ele>307.33333333333337</ele><time>2026-04-18T10:39:39.284Z</time></trkpt><trkpt lat="43.4352626" lon="12.8550769"><ele>306.1666666666667</ele><time>2026-04-18T10:39:40.285Z</time></trkpt><trkpt lat="43.4353431" lon="12.8550701"><ele>305.0</ele><time>2026-04-18T10:39:41.284Z</time></trkpt><trkpt lat="43.4354254" lon="12.8550688"><ele>306.4</ele><time>2026-04-18T10:39:42.284Z</time></trkpt><trkpt lat="43.4355033" lon="12.8550724"><ele>307.8</ele><time>2026-04-18T10:39:43.285Z</time></trkpt><trkpt lat="43.4355805" lon="12.8550885"><ele>309.2</ele><time>2026-04-18T10:39:44.285Z</time></trkpt><trkpt lat="43.4356513" lon="12.8551008"><ele>310.6</ele><time>2026-04-18T10:39:45.285Z</time></trkpt><trkpt lat="43.4357776" lon="12.8551479"><ele>312.0</ele><time>2026-04-18T10:39:47.285Z</time></trkpt><trkpt lat="43.4359018" lon="12.855212"><ele>313.7142857142857</ele><time>2026-04-18T10:39:49.284Z</time></trkpt><trkpt lat="43.4359692" lon="12.8552431"><ele>315.4285714285714</ele><time>2026-04-18T10:39:50.284Z</time></trkpt><trkpt lat="43.4360287" lon="12.8552782"><ele>317.1428571428571</ele><time>2026-04-18T10:39:51.284Z</time></trkpt><trkpt lat="43.4360922" lon="12.8553045"><ele>318.8571428571429</ele><time>2026-04-18T10:39:52.284Z</time></trkpt><trkpt lat="43.4361671" lon="12.855352"><ele>320.57142857142856</ele><time>2026-04-18T10:39:53.285Z</time></trkpt><trkpt lat="43.4362363" lon="12.8553994"><ele>322.2857142857143</ele><time>2026-04-18T10:39:54.285Z</time></trkpt><trkpt lat="43.4363037" lon="12.8554541"><ele>324.0</ele><time>2026-04-18T10:39:55.285Z</time></trkpt><trkpt lat="43.436373" lon="12.8555131"><ele>324.0</ele><time>2026-04-18T10:39:56.285Z</time></trkpt><trkpt lat="43.4364414" lon="12.8555825"><ele>324.0</ele><time>2026-04-18T10:39:57.285Z</time></trkpt><trkpt lat="43.4365036" lon="12.8556474"><ele>324.0</ele><time>2026-04-18T10:39:58.284Z</time></trkpt><trkpt lat="43.4365611" lon="12.8557106"><ele>324.0</ele><time>2026-04-18T10:39:59.284Z</time></trkpt><trkpt lat="43.4366155" lon="12.8557687"><ele>324.0</ele><time>2026-04-18T10:40:00.284Z</time></trkpt><trkpt lat="43.4366763" lon="12.8558285"><ele>324.0</ele><time>2026-04-18T10:40:01.285Z</time></trkpt><trkpt lat="43.4367379" lon="12.8558917"><ele>327.0</ele><time>2026-04-18T10:40:02.285Z</time></trkpt><trkpt lat="43.4367881" lon="12.8559547"><ele>330.0</ele><time>2026-04-18T10:40:03.284Z</time></trkpt><trkpt lat="43.4368372" lon="12.8560104"><ele>333.0</ele><time>2026-04-18T10:40:04.284Z</time></trkpt><trkpt lat="43.4368869" lon="12.8560705"><ele>336.0</ele><time>2026-04-18T10:40:05.284Z</time></trkpt><trkpt lat="43.4369414" lon="12.856132"><ele>339.0</ele><time>2026-04-18T10:40:06.284Z</time></trkpt><trkpt lat="43.4369895" lon="12.8561906"><ele>342.0</ele><time>2026-04-18T10:40:07.284Z</time></trkpt><trkpt lat="43.4370493" lon="12.856259"><ele>345.0</ele><time>2026-04-18T10:40:08.284Z</time></trkpt><trkpt lat="43.4371267" lon="12.8563856"><ele>345.0</ele><time>2026-04-18T10:40:10.284Z</time></trkpt><trkpt lat="43.437101" lon="12.8565151"><ele>345.0</ele><time>2026-04-18T10:40:12.285Z</time></trkpt><trkpt lat="43.4369793" lon="12.8564857"><ele>345.0</ele><time>2026-04-18T10:40:14.284Z</time></trkpt><trkpt lat="43.4369174" lon="12.8564262"><ele>345.0</ele><time>2026-04-18T10:40:15.284Z</time></trkpt><trkpt lat="43.4368592" lon="12.856361"><ele>345.0</ele><time>2026-04-18T10:40:16.284Z</time></trkpt><trkpt lat="43.436814" lon="12.8562967"><ele>345.0</ele><time>2026-04-18T10:40:17.284Z</time></trkpt><trkpt lat="43.4367599" lon="12.8562495"><ele>345.0</ele><time>2026-04-18T10:40:18.284Z</time></trkpt><trkpt lat="43.4366951" lon="12.8561714"><ele>345.0</ele><time>2026-04-18T10:40:20.285Z</time></trkpt><trkpt lat="43.4367861" lon="12.8562805"><ele>345.0</ele><time>2026-04-18T10:41:24.284Z</time></trkpt><trkpt lat="43.4368442" lon="12.856342"><ele>345.0</ele><time>2026-04-18T10:41:25.285Z</time></trkpt><trkpt lat="43.4369015" lon="12.8564054"><ele>345.0</ele><time>2026-04-18T10:41:26.284Z</time></trkpt><trkpt lat="43.4369584" lon="12.8564619"><ele>345.0</ele><time>2026-04-18T10:41:27.284Z</time></trkpt><trkpt lat="43.4370163" lon="12.8565072"><ele>345.0</ele><time>2026-04-18T10:41:28.285Z</time></trkpt><trkpt lat="43.4371239" lon="12.8565021"><ele>345.0</ele><time>2026-04-18T10:41:30.284Z</time></trkpt><trkpt lat="43.4371322" lon="12.8563518"><ele>345.0</ele><time>2026-04-18T10:41:32.284Z</time></trkpt><trkpt lat="43.4370781" lon="12.856274"><ele>345.0</ele><time>2026-04-18T10:41:33.284Z</time></trkpt><trkpt lat="43.4370075" lon="12.8561961"><ele>345.0</ele><time>2026-04-18T10:41:34.284Z</time></trkpt><trkpt lat="43.4369284" lon="12.8561089"><ele>345.0</ele><time>2026-04-18T10:41:35.284Z</time></trkpt><trkpt lat="43.4368609" lon="12.8560239"><ele>345.0</ele><time>2026-04-18T10:41:36.284Z</time></trkpt><trkpt lat="43.4367901" lon="12.8559228"><ele>345.0</ele><time>2026-04-18T10:41:37.285Z</time></trkpt><trkpt lat="43.4367113" lon="12.855832"><ele>345.0</ele><time>2026-04-18T10:41:38.285Z</time></trkpt><trkpt lat="43.4366348" lon="12.8557412"><ele>345.0</ele><time>2026-04-18T10:41:39.285Z</time></trkpt><trkpt lat="43.4365512" lon="12.8556454"><ele>342.75</ele><time>2026-04-18T10:41:40.285Z</time></trkpt><trkpt lat="43.4364511" lon="12.8555567"><ele>340.5</ele><time>2026-04-18T10:41:41.284Z</time></trkpt><trkpt lat="43.4363513" lon="12.8554581"><ele>338.25</ele><time>2026-04-18T10:41:42.285Z</time></trkpt><trkpt lat="43.4362474" lon="12.8553713"><ele>336.0</ele><time>2026-04-18T10:41:43.285Z</time></trkpt><trkpt lat="43.4361221" lon="12.8552953"><ele>336.0</ele><time>2026-04-18T10:41:44.284Z</time></trkpt><trkpt lat="43.4360068" lon="12.855221"><ele>336.0</ele><time>2026-04-18T10:41:45.284Z</time></trkpt><trkpt lat="43.4358892" lon="12.855159"><ele>336.0</ele><time>2026-04-18T10:41:46.284Z</time></trkpt><trkpt lat="43.4357701" lon="12.8550973"><ele>336.0</ele><time>2026-04-18T10:41:47.284Z</time></trkpt><trkpt lat="43.4356521" lon="12.8550581"><ele>331.2</ele><time>2026-04-18T10:41:48.284Z</time></trkpt><trkpt lat="43.4355462" lon="12.8550445"><ele>326.40000000000003</ele><time>2026-04-18T10:41:49.284Z</time></trkpt><trkpt lat="43.4354465" lon="12.8550445"><ele>321.6</ele><time>2026-04-18T10:41:50.285Z</time></trkpt><trkpt lat="43.435347" lon="12.8550451"><ele>316.8</ele><time>2026-04-18T10:41:51.284Z</time></trkpt><trkpt lat="43.4352622" lon="12.8550347"><ele>312.0</ele><time>2026-04-18T10:41:52.284Z</time></trkpt><trkpt lat="43.4351989" lon="12.855008"><ele>310.8333333333333</ele><time>2026-04-18T10:41:53.284Z</time></trkpt><trkpt lat="43.4351395" lon="12.8549352"><ele>309.6666666666667</ele><time>2026-04-18T10:41:55.284Z</time></trkpt><trkpt lat="43.4350367" lon="12.8548504"><ele>308.5</ele><time>2026-04-18T10:41:59.284Z</time></trkpt><trkpt lat="43.4349701" lon="12.854828"><ele>307.33333333333337</ele><time>2026-04-18T10:42:00.284Z</time></trkpt><trkpt lat="43.4348971" lon="12.8548309"><ele>306.1666666666667</ele><time>2026-04-18T10:42:01.285Z</time></trkpt><trkpt lat="43.4348128" lon="12.8548495"><ele>305.0</ele><time>2026-04-18T10:42:02.284Z</time></trkpt><trkpt lat="43.4347265" lon="12.8548939"><ele>303.4</ele><time>2026-04-18T10:42:03.284Z</time></trkpt><trkpt lat="43.4346355" lon="12.854948"><ele>301.8</ele><time>2026-04-18T10:42:04.284Z</time></trkpt><trkpt lat="43.4345419" lon="12.8550059"><ele>300.2</ele><time>2026-04-18T10:42:05.284Z</time></trkpt><trkpt lat="43.4344558" lon="12.8550619"><ele>298.6</ele><time>2026-04-18T10:42:06.284Z</time></trkpt><trkpt lat="43.4343705" lon="12.8551168"><ele>297.0</ele><time>2026-04-18T10:42:07.285Z</time></trkpt><trkpt lat="43.4342815" lon="12.8551676"><ele>300.1666666666667</ele><time>2026-04-18T10:42:08.285Z</time></trkpt><trkpt lat="43.4341961" lon="12.8552212"><ele>303.3333333333333</ele><time>2026-04-18T10:42:09.285Z</time></trkpt><trkpt lat="43.4341123" lon="12.8552793"><ele>306.5</ele><time>2026-04-18T10:42:10.284Z</time></trkpt><trkpt lat="43.4340342" lon="12.8553325"><ele>309.66666666666663</ele><time>2026-04-18T10:42:11.284Z</time></trkpt><trkpt lat="43.4339582" lon="12.8553728"><ele>312.8333333333333</ele><time>2026-04-18T10:42:12.285Z</time></trkpt><trkpt lat="43.4338823" lon="12.8554148"><ele>316.0</ele><time>2026-04-18T10:42:13.285Z</time></trkpt><trkpt lat="43.4338092" lon="12.8554595"><ele>313.8333333333333</ele><time>2026-04-18T10:42:14.284Z</time></trkpt><trkpt lat="43.4337371" lon="12.8555033"><ele>311.66666666666663</ele><time>2026-04-18T10:42:15.284Z</time></trkpt><trkpt lat="43.433664" lon="12.8555525"><ele>309.5</ele><time>2026-04-18T10:42:16.285Z</time></trkpt><trkpt lat="43.4335865" lon="12.8556031"><ele>307.3333333333333</ele><time>2026-04-18T10:42:17.284Z</time></trkpt><trkpt lat="43.4335057" lon="12.8556565"><ele>305.1666666666667</ele><time>2026-04-18T10:42:18.285Z</time></trkpt><trkpt lat="43.4334227" lon="12.8557103"><ele>303.0</ele><time>2026-04-18T10:42:19.285Z</time></trkpt><trkpt lat="43.4333426" lon="12.8557584"><ele>303.0</ele><time>2026-04-18T10:42:20.285Z</time></trkpt><trkpt lat="43.4332684" lon="12.8558063"><ele>303.0</ele><time>2026-04-18T10:42:21.284Z</time></trkpt><trkpt lat="43.4331983" lon="12.8558525"><ele>303.0</ele><time>2026-04-18T10:42:22.284Z</time></trkpt><trkpt lat="43.4331316" lon="12.8558963"><ele>303.0</ele><time>2026-04-18T10:42:23.284Z</time></trkpt><trkpt lat="43.4330737" lon="12.8559425"><ele>303.0</ele><time>2026-04-18T10:42:24.284Z</time></trkpt><trkpt lat="43.4330179" lon="12.8559846"><ele>303.0</ele><time>2026-04-18T10:42:25.284Z</time></trkpt><trkpt lat="43.4329105" lon="12.8560611"><ele>303.0</ele><time>2026-04-18T10:42:27.284Z</time></trkpt><trkpt lat="43.4328172" lon="12.8561262"><ele>303.0</ele><time>2026-04-18T10:42:29.284Z</time></trkpt><trkpt lat="43.4327463" lon="12.8561707"><ele>303.0</ele><time>2026-04-18T10:42:31.285Z</time></trkpt><trkpt lat="43.4326877" lon="12.8562153"><ele>303.0</ele><time>2026-04-18T10:42:34.284Z</time></trkpt><trkpt lat="43.4326267" lon="12.8562425"><ele>303.0</ele><time>2026-04-18T10:42:46.284Z</time></trkpt><trkpt lat="43.432642" lon="12.8561194"><ele>303.0</ele><time>2026-04-18T10:42:52.285Z</time></trkpt><trkpt lat="43.432716" lon="12.8560327"><ele>301.4</ele><time>2026-04-18T10:42:54.284Z</time></trkpt><trkpt lat="43.4327554" lon="12.855923"><ele>299.8</ele><time>2026-04-18T10:42:59.285Z</time></trkpt><trkpt lat="43.4327211" lon="12.8557507"><ele>298.2</ele><time>2026-04-18T10:43:01.285Z</time></trkpt><trkpt lat="43.4326764" lon="12.855662"><ele>296.6</ele><time>2026-04-18T10:43:02.284Z</time></trkpt><trkpt lat="43.4326287" lon="12.8555934"><ele>295.0</ele><time>2026-04-18T10:43:03.284Z</time></trkpt><trkpt lat="43.4324998" lon="12.8555771"><ele>295.0</ele><time>2026-04-18T10:43:05.284Z</time></trkpt><trkpt lat="43.4324321" lon="12.8556477"><ele>295.0</ele><time>2026-04-18T10:43:06.284Z</time></trkpt><trkpt lat="43.4323703" lon="12.8557357"><ele>295.0</ele><time>2026-04-18T10:43:07.284Z</time></trkpt><trkpt lat="43.4323014" lon="12.855829"><ele>295.0</ele><time>2026-04-18T10:43:08.285Z</time></trkpt><trkpt lat="43.4322414" lon="12.8559265"><ele>295.0</ele><time>2026-04-18T10:43:09.285Z</time></trkpt><trkpt lat="43.4321862" lon="12.8560162"><ele>295.0</ele><time>2026-04-18T10:43:10.284Z</time></trkpt><trkpt lat="43.4321296" lon="12.8561071"><ele>293.66666666666663</ele><time>2026-04-18T10:43:11.285Z</time></trkpt><trkpt lat="43.432074" lon="12.8561958"><ele>292.3333333333333</ele><time>2026-04-18T10:43:12.284Z</time></trkpt><trkpt lat="43.4320208" lon="12.8562797"><ele>291.0</ele><time>2026-04-18T10:43:13.284Z</time></trkpt><trkpt lat="43.4319667" lon="12.8563689"><ele>289.6666666666667</ele><time>2026-04-18T10:43:14.284Z</time></trkpt><trkpt lat="43.4319055" lon="12.8564587"><ele>288.33333333333337</ele><time>2026-04-18T10:43:15.284Z</time></trkpt><trkpt lat="43.4318351" lon="12.8565435"><ele>287.0</ele><time>2026-04-18T10:43:16.285Z</time></trkpt><trkpt lat="43.4317697" lon="12.8566292"><ele>287.0</ele><time>2026-04-18T10:43:17.284Z</time></trkpt><trkpt lat="43.4317027" lon="12.8567041"><ele>287.0</ele><time>2026-04-18T10:43:18.284Z</time></trkpt><trkpt lat="43.4316034" lon="12.8567644"><ele>287.0</ele><time>2026-04-18T10:43:19.284Z</time></trkpt><trkpt lat="43.4315026" lon="12.8568219"><ele>287.0</ele><time>2026-04-18T10:43:20.284Z</time></trkpt><trkpt lat="43.4314033" lon="12.8568915"><ele>287.0</ele><time>2026-04-18T10:43:21.284Z</time></trkpt><trkpt lat="43.4313058" lon="12.8569615"><ele>286.0</ele><time>2026-04-18T10:43:22.284Z</time></trkpt><trkpt lat="43.4312112" lon="12.8570386"><ele>285.0</ele><time>2026-04-18T10:43:23.284Z</time></trkpt><trkpt lat="43.4311199" lon="12.8571138"><ele>284.0</ele><time>2026-04-18T10:43:24.285Z</time></trkpt><trkpt lat="43.4310386" lon="12.8571742"><ele>283.0</ele><time>2026-04-18T10:43:25.285Z</time></trkpt><trkpt lat="43.4309673" lon="12.8572339"><ele>282.0</ele><time>2026-04-18T10:43:26.284Z</time></trkpt><trkpt lat="43.430905" lon="12.8572905"><ele>282.0</ele><time>2026-04-18T10:43:27.284Z</time></trkpt><trkpt lat="43.4308592" lon="12.8573521"><ele>282.0</ele><time>2026-04-18T10:43:28.284Z</time></trkpt><trkpt lat="43.4307775" lon="12.8574573"><ele>282.0</ele><time>2026-04-18T10:43:30.285Z</time></trkpt><trkpt lat="43.4307195" lon="12.8575312"><ele>282.0</ele><time>2026-04-18T10:43:32.284Z</time></trkpt><trkpt lat="43.4306763" lon="12.8575962"><ele>282.0</ele><time>2026-04-18T10:43:35.284Z</time></trkpt><trkpt lat="43.4306223" lon="12.8576703"><ele>282.0</ele><time>2026-04-18T10:44:00.284Z</time></trkpt><trkpt lat="43.4306168" lon="12.8577977"><ele>282.0</ele><time>2026-04-18T10:44:02.284Z</time></trkpt><trkpt lat="43.4306622" lon="12.85787"><ele>282.0</ele><time>2026-04-18T10:44:03.285Z</time></trkpt><trkpt lat="43.430736" lon="12.8579289"><ele>282.0</ele><time>2026-04-18T10:44:04.284Z</time></trkpt><trkpt lat="43.4308121" lon="12.8579887"><ele>282.0</ele><time>2026-04-18T10:44:05.284Z</time></trkpt><trkpt lat="43.4308983" lon="12.8580535"><ele>282.0</ele><time>2026-04-18T10:44:06.285Z</time></trkpt><trkpt lat="43.4309996" lon="12.8581332"><ele>282.0</ele><time>2026-04-18T10:44:07.284Z</time></trkpt><trkpt lat="43.4310996" lon="12.8582075"><ele>282.0</ele><time>2026-04-18T10:44:08.285Z</time></trkpt><trkpt lat="43.4311979" lon="12.8582858"><ele>282.0</ele><time>2026-04-18T10:44:09.284Z</time></trkpt><trkpt lat="43.431289" lon="12.8583585"><ele>282.0</ele><time>2026-04-18T10:44:10.284Z</time></trkpt><trkpt lat="43.4313789" lon="12.8584177"><ele>282.0</ele><time>2026-04-18T10:44:11.285Z</time></trkpt><trkpt lat="43.4314724" lon="12.8584909"><ele>283.8</ele><time>2026-04-18T10:44:12.285Z</time></trkpt><trkpt lat="43.4315659" lon="12.8585646"><ele>285.6</ele><time>2026-04-18T10:44:13.285Z</time></trkpt><trkpt lat="43.4316565" lon="12.858638"><ele>287.40000000000003</ele><time>2026-04-18T10:44:14.284Z</time></trkpt><trkpt lat="43.4317482" lon="12.8587113"><ele>289.2</ele><time>2026-04-18T10:44:15.284Z</time></trkpt><trkpt lat="43.4318365" lon="12.858781"><ele>291.0</ele><time>2026-04-18T10:44:16.285Z</time></trkpt><trkpt lat="43.4319219" lon="12.8588441"><ele>291.0</ele><time>2026-04-18T10:44:17.284Z</time></trkpt><trkpt lat="43.4320087" lon="12.8589003"><ele>291.0</ele><time>2026-04-18T10:44:18.284Z</time></trkpt><trkpt lat="43.4321015" lon="12.8589655"><ele>291.0</ele><time>2026-04-18T10:44:19.284Z</time></trkpt><trkpt lat="43.4321981" lon="12.8590347"><ele>291.0</ele><time>2026-04-18T10:44:20.284Z</time></trkpt><trkpt lat="43.432297" lon="12.8591148"><ele>291.0</ele><time>2026-04-18T10:44:21.284Z</time></trkpt><trkpt lat="43.4324033" lon="12.8591971"><ele>289.75</ele><time>2026-04-18T10:44:22.284Z</time></trkpt><trkpt lat="43.4325103" lon="12.8592921"><ele>288.5</ele><time>2026-04-18T10:44:23.284Z</time></trkpt><trkpt lat="43.4326193" lon="12.8593982"><ele>287.25</ele><time>2026-04-18T10:44:24.285Z</time></trkpt><trkpt lat="43.4327291" lon="12.8595082"><ele>286.0</ele><time>2026-04-18T10:44:25.284Z</time></trkpt><trkpt lat="43.4328392" lon="12.8596281"><ele>286.0</ele><time>2026-04-18T10:44:26.284Z</time></trkpt><trkpt lat="43.4329499" lon="12.8597552"><ele>286.0</ele><time>2026-04-18T10:44:27.284Z</time></trkpt><trkpt lat="43.4330563" lon="12.8598909"><ele>286.0</ele><time>2026-04-18T10:44:28.284Z</time></trkpt><trkpt lat="43.4331594" lon="12.8600453"><ele>286.0</ele><time>2026-04-18T10:44:29.284Z</time></trkpt><trkpt lat="43.4332509" lon="12.8602081"><ele>287.0</ele><time>2026-04-18T10:44:30.284Z</time></trkpt><trkpt lat="43.4333277" lon="12.8603842"><ele>288.0</ele><time>2026-04-18T10:44:31.284Z</time></trkpt><trkpt lat="43.4334016" lon="12.8605655"><ele>289.0</ele><time>2026-04-18T10:44:32.284Z</time></trkpt><trkpt lat="43.4334698" lon="12.8607519"><ele>289.0</ele><time>2026-04-18T10:44:33.285Z</time></trkpt><trkpt lat="43.4335332" lon="12.8609301"><ele>289.0</ele><time>2026-04-18T10:44:34.284Z</time></trkpt><trkpt lat="43.4335882" lon="12.8611052"><ele>289.0</ele><time>2026-04-18T10:44:35.285Z</time></trkpt><trkpt lat="43.4336348" lon="12.8612873"><ele>289.0</ele><time>2026-04-18T10:44:36.284Z</time></trkpt><trkpt lat="43.4336671" lon="12.8614756"><ele>288.25</ele><time>2026-04-18T10:44:37.284Z</time></trkpt><trkpt lat="43.4336832" lon="12.8616706"><ele>287.5</ele><time>2026-04-18T10:44:38.284Z</time></trkpt><trkpt lat="43.4336938" lon="12.8618678"><ele>286.75</ele><time>2026-04-18T10:44:39.284Z</time></trkpt><trkpt lat="43.4337052" lon="12.8620654"><ele>286.0</ele><time>2026-04-18T10:44:40.285Z</time></trkpt><trkpt lat="43.4337109" lon="12.8622675"><ele>285.75</ele><time>2026-04-18T10:44:41.284Z</time></trkpt><trkpt lat="43.4337182" lon="12.8624686"><ele>285.5</ele><time>2026-04-18T10:44:42.285Z</time></trkpt><trkpt lat="43.4337242" lon="12.8626652"><ele>285.25</ele><time>2026-04-18T10:44:43.285Z</time></trkpt><trkpt lat="43.4337365" lon="12.862848"><ele>285.0</ele><time>2026-04-18T10:44:44.285Z</time></trkpt><trkpt lat="43.4337409" lon="12.8630181"><ele>284.25</ele><time>2026-04-18T10:44:45.284Z</time></trkpt><trkpt lat="43.4337472" lon="12.8631858"><ele>283.5</ele><time>2026-04-18T10:44:46.285Z</time></trkpt><trkpt lat="43.43375" lon="12.8633544"><ele>282.75</ele><time>2026-04-18T10:44:47.284Z</time></trkpt><trkpt lat="43.4337536" lon="12.8635305"><ele>282.0</ele><time>2026-04-18T10:44:48.285Z</time></trkpt><trkpt lat="43.4337587" lon="12.8637084"><ele>282.0</ele><time>2026-04-18T10:44:49.284Z</time></trkpt><trkpt lat="43.4337662" lon="12.8638932"><ele>282.0</ele><time>2026-04-18T10:44:50.284Z</time></trkpt><trkpt lat="43.4337744" lon="12.8640891"><ele>282.0</ele><time>2026-04-18T10:44:51.284Z</time></trkpt><trkpt lat="43.4337829" lon="12.864273"><ele>282.0</ele><time>2026-04-18T10:44:52.284Z</time></trkpt><trkpt lat="43.433791" lon="12.8644797"><ele>283.0</ele><time>2026-04-18T10:44:53.284Z</time></trkpt><trkpt lat="43.4337956" lon="12.8646799"><ele>284.0</ele><time>2026-04-18T10:44:54.284Z</time></trkpt><trkpt lat="43.4338035" lon="12.8648871"><ele>285.0</ele><time>2026-04-18T10:44:55.284Z</time></trkpt><trkpt lat="43.4338096" lon="12.8650962"><ele>286.0</ele><time>2026-04-18T10:44:56.284Z</time></trkpt><trkpt lat="43.4338138" lon="12.8652967"><ele>288.0</ele><time>2026-04-18T10:44:57.285Z</time></trkpt><trkpt lat="43.4338161" lon="12.8654849"><ele>290.0</ele><time>2026-04-18T10:44:58.285Z</time></trkpt><trkpt lat="43.4338226" lon="12.8656652"><ele>292.0</ele><time>2026-04-18T10:44:59.285Z</time></trkpt><trkpt lat="43.4338255" lon="12.8658455"><ele>294.0</ele><time>2026-04-18T10:45:00.284Z</time></trkpt><trkpt lat="43.4338293" lon="12.8660307"><ele>294.0</ele><time>2026-04-18T10:45:01.284Z</time></trkpt><trkpt lat="43.4338362" lon="12.8662262"><ele>294.0</ele><time>2026-04-18T10:45:02.284Z</time></trkpt><trkpt lat="43.4338421" lon="12.8664266"><ele>294.0</ele><time>2026-04-18T10:45:03.285Z</time></trkpt><trkpt lat="43.4338464" lon="12.8666318"><ele>294.0</ele><time>2026-04-18T10:45:04.284Z</time></trkpt><trkpt lat="43.4338563" lon="12.8668407"><ele>292.6666666666667</ele><time>2026-04-18T10:45:05.284Z</time></trkpt><trkpt lat="43.4338647" lon="12.8670554"><ele>291.33333333333337</ele><time>2026-04-18T10:45:06.285Z</time></trkpt><trkpt lat="43.4338763" lon="12.8672767"><ele>290.0</ele><time>2026-04-18T10:45:07.284Z</time></trkpt><trkpt lat="43.4339038" lon="12.8675"><ele>288.33333333333337</ele><time>2026-04-18T10:45:08.284Z</time></trkpt><trkpt lat="43.433949" lon="12.8677187"><ele>286.6666666666667</ele><time>2026-04-18T10:45:09.284Z</time></trkpt><trkpt lat="43.4340185" lon="12.8679394"><ele>285.0</ele><time>2026-04-18T10:45:10.285Z</time></trkpt><trkpt lat="43.4341027" lon="12.8681567"><ele>285.0</ele><time>2026-04-18T10:45:11.285Z</time></trkpt><trkpt lat="43.4341952" lon="12.868368"><ele>285.0</ele><time>2026-04-18T10:45:12.284Z</time></trkpt><trkpt lat="43.4342987" lon="12.8685766"><ele>285.0</ele><time>2026-04-18T10:45:13.285Z</time></trkpt><trkpt lat="43.4344091" lon="12.8687772"><ele>286.0</ele><time>2026-04-18T10:45:14.284Z</time></trkpt><trkpt lat="43.4345258" lon="12.8689769"><ele>287.0</ele><time>2026-04-18T10:45:15.285Z</time></trkpt><trkpt lat="43.4346505" lon="12.8691662"><ele>288.0</ele><time>2026-04-18T10:45:16.285Z</time></trkpt><trkpt lat="43.4347834" lon="12.8693476"><ele>286.0</ele><time>2026-04-18T10:45:17.285Z</time></trkpt><trkpt lat="43.4349216" lon="12.8695128"><ele>284.0</ele><time>2026-04-18T10:45:18.284Z</time></trkpt><trkpt lat="43.4350566" lon="12.8696819"><ele>282.0</ele><time>2026-04-18T10:45:19.284Z</time></trkpt><trkpt lat="43.4351801" lon="12.8698373"><ele>282.0</ele><time>2026-04-18T10:45:20.284Z</time></trkpt><trkpt lat="43.4353004" lon="12.8699854"><ele>282.0</ele><time>2026-04-18T10:45:21.284Z</time></trkpt><trkpt lat="43.4354171" lon="12.870131"><ele>282.0</ele><time>2026-04-18T10:45:22.285Z</time></trkpt><trkpt lat="43.4355204" lon="12.8702895"><ele>283.3333333333333</ele><time>2026-04-18T10:45:23.285Z</time></trkpt><trkpt lat="43.435601" lon="12.8704675"><ele>284.66666666666663</ele><time>2026-04-18T10:45:24.285Z</time></trkpt><trkpt lat="43.4356689" lon="12.8706686"><ele>286.0</ele><time>2026-04-18T10:45:25.284Z</time></trkpt><trkpt lat="43.4357236" lon="12.8708867"><ele>285.3333333333333</ele><time>2026-04-18T10:45:26.285Z</time></trkpt><trkpt lat="43.435772" lon="12.8711092"><ele>284.6666666666667</ele><time>2026-04-18T10:45:27.284Z</time></trkpt><trkpt lat="43.4358085" lon="12.8713469"><ele>284.0</ele><time>2026-04-18T10:45:28.284Z</time></trkpt><trkpt lat="43.4358349" lon="12.8715852"><ele>284.0</ele><time>2026-04-18T10:45:29.284Z</time></trkpt><trkpt lat="43.4358484" lon="12.8718118"><ele>284.0</ele><time>2026-04-18T10:45:30.284Z</time></trkpt><trkpt lat="43.43586" lon="12.8720395"><ele>284.0</ele><time>2026-04-18T10:45:31.284Z</time></trkpt><trkpt lat="43.4358756" lon="12.8722645"><ele>284.0</ele><time>2026-04-18T10:45:32.285Z</time></trkpt><trkpt lat="43.4358841" lon="12.8724917"><ele>284.0</ele><time>2026-04-18T10:45:33.284Z</time></trkpt><trkpt lat="43.4358983" lon="12.8727275"><ele>284.0</ele><time>2026-04-18T10:45:34.284Z</time></trkpt><trkpt lat="43.4359144" lon="12.8729621"><ele>283.33333333333337</ele><time>2026-04-18T10:45:35.285Z</time></trkpt><trkpt lat="43.4359281" lon="12.8732009"><ele>282.6666666666667</ele><time>2026-04-18T10:45:36.285Z</time></trkpt><trkpt lat="43.4359435" lon="12.8734379"><ele>282.0</ele><time>2026-04-18T10:45:37.285Z</time></trkpt><trkpt lat="43.4359673" lon="12.873672"><ele>282.0</ele><time>2026-04-18T10:45:38.284Z</time></trkpt><trkpt lat="43.4360062" lon="12.8739003"><ele>282.0</ele><time>2026-04-18T10:45:39.284Z</time></trkpt><trkpt lat="43.4360574" lon="12.8741239"><ele>282.0</ele><time>2026-04-18T10:45:40.285Z</time></trkpt><trkpt lat="43.4361173" lon="12.8743421"><ele>280.6666666666667</ele><time>2026-04-18T10:45:41.284Z</time></trkpt><trkpt lat="43.4361718" lon="12.87456"><ele>279.33333333333337</ele><time>2026-04-18T10:45:42.285Z</time></trkpt><trkpt lat="43.4362114" lon="12.874788"><ele>278.0</ele><time>2026-04-18T10:45:43.285Z</time></trkpt><trkpt lat="43.4362357" lon="12.8750239"><ele>278.0</ele><time>2026-04-18T10:45:44.285Z</time></trkpt><trkpt lat="43.4362451" lon="12.8752648"><ele>278.0</ele><time>2026-04-18T10:45:45.285Z</time></trkpt><trkpt lat="43.4362494" lon="12.8755095"><ele>278.0</ele><time>2026-04-18T10:45:46.284Z</time></trkpt><trkpt lat="43.4362548" lon="12.8757509"><ele>276.6666666666667</ele><time>2026-04-18T10:45:47.285Z</time></trkpt><trkpt lat="43.4362651" lon="12.8759894"><ele>275.3333333333333</ele><time>2026-04-18T10:45:48.284Z</time></trkpt><trkpt lat="43.4362808" lon="12.8762322"><ele>274.0</ele><time>2026-04-18T10:45:49.284Z</time></trkpt><trkpt lat="43.4362926" lon="12.876475"><ele>278.66666666666663</ele><time>2026-04-18T10:45:50.285Z</time></trkpt><trkpt lat="43.4363032" lon="12.8767157"><ele>283.3333333333333</ele><time>2026-04-18T10:45:51.285Z</time></trkpt><trkpt lat="43.4363123" lon="12.8769563"><ele>288.0</ele><time>2026-04-18T10:45:52.284Z</time></trkpt><trkpt lat="43.4363184" lon="12.8771929"><ele>288.0</ele><time>2026-04-18T10:45:53.285Z</time></trkpt><trkpt lat="43.4363239" lon="12.8774313"><ele>288.0</ele><time>2026-04-18T10:45:54.284Z</time></trkpt><trkpt lat="43.4363326" lon="12.8776694"><ele>288.0</ele><time>2026-04-18T10:45:55.284Z</time></trkpt><trkpt lat="43.4363432" lon="12.8779044"><ele>286.6666666666667</ele><time>2026-04-18T10:45:56.284Z</time></trkpt><trkpt lat="43.4363529" lon="12.8781322"><ele>285.33333333333337</ele><time>2026-04-18T10:45:57.284Z</time></trkpt><trkpt lat="43.4363708" lon="12.8783586"><ele>284.0</ele><time>2026-04-18T10:45:58.285Z</time></trkpt><trkpt lat="43.4364072" lon="12.878583"><ele>283.0</ele><time>2026-04-18T10:45:59.284Z</time></trkpt><trkpt lat="43.436464" lon="12.8788079"><ele>282.0</ele><time>2026-04-18T10:46:00.285Z</time></trkpt><trkpt lat="43.4365316" lon="12.8790313"><ele>281.0</ele><time>2026-04-18T10:46:01.284Z</time></trkpt><trkpt lat="43.4366029" lon="12.8792549"><ele>279.0</ele><time>2026-04-18T10:46:02.284Z</time></trkpt><trkpt lat="43.4366753" lon="12.8794707"><ele>277.0</ele><time>2026-04-18T10:46:03.284Z</time></trkpt><trkpt lat="43.4367418" lon="12.8796673"><ele>275.0</ele><time>2026-04-18T10:46:04.285Z</time></trkpt><trkpt lat="43.4368024" lon="12.8798468"><ele>275.0</ele><time>2026-04-18T10:46:05.284Z</time></trkpt><trkpt lat="43.4368585" lon="12.8800086"><ele>275.0</ele><time>2026-04-18T10:46:06.285Z</time></trkpt><trkpt lat="43.43691" lon="12.8801605"><ele>275.0</ele><time>2026-04-18T10:46:07.284Z</time></trkpt><trkpt lat="43.4369577" lon="12.8803036"><ele>275.0</ele><time>2026-04-18T10:46:08.284Z</time></trkpt><trkpt lat="43.4370044" lon="12.8804404"><ele>275.1666666666667</ele><time>2026-04-18T10:46:09.284Z</time></trkpt><trkpt lat="43.437045" lon="12.8805632"><ele>275.33333333333337</ele><time>2026-04-18T10:46:10.284Z</time></trkpt><trkpt lat="43.4370764" lon="12.8806592"><ele>275.5</ele><time>2026-04-18T10:46:11.284Z</time></trkpt><trkpt lat="43.4371455" lon="12.8807442"><ele>275.6666666666667</ele><time>2026-04-18T10:46:13.285Z</time></trkpt><trkpt lat="43.437242" lon="12.8806879"><ele>275.8333333333333</ele><time>2026-04-18T10:46:15.285Z</time></trkpt><trkpt lat="43.4373043" lon="12.880634"><ele>276.0</ele><time>2026-04-18T10:46:16.284Z</time></trkpt><trkpt lat="43.4373765" lon="12.8805617"><ele>276.0</ele><time>2026-04-18T10:46:17.284Z</time></trkpt><trkpt lat="43.4374609" lon="12.8804769"><ele>276.0</ele><time>2026-04-18T10:46:18.285Z</time></trkpt><trkpt lat="43.4375535" lon="12.8803909"><ele>276.0</ele><time>2026-04-18T10:46:19.284Z</time></trkpt><trkpt lat="43.4376481" lon="12.8803054"><ele>276.0</ele><time>2026-04-18T10:46:20.285Z</time></trkpt><trkpt lat="43.4377435" lon="12.8802161"><ele>276.0</ele><time>2026-04-18T10:46:21.285Z</time></trkpt><trkpt lat="43.4378365" lon="12.8801332"><ele>277.5</ele><time>2026-04-18T10:46:22.285Z</time></trkpt><trkpt lat="43.4379338" lon="12.8800567"><ele>279.0</ele><time>2026-04-18T10:46:23.284Z</time></trkpt><trkpt lat="43.4380367" lon="12.8799915"><ele>280.5</ele><time>2026-04-18T10:46:24.284Z</time></trkpt><trkpt lat="43.4381466" lon="12.8799364"><ele>282.0</ele><time>2026-04-18T10:46:25.284Z</time></trkpt><trkpt lat="43.4382619" lon="12.8798962"><ele>283.4</ele><time>2026-04-18T10:46:26.284Z</time></trkpt><trkpt lat="43.4383769" lon="12.8798632"><ele>284.79999999999995</ele><time>2026-04-18T10:46:27.285Z</time></trkpt><trkpt lat="43.4384866" lon="12.879841"><ele>286.2</ele><time>2026-04-18T10:46:28.285Z</time></trkpt><trkpt lat="43.4385877" lon="12.8798266"><ele>287.59999999999997</ele><time>2026-04-18T10:46:29.284Z</time></trkpt><trkpt lat="43.4386599" lon="12.879822"><ele>289.0</ele><time>2026-04-18T10:46:30.284Z</time></trkpt><trkpt lat="43.4387214" lon="12.8797885"><ele>289.0</ele><time>2026-04-18T10:46:31.284Z</time></trkpt><trkpt lat="43.4387918" lon="12.8796808"><ele>289.0</ele><time>2026-04-18T10:46:32.285Z</time></trkpt><trkpt lat="43.4388699" lon="12.8795656"><ele>289.0</ele><time>2026-04-18T10:46:33.284Z</time></trkpt><trkpt lat="43.4389509" lon="12.8794741"><ele>289.0</ele><time>2026-04-18T10:46:34.284Z</time></trkpt><trkpt lat="43.4390375" lon="12.8794014"><ele>289.0</ele><time>2026-04-18T10:46:35.284Z</time></trkpt><trkpt lat="43.439126" lon="12.8793529"><ele>292.0</ele><time>2026-04-18T10:46:36.284Z</time></trkpt><trkpt lat="43.4392145" lon="12.8793239"><ele>295.0</ele><time>2026-04-18T10:46:37.284Z</time></trkpt><trkpt lat="43.4392977" lon="12.8793252"><ele>298.0</ele><time>2026-04-18T10:46:38.284Z</time></trkpt><trkpt lat="43.439389" lon="12.879366"><ele>301.0</ele><time>2026-04-18T10:46:39.285Z</time></trkpt><trkpt lat="43.4394839" lon="12.8794341"><ele>304.0</ele><time>2026-04-18T10:46:40.284Z</time></trkpt><trkpt lat="43.4395618" lon="12.879531"><ele>304.0</ele><time>2026-04-18T10:46:41.285Z</time></trkpt><trkpt lat="43.4396272" lon="12.8796493"><ele>304.0</ele><time>2026-04-18T10:46:42.285Z</time></trkpt><trkpt lat="43.4396835" lon="12.8797821"><ele>304.0</ele><time>2026-04-18T10:46:43.284Z</time></trkpt><trkpt lat="43.4397159" lon="12.8799041"><ele>304.0</ele><time>2026-04-18T10:46:44.285Z</time></trkpt><trkpt lat="43.4397251" lon="12.880019"><ele>304.0</ele><time>2026-04-18T10:46:45.285Z</time></trkpt><trkpt lat="43.4397327" lon="12.8801239"><ele>304.8</ele><time>2026-04-18T10:46:46.285Z</time></trkpt><trkpt lat="43.4397585" lon="12.8802183"><ele>305.59999999999997</ele><time>2026-04-18T10:46:47.285Z</time></trkpt><trkpt lat="43.4398113" lon="12.8803111"><ele>306.4</ele><time>2026-04-18T10:46:48.284Z</time></trkpt><trkpt lat="43.4398818" lon="12.8803934"><ele>307.2</ele><time>2026-04-18T10:46:49.284Z</time></trkpt><trkpt lat="43.4399573" lon="12.8804763"><ele>308.0</ele><time>2026-04-18T10:46:50.284Z</time></trkpt><trkpt lat="43.4400416" lon="12.8805553"><ele>308.0</ele><time>2026-04-18T10:46:51.284Z</time></trkpt><trkpt lat="43.4401401" lon="12.8806201"><ele>308.0</ele><time>2026-04-18T10:46:52.284Z</time></trkpt><trkpt lat="43.4402382" lon="12.8806918"><ele>308.0</ele><time>2026-04-18T10:46:53.285Z</time></trkpt><trkpt lat="43.4403326" lon="12.8807628"><ele>308.0</ele><time>2026-04-18T10:46:54.284Z</time></trkpt><trkpt lat="43.4404357" lon="12.8808143"><ele>308.0</ele><time>2026-04-18T10:46:55.285Z</time></trkpt><trkpt lat="43.440549" lon="12.8808312"><ele>311.6</ele><time>2026-04-18T10:46:56.285Z</time></trkpt><trkpt lat="43.4406656" lon="12.8808304"><ele>315.20000000000005</ele><time>2026-04-18T10:46:57.284Z</time></trkpt><trkpt lat="43.4407699" lon="12.8807893"><ele>318.8</ele><time>2026-04-18T10:46:58.288Z</time></trkpt><trkpt lat="43.4408639" lon="12.880731"><ele>322.40000000000003</ele><time>2026-04-18T10:46:59.288Z</time></trkpt><trkpt lat="43.4409523" lon="12.8806857"><ele>326.0</ele><time>2026-04-18T10:47:00.289Z</time></trkpt><trkpt lat="43.441042" lon="12.8806532"><ele>326.0</ele><time>2026-04-18T10:47:01.288Z</time></trkpt><trkpt lat="43.4411271" lon="12.8806612"><ele>326.0</ele><time>2026-04-18T10:47:02.288Z</time></trkpt><trkpt lat="43.441201" lon="12.8807023"><ele>326.0</ele><time>2026-04-18T10:47:03.288Z</time></trkpt><trkpt lat="43.4412673" lon="12.8807702"><ele>326.0</ele><time>2026-04-18T10:47:04.288Z</time></trkpt><trkpt lat="43.4413171" lon="12.8808577"><ele>326.0</ele><time>2026-04-18T10:47:05.289Z</time></trkpt><trkpt lat="43.4413567" lon="12.8809567"><ele>326.0</ele><time>2026-04-18T10:47:06.289Z</time></trkpt><trkpt lat="43.4414014" lon="12.881078"><ele>327.0</ele><time>2026-04-18T10:47:07.288Z</time></trkpt><trkpt lat="43.4414465" lon="12.8811908"><ele>328.0</ele><time>2026-04-18T10:47:08.288Z</time></trkpt><trkpt lat="43.4414835" lon="12.8812727"><ele>329.0</ele><time>2026-04-18T10:47:09.289Z</time></trkpt><trkpt lat="43.4415532" lon="12.8814137"><ele>330.0</ele><time>2026-04-18T10:47:11.288Z</time></trkpt><trkpt lat="43.441611" lon="12.8814764"><ele>331.0</ele><time>2026-04-18T10:47:12.289Z</time></trkpt><trkpt lat="43.4416885" lon="12.8815152"><ele>332.0</ele><time>2026-04-18T10:47:13.288Z</time></trkpt><trkpt lat="43.441781" lon="12.8815227"><ele>332.0</ele><time>2026-04-18T10:47:14.288Z</time></trkpt><trkpt lat="43.4418916" lon="12.8815196"><ele>332.0</ele><time>2026-04-18T10:47:15.288Z</time></trkpt><trkpt lat="43.4420143" lon="12.8815114"><ele>332.0</ele><time>2026-04-18T10:47:16.288Z</time></trkpt><trkpt lat="43.4421291" lon="12.8814944"><ele>332.0</ele><time>2026-04-18T10:47:17.288Z</time></trkpt><trkpt lat="43.4422372" lon="12.8814528"><ele>332.75</ele><time>2026-04-18T10:47:18.288Z</time></trkpt><trkpt lat="43.4423432" lon="12.881398"><ele>333.5</ele><time>2026-04-18T10:47:19.288Z</time></trkpt><trkpt lat="43.442451" lon="12.881348"><ele>334.25</ele><time>2026-04-18T10:47:20.288Z</time></trkpt><trkpt lat="43.4425606" lon="12.8813022"><ele>335.0</ele><time>2026-04-18T10:47:21.288Z</time></trkpt><trkpt lat="43.4426683" lon="12.8812629"><ele>335.0</ele><time>2026-04-18T10:47:22.289Z</time></trkpt><trkpt lat="43.4427733" lon="12.8812265"><ele>335.0</ele><time>2026-04-18T10:47:23.288Z</time></trkpt><trkpt lat="43.4428787" lon="12.8812088"><ele>335.0</ele><time>2026-04-18T10:47:24.289Z</time></trkpt><trkpt lat="43.4429728" lon="12.881218"><ele>335.0</ele><time>2026-04-18T10:47:25.288Z</time></trkpt><trkpt lat="43.4430641" lon="12.881266"><ele>335.0</ele><time>2026-04-18T10:47:26.288Z</time></trkpt><trkpt lat="43.4431608" lon="12.8813307"><ele>337.0</ele><time>2026-04-18T10:47:27.288Z</time></trkpt><trkpt lat="43.4432494" lon="12.8813862"><ele>339.0</ele><time>2026-04-18T10:47:28.288Z</time></trkpt><trkpt lat="43.4433344" lon="12.8814165"><ele>341.0</ele><time>2026-04-18T10:47:29.289Z</time></trkpt><trkpt lat="43.4434222" lon="12.8814261"><ele>343.0</ele><time>2026-04-18T10:47:30.288Z</time></trkpt><trkpt lat="43.4435024" lon="12.8814102"><ele>345.0</ele><time>2026-04-18T10:47:31.289Z</time></trkpt><trkpt lat="43.4435818" lon="12.8813621"><ele>347.0</ele><time>2026-04-18T10:47:32.288Z</time></trkpt><trkpt lat="43.4436721" lon="12.8813025"><ele>347.0</ele><time>2026-04-18T10:47:33.288Z</time></trkpt><trkpt lat="43.4437616" lon="12.8812577"><ele>347.0</ele><time>2026-04-18T10:47:34.288Z</time></trkpt><trkpt lat="43.4438508" lon="12.8812329"><ele>347.0</ele><time>2026-04-18T10:47:35.288Z</time></trkpt><trkpt lat="43.4439445" lon="12.8812178"><ele>347.0</ele><time>2026-04-18T10:47:36.289Z</time></trkpt><trkpt lat="43.4440412" lon="12.8812173"><ele>347.0</ele><time>2026-04-18T10:47:37.288Z</time></trkpt><trkpt lat="43.4441402" lon="12.8812319"><ele>350.0</ele><time>2026-04-18T10:47:38.289Z</time></trkpt><trkpt lat="43.4442442" lon="12.8812517"><ele>353.0</ele><time>2026-04-18T10:47:39.288Z</time></trkpt><trkpt lat="43.4443482" lon="12.8812739"><ele>356.0</ele><time>2026-04-18T10:47:40.288Z</time></trkpt><trkpt lat="43.4444382" lon="12.8812941"><ele>359.0</ele><time>2026-04-18T10:47:41.288Z</time></trkpt><trkpt lat="43.4445178" lon="12.8813102"><ele>362.0</ele><time>2026-04-18T10:47:42.288Z</time></trkpt><trkpt lat="43.4445987" lon="12.8813203"><ele>364.6</ele><time>2026-04-18T10:47:43.289Z</time></trkpt><trkpt lat="43.4446822" lon="12.8813211"><ele>367.20000000000005</ele><time>2026-04-18T10:47:44.288Z</time></trkpt><trkpt lat="43.4447821" lon="12.8813106"><ele>369.8</ele><time>2026-04-18T10:47:45.288Z</time></trkpt><trkpt lat="43.4449025" lon="12.881277"><ele>372.4</ele><time>2026-04-18T10:47:46.289Z</time></trkpt><trkpt lat="43.4450146" lon="12.8812398"><ele>375.0</ele><time>2026-04-18T10:47:47.288Z</time></trkpt><trkpt lat="43.4451151" lon="12.8812132"><ele>375.0</ele><time>2026-04-18T10:47:48.288Z</time></trkpt><trkpt lat="43.4452103" lon="12.8811922"><ele>375.0</ele><time>2026-04-18T10:47:49.289Z</time></trkpt><trkpt lat="43.4452998" lon="12.8811707"><ele>375.0</ele><time>2026-04-18T10:47:50.289Z</time></trkpt><trkpt lat="43.4453924" lon="12.8811322"><ele>375.0</ele><time>2026-04-18T10:47:51.289Z</time></trkpt><trkpt lat="43.4454794" lon="12.8810936"><ele>375.0</ele><time>2026-04-18T10:47:52.288Z</time></trkpt><trkpt lat="43.4455567" lon="12.8810689"><ele>375.0</ele><time>2026-04-18T10:47:53.288Z</time></trkpt><trkpt lat="43.445629" lon="12.8810385"><ele>375.0</ele><time>2026-04-18T10:47:54.288Z</time></trkpt><trkpt lat="43.4457042" lon="12.8809884"><ele>375.0</ele><time>2026-04-18T10:47:55.288Z</time></trkpt><trkpt lat="43.4457792" lon="12.8809219"><ele>375.0</ele><time>2026-04-18T10:47:56.289Z</time></trkpt><trkpt lat="43.4458478" lon="12.8808529"><ele>375.0</ele><time>2026-04-18T10:47:57.288Z</time></trkpt><trkpt lat="43.4459238" lon="12.8807828"><ele>375.0</ele><time>2026-04-18T10:47:58.289Z</time></trkpt><trkpt lat="43.4460201" lon="12.880718"><ele>374.2</ele><time>2026-04-18T10:47:59.288Z</time></trkpt><trkpt lat="43.446128" lon="12.8806657"><ele>373.4</ele><time>2026-04-18T10:48:00.288Z</time></trkpt><trkpt lat="43.4462312" lon="12.8806143"><ele>372.6</ele><time>2026-04-18T10:48:01.288Z</time></trkpt><trkpt lat="43.4463159" lon="12.8805432"><ele>371.8</ele><time>2026-04-18T10:48:02.288Z</time></trkpt><trkpt lat="43.4463811" lon="12.880443"><ele>371.0</ele><time>2026-04-18T10:48:03.288Z</time></trkpt><trkpt lat="43.4464333" lon="12.8803152"><ele>370.75</ele><time>2026-04-18T10:48:04.288Z</time></trkpt><trkpt lat="43.4464703" lon="12.8801572"><ele>370.5</ele><time>2026-04-18T10:48:05.288Z</time></trkpt><trkpt lat="43.4465134" lon="12.8799966"><ele>370.25</ele><time>2026-04-18T10:48:06.289Z</time></trkpt><trkpt lat="43.4465698" lon="12.8798557"><ele>370.0</ele><time>2026-04-18T10:48:07.289Z</time></trkpt><trkpt lat="43.4466371" lon="12.8797224"><ele>370.6</ele><time>2026-04-18T10:48:08.289Z</time></trkpt><trkpt lat="43.4467099" lon="12.8796001"><ele>371.2</ele><time>2026-04-18T10:48:09.288Z</time></trkpt><trkpt lat="43.4467879" lon="12.8795012"><ele>371.79999999999995</ele><time>2026-04-18T10:48:10.288Z</time></trkpt><trkpt lat="43.4468617" lon="12.8794202"><ele>372.4</ele><time>2026-04-18T10:48:11.289Z</time></trkpt><trkpt lat="43.4469159" lon="12.8793688"><ele>373.0</ele><time>2026-04-18T10:48:12.289Z</time></trkpt><trkpt lat="43.4470315" lon="12.8792829"><ele>373.0</ele><time>2026-04-18T10:48:14.288Z</time></trkpt><trkpt lat="43.4470937" lon="12.8792656"><ele>373.0</ele><time>2026-04-18T10:48:15.288Z</time></trkpt><trkpt lat="43.4471977" lon="12.8793712"><ele>373.0</ele><time>2026-04-18T10:48:17.288Z</time></trkpt><trkpt lat="43.4472449" lon="12.8794649"><ele>373.0</ele><time>2026-04-18T10:48:18.288Z</time></trkpt><trkpt lat="43.4472855" lon="12.8795585"><ele>373.0</ele><time>2026-04-18T10:48:19.288Z</time></trkpt><trkpt lat="43.447315" lon="12.8796536"><ele>373.0</ele><time>2026-04-18T10:48:20.288Z</time></trkpt><trkpt lat="43.4473334" lon="12.8797545"><ele>373.0</ele><time>2026-04-18T10:48:21.289Z</time></trkpt><trkpt lat="43.4473477" lon="12.8798541"><ele>373.0</ele><time>2026-04-18T10:48:22.288Z</time></trkpt><trkpt lat="43.4473659" lon="12.8799482"><ele>373.0</ele><time>2026-04-18T10:48:23.288Z</time></trkpt><trkpt lat="43.4473952" lon="12.8800338"><ele>373.0</ele><time>2026-04-18T10:48:24.288Z</time></trkpt><trkpt lat="43.4474685" lon="12.8801302"><ele>373.0</ele><time>2026-04-18T10:48:26.288Z</time></trkpt><trkpt lat="43.4475696" lon="12.8800836"><ele>373.0</ele><time>2026-04-18T10:48:28.288Z</time></trkpt><trkpt lat="43.4476223" lon="12.8800268"><ele>373.0</ele><time>2026-04-18T10:48:29.288Z</time></trkpt><trkpt lat="43.4476874" lon="12.879958"><ele>373.0</ele><time>2026-04-18T10:48:30.289Z</time></trkpt><trkpt lat="43.4477602" lon="12.879888"><ele>373.0</ele><time>2026-04-18T10:48:31.288Z</time></trkpt><trkpt lat="43.4478341" lon="12.8798151"><ele>373.0</ele><time>2026-04-18T10:48:32.288Z</time></trkpt><trkpt lat="43.4479117" lon="12.879734"><ele>373.0</ele><time>2026-04-18T10:48:33.288Z</time></trkpt><trkpt lat="43.4479913" lon="12.8796517"><ele>370.4</ele><time>2026-04-18T10:48:34.288Z</time></trkpt><trkpt lat="43.4480711" lon="12.8795666"><ele>367.79999999999995</ele><time>2026-04-18T10:48:35.288Z</time></trkpt><trkpt lat="43.4481588" lon="12.8794709"><ele>365.2</ele><time>2026-04-18T10:48:36.289Z</time></trkpt><trkpt lat="43.4482498" lon="12.8793739"><ele>362.6</ele><time>2026-04-18T10:48:37.288Z</time></trkpt><trkpt lat="43.4483384" lon="12.8792835"><ele>360.0</ele><time>2026-04-18T10:48:38.288Z</time></trkpt><trkpt lat="43.4484257" lon="12.8791957"><ele>360.0</ele><time>2026-04-18T10:48:39.288Z</time></trkpt><trkpt lat="43.4485106" lon="12.8791108"><ele>360.0</ele><time>2026-04-18T10:48:40.288Z</time></trkpt><trkpt lat="43.4485943" lon="12.8790212"><ele>360.0</ele><time>2026-04-18T10:48:41.289Z</time></trkpt><trkpt lat="43.4486806" lon="12.8789237"><ele>360.0</ele><time>2026-04-18T10:48:42.289Z</time></trkpt><trkpt lat="43.4487656" lon="12.8788258"><ele>360.0</ele><time>2026-04-18T10:48:43.288Z</time></trkpt><trkpt lat="43.4488515" lon="12.8787268"><ele>357.75</ele><time>2026-04-18T10:48:44.288Z</time></trkpt><trkpt lat="43.4489315" lon="12.8786209"><ele>355.5</ele><time>2026-04-18T10:48:45.289Z</time></trkpt><trkpt lat="43.4490034" lon="12.8785004"><ele>353.25</ele><time>2026-04-18T10:48:46.288Z</time></trkpt><trkpt lat="43.449074" lon="12.8783534"><ele>351.0</ele><time>2026-04-18T10:48:47.288Z</time></trkpt><trkpt lat="43.4491427" lon="12.8781994"><ele>351.0</ele><time>2026-04-18T10:48:48.288Z</time></trkpt><trkpt lat="43.4492109" lon="12.8780434"><ele>351.0</ele><time>2026-04-18T10:48:49.289Z</time></trkpt><trkpt lat="43.4492878" lon="12.8778816"><ele>351.0</ele><time>2026-04-18T10:48:50.288Z</time></trkpt><trkpt lat="43.4493703" lon="12.8777125"><ele>351.0</ele><time>2026-04-18T10:48:51.289Z</time></trkpt><trkpt lat="43.449455" lon="12.8775281"><ele>353.3333333333333</ele><time>2026-04-18T10:48:52.289Z</time></trkpt><trkpt lat="43.4495405" lon="12.8773434"><ele>355.66666666666663</ele><time>2026-04-18T10:48:53.288Z</time></trkpt><trkpt lat="43.4496278" lon="12.8771589"><ele>358.0</ele><time>2026-04-18T10:48:54.288Z</time></trkpt><trkpt lat="43.4497091" lon="12.8769787"><ele>358.25</ele><time>2026-04-18T10:48:55.289Z</time></trkpt><trkpt lat="43.4497815" lon="12.8768264"><ele>358.5</ele><time>2026-04-18T10:48:56.289Z</time></trkpt><trkpt lat="43.4498531" lon="12.8766801"><ele>358.75</ele><time>2026-04-18T10:48:57.288Z</time></trkpt><trkpt lat="43.4499197" lon="12.8765346"><ele>359.0</ele><time>2026-04-18T10:48:58.289Z</time></trkpt><trkpt lat="43.449984" lon="12.8763964"><ele>360.83333333333337</ele><time>2026-04-18T10:48:59.288Z</time></trkpt><trkpt lat="43.4500457" lon="12.8762707"><ele>362.6666666666667</ele><time>2026-04-18T10:49:00.289Z</time></trkpt><trkpt lat="43.4501011" lon="12.8761537"><ele>364.5</ele><time>2026-04-18T10:49:01.288Z</time></trkpt><trkpt lat="43.4501509" lon="12.8760479"><ele>366.3333333333333</ele><time>2026-04-18T10:49:02.288Z</time></trkpt><trkpt lat="43.4501955" lon="12.8759588"><ele>368.16666666666663</ele><time>2026-04-18T10:49:03.288Z</time></trkpt><trkpt lat="43.4502329" lon="12.8758819"><ele>370.0</ele><time>2026-04-18T10:49:04.288Z</time></trkpt><trkpt lat="43.450281" lon="12.8757761"><ele>371.1428571428571</ele><time>2026-04-18T10:49:06.289Z</time></trkpt><trkpt lat="43.4502911" lon="12.8756766"><ele>372.2857142857143</ele><time>2026-04-18T10:49:08.288Z</time></trkpt><trkpt lat="43.4502649" lon="12.8755908"><ele>373.42857142857144</ele><time>2026-04-18T10:49:10.288Z</time></trkpt><trkpt lat="43.4502344" lon="12.8756691"><ele>374.57142857142856</ele><time>2026-04-18T10:49:36.289Z</time></trkpt><trkpt lat="43.4502722" lon="12.8755589"><ele>375.7142857142857</ele><time>2026-04-18T10:50:51.288Z</time></trkpt><trkpt lat="43.4502576" lon="12.8754737"><ele>376.85714285714283</ele><time>2026-04-18T10:50:54.289Z</time></trkpt><trkpt lat="43.4502429" lon="12.8753669"><ele>378.0</ele><time>2026-04-18T10:50:59.288Z</time></trkpt><trkpt lat="43.4503012" lon="12.8753098"><ele>378.0</ele><time>2026-04-18T10:51:21.288Z</time></trkpt><trkpt lat="43.4503715" lon="12.8752484"><ele>378.0</ele><time>2026-04-18T10:51:24.289Z</time></trkpt><trkpt lat="43.4504449" lon="12.8752459"><ele>378.0</ele><time>2026-04-18T10:51:26.288Z</time></trkpt><trkpt lat="43.4504926" lon="12.8751839"><ele>378.0</ele><time>2026-04-18T10:51:35.289Z</time></trkpt><trkpt lat="43.4504915" lon="12.8750341"><ele>378.0</ele><time>2026-04-18T10:51:37.289Z</time></trkpt><trkpt lat="43.4504493" lon="12.8748938"><ele>378.0</ele><time>2026-04-18T10:51:39.288Z</time></trkpt><trkpt lat="43.4504086" lon="12.8748041"><ele>378.3333333333333</ele><time>2026-04-18T10:51:40.288Z</time></trkpt><trkpt lat="43.4503684" lon="12.8747186"><ele>378.6666666666667</ele><time>2026-04-18T10:51:41.288Z</time></trkpt><trkpt lat="43.4503364" lon="12.8746178"><ele>379.0</ele><time>2026-04-18T10:51:42.288Z</time></trkpt><trkpt lat="43.4503138" lon="12.8744936"><ele>379.33333333333337</ele><time>2026-04-18T10:51:43.288Z</time></trkpt><trkpt lat="43.4503166" lon="12.8743615"><ele>379.6666666666667</ele><time>2026-04-18T10:51:44.289Z</time></trkpt><trkpt lat="43.4503354" lon="12.8742298"><ele>380.0</ele><time>2026-04-18T10:51:45.288Z</time></trkpt><trkpt lat="43.4503551" lon="12.8740811"><ele>380.4</ele><time>2026-04-18T10:51:46.289Z</time></trkpt><trkpt lat="43.4503789" lon="12.8739338"><ele>380.8</ele><time>2026-04-18T10:51:47.288Z</time></trkpt><trkpt lat="43.4504059" lon="12.8737845"><ele>381.20000000000005</ele><time>2026-04-18T10:51:48.288Z</time></trkpt><trkpt lat="43.4504344" lon="12.873632"><ele>381.6</ele><time>2026-04-18T10:51:49.288Z</time></trkpt><trkpt lat="43.4504547" lon="12.8734853"><ele>382.0</ele><time>2026-04-18T10:51:50.289Z</time></trkpt><trkpt lat="43.4504713" lon="12.8733487"><ele>382.8</ele><time>2026-04-18T10:51:51.289Z</time></trkpt><trkpt lat="43.4504764" lon="12.8732152"><ele>383.6</ele><time>2026-04-18T10:51:52.289Z</time></trkpt><trkpt lat="43.4504702" lon="12.8730808"><ele>384.40000000000003</ele><time>2026-04-18T10:51:53.289Z</time></trkpt><trkpt lat="43.4504585" lon="12.8729568"><ele>385.20000000000005</ele><time>2026-04-18T10:51:54.288Z</time></trkpt><trkpt lat="43.4504406" lon="12.8728433"><ele>386.0</ele><time>2026-04-18T10:51:55.288Z</time></trkpt><trkpt lat="43.4504217" lon="12.8727313"><ele>385.99999999999994</ele><time>2026-04-18T10:51:56.288Z</time></trkpt><trkpt lat="43.4504049" lon="12.8726103"><ele>386.0</ele><time>2026-04-18T10:51:57.288Z</time></trkpt><trkpt lat="43.4503848" lon="12.8724903"><ele>386.0</ele><time>2026-04-18T10:51:58.288Z</time></trkpt><trkpt lat="43.4503662" lon="12.8723783"><ele>386.0</ele><time>2026-04-18T10:51:59.289Z</time></trkpt><trkpt lat="43.4503496" lon="12.8722794"><ele>385.99999999999994</ele><time>2026-04-18T10:52:00.289Z</time></trkpt><trkpt lat="43.4503351" lon="12.8721873"><ele>386.0</ele><time>2026-04-18T10:52:01.288Z</time></trkpt><trkpt lat="43.4503171" lon="12.8720846"><ele>386.8333333333333</ele><time>2026-04-18T10:52:02.289Z</time></trkpt><trkpt lat="43.4502969" lon="12.8719851"><ele>387.66666666666663</ele><time>2026-04-18T10:52:03.288Z</time></trkpt><trkpt lat="43.4502669" lon="12.8718782"><ele>388.5</ele><time>2026-04-18T10:52:04.288Z</time></trkpt><trkpt lat="43.4502349" lon="12.8717676"><ele>389.33333333333337</ele><time>2026-04-18T10:52:05.288Z</time></trkpt><trkpt lat="43.4501974" lon="12.87166"><ele>390.1666666666667</ele><time>2026-04-18T10:52:06.288Z</time></trkpt><trkpt lat="43.4501514" lon="12.8715492"><ele>391.0</ele><time>2026-04-18T10:52:07.288Z</time></trkpt><trkpt lat="43.4501052" lon="12.8714382"><ele>392.4</ele><time>2026-04-18T10:52:08.288Z</time></trkpt><trkpt lat="43.4500546" lon="12.8713228"><ele>393.8</ele><time>2026-04-18T10:52:09.288Z</time></trkpt><trkpt lat="43.4499964" lon="12.8712034"><ele>395.2</ele><time>2026-04-18T10:52:10.288Z</time></trkpt><trkpt lat="43.4499306" lon="12.8710829"><ele>396.59999999999997</ele><time>2026-04-18T10:52:11.289Z</time></trkpt><trkpt lat="43.4498614" lon="12.8709555"><ele>398.0</ele><time>2026-04-18T10:52:12.288Z</time></trkpt><trkpt lat="43.4498061" lon="12.8708587"><ele>398.3333333333333</ele><time>2026-04-18T10:52:13.289Z</time></trkpt><trkpt lat="43.4497396" lon="12.8707561"><ele>398.66666666666663</ele><time>2026-04-18T10:52:15.289Z</time></trkpt><trkpt lat="43.449683" lon="12.8706853"><ele>399.0</ele><time>2026-04-18T10:52:27.289Z</time></trkpt><trkpt lat="43.4496195" lon="12.8706562"><ele>399.33333333333337</ele><time>2026-04-18T10:52:29.288Z</time></trkpt><trkpt lat="43.4495433" lon="12.8706271"><ele>399.6666666666667</ele><time>2026-04-18T10:52:31.289Z</time></trkpt><trkpt lat="43.4494653" lon="12.8705486"><ele>400.0</ele><time>2026-04-18T10:52:33.289Z</time></trkpt><trkpt lat="43.449366" lon="12.8704688"><ele>398.8</ele><time>2026-04-18T10:52:35.289Z</time></trkpt><trkpt lat="43.4492721" lon="12.8704016"><ele>397.6</ele><time>2026-04-18T10:52:37.288Z</time></trkpt><trkpt lat="43.4491573" lon="12.8703444"><ele>396.4</ele><time>2026-04-18T10:52:39.288Z</time></trkpt><trkpt lat="43.4490971" lon="12.8703178"><ele>395.2</ele><time>2026-04-18T10:52:40.288Z</time></trkpt><trkpt lat="43.4489803" lon="12.8702609"><ele>394.0</ele><time>2026-04-18T10:52:42.288Z</time></trkpt><trkpt lat="43.4489115" lon="12.8702342"><ele>394.00000000000006</ele><time>2026-04-18T10:52:43.288Z</time></trkpt><trkpt lat="43.4488507" lon="12.8702101"><ele>394.0</ele><time>2026-04-18T10:52:44.288Z</time></trkpt><trkpt lat="43.4487576" lon="12.8701639"><ele>394.0</ele><time>2026-04-18T10:52:46.288Z</time></trkpt><trkpt lat="43.4486841" lon="12.8701292"><ele>394.0</ele><time>2026-04-18T10:52:48.288Z</time></trkpt><trkpt lat="43.4486057" lon="12.8700875"><ele>394.00000000000006</ele><time>2026-04-18T10:52:51.288Z</time></trkpt><trkpt lat="43.4485394" lon="12.8700596"><ele>394.0</ele><time>2026-04-18T10:52:53.288Z</time></trkpt><trkpt lat="43.4484657" lon="12.8700258"><ele>394.00000000000006</ele><time>2026-04-18T10:52:55.288Z</time></trkpt><trkpt lat="43.4483776" lon="12.8699891"><ele>394.0</ele><time>2026-04-18T10:52:58.289Z</time></trkpt><trkpt lat="43.4483022" lon="12.8699641"><ele>394.0</ele><time>2026-04-18T10:53:03.288Z</time></trkpt><trkpt lat="43.4482484" lon="12.870073"><ele>394.0</ele><time>2026-04-18T10:53:06.288Z</time></trkpt><trkpt lat="43.4481982" lon="12.8701985"><ele>394.00000000000006</ele><time>2026-04-18T10:53:08.288Z</time></trkpt><trkpt lat="43.4481592" lon="12.870267"><ele>394.0</ele><time>2026-04-18T10:53:09.289Z</time></trkpt><trkpt lat="43.4481168" lon="12.8703343"><ele>392.2857142857143</ele><time>2026-04-18T10:53:10.288Z</time></trkpt><trkpt lat="43.4480772" lon="12.8704087"><ele>390.57142857142856</ele><time>2026-04-18T10:53:11.288Z</time></trkpt><trkpt lat="43.4480328" lon="12.8704791"><ele>388.8571428571429</ele><time>2026-04-18T10:53:12.288Z</time></trkpt><trkpt lat="43.4479912" lon="12.8705455"><ele>387.1428571428571</ele><time>2026-04-18T10:53:13.288Z</time></trkpt><trkpt lat="43.4479437" lon="12.8706134"><ele>385.4285714285714</ele><time>2026-04-18T10:53:14.288Z</time></trkpt><trkpt lat="43.4478952" lon="12.8706848"><ele>383.7142857142857</ele><time>2026-04-18T10:53:15.289Z</time></trkpt><trkpt lat="43.4478463" lon="12.8707476"><ele>382.0</ele><time>2026-04-18T10:53:16.288Z</time></trkpt><trkpt lat="43.4477969" lon="12.8708181"><ele>381.5</ele><time>2026-04-18T10:53:17.289Z</time></trkpt><trkpt lat="43.4477548" lon="12.8708841"><ele>381.0</ele><time>2026-04-18T10:53:18.289Z</time></trkpt><trkpt lat="43.4476744" lon="12.8710013"><ele>380.5</ele><time>2026-04-18T10:53:20.288Z</time></trkpt><trkpt lat="43.4476076" lon="12.8711065"><ele>380.0</ele><time>2026-04-18T10:53:22.288Z</time></trkpt><trkpt lat="43.4475551" lon="12.8711877"><ele>379.5</ele><time>2026-04-18T10:53:24.288Z</time></trkpt><trkpt lat="43.4474753" lon="12.8712318"><ele>379.0</ele><time>2026-04-18T10:53:27.288Z</time></trkpt><trkpt lat="43.4474139" lon="12.8710382"><ele>379.0</ele><time>2026-04-18T10:53:32.288Z</time></trkpt><trkpt lat="43.447399" lon="12.8708609"><ele>379.0</ele><time>2026-04-18T10:53:34.288Z</time></trkpt><trkpt lat="43.4473973" lon="12.8707371"><ele>379.0</ele><time>2026-04-18T10:53:35.288Z</time></trkpt><trkpt lat="43.4473944" lon="12.8706284"><ele>379.0</ele><time>2026-04-18T10:53:36.288Z</time></trkpt><trkpt lat="43.4473958" lon="12.8705319"><ele>379.0</ele><time>2026-04-18T10:53:37.288Z</time></trkpt><trkpt lat="43.4473949" lon="12.8704323"><ele>379.0</ele><time>2026-04-18T10:53:38.289Z</time></trkpt><trkpt lat="43.4473917" lon="12.8703288"><ele>379.0</ele><time>2026-04-18T10:53:39.288Z</time></trkpt><trkpt lat="43.447386" lon="12.8702269"><ele>379.0</ele><time>2026-04-18T10:53:40.288Z</time></trkpt><trkpt lat="43.447378" lon="12.8701258"><ele>379.0</ele><time>2026-04-18T10:53:41.288Z</time></trkpt><trkpt lat="43.4473593" lon="12.8700244"><ele>379.0</ele><time>2026-04-18T10:53:42.288Z</time></trkpt><trkpt lat="43.4473248" lon="12.8699329"><ele>379.0</ele><time>2026-04-18T10:53:43.288Z</time></trkpt><trkpt lat="43.4472727" lon="12.8698521"><ele>379.0</ele><time>2026-04-18T10:53:44.289Z</time></trkpt><trkpt lat="43.4471975" lon="12.8697861"><ele>379.79999999999995</ele><time>2026-04-18T10:53:45.288Z</time></trkpt><trkpt lat="43.4470944" lon="12.869728"><ele>380.59999999999997</ele><time>2026-04-18T10:53:46.289Z</time></trkpt><trkpt lat="43.4469854" lon="12.8696807"><ele>381.4</ele><time>2026-04-18T10:53:47.288Z</time></trkpt><trkpt lat="43.4468904" lon="12.8696372"><ele>382.2</ele><time>2026-04-18T10:53:48.288Z</time></trkpt><trkpt lat="43.4468101" lon="12.8695989"><ele>383.0</ele><time>2026-04-18T10:53:49.289Z</time></trkpt><trkpt lat="43.4467344" lon="12.8695585"><ele>383.0</ele><time>2026-04-18T10:53:50.289Z</time></trkpt><trkpt lat="43.4466429" lon="12.8695064"><ele>383.0</ele><time>2026-04-18T10:53:51.288Z</time></trkpt><trkpt lat="43.4465502" lon="12.8694508"><ele>383.0</ele><time>2026-04-18T10:53:52.288Z</time></trkpt><trkpt lat="43.4464693" lon="12.8694123"><ele>383.0</ele><time>2026-04-18T10:53:53.289Z</time></trkpt><trkpt lat="43.4463932" lon="12.8693856"><ele>383.0</ele><time>2026-04-18T10:53:54.288Z</time></trkpt><trkpt lat="43.4463258" lon="12.8693631"><ele>383.0</ele><time>2026-04-18T10:53:55.289Z</time></trkpt><trkpt lat="43.4462368" lon="12.8693162"><ele>383.6666666666667</ele><time>2026-04-18T10:53:57.288Z</time></trkpt><trkpt lat="43.4461946" lon="12.869232"><ele>384.33333333333337</ele><time>2026-04-18T10:53:59.289Z</time></trkpt><trkpt lat="43.4461911" lon="12.8691415"><ele>385.0</ele><time>2026-04-18T10:54:01.288Z</time></trkpt><trkpt lat="43.4461372" lon="12.8690719"><ele>385.6666666666667</ele><time>2026-04-18T10:54:05.288Z</time></trkpt><trkpt lat="43.44607" lon="12.8690142"><ele>386.3333333333333</ele><time>2026-04-18T10:54:06.288Z</time></trkpt><trkpt lat="43.4459731" lon="12.8688907"><ele>387.0</ele><time>2026-04-18T10:54:08.288Z</time></trkpt><trkpt lat="43.4459215" lon="12.8688001"><ele>387.0</ele><time>2026-04-18T10:54:09.289Z</time></trkpt><trkpt lat="43.4458683" lon="12.8686888"><ele>387.0</ele><time>2026-04-18T10:54:10.288Z</time></trkpt><trkpt lat="43.4458188" lon="12.8685568"><ele>387.0</ele><time>2026-04-18T10:54:11.289Z</time></trkpt><trkpt lat="43.4457693" lon="12.8684219"><ele>387.0</ele><time>2026-04-18T10:54:12.289Z</time></trkpt><trkpt lat="43.4457161" lon="12.8682927"><ele>387.0</ele><time>2026-04-18T10:54:13.288Z</time></trkpt><trkpt lat="43.4456545" lon="12.8681578"><ele>387.0</ele><time>2026-04-18T10:54:14.289Z</time></trkpt><trkpt lat="43.4455874" lon="12.8680273"><ele>387.0</ele><time>2026-04-18T10:54:15.288Z</time></trkpt><trkpt lat="43.4455253" lon="12.8679042"><ele>387.0</ele><time>2026-04-18T10:54:16.288Z</time></trkpt><trkpt lat="43.4454684" lon="12.8678008"><ele>387.0</ele><time>2026-04-18T10:54:17.288Z</time></trkpt><trkpt lat="43.4454047" lon="12.8677247"><ele>387.0</ele><time>2026-04-18T10:54:18.289Z</time></trkpt><trkpt lat="43.4453328" lon="12.8676734"><ele>387.0</ele><time>2026-04-18T10:54:19.288Z</time></trkpt><trkpt lat="43.4452506" lon="12.8676276"><ele>387.0</ele><time>2026-04-18T10:54:20.289Z</time></trkpt><trkpt lat="43.4451676" lon="12.8675819"><ele>387.0</ele><time>2026-04-18T10:54:21.289Z</time></trkpt><trkpt lat="43.4450873" lon="12.8675431"><ele>387.0</ele><time>2026-04-18T10:54:22.288Z</time></trkpt><trkpt lat="43.4450088" lon="12.8675077"><ele>387.0</ele><time>2026-04-18T10:54:23.289Z</time></trkpt><trkpt lat="43.4449346" lon="12.8674871"><ele>387.0</ele><time>2026-04-18T10:54:24.288Z</time></trkpt><trkpt lat="43.4448612" lon="12.8674943"><ele>387.0</ele><time>2026-04-18T10:54:25.289Z</time></trkpt><trkpt lat="43.4447901" lon="12.8675356"><ele>387.0</ele><time>2026-04-18T10:54:26.288Z</time></trkpt><trkpt lat="43.4447254" lon="12.8675998"><ele>387.0</ele><time>2026-04-18T10:54:27.289Z</time></trkpt><trkpt lat="43.4446683" lon="12.8676585"><ele>387.0</ele><time>2026-04-18T10:54:28.288Z</time></trkpt><trkpt lat="43.4446175" lon="12.8677103"><ele>387.0</ele><time>2026-04-18T10:54:29.289Z</time></trkpt><trkpt lat="43.4445523" lon="12.8678113"><ele>387.0</ele><time>2026-04-18T10:54:31.289Z</time></trkpt><trkpt lat="43.4444868" lon="12.8678193"><ele>387.8</ele><time>2026-04-18T10:54:35.289Z</time></trkpt><trkpt lat="43.4445253" lon="12.8677024"><ele>388.6</ele><time>2026-04-18T10:54:37.288Z</time></trkpt><trkpt lat="43.4445727" lon="12.8676147"><ele>389.40000000000003</ele><time>2026-04-18T10:54:38.289Z</time></trkpt><trkpt lat="43.4446223" lon="12.8675143"><ele>390.20000000000005</ele><time>2026-04-18T10:54:39.288Z</time></trkpt><trkpt lat="43.4446793" lon="12.86741"><ele>391.0</ele><time>2026-04-18T10:54:40.289Z</time></trkpt><trkpt lat="43.4447393" lon="12.8672803"><ele>391.0</ele><time>2026-04-18T10:54:41.288Z</time></trkpt><trkpt lat="43.4448096" lon="12.8671573"><ele>391.0</ele><time>2026-04-18T10:54:42.289Z</time></trkpt><trkpt lat="43.444887" lon="12.8670091"><ele>391.0</ele><time>2026-04-18T10:54:43.289Z</time></trkpt><trkpt lat="43.444969" lon="12.8668549"><ele>391.0</ele><time>2026-04-18T10:54:44.289Z</time></trkpt><trkpt lat="43.4450426" lon="12.8666924"><ele>390.0</ele><time>2026-04-18T10:54:45.288Z</time></trkpt><trkpt lat="43.4451109" lon="12.8665153"><ele>389.0</ele><time>2026-04-18T10:54:46.288Z</time></trkpt><trkpt lat="43.4451693" lon="12.8663109"><ele>388.0</ele><time>2026-04-18T10:54:47.289Z</time></trkpt><trkpt lat="43.4452282" lon="12.8661027"><ele>385.33333333333337</ele><time>2026-04-18T10:54:48.288Z</time></trkpt><trkpt lat="43.4452928" lon="12.8659037"><ele>382.6666666666667</ele><time>2026-04-18T10:54:49.288Z</time></trkpt><trkpt lat="43.4453692" lon="12.8657083"><ele>380.0</ele><time>2026-04-18T10:54:50.288Z</time></trkpt><trkpt lat="43.4454609" lon="12.8655144"><ele>384.6666666666667</ele><time>2026-04-18T10:54:51.288Z</time></trkpt><trkpt lat="43.4455526" lon="12.8653155"><ele>389.33333333333337</ele><time>2026-04-18T10:54:52.288Z</time></trkpt><trkpt lat="43.445659" lon="12.8651182"><ele>394.0</ele><time>2026-04-18T10:54:53.288Z</time></trkpt><trkpt lat="43.4457688" lon="12.8649283"><ele>394.0</ele><time>2026-04-18T10:54:54.289Z</time></trkpt><trkpt lat="43.4458748" lon="12.8647624"><ele>394.0</ele><time>2026-04-18T10:54:55.288Z</time></trkpt><trkpt lat="43.4459735" lon="12.8646047"><ele>394.0</ele><time>2026-04-18T10:54:56.289Z</time></trkpt><trkpt lat="43.4460699" lon="12.8644641"><ele>394.0</ele><time>2026-04-18T10:54:57.288Z</time></trkpt><trkpt lat="43.4461894" lon="12.8643353"><ele>394.0</ele><time>2026-04-18T10:54:58.288Z</time></trkpt><trkpt lat="43.4463234" lon="12.864235"><ele>394.0</ele><time>2026-04-18T10:54:59.289Z</time></trkpt><trkpt lat="43.4464737" lon="12.8641368"><ele>394.0</ele><time>2026-04-18T10:55:00.288Z</time></trkpt><trkpt lat="43.4466334" lon="12.864039"><ele>394.0</ele><time>2026-04-18T10:55:01.288Z</time></trkpt><trkpt lat="43.4467911" lon="12.8639373"><ele>394.0</ele><time>2026-04-18T10:55:02.289Z</time></trkpt><trkpt lat="43.4469505" lon="12.8638356"><ele>394.0</ele><time>2026-04-18T10:55:03.288Z</time></trkpt><trkpt lat="43.4471134" lon="12.8637249"><ele>394.0</ele><time>2026-04-18T10:55:04.289Z</time></trkpt><trkpt lat="43.4472773" lon="12.8636068"><ele>394.0</ele><time>2026-04-18T10:55:05.289Z</time></trkpt><trkpt lat="43.4474451" lon="12.8634807"><ele>395.0</ele><time>2026-04-18T10:55:06.288Z</time></trkpt><trkpt lat="43.4476155" lon="12.8633531"><ele>396.0</ele><time>2026-04-18T10:55:07.289Z</time></trkpt><trkpt lat="43.447788" lon="12.8632262"><ele>397.0</ele><time>2026-04-18T10:55:08.288Z</time></trkpt><trkpt lat="43.4479568" lon="12.863107"><ele>396.0</ele><time>2026-04-18T10:55:09.288Z</time></trkpt><trkpt lat="43.4481223" lon="12.863001"><ele>395.0</ele><time>2026-04-18T10:55:10.288Z</time></trkpt><trkpt lat="43.4482886" lon="12.8629089"><ele>394.0</ele><time>2026-04-18T10:55:11.289Z</time></trkpt><trkpt lat="43.448454" lon="12.862824"><ele>394.0</ele><time>2026-04-18T10:55:12.288Z</time></trkpt><trkpt lat="43.4486213" lon="12.86275"><ele>394.0</ele><time>2026-04-18T10:55:13.288Z</time></trkpt><trkpt lat="43.4487909" lon="12.8626811"><ele>394.0</ele><time>2026-04-18T10:55:14.288Z</time></trkpt><trkpt lat="43.448961" lon="12.8626175"><ele>396.0</ele><time>2026-04-18T10:55:15.288Z</time></trkpt><trkpt lat="43.4491345" lon="12.8625568"><ele>398.0</ele><time>2026-04-18T10:55:16.288Z</time></trkpt><trkpt lat="43.4493048" lon="12.8624948"><ele>400.0</ele><time>2026-04-18T10:55:17.289Z</time></trkpt><trkpt lat="43.4494659" lon="12.8624353"><ele>400.0</ele><time>2026-04-18T10:55:18.288Z</time></trkpt><trkpt lat="43.4496144" lon="12.8623855"><ele>400.0</ele><time>2026-04-18T10:55:19.288Z</time></trkpt><trkpt lat="43.4497632" lon="12.8623489"><ele>400.0</ele><time>2026-04-18T10:55:20.288Z</time></trkpt><trkpt lat="43.449914" lon="12.8623481"><ele>400.33333333333337</ele><time>2026-04-18T10:55:21.288Z</time></trkpt><trkpt lat="43.4500643" lon="12.8623502"><ele>400.66666666666663</ele><time>2026-04-18T10:55:22.289Z</time></trkpt><trkpt lat="43.4502275" lon="12.8624129"><ele>401.0</ele><time>2026-04-18T10:55:23.288Z</time></trkpt><trkpt lat="43.4503971" lon="12.8624658"><ele>398.66666666666663</ele><time>2026-04-18T10:55:24.289Z</time></trkpt><trkpt lat="43.4505621" lon="12.8625145"><ele>396.33333333333337</ele><time>2026-04-18T10:55:25.288Z</time></trkpt><trkpt lat="43.450742" lon="12.8625651"><ele>394.0</ele><time>2026-04-18T10:55:26.288Z</time></trkpt><trkpt lat="43.4509225" lon="12.8626087"><ele>397.33333333333337</ele><time>2026-04-18T10:55:27.288Z</time></trkpt><trkpt lat="43.4511141" lon="12.8626482"><ele>400.66666666666663</ele><time>2026-04-18T10:55:28.288Z</time></trkpt><trkpt lat="43.4512984" lon="12.8626848"><ele>404.0</ele><time>2026-04-18T10:55:29.288Z</time></trkpt><trkpt lat="43.451476" lon="12.8627166"><ele>404.0</ele><time>2026-04-18T10:55:30.288Z</time></trkpt><trkpt lat="43.4516439" lon="12.8627419"><ele>404.0</ele><time>2026-04-18T10:55:31.288Z</time></trkpt><trkpt lat="43.4518123" lon="12.8627717"><ele>404.0</ele><time>2026-04-18T10:55:32.288Z</time></trkpt><trkpt lat="43.4519674" lon="12.8627953"><ele>404.0</ele><time>2026-04-18T10:55:33.288Z</time></trkpt><trkpt lat="43.4521135" lon="12.862831"><ele>404.0</ele><time>2026-04-18T10:55:34.288Z</time></trkpt><trkpt lat="43.4522534" lon="12.8628484"><ele>404.0</ele><time>2026-04-18T10:55:35.289Z</time></trkpt><trkpt lat="43.4523755" lon="12.8628671"><ele>404.0</ele><time>2026-04-18T10:55:36.289Z</time></trkpt><trkpt lat="43.4524811" lon="12.8628818"><ele>401.79999999999995</ele><time>2026-04-18T10:55:37.288Z</time></trkpt><trkpt lat="43.4525733" lon="12.8629149"><ele>399.59999999999997</ele><time>2026-04-18T10:55:38.289Z</time></trkpt><trkpt lat="43.452653" lon="12.8629819"><ele>397.4</ele><time>2026-04-18T10:55:39.289Z</time></trkpt><trkpt lat="43.4527322" lon="12.8630804"><ele>395.2</ele><time>2026-04-18T10:55:40.289Z</time></trkpt><trkpt lat="43.452815" lon="12.8631831"><ele>393.0</ele><time>2026-04-18T10:55:41.288Z</time></trkpt><trkpt lat="43.4529054" lon="12.8632781"><ele>394.0</ele><time>2026-04-18T10:55:42.288Z</time></trkpt><trkpt lat="43.4529988" lon="12.8633449"><ele>395.0</ele><time>2026-04-18T10:55:43.289Z</time></trkpt><trkpt lat="43.4531033" lon="12.8633547"><ele>396.0</ele><time>2026-04-18T10:55:44.289Z</time></trkpt><trkpt lat="43.4532089" lon="12.8633118"><ele>397.0</ele><time>2026-04-18T10:55:45.288Z</time></trkpt><trkpt lat="43.4533154" lon="12.8631978"><ele>397.0</ele><time>2026-04-18T10:55:46.289Z</time></trkpt><trkpt lat="43.453419" lon="12.8630651"><ele>397.0</ele><time>2026-04-18T10:55:47.289Z</time></trkpt><trkpt lat="43.4535196" lon="12.8629326"><ele>397.0</ele><time>2026-04-18T10:55:48.288Z</time></trkpt><trkpt lat="43.4536222" lon="12.8627951"><ele>397.0</ele><time>2026-04-18T10:55:49.288Z</time></trkpt><trkpt lat="43.4537179" lon="12.8626496"><ele>398.75</ele><time>2026-04-18T10:55:50.288Z</time></trkpt><trkpt lat="43.4538062" lon="12.8625042"><ele>400.5</ele><time>2026-04-18T10:55:51.289Z</time></trkpt><trkpt lat="43.4538872" lon="12.8623562"><ele>402.25</ele><time>2026-04-18T10:55:52.288Z</time></trkpt><trkpt lat="43.4539582" lon="12.8622101"><ele>404.0</ele><time>2026-04-18T10:55:53.288Z</time></trkpt><trkpt lat="43.4540156" lon="12.8620763"><ele>404.0</ele><time>2026-04-18T10:55:54.289Z</time></trkpt><trkpt lat="43.4540637" lon="12.8619608"><ele>404.0</ele><time>2026-04-18T10:55:55.288Z</time></trkpt><trkpt lat="43.4541083" lon="12.8618622"><ele>404.0</ele><time>2026-04-18T10:55:56.289Z</time></trkpt><trkpt lat="43.4541783" lon="12.8617955"><ele>404.0</ele><time>2026-04-18T10:55:57.288Z</time></trkpt><trkpt lat="43.4542711" lon="12.8617569"><ele>404.0</ele><time>2026-04-18T10:55:58.289Z</time></trkpt><trkpt lat="43.4543777" lon="12.8617567"><ele>404.0</ele><time>2026-04-18T10:55:59.288Z</time></trkpt><trkpt lat="43.454494" lon="12.8617856"><ele>404.0</ele><time>2026-04-18T10:56:00.288Z</time></trkpt><trkpt lat="43.4546104" lon="12.8618661"><ele>404.0</ele><time>2026-04-18T10:56:01.288Z</time></trkpt><trkpt lat="43.4547261" lon="12.8619634"><ele>404.0</ele><time>2026-04-18T10:56:02.289Z</time></trkpt><trkpt lat="43.4548383" lon="12.8620731"><ele>405.75</ele><time>2026-04-18T10:56:03.288Z</time></trkpt><trkpt lat="43.4549535" lon="12.8621704"><ele>407.5</ele><time>2026-04-18T10:56:04.288Z</time></trkpt><trkpt lat="43.4550691" lon="12.862273"><ele>409.25</ele><time>2026-04-18T10:56:05.289Z</time></trkpt><trkpt lat="43.4551874" lon="12.8623781"><ele>411.0</ele><time>2026-04-18T10:56:06.288Z</time></trkpt><trkpt lat="43.4553068" lon="12.8624981"><ele>412.0</ele><time>2026-04-18T10:56:07.288Z</time></trkpt><trkpt lat="43.4554304" lon="12.8626274"><ele>413.0</ele><time>2026-04-18T10:56:08.289Z</time></trkpt><trkpt lat="43.4555586" lon="12.8627397"><ele>414.0</ele><time>2026-04-18T10:56:09.288Z</time></trkpt><trkpt lat="43.4556846" lon="12.8628603"><ele>415.5</ele><time>2026-04-18T10:56:10.288Z</time></trkpt><trkpt lat="43.4558018" lon="12.8629607"><ele>417.0</ele><time>2026-04-18T10:56:11.289Z</time></trkpt><trkpt lat="43.4559112" lon="12.8630644"><ele>418.5</ele><time>2026-04-18T10:56:12.288Z</time></trkpt><trkpt lat="43.456007" lon="12.8631613"><ele>420.0</ele><time>2026-04-18T10:56:13.288Z</time></trkpt><trkpt lat="43.4560992" lon="12.8632717"><ele>420.0</ele><time>2026-04-18T10:56:14.289Z</time></trkpt><trkpt lat="43.4561885" lon="12.8633919"><ele>420.0</ele><time>2026-04-18T10:56:15.289Z</time></trkpt><trkpt lat="43.4562817" lon="12.8635219"><ele>420.0</ele><time>2026-04-18T10:56:16.288Z</time></trkpt><trkpt lat="43.4563772" lon="12.8636451"><ele>420.0</ele><time>2026-04-18T10:56:17.289Z</time></trkpt><trkpt lat="43.4564748" lon="12.8637697"><ele>421.25</ele><time>2026-04-18T10:56:18.288Z</time></trkpt><trkpt lat="43.4565794" lon="12.8638503"><ele>422.5</ele><time>2026-04-18T10:56:19.288Z</time></trkpt><trkpt lat="43.4567053" lon="12.8639032"><ele>423.75</ele><time>2026-04-18T10:56:20.289Z</time></trkpt><trkpt lat="43.4568404" lon="12.8639293"><ele>425.0</ele><time>2026-04-18T10:56:21.288Z</time></trkpt><trkpt lat="43.4569849" lon="12.8639348"><ele>424.0</ele><time>2026-04-18T10:56:22.289Z</time></trkpt><trkpt lat="43.4571298" lon="12.8639463"><ele>423.0</ele><time>2026-04-18T10:56:23.288Z</time></trkpt><trkpt lat="43.4572679" lon="12.863962"><ele>422.0</ele><time>2026-04-18T10:56:24.288Z</time></trkpt><trkpt lat="43.4573912" lon="12.8639748"><ele>421.0</ele><time>2026-04-18T10:56:25.288Z</time></trkpt><trkpt lat="43.4575032" lon="12.8640006"><ele>421.0</ele><time>2026-04-18T10:56:26.289Z</time></trkpt><trkpt lat="43.4576042" lon="12.8640441"><ele>421.0</ele><time>2026-04-18T10:56:27.288Z</time></trkpt><trkpt lat="43.4576863" lon="12.864146"><ele>421.0</ele><time>2026-04-18T10:56:28.288Z</time></trkpt><trkpt lat="43.4577388" lon="12.8642653"><ele>421.0</ele><time>2026-04-18T10:56:29.289Z</time></trkpt><trkpt lat="43.4577795" lon="12.8644078"><ele>421.0</ele><time>2026-04-18T10:56:30.288Z</time></trkpt><trkpt lat="43.4578114" lon="12.8645643"><ele>422.0</ele><time>2026-04-18T10:56:31.289Z</time></trkpt><trkpt lat="43.4578425" lon="12.864715"><ele>423.0</ele><time>2026-04-18T10:56:32.289Z</time></trkpt><trkpt lat="43.4578746" lon="12.8648758"><ele>424.0</ele><time>2026-04-18T10:56:33.288Z</time></trkpt><trkpt lat="43.4579092" lon="12.8650432"><ele>425.0</ele><time>2026-04-18T10:56:34.289Z</time></trkpt><trkpt lat="43.4579536" lon="12.865206"><ele>420.75</ele><time>2026-04-18T10:56:35.288Z</time></trkpt><trkpt lat="43.4580099" lon="12.8653712"><ele>416.5</ele><time>2026-04-18T10:56:36.288Z</time></trkpt><trkpt lat="43.4580743" lon="12.8655202"><ele>412.25</ele><time>2026-04-18T10:56:37.289Z</time></trkpt><trkpt lat="43.458144" lon="12.8656673"><ele>408.0</ele><time>2026-04-18T10:56:38.289Z</time></trkpt><trkpt lat="43.4582102" lon="12.865812"><ele>408.5</ele><time>2026-04-18T10:56:39.288Z</time></trkpt><trkpt lat="43.4582787" lon="12.8659625"><ele>409.0</ele><time>2026-04-18T10:56:40.288Z</time></trkpt><trkpt lat="43.4583513" lon="12.8661082"><ele>409.5</ele><time>2026-04-18T10:56:41.289Z</time></trkpt><trkpt lat="43.4584258" lon="12.8662549"><ele>410.0</ele><time>2026-04-18T10:56:42.288Z</time></trkpt><trkpt lat="43.4585022" lon="12.8663998"><ele>410.0</ele><time>2026-04-18T10:56:43.288Z</time></trkpt><trkpt lat="43.4585833" lon="12.8665381"><ele>410.0</ele><time>2026-04-18T10:56:44.289Z</time></trkpt><trkpt lat="43.4586704" lon="12.8666677"><ele>410.0</ele><time>2026-04-18T10:56:45.288Z</time></trkpt><trkpt lat="43.458763" lon="12.8667887"><ele>410.0</ele><time>2026-04-18T10:56:46.288Z</time></trkpt><trkpt lat="43.4588614" lon="12.8669122"><ele>409.25</ele><time>2026-04-18T10:56:47.288Z</time></trkpt><trkpt lat="43.4589616" lon="12.8670339"><ele>408.5</ele><time>2026-04-18T10:56:48.289Z</time></trkpt><trkpt lat="43.4590569" lon="12.8671661"><ele>407.75</ele><time>2026-04-18T10:56:49.289Z</time></trkpt><trkpt lat="43.4591478" lon="12.8673064"><ele>407.0</ele><time>2026-04-18T10:56:50.288Z</time></trkpt><trkpt lat="43.4592307" lon="12.8674527"><ele>407.0</ele><time>2026-04-18T10:56:51.288Z</time></trkpt><trkpt lat="43.4593069" lon="12.8676099"><ele>407.0</ele><time>2026-04-18T10:56:52.288Z</time></trkpt><trkpt lat="43.4593777" lon="12.8677676"><ele>407.0</ele><time>2026-04-18T10:56:53.288Z</time></trkpt><trkpt lat="43.4594532" lon="12.8679192"><ele>407.0</ele><time>2026-04-18T10:56:54.288Z</time></trkpt><trkpt lat="43.4595297" lon="12.868076"><ele>406.5</ele><time>2026-04-18T10:56:55.288Z</time></trkpt><trkpt lat="43.4596046" lon="12.8682286"><ele>406.0</ele><time>2026-04-18T10:56:56.288Z</time></trkpt><trkpt lat="43.4596751" lon="12.8683768"><ele>405.5</ele><time>2026-04-18T10:56:57.288Z</time></trkpt><trkpt lat="43.4597413" lon="12.8685182"><ele>405.0</ele><time>2026-04-18T10:56:58.288Z</time></trkpt><trkpt lat="43.4598017" lon="12.8686449"><ele>403.6666666666667</ele><time>2026-04-18T10:56:59.288Z</time></trkpt><trkpt lat="43.4598549" lon="12.8687585"><ele>402.33333333333337</ele><time>2026-04-18T10:57:00.288Z</time></trkpt><trkpt lat="43.4599021" lon="12.8688697"><ele>401.0</ele><time>2026-04-18T10:57:01.289Z</time></trkpt><trkpt lat="43.4599416" lon="12.8689681"><ele>399.6666666666667</ele><time>2026-04-18T10:57:02.288Z</time></trkpt><trkpt lat="43.4599756" lon="12.8690592"><ele>398.33333333333337</ele><time>2026-04-18T10:57:03.288Z</time></trkpt><trkpt lat="43.4600126" lon="12.8691552"><ele>397.0</ele><time>2026-04-18T10:57:04.289Z</time></trkpt><trkpt lat="43.4600568" lon="12.8692557"><ele>397.20000000000005</ele><time>2026-04-18T10:57:05.289Z</time></trkpt><trkpt lat="43.4601047" lon="12.8693546"><ele>397.4</ele><time>2026-04-18T10:57:06.288Z</time></trkpt><trkpt lat="43.4601532" lon="12.8694574"><ele>397.6</ele><time>2026-04-18T10:57:07.289Z</time></trkpt><trkpt lat="43.4602053" lon="12.8695651"><ele>397.79999999999995</ele><time>2026-04-18T10:57:08.288Z</time></trkpt><trkpt lat="43.4602626" lon="12.8696731"><ele>398.0</ele><time>2026-04-18T10:57:09.288Z</time></trkpt><trkpt lat="43.4603259" lon="12.869787"><ele>398.0</ele><time>2026-04-18T10:57:10.289Z</time></trkpt><trkpt lat="43.4603959" lon="12.8698926"><ele>398.0</ele><time>2026-04-18T10:57:11.288Z</time></trkpt><trkpt lat="43.4604762" lon="12.8699978"><ele>398.0</ele><time>2026-04-18T10:57:12.288Z</time></trkpt><trkpt lat="43.4605613" lon="12.8701001"><ele>398.0</ele><time>2026-04-18T10:57:13.289Z</time></trkpt><trkpt lat="43.4606461" lon="12.8701968"><ele>398.0</ele><time>2026-04-18T10:57:14.288Z</time></trkpt><trkpt lat="43.4607272" lon="12.8702944"><ele>398.2</ele><time>2026-04-18T10:57:15.288Z</time></trkpt><trkpt lat="43.4608009" lon="12.8703944"><ele>398.4</ele><time>2026-04-18T10:57:16.288Z</time></trkpt><trkpt lat="43.4608723" lon="12.8704944"><ele>398.59999999999997</ele><time>2026-04-18T10:57:17.288Z</time></trkpt><trkpt lat="43.4609427" lon="12.8705937"><ele>398.79999999999995</ele><time>2026-04-18T10:57:18.289Z</time></trkpt><trkpt lat="43.4610147" lon="12.870694"><ele>399.0</ele><time>2026-04-18T10:57:19.289Z</time></trkpt><trkpt lat="43.461084" lon="12.8708007"><ele>399.0</ele><time>2026-04-18T10:57:20.289Z</time></trkpt><trkpt lat="43.4611515" lon="12.8709176"><ele>399.0</ele><time>2026-04-18T10:57:21.288Z</time></trkpt><trkpt lat="43.4612169" lon="12.8710441"><ele>399.0</ele><time>2026-04-18T10:57:22.288Z</time></trkpt><trkpt lat="43.4612813" lon="12.8711801"><ele>399.0</ele><time>2026-04-18T10:57:23.288Z</time></trkpt><trkpt lat="43.4613455" lon="12.8713202"><ele>398.25</ele><time>2026-04-18T10:57:24.288Z</time></trkpt><trkpt lat="43.4614101" lon="12.8714619"><ele>397.5</ele><time>2026-04-18T10:57:25.288Z</time></trkpt><trkpt lat="43.4614771" lon="12.8716078"><ele>396.75</ele><time>2026-04-18T10:57:26.288Z</time></trkpt><trkpt lat="43.4615475" lon="12.8717529"><ele>396.0</ele><time>2026-04-18T10:57:27.289Z</time></trkpt><trkpt lat="43.461623" lon="12.871894"><ele>396.0</ele><time>2026-04-18T10:57:28.289Z</time></trkpt><trkpt lat="43.461705" lon="12.8720247"><ele>396.0</ele><time>2026-04-18T10:57:29.289Z</time></trkpt><trkpt lat="43.4617895" lon="12.8721529"><ele>396.0</ele><time>2026-04-18T10:57:30.289Z</time></trkpt><trkpt lat="43.4618776" lon="12.8722796"><ele>396.0</ele><time>2026-04-18T10:57:31.288Z</time></trkpt><trkpt lat="43.4619686" lon="12.8724079"><ele>396.0</ele><time>2026-04-18T10:57:32.288Z</time></trkpt><trkpt lat="43.4620635" lon="12.8725344"><ele>396.0</ele><time>2026-04-18T10:57:33.288Z</time></trkpt><trkpt lat="43.4621626" lon="12.8726573"><ele>396.0</ele><time>2026-04-18T10:57:34.288Z</time></trkpt><trkpt lat="43.4622639" lon="12.8727827"><ele>396.0</ele><time>2026-04-18T10:57:35.288Z</time></trkpt><trkpt lat="43.4623652" lon="12.8729092"><ele>397.0</ele><time>2026-04-18T10:57:36.288Z</time></trkpt><trkpt lat="43.462467" lon="12.8730381"><ele>398.0</ele><time>2026-04-18T10:57:37.289Z</time></trkpt><trkpt lat="43.4625682" lon="12.873168"><ele>399.0</ele><time>2026-04-18T10:57:38.288Z</time></trkpt><trkpt lat="43.4626681" lon="12.8732974"><ele>400.0</ele><time>2026-04-18T10:57:39.288Z</time></trkpt><trkpt lat="43.4627654" lon="12.8734274"><ele>400.0</ele><time>2026-04-18T10:57:40.288Z</time></trkpt><trkpt lat="43.4628648" lon="12.8735563"><ele>400.0</ele><time>2026-04-18T10:57:41.288Z</time></trkpt><trkpt lat="43.4629659" lon="12.8736794"><ele>400.0</ele><time>2026-04-18T10:57:42.288Z</time></trkpt><trkpt lat="43.4630637" lon="12.8737929"><ele>400.0</ele><time>2026-04-18T10:57:43.288Z</time></trkpt><trkpt lat="43.4631614" lon="12.8739089"><ele>401.5</ele><time>2026-04-18T10:57:44.288Z</time></trkpt><trkpt lat="43.4632505" lon="12.8740281"><ele>403.0</ele><time>2026-04-18T10:57:45.289Z</time></trkpt><trkpt lat="43.4633409" lon="12.874152"><ele>404.5</ele><time>2026-04-18T10:57:46.289Z</time></trkpt><trkpt lat="43.463436" lon="12.8742712"><ele>406.0</ele><time>2026-04-18T10:57:47.288Z</time></trkpt><trkpt lat="43.4635407" lon="12.8743758"><ele>407.0</ele><time>2026-04-18T10:57:48.288Z</time></trkpt><trkpt lat="43.4636466" lon="12.8744698"><ele>408.0</ele><time>2026-04-18T10:57:49.289Z</time></trkpt><trkpt lat="43.4637579" lon="12.8745497"><ele>409.0</ele><time>2026-04-18T10:57:50.289Z</time></trkpt><trkpt lat="43.4638688" lon="12.8746316"><ele>410.0</ele><time>2026-04-18T10:57:51.288Z</time></trkpt><trkpt lat="43.4639785" lon="12.8747275"><ele>410.0</ele><time>2026-04-18T10:57:52.289Z</time></trkpt><trkpt lat="43.4640745" lon="12.8748271"><ele>410.0</ele><time>2026-04-18T10:57:53.288Z</time></trkpt><trkpt lat="43.4641631" lon="12.8749372"><ele>410.0</ele><time>2026-04-18T10:57:54.289Z</time></trkpt><trkpt lat="43.4642534" lon="12.8750502"><ele>410.0</ele><time>2026-04-18T10:57:55.289Z</time></trkpt><trkpt lat="43.4643452" lon="12.8751526"><ele>410.75</ele><time>2026-04-18T10:57:56.288Z</time></trkpt><trkpt lat="43.4644495" lon="12.8752341"><ele>411.5</ele><time>2026-04-18T10:57:57.288Z</time></trkpt><trkpt lat="43.4645664" lon="12.8752853"><ele>412.25</ele><time>2026-04-18T10:57:58.288Z</time></trkpt><trkpt lat="43.4646897" lon="12.8753006"><ele>413.0</ele><time>2026-04-18T10:57:59.289Z</time></trkpt><trkpt lat="43.4648257" lon="12.8752963"><ele>413.25</ele><time>2026-04-18T10:58:00.289Z</time></trkpt><trkpt lat="43.4649626" lon="12.8752938"><ele>413.5</ele><time>2026-04-18T10:58:01.289Z</time></trkpt><trkpt lat="43.4651003" lon="12.875304"><ele>413.75</ele><time>2026-04-18T10:58:02.289Z</time></trkpt><trkpt lat="43.4652338" lon="12.875323"><ele>414.0</ele><time>2026-04-18T10:58:03.288Z</time></trkpt><trkpt lat="43.4653675" lon="12.8753549"><ele>414.75</ele><time>2026-04-18T10:58:04.289Z</time></trkpt><trkpt lat="43.4654996" lon="12.8754027"><ele>415.5</ele><time>2026-04-18T10:58:05.289Z</time></trkpt><trkpt lat="43.4656317" lon="12.8754558"><ele>416.25</ele><time>2026-04-18T10:58:06.288Z</time></trkpt><trkpt lat="43.4657607" lon="12.8755135"><ele>417.0</ele><time>2026-04-18T10:58:07.288Z</time></trkpt><trkpt lat="43.4658886" lon="12.8755928"><ele>417.0</ele><time>2026-04-18T10:58:08.289Z</time></trkpt><trkpt lat="43.4660095" lon="12.8756754"><ele>417.0</ele><time>2026-04-18T10:58:09.288Z</time></trkpt><trkpt lat="43.4661222" lon="12.8757452"><ele>417.0</ele><time>2026-04-18T10:58:10.288Z</time></trkpt><trkpt lat="43.4662223" lon="12.8758044"><ele>417.0</ele><time>2026-04-18T10:58:11.288Z</time></trkpt><trkpt lat="43.4663087" lon="12.8758559"><ele>417.6666666666667</ele><time>2026-04-18T10:58:12.289Z</time></trkpt><trkpt lat="43.4663882" lon="12.8759012"><ele>418.33333333333337</ele><time>2026-04-18T10:58:13.289Z</time></trkpt><trkpt lat="43.4664663" lon="12.8759522"><ele>419.0</ele><time>2026-04-18T10:58:14.288Z</time></trkpt><trkpt lat="43.4665437" lon="12.875997"><ele>419.6666666666667</ele><time>2026-04-18T10:58:15.288Z</time></trkpt><trkpt lat="43.4666233" lon="12.8760424"><ele>420.33333333333337</ele><time>2026-04-18T10:58:16.288Z</time></trkpt><trkpt lat="43.4667013" lon="12.8760836"><ele>421.0</ele><time>2026-04-18T10:58:17.288Z</time></trkpt><trkpt lat="43.4667788" lon="12.8761144"><ele>421.83333333333337</ele><time>2026-04-18T10:58:18.288Z</time></trkpt><trkpt lat="43.4668544" lon="12.8761326"><ele>422.6666666666667</ele><time>2026-04-18T10:58:19.288Z</time></trkpt><trkpt lat="43.4669262" lon="12.8761424"><ele>423.5</ele><time>2026-04-18T10:58:20.289Z</time></trkpt><trkpt lat="43.4670439" lon="12.8761501"><ele>424.33333333333337</ele><time>2026-04-18T10:58:22.288Z</time></trkpt><trkpt lat="43.4670961" lon="12.8762756"><ele>425.1666666666667</ele><time>2026-04-18T10:58:24.288Z</time></trkpt><trkpt lat="43.4670833" lon="12.8763683"><ele>426.0</ele><time>2026-04-18T10:58:25.288Z</time></trkpt><trkpt lat="43.4670625" lon="12.8764778"><ele>426.0</ele><time>2026-04-18T10:58:26.289Z</time></trkpt><trkpt lat="43.4670379" lon="12.8766003"><ele>426.0</ele><time>2026-04-18T10:58:27.288Z</time></trkpt><trkpt lat="43.467014" lon="12.8767232"><ele>426.0</ele><time>2026-04-18T10:58:28.289Z</time></trkpt><trkpt lat="43.4669945" lon="12.8768325"><ele>426.0</ele><time>2026-04-18T10:58:29.289Z</time></trkpt><trkpt lat="43.4669764" lon="12.8769274"><ele>426.0</ele><time>2026-04-18T10:58:30.289Z</time></trkpt><trkpt lat="43.4669554" lon="12.8770311"><ele>426.0</ele><time>2026-04-18T10:58:31.288Z</time></trkpt><trkpt lat="43.4669373" lon="12.8771414"><ele>426.4</ele><time>2026-04-18T10:58:32.288Z</time></trkpt><trkpt lat="43.4669299" lon="12.8772594"><ele>426.8</ele><time>2026-04-18T10:58:33.289Z</time></trkpt><trkpt lat="43.4669428" lon="12.8773824"><ele>427.19999999999993</ele><time>2026-04-18T10:58:34.289Z</time></trkpt><trkpt lat="43.4669847" lon="12.8775019"><ele>427.59999999999997</ele><time>2026-04-18T10:58:35.289Z</time></trkpt><trkpt lat="43.4670473" lon="12.8776161"><ele>428.0</ele><time>2026-04-18T10:58:36.288Z</time></trkpt><trkpt lat="43.4671129" lon="12.8777348"><ele>428.0</ele><time>2026-04-18T10:58:37.288Z</time></trkpt><trkpt lat="43.467167" lon="12.8778524"><ele>427.99999999999994</ele><time>2026-04-18T10:58:38.288Z</time></trkpt><trkpt lat="43.4672176" lon="12.8779633"><ele>427.99999999999994</ele><time>2026-04-18T10:58:39.288Z</time></trkpt><trkpt lat="43.4672684" lon="12.8780702"><ele>428.0</ele><time>2026-04-18T10:58:40.289Z</time></trkpt><trkpt lat="43.4673219" lon="12.8781687"><ele>428.0</ele><time>2026-04-18T10:58:41.289Z</time></trkpt><trkpt lat="43.4673751" lon="12.8782599"><ele>428.0</ele><time>2026-04-18T10:58:42.288Z</time></trkpt><trkpt lat="43.467446" lon="12.8783339"><ele>427.99999999999994</ele><time>2026-04-18T10:58:43.289Z</time></trkpt><trkpt lat="43.4675342" lon="12.8783994"><ele>427.99999999999994</ele><time>2026-04-18T10:58:44.288Z</time></trkpt><trkpt lat="43.4676253" lon="12.8784526"><ele>428.0</ele><time>2026-04-18T10:58:45.288Z</time></trkpt><trkpt lat="43.4677142" lon="12.8785028"><ele>428.0</ele><time>2026-04-18T10:58:46.288Z</time></trkpt><trkpt lat="43.4678127" lon="12.8785601"><ele>424.0</ele><time>2026-04-18T10:58:47.288Z</time></trkpt><trkpt lat="43.4679114" lon="12.8786156"><ele>419.99999999999994</ele><time>2026-04-18T10:58:48.288Z</time></trkpt><trkpt lat="43.4680066" lon="12.8786744"><ele>416.0</ele><time>2026-04-18T10:58:49.288Z</time></trkpt><trkpt lat="43.4680965" lon="12.878729"><ele>412.0</ele><time>2026-04-18T10:58:50.288Z</time></trkpt><trkpt lat="43.46818" lon="12.8787823"><ele>408.0</ele><time>2026-04-18T10:58:51.289Z</time></trkpt><trkpt lat="43.4682702" lon="12.8788342"><ele>408.0</ele><time>2026-04-18T10:58:52.289Z</time></trkpt><trkpt lat="43.4683714" lon="12.8788617"><ele>408.0</ele><time>2026-04-18T10:58:53.288Z</time></trkpt><trkpt lat="43.4684802" lon="12.8788716"><ele>408.0</ele><time>2026-04-18T10:58:54.288Z</time></trkpt><trkpt lat="43.4685906" lon="12.8788892"><ele>408.0</ele><time>2026-04-18T10:58:55.288Z</time></trkpt><trkpt lat="43.4686948" lon="12.8789314"><ele>408.0</ele><time>2026-04-18T10:58:56.288Z</time></trkpt><trkpt lat="43.4687881" lon="12.8789849"><ele>408.0</ele><time>2026-04-18T10:58:57.289Z</time></trkpt><trkpt lat="43.4688709" lon="12.8790524"><ele>408.0</ele><time>2026-04-18T10:58:58.289Z</time></trkpt><trkpt lat="43.4689367" lon="12.8791341"><ele>408.0</ele><time>2026-04-18T10:58:59.288Z</time></trkpt><trkpt lat="43.4689822" lon="12.8792451"><ele>408.0</ele><time>2026-04-18T10:59:00.289Z</time></trkpt><trkpt lat="43.4689998" lon="12.8793823"><ele>408.0</ele><time>2026-04-18T10:59:01.288Z</time></trkpt><trkpt lat="43.4689942" lon="12.8795468"><ele>408.0</ele><time>2026-04-18T10:59:02.289Z</time></trkpt><trkpt lat="43.4689772" lon="12.8797046"><ele>408.0</ele><time>2026-04-18T10:59:03.288Z</time></trkpt><trkpt lat="43.4689602" lon="12.8798421"><ele>408.0</ele><time>2026-04-18T10:59:04.289Z</time></trkpt><trkpt lat="43.4689315" lon="12.879977"><ele>408.0</ele><time>2026-04-18T10:59:05.288Z</time></trkpt><trkpt lat="43.4688686" lon="12.8801129"><ele>408.0</ele><time>2026-04-18T10:59:06.288Z</time></trkpt><trkpt lat="43.4687799" lon="12.8802432"><ele>405.75</ele><time>2026-04-18T10:59:07.289Z</time></trkpt><trkpt lat="43.4686787" lon="12.880364"><ele>403.5</ele><time>2026-04-18T10:59:08.288Z</time></trkpt><trkpt lat="43.4685774" lon="12.8804769"><ele>401.25</ele><time>2026-04-18T10:59:09.288Z</time></trkpt><trkpt lat="43.4684746" lon="12.8805884"><ele>399.0</ele><time>2026-04-18T10:59:10.288Z</time></trkpt><trkpt lat="43.4683666" lon="12.8806973"><ele>399.0</ele><time>2026-04-18T10:59:11.288Z</time></trkpt><trkpt lat="43.4682561" lon="12.8808068"><ele>399.0</ele><time>2026-04-18T10:59:12.288Z</time></trkpt><trkpt lat="43.4681467" lon="12.8809139"><ele>399.0</ele><time>2026-04-18T10:59:13.288Z</time></trkpt><trkpt lat="43.4680439" lon="12.8810186"><ele>399.0</ele><time>2026-04-18T10:59:14.288Z</time></trkpt><trkpt lat="43.4679479" lon="12.881127"><ele>398.6</ele><time>2026-04-18T10:59:15.289Z</time></trkpt><trkpt lat="43.4678579" lon="12.8812303"><ele>398.2</ele><time>2026-04-18T10:59:16.288Z</time></trkpt><trkpt lat="43.4677667" lon="12.8813217"><ele>397.8</ele><time>2026-04-18T10:59:17.289Z</time></trkpt><trkpt lat="43.4676769" lon="12.8814027"><ele>397.40000000000003</ele><time>2026-04-18T10:59:18.288Z</time></trkpt><trkpt lat="43.467579" lon="12.881455"><ele>397.0</ele><time>2026-04-18T10:59:19.288Z</time></trkpt><trkpt lat="43.4674665" lon="12.8814737"><ele>397.0</ele><time>2026-04-18T10:59:20.288Z</time></trkpt><trkpt lat="43.4673477" lon="12.8814638"><ele>397.0</ele><time>2026-04-18T10:59:21.288Z</time></trkpt><trkpt lat="43.4672392" lon="12.8814393"><ele>397.0</ele><time>2026-04-18T10:59:22.289Z</time></trkpt><trkpt lat="43.4671342" lon="12.8814275"><ele>397.0</ele><time>2026-04-18T10:59:23.288Z</time></trkpt><trkpt lat="43.4670245" lon="12.8814282"><ele>397.0</ele><time>2026-04-18T10:59:24.289Z</time></trkpt><trkpt lat="43.4669242" lon="12.8814603"><ele>396.0</ele><time>2026-04-18T10:59:25.288Z</time></trkpt><trkpt lat="43.4668319" lon="12.8815256"><ele>395.0</ele><time>2026-04-18T10:59:26.288Z</time></trkpt><trkpt lat="43.4667497" lon="12.8816191"><ele>394.0</ele><time>2026-04-18T10:59:27.288Z</time></trkpt><trkpt lat="43.4666831" lon="12.8817478"><ele>393.0</ele><time>2026-04-18T10:59:28.288Z</time></trkpt><trkpt lat="43.4666253" lon="12.881884"><ele>392.0</ele><time>2026-04-18T10:59:29.288Z</time></trkpt><trkpt lat="43.4665579" lon="12.8820032"><ele>392.8</ele><time>2026-04-18T10:59:30.289Z</time></trkpt><trkpt lat="43.4664734" lon="12.8820873"><ele>393.6</ele><time>2026-04-18T10:59:31.289Z</time></trkpt><trkpt lat="43.4663734" lon="12.8821389"><ele>394.40000000000003</ele><time>2026-04-18T10:59:32.288Z</time></trkpt><trkpt lat="43.4662611" lon="12.8821519"><ele>395.20000000000005</ele><time>2026-04-18T10:59:33.289Z</time></trkpt><trkpt lat="43.4661463" lon="12.8821474"><ele>396.0</ele><time>2026-04-18T10:59:34.289Z</time></trkpt><trkpt lat="43.4660256" lon="12.8821565"><ele>396.0</ele><time>2026-04-18T10:59:35.288Z</time></trkpt><trkpt lat="43.4658933" lon="12.8821765"><ele>396.0</ele><time>2026-04-18T10:59:36.289Z</time></trkpt><trkpt lat="43.4657669" lon="12.8821979"><ele>396.0</ele><time>2026-04-18T10:59:37.289Z</time></trkpt><trkpt lat="43.4656508" lon="12.8822194"><ele>396.0</ele><time>2026-04-18T10:59:38.288Z</time></trkpt><trkpt lat="43.4655492" lon="12.882248"><ele>396.0</ele><time>2026-04-18T10:59:39.288Z</time></trkpt><trkpt lat="43.4654539" lon="12.8823015"><ele>396.0</ele><time>2026-04-18T10:59:40.288Z</time></trkpt><trkpt lat="43.4653492" lon="12.8823893"><ele>396.0</ele><time>2026-04-18T10:59:41.288Z</time></trkpt><trkpt lat="43.4652406" lon="12.8825065"><ele>396.0</ele><time>2026-04-18T10:59:42.289Z</time></trkpt><trkpt lat="43.4651354" lon="12.8826294"><ele>396.5</ele><time>2026-04-18T10:59:43.288Z</time></trkpt><trkpt lat="43.465032" lon="12.882734"><ele>397.0</ele><time>2026-04-18T10:59:44.289Z</time></trkpt><trkpt lat="43.4649235" lon="12.8828149"><ele>397.5</ele><time>2026-04-18T10:59:45.288Z</time></trkpt><trkpt lat="43.4648046" lon="12.8828772"><ele>398.0</ele><time>2026-04-18T10:59:46.289Z</time></trkpt><trkpt lat="43.4646887" lon="12.8829195"><ele>395.59999999999997</ele><time>2026-04-18T10:59:47.288Z</time></trkpt><trkpt lat="43.4645807" lon="12.8829625"><ele>393.2</ele><time>2026-04-18T10:59:48.288Z</time></trkpt><trkpt lat="43.4644893" lon="12.8830176"><ele>390.8</ele><time>2026-04-18T10:59:49.288Z</time></trkpt><trkpt lat="43.4644121" lon="12.8831008"><ele>388.4</ele><time>2026-04-18T10:59:50.288Z</time></trkpt><trkpt lat="43.4643519" lon="12.8831982"><ele>386.0</ele><time>2026-04-18T10:59:51.288Z</time></trkpt><trkpt lat="43.464317" lon="12.8832956"><ele>386.0</ele><time>2026-04-18T10:59:52.288Z</time></trkpt><trkpt lat="43.4643043" lon="12.8834082"><ele>386.0</ele><time>2026-04-18T10:59:53.288Z</time></trkpt><trkpt lat="43.4643231" lon="12.8835394"><ele>386.0</ele><time>2026-04-18T10:59:54.289Z</time></trkpt><trkpt lat="43.4643737" lon="12.8836833"><ele>386.0</ele><time>2026-04-18T10:59:55.288Z</time></trkpt><trkpt lat="43.4644365" lon="12.8838471"><ele>386.0</ele><time>2026-04-18T10:59:56.288Z</time></trkpt><trkpt lat="43.4644982" lon="12.884007"><ele>385.0</ele><time>2026-04-18T10:59:57.288Z</time></trkpt><trkpt lat="43.4645592" lon="12.8841542"><ele>384.0</ele><time>2026-04-18T10:59:58.289Z</time></trkpt><trkpt lat="43.4646258" lon="12.8842969"><ele>383.0</ele><time>2026-04-18T10:59:59.289Z</time></trkpt><trkpt lat="43.4647037" lon="12.8844274"><ele>382.0</ele><time>2026-04-18T11:00:00.289Z</time></trkpt><trkpt lat="43.464789" lon="12.8845524"><ele>385.75</ele><time>2026-04-18T11:00:01.288Z</time></trkpt><trkpt lat="43.4648773" lon="12.8846781"><ele>389.5</ele><time>2026-04-18T11:00:02.288Z</time></trkpt><trkpt lat="43.4649655" lon="12.8847971"><ele>393.25</ele><time>2026-04-18T11:00:03.288Z</time></trkpt><trkpt lat="43.4650555" lon="12.8849185"><ele>397.0</ele><time>2026-04-18T11:00:04.288Z</time></trkpt><trkpt lat="43.4651402" lon="12.8850461"><ele>395.20000000000005</ele><time>2026-04-18T11:00:05.289Z</time></trkpt><trkpt lat="43.4652052" lon="12.8851685"><ele>393.4</ele><time>2026-04-18T11:00:06.289Z</time></trkpt><trkpt lat="43.465254" lon="12.8852812"><ele>391.6</ele><time>2026-04-18T11:00:07.289Z</time></trkpt><trkpt lat="43.4653008" lon="12.8853869"><ele>389.79999999999995</ele><time>2026-04-18T11:00:08.289Z</time></trkpt><trkpt lat="43.4653569" lon="12.8854699"><ele>388.0</ele><time>2026-04-18T11:00:09.289Z</time></trkpt><trkpt lat="43.4654218" lon="12.8855322"><ele>388.00000000000006</ele><time>2026-04-18T11:00:10.288Z</time></trkpt><trkpt lat="43.4654711" lon="12.8856024"><ele>388.0</ele><time>2026-04-18T11:00:11.288Z</time></trkpt><trkpt lat="43.4654971" lon="12.8856928"><ele>388.0</ele><time>2026-04-18T11:00:12.288Z</time></trkpt><trkpt lat="43.4654888" lon="12.8857894"><ele>388.0</ele><time>2026-04-18T11:00:13.289Z</time></trkpt><trkpt lat="43.4654417" lon="12.8858869"><ele>388.00000000000006</ele><time>2026-04-18T11:00:14.288Z</time></trkpt><trkpt lat="43.465364" lon="12.8859815"><ele>388.0</ele><time>2026-04-18T11:00:15.289Z</time></trkpt><trkpt lat="43.4652848" lon="12.8860739"><ele>387.79999999999995</ele><time>2026-04-18T11:00:16.289Z</time></trkpt><trkpt lat="43.4652275" lon="12.8861641"><ele>387.6</ele><time>2026-04-18T11:00:17.288Z</time></trkpt><trkpt lat="43.4651836" lon="12.8862743"><ele>387.4</ele><time>2026-04-18T11:00:18.288Z</time></trkpt><trkpt lat="43.4651565" lon="12.8864123"><ele>387.20000000000005</ele><time>2026-04-18T11:00:19.288Z</time></trkpt><trkpt lat="43.4651496" lon="12.8865595"><ele>387.0</ele><time>2026-04-18T11:00:20.288Z</time></trkpt><trkpt lat="43.4651638" lon="12.8867015"><ele>388.0</ele><time>2026-04-18T11:00:21.288Z</time></trkpt><trkpt lat="43.4651902" lon="12.8868343"><ele>389.0</ele><time>2026-04-18T11:00:22.288Z</time></trkpt><trkpt lat="43.465234" lon="12.8869621"><ele>390.0</ele><time>2026-04-18T11:00:23.289Z</time></trkpt><trkpt lat="43.4652957" lon="12.8870858"><ele>391.0</ele><time>2026-04-18T11:00:24.288Z</time></trkpt><trkpt lat="43.4653597" lon="12.8871957"><ele>392.0</ele><time>2026-04-18T11:00:25.288Z</time></trkpt><trkpt lat="43.4654111" lon="12.8872807"><ele>393.99999999999994</ele><time>2026-04-18T11:00:26.288Z</time></trkpt><trkpt lat="43.4654485" lon="12.8873598"><ele>396.0</ele><time>2026-04-18T11:00:27.289Z</time></trkpt><trkpt lat="43.4654691" lon="12.8874471"><ele>398.0</ele><time>2026-04-18T11:00:28.289Z</time></trkpt><trkpt lat="43.465463" lon="12.8875409"><ele>400.0</ele><time>2026-04-18T11:00:29.288Z</time></trkpt><trkpt lat="43.4654267" lon="12.8876218"><ele>401.99999999999994</ele><time>2026-04-18T11:00:30.288Z</time></trkpt><trkpt lat="43.4653496" lon="12.8876809"><ele>404.0</ele><time>2026-04-18T11:00:31.288Z</time></trkpt><trkpt lat="43.4652449" lon="12.8877168"><ele>405.0</ele><time>2026-04-18T11:00:32.289Z</time></trkpt><trkpt lat="43.465122" lon="12.8877409"><ele>406.0</ele><time>2026-04-18T11:00:33.289Z</time></trkpt><trkpt lat="43.4649839" lon="12.8877742"><ele>407.0</ele><time>2026-04-18T11:00:34.289Z</time></trkpt><trkpt lat="43.4648482" lon="12.8878199"><ele>408.0</ele><time>2026-04-18T11:00:35.289Z</time></trkpt><trkpt lat="43.4647257" lon="12.8878579"><ele>408.0</ele><time>2026-04-18T11:00:36.288Z</time></trkpt><trkpt lat="43.4646181" lon="12.8879039"><ele>408.0</ele><time>2026-04-18T11:00:37.289Z</time></trkpt><trkpt lat="43.4645019" lon="12.8879606"><ele>408.0</ele><time>2026-04-18T11:00:38.289Z</time></trkpt><trkpt lat="43.4643884" lon="12.8880173"><ele>408.0</ele><time>2026-04-18T11:00:39.288Z</time></trkpt><trkpt lat="43.4642967" lon="12.8880827"><ele>406.5</ele><time>2026-04-18T11:00:40.289Z</time></trkpt><trkpt lat="43.4642161" lon="12.8881687"><ele>405.0</ele><time>2026-04-18T11:00:41.289Z</time></trkpt><trkpt lat="43.4641377" lon="12.8882766"><ele>403.5</ele><time>2026-04-18T11:00:42.288Z</time></trkpt><trkpt lat="43.4640527" lon="12.8884112"><ele>402.0</ele><time>2026-04-18T11:00:43.289Z</time></trkpt><trkpt lat="43.4639625" lon="12.8885479"><ele>404.0</ele><time>2026-04-18T11:00:44.288Z</time></trkpt><trkpt lat="43.4638774" lon="12.8886826"><ele>406.0</ele><time>2026-04-18T11:00:45.288Z</time></trkpt><trkpt lat="43.4637941" lon="12.8888113"><ele>408.0</ele><time>2026-04-18T11:00:46.289Z</time></trkpt><trkpt lat="43.4637115" lon="12.8889394"><ele>410.0</ele><time>2026-04-18T11:00:47.288Z</time></trkpt><trkpt lat="43.4636291" lon="12.8890701"><ele>410.0</ele><time>2026-04-18T11:00:48.289Z</time></trkpt><trkpt lat="43.4635486" lon="12.8891971"><ele>410.0</ele><time>2026-04-18T11:00:49.289Z</time></trkpt><trkpt lat="43.4634719" lon="12.8893242"><ele>410.0</ele><time>2026-04-18T11:00:50.288Z</time></trkpt><trkpt lat="43.4633939" lon="12.8894499"><ele>410.0</ele><time>2026-04-18T11:00:51.289Z</time></trkpt><trkpt lat="43.4633128" lon="12.8895665"><ele>412.6</ele><time>2026-04-18T11:00:52.289Z</time></trkpt><trkpt lat="43.463236" lon="12.8896808"><ele>415.2</ele><time>2026-04-18T11:00:53.289Z</time></trkpt><trkpt lat="43.4631594" lon="12.8897863"><ele>417.79999999999995</ele><time>2026-04-18T11:00:54.288Z</time></trkpt><trkpt lat="43.4630753" lon="12.8898849"><ele>420.4</ele><time>2026-04-18T11:00:55.288Z</time></trkpt><trkpt lat="43.4629761" lon="12.8899593"><ele>423.0</ele><time>2026-04-18T11:00:56.289Z</time></trkpt><trkpt lat="43.4628587" lon="12.8900073"><ele>423.2</ele><time>2026-04-18T11:00:57.288Z</time></trkpt><trkpt lat="43.4627392" lon="12.8900105"><ele>423.4</ele><time>2026-04-18T11:00:58.288Z</time></trkpt><trkpt lat="43.4626272" lon="12.8899758"><ele>423.59999999999997</ele><time>2026-04-18T11:00:59.289Z</time></trkpt><trkpt lat="43.4625237" lon="12.8899418"><ele>423.79999999999995</ele><time>2026-04-18T11:01:00.288Z</time></trkpt><trkpt lat="43.4624273" lon="12.8899113"><ele>424.0</ele><time>2026-04-18T11:01:01.289Z</time></trkpt><trkpt lat="43.4623265" lon="12.8898789"><ele>424.0</ele><time>2026-04-18T11:01:02.289Z</time></trkpt><trkpt lat="43.4622177" lon="12.8898469"><ele>424.0</ele><time>2026-04-18T11:01:03.288Z</time></trkpt><trkpt lat="43.4621072" lon="12.8898233"><ele>424.0</ele><time>2026-04-18T11:01:04.289Z</time></trkpt><trkpt lat="43.462" lon="12.8898135"><ele>424.0</ele><time>2026-04-18T11:01:05.288Z</time></trkpt><trkpt lat="43.4618965" lon="12.889831"><ele>424.0</ele><time>2026-04-18T11:01:06.288Z</time></trkpt><trkpt lat="43.4618062" lon="12.889867"><ele>422.79999999999995</ele><time>2026-04-18T11:01:07.288Z</time></trkpt><trkpt lat="43.4617246" lon="12.8899066"><ele>421.59999999999997</ele><time>2026-04-18T11:01:08.289Z</time></trkpt><trkpt lat="43.4616465" lon="12.8899556"><ele>420.4</ele><time>2026-04-18T11:01:09.289Z</time></trkpt><trkpt lat="43.4615747" lon="12.8900317"><ele>419.2</ele><time>2026-04-18T11:01:10.288Z</time></trkpt><trkpt lat="43.4615074" lon="12.8901475"><ele>418.0</ele><time>2026-04-18T11:01:11.288Z</time></trkpt><trkpt lat="43.4614472" lon="12.890299"><ele>416.75</ele><time>2026-04-18T11:01:12.288Z</time></trkpt><trkpt lat="43.4613914" lon="12.8904547"><ele>415.5</ele><time>2026-04-18T11:01:13.288Z</time></trkpt><trkpt lat="43.4613315" lon="12.8905984"><ele>414.25</ele><time>2026-04-18T11:01:14.288Z</time></trkpt><trkpt lat="43.4612714" lon="12.8907324"><ele>413.0</ele><time>2026-04-18T11:01:15.288Z</time></trkpt><trkpt lat="43.4612124" lon="12.8908613"><ele>411.59999999999997</ele><time>2026-04-18T11:01:16.288Z</time></trkpt><trkpt lat="43.4611523" lon="12.8909841"><ele>410.2</ele><time>2026-04-18T11:01:17.288Z</time></trkpt><trkpt lat="43.4610919" lon="12.8911115"><ele>408.8</ele><time>2026-04-18T11:01:18.288Z</time></trkpt><trkpt lat="43.4610312" lon="12.8912439"><ele>407.4</ele><time>2026-04-18T11:01:19.289Z</time></trkpt><trkpt lat="43.460976" lon="12.8913799"><ele>406.0</ele><time>2026-04-18T11:01:20.288Z</time></trkpt><trkpt lat="43.4609331" lon="12.8915343"><ele>406.0</ele><time>2026-04-18T11:01:21.288Z</time></trkpt><trkpt lat="43.460896" lon="12.8916915"><ele>406.0</ele><time>2026-04-18T11:01:22.288Z</time></trkpt><trkpt lat="43.4608587" lon="12.8918407"><ele>406.0</ele><time>2026-04-18T11:01:23.288Z</time></trkpt><trkpt lat="43.4608242" lon="12.8919778"><ele>406.0</ele><time>2026-04-18T11:01:24.288Z</time></trkpt><trkpt lat="43.4607834" lon="12.8920959"><ele>406.0</ele><time>2026-04-18T11:01:25.288Z</time></trkpt><trkpt lat="43.4607262" lon="12.8921851"><ele>403.8</ele><time>2026-04-18T11:01:26.289Z</time></trkpt><trkpt lat="43.4606409" lon="12.8922491"><ele>401.6</ele><time>2026-04-18T11:01:27.288Z</time></trkpt><trkpt lat="43.4605403" lon="12.8922968"><ele>399.4</ele><time>2026-04-18T11:01:28.288Z</time></trkpt><trkpt lat="43.4604329" lon="12.8923308"><ele>397.2</ele><time>2026-04-18T11:01:29.289Z</time></trkpt><trkpt lat="43.4603327" lon="12.8923514"><ele>395.0</ele><time>2026-04-18T11:01:30.288Z</time></trkpt><trkpt lat="43.4602439" lon="12.8923706"><ele>394.6</ele><time>2026-04-18T11:01:31.289Z</time></trkpt><trkpt lat="43.4601567" lon="12.892372"><ele>394.2</ele><time>2026-04-18T11:01:32.289Z</time></trkpt><trkpt lat="43.4600661" lon="12.8923561"><ele>393.79999999999995</ele><time>2026-04-18T11:01:33.288Z</time></trkpt><trkpt lat="43.4599665" lon="12.8923199"><ele>393.4</ele><time>2026-04-18T11:01:34.288Z</time></trkpt><trkpt lat="43.4598607" lon="12.8922523"><ele>393.0</ele><time>2026-04-18T11:01:35.288Z</time></trkpt><trkpt lat="43.4597602" lon="12.8921777"><ele>393.0</ele><time>2026-04-18T11:01:36.288Z</time></trkpt><trkpt lat="43.4596656" lon="12.8921047"><ele>393.0</ele><time>2026-04-18T11:01:37.289Z</time></trkpt><trkpt lat="43.4595614" lon="12.8920386"><ele>393.0</ele><time>2026-04-18T11:01:38.288Z</time></trkpt><trkpt lat="43.45946" lon="12.8919738"><ele>393.0</ele><time>2026-04-18T11:01:39.288Z</time></trkpt><trkpt lat="43.459363" lon="12.8919163"><ele>393.0</ele><time>2026-04-18T11:01:40.288Z</time></trkpt><trkpt lat="43.459271" lon="12.8918595"><ele>389.79999999999995</ele><time>2026-04-18T11:01:41.288Z</time></trkpt><trkpt lat="43.459178" lon="12.8918261"><ele>386.6</ele><time>2026-04-18T11:01:42.289Z</time></trkpt><trkpt lat="43.4590757" lon="12.8918226"><ele>383.4</ele><time>2026-04-18T11:01:43.289Z</time></trkpt><trkpt lat="43.4589698" lon="12.8918596"><ele>380.20000000000005</ele><time>2026-04-18T11:01:44.288Z</time></trkpt><trkpt lat="43.4588714" lon="12.8919355"><ele>377.0</ele><time>2026-04-18T11:01:45.288Z</time></trkpt><trkpt lat="43.4587739" lon="12.8920305"><ele>377.0</ele><time>2026-04-18T11:01:46.288Z</time></trkpt><trkpt lat="43.4586733" lon="12.8921246"><ele>377.0</ele><time>2026-04-18T11:01:47.288Z</time></trkpt><trkpt lat="43.4585689" lon="12.892218"><ele>377.0</ele><time>2026-04-18T11:01:48.289Z</time></trkpt><trkpt lat="43.4584588" lon="12.8923145"><ele>377.0</ele><time>2026-04-18T11:01:49.288Z</time></trkpt><trkpt lat="43.4583436" lon="12.8924139"><ele>377.0</ele><time>2026-04-18T11:01:50.288Z</time></trkpt><trkpt lat="43.4582261" lon="12.8925165"><ele>377.0</ele><time>2026-04-18T11:01:51.288Z</time></trkpt><trkpt lat="43.458107" lon="12.8926194"><ele>377.0</ele><time>2026-04-18T11:01:52.288Z</time></trkpt><trkpt lat="43.4579894" lon="12.8927159"><ele>377.0</ele><time>2026-04-18T11:01:53.289Z</time></trkpt><trkpt lat="43.4578769" lon="12.89281"><ele>375.0</ele><time>2026-04-18T11:01:54.288Z</time></trkpt><trkpt lat="43.4577739" lon="12.8929095"><ele>373.0</ele><time>2026-04-18T11:01:55.288Z</time></trkpt><trkpt lat="43.4576756" lon="12.8930025"><ele>371.0</ele><time>2026-04-18T11:01:56.288Z</time></trkpt><trkpt lat="43.457582" lon="12.893088"><ele>369.0</ele><time>2026-04-18T11:01:57.288Z</time></trkpt><trkpt lat="43.4574849" lon="12.8931806"><ele>369.0</ele><time>2026-04-18T11:01:58.289Z</time></trkpt><trkpt lat="43.4573754" lon="12.8932656"><ele>369.0</ele><time>2026-04-18T11:01:59.288Z</time></trkpt><trkpt lat="43.4572538" lon="12.8933311"><ele>369.0</ele><time>2026-04-18T11:02:00.288Z</time></trkpt><trkpt lat="43.4571292" lon="12.89338"><ele>369.0</ele><time>2026-04-18T11:02:01.289Z</time></trkpt><trkpt lat="43.4570012" lon="12.8934141"><ele>366.0</ele><time>2026-04-18T11:02:02.288Z</time></trkpt><trkpt lat="43.4568757" lon="12.8934431"><ele>363.0</ele><time>2026-04-18T11:02:03.288Z</time></trkpt><trkpt lat="43.4567543" lon="12.8934723"><ele>360.0</ele><time>2026-04-18T11:02:04.289Z</time></trkpt><trkpt lat="43.4566348" lon="12.8935057"><ele>357.0</ele><time>2026-04-18T11:02:05.289Z</time></trkpt><trkpt lat="43.4565173" lon="12.8935342"><ele>357.0</ele><time>2026-04-18T11:02:06.288Z</time></trkpt><trkpt lat="43.4564043" lon="12.8935513"><ele>357.0</ele><time>2026-04-18T11:02:07.288Z</time></trkpt><trkpt lat="43.4562937" lon="12.8935553"><ele>357.0</ele><time>2026-04-18T11:02:08.289Z</time></trkpt><trkpt lat="43.4561878" lon="12.8935366"><ele>357.0</ele><time>2026-04-18T11:02:09.288Z</time></trkpt><trkpt lat="43.4560883" lon="12.893505"><ele>357.0</ele><time>2026-04-18T11:02:10.288Z</time></trkpt><trkpt lat="43.4559956" lon="12.893471"><ele>356.20000000000005</ele><time>2026-04-18T11:02:11.288Z</time></trkpt><trkpt lat="43.4559144" lon="12.8934391"><ele>355.4</ele><time>2026-04-18T11:02:12.288Z</time></trkpt><trkpt lat="43.4558413" lon="12.8934188"><ele>354.6</ele><time>2026-04-18T11:02:13.288Z</time></trkpt><trkpt lat="43.4557729" lon="12.8934191"><ele>353.79999999999995</ele><time>2026-04-18T11:02:14.289Z</time></trkpt><trkpt lat="43.4557014" lon="12.8935536"><ele>353.0</ele><time>2026-04-18T11:02:16.288Z</time></trkpt><trkpt lat="43.455737" lon="12.8937088"><ele>353.0</ele><time>2026-04-18T11:02:18.289Z</time></trkpt><trkpt lat="43.4558011" lon="12.8937722"><ele>353.0</ele><time>2026-04-18T11:02:19.289Z</time></trkpt><trkpt lat="43.4558748" lon="12.89383"><ele>353.0</ele><time>2026-04-18T11:02:20.288Z</time></trkpt><trkpt lat="43.4559502" lon="12.8939108"><ele>353.0</ele><time>2026-04-18T11:02:21.288Z</time></trkpt><trkpt lat="43.4560225" lon="12.8940121"><ele>353.0</ele><time>2026-04-18T11:02:22.288Z</time></trkpt><trkpt lat="43.4560886" lon="12.8941367"><ele>351.79999999999995</ele><time>2026-04-18T11:02:23.288Z</time></trkpt><trkpt lat="43.4561464" lon="12.8942728"><ele>350.6</ele><time>2026-04-18T11:02:24.288Z</time></trkpt><trkpt lat="43.456199" lon="12.8944015"><ele>349.4</ele><time>2026-04-18T11:02:25.289Z</time></trkpt><trkpt lat="43.4562466" lon="12.894532"><ele>348.20000000000005</ele><time>2026-04-18T11:02:26.288Z</time></trkpt><trkpt lat="43.4562929" lon="12.8946722"><ele>347.0</ele><time>2026-04-18T11:02:27.289Z</time></trkpt><trkpt lat="43.4563384" lon="12.8948098"><ele>347.0</ele><time>2026-04-18T11:02:28.288Z</time></trkpt><trkpt lat="43.4563889" lon="12.8949405"><ele>347.0</ele><time>2026-04-18T11:02:29.289Z</time></trkpt><trkpt lat="43.4564365" lon="12.8950672"><ele>347.0</ele><time>2026-04-18T11:02:30.288Z</time></trkpt><trkpt lat="43.4564821" lon="12.89518"><ele>347.0</ele><time>2026-04-18T11:02:31.289Z</time></trkpt><trkpt lat="43.4565337" lon="12.8952808"><ele>347.0</ele><time>2026-04-18T11:02:32.288Z</time></trkpt><trkpt lat="43.4565895" lon="12.895365"><ele>345.42857142857144</ele><time>2026-04-18T11:02:33.288Z</time></trkpt><trkpt lat="43.4566543" lon="12.8954301"><ele>343.85714285714283</ele><time>2026-04-18T11:02:34.288Z</time></trkpt><trkpt lat="43.4567247" lon="12.8954701"><ele>342.2857142857143</ele><time>2026-04-18T11:02:35.289Z</time></trkpt><trkpt lat="43.456798" lon="12.8954783"><ele>340.7142857142857</ele><time>2026-04-18T11:02:36.289Z</time></trkpt><trkpt lat="43.4568741" lon="12.8954719"><ele>339.1428571428571</ele><time>2026-04-18T11:02:37.289Z</time></trkpt><trkpt lat="43.4569416" lon="12.8954707"><ele>337.57142857142856</ele><time>2026-04-18T11:02:38.288Z</time></trkpt><trkpt lat="43.4570049" lon="12.8954945"><ele>336.0</ele><time>2026-04-18T11:02:39.288Z</time></trkpt><trkpt lat="43.4570537" lon="12.8955552"><ele>336.0</ele><time>2026-04-18T11:02:40.288Z</time></trkpt><trkpt lat="43.4570755" lon="12.8956428"><ele>336.0</ele><time>2026-04-18T11:02:41.288Z</time></trkpt><trkpt lat="43.457065" lon="12.8957497"><ele>336.0</ele><time>2026-04-18T11:02:42.289Z</time></trkpt><trkpt lat="43.4570284" lon="12.8958658"><ele>336.0</ele><time>2026-04-18T11:02:43.289Z</time></trkpt><trkpt lat="43.456983" lon="12.8959762"><ele>336.0</ele><time>2026-04-18T11:02:44.288Z</time></trkpt><trkpt lat="43.4569465" lon="12.8960842"><ele>336.0</ele><time>2026-04-18T11:02:45.288Z</time></trkpt><trkpt lat="43.4569258" lon="12.8961996"><ele>334.4</ele><time>2026-04-18T11:02:46.288Z</time></trkpt><trkpt lat="43.4569246" lon="12.8963178"><ele>332.8</ele><time>2026-04-18T11:02:47.288Z</time></trkpt><trkpt lat="43.4569465" lon="12.8964528"><ele>331.2</ele><time>2026-04-18T11:02:48.288Z</time></trkpt><trkpt lat="43.4569929" lon="12.8965853"><ele>329.59999999999997</ele><time>2026-04-18T11:02:49.288Z</time></trkpt><trkpt lat="43.4570548" lon="12.8967039"><ele>328.0</ele><time>2026-04-18T11:02:50.288Z</time></trkpt><trkpt lat="43.4571251" lon="12.8968167"><ele>327.2</ele><time>2026-04-18T11:02:51.288Z</time></trkpt><trkpt lat="43.4571969" lon="12.8969272"><ele>326.4</ele><time>2026-04-18T11:02:52.288Z</time></trkpt><trkpt lat="43.457266" lon="12.8970441"><ele>325.59999999999997</ele><time>2026-04-18T11:02:53.289Z</time></trkpt><trkpt lat="43.4573208" lon="12.8971626"><ele>324.79999999999995</ele><time>2026-04-18T11:02:54.288Z</time></trkpt><trkpt lat="43.4573516" lon="12.8972966"><ele>324.0</ele><time>2026-04-18T11:02:55.288Z</time></trkpt><trkpt lat="43.4573784" lon="12.897431"><ele>324.0</ele><time>2026-04-18T11:02:56.288Z</time></trkpt><trkpt lat="43.4574013" lon="12.8975668"><ele>324.0</ele><time>2026-04-18T11:02:57.288Z</time></trkpt><trkpt lat="43.4573159" lon="12.8977112"><ele>324.0</ele><time>2026-04-18T11:02:58.288Z</time></trkpt><trkpt lat="43.4572199" lon="12.8978432"><ele>324.0</ele><time>2026-04-18T11:02:59.288Z</time></trkpt><trkpt lat="43.457128" lon="12.8979692"><ele>324.0</ele><time>2026-04-18T11:03:00.288Z</time></trkpt><trkpt lat="43.4570301" lon="12.8980867"><ele>324.0</ele><time>2026-04-18T11:03:01.289Z</time></trkpt><trkpt lat="43.4569304" lon="12.8981898"><ele>324.0</ele><time>2026-04-18T11:03:02.289Z</time></trkpt><trkpt lat="43.4568208" lon="12.8982754"><ele>324.0</ele><time>2026-04-18T11:03:03.288Z</time></trkpt><trkpt lat="43.4566853" lon="12.8983422"><ele>324.0</ele><time>2026-04-18T11:03:04.288Z</time></trkpt><trkpt lat="43.4565498" lon="12.8983973"><ele>324.0</ele><time>2026-04-18T11:03:05.289Z</time></trkpt><trkpt lat="43.4564324" lon="12.8984524"><ele>324.0</ele><time>2026-04-18T11:03:06.289Z</time></trkpt><trkpt lat="43.4563266" lon="12.898523"><ele>324.0</ele><time>2026-04-18T11:03:07.288Z</time></trkpt><trkpt lat="43.4562264" lon="12.898614"><ele>325.79999999999995</ele><time>2026-04-18T11:03:08.289Z</time></trkpt><trkpt lat="43.456127" lon="12.8987069"><ele>327.59999999999997</ele><time>2026-04-18T11:03:09.289Z</time></trkpt><trkpt lat="43.456042" lon="12.8987982"><ele>329.4</ele><time>2026-04-18T11:03:10.288Z</time></trkpt><trkpt lat="43.4559686" lon="12.8988749"><ele>331.2</ele><time>2026-04-18T11:03:11.288Z</time></trkpt><trkpt lat="43.4558927" lon="12.8989435"><ele>333.0</ele><time>2026-04-18T11:03:12.289Z</time></trkpt><trkpt lat="43.4558188" lon="12.8990066"><ele>333.0</ele><time>2026-04-18T11:03:13.288Z</time></trkpt><trkpt lat="43.4557505" lon="12.8990683"><ele>333.0</ele><time>2026-04-18T11:03:14.289Z</time></trkpt><trkpt lat="43.4556814" lon="12.899122"><ele>333.0</ele><time>2026-04-18T11:03:15.289Z</time></trkpt><trkpt lat="43.4556189" lon="12.8991673"><ele>333.0</ele><time>2026-04-18T11:03:16.289Z</time></trkpt><trkpt lat="43.4555128" lon="12.899229"><ele>333.0</ele><time>2026-04-18T11:03:18.288Z</time></trkpt><trkpt lat="43.455488" lon="12.8993206"><ele>333.0</ele><time>2026-04-18T11:03:21.288Z</time></trkpt><trkpt lat="43.4555832" lon="12.8992992"><ele>333.3333333333333</ele><time>2026-04-18T11:03:23.289Z</time></trkpt><trkpt lat="43.455691" lon="12.8992529"><ele>333.6666666666667</ele><time>2026-04-18T11:03:25.289Z</time></trkpt><trkpt lat="43.4557591" lon="12.8992683"><ele>334.0</ele><time>2026-04-18T11:03:26.288Z</time></trkpt><trkpt lat="43.455834" lon="12.8993154"><ele>334.33333333333337</ele><time>2026-04-18T11:03:27.288Z</time></trkpt><trkpt lat="43.4559062" lon="12.8993849"><ele>334.6666666666667</ele><time>2026-04-18T11:03:28.288Z</time></trkpt><trkpt lat="43.4559742" lon="12.899454"><ele>335.0</ele><time>2026-04-18T11:03:29.288Z</time></trkpt><trkpt lat="43.456037" lon="12.8995185"><ele>335.0</ele><time>2026-04-18T11:03:30.289Z</time></trkpt><trkpt lat="43.4561093" lon="12.8995653"><ele>335.0</ele><time>2026-04-18T11:03:31.288Z</time></trkpt><trkpt lat="43.4561875" lon="12.8995895"><ele>335.0</ele><time>2026-04-18T11:03:32.288Z</time></trkpt><trkpt lat="43.456266" lon="12.8995907"><ele>335.0</ele><time>2026-04-18T11:03:33.289Z</time></trkpt><trkpt lat="43.4563528" lon="12.8995704"><ele>335.0</ele><time>2026-04-18T11:03:34.288Z</time></trkpt><trkpt lat="43.4564461" lon="12.8995602"><ele>335.0</ele><time>2026-04-18T11:03:35.288Z</time></trkpt><trkpt lat="43.4565482" lon="12.8995751"><ele>337.6</ele><time>2026-04-18T11:03:36.289Z</time></trkpt><trkpt lat="43.4566468" lon="12.8996165"><ele>340.2</ele><time>2026-04-18T11:03:37.289Z</time></trkpt><trkpt lat="43.4567395" lon="12.8996812"><ele>342.79999999999995</ele><time>2026-04-18T11:03:38.289Z</time></trkpt><trkpt lat="43.4568249" lon="12.8997515"><ele>345.4</ele><time>2026-04-18T11:03:39.289Z</time></trkpt><trkpt lat="43.4569021" lon="12.899826"><ele>348.0</ele><time>2026-04-18T11:03:40.288Z</time></trkpt><trkpt lat="43.4569681" lon="12.899919"><ele>348.0</ele><time>2026-04-18T11:03:41.288Z</time></trkpt><trkpt lat="43.457019" lon="12.9000323"><ele>348.0</ele><time>2026-04-18T11:03:42.288Z</time></trkpt><trkpt lat="43.4570511" lon="12.9001591"><ele>348.0</ele><time>2026-04-18T11:03:43.289Z</time></trkpt><trkpt lat="43.457078" lon="12.9002778"><ele>348.0</ele><time>2026-04-18T11:03:44.288Z</time></trkpt><trkpt lat="43.4571087" lon="12.9003766"><ele>348.0</ele><time>2026-04-18T11:03:45.289Z</time></trkpt><trkpt lat="43.4571453" lon="12.9004664"><ele>348.0</ele><time>2026-04-18T11:03:46.288Z</time></trkpt><trkpt lat="43.4572023" lon="12.900508"><ele>351.2</ele><time>2026-04-18T11:03:47.288Z</time></trkpt><trkpt lat="43.4572838" lon="12.9005465"><ele>354.4</ele><time>2026-04-18T11:03:49.288Z</time></trkpt><trkpt lat="43.4572856" lon="12.9006813"><ele>357.59999999999997</ele><time>2026-04-18T11:03:51.289Z</time></trkpt><trkpt lat="43.4572562" lon="12.9008546"><ele>360.79999999999995</ele><time>2026-04-18T11:03:53.288Z</time></trkpt><trkpt lat="43.4571971" lon="12.9009845"><ele>364.0</ele><time>2026-04-18T11:03:55.288Z</time></trkpt><trkpt lat="43.457125" lon="12.901066"><ele>364.0</ele><time>2026-04-18T11:03:57.288Z</time></trkpt><trkpt lat="43.457141" lon="12.9011969"><ele>364.0</ele><time>2026-04-18T11:04:00.288Z</time></trkpt><trkpt lat="43.4571644" lon="12.901317"><ele>364.0</ele><time>2026-04-18T11:04:02.289Z</time></trkpt><trkpt lat="43.4572035" lon="12.9014058"><ele>364.0</ele><time>2026-04-18T11:04:04.289Z</time></trkpt><trkpt lat="43.4573347" lon="12.9014067"><ele>364.0</ele><time>2026-04-18T11:04:06.288Z</time></trkpt><trkpt lat="43.4574078" lon="12.901398"><ele>364.0</ele><time>2026-04-18T11:04:07.288Z</time></trkpt><trkpt lat="43.4574728" lon="12.901407"><ele>364.0</ele><time>2026-04-18T11:04:08.288Z</time></trkpt><trkpt lat="43.4576018" lon="12.9013805"><ele>364.0</ele><time>2026-04-18T11:04:10.288Z</time></trkpt><trkpt lat="43.4576737" lon="12.9013548"><ele>364.0</ele><time>2026-04-18T11:04:11.289Z</time></trkpt><trkpt lat="43.4577931" lon="12.9013242"><ele>364.0</ele><time>2026-04-18T11:04:13.289Z</time></trkpt><trkpt lat="43.4578598" lon="12.901314"><ele>364.0</ele><time>2026-04-18T11:04:14.289Z</time></trkpt><trkpt lat="43.4579291" lon="12.901322"><ele>364.0</ele><time>2026-04-18T11:04:15.288Z</time></trkpt><trkpt lat="43.4579974" lon="12.9013545"><ele>364.0</ele><time>2026-04-18T11:04:16.288Z</time></trkpt><trkpt lat="43.45806" lon="12.9013956"><ele>364.0</ele><time>2026-04-18T11:04:17.288Z</time></trkpt><trkpt lat="43.458121" lon="12.9014444"><ele>364.0</ele><time>2026-04-18T11:04:18.288Z</time></trkpt><trkpt lat="43.4581828" lon="12.9014919"><ele>364.0</ele><time>2026-04-18T11:04:19.288Z</time></trkpt><trkpt lat="43.4582459" lon="12.9015349"><ele>364.0</ele><time>2026-04-18T11:04:20.289Z</time></trkpt><trkpt lat="43.4583084" lon="12.9015735"><ele>364.7142857142857</ele><time>2026-04-18T11:04:21.289Z</time></trkpt><trkpt lat="43.4583682" lon="12.9016169"><ele>365.42857142857144</ele><time>2026-04-18T11:04:22.288Z</time></trkpt><trkpt lat="43.4584322" lon="12.9016543"><ele>366.1428571428571</ele><time>2026-04-18T11:04:23.288Z</time></trkpt><trkpt lat="43.4585012" lon="12.9016979"><ele>366.8571428571429</ele><time>2026-04-18T11:04:24.289Z</time></trkpt><trkpt lat="43.45857" lon="12.9017495"><ele>367.57142857142856</ele><time>2026-04-18T11:04:25.288Z</time></trkpt><trkpt lat="43.4586392" lon="12.9017963"><ele>368.2857142857143</ele><time>2026-04-18T11:04:26.289Z</time></trkpt><trkpt lat="43.4587064" lon="12.9018316"><ele>369.0</ele><time>2026-04-18T11:04:27.288Z</time></trkpt><trkpt lat="43.4587717" lon="12.9018601"><ele>372.0</ele><time>2026-04-18T11:04:28.288Z</time></trkpt><trkpt lat="43.4588367" lon="12.9018821"><ele>375.0</ele><time>2026-04-18T11:04:29.289Z</time></trkpt><trkpt lat="43.4589097" lon="12.9018956"><ele>378.0</ele><time>2026-04-18T11:04:30.288Z</time></trkpt><trkpt lat="43.4589867" lon="12.9019092"><ele>381.0</ele><time>2026-04-18T11:04:31.288Z</time></trkpt><trkpt lat="43.4590647" lon="12.9019244"><ele>384.0</ele><time>2026-04-18T11:04:32.289Z</time></trkpt><trkpt lat="43.4591477" lon="12.901951"><ele>387.0</ele><time>2026-04-18T11:04:33.289Z</time></trkpt><trkpt lat="43.4592256" lon="12.901994"><ele>387.0</ele><time>2026-04-18T11:04:34.288Z</time></trkpt><trkpt lat="43.4593032" lon="12.9020443"><ele>387.0</ele><time>2026-04-18T11:04:35.289Z</time></trkpt><trkpt lat="43.4593921" lon="12.9020941"><ele>387.0</ele><time>2026-04-18T11:04:36.288Z</time></trkpt><trkpt lat="43.4594915" lon="12.902138"><ele>387.0</ele><time>2026-04-18T11:04:37.289Z</time></trkpt><trkpt lat="43.4595971" lon="12.902178"><ele>387.0</ele><time>2026-04-18T11:04:38.288Z</time></trkpt><trkpt lat="43.4596971" lon="12.9022268"><ele>387.0</ele><time>2026-04-18T11:04:39.288Z</time></trkpt><trkpt lat="43.4597961" lon="12.9023009"><ele>387.0</ele><time>2026-04-18T11:04:40.289Z</time></trkpt><trkpt lat="43.4598949" lon="12.9023994"><ele>387.0</ele><time>2026-04-18T11:04:41.288Z</time></trkpt><trkpt lat="43.4599945" lon="12.9024985"><ele>387.0</ele><time>2026-04-18T11:04:42.288Z</time></trkpt><trkpt lat="43.4600889" lon="12.9025963"><ele>387.0</ele><time>2026-04-18T11:04:43.289Z</time></trkpt><trkpt lat="43.4601774" lon="12.9026888"><ele>387.0</ele><time>2026-04-18T11:04:44.288Z</time></trkpt><trkpt lat="43.4602732" lon="12.9027691"><ele>387.0</ele><time>2026-04-18T11:04:45.288Z</time></trkpt><trkpt lat="43.4603732" lon="12.9028452"><ele>387.0</ele><time>2026-04-18T11:04:46.288Z</time></trkpt><trkpt lat="43.4604693" lon="12.9029208"><ele>387.0</ele><time>2026-04-18T11:04:47.288Z</time></trkpt><trkpt lat="43.4605583" lon="12.9029936"><ele>389.0</ele><time>2026-04-18T11:04:48.288Z</time></trkpt><trkpt lat="43.460632" lon="12.903077"><ele>391.0</ele><time>2026-04-18T11:04:49.289Z</time></trkpt><trkpt lat="43.4606882" lon="12.9031905"><ele>393.0</ele><time>2026-04-18T11:04:50.288Z</time></trkpt><trkpt lat="43.4607318" lon="12.9033198"><ele>395.0</ele><time>2026-04-18T11:04:51.288Z</time></trkpt><trkpt lat="43.4607724" lon="12.903439"><ele>397.0</ele><time>2026-04-18T11:04:52.289Z</time></trkpt><trkpt lat="43.4608295" lon="12.9035417"><ele>397.0</ele><time>2026-04-18T11:04:53.289Z</time></trkpt><trkpt lat="43.4609023" lon="12.9036233"><ele>397.0</ele><time>2026-04-18T11:04:54.288Z</time></trkpt><trkpt lat="43.4609902" lon="12.903696"><ele>397.0</ele><time>2026-04-18T11:04:55.288Z</time></trkpt><trkpt lat="43.4610917" lon="12.9037576"><ele>397.0</ele><time>2026-04-18T11:04:56.289Z</time></trkpt><trkpt lat="43.4611949" lon="12.9038101"><ele>397.0</ele><time>2026-04-18T11:04:57.289Z</time></trkpt><trkpt lat="43.4612972" lon="12.9038559"><ele>399.6</ele><time>2026-04-18T11:04:58.289Z</time></trkpt><trkpt lat="43.4614004" lon="12.9038943"><ele>402.20000000000005</ele><time>2026-04-18T11:04:59.289Z</time></trkpt><trkpt lat="43.461505" lon="12.9039342"><ele>404.8</ele><time>2026-04-18T11:05:00.288Z</time></trkpt><trkpt lat="43.4615986" lon="12.9040121"><ele>407.4</ele><time>2026-04-18T11:05:01.289Z</time></trkpt><trkpt lat="43.461687" lon="12.9040936"><ele>410.0</ele><time>2026-04-18T11:05:02.288Z</time></trkpt><trkpt lat="43.4617747" lon="12.9041599"><ele>410.0</ele><time>2026-04-18T11:05:03.289Z</time></trkpt><trkpt lat="43.4618664" lon="12.9042329"><ele>410.0</ele><time>2026-04-18T11:05:04.289Z</time></trkpt><trkpt lat="43.4619642" lon="12.9042977"><ele>410.0</ele><time>2026-04-18T11:05:05.288Z</time></trkpt><trkpt lat="43.4620534" lon="12.9043626"><ele>410.0</ele><time>2026-04-18T11:05:06.289Z</time></trkpt><trkpt lat="43.4621387" lon="12.9044238"><ele>410.0</ele><time>2026-04-18T11:05:07.288Z</time></trkpt><trkpt lat="43.4622232" lon="12.9044785"><ele>409.2</ele><time>2026-04-18T11:05:08.288Z</time></trkpt><trkpt lat="43.4623116" lon="12.9045418"><ele>408.4</ele><time>2026-04-18T11:05:09.289Z</time></trkpt><trkpt lat="43.4624032" lon="12.9046187"><ele>407.6</ele><time>2026-04-18T11:05:10.288Z</time></trkpt><trkpt lat="43.4624997" lon="12.9046996"><ele>406.8</ele><time>2026-04-18T11:05:11.289Z</time></trkpt><trkpt lat="43.4625973" lon="12.9047691"><ele>406.0</ele><time>2026-04-18T11:05:12.288Z</time></trkpt><trkpt lat="43.4626894" lon="12.9048359"><ele>406.0</ele><time>2026-04-18T11:05:13.288Z</time></trkpt><trkpt lat="43.4627777" lon="12.9049022"><ele>406.0</ele><time>2026-04-18T11:05:14.289Z</time></trkpt><trkpt lat="43.4628633" lon="12.9049721"><ele>406.0</ele><time>2026-04-18T11:05:15.289Z</time></trkpt><trkpt lat="43.4629333" lon="12.9050564"><ele>406.0</ele><time>2026-04-18T11:05:16.289Z</time></trkpt><trkpt lat="43.4629979" lon="12.9051433"><ele>406.0</ele><time>2026-04-18T11:05:17.288Z</time></trkpt><trkpt lat="43.4630698" lon="12.9052171"><ele>404.6</ele><time>2026-04-18T11:05:18.288Z</time></trkpt><trkpt lat="43.4631491" lon="12.9052837"><ele>403.20000000000005</ele><time>2026-04-18T11:05:19.288Z</time></trkpt><trkpt lat="43.4632231" lon="12.9053583"><ele>401.79999999999995</ele><time>2026-04-18T11:05:20.289Z</time></trkpt><trkpt lat="43.4633049" lon="12.9054263"><ele>400.4</ele><time>2026-04-18T11:05:21.288Z</time></trkpt><trkpt lat="43.4633973" lon="12.9054916"><ele>399.0</ele><time>2026-04-18T11:05:22.288Z</time></trkpt><trkpt lat="43.4634946" lon="12.9055776"><ele>399.0</ele><time>2026-04-18T11:05:23.289Z</time></trkpt><trkpt lat="43.4635983" lon="12.9056763"><ele>399.0</ele><time>2026-04-18T11:05:24.288Z</time></trkpt><trkpt lat="43.4637067" lon="12.9057783"><ele>399.0</ele><time>2026-04-18T11:05:25.288Z</time></trkpt><trkpt lat="43.4638184" lon="12.9058888"><ele>399.0</ele><time>2026-04-18T11:05:26.288Z</time></trkpt><trkpt lat="43.4639312" lon="12.9060019"><ele>396.0</ele><time>2026-04-18T11:05:27.289Z</time></trkpt><trkpt lat="43.4640396" lon="12.9061112"><ele>393.0</ele><time>2026-04-18T11:05:28.289Z</time></trkpt><trkpt lat="43.4641428" lon="12.9062205"><ele>390.0</ele><time>2026-04-18T11:05:29.288Z</time></trkpt><trkpt lat="43.464249" lon="12.9063248"><ele>387.0</ele><time>2026-04-18T11:05:30.289Z</time></trkpt><trkpt lat="43.4643513" lon="12.9064277"><ele>387.0</ele><time>2026-04-18T11:05:31.288Z</time></trkpt><trkpt lat="43.4644419" lon="12.9065279"><ele>387.0</ele><time>2026-04-18T11:05:32.289Z</time></trkpt><trkpt lat="43.4645352" lon="12.9066163"><ele>387.0</ele><time>2026-04-18T11:05:33.288Z</time></trkpt><trkpt lat="43.4646255" lon="12.906715"><ele>387.0</ele><time>2026-04-18T11:05:34.288Z</time></trkpt><trkpt lat="43.4647193" lon="12.9068111"><ele>385.6</ele><time>2026-04-18T11:05:35.288Z</time></trkpt><trkpt lat="43.464808" lon="12.9068992"><ele>384.20000000000005</ele><time>2026-04-18T11:05:36.288Z</time></trkpt><trkpt lat="43.4648917" lon="12.9069719"><ele>382.8</ele><time>2026-04-18T11:05:37.289Z</time></trkpt><trkpt lat="43.4649702" lon="12.9070398"><ele>381.4</ele><time>2026-04-18T11:05:38.288Z</time></trkpt><trkpt lat="43.4650416" lon="12.9071041"><ele>380.0</ele><time>2026-04-18T11:05:39.289Z</time></trkpt><trkpt lat="43.465105" lon="12.9071589"><ele>380.0</ele><time>2026-04-18T11:05:40.289Z</time></trkpt><trkpt lat="43.4651787" lon="12.9072498"><ele>380.0</ele><time>2026-04-18T11:05:42.289Z</time></trkpt><trkpt lat="43.4652143" lon="12.9073778"><ele>380.0</ele><time>2026-04-18T11:05:46.288Z</time></trkpt><trkpt lat="43.4652824" lon="12.9074407"><ele>380.0</ele><time>2026-04-18T11:05:47.289Z</time></trkpt><trkpt lat="43.4653748" lon="12.9074997"><ele>380.0</ele><time>2026-04-18T11:05:48.289Z</time></trkpt><trkpt lat="43.4654674" lon="12.9075458"><ele>379.0</ele><time>2026-04-18T11:05:49.289Z</time></trkpt><trkpt lat="43.4655743" lon="12.9075994"><ele>378.0</ele><time>2026-04-18T11:05:50.288Z</time></trkpt><trkpt lat="43.4656962" lon="12.9076781"><ele>377.0</ele><time>2026-04-18T11:05:51.288Z</time></trkpt><trkpt lat="43.4658181" lon="12.90777"><ele>376.0</ele><time>2026-04-18T11:05:52.288Z</time></trkpt><trkpt lat="43.4659466" lon="12.9078538"><ele>376.0</ele><time>2026-04-18T11:05:53.289Z</time></trkpt><trkpt lat="43.4660945" lon="12.9079197"><ele>376.0</ele><time>2026-04-18T11:05:54.288Z</time></trkpt><trkpt lat="43.4662606" lon="12.9079652"><ele>376.0</ele><time>2026-04-18T11:05:55.288Z</time></trkpt><trkpt lat="43.4664361" lon="12.9079904"><ele>377.3333333333333</ele><time>2026-04-18T11:05:56.288Z</time></trkpt><trkpt lat="43.4666105" lon="12.9080039"><ele>378.6666666666667</ele><time>2026-04-18T11:05:57.288Z</time></trkpt><trkpt lat="43.4667844" lon="12.9080174"><ele>380.0</ele><time>2026-04-18T11:05:58.289Z</time></trkpt><trkpt lat="43.4669558" lon="12.9080386"><ele>381.6666666666667</ele><time>2026-04-18T11:05:59.288Z</time></trkpt><trkpt lat="43.4671293" lon="12.9080586"><ele>383.33333333333337</ele><time>2026-04-18T11:06:00.289Z</time></trkpt><trkpt lat="43.467298" lon="12.9080742"><ele>385.0</ele><time>2026-04-18T11:06:01.288Z</time></trkpt><trkpt lat="43.4674613" lon="12.9080816"><ele>385.0</ele><time>2026-04-18T11:06:02.289Z</time></trkpt><trkpt lat="43.4676206" lon="12.9080904"><ele>385.0</ele><time>2026-04-18T11:06:03.289Z</time></trkpt><trkpt lat="43.4677731" lon="12.9081028"><ele>385.0</ele><time>2026-04-18T11:06:04.288Z</time></trkpt><trkpt lat="43.4679133" lon="12.908108"><ele>386.5</ele><time>2026-04-18T11:06:05.289Z</time></trkpt><trkpt lat="43.4680511" lon="12.9080909"><ele>388.0</ele><time>2026-04-18T11:06:06.288Z</time></trkpt><trkpt lat="43.468191" lon="12.9080316"><ele>389.5</ele><time>2026-04-18T11:06:07.289Z</time></trkpt><trkpt lat="43.4683322" lon="12.9079258"><ele>391.0</ele><time>2026-04-18T11:06:08.288Z</time></trkpt><trkpt lat="43.4684727" lon="12.9078053"><ele>391.0</ele><time>2026-04-18T11:06:09.288Z</time></trkpt><trkpt lat="43.4686151" lon="12.907685"><ele>391.0</ele><time>2026-04-18T11:06:10.288Z</time></trkpt><trkpt lat="43.4687565" lon="12.9075689"><ele>391.0</ele><time>2026-04-18T11:06:11.288Z</time></trkpt><trkpt lat="43.4688921" lon="12.9074634"><ele>392.5</ele><time>2026-04-18T11:06:12.289Z</time></trkpt><trkpt lat="43.4690159" lon="12.907361"><ele>394.0</ele><time>2026-04-18T11:06:13.289Z</time></trkpt><trkpt lat="43.4691452" lon="12.9072774"><ele>395.5</ele><time>2026-04-18T11:06:14.289Z</time></trkpt><trkpt lat="43.4692844" lon="12.9072148"><ele>397.0</ele><time>2026-04-18T11:06:15.288Z</time></trkpt><trkpt lat="43.4694268" lon="12.9072068"><ele>397.0</ele><time>2026-04-18T11:06:16.288Z</time></trkpt><trkpt lat="43.4695719" lon="12.9072539"><ele>397.0</ele><time>2026-04-18T11:06:17.289Z</time></trkpt><trkpt lat="43.4697119" lon="12.9073364"><ele>397.0</ele><time>2026-04-18T11:06:18.289Z</time></trkpt><trkpt lat="43.4698439" lon="12.9074408"><ele>399.33333333333337</ele><time>2026-04-18T11:06:19.288Z</time></trkpt><trkpt lat="43.4699644" lon="12.90758"><ele>401.66666666666663</ele><time>2026-04-18T11:06:20.288Z</time></trkpt><trkpt lat="43.4700617" lon="12.9077656"><ele>404.0</ele><time>2026-04-18T11:06:21.288Z</time></trkpt><trkpt lat="43.4701339" lon="12.9079706"><ele>404.0</ele><time>2026-04-18T11:06:22.289Z</time></trkpt><trkpt lat="43.4701816" lon="12.9081759"><ele>404.0</ele><time>2026-04-18T11:06:23.289Z</time></trkpt><trkpt lat="43.4701991" lon="12.9083857"><ele>404.0</ele><time>2026-04-18T11:06:24.288Z</time></trkpt><trkpt lat="43.4701734" lon="12.9085915"><ele>405.0</ele><time>2026-04-18T11:06:25.288Z</time></trkpt><trkpt lat="43.4701112" lon="12.9087741"><ele>406.0</ele><time>2026-04-18T11:06:26.288Z</time></trkpt><trkpt lat="43.4700151" lon="12.9089192"><ele>407.0</ele><time>2026-04-18T11:06:27.288Z</time></trkpt><trkpt lat="43.4698834" lon="12.9090323"><ele>408.0</ele><time>2026-04-18T11:06:28.288Z</time></trkpt><trkpt lat="43.4697471" lon="12.9091519"><ele>410.66666666666663</ele><time>2026-04-18T11:06:29.288Z</time></trkpt><trkpt lat="43.4696037" lon="12.909274"><ele>413.3333333333333</ele><time>2026-04-18T11:06:30.288Z</time></trkpt><trkpt lat="43.4694543" lon="12.909396"><ele>416.0</ele><time>2026-04-18T11:06:31.289Z</time></trkpt><trkpt lat="43.4693131" lon="12.9095143"><ele>416.0</ele><time>2026-04-18T11:06:32.289Z</time></trkpt><trkpt lat="43.4691766" lon="12.9096197"><ele>416.0</ele><time>2026-04-18T11:06:33.289Z</time></trkpt><trkpt lat="43.4690506" lon="12.909722"><ele>416.0</ele><time>2026-04-18T11:06:34.289Z</time></trkpt><trkpt lat="43.4689332" lon="12.9098265"><ele>416.0</ele><time>2026-04-18T11:06:35.289Z</time></trkpt><trkpt lat="43.4688365" lon="12.909951"><ele>416.5</ele><time>2026-04-18T11:06:36.288Z</time></trkpt><trkpt lat="43.468778" lon="12.9100943"><ele>417.0</ele><time>2026-04-18T11:06:37.288Z</time></trkpt><trkpt lat="43.4687705" lon="12.9102533"><ele>417.5</ele><time>2026-04-18T11:06:38.288Z</time></trkpt><trkpt lat="43.4688146" lon="12.9104105"><ele>418.0</ele><time>2026-04-18T11:06:39.289Z</time></trkpt><trkpt lat="43.4689019" lon="12.9105495"><ele>418.0</ele><time>2026-04-18T11:06:40.288Z</time></trkpt><trkpt lat="43.4690241" lon="12.91068"><ele>418.0</ele><time>2026-04-18T11:06:41.288Z</time></trkpt><trkpt lat="43.4691618" lon="12.9108125"><ele>418.0</ele><time>2026-04-18T11:06:42.288Z</time></trkpt><trkpt lat="43.4693024" lon="12.9109449"><ele>422.0</ele><time>2026-04-18T11:06:43.288Z</time></trkpt><trkpt lat="43.4694453" lon="12.9110773"><ele>426.0</ele><time>2026-04-18T11:06:44.288Z</time></trkpt><trkpt lat="43.4695882" lon="12.9112104"><ele>430.0</ele><time>2026-04-18T11:06:45.289Z</time></trkpt><trkpt lat="43.4697275" lon="12.9113508"><ele>430.0</ele><time>2026-04-18T11:06:46.289Z</time></trkpt><trkpt lat="43.4698615" lon="12.9115031"><ele>430.0</ele><time>2026-04-18T11:06:47.288Z</time></trkpt><trkpt lat="43.4699904" lon="12.911676"><ele>430.0</ele><time>2026-04-18T11:06:48.289Z</time></trkpt><trkpt lat="43.4701095" lon="12.9118657"><ele>432.6666666666667</ele><time>2026-04-18T11:06:49.288Z</time></trkpt><trkpt lat="43.4702255" lon="12.912069"><ele>435.33333333333337</ele><time>2026-04-18T11:06:50.288Z</time></trkpt><trkpt lat="43.4703457" lon="12.9122639"><ele>438.0</ele><time>2026-04-18T11:06:51.288Z</time></trkpt><trkpt lat="43.4704734" lon="12.9124584"><ele>434.33333333333337</ele><time>2026-04-18T11:06:52.289Z</time></trkpt><trkpt lat="43.4706043" lon="12.9126506"><ele>430.6666666666667</ele><time>2026-04-18T11:06:53.289Z</time></trkpt><trkpt lat="43.4707366" lon="12.9128434"><ele>427.0</ele><time>2026-04-18T11:06:54.288Z</time></trkpt><trkpt lat="43.4708713" lon="12.9130306"><ele>427.0</ele><time>2026-04-18T11:06:55.289Z</time></trkpt><trkpt lat="43.4710034" lon="12.9132179"><ele>427.0</ele><time>2026-04-18T11:06:56.289Z</time></trkpt><trkpt lat="43.4711382" lon="12.9134072"><ele>427.0</ele><time>2026-04-18T11:06:57.288Z</time></trkpt><trkpt lat="43.4712734" lon="12.9136023"><ele>430.0</ele><time>2026-04-18T11:06:58.288Z</time></trkpt><trkpt lat="43.4714117" lon="12.9137933"><ele>433.0</ele><time>2026-04-18T11:06:59.288Z</time></trkpt><trkpt lat="43.4715429" lon="12.9139778"><ele>436.0</ele><time>2026-04-18T11:07:00.288Z</time></trkpt><trkpt lat="43.471665" lon="12.9141586"><ele>435.33333333333337</ele><time>2026-04-18T11:07:01.288Z</time></trkpt><trkpt lat="43.4717762" lon="12.9143199"><ele>434.66666666666663</ele><time>2026-04-18T11:07:02.289Z</time></trkpt><trkpt lat="43.4718794" lon="12.914466"><ele>434.0</ele><time>2026-04-18T11:07:03.289Z</time></trkpt><trkpt lat="43.4719792" lon="12.9146165"><ele>434.0</ele><time>2026-04-18T11:07:04.289Z</time></trkpt><trkpt lat="43.4720782" lon="12.9147667"><ele>434.0</ele><time>2026-04-18T11:07:05.289Z</time></trkpt><trkpt lat="43.4721784" lon="12.9149213"><ele>434.0</ele><time>2026-04-18T11:07:06.289Z</time></trkpt><trkpt lat="43.4722821" lon="12.9150707"><ele>434.0</ele><time>2026-04-18T11:07:07.289Z</time></trkpt><trkpt lat="43.4723925" lon="12.915209"><ele>436.3333333333333</ele><time>2026-04-18T11:07:08.289Z</time></trkpt><trkpt lat="43.4725177" lon="12.9153149"><ele>438.66666666666663</ele><time>2026-04-18T11:07:09.288Z</time></trkpt><trkpt lat="43.4726614" lon="12.915383"><ele>441.0</ele><time>2026-04-18T11:07:10.289Z</time></trkpt><trkpt lat="43.4728238" lon="12.9154254"><ele>440.0</ele><time>2026-04-18T11:07:11.288Z</time></trkpt><trkpt lat="43.4729864" lon="12.9154698"><ele>439.0</ele><time>2026-04-18T11:07:12.288Z</time></trkpt><trkpt lat="43.4731497" lon="12.9155027"><ele>438.0</ele><time>2026-04-18T11:07:13.289Z</time></trkpt><trkpt lat="43.4733143" lon="12.9155109"><ele>438.0</ele><time>2026-04-18T11:07:14.288Z</time></trkpt><trkpt lat="43.473474" lon="12.9155028"><ele>438.0</ele><time>2026-04-18T11:07:15.288Z</time></trkpt><trkpt lat="43.473626" lon="12.9154633"><ele>438.0</ele><time>2026-04-18T11:07:16.288Z</time></trkpt><trkpt lat="43.4737548" lon="12.9153668"><ele>437.25</ele><time>2026-04-18T11:07:17.289Z</time></trkpt><trkpt lat="43.4738502" lon="12.9152254"><ele>436.5</ele><time>2026-04-18T11:07:18.289Z</time></trkpt><trkpt lat="43.4739032" lon="12.9150339"><ele>435.75</ele><time>2026-04-18T11:07:19.288Z</time></trkpt><trkpt lat="43.4739538" lon="12.9148339"><ele>435.0</ele><time>2026-04-18T11:07:20.289Z</time></trkpt><trkpt lat="43.4739391" lon="12.9146025"><ele>435.0</ele><time>2026-04-18T11:07:21.288Z</time></trkpt><trkpt lat="43.473957" lon="12.9143922"><ele>435.0</ele><time>2026-04-18T11:07:22.289Z</time></trkpt><trkpt lat="43.4739856" lon="12.9141918"><ele>435.0</ele><time>2026-04-18T11:07:23.289Z</time></trkpt><trkpt lat="43.4740442" lon="12.9140161"><ele>435.0</ele><time>2026-04-18T11:07:24.289Z</time></trkpt><trkpt lat="43.474106" lon="12.9138372"><ele>437.0</ele><time>2026-04-18T11:07:25.288Z</time></trkpt><trkpt lat="43.474203" lon="12.9137093"><ele>439.0</ele><time>2026-04-18T11:07:26.288Z</time></trkpt><trkpt lat="43.474372" lon="12.9137176"><ele>441.0</ele><time>2026-04-18T11:07:27.288Z</time></trkpt><trkpt lat="43.4744907" lon="12.9136828"><ele>443.0</ele><time>2026-04-18T11:07:28.289Z</time></trkpt><trkpt lat="43.4746374" lon="12.9137892"><ele>444.25</ele><time>2026-04-18T11:07:29.288Z</time></trkpt><trkpt lat="43.4747653" lon="12.9138905"><ele>445.5</ele><time>2026-04-18T11:07:30.288Z</time></trkpt><trkpt lat="43.47487" lon="12.9140359"><ele>446.75</ele><time>2026-04-18T11:07:31.289Z</time></trkpt><trkpt lat="43.4749511" lon="12.9142121"><ele>448.0</ele><time>2026-04-18T11:07:32.288Z</time></trkpt><trkpt lat="43.4750318" lon="12.9143986"><ele>444.6666666666667</ele><time>2026-04-18T11:07:33.289Z</time></trkpt><trkpt lat="43.475114" lon="12.9145961"><ele>441.33333333333337</ele><time>2026-04-18T11:07:34.288Z</time></trkpt><trkpt lat="43.4752002" lon="12.9147904"><ele>438.0</ele><time>2026-04-18T11:07:35.288Z</time></trkpt><trkpt lat="43.4752849" lon="12.9149903"><ele>434.33333333333337</ele><time>2026-04-18T11:07:36.288Z</time></trkpt><trkpt lat="43.4753596" lon="12.9151893"><ele>430.6666666666667</ele><time>2026-04-18T11:07:37.288Z</time></trkpt><trkpt lat="43.4754384" lon="12.9153865"><ele>427.0</ele><time>2026-04-18T11:07:38.288Z</time></trkpt><trkpt lat="43.4755149" lon="12.9155908"><ele>432.6666666666667</ele><time>2026-04-18T11:07:39.288Z</time></trkpt><trkpt lat="43.4755945" lon="12.9157915"><ele>438.33333333333337</ele><time>2026-04-18T11:07:40.288Z</time></trkpt><trkpt lat="43.4756739" lon="12.9159974"><ele>444.0</ele><time>2026-04-18T11:07:41.288Z</time></trkpt><trkpt lat="43.475754" lon="12.9162059"><ele>444.0</ele><time>2026-04-18T11:07:42.289Z</time></trkpt><trkpt lat="43.4758254" lon="12.9164215"><ele>444.0</ele><time>2026-04-18T11:07:43.288Z</time></trkpt><trkpt lat="43.4758876" lon="12.9166422"><ele>444.0</ele><time>2026-04-18T11:07:44.288Z</time></trkpt><trkpt lat="43.4759309" lon="12.9168672"><ele>440.66666666666663</ele><time>2026-04-18T11:07:45.289Z</time></trkpt><trkpt lat="43.4759586" lon="12.9170943"><ele>437.3333333333333</ele><time>2026-04-18T11:07:46.288Z</time></trkpt><trkpt lat="43.4759844" lon="12.9173166"><ele>434.0</ele><time>2026-04-18T11:07:47.289Z</time></trkpt><trkpt lat="43.4760081" lon="12.9175222"><ele>432.25</ele><time>2026-04-18T11:07:48.288Z</time></trkpt><trkpt lat="43.4760318" lon="12.9177286"><ele>430.5</ele><time>2026-04-18T11:07:49.289Z</time></trkpt><trkpt lat="43.4760558" lon="12.917926"><ele>428.75</ele><time>2026-04-18T11:07:50.288Z</time></trkpt><trkpt lat="43.4760761" lon="12.9181061"><ele>427.0</ele><time>2026-04-18T11:07:51.288Z</time></trkpt><trkpt lat="43.4761178" lon="12.9182796"><ele>427.0</ele><time>2026-04-18T11:07:52.289Z</time></trkpt><trkpt lat="43.4761775" lon="12.9184258"><ele>427.0</ele><time>2026-04-18T11:07:53.288Z</time></trkpt><trkpt lat="43.4762746" lon="12.9185373"><ele>427.0</ele><time>2026-04-18T11:07:54.289Z</time></trkpt><trkpt lat="43.4764168" lon="12.918605"><ele>427.0</ele><time>2026-04-18T11:07:55.288Z</time></trkpt><trkpt lat="43.4765687" lon="12.9186535"><ele>427.0</ele><time>2026-04-18T11:07:56.288Z</time></trkpt><trkpt lat="43.4767271" lon="12.9186731"><ele>427.0</ele><time>2026-04-18T11:07:57.289Z</time></trkpt><trkpt lat="43.476891" lon="12.9186632"><ele>427.0</ele><time>2026-04-18T11:07:58.289Z</time></trkpt><trkpt lat="43.4770474" lon="12.9186714"><ele>429.0</ele><time>2026-04-18T11:07:59.289Z</time></trkpt><trkpt lat="43.4772051" lon="12.9187092"><ele>431.0</ele><time>2026-04-18T11:08:00.288Z</time></trkpt><trkpt lat="43.4773391" lon="12.9187755"><ele>433.0</ele><time>2026-04-18T11:08:01.289Z</time></trkpt><trkpt lat="43.4774476" lon="12.9188288"><ele>435.0</ele><time>2026-04-18T11:08:02.289Z</time></trkpt><trkpt lat="43.47754" lon="12.9188836"><ele>435.0</ele><time>2026-04-18T11:08:03.288Z</time></trkpt><trkpt lat="43.4776169" lon="12.918926"><ele>435.0</ele><time>2026-04-18T11:08:04.289Z</time></trkpt><trkpt lat="43.4776847" lon="12.9189686"><ele>435.0</ele><time>2026-04-18T11:08:05.288Z</time></trkpt><trkpt lat="43.477745" lon="12.919001"><ele>435.0</ele><time>2026-04-18T11:08:06.288Z</time></trkpt><trkpt lat="43.477837" lon="12.9190349"><ele>435.0</ele><time>2026-04-18T11:08:08.288Z</time></trkpt><trkpt lat="43.4779176" lon="12.9190551"><ele>435.0</ele><time>2026-04-18T11:08:11.288Z</time></trkpt><trkpt lat="43.478019" lon="12.9190536"><ele>434.0</ele><time>2026-04-18T11:10:19.289Z</time></trkpt><trkpt lat="43.4780878" lon="12.919022"><ele>433.0</ele><time>2026-04-18T11:10:20.288Z</time></trkpt><trkpt lat="43.4781587" lon="12.918978"><ele>432.0</ele><time>2026-04-18T11:10:21.288Z</time></trkpt><trkpt lat="43.4782378" lon="12.9189252"><ele>431.0</ele><time>2026-04-18T11:10:22.288Z</time></trkpt><trkpt lat="43.4783195" lon="12.918854"><ele>430.0</ele><time>2026-04-18T11:10:23.288Z</time></trkpt><trkpt lat="43.4784043" lon="12.9187894"><ele>429.0</ele><time>2026-04-18T11:10:24.289Z</time></trkpt><trkpt lat="43.4784934" lon="12.9187285"><ele>429.0</ele><time>2026-04-18T11:10:25.288Z</time></trkpt><trkpt lat="43.478602" lon="12.9186859"><ele>429.0</ele><time>2026-04-18T11:10:26.288Z</time></trkpt><trkpt lat="43.4787262" lon="12.9186791"><ele>429.0</ele><time>2026-04-18T11:10:27.288Z</time></trkpt><trkpt lat="43.4788547" lon="12.9186865"><ele>429.0</ele><time>2026-04-18T11:10:28.288Z</time></trkpt><trkpt lat="43.4789904" lon="12.918694"><ele>429.0</ele><time>2026-04-18T11:10:29.288Z</time></trkpt><trkpt lat="43.4791107" lon="12.9187048"><ele>429.0</ele><time>2026-04-18T11:10:30.288Z</time></trkpt><trkpt lat="43.4792182" lon="12.9187248"><ele>429.0</ele><time>2026-04-18T11:10:31.288Z</time></trkpt><trkpt lat="43.4793257" lon="12.9187669"><ele>429.0</ele><time>2026-04-18T11:10:32.289Z</time></trkpt><trkpt lat="43.4794233" lon="12.918848"><ele>429.0</ele><time>2026-04-18T11:10:33.288Z</time></trkpt><trkpt lat="43.4795023" lon="12.9189714"><ele>429.0</ele><time>2026-04-18T11:10:34.288Z</time></trkpt><trkpt lat="43.4795625" lon="12.9191303"><ele>429.0</ele><time>2026-04-18T11:10:35.288Z</time></trkpt><trkpt lat="43.4796132" lon="12.9192918"><ele>429.0</ele><time>2026-04-18T11:10:36.289Z</time></trkpt><trkpt lat="43.4796667" lon="12.9194648"><ele>429.5</ele><time>2026-04-18T11:10:37.288Z</time></trkpt><trkpt lat="43.4797205" lon="12.9196323"><ele>430.0</ele><time>2026-04-18T11:10:38.288Z</time></trkpt><trkpt lat="43.479775" lon="12.9197867"><ele>430.5</ele><time>2026-04-18T11:10:39.289Z</time></trkpt><trkpt lat="43.4798283" lon="12.9199327"><ele>431.0</ele><time>2026-04-18T11:10:40.288Z</time></trkpt><trkpt lat="43.4798996" lon="12.920069"><ele>426.25</ele><time>2026-04-18T11:10:41.289Z</time></trkpt><trkpt lat="43.4799934" lon="12.9201596"><ele>421.5</ele><time>2026-04-18T11:10:42.288Z</time></trkpt><trkpt lat="43.4801082" lon="12.9201912"><ele>416.75</ele><time>2026-04-18T11:10:43.288Z</time></trkpt><trkpt lat="43.4802265" lon="12.9201703"><ele>412.0</ele><time>2026-04-18T11:10:44.289Z</time></trkpt><trkpt lat="43.4803339" lon="12.9201264"><ele>414.6666666666667</ele><time>2026-04-18T11:10:45.289Z</time></trkpt><trkpt lat="43.4804536" lon="12.9199741"><ele>417.33333333333337</ele><time>2026-04-18T11:10:46.288Z</time></trkpt><trkpt lat="43.4805789" lon="12.919832"><ele>420.0</ele><time>2026-04-18T11:10:47.288Z</time></trkpt><trkpt lat="43.4807098" lon="12.9196993"><ele>420.0</ele><time>2026-04-18T11:10:48.288Z</time></trkpt><trkpt lat="43.4808551" lon="12.9195736"><ele>420.0</ele><time>2026-04-18T11:10:49.288Z</time></trkpt><trkpt lat="43.4810074" lon="12.9194664"><ele>420.0</ele><time>2026-04-18T11:10:50.289Z</time></trkpt><trkpt lat="43.4811708" lon="12.9193729"><ele>421.0</ele><time>2026-04-18T11:10:51.288Z</time></trkpt><trkpt lat="43.4813359" lon="12.9192922"><ele>422.0</ele><time>2026-04-18T11:10:52.289Z</time></trkpt><trkpt lat="43.4814898" lon="12.9192282"><ele>423.0</ele><time>2026-04-18T11:10:53.288Z</time></trkpt><trkpt lat="43.481634" lon="12.9191755"><ele>423.0</ele><time>2026-04-18T11:10:54.289Z</time></trkpt><trkpt lat="43.4817716" lon="12.9191318"><ele>423.0</ele><time>2026-04-18T11:10:55.289Z</time></trkpt><trkpt lat="43.4819061" lon="12.9191011"><ele>423.0</ele><time>2026-04-18T11:10:56.289Z</time></trkpt><trkpt lat="43.4820368" lon="12.9191202"><ele>423.0</ele><time>2026-04-18T11:10:57.289Z</time></trkpt><trkpt lat="43.4821518" lon="12.9192013"><ele>422.75</ele><time>2026-04-18T11:10:58.289Z</time></trkpt><trkpt lat="43.4822285" lon="12.9193344"><ele>422.5</ele><time>2026-04-18T11:10:59.288Z</time></trkpt><trkpt lat="43.4822593" lon="12.9195001"><ele>422.25</ele><time>2026-04-18T11:11:00.288Z</time></trkpt><trkpt lat="43.4822548" lon="12.9196805"><ele>422.0</ele><time>2026-04-18T11:11:01.288Z</time></trkpt><trkpt lat="43.4822466" lon="12.9198711"><ele>425.66666666666663</ele><time>2026-04-18T11:11:02.289Z</time></trkpt><trkpt lat="43.4822631" lon="12.9200679"><ele>429.33333333333337</ele><time>2026-04-18T11:11:03.288Z</time></trkpt><trkpt lat="43.4823105" lon="12.9202792"><ele>433.0</ele><time>2026-04-18T11:11:04.289Z</time></trkpt><trkpt lat="43.482392" lon="12.92049"><ele>433.0</ele><time>2026-04-18T11:11:05.289Z</time></trkpt><trkpt lat="43.4824963" lon="12.9206918"><ele>433.0</ele><time>2026-04-18T11:11:06.289Z</time></trkpt><trkpt lat="43.4825968" lon="12.9208831"><ele>433.0</ele><time>2026-04-18T11:11:07.289Z</time></trkpt><trkpt lat="43.4827" lon="12.9210695"><ele>433.6666666666667</ele><time>2026-04-18T11:11:08.289Z</time></trkpt><trkpt lat="43.4828002" lon="12.921248"><ele>434.33333333333337</ele><time>2026-04-18T11:11:09.288Z</time></trkpt><trkpt lat="43.4829006" lon="12.921412"><ele>435.0</ele><time>2026-04-18T11:11:10.288Z</time></trkpt><trkpt lat="43.4830114" lon="12.9215578"><ele>435.0</ele><time>2026-04-18T11:11:11.288Z</time></trkpt><trkpt lat="43.4831387" lon="12.9216648"><ele>435.0</ele><time>2026-04-18T11:11:12.288Z</time></trkpt><trkpt lat="43.4832741" lon="12.9217405"><ele>435.0</ele><time>2026-04-18T11:11:13.289Z</time></trkpt><trkpt lat="43.4834051" lon="12.921813"><ele>435.0</ele><time>2026-04-18T11:11:14.289Z</time></trkpt><trkpt lat="43.4835296" lon="12.9219166"><ele>435.66666666666663</ele><time>2026-04-18T11:11:15.288Z</time></trkpt><trkpt lat="43.4836357" lon="12.9220606"><ele>436.3333333333333</ele><time>2026-04-18T11:11:16.288Z</time></trkpt><trkpt lat="43.4837233" lon="12.922231"><ele>437.0</ele><time>2026-04-18T11:11:17.288Z</time></trkpt><trkpt lat="43.4838137" lon="12.9224068"><ele>442.0</ele><time>2026-04-18T11:11:18.289Z</time></trkpt><trkpt lat="43.4839132" lon="12.9225667"><ele>447.0</ele><time>2026-04-18T11:11:19.289Z</time></trkpt><trkpt lat="43.4840309" lon="12.9227064"><ele>452.0</ele><time>2026-04-18T11:11:20.288Z</time></trkpt><trkpt lat="43.4841663" lon="12.9228372"><ele>452.0</ele><time>2026-04-18T11:11:21.288Z</time></trkpt><trkpt lat="43.4843058" lon="12.9229448"><ele>452.0</ele><time>2026-04-18T11:11:22.288Z</time></trkpt><trkpt lat="43.4844498" lon="12.9230357"><ele>452.0</ele><time>2026-04-18T11:11:23.288Z</time></trkpt><trkpt lat="43.4845826" lon="12.9231145"><ele>451.75</ele><time>2026-04-18T11:11:24.288Z</time></trkpt><trkpt lat="43.4847158" lon="12.9231711"><ele>451.5</ele><time>2026-04-18T11:11:25.288Z</time></trkpt><trkpt lat="43.4848532" lon="12.9231817"><ele>451.25</ele><time>2026-04-18T11:11:26.288Z</time></trkpt><trkpt lat="43.484975" lon="12.9231927"><ele>451.0</ele><time>2026-04-18T11:11:27.289Z</time></trkpt><trkpt lat="43.485107" lon="12.9230865"><ele>451.0</ele><time>2026-04-18T11:11:28.288Z</time></trkpt><trkpt lat="43.4852304" lon="12.9230434"><ele>451.0</ele><time>2026-04-18T11:11:29.288Z</time></trkpt><trkpt lat="43.4853585" lon="12.9230195"><ele>451.0</ele><time>2026-04-18T11:11:30.289Z</time></trkpt><trkpt lat="43.4854818" lon="12.9230467"><ele>451.0</ele><time>2026-04-18T11:11:31.288Z</time></trkpt><trkpt lat="43.4855943" lon="12.9231182"><ele>450.25</ele><time>2026-04-18T11:11:32.288Z</time></trkpt><trkpt lat="43.4856836" lon="12.9232294"><ele>449.5</ele><time>2026-04-18T11:11:33.288Z</time></trkpt><trkpt lat="43.4857585" lon="12.9233802"><ele>448.75</ele><time>2026-04-18T11:11:34.288Z</time></trkpt><trkpt lat="43.4858351" lon="12.9235417"><ele>448.0</ele><time>2026-04-18T11:11:35.289Z</time></trkpt><trkpt lat="43.48591" lon="12.923731"><ele>451.6666666666667</ele><time>2026-04-18T11:11:36.288Z</time></trkpt><trkpt lat="43.4859909" lon="12.9239276"><ele>455.33333333333337</ele><time>2026-04-18T11:11:37.288Z</time></trkpt><trkpt lat="43.4860692" lon="12.9241238"><ele>459.0</ele><time>2026-04-18T11:11:38.288Z</time></trkpt><trkpt lat="43.4861452" lon="12.9243176"><ele>457.33333333333337</ele><time>2026-04-18T11:11:39.288Z</time></trkpt><trkpt lat="43.4862211" lon="12.9245106"><ele>455.6666666666667</ele><time>2026-04-18T11:11:40.289Z</time></trkpt><trkpt lat="43.4863012" lon="12.9246909"><ele>454.0</ele><time>2026-04-18T11:11:41.289Z</time></trkpt><trkpt lat="43.4863774" lon="12.924857"><ele>454.0</ele><time>2026-04-18T11:11:42.289Z</time></trkpt><trkpt lat="43.4864683" lon="12.9250136"><ele>454.0</ele><time>2026-04-18T11:11:43.288Z</time></trkpt><trkpt lat="43.4865833" lon="12.9251428"><ele>454.0</ele><time>2026-04-18T11:11:44.288Z</time></trkpt><trkpt lat="43.4867015" lon="12.9252665"><ele>454.0</ele><time>2026-04-18T11:11:45.288Z</time></trkpt><trkpt lat="43.4868392" lon="12.925337"><ele>452.0</ele><time>2026-04-18T11:11:46.288Z</time></trkpt><trkpt lat="43.4869759" lon="12.9253843"><ele>450.0</ele><time>2026-04-18T11:11:47.288Z</time></trkpt><trkpt lat="43.4870901" lon="12.9254544"><ele>448.0</ele><time>2026-04-18T11:11:48.288Z</time></trkpt><trkpt lat="43.4871966" lon="12.9255639"><ele>446.0</ele><time>2026-04-18T11:11:49.288Z</time></trkpt><trkpt lat="43.4872591" lon="12.9257082"><ele>446.0</ele><time>2026-04-18T11:11:50.289Z</time></trkpt><trkpt lat="43.4873251" lon="12.9258437"><ele>446.0</ele><time>2026-04-18T11:11:51.289Z</time></trkpt><trkpt lat="43.4872939" lon="12.9260385"><ele>446.0</ele><time>2026-04-18T11:11:52.289Z</time></trkpt><trkpt lat="43.4873088" lon="12.9262227"><ele>446.0</ele><time>2026-04-18T11:11:53.288Z</time></trkpt><trkpt lat="43.4873181" lon="12.9264139"><ele>446.5</ele><time>2026-04-18T11:11:54.289Z</time></trkpt><trkpt lat="43.4873412" lon="12.9265996"><ele>447.0</ele><time>2026-04-18T11:11:55.288Z</time></trkpt><trkpt lat="43.4873827" lon="12.9267944"><ele>447.5</ele><time>2026-04-18T11:11:56.288Z</time></trkpt><trkpt lat="43.487447" lon="12.9269823"><ele>448.0</ele><time>2026-04-18T11:11:57.289Z</time></trkpt><trkpt lat="43.4875222" lon="12.9271727"><ele>448.0</ele><time>2026-04-18T11:11:58.289Z</time></trkpt><trkpt lat="43.4876008" lon="12.9273549"><ele>448.0</ele><time>2026-04-18T11:11:59.288Z</time></trkpt><trkpt lat="43.4876873" lon="12.9275152"><ele>448.0</ele><time>2026-04-18T11:12:00.288Z</time></trkpt><trkpt lat="43.4877918" lon="12.927644"><ele>448.0</ele><time>2026-04-18T11:12:01.288Z</time></trkpt><trkpt lat="43.4879148" lon="12.9277412"><ele>450.0</ele><time>2026-04-18T11:12:02.288Z</time></trkpt><trkpt lat="43.4880455" lon="12.9277995"><ele>452.0</ele><time>2026-04-18T11:12:03.288Z</time></trkpt><trkpt lat="43.4881869" lon="12.9278116"><ele>454.0</ele><time>2026-04-18T11:12:04.288Z</time></trkpt><trkpt lat="43.4883404" lon="12.9277797"><ele>456.0</ele><time>2026-04-18T11:12:05.288Z</time></trkpt><trkpt lat="43.4884927" lon="12.9277203"><ele>456.0</ele><time>2026-04-18T11:12:06.288Z</time></trkpt><trkpt lat="43.4886478" lon="12.9276464"><ele>456.0</ele><time>2026-04-18T11:12:07.289Z</time></trkpt><trkpt lat="43.4888039" lon="12.927577"><ele>456.0</ele><time>2026-04-18T11:12:08.288Z</time></trkpt><trkpt lat="43.4889538" lon="12.9275027"><ele>456.25</ele><time>2026-04-18T11:12:09.289Z</time></trkpt><trkpt lat="43.4890951" lon="12.9274328"><ele>456.5</ele><time>2026-04-18T11:12:10.288Z</time></trkpt><trkpt lat="43.489233" lon="12.9273615"><ele>456.75</ele><time>2026-04-18T11:12:11.288Z</time></trkpt><trkpt lat="43.4893692" lon="12.9272971"><ele>457.0</ele><time>2026-04-18T11:12:12.289Z</time></trkpt><trkpt lat="43.4895034" lon="12.9272425"><ele>457.75</ele><time>2026-04-18T11:12:13.288Z</time></trkpt><trkpt lat="43.4896294" lon="12.9272119"><ele>458.5</ele><time>2026-04-18T11:12:14.288Z</time></trkpt><trkpt lat="43.4897501" lon="12.9272003"><ele>459.25</ele><time>2026-04-18T11:12:15.288Z</time></trkpt><trkpt lat="43.4898707" lon="12.9272208"><ele>460.0</ele><time>2026-04-18T11:12:16.288Z</time></trkpt><trkpt lat="43.4899892" lon="12.9272894"><ele>460.0</ele><time>2026-04-18T11:12:17.289Z</time></trkpt><trkpt lat="43.490093" lon="12.927402"><ele>460.0</ele><time>2026-04-18T11:12:18.289Z</time></trkpt><trkpt lat="43.4901694" lon="12.9275517"><ele>460.0</ele><time>2026-04-18T11:12:19.288Z</time></trkpt><trkpt lat="43.4902189" lon="12.9277374"><ele>460.0</ele><time>2026-04-18T11:12:20.289Z</time></trkpt><trkpt lat="43.4902412" lon="12.9279167"><ele>460.5</ele><time>2026-04-18T11:12:21.289Z</time></trkpt><trkpt lat="43.4902566" lon="12.9280904"><ele>461.0</ele><time>2026-04-18T11:12:22.288Z</time></trkpt><trkpt lat="43.49027" lon="12.9282552"><ele>461.5</ele><time>2026-04-18T11:12:23.288Z</time></trkpt><trkpt lat="43.4902964" lon="12.9284091"><ele>462.0</ele><time>2026-04-18T11:12:24.288Z</time></trkpt><trkpt lat="43.4903491" lon="12.9285617"><ele>461.75</ele><time>2026-04-18T11:12:25.288Z</time></trkpt><trkpt lat="43.4904272" lon="12.9287042"><ele>461.5</ele><time>2026-04-18T11:12:26.288Z</time></trkpt><trkpt lat="43.4905236" lon="12.9288386"><ele>461.25</ele><time>2026-04-18T11:12:27.289Z</time></trkpt><trkpt lat="43.4906257" lon="12.9289669"><ele>461.0</ele><time>2026-04-18T11:12:28.288Z</time></trkpt><trkpt lat="43.4907232" lon="12.9290982"><ele>461.0</ele><time>2026-04-18T11:12:29.288Z</time></trkpt><trkpt lat="43.4908101" lon="12.9292173"><ele>461.0</ele><time>2026-04-18T11:12:30.289Z</time></trkpt><trkpt lat="43.490877" lon="12.929336"><ele>461.0</ele><time>2026-04-18T11:12:31.288Z</time></trkpt><trkpt lat="43.4909199" lon="12.9294595"><ele>461.0</ele><time>2026-04-18T11:12:32.289Z</time></trkpt><trkpt lat="43.4909358" lon="12.9296035"><ele>461.0</ele><time>2026-04-18T11:12:33.288Z</time></trkpt><trkpt lat="43.4909255" lon="12.929749"><ele>461.4</ele><time>2026-04-18T11:12:34.288Z</time></trkpt><trkpt lat="43.4909062" lon="12.9298916"><ele>461.8</ele><time>2026-04-18T11:12:35.289Z</time></trkpt><trkpt lat="43.4908828" lon="12.9300225"><ele>462.19999999999993</ele><time>2026-04-18T11:12:36.288Z</time></trkpt><trkpt lat="43.4908652" lon="12.9301355"><ele>462.59999999999997</ele><time>2026-04-18T11:12:37.289Z</time></trkpt><trkpt lat="43.4908518" lon="12.9302316"><ele>463.0</ele><time>2026-04-18T11:12:38.289Z</time></trkpt><trkpt lat="43.4908238" lon="12.9303706"><ele>464.6666666666667</ele><time>2026-04-18T11:12:40.289Z</time></trkpt><trkpt lat="43.4907984" lon="12.9304977"><ele>466.33333333333337</ele><time>2026-04-18T11:12:42.289Z</time></trkpt><trkpt lat="43.4907754" lon="12.9305913"><ele>468.0</ele><time>2026-04-18T11:12:44.288Z</time></trkpt><trkpt lat="43.4907607" lon="12.9306804"><ele>469.66666666666663</ele><time>2026-04-18T11:12:47.289Z</time></trkpt><trkpt lat="43.4907622" lon="12.9307834"><ele>471.3333333333333</ele><time>2026-04-18T11:12:59.289Z</time></trkpt><trkpt lat="43.4908115" lon="12.9306503"><ele>473.0</ele><time>2026-04-18T11:13:02.288Z</time></trkpt><trkpt lat="43.4908312" lon="12.930556"><ele>472.99999999999994</ele><time>2026-04-18T11:13:03.288Z</time></trkpt><trkpt lat="43.4908471" lon="12.9304605"><ele>473.0</ele><time>2026-04-18T11:13:04.288Z</time></trkpt><trkpt lat="43.4908623" lon="12.9303595"><ele>473.0</ele><time>2026-04-18T11:13:05.289Z</time></trkpt><trkpt lat="43.4908799" lon="12.930243"><ele>473.0</ele><time>2026-04-18T11:13:06.288Z</time></trkpt><trkpt lat="43.4908999" lon="12.9301255"><ele>472.99999999999994</ele><time>2026-04-18T11:13:07.288Z</time></trkpt><trkpt lat="43.4909183" lon="12.930005"><ele>473.0</ele><time>2026-04-18T11:13:08.288Z</time></trkpt><trkpt lat="43.4909323" lon="12.9298954"><ele>471.3333333333333</ele><time>2026-04-18T11:13:09.288Z</time></trkpt><trkpt lat="43.4909453" lon="12.9297894"><ele>469.66666666666663</ele><time>2026-04-18T11:13:10.288Z</time></trkpt><trkpt lat="43.490953" lon="12.9296909"><ele>468.0</ele><time>2026-04-18T11:13:11.288Z</time></trkpt><trkpt lat="43.4909563" lon="12.9296039"><ele>466.33333333333337</ele><time>2026-04-18T11:13:12.289Z</time></trkpt><trkpt lat="43.490947" lon="12.9294715"><ele>464.6666666666667</ele><time>2026-04-18T11:13:14.289Z</time></trkpt><trkpt lat="43.4908824" lon="12.9295192"><ele>463.0</ele><time>2026-04-18T11:13:17.288Z</time></trkpt><trkpt lat="43.4908626" lon="12.9297066"><ele>463.0</ele><time>2026-04-18T11:13:19.288Z</time></trkpt><trkpt lat="43.490835" lon="12.9298205"><ele>462.99999999999994</ele><time>2026-04-18T11:13:20.288Z</time></trkpt><trkpt lat="43.4907974" lon="12.9299434"><ele>462.99999999999994</ele><time>2026-04-18T11:13:21.288Z</time></trkpt><trkpt lat="43.4907582" lon="12.9300721"><ele>463.0</ele><time>2026-04-18T11:13:22.289Z</time></trkpt><trkpt lat="43.4907176" lon="12.9301998"><ele>463.0</ele><time>2026-04-18T11:13:23.288Z</time></trkpt><trkpt lat="43.4906793" lon="12.9303297"><ele>465.0</ele><time>2026-04-18T11:13:24.289Z</time></trkpt><trkpt lat="43.4906392" lon="12.9304515"><ele>466.99999999999994</ele><time>2026-04-18T11:13:25.289Z</time></trkpt><trkpt lat="43.4905997" lon="12.9305815"><ele>468.99999999999994</ele><time>2026-04-18T11:13:26.288Z</time></trkpt><trkpt lat="43.4905495" lon="12.9307108"><ele>471.0</ele><time>2026-04-18T11:13:27.289Z</time></trkpt><trkpt lat="43.4905038" lon="12.930879"><ele>473.0</ele><time>2026-04-18T11:13:28.288Z</time></trkpt><trkpt lat="43.4904527" lon="12.9310441"><ele>464.75</ele><time>2026-04-18T11:13:29.288Z</time></trkpt><trkpt lat="43.4903999" lon="12.9312105"><ele>456.5</ele><time>2026-04-18T11:13:30.289Z</time></trkpt><trkpt lat="43.4903445" lon="12.9313838"><ele>448.25</ele><time>2026-04-18T11:13:31.288Z</time></trkpt><trkpt lat="43.4902906" lon="12.9315537"><ele>440.0</ele><time>2026-04-18T11:13:32.289Z</time></trkpt><trkpt lat="43.4902384" lon="12.9317145"><ele>442.4</ele><time>2026-04-18T11:13:33.288Z</time></trkpt><trkpt lat="43.4902032" lon="12.9318661"><ele>444.8</ele><time>2026-04-18T11:13:34.288Z</time></trkpt><trkpt lat="43.4901972" lon="12.9320032"><ele>447.20000000000005</ele><time>2026-04-18T11:13:35.288Z</time></trkpt><trkpt lat="43.4901932" lon="12.9321243"><ele>449.6</ele><time>2026-04-18T11:13:36.289Z</time></trkpt><trkpt lat="43.4901717" lon="12.9322233"><ele>452.0</ele><time>2026-04-18T11:13:37.288Z</time></trkpt><trkpt lat="43.4900849" lon="12.9322671"><ele>452.0</ele><time>2026-04-18T11:13:39.289Z</time></trkpt><trkpt lat="43.4900619" lon="12.9321188"><ele>452.00000000000006</ele><time>2026-04-18T11:13:41.289Z</time></trkpt><trkpt lat="43.4900855" lon="12.9319948"><ele>452.00000000000006</ele><time>2026-04-18T11:13:42.288Z</time></trkpt><trkpt lat="43.4901088" lon="12.9318517"><ele>452.0</ele><time>2026-04-18T11:13:43.288Z</time></trkpt><trkpt lat="43.490135" lon="12.9317123"><ele>452.0</ele><time>2026-04-18T11:13:44.289Z</time></trkpt><trkpt lat="43.4901613" lon="12.9315703"><ele>449.99999999999994</ele><time>2026-04-18T11:13:45.289Z</time></trkpt><trkpt lat="43.4901886" lon="12.9314327"><ele>448.0</ele><time>2026-04-18T11:13:46.288Z</time></trkpt><trkpt lat="43.4902153" lon="12.9313055"><ele>446.0</ele><time>2026-04-18T11:13:47.288Z</time></trkpt><trkpt lat="43.4902308" lon="12.9311937"><ele>444.0</ele><time>2026-04-18T11:13:48.289Z</time></trkpt><trkpt lat="43.4902152" lon="12.9310912"><ele>441.99999999999994</ele><time>2026-04-18T11:13:49.289Z</time></trkpt><trkpt lat="43.4901615" lon="12.9310373"><ele>440.0</ele><time>2026-04-18T11:13:50.288Z</time></trkpt><trkpt lat="43.4900895" lon="12.9310454"><ele>440.0</ele><time>2026-04-18T11:13:51.288Z</time></trkpt><trkpt lat="43.4900421" lon="12.931132"><ele>440.0</ele><time>2026-04-18T11:13:52.288Z</time></trkpt><trkpt lat="43.4900227" lon="12.9312484"><ele>440.0</ele><time>2026-04-18T11:13:53.288Z</time></trkpt><trkpt lat="43.4900088" lon="12.9313976"><ele>440.0</ele><time>2026-04-18T11:13:54.288Z</time></trkpt><trkpt lat="43.4899887" lon="12.9315667"><ele>440.0</ele><time>2026-04-18T11:13:55.288Z</time></trkpt><trkpt lat="43.4899568" lon="12.9317292"><ele>443.0</ele><time>2026-04-18T11:13:56.288Z</time></trkpt><trkpt lat="43.4898901" lon="12.9318865"><ele>446.0</ele><time>2026-04-18T11:13:57.288Z</time></trkpt><trkpt lat="43.4898284" lon="12.9320484"><ele>449.0</ele><time>2026-04-18T11:13:58.288Z</time></trkpt><trkpt lat="43.4897612" lon="12.9322127"><ele>452.0</ele><time>2026-04-18T11:13:59.288Z</time></trkpt><trkpt lat="43.4896895" lon="12.9323663"><ele>452.0</ele><time>2026-04-18T11:14:00.288Z</time></trkpt><trkpt lat="43.489616" lon="12.9325073"><ele>452.0</ele><time>2026-04-18T11:14:01.288Z</time></trkpt><trkpt lat="43.4895292" lon="12.9326253"><ele>452.0</ele><time>2026-04-18T11:14:02.288Z</time></trkpt><trkpt lat="43.489434" lon="12.9327256"><ele>452.0</ele><time>2026-04-18T11:14:03.289Z</time></trkpt><trkpt lat="43.4892855" lon="12.9328033"><ele>448.3333333333333</ele><time>2026-04-18T11:14:04.288Z</time></trkpt><trkpt lat="43.489138" lon="12.932899"><ele>444.66666666666663</ele><time>2026-04-18T11:14:05.289Z</time></trkpt><trkpt lat="43.4889849" lon="12.9329954"><ele>441.0</ele><time>2026-04-18T11:14:06.288Z</time></trkpt><trkpt lat="43.4888348" lon="12.9330954"><ele>440.0</ele><time>2026-04-18T11:14:07.288Z</time></trkpt><trkpt lat="43.4886823" lon="12.9332114"><ele>439.0</ele><time>2026-04-18T11:14:08.289Z</time></trkpt><trkpt lat="43.4885393" lon="12.9333547"><ele>438.0</ele><time>2026-04-18T11:14:09.288Z</time></trkpt><trkpt lat="43.4884163" lon="12.9334883"><ele>438.0</ele><time>2026-04-18T11:14:10.288Z</time></trkpt><trkpt lat="43.4883004" lon="12.9336132"><ele>438.0</ele><time>2026-04-18T11:14:11.289Z</time></trkpt><trkpt lat="43.4881843" lon="12.9337082"><ele>438.0</ele><time>2026-04-18T11:14:12.289Z</time></trkpt><trkpt lat="43.4880499" lon="12.9337515"><ele>438.0</ele><time>2026-04-18T11:14:13.289Z</time></trkpt><trkpt lat="43.4879068" lon="12.9337788"><ele>432.66666666666663</ele><time>2026-04-18T11:14:14.289Z</time></trkpt><trkpt lat="43.4877584" lon="12.9338044"><ele>427.3333333333333</ele><time>2026-04-18T11:14:15.288Z</time></trkpt><trkpt lat="43.487599" lon="12.9338276"><ele>422.0</ele><time>2026-04-18T11:14:16.289Z</time></trkpt><trkpt lat="43.4874307" lon="12.9338602"><ele>422.0</ele><time>2026-04-18T11:14:17.288Z</time></trkpt><trkpt lat="43.4872666" lon="12.9339382"><ele>422.0</ele><time>2026-04-18T11:14:18.289Z</time></trkpt><trkpt lat="43.487113" lon="12.9339875"><ele>422.0</ele><time>2026-04-18T11:14:19.288Z</time></trkpt><trkpt lat="43.4869607" lon="12.9340696"><ele>421.3333333333333</ele><time>2026-04-18T11:14:20.288Z</time></trkpt><trkpt lat="43.4868152" lon="12.9341557"><ele>420.66666666666663</ele><time>2026-04-18T11:14:21.288Z</time></trkpt><trkpt lat="43.4866732" lon="12.9342596"><ele>420.0</ele><time>2026-04-18T11:14:22.288Z</time></trkpt><trkpt lat="43.4865331" lon="12.9343696"><ele>420.0</ele><time>2026-04-18T11:14:23.288Z</time></trkpt><trkpt lat="43.4863988" lon="12.9345245"><ele>420.0</ele><time>2026-04-18T11:14:24.288Z</time></trkpt><trkpt lat="43.4862649" lon="12.9346463"><ele>420.0</ele><time>2026-04-18T11:14:25.288Z</time></trkpt><trkpt lat="43.486127" lon="12.9347417"><ele>410.33333333333337</ele><time>2026-04-18T11:14:26.288Z</time></trkpt><trkpt lat="43.4859797" lon="12.9348082"><ele>400.6666666666667</ele><time>2026-04-18T11:14:27.288Z</time></trkpt><trkpt lat="43.4858296" lon="12.9348736"><ele>391.0</ele><time>2026-04-18T11:14:28.288Z</time></trkpt><trkpt lat="43.485686" lon="12.9349552"><ele>390.33333333333337</ele><time>2026-04-18T11:14:29.288Z</time></trkpt><trkpt lat="43.4855557" lon="12.9350684"><ele>389.66666666666663</ele><time>2026-04-18T11:14:30.288Z</time></trkpt><trkpt lat="43.4854287" lon="12.9352076"><ele>389.0</ele><time>2026-04-18T11:14:31.289Z</time></trkpt><trkpt lat="43.4852995" lon="12.9353391"><ele>389.0</ele><time>2026-04-18T11:14:32.289Z</time></trkpt><trkpt lat="43.4851635" lon="12.9354492"><ele>389.0</ele><time>2026-04-18T11:14:33.289Z</time></trkpt><trkpt lat="43.4850113" lon="12.9355288"><ele>389.0</ele><time>2026-04-18T11:14:34.288Z</time></trkpt><trkpt lat="43.484857" lon="12.9355975"><ele>389.0</ele><time>2026-04-18T11:14:35.289Z</time></trkpt><trkpt lat="43.4847049" lon="12.9356805"><ele>389.0</ele><time>2026-04-18T11:14:36.288Z</time></trkpt><trkpt lat="43.4845714" lon="12.9358157"><ele>389.0</ele><time>2026-04-18T11:14:37.289Z</time></trkpt><trkpt lat="43.4844412" lon="12.9359483"><ele>387.0</ele><time>2026-04-18T11:14:38.288Z</time></trkpt><trkpt lat="43.4843161" lon="12.9360834"><ele>385.0</ele><time>2026-04-18T11:14:39.288Z</time></trkpt><trkpt lat="43.4841976" lon="12.9361951"><ele>383.0</ele><time>2026-04-18T11:14:40.289Z</time></trkpt><trkpt lat="43.4840895" lon="12.936304"><ele>381.0</ele><time>2026-04-18T11:14:41.288Z</time></trkpt><trkpt lat="43.4839937" lon="12.9364037"><ele>381.0</ele><time>2026-04-18T11:14:42.288Z</time></trkpt><trkpt lat="43.4839256" lon="12.9365053"><ele>381.0</ele><time>2026-04-18T11:14:43.288Z</time></trkpt><trkpt lat="43.4838861" lon="12.9366176"><ele>381.0</ele><time>2026-04-18T11:14:44.288Z</time></trkpt><trkpt lat="43.4838419" lon="12.936706"><ele>381.0</ele><time>2026-04-18T11:14:45.289Z</time></trkpt><trkpt lat="43.4837785" lon="12.9367262"><ele>381.0</ele><time>2026-04-18T11:14:46.289Z</time></trkpt><trkpt lat="43.4837152" lon="12.936598"><ele>381.0</ele><time>2026-04-18T11:14:48.288Z</time></trkpt><trkpt lat="43.4837503" lon="12.9365154"><ele>381.0</ele><time>2026-04-18T11:14:49.288Z</time></trkpt><trkpt lat="43.4838211" lon="12.936432"><ele>381.0</ele><time>2026-04-18T11:14:50.288Z</time></trkpt><trkpt lat="43.483897" lon="12.9363268"><ele>381.0</ele><time>2026-04-18T11:14:51.289Z</time></trkpt><trkpt lat="43.4839816" lon="12.9362107"><ele>381.0</ele><time>2026-04-18T11:14:52.288Z</time></trkpt><trkpt lat="43.4840703" lon="12.9360774"><ele>381.0</ele><time>2026-04-18T11:14:53.288Z</time></trkpt><trkpt lat="43.4841558" lon="12.9359258"><ele>381.0</ele><time>2026-04-18T11:14:54.288Z</time></trkpt><trkpt lat="43.484221" lon="12.9357666"><ele>381.0</ele><time>2026-04-18T11:14:55.289Z</time></trkpt><trkpt lat="43.4842865" lon="12.9356196"><ele>381.0</ele><time>2026-04-18T11:14:56.288Z</time></trkpt><trkpt lat="43.484312" lon="12.9354939"><ele>377.5</ele><time>2026-04-18T11:14:57.288Z</time></trkpt><trkpt lat="43.4843186" lon="12.9353703"><ele>374.0</ele><time>2026-04-18T11:14:58.288Z</time></trkpt><trkpt lat="43.4842748" lon="12.9352869"><ele>370.5</ele><time>2026-04-18T11:14:59.289Z</time></trkpt><trkpt lat="43.4842073" lon="12.9352688"><ele>367.0</ele><time>2026-04-18T11:15:00.289Z</time></trkpt><trkpt lat="43.4841438" lon="12.9353121"><ele>363.5</ele><time>2026-04-18T11:15:01.289Z</time></trkpt><trkpt lat="43.4840955" lon="12.9354177"><ele>360.0</ele><time>2026-04-18T11:15:02.288Z</time></trkpt><trkpt lat="43.4840541" lon="12.9355546"><ele>360.0</ele><time>2026-04-18T11:15:03.288Z</time></trkpt><trkpt lat="43.4840004" lon="12.9357004"><ele>360.0</ele><time>2026-04-18T11:15:04.288Z</time></trkpt><trkpt lat="43.4839102" lon="12.9358203"><ele>360.0</ele><time>2026-04-18T11:15:05.289Z</time></trkpt><trkpt lat="43.4838153" lon="12.9359444"><ele>360.0</ele><time>2026-04-18T11:15:06.288Z</time></trkpt><trkpt lat="43.4836913" lon="12.936031"><ele>355.6666666666667</ele><time>2026-04-18T11:15:07.288Z</time></trkpt><trkpt lat="43.4835263" lon="12.9361081"><ele>351.33333333333337</ele><time>2026-04-18T11:15:08.289Z</time></trkpt><trkpt lat="43.4833861" lon="12.9361814"><ele>347.0</ele><time>2026-04-18T11:15:09.288Z</time></trkpt><trkpt lat="43.483252" lon="12.9362481"><ele>347.0</ele><time>2026-04-18T11:15:10.288Z</time></trkpt><trkpt lat="43.4831269" lon="12.936309"><ele>347.0</ele><time>2026-04-18T11:15:11.288Z</time></trkpt><trkpt lat="43.483014" lon="12.9363951"><ele>347.0</ele><time>2026-04-18T11:15:12.288Z</time></trkpt><trkpt lat="43.4829181" lon="12.9365138"><ele>347.0</ele><time>2026-04-18T11:15:13.288Z</time></trkpt><trkpt lat="43.4828349" lon="12.9366677"><ele>342.5</ele><time>2026-04-18T11:15:14.288Z</time></trkpt><trkpt lat="43.4827503" lon="12.9368223"><ele>338.0</ele><time>2026-04-18T11:15:15.288Z</time></trkpt><trkpt lat="43.4826569" lon="12.9369643"><ele>333.5</ele><time>2026-04-18T11:15:16.289Z</time></trkpt><trkpt lat="43.4825678" lon="12.9370957"><ele>329.0</ele><time>2026-04-18T11:15:17.289Z</time></trkpt><trkpt lat="43.4824811" lon="12.9372239"><ele>329.0</ele><time>2026-04-18T11:15:18.289Z</time></trkpt><trkpt lat="43.4824132" lon="12.9373858"><ele>329.0</ele><time>2026-04-18T11:15:19.288Z</time></trkpt><trkpt lat="43.4823634" lon="12.9375749"><ele>329.0</ele><time>2026-04-18T11:15:20.288Z</time></trkpt><trkpt lat="43.4823355" lon="12.9377796"><ele>329.0</ele><time>2026-04-18T11:15:21.288Z</time></trkpt><trkpt lat="43.4823206" lon="12.9379799"><ele>329.75</ele><time>2026-04-18T11:15:22.288Z</time></trkpt><trkpt lat="43.4823083" lon="12.9381721"><ele>330.5</ele><time>2026-04-18T11:15:23.288Z</time></trkpt><trkpt lat="43.4822781" lon="12.9383472"><ele>331.25</ele><time>2026-04-18T11:15:24.288Z</time></trkpt><trkpt lat="43.482239" lon="12.9385199"><ele>332.0</ele><time>2026-04-18T11:15:25.288Z</time></trkpt><trkpt lat="43.4821893" lon="12.9386898"><ele>332.0</ele><time>2026-04-18T11:15:26.288Z</time></trkpt><trkpt lat="43.4821501" lon="12.938861"><ele>332.0</ele><time>2026-04-18T11:15:27.288Z</time></trkpt><trkpt lat="43.4821297" lon="12.9390114"><ele>332.0</ele><time>2026-04-18T11:15:28.288Z</time></trkpt><trkpt lat="43.4821216" lon="12.9391563"><ele>332.0</ele><time>2026-04-18T11:15:29.288Z</time></trkpt><trkpt lat="43.4821317" lon="12.9392898"><ele>332.0</ele><time>2026-04-18T11:15:30.288Z</time></trkpt><trkpt lat="43.4821634" lon="12.9394178"><ele>330.0</ele><time>2026-04-18T11:15:31.289Z</time></trkpt><trkpt lat="43.4821991" lon="12.9395338"><ele>328.0</ele><time>2026-04-18T11:15:32.288Z</time></trkpt><trkpt lat="43.4822261" lon="12.9396515"><ele>326.0</ele><time>2026-04-18T11:15:33.288Z</time></trkpt><trkpt lat="43.4822316" lon="12.9397646"><ele>324.0</ele><time>2026-04-18T11:15:34.288Z</time></trkpt><trkpt lat="43.4821988" lon="12.9398823"><ele>322.0</ele><time>2026-04-18T11:15:35.289Z</time></trkpt><trkpt lat="43.482143" lon="12.9400026"><ele>320.66666666666663</ele><time>2026-04-18T11:15:36.289Z</time></trkpt><trkpt lat="43.4820773" lon="12.9400994"><ele>319.3333333333333</ele><time>2026-04-18T11:15:37.288Z</time></trkpt><trkpt lat="43.4820054" lon="12.9401507"><ele>318.0</ele><time>2026-04-18T11:15:38.289Z</time></trkpt><trkpt lat="43.4819263" lon="12.9401567"><ele>316.6666666666667</ele><time>2026-04-18T11:15:40.289Z</time></trkpt><trkpt lat="43.4818605" lon="12.940158"><ele>315.33333333333337</ele><time>2026-04-18T11:15:45.289Z</time></trkpt><trkpt lat="43.4818206" lon="12.940234"><ele>314.0</ele><time>2026-04-18T11:16:45.289Z</time></trkpt><trkpt lat="43.4818426" lon="12.9403286"><ele>314.0</ele><time>2026-04-18T11:16:49.289Z</time></trkpt><trkpt lat="43.481916" lon="12.940374"><ele>314.0</ele><time>2026-04-18T11:16:52.288Z</time></trkpt><trkpt lat="43.4819996" lon="12.9404019"><ele>314.0</ele><time>2026-04-18T11:16:55.198Z</time></trkpt><trkpt lat="43.4820836" lon="12.9403941"><ele>314.0</ele><time>2026-04-18T11:16:57.237Z</time></trkpt><trkpt lat="43.4821688" lon="12.940414"><ele>314.0</ele><time>2026-04-18T11:16:59.288Z</time></trkpt><trkpt lat="43.48224" lon="12.9404822"><ele>314.0</ele><time>2026-04-18T11:17:01.288Z</time></trkpt><trkpt lat="43.4823158" lon="12.9405943"><ele>314.1666666666667</ele><time>2026-04-18T11:17:03.288Z</time></trkpt><trkpt lat="43.4823671" lon="12.9406981"><ele>314.33333333333337</ele><time>2026-04-18T11:17:05.288Z</time></trkpt><trkpt lat="43.4823918" lon="12.9407948"><ele>314.5</ele><time>2026-04-18T11:17:07.288Z</time></trkpt><trkpt lat="43.4824082" lon="12.9409102"><ele>314.6666666666667</ele><time>2026-04-18T11:17:09.289Z</time></trkpt><trkpt lat="43.4824172" lon="12.9410134"><ele>314.8333333333333</ele><time>2026-04-18T11:17:11.289Z</time></trkpt><trkpt lat="43.4824004" lon="12.9411607"><ele>315.0</ele><time>2026-04-18T11:17:13.289Z</time></trkpt><trkpt lat="43.4823917" lon="12.9412524"><ele>314.25</ele><time>2026-04-18T11:17:14.289Z</time></trkpt><trkpt lat="43.4823631" lon="12.9414123"><ele>313.5</ele><time>2026-04-18T11:17:16.288Z</time></trkpt><trkpt lat="43.4823189" lon="12.9415843"><ele>312.75</ele><time>2026-04-18T11:17:18.288Z</time></trkpt><trkpt lat="43.4822911" lon="12.941733"><ele>312.0</ele><time>2026-04-18T11:17:20.288Z</time></trkpt><trkpt lat="43.4823141" lon="12.9418833"><ele>313.6</ele><time>2026-04-18T11:17:22.288Z</time></trkpt><trkpt lat="43.4823472" lon="12.9420417"><ele>315.2</ele><time>2026-04-18T11:17:24.288Z</time></trkpt><trkpt lat="43.4824063" lon="12.9421866"><ele>316.8</ele><time>2026-04-18T11:17:26.288Z</time></trkpt><trkpt lat="43.4824595" lon="12.942235"><ele>318.4</ele><time>2026-04-18T11:17:27.288Z</time></trkpt><trkpt lat="43.4825019" lon="12.9422993"><ele>320.0</ele><time>2026-04-18T11:17:28.288Z</time></trkpt><trkpt lat="43.482582" lon="12.9424104"><ele>320.0</ele><time>2026-04-18T11:17:30.289Z</time></trkpt><trkpt lat="43.4826701" lon="12.9425234"><ele>320.0</ele><time>2026-04-18T11:17:32.288Z</time></trkpt><trkpt lat="43.482725" lon="12.9425848"><ele>320.0</ele><time>2026-04-18T11:17:33.289Z</time></trkpt><trkpt lat="43.482789" lon="12.9426415"><ele>320.0</ele><time>2026-04-18T11:17:34.288Z</time></trkpt><trkpt lat="43.4828512" lon="12.9427061"><ele>320.0</ele><time>2026-04-18T11:17:35.288Z</time></trkpt><trkpt lat="43.482907" lon="12.9427696"><ele>320.0</ele><time>2026-04-18T11:17:36.289Z</time></trkpt><trkpt lat="43.4829898" lon="12.9428687"><ele>319.0</ele><time>2026-04-18T11:17:38.288Z</time></trkpt><trkpt lat="43.4830618" lon="12.9429746"><ele>318.0</ele><time>2026-04-18T11:17:40.288Z</time></trkpt><trkpt lat="43.4831396" lon="12.9431016"><ele>317.0</ele><time>2026-04-18T11:17:42.288Z</time></trkpt><trkpt lat="43.4831985" lon="12.9431563"><ele>316.0</ele><time>2026-04-18T11:17:43.289Z</time></trkpt><trkpt lat="43.4832595" lon="12.9432231"><ele>315.0</ele><time>2026-04-18T11:17:44.288Z</time></trkpt><trkpt lat="43.4833179" lon="12.9432896"><ele>315.0</ele><time>2026-04-18T11:17:45.288Z</time></trkpt><trkpt lat="43.4833745" lon="12.9433617"><ele>315.0</ele><time>2026-04-18T11:17:46.288Z</time></trkpt><trkpt lat="43.4834262" lon="12.9434337"><ele>315.0</ele><time>2026-04-18T11:17:47.289Z</time></trkpt><trkpt lat="43.4834771" lon="12.9435035"><ele>315.0</ele><time>2026-04-18T11:17:48.289Z</time></trkpt><trkpt lat="43.4835361" lon="12.943571"><ele>315.0</ele><time>2026-04-18T11:17:49.289Z</time></trkpt><trkpt lat="43.4835921" lon="12.9436268"><ele>315.0</ele><time>2026-04-18T11:17:50.288Z</time></trkpt><trkpt lat="43.4836499" lon="12.9436879"><ele>315.0</ele><time>2026-04-18T11:17:51.289Z</time></trkpt><trkpt lat="43.4836964" lon="12.9437518"><ele>313.0</ele><time>2026-04-18T11:17:52.289Z</time></trkpt><trkpt lat="43.4837783" lon="12.9438366"><ele>311.0</ele><time>2026-04-18T11:17:54.289Z</time></trkpt><trkpt lat="43.4838684" lon="12.9439092"><ele>309.0</ele><time>2026-04-18T11:17:56.288Z</time></trkpt><trkpt lat="43.4839525" lon="12.9440191"><ele>307.0</ele><time>2026-04-18T11:17:58.288Z</time></trkpt><trkpt lat="43.4840012" lon="12.9440895"><ele>305.0</ele><time>2026-04-18T11:17:59.289Z</time></trkpt><trkpt lat="43.4840505" lon="12.9441495"><ele>307.5</ele><time>2026-04-18T11:18:00.288Z</time></trkpt><trkpt lat="43.4840911" lon="12.9442181"><ele>310.0</ele><time>2026-04-18T11:18:01.289Z</time></trkpt><trkpt lat="43.4841337" lon="12.9442881"><ele>312.5</ele><time>2026-04-18T11:18:02.289Z</time></trkpt><trkpt lat="43.4841786" lon="12.9443501"><ele>315.0</ele><time>2026-04-18T11:18:03.288Z</time></trkpt><trkpt lat="43.4842401" lon="12.9444641"><ele>317.5</ele><time>2026-04-18T11:18:05.288Z</time></trkpt><trkpt lat="43.4842855" lon="12.9446018"><ele>320.0</ele><time>2026-04-18T11:18:07.288Z</time></trkpt><trkpt lat="43.484349" lon="12.9447538"><ele>320.0</ele><time>2026-04-18T11:18:09.288Z</time></trkpt><trkpt lat="43.4843872" lon="12.9448359"><ele>320.0</ele><time>2026-04-18T11:18:10.289Z</time></trkpt><trkpt lat="43.4844305" lon="12.9449197"><ele>320.0</ele><time>2026-04-18T11:18:11.288Z</time></trkpt><trkpt lat="43.4844855" lon="12.944996"><ele>320.0</ele><time>2026-04-18T11:18:12.288Z</time></trkpt><trkpt lat="43.4845326" lon="12.9450604"><ele>320.0</ele><time>2026-04-18T11:18:13.288Z</time></trkpt><trkpt lat="43.4845809" lon="12.9451164"><ele>320.0</ele><time>2026-04-18T11:18:14.289Z</time></trkpt><trkpt lat="43.4846291" lon="12.9451757"><ele>320.0</ele><time>2026-04-18T11:18:15.288Z</time></trkpt><trkpt lat="43.4846697" lon="12.9452492"><ele>317.1666666666667</ele><time>2026-04-18T11:18:16.289Z</time></trkpt><trkpt lat="43.4847065" lon="12.9453333"><ele>314.33333333333337</ele><time>2026-04-18T11:18:17.288Z</time></trkpt><trkpt lat="43.484742" lon="12.9454132"><ele>311.5</ele><time>2026-04-18T11:18:18.288Z</time></trkpt><trkpt lat="43.4847574" lon="12.9455027"><ele>308.6666666666667</ele><time>2026-04-18T11:18:19.288Z</time></trkpt><trkpt lat="43.4847839" lon="12.9456591"><ele>305.8333333333333</ele><time>2026-04-18T11:18:21.288Z</time></trkpt><trkpt lat="43.4848083" lon="12.9458293"><ele>303.0</ele><time>2026-04-18T11:18:23.288Z</time></trkpt><trkpt lat="43.4848235" lon="12.9459136"><ele>302.4</ele><time>2026-04-18T11:18:24.288Z</time></trkpt><trkpt lat="43.48484" lon="12.945999"><ele>301.8</ele><time>2026-04-18T11:18:25.288Z</time></trkpt><trkpt lat="43.4848808" lon="12.9461583"><ele>301.2</ele><time>2026-04-18T11:18:27.288Z</time></trkpt><trkpt lat="43.4849414" lon="12.9463219"><ele>300.6</ele><time>2026-04-18T11:18:29.288Z</time></trkpt><trkpt lat="43.4849765" lon="12.9463988"><ele>300.0</ele><time>2026-04-18T11:18:30.288Z</time></trkpt><trkpt lat="43.4850041" lon="12.9464791"><ele>300.0</ele><time>2026-04-18T11:18:31.289Z</time></trkpt><trkpt lat="43.4850309" lon="12.946646"><ele>300.0</ele><time>2026-04-18T11:18:33.288Z</time></trkpt><trkpt lat="43.4850449" lon="12.946736"><ele>300.0</ele><time>2026-04-18T11:18:34.288Z</time></trkpt><trkpt lat="43.4850638" lon="12.9468336"><ele>300.0</ele><time>2026-04-18T11:18:35.289Z</time></trkpt><trkpt lat="43.4850853" lon="12.946933"><ele>300.0</ele><time>2026-04-18T11:18:36.288Z</time></trkpt><trkpt lat="43.4851011" lon="12.9470368"><ele>300.0</ele><time>2026-04-18T11:18:37.288Z</time></trkpt><trkpt lat="43.4851199" lon="12.9471396"><ele>300.1428571428571</ele><time>2026-04-18T11:18:38.289Z</time></trkpt><trkpt lat="43.4851375" lon="12.9472367"><ele>300.2857142857143</ele><time>2026-04-18T11:18:39.288Z</time></trkpt><trkpt lat="43.4851521" lon="12.9473444"><ele>300.42857142857144</ele><time>2026-04-18T11:18:40.289Z</time></trkpt><trkpt lat="43.4851607" lon="12.9474505"><ele>300.57142857142856</ele><time>2026-04-18T11:18:41.289Z</time></trkpt><trkpt lat="43.4851665" lon="12.947555"><ele>300.7142857142857</ele><time>2026-04-18T11:18:42.289Z</time></trkpt><trkpt lat="43.4851667" lon="12.9476475"><ele>300.85714285714283</ele><time>2026-04-18T11:18:43.289Z</time></trkpt><trkpt lat="43.4851619" lon="12.9477416"><ele>301.0</ele><time>2026-04-18T11:18:44.289Z</time></trkpt><trkpt lat="43.4851527" lon="12.9478466"><ele>301.0</ele><time>2026-04-18T11:18:45.288Z</time></trkpt><trkpt lat="43.4851428" lon="12.9479581"><ele>301.0</ele><time>2026-04-18T11:18:46.288Z</time></trkpt><trkpt lat="43.4851393" lon="12.9480629"><ele>301.0</ele><time>2026-04-18T11:18:47.289Z</time></trkpt><trkpt lat="43.4851295" lon="12.9481694"><ele>301.0</ele><time>2026-04-18T11:18:48.288Z</time></trkpt><trkpt lat="43.4851179" lon="12.9482754"><ele>301.0</ele><time>2026-04-18T11:18:49.288Z</time></trkpt><trkpt lat="43.4851046" lon="12.9483724"><ele>301.0</ele><time>2026-04-18T11:18:50.288Z</time></trkpt><trkpt lat="43.4850957" lon="12.9484601"><ele>301.0</ele><time>2026-04-18T11:18:51.289Z</time></trkpt><trkpt lat="43.4851249" lon="12.9486353"><ele>303.0</ele><time>2026-04-18T11:18:53.289Z</time></trkpt><trkpt lat="43.4851622" lon="12.9487249"><ele>305.0</ele><time>2026-04-18T11:18:54.289Z</time></trkpt><trkpt lat="43.4852133" lon="12.9488732"><ele>307.0</ele><time>2026-04-18T11:18:56.289Z</time></trkpt><trkpt lat="43.4852242" lon="12.9490478"><ele>309.0</ele><time>2026-04-18T11:18:58.289Z</time></trkpt><trkpt lat="43.4852285" lon="12.9491464"><ele>311.0</ele><time>2026-04-18T11:18:59.289Z</time></trkpt><trkpt lat="43.4852452" lon="12.949237"><ele>307.6666666666667</ele><time>2026-04-18T11:19:00.289Z</time></trkpt><trkpt lat="43.4853225" lon="12.9493809"><ele>304.33333333333337</ele><time>2026-04-18T11:19:02.288Z</time></trkpt><trkpt lat="43.4853711" lon="12.9494521"><ele>301.0</ele><time>2026-04-18T11:19:03.289Z</time></trkpt><trkpt lat="43.4854265" lon="12.9495079"><ele>297.6666666666667</ele><time>2026-04-18T11:19:04.288Z</time></trkpt><trkpt lat="43.4854926" lon="12.949555"><ele>294.3333333333333</ele><time>2026-04-18T11:19:05.288Z</time></trkpt><trkpt lat="43.4855568" lon="12.9495964"><ele>291.0</ele><time>2026-04-18T11:19:06.289Z</time></trkpt><trkpt lat="43.4856223" lon="12.9496314"><ele>291.0</ele><time>2026-04-18T11:19:07.288Z</time></trkpt><trkpt lat="43.4856821" lon="12.9496713"><ele>291.0</ele><time>2026-04-18T11:19:08.288Z</time></trkpt><trkpt lat="43.4857543" lon="12.9497216"><ele>291.0</ele><time>2026-04-18T11:19:09.288Z</time></trkpt><trkpt lat="43.4858309" lon="12.9497911"><ele>291.0</ele><time>2026-04-18T11:19:10.288Z</time></trkpt><trkpt lat="43.4858991" lon="12.9498577"><ele>291.0</ele><time>2026-04-18T11:19:11.288Z</time></trkpt><trkpt lat="43.4859678" lon="12.9499147"><ele>291.0</ele><time>2026-04-18T11:19:12.289Z</time></trkpt><trkpt lat="43.4860297" lon="12.9499657"><ele>291.0</ele><time>2026-04-18T11:19:13.289Z</time></trkpt><trkpt lat="43.4860881" lon="12.9500231"><ele>291.0</ele><time>2026-04-18T11:19:14.289Z</time></trkpt><trkpt lat="43.4861745" lon="12.9501457"><ele>291.0</ele><time>2026-04-18T11:19:16.289Z</time></trkpt><trkpt lat="43.4862106" lon="12.9502322"><ele>291.0</ele><time>2026-04-18T11:19:17.289Z</time></trkpt><trkpt lat="43.4862483" lon="12.9503224"><ele>291.0</ele><time>2026-04-18T11:19:18.288Z</time></trkpt><trkpt lat="43.4862774" lon="12.9504213"><ele>291.0</ele><time>2026-04-18T11:19:19.289Z</time></trkpt><trkpt lat="43.4863143" lon="12.9505048"><ele>290.3333333333333</ele><time>2026-04-18T11:19:20.288Z</time></trkpt><trkpt lat="43.48635" lon="12.9505848"><ele>289.6666666666667</ele><time>2026-04-18T11:19:21.288Z</time></trkpt><trkpt lat="43.4864111" lon="12.950738"><ele>289.0</ele><time>2026-04-18T11:19:23.289Z</time></trkpt><trkpt lat="43.4864403" lon="12.9508326"><ele>288.33333333333337</ele><time>2026-04-18T11:19:24.288Z</time></trkpt><trkpt lat="43.4864663" lon="12.9509352"><ele>287.6666666666667</ele><time>2026-04-18T11:19:25.288Z</time></trkpt><trkpt lat="43.4865003" lon="12.9510312"><ele>287.0</ele><time>2026-04-18T11:19:26.288Z</time></trkpt><trkpt lat="43.4865387" lon="12.9511073"><ele>289.0</ele><time>2026-04-18T11:19:27.289Z</time></trkpt><trkpt lat="43.4865909" lon="12.951166"><ele>291.0</ele><time>2026-04-18T11:19:28.288Z</time></trkpt><trkpt lat="43.4866409" lon="12.9512239"><ele>293.0</ele><time>2026-04-18T11:19:29.288Z</time></trkpt><trkpt lat="43.4867214" lon="12.9513477"><ele>295.0</ele><time>2026-04-18T11:19:31.289Z</time></trkpt><trkpt lat="43.4867526" lon="12.9514277"><ele>297.0</ele><time>2026-04-18T11:19:32.288Z</time></trkpt><trkpt lat="43.4867868" lon="12.9515274"><ele>299.0</ele><time>2026-04-18T11:19:33.289Z</time></trkpt><trkpt lat="43.4868349" lon="12.95162"><ele>299.0</ele><time>2026-04-18T11:19:34.289Z</time></trkpt><trkpt lat="43.4868803" lon="12.951686"><ele>299.0</ele><time>2026-04-18T11:19:35.288Z</time></trkpt><trkpt lat="43.4869879" lon="12.9517694"><ele>299.0</ele><time>2026-04-18T11:19:37.288Z</time></trkpt><trkpt lat="43.4870528" lon="12.9518166"><ele>299.0</ele><time>2026-04-18T11:19:38.289Z</time></trkpt><trkpt lat="43.4871061" lon="12.9518721"><ele>299.0</ele><time>2026-04-18T11:19:39.288Z</time></trkpt><trkpt lat="43.4871682" lon="12.9519185"><ele>299.0</ele><time>2026-04-18T11:19:40.288Z</time></trkpt><trkpt lat="43.4872419" lon="12.9519427"><ele>296.6666666666667</ele><time>2026-04-18T11:19:41.289Z</time></trkpt><trkpt lat="43.4873212" lon="12.9519637"><ele>294.33333333333337</ele><time>2026-04-18T11:19:42.289Z</time></trkpt><trkpt lat="43.4873937" lon="12.9519939"><ele>292.0</ele><time>2026-04-18T11:19:43.288Z</time></trkpt><trkpt lat="43.4874809" lon="12.9520038"><ele>289.6666666666667</ele><time>2026-04-18T11:19:44.288Z</time></trkpt><trkpt lat="43.487571" lon="12.9520065"><ele>287.3333333333333</ele><time>2026-04-18T11:19:45.288Z</time></trkpt><trkpt lat="43.4876498" lon="12.9520265"><ele>285.0</ele><time>2026-04-18T11:19:46.288Z</time></trkpt><trkpt lat="43.4877354" lon="12.9520648"><ele>285.0</ele><time>2026-04-18T11:19:47.288Z</time></trkpt><trkpt lat="43.4878325" lon="12.9521103"><ele>285.0</ele><time>2026-04-18T11:19:48.289Z</time></trkpt><trkpt lat="43.487934" lon="12.9521693"><ele>285.0</ele><time>2026-04-18T11:19:49.288Z</time></trkpt><trkpt lat="43.4880391" lon="12.9522311"><ele>285.0</ele><time>2026-04-18T11:19:50.289Z</time></trkpt><trkpt lat="43.4881396" lon="12.9522954"><ele>285.0</ele><time>2026-04-18T11:19:51.289Z</time></trkpt><trkpt lat="43.4882418" lon="12.95235"><ele>285.0</ele><time>2026-04-18T11:19:52.288Z</time></trkpt><trkpt lat="43.4883434" lon="12.9524055"><ele>285.0</ele><time>2026-04-18T11:19:53.289Z</time></trkpt><trkpt lat="43.4884412" lon="12.9524705"><ele>285.0</ele><time>2026-04-18T11:19:54.288Z</time></trkpt><trkpt lat="43.4885349" lon="12.9525523"><ele>285.0</ele><time>2026-04-18T11:19:55.288Z</time></trkpt><trkpt lat="43.4886202" lon="12.9526241"><ele>285.0</ele><time>2026-04-18T11:19:56.289Z</time></trkpt><trkpt lat="43.4886953" lon="12.9526742"><ele>284.2</ele><time>2026-04-18T11:19:57.288Z</time></trkpt><trkpt lat="43.4887749" lon="12.9527084"><ele>283.4</ele><time>2026-04-18T11:19:58.289Z</time></trkpt><trkpt lat="43.4888602" lon="12.9527485"><ele>282.6</ele><time>2026-04-18T11:19:59.288Z</time></trkpt><trkpt lat="43.48895" lon="12.9528057"><ele>281.8</ele><time>2026-04-18T11:20:00.288Z</time></trkpt><trkpt lat="43.4890412" lon="12.9528854"><ele>281.0</ele><time>2026-04-18T11:20:01.288Z</time></trkpt><trkpt lat="43.4891346" lon="12.9529597"><ele>281.0</ele><time>2026-04-18T11:20:02.289Z</time></trkpt><trkpt lat="43.4892273" lon="12.9530118"><ele>281.0</ele><time>2026-04-18T11:20:03.289Z</time></trkpt><trkpt lat="43.489329" lon="12.9530488"><ele>281.0</ele><time>2026-04-18T11:20:04.289Z</time></trkpt><trkpt lat="43.4894088" lon="12.9530928"><ele>281.0</ele><time>2026-04-18T11:20:05.288Z</time></trkpt><trkpt lat="43.4894792" lon="12.9531823"><ele>281.0</ele><time>2026-04-18T11:20:06.289Z</time></trkpt><trkpt lat="43.4895738" lon="12.9532877"><ele>282.5</ele><time>2026-04-18T11:20:07.288Z</time></trkpt><trkpt lat="43.4896807" lon="12.9533779"><ele>284.0</ele><time>2026-04-18T11:20:08.288Z</time></trkpt><trkpt lat="43.4897834" lon="12.9534729"><ele>285.5</ele><time>2026-04-18T11:20:09.288Z</time></trkpt><trkpt lat="43.4898849" lon="12.9535723"><ele>287.0</ele><time>2026-04-18T11:20:10.288Z</time></trkpt><trkpt lat="43.489988" lon="12.9536714"><ele>287.0</ele><time>2026-04-18T11:20:11.288Z</time></trkpt><trkpt lat="43.4900931" lon="12.9537681"><ele>287.0</ele><time>2026-04-18T11:20:12.289Z</time></trkpt><trkpt lat="43.4901909" lon="12.9538704"><ele>287.0</ele><time>2026-04-18T11:20:13.288Z</time></trkpt><trkpt lat="43.4902856" lon="12.9539706"><ele>287.0</ele><time>2026-04-18T11:20:14.288Z</time></trkpt><trkpt lat="43.4903828" lon="12.954072"><ele>287.75</ele><time>2026-04-18T11:20:15.289Z</time></trkpt><trkpt lat="43.4904863" lon="12.9541685"><ele>288.5</ele><time>2026-04-18T11:20:16.288Z</time></trkpt><trkpt lat="43.49059" lon="12.9542567"><ele>289.25</ele><time>2026-04-18T11:20:17.289Z</time></trkpt><trkpt lat="43.4906841" lon="12.9543423"><ele>290.0</ele><time>2026-04-18T11:20:18.288Z</time></trkpt><trkpt lat="43.4907605" lon="12.9544241"><ele>290.0</ele><time>2026-04-18T11:20:19.288Z</time></trkpt><trkpt lat="43.490826" lon="12.9544992"><ele>290.0</ele><time>2026-04-18T11:20:20.289Z</time></trkpt><trkpt lat="43.4909004" lon="12.9545616"><ele>290.0</ele><time>2026-04-18T11:20:21.288Z</time></trkpt><trkpt lat="43.4909957" lon="12.9546034"><ele>290.0</ele><time>2026-04-18T11:20:22.288Z</time></trkpt><trkpt lat="43.4910911" lon="12.9546299"><ele>290.0</ele><time>2026-04-18T11:20:23.288Z</time></trkpt><trkpt lat="43.4911718" lon="12.954658"><ele>290.0</ele><time>2026-04-18T11:20:24.288Z</time></trkpt><trkpt lat="43.4912458" lon="12.9546844"><ele>290.0</ele><time>2026-04-18T11:20:25.288Z</time></trkpt><trkpt lat="43.4913182" lon="12.9547568"><ele>290.0</ele><time>2026-04-18T11:20:27.289Z</time></trkpt><trkpt lat="43.4912927" lon="12.9548683"><ele>290.0</ele><time>2026-04-18T11:20:29.289Z</time></trkpt><trkpt lat="43.4911999" lon="12.9549683"><ele>290.0</ele><time>2026-04-18T11:20:31.288Z</time></trkpt><trkpt lat="43.4911605" lon="12.9551098"><ele>288.1666666666667</ele><time>2026-04-18T11:20:33.289Z</time></trkpt><trkpt lat="43.4911724" lon="12.9552014"><ele>286.33333333333337</ele><time>2026-04-18T11:20:34.288Z</time></trkpt><trkpt lat="43.4912324" lon="12.9553365"><ele>284.5</ele><time>2026-04-18T11:20:36.288Z</time></trkpt><trkpt lat="43.4913487" lon="12.9554033"><ele>282.6666666666667</ele><time>2026-04-18T11:20:38.288Z</time></trkpt><trkpt lat="43.4914176" lon="12.9554022"><ele>280.8333333333333</ele><time>2026-04-18T11:20:39.288Z</time></trkpt><trkpt lat="43.4914827" lon="12.9553962"><ele>279.0</ele><time>2026-04-18T11:20:40.289Z</time></trkpt><trkpt lat="43.4915624" lon="12.955474"><ele>281.1428571428571</ele><time>2026-04-18T11:20:42.289Z</time></trkpt><trkpt lat="43.4915297" lon="12.955589"><ele>283.2857142857143</ele><time>2026-04-18T11:20:44.288Z</time></trkpt><trkpt lat="43.491463" lon="12.9556327"><ele>285.42857142857144</ele><time>2026-04-18T11:20:45.288Z</time></trkpt><trkpt lat="43.4914042" lon="12.9556876"><ele>287.57142857142856</ele><time>2026-04-18T11:20:46.288Z</time></trkpt><trkpt lat="43.4913633" lon="12.9557637"><ele>289.7142857142857</ele><time>2026-04-18T11:20:47.289Z</time></trkpt><trkpt lat="43.4913495" lon="12.9558551"><ele>291.85714285714283</ele><time>2026-04-18T11:20:48.289Z</time></trkpt><trkpt lat="43.4913577" lon="12.9559552"><ele>294.0</ele><time>2026-04-18T11:20:49.288Z</time></trkpt><trkpt lat="43.4913841" lon="12.9560654"><ele>294.0</ele><time>2026-04-18T11:20:50.288Z</time></trkpt><trkpt lat="43.491435" lon="12.9561886"><ele>294.0</ele><time>2026-04-18T11:20:51.289Z</time></trkpt><trkpt lat="43.4914949" lon="12.9563164"><ele>294.0</ele><time>2026-04-18T11:20:52.288Z</time></trkpt><trkpt lat="43.4915536" lon="12.9564404"><ele>294.0</ele><time>2026-04-18T11:20:53.289Z</time></trkpt><trkpt lat="43.4916062" lon="12.9565526"><ele>294.0</ele><time>2026-04-18T11:20:54.288Z</time></trkpt><trkpt lat="43.4916545" lon="12.9566645"><ele>290.8</ele><time>2026-04-18T11:20:55.288Z</time></trkpt><trkpt lat="43.4917026" lon="12.9567867"><ele>287.59999999999997</ele><time>2026-04-18T11:20:56.289Z</time></trkpt><trkpt lat="43.4917549" lon="12.956916"><ele>284.4</ele><time>2026-04-18T11:20:57.288Z</time></trkpt><trkpt lat="43.4918094" lon="12.9570467"><ele>281.2</ele><time>2026-04-18T11:20:58.288Z</time></trkpt><trkpt lat="43.4918585" lon="12.9571753"><ele>278.0</ele><time>2026-04-18T11:20:59.288Z</time></trkpt><trkpt lat="43.4919028" lon="12.9573157"><ele>278.0</ele><time>2026-04-18T11:21:00.288Z</time></trkpt><trkpt lat="43.4919511" lon="12.9574391"><ele>278.0</ele><time>2026-04-18T11:21:01.289Z</time></trkpt><trkpt lat="43.4919998" lon="12.9575576"><ele>278.0</ele><time>2026-04-18T11:21:02.289Z</time></trkpt><trkpt lat="43.4920456" lon="12.9576624"><ele>278.0</ele><time>2026-04-18T11:21:03.288Z</time></trkpt><trkpt lat="43.4920871" lon="12.9577781"><ele>278.0</ele><time>2026-04-18T11:21:04.289Z</time></trkpt><trkpt lat="43.4921301" lon="12.9578896"><ele>279.2</ele><time>2026-04-18T11:21:05.288Z</time></trkpt><trkpt lat="43.4921884" lon="12.9579903"><ele>280.4</ele><time>2026-04-18T11:21:06.289Z</time></trkpt><trkpt lat="43.4922612" lon="12.9580911"><ele>281.59999999999997</ele><time>2026-04-18T11:21:07.289Z</time></trkpt><trkpt lat="43.4923377" lon="12.958171"><ele>282.8</ele><time>2026-04-18T11:21:08.289Z</time></trkpt><trkpt lat="43.4924105" lon="12.9582475"><ele>284.0</ele><time>2026-04-18T11:21:09.289Z</time></trkpt><trkpt lat="43.4924806" lon="12.9583254"><ele>281.2</ele><time>2026-04-18T11:21:10.288Z</time></trkpt><trkpt lat="43.4925486" lon="12.9584081"><ele>278.4</ele><time>2026-04-18T11:21:11.288Z</time></trkpt><trkpt lat="43.4926148" lon="12.9584913"><ele>275.6</ele><time>2026-04-18T11:21:12.289Z</time></trkpt><trkpt lat="43.4926703" lon="12.9585832"><ele>272.8</ele><time>2026-04-18T11:21:13.288Z</time></trkpt><trkpt lat="43.4927355" lon="12.9586758"><ele>270.0</ele><time>2026-04-18T11:21:14.288Z</time></trkpt><trkpt lat="43.4928137" lon="12.9587621"><ele>270.0</ele><time>2026-04-18T11:21:15.288Z</time></trkpt><trkpt lat="43.4928945" lon="12.9588476"><ele>270.0</ele><time>2026-04-18T11:21:16.288Z</time></trkpt><trkpt lat="43.4929715" lon="12.958942"><ele>270.0</ele><time>2026-04-18T11:21:17.289Z</time></trkpt><trkpt lat="43.4930492" lon="12.959042"><ele>270.0</ele><time>2026-04-18T11:21:18.289Z</time></trkpt><trkpt lat="43.4931217" lon="12.9591388"><ele>270.0</ele><time>2026-04-18T11:21:19.288Z</time></trkpt><trkpt lat="43.4931872" lon="12.959233"><ele>268.6</ele><time>2026-04-18T11:21:20.288Z</time></trkpt><trkpt lat="43.4932509" lon="12.9593268"><ele>267.2</ele><time>2026-04-18T11:21:21.288Z</time></trkpt><trkpt lat="43.4933206" lon="12.9594296"><ele>265.8</ele><time>2026-04-18T11:21:22.289Z</time></trkpt><trkpt lat="43.49339" lon="12.9595477"><ele>264.4</ele><time>2026-04-18T11:21:23.289Z</time></trkpt><trkpt lat="43.4934534" lon="12.9596669"><ele>263.0</ele><time>2026-04-18T11:21:24.288Z</time></trkpt><trkpt lat="43.4935066" lon="12.9597818"><ele>263.0</ele><time>2026-04-18T11:21:25.288Z</time></trkpt><trkpt lat="43.4935655" lon="12.9598906"><ele>263.0</ele><time>2026-04-18T11:21:26.288Z</time></trkpt><trkpt lat="43.4936292" lon="12.9599927"><ele>263.0</ele><time>2026-04-18T11:21:27.288Z</time></trkpt><trkpt lat="43.4936885" lon="12.9600869"><ele>263.0</ele><time>2026-04-18T11:21:28.288Z</time></trkpt><trkpt lat="43.4937333" lon="12.96018"><ele>263.0</ele><time>2026-04-18T11:21:29.288Z</time></trkpt><trkpt lat="43.4937585" lon="12.960265"><ele>263.0</ele><time>2026-04-18T11:21:30.288Z</time></trkpt><trkpt lat="43.4937671" lon="12.9603513"><ele>262.83333333333337</ele><time>2026-04-18T11:21:31.288Z</time></trkpt><trkpt lat="43.4937727" lon="12.9604465"><ele>262.6666666666667</ele><time>2026-04-18T11:21:32.288Z</time></trkpt><trkpt lat="43.4937954" lon="12.9605525"><ele>262.5</ele><time>2026-04-18T11:21:33.288Z</time></trkpt><trkpt lat="43.4938423" lon="12.9606519"><ele>262.3333333333333</ele><time>2026-04-18T11:21:34.288Z</time></trkpt><trkpt lat="43.4939181" lon="12.9607342"><ele>262.16666666666663</ele><time>2026-04-18T11:21:35.288Z</time></trkpt><trkpt lat="43.4940012" lon="12.9608098"><ele>262.0</ele><time>2026-04-18T11:21:36.288Z</time></trkpt><trkpt lat="43.4940865" lon="12.9608718"><ele>266.6</ele><time>2026-04-18T11:21:37.288Z</time></trkpt><trkpt lat="43.4941757" lon="12.9609245"><ele>271.2</ele><time>2026-04-18T11:21:38.288Z</time></trkpt><trkpt lat="43.4942685" lon="12.9609488"><ele>275.8</ele><time>2026-04-18T11:21:39.288Z</time></trkpt><trkpt lat="43.4943741" lon="12.9609388"><ele>280.4</ele><time>2026-04-18T11:21:40.288Z</time></trkpt><trkpt lat="43.4944779" lon="12.960925"><ele>285.0</ele><time>2026-04-18T11:21:41.288Z</time></trkpt><trkpt lat="43.4945744" lon="12.9609287"><ele>282.8</ele><time>2026-04-18T11:21:42.289Z</time></trkpt><trkpt lat="43.4946612" lon="12.9609582"><ele>280.6</ele><time>2026-04-18T11:21:43.288Z</time></trkpt><trkpt lat="43.494745" lon="12.96102"><ele>278.4</ele><time>2026-04-18T11:21:44.288Z</time></trkpt><trkpt lat="43.494838" lon="12.9611134"><ele>276.2</ele><time>2026-04-18T11:21:45.288Z</time></trkpt><trkpt lat="43.4949473" lon="12.9612123"><ele>274.0</ele><time>2026-04-18T11:21:46.289Z</time></trkpt><trkpt lat="43.4950613" lon="12.9612959"><ele>274.0</ele><time>2026-04-18T11:21:47.288Z</time></trkpt><trkpt lat="43.4951719" lon="12.9613662"><ele>274.0</ele><time>2026-04-18T11:21:48.289Z</time></trkpt><trkpt lat="43.4952791" lon="12.9614252"><ele>274.0</ele><time>2026-04-18T11:21:49.288Z</time></trkpt><trkpt lat="43.4953857" lon="12.9614774"><ele>274.0</ele><time>2026-04-18T11:21:50.288Z</time></trkpt><trkpt lat="43.4954925" lon="12.9615403"><ele>276.5</ele><time>2026-04-18T11:21:51.288Z</time></trkpt><trkpt lat="43.4956022" lon="12.9616141"><ele>279.0</ele><time>2026-04-18T11:21:52.288Z</time></trkpt><trkpt lat="43.4957114" lon="12.9616898"><ele>281.5</ele><time>2026-04-18T11:21:53.289Z</time></trkpt><trkpt lat="43.4958212" lon="12.9617702"><ele>284.0</ele><time>2026-04-18T11:21:54.288Z</time></trkpt><trkpt lat="43.4959249" lon="12.9618592"><ele>284.0</ele><time>2026-04-18T11:21:55.288Z</time></trkpt><trkpt lat="43.4960355" lon="12.9619445"><ele>284.0</ele><time>2026-04-18T11:21:56.289Z</time></trkpt><trkpt lat="43.4961427" lon="12.9620334"><ele>284.0</ele><time>2026-04-18T11:21:57.288Z</time></trkpt><trkpt lat="43.4962519" lon="12.9621305"><ele>284.0</ele><time>2026-04-18T11:21:58.288Z</time></trkpt><trkpt lat="43.4963574" lon="12.9622392"><ele>285.75</ele><time>2026-04-18T11:21:59.288Z</time></trkpt><trkpt lat="43.4964665" lon="12.9623675"><ele>287.5</ele><time>2026-04-18T11:22:00.288Z</time></trkpt><trkpt lat="43.496559" lon="12.9624699"><ele>289.25</ele><time>2026-04-18T11:22:01.288Z</time></trkpt><trkpt lat="43.4966553" lon="12.962564"><ele>291.0</ele><time>2026-04-18T11:22:02.288Z</time></trkpt><trkpt lat="43.4967484" lon="12.9626302"><ele>291.0</ele><time>2026-04-18T11:22:03.288Z</time></trkpt><trkpt lat="43.4968338" lon="12.9626989"><ele>291.0</ele><time>2026-04-18T11:22:04.288Z</time></trkpt><trkpt lat="43.4969051" lon="12.962767"><ele>291.0</ele><time>2026-04-18T11:22:05.288Z</time></trkpt><trkpt lat="43.4969375" lon="12.9628594"><ele>291.0</ele><time>2026-04-18T11:22:07.288Z</time></trkpt><trkpt lat="43.4968737" lon="12.962863"><ele>291.0</ele><time>2026-04-18T11:22:13.288Z</time></trkpt><trkpt lat="43.4969089" lon="12.9629522"><ele>291.0</ele><time>2026-04-18T11:24:21.289Z</time></trkpt><trkpt lat="43.4970228" lon="12.9631283"><ele>288.8</ele><time>2026-04-18T11:24:23.288Z</time></trkpt><trkpt lat="43.4971041" lon="12.9632132"><ele>286.6</ele><time>2026-04-18T11:24:24.289Z</time></trkpt><trkpt lat="43.4971833" lon="12.9633018"><ele>284.4</ele><time>2026-04-18T11:24:25.289Z</time></trkpt><trkpt lat="43.4972556" lon="12.9633977"><ele>282.2</ele><time>2026-04-18T11:24:26.288Z</time></trkpt><trkpt lat="43.4973329" lon="12.9635241"><ele>280.0</ele><time>2026-04-18T11:24:27.288Z</time></trkpt><trkpt lat="43.4974128" lon="12.9636479"><ele>280.0</ele><time>2026-04-18T11:24:28.289Z</time></trkpt><trkpt lat="43.4974948" lon="12.9637759"><ele>280.0</ele><time>2026-04-18T11:24:29.288Z</time></trkpt><trkpt lat="43.4975777" lon="12.9639049"><ele>280.0</ele><time>2026-04-18T11:24:30.288Z</time></trkpt><trkpt lat="43.4976573" lon="12.9640388"><ele>280.0</ele><time>2026-04-18T11:24:31.288Z</time></trkpt><trkpt lat="43.4977378" lon="12.9641689"><ele>278.5</ele><time>2026-04-18T11:24:32.289Z</time></trkpt><trkpt lat="43.4978178" lon="12.964307"><ele>277.0</ele><time>2026-04-18T11:24:33.288Z</time></trkpt><trkpt lat="43.4979009" lon="12.9644396"><ele>275.5</ele><time>2026-04-18T11:24:34.288Z</time></trkpt><trkpt lat="43.4979884" lon="12.9645781"><ele>274.0</ele><time>2026-04-18T11:24:35.288Z</time></trkpt><trkpt lat="43.4980711" lon="12.9647182"><ele>274.0</ele><time>2026-04-18T11:24:36.288Z</time></trkpt><trkpt lat="43.498161" lon="12.9648515"><ele>274.0</ele><time>2026-04-18T11:24:37.289Z</time></trkpt><trkpt lat="43.4982504" lon="12.9649856"><ele>274.0</ele><time>2026-04-18T11:24:38.289Z</time></trkpt><trkpt lat="43.4983339" lon="12.9651191"><ele>274.0</ele><time>2026-04-18T11:24:39.288Z</time></trkpt><trkpt lat="43.4984167" lon="12.9652498"><ele>278.0</ele><time>2026-04-18T11:24:40.288Z</time></trkpt><trkpt lat="43.4984776" lon="12.9653837"><ele>282.0</ele><time>2026-04-18T11:24:41.288Z</time></trkpt><trkpt lat="43.4985134" lon="12.9655415"><ele>286.0</ele><time>2026-04-18T11:24:42.288Z</time></trkpt><trkpt lat="43.4985321" lon="12.9657273"><ele>290.0</ele><time>2026-04-18T11:24:43.288Z</time></trkpt><trkpt lat="43.4985494" lon="12.9659249"><ele>291.5</ele><time>2026-04-18T11:24:44.289Z</time></trkpt><trkpt lat="43.498571" lon="12.9661063"><ele>293.0</ele><time>2026-04-18T11:24:45.288Z</time></trkpt><trkpt lat="43.4986141" lon="12.966286"><ele>294.5</ele><time>2026-04-18T11:24:46.289Z</time></trkpt><trkpt lat="43.498693" lon="12.9664485"><ele>296.0</ele><time>2026-04-18T11:24:47.288Z</time></trkpt><trkpt lat="43.4988028" lon="12.9666061"><ele>296.0</ele><time>2026-04-18T11:24:48.288Z</time></trkpt><trkpt lat="43.4989227" lon="12.9667454"><ele>296.0</ele><time>2026-04-18T11:24:49.289Z</time></trkpt><trkpt lat="43.4990423" lon="12.966853"><ele>296.0</ele><time>2026-04-18T11:24:50.289Z</time></trkpt><trkpt lat="43.4991597" lon="12.966952"><ele>296.0</ele><time>2026-04-18T11:24:51.288Z</time></trkpt><trkpt lat="43.4992663" lon="12.9670455"><ele>296.0</ele><time>2026-04-18T11:24:52.289Z</time></trkpt><trkpt lat="43.4993574" lon="12.9671152"><ele>296.0</ele><time>2026-04-18T11:24:53.289Z</time></trkpt><trkpt lat="43.4994309" lon="12.9671953"><ele>296.0</ele><time>2026-04-18T11:24:54.288Z</time></trkpt><trkpt lat="43.4994545" lon="12.967288"><ele>296.0</ele><time>2026-04-18T11:24:55.288Z</time></trkpt><trkpt lat="43.4994295" lon="12.9673967"><ele>296.0</ele><time>2026-04-18T11:24:56.289Z</time></trkpt><trkpt lat="43.4994164" lon="12.96749"><ele>296.0</ele><time>2026-04-18T11:24:57.288Z</time></trkpt><trkpt lat="43.4992746" lon="12.9675679"><ele>295.75</ele><time>2026-04-18T11:24:58.288Z</time></trkpt><trkpt lat="43.4991613" lon="12.9676717"><ele>295.5</ele><time>2026-04-18T11:24:59.288Z</time></trkpt><trkpt lat="43.4990641" lon="12.9677876"><ele>295.25</ele><time>2026-04-18T11:25:00.288Z</time></trkpt><trkpt lat="43.4989678" lon="12.9679219"><ele>295.0</ele><time>2026-04-18T11:25:01.288Z</time></trkpt><trkpt lat="43.498878" lon="12.9680731"><ele>295.0</ele><time>2026-04-18T11:25:02.288Z</time></trkpt><trkpt lat="43.4988015" lon="12.9682418"><ele>295.0</ele><time>2026-04-18T11:25:03.288Z</time></trkpt><trkpt lat="43.4987446" lon="12.9684272"><ele>295.0</ele><time>2026-04-18T11:25:04.289Z</time></trkpt><trkpt lat="43.4986892" lon="12.9686163"><ele>295.0</ele><time>2026-04-18T11:25:05.288Z</time></trkpt><trkpt lat="43.4986438" lon="12.9688017"><ele>299.5</ele><time>2026-04-18T11:25:06.289Z</time></trkpt><trkpt lat="43.4986195" lon="12.9689921"><ele>304.0</ele><time>2026-04-18T11:25:07.288Z</time></trkpt><trkpt lat="43.4986226" lon="12.9691933"><ele>308.5</ele><time>2026-04-18T11:25:08.288Z</time></trkpt><trkpt lat="43.4986426" lon="12.9693881"><ele>313.0</ele><time>2026-04-18T11:25:09.288Z</time></trkpt><trkpt lat="43.498694" lon="12.9695741"><ele>313.66666666666663</ele><time>2026-04-18T11:25:10.289Z</time></trkpt><trkpt lat="43.4987724" lon="12.9697578"><ele>314.3333333333333</ele><time>2026-04-18T11:25:11.288Z</time></trkpt><trkpt lat="43.498868" lon="12.9699484"><ele>315.0</ele><time>2026-04-18T11:25:12.289Z</time></trkpt><trkpt lat="43.498973" lon="12.9701335"><ele>315.0</ele><time>2026-04-18T11:25:13.289Z</time></trkpt><trkpt lat="43.4990796" lon="12.9703141"><ele>315.0</ele><time>2026-04-18T11:25:14.288Z</time></trkpt><trkpt lat="43.4991858" lon="12.9704896"><ele>315.0</ele><time>2026-04-18T11:25:15.288Z</time></trkpt><trkpt lat="43.4992876" lon="12.9706574"><ele>315.0</ele><time>2026-04-18T11:25:16.288Z</time></trkpt><trkpt lat="43.499396" lon="12.9708021"><ele>315.0</ele><time>2026-04-18T11:25:17.288Z</time></trkpt><trkpt lat="43.4995142" lon="12.9709198"><ele>315.0</ele><time>2026-04-18T11:25:18.289Z</time></trkpt><trkpt lat="43.4996319" lon="12.9710127"><ele>315.0</ele><time>2026-04-18T11:25:19.288Z</time></trkpt><trkpt lat="43.4997442" lon="12.9710827"><ele>315.5</ele><time>2026-04-18T11:25:20.289Z</time></trkpt><trkpt lat="43.499841" lon="12.9711364"><ele>316.0</ele><time>2026-04-18T11:25:21.288Z</time></trkpt><trkpt lat="43.4999295" lon="12.9711741"><ele>316.5</ele><time>2026-04-18T11:25:22.288Z</time></trkpt><trkpt lat="43.5000104" lon="12.9711995"><ele>317.0</ele><time>2026-04-18T11:25:23.289Z</time></trkpt><trkpt lat="43.5000862" lon="12.9712121"><ele>317.5</ele><time>2026-04-18T11:25:24.289Z</time></trkpt><trkpt lat="43.5001509" lon="12.9712403"><ele>318.0</ele><time>2026-04-18T11:25:25.288Z</time></trkpt><trkpt lat="43.5002323" lon="12.9712794"><ele>318.0</ele><time>2026-04-18T11:25:26.288Z</time></trkpt><trkpt lat="43.5003266" lon="12.9713152"><ele>318.0</ele><time>2026-04-18T11:25:27.288Z</time></trkpt><trkpt lat="43.5004239" lon="12.9713491"><ele>318.0</ele><time>2026-04-18T11:25:28.288Z</time></trkpt><trkpt lat="43.5005256" lon="12.9713952"><ele>318.0</ele><time>2026-04-18T11:25:29.289Z</time></trkpt><trkpt lat="43.5006308" lon="12.9714404"><ele>318.0</ele><time>2026-04-18T11:25:30.288Z</time></trkpt><trkpt lat="43.5007417" lon="12.9714951"><ele>319.5</ele><time>2026-04-18T11:25:31.288Z</time></trkpt><trkpt lat="43.5008545" lon="12.971547"><ele>321.0</ele><time>2026-04-18T11:25:32.289Z</time></trkpt><trkpt lat="43.5009673" lon="12.9715969"><ele>322.5</ele><time>2026-04-18T11:25:33.288Z</time></trkpt><trkpt lat="43.5010855" lon="12.9716306"><ele>324.0</ele><time>2026-04-18T11:25:34.288Z</time></trkpt><trkpt lat="43.5012077" lon="12.9716519"><ele>324.0</ele><time>2026-04-18T11:25:35.289Z</time></trkpt><trkpt lat="43.5013354" lon="12.9716783"><ele>324.0</ele><time>2026-04-18T11:25:36.288Z</time></trkpt><trkpt lat="43.5014623" lon="12.9717038"><ele>324.0</ele><time>2026-04-18T11:25:37.288Z</time></trkpt><trkpt lat="43.5015825" lon="12.9717326"><ele>324.0</ele><time>2026-04-18T11:25:38.289Z</time></trkpt><trkpt lat="43.5016994" lon="12.9717776"><ele>324.0</ele><time>2026-04-18T11:25:39.288Z</time></trkpt><trkpt lat="43.5018081" lon="12.9718425"><ele>324.0</ele><time>2026-04-18T11:25:40.289Z</time></trkpt><trkpt lat="43.501909" lon="12.971944"><ele>324.0</ele><time>2026-04-18T11:25:41.288Z</time></trkpt><trkpt lat="43.5020049" lon="12.9720589"><ele>324.0</ele><time>2026-04-18T11:25:42.289Z</time></trkpt><trkpt lat="43.5021028" lon="12.9721756"><ele>323.75</ele><time>2026-04-18T11:25:43.288Z</time></trkpt><trkpt lat="43.5021999" lon="12.9722987"><ele>323.5</ele><time>2026-04-18T11:25:44.288Z</time></trkpt><trkpt lat="43.5022907" lon="12.9724211"><ele>323.25</ele><time>2026-04-18T11:25:45.289Z</time></trkpt><trkpt lat="43.5023627" lon="12.972543"><ele>323.0</ele><time>2026-04-18T11:25:46.288Z</time></trkpt><trkpt lat="43.5024123" lon="12.9726813"><ele>324.75</ele><time>2026-04-18T11:25:47.289Z</time></trkpt><trkpt lat="43.5024483" lon="12.9728429"><ele>326.5</ele><time>2026-04-18T11:25:48.288Z</time></trkpt><trkpt lat="43.5024783" lon="12.9730158"><ele>328.25</ele><time>2026-04-18T11:25:49.288Z</time></trkpt><trkpt lat="43.5025043" lon="12.9731935"><ele>330.0</ele><time>2026-04-18T11:25:50.288Z</time></trkpt><trkpt lat="43.5025365" lon="12.973366"><ele>330.75</ele><time>2026-04-18T11:25:51.288Z</time></trkpt><trkpt lat="43.5025731" lon="12.9735289"><ele>331.5</ele><time>2026-04-18T11:25:52.288Z</time></trkpt><trkpt lat="43.5026281" lon="12.9736706"><ele>332.25</ele><time>2026-04-18T11:25:53.289Z</time></trkpt><trkpt lat="43.5027094" lon="12.9737987"><ele>333.0</ele><time>2026-04-18T11:25:54.288Z</time></trkpt><trkpt lat="43.5028149" lon="12.9739271"><ele>333.3333333333333</ele><time>2026-04-18T11:25:55.288Z</time></trkpt><trkpt lat="43.5029346" lon="12.9740609"><ele>333.66666666666663</ele><time>2026-04-18T11:25:56.288Z</time></trkpt><trkpt lat="43.5030523" lon="12.9742027"><ele>334.0</ele><time>2026-04-18T11:25:57.289Z</time></trkpt><trkpt lat="43.5031614" lon="12.974337"><ele>335.5</ele><time>2026-04-18T11:25:58.288Z</time></trkpt><trkpt lat="43.5032702" lon="12.9744674"><ele>337.0</ele><time>2026-04-18T11:25:59.289Z</time></trkpt><trkpt lat="43.5033746" lon="12.9745958"><ele>338.5</ele><time>2026-04-18T11:26:00.289Z</time></trkpt><trkpt lat="43.5034782" lon="12.9747236"><ele>340.0</ele><time>2026-04-18T11:26:01.289Z</time></trkpt><trkpt lat="43.5035822" lon="12.9748443"><ele>340.0</ele><time>2026-04-18T11:26:02.289Z</time></trkpt><trkpt lat="43.5036863" lon="12.9749582"><ele>340.0</ele><time>2026-04-18T11:26:03.288Z</time></trkpt><trkpt lat="43.50379" lon="12.9750676"><ele>340.0</ele><time>2026-04-18T11:26:04.288Z</time></trkpt><trkpt lat="43.5038865" lon="12.9751839"><ele>340.0</ele><time>2026-04-18T11:26:05.288Z</time></trkpt><trkpt lat="43.5039626" lon="12.9753086"><ele>340.25</ele><time>2026-04-18T11:26:06.289Z</time></trkpt><trkpt lat="43.5040265" lon="12.975435"><ele>340.5</ele><time>2026-04-18T11:26:07.288Z</time></trkpt><trkpt lat="43.5040933" lon="12.975572"><ele>340.75</ele><time>2026-04-18T11:26:08.288Z</time></trkpt><trkpt lat="43.5041689" lon="12.9757164"><ele>341.0</ele><time>2026-04-18T11:26:09.288Z</time></trkpt><trkpt lat="43.5042474" lon="12.9758631"><ele>340.0</ele><time>2026-04-18T11:26:10.288Z</time></trkpt><trkpt lat="43.5043317" lon="12.9760114"><ele>339.0</ele><time>2026-04-18T11:26:11.288Z</time></trkpt><trkpt lat="43.5044252" lon="12.9761586"><ele>338.0</ele><time>2026-04-18T11:26:12.289Z</time></trkpt><trkpt lat="43.5045212" lon="12.97631"><ele>337.0</ele><time>2026-04-18T11:26:13.288Z</time></trkpt><trkpt lat="43.5046237" lon="12.976459"><ele>337.0</ele><time>2026-04-18T11:26:14.288Z</time></trkpt><trkpt lat="43.504732" lon="12.9766032"><ele>337.0</ele><time>2026-04-18T11:26:15.288Z</time></trkpt><trkpt lat="43.5048539" lon="12.9767346"><ele>337.0</ele><time>2026-04-18T11:26:16.288Z</time></trkpt><trkpt lat="43.5049903" lon="12.9768523"><ele>337.0</ele><time>2026-04-18T11:26:17.289Z</time></trkpt><trkpt lat="43.5051296" lon="12.976952"><ele>337.0</ele><time>2026-04-18T11:26:18.289Z</time></trkpt><trkpt lat="43.5052717" lon="12.9770406"><ele>337.0</ele><time>2026-04-18T11:26:19.288Z</time></trkpt><trkpt lat="43.5054169" lon="12.9771234"><ele>338.66666666666663</ele><time>2026-04-18T11:26:20.288Z</time></trkpt><trkpt lat="43.5055694" lon="12.9771953"><ele>340.3333333333333</ele><time>2026-04-18T11:26:21.289Z</time></trkpt><trkpt lat="43.5057233" lon="12.9772536"><ele>342.0</ele><time>2026-04-18T11:26:22.288Z</time></trkpt><trkpt lat="43.5058803" lon="12.9772966"><ele>342.0</ele><time>2026-04-18T11:26:23.288Z</time></trkpt><trkpt lat="43.5060378" lon="12.9773346"><ele>342.0</ele><time>2026-04-18T11:26:24.288Z</time></trkpt><trkpt lat="43.5061959" lon="12.977376"><ele>342.0</ele><time>2026-04-18T11:26:25.288Z</time></trkpt><trkpt lat="43.506354" lon="12.9774207"><ele>342.6666666666667</ele><time>2026-04-18T11:26:26.289Z</time></trkpt><trkpt lat="43.5065114" lon="12.9774645"><ele>343.33333333333337</ele><time>2026-04-18T11:26:27.289Z</time></trkpt><trkpt lat="43.5066676" lon="12.9775037"><ele>344.0</ele><time>2026-04-18T11:26:28.288Z</time></trkpt><trkpt lat="43.5068247" lon="12.9775372"><ele>344.75</ele><time>2026-04-18T11:26:29.288Z</time></trkpt><trkpt lat="43.5069693" lon="12.9775671"><ele>345.5</ele><time>2026-04-18T11:26:30.289Z</time></trkpt><trkpt lat="43.5070988" lon="12.9776116"><ele>346.25</ele><time>2026-04-18T11:26:31.288Z</time></trkpt><trkpt lat="43.5072178" lon="12.9776635"><ele>347.0</ele><time>2026-04-18T11:26:32.289Z</time></trkpt><trkpt lat="43.5073422" lon="12.9777555"><ele>347.0</ele><time>2026-04-18T11:26:33.289Z</time></trkpt><trkpt lat="43.5074791" lon="12.9778643"><ele>347.0</ele><time>2026-04-18T11:26:34.289Z</time></trkpt><trkpt lat="43.5076161" lon="12.9779781"><ele>347.0</ele><time>2026-04-18T11:26:35.289Z</time></trkpt><trkpt lat="43.5077474" lon="12.9780912"><ele>347.0</ele><time>2026-04-18T11:26:36.289Z</time></trkpt><trkpt lat="43.5078579" lon="12.9782044"><ele>347.0</ele><time>2026-04-18T11:26:37.289Z</time></trkpt><trkpt lat="43.5079586" lon="12.9783238"><ele>347.0</ele><time>2026-04-18T11:26:38.288Z</time></trkpt><trkpt lat="43.5080461" lon="12.9784615"><ele>347.0</ele><time>2026-04-18T11:26:39.288Z</time></trkpt><trkpt lat="43.5081127" lon="12.978622"><ele>348.0</ele><time>2026-04-18T11:26:40.288Z</time></trkpt><trkpt lat="43.5081615" lon="12.978796"><ele>349.0</ele><time>2026-04-18T11:26:41.288Z</time></trkpt><trkpt lat="43.5082039" lon="12.9789731"><ele>350.0</ele><time>2026-04-18T11:26:42.288Z</time></trkpt><trkpt lat="43.5082547" lon="12.979142"><ele>351.0</ele><time>2026-04-18T11:26:43.289Z</time></trkpt><trkpt lat="43.5083187" lon="12.9793021"><ele>352.25</ele><time>2026-04-18T11:26:44.289Z</time></trkpt><trkpt lat="43.5084085" lon="12.9794379"><ele>353.5</ele><time>2026-04-18T11:26:45.288Z</time></trkpt><trkpt lat="43.5085289" lon="12.979534"><ele>354.75</ele><time>2026-04-18T11:26:46.288Z</time></trkpt><trkpt lat="43.5086705" lon="12.9795928"><ele>356.0</ele><time>2026-04-18T11:26:47.288Z</time></trkpt><trkpt lat="43.5088155" lon="12.9796523"><ele>357.0</ele><time>2026-04-18T11:26:48.288Z</time></trkpt><trkpt lat="43.5089445" lon="12.9797483"><ele>358.0</ele><time>2026-04-18T11:26:49.288Z</time></trkpt><trkpt lat="43.5090508" lon="12.9798631"><ele>359.0</ele><time>2026-04-18T11:26:50.289Z</time></trkpt><trkpt lat="43.5091504" lon="12.9799724"><ele>360.0</ele><time>2026-04-18T11:26:51.288Z</time></trkpt><trkpt lat="43.509258" lon="12.9800775"><ele>360.25</ele><time>2026-04-18T11:26:52.289Z</time></trkpt><trkpt lat="43.5093744" lon="12.9801873"><ele>360.5</ele><time>2026-04-18T11:26:53.288Z</time></trkpt><trkpt lat="43.5094823" lon="12.9802982"><ele>360.75</ele><time>2026-04-18T11:26:54.288Z</time></trkpt><trkpt lat="43.5095806" lon="12.9804025"><ele>361.0</ele><time>2026-04-18T11:26:55.289Z</time></trkpt><trkpt lat="43.509674" lon="12.9805027"><ele>361.0</ele><time>2026-04-18T11:26:56.289Z</time></trkpt><trkpt lat="43.5097436" lon="12.9806045"><ele>361.0</ele><time>2026-04-18T11:26:57.288Z</time></trkpt><trkpt lat="43.5097821" lon="12.980718"><ele>361.0</ele><time>2026-04-18T11:26:58.288Z</time></trkpt><trkpt lat="43.5098065" lon="12.9808589"><ele>361.0</ele><time>2026-04-18T11:26:59.288Z</time></trkpt><trkpt lat="43.5098293" lon="12.9810273"><ele>361.0</ele><time>2026-04-18T11:27:00.288Z</time></trkpt><trkpt lat="43.5098458" lon="12.9812068"><ele>362.0</ele><time>2026-04-18T11:27:01.289Z</time></trkpt><trkpt lat="43.5098527" lon="12.9813933"><ele>363.0</ele><time>2026-04-18T11:27:02.289Z</time></trkpt><trkpt lat="43.509855" lon="12.9815922"><ele>364.0</ele><time>2026-04-18T11:27:03.289Z</time></trkpt><trkpt lat="43.5098577" lon="12.9817927"><ele>365.0</ele><time>2026-04-18T11:27:04.288Z</time></trkpt><trkpt lat="43.5098591" lon="12.9819888"><ele>365.25</ele><time>2026-04-18T11:27:05.288Z</time></trkpt><trkpt lat="43.5098576" lon="12.9821715"><ele>365.5</ele><time>2026-04-18T11:27:06.288Z</time></trkpt><trkpt lat="43.5098531" lon="12.9823432"><ele>365.75</ele><time>2026-04-18T11:27:07.288Z</time></trkpt><trkpt lat="43.5098464" lon="12.9825052"><ele>366.0</ele><time>2026-04-18T11:27:08.288Z</time></trkpt><trkpt lat="43.5098444" lon="12.9826634"><ele>364.20000000000005</ele><time>2026-04-18T11:27:09.288Z</time></trkpt><trkpt lat="43.5098527" lon="12.9828129"><ele>362.40000000000003</ele><time>2026-04-18T11:27:10.289Z</time></trkpt><trkpt lat="43.5098764" lon="12.9829596"><ele>360.6</ele><time>2026-04-18T11:27:11.288Z</time></trkpt><trkpt lat="43.50992" lon="12.9831047"><ele>358.8</ele><time>2026-04-18T11:27:12.289Z</time></trkpt><trkpt lat="43.5099814" lon="12.9832401"><ele>357.0</ele><time>2026-04-18T11:27:13.288Z</time></trkpt><trkpt lat="43.5100512" lon="12.9833655"><ele>353.75</ele><time>2026-04-18T11:27:14.288Z</time></trkpt><trkpt lat="43.510119" lon="12.9834926"><ele>350.5</ele><time>2026-04-18T11:27:15.289Z</time></trkpt><trkpt lat="43.5101841" lon="12.9836246"><ele>347.25</ele><time>2026-04-18T11:27:16.288Z</time></trkpt><trkpt lat="43.5102439" lon="12.9837688"><ele>344.0</ele><time>2026-04-18T11:27:17.288Z</time></trkpt><trkpt lat="43.5102933" lon="12.9839263"><ele>344.0</ele><time>2026-04-18T11:27:18.289Z</time></trkpt><trkpt lat="43.5103289" lon="12.9840984"><ele>344.0</ele><time>2026-04-18T11:27:19.288Z</time></trkpt><trkpt lat="43.5103612" lon="12.984276"><ele>344.0</ele><time>2026-04-18T11:27:20.288Z</time></trkpt><trkpt lat="43.5103993" lon="12.9844528"><ele>344.0</ele><time>2026-04-18T11:27:21.289Z</time></trkpt><trkpt lat="43.5104596" lon="12.9846322"><ele>344.25</ele><time>2026-04-18T11:27:22.288Z</time></trkpt><trkpt lat="43.5105388" lon="12.9847985"><ele>344.5</ele><time>2026-04-18T11:27:23.288Z</time></trkpt><trkpt lat="43.5106153" lon="12.9849475"><ele>344.75</ele><time>2026-04-18T11:27:24.288Z</time></trkpt><trkpt lat="43.5106789" lon="12.9850971"><ele>345.0</ele><time>2026-04-18T11:27:25.289Z</time></trkpt><trkpt lat="43.5107176" lon="12.9852511"><ele>343.5</ele><time>2026-04-18T11:27:26.288Z</time></trkpt><trkpt lat="43.5107245" lon="12.9854086"><ele>342.0</ele><time>2026-04-18T11:27:27.288Z</time></trkpt><trkpt lat="43.510704" lon="12.9855729"><ele>340.5</ele><time>2026-04-18T11:27:28.289Z</time></trkpt><trkpt lat="43.5106596" lon="12.9857472"><ele>339.0</ele><time>2026-04-18T11:27:29.288Z</time></trkpt><trkpt lat="43.5106079" lon="12.98592"><ele>337.75</ele><time>2026-04-18T11:27:30.288Z</time></trkpt><trkpt lat="43.5105673" lon="12.9860866"><ele>336.5</ele><time>2026-04-18T11:27:31.289Z</time></trkpt><trkpt lat="43.5105303" lon="12.9862457"><ele>335.25</ele><time>2026-04-18T11:27:32.288Z</time></trkpt><trkpt lat="43.5104931" lon="12.9864003"><ele>334.0</ele><time>2026-04-18T11:27:33.288Z</time></trkpt><trkpt lat="43.5104751" lon="12.9865503"><ele>333.6</ele><time>2026-04-18T11:27:34.288Z</time></trkpt><trkpt lat="43.5104927" lon="12.986707"><ele>333.2</ele><time>2026-04-18T11:27:35.288Z</time></trkpt><trkpt lat="43.5105356" lon="12.986856"><ele>332.8</ele><time>2026-04-18T11:27:36.288Z</time></trkpt><trkpt lat="43.5105824" lon="12.9869876"><ele>332.40000000000003</ele><time>2026-04-18T11:27:37.288Z</time></trkpt><trkpt lat="43.5106121" lon="12.9871136"><ele>332.0</ele><time>2026-04-18T11:27:38.289Z</time></trkpt><trkpt lat="43.5106131" lon="12.9872402"><ele>332.0</ele><time>2026-04-18T11:27:39.288Z</time></trkpt><trkpt lat="43.5105982" lon="12.9873758"><ele>332.0</ele><time>2026-04-18T11:27:40.289Z</time></trkpt><trkpt lat="43.5105848" lon="12.9875082"><ele>332.0</ele><time>2026-04-18T11:27:41.289Z</time></trkpt><trkpt lat="43.5105472" lon="12.9876252"><ele>332.0</ele><time>2026-04-18T11:27:42.289Z</time></trkpt><trkpt lat="43.5104895" lon="12.9877295"><ele>332.0</ele><time>2026-04-18T11:27:43.288Z</time></trkpt><trkpt lat="43.510426" lon="12.9878092"><ele>330.83333333333337</ele><time>2026-04-18T11:27:44.288Z</time></trkpt><trkpt lat="43.5103745" lon="12.9878903"><ele>329.6666666666667</ele><time>2026-04-18T11:27:45.288Z</time></trkpt><trkpt lat="43.5103667" lon="12.9879861"><ele>328.5</ele><time>2026-04-18T11:27:46.288Z</time></trkpt><trkpt lat="43.5103864" lon="12.988075"><ele>327.3333333333333</ele><time>2026-04-18T11:27:47.289Z</time></trkpt><trkpt lat="43.5104304" lon="12.9881468"><ele>326.16666666666663</ele><time>2026-04-18T11:27:48.289Z</time></trkpt><trkpt lat="43.5105174" lon="12.9881813"><ele>325.0</ele><time>2026-04-18T11:27:49.289Z</time></trkpt><trkpt lat="43.5106648" lon="12.9881515"><ele>325.0</ele><time>2026-04-18T11:27:50.288Z</time></trkpt><trkpt lat="43.5107961" lon="12.9881413"><ele>325.0</ele><time>2026-04-18T11:27:51.288Z</time></trkpt><trkpt lat="43.5109058" lon="12.9881451"><ele>325.0</ele><time>2026-04-18T11:27:52.289Z</time></trkpt><trkpt lat="43.511016" lon="12.9881471"><ele>325.0</ele><time>2026-04-18T11:27:53.289Z</time></trkpt><trkpt lat="43.5111139" lon="12.9881552"><ele>325.0</ele><time>2026-04-18T11:27:54.288Z</time></trkpt><trkpt lat="43.5112072" lon="12.988159"><ele>325.0</ele><time>2026-04-18T11:27:55.288Z</time></trkpt><trkpt lat="43.5112958" lon="12.9881689"><ele>325.0</ele><time>2026-04-18T11:27:56.288Z</time></trkpt><trkpt lat="43.5113665" lon="12.9882354"><ele>325.0</ele><time>2026-04-18T11:27:57.288Z</time></trkpt><trkpt lat="43.5113969" lon="12.988363"><ele>325.0</ele><time>2026-04-18T11:27:58.289Z</time></trkpt><trkpt lat="43.5113947" lon="12.9885132"><ele>322.2</ele><time>2026-04-18T11:27:59.289Z</time></trkpt><trkpt lat="43.511375" lon="12.9886607"><ele>319.4</ele><time>2026-04-18T11:28:00.289Z</time></trkpt><trkpt lat="43.5113592" lon="12.9887942"><ele>316.6</ele><time>2026-04-18T11:28:01.288Z</time></trkpt><trkpt lat="43.5113455" lon="12.9889037"><ele>313.8</ele><time>2026-04-18T11:28:02.289Z</time></trkpt><trkpt lat="43.5113411" lon="12.9889921"><ele>311.0</ele><time>2026-04-18T11:28:03.289Z</time></trkpt><trkpt lat="43.5114183" lon="12.9890849"><ele>311.0</ele><time>2026-04-18T11:28:05.288Z</time></trkpt><trkpt lat="43.5114819" lon="12.9891275"><ele>311.0</ele><time>2026-04-18T11:28:06.289Z</time></trkpt><trkpt lat="43.5115518" lon="12.9891757"><ele>311.0</ele><time>2026-04-18T11:28:07.289Z</time></trkpt><trkpt lat="43.5116246" lon="12.9892353"><ele>311.0</ele><time>2026-04-18T11:28:08.288Z</time></trkpt><trkpt lat="43.5117083" lon="12.9892982"><ele>311.0</ele><time>2026-04-18T11:28:09.288Z</time></trkpt><trkpt lat="43.5118" lon="12.9893566"><ele>311.0</ele><time>2026-04-18T11:28:10.289Z</time></trkpt><trkpt lat="43.5118933" lon="12.9894193"><ele>310.0</ele><time>2026-04-18T11:28:11.289Z</time></trkpt><trkpt lat="43.5119952" lon="12.9894883"><ele>309.0</ele><time>2026-04-18T11:28:12.288Z</time></trkpt><trkpt lat="43.5120981" lon="12.9895557"><ele>308.0</ele><time>2026-04-18T11:28:13.288Z</time></trkpt><trkpt lat="43.5122019" lon="12.9896207"><ele>307.0</ele><time>2026-04-18T11:28:14.289Z</time></trkpt><trkpt lat="43.5123052" lon="12.9896852"><ele>303.5</ele><time>2026-04-18T11:28:15.288Z</time></trkpt><trkpt lat="43.5124081" lon="12.9897537"><ele>300.0</ele><time>2026-04-18T11:28:16.288Z</time></trkpt><trkpt lat="43.5125135" lon="12.9898233"><ele>296.5</ele><time>2026-04-18T11:28:17.288Z</time></trkpt><trkpt lat="43.5126152" lon="12.9898894"><ele>293.0</ele><time>2026-04-18T11:28:18.289Z</time></trkpt><trkpt lat="43.5127139" lon="12.9899557"><ele>293.5</ele><time>2026-04-18T11:28:19.288Z</time></trkpt><trkpt lat="43.5128135" lon="12.9900229"><ele>294.0</ele><time>2026-04-18T11:28:20.288Z</time></trkpt><trkpt lat="43.5129177" lon="12.9900907"><ele>294.5</ele><time>2026-04-18T11:28:21.289Z</time></trkpt><trkpt lat="43.5130228" lon="12.9901581"><ele>295.0</ele><time>2026-04-18T11:28:22.289Z</time></trkpt><trkpt lat="43.5131273" lon="12.9902302"><ele>291.5</ele><time>2026-04-18T11:28:23.288Z</time></trkpt><trkpt lat="43.5132256" lon="12.9903196"><ele>288.0</ele><time>2026-04-18T11:28:24.288Z</time></trkpt><trkpt lat="43.5133156" lon="12.9904205"><ele>284.5</ele><time>2026-04-18T11:28:25.289Z</time></trkpt><trkpt lat="43.5133958" lon="12.9905323"><ele>281.0</ele><time>2026-04-18T11:28:26.288Z</time></trkpt><trkpt lat="43.5134703" lon="12.990646"><ele>281.0</ele><time>2026-04-18T11:28:27.289Z</time></trkpt><trkpt lat="43.5135426" lon="12.9907528"><ele>281.0</ele><time>2026-04-18T11:28:28.288Z</time></trkpt><trkpt lat="43.5136125" lon="12.9908568"><ele>281.0</ele><time>2026-04-18T11:28:29.288Z</time></trkpt><trkpt lat="43.5136795" lon="12.9909563"><ele>281.0</ele><time>2026-04-18T11:28:30.289Z</time></trkpt><trkpt lat="43.5137403" lon="12.9910443"><ele>281.0</ele><time>2026-04-18T11:28:31.288Z</time></trkpt><trkpt lat="43.5137957" lon="12.9911396"><ele>279.1666666666667</ele><time>2026-04-18T11:28:32.288Z</time></trkpt><trkpt lat="43.5138452" lon="12.9912391"><ele>277.33333333333337</ele><time>2026-04-18T11:28:33.288Z</time></trkpt><trkpt lat="43.5138868" lon="12.9913398"><ele>275.5</ele><time>2026-04-18T11:28:34.288Z</time></trkpt><trkpt lat="43.5139342" lon="12.9914357"><ele>273.6666666666667</ele><time>2026-04-18T11:28:35.288Z</time></trkpt><trkpt lat="43.513997" lon="12.9915224"><ele>271.8333333333333</ele><time>2026-04-18T11:28:36.288Z</time></trkpt><trkpt lat="43.5140814" lon="12.9915927"><ele>270.0</ele><time>2026-04-18T11:28:37.288Z</time></trkpt><trkpt lat="43.5141891" lon="12.9916423"><ele>268.5</ele><time>2026-04-18T11:28:38.289Z</time></trkpt><trkpt lat="43.5143102" lon="12.9916866"><ele>267.0</ele><time>2026-04-18T11:28:39.289Z</time></trkpt><trkpt lat="43.5144377" lon="12.9917346"><ele>265.5</ele><time>2026-04-18T11:28:40.289Z</time></trkpt><trkpt lat="43.5145657" lon="12.9917873"><ele>264.0</ele><time>2026-04-18T11:28:41.288Z</time></trkpt><trkpt lat="43.5146953" lon="12.9918473"><ele>262.5</ele><time>2026-04-18T11:28:42.288Z</time></trkpt><trkpt lat="43.5148283" lon="12.9919123"><ele>261.0</ele><time>2026-04-18T11:28:43.289Z</time></trkpt><trkpt lat="43.514962" lon="12.9919691"><ele>259.5</ele><time>2026-04-18T11:28:44.288Z</time></trkpt><trkpt lat="43.5150959" lon="12.9920342"><ele>258.0</ele><time>2026-04-18T11:28:45.289Z</time></trkpt><trkpt lat="43.5152281" lon="12.9921006"><ele>258.0</ele><time>2026-04-18T11:28:46.288Z</time></trkpt><trkpt lat="43.5153669" lon="12.9921578"><ele>258.0</ele><time>2026-04-18T11:28:47.288Z</time></trkpt><trkpt lat="43.5155079" lon="12.9922213"><ele>258.0</ele><time>2026-04-18T11:28:48.289Z</time></trkpt><trkpt lat="43.5156509" lon="12.9922871"><ele>258.0</ele><time>2026-04-18T11:28:49.288Z</time></trkpt><trkpt lat="43.5157933" lon="12.9923457"><ele>256.75</ele><time>2026-04-18T11:28:50.289Z</time></trkpt><trkpt lat="43.5159295" lon="12.9924039"><ele>255.5</ele><time>2026-04-18T11:28:51.288Z</time></trkpt><trkpt lat="43.5160524" lon="12.9924573"><ele>254.25</ele><time>2026-04-18T11:28:52.288Z</time></trkpt><trkpt lat="43.5161691" lon="12.9925103"><ele>253.0</ele><time>2026-04-18T11:28:53.288Z</time></trkpt><trkpt lat="43.5162894" lon="12.9925582"><ele>251.0</ele><time>2026-04-18T11:28:54.288Z</time></trkpt><trkpt lat="43.5164073" lon="12.9926055"><ele>249.0</ele><time>2026-04-18T11:28:55.288Z</time></trkpt><trkpt lat="43.5165267" lon="12.9926638"><ele>247.0</ele><time>2026-04-18T11:28:56.289Z</time></trkpt><trkpt lat="43.5166481" lon="12.9927489"><ele>245.0</ele><time>2026-04-18T11:28:57.288Z</time></trkpt><trkpt lat="43.5167714" lon="12.9928544"><ele>245.0</ele><time>2026-04-18T11:28:58.289Z</time></trkpt><trkpt lat="43.5168925" lon="12.9929616"><ele>245.0</ele><time>2026-04-18T11:28:59.288Z</time></trkpt><trkpt lat="43.5170158" lon="12.9930671"><ele>245.0</ele><time>2026-04-18T11:29:00.288Z</time></trkpt><trkpt lat="43.5171407" lon="12.9931743"><ele>245.0</ele><time>2026-04-18T11:29:01.289Z</time></trkpt><trkpt lat="43.5172651" lon="12.9932824"><ele>243.5</ele><time>2026-04-18T11:29:02.288Z</time></trkpt><trkpt lat="43.5173881" lon="12.9933906"><ele>242.0</ele><time>2026-04-18T11:29:03.288Z</time></trkpt><trkpt lat="43.5175107" lon="12.9934916"><ele>240.5</ele><time>2026-04-18T11:29:04.289Z</time></trkpt><trkpt lat="43.5176275" lon="12.9935937"><ele>239.0</ele><time>2026-04-18T11:29:05.288Z</time></trkpt><trkpt lat="43.5177428" lon="12.9937032"><ele>239.0</ele><time>2026-04-18T11:29:06.289Z</time></trkpt><trkpt lat="43.5178522" lon="12.9938201"><ele>239.0</ele><time>2026-04-18T11:29:07.288Z</time></trkpt><trkpt lat="43.5179541" lon="12.9939481"><ele>239.0</ele><time>2026-04-18T11:29:08.288Z</time></trkpt><trkpt lat="43.5180659" lon="12.9940806"><ele>239.0</ele><time>2026-04-18T11:29:09.288Z</time></trkpt><trkpt lat="43.5181778" lon="12.9942144"><ele>239.25</ele><time>2026-04-18T11:29:10.289Z</time></trkpt><trkpt lat="43.5182901" lon="12.9943486"><ele>239.5</ele><time>2026-04-18T11:29:11.288Z</time></trkpt><trkpt lat="43.5184047" lon="12.9944759"><ele>239.75</ele><time>2026-04-18T11:29:12.288Z</time></trkpt><trkpt lat="43.5185113" lon="12.9945944"><ele>240.0</ele><time>2026-04-18T11:29:13.288Z</time></trkpt><trkpt lat="43.518614" lon="12.9947019"><ele>240.0</ele><time>2026-04-18T11:29:14.288Z</time></trkpt><trkpt lat="43.5187193" lon="12.9948068"><ele>240.0</ele><time>2026-04-18T11:29:15.289Z</time></trkpt><trkpt lat="43.518828" lon="12.9949011"><ele>240.0</ele><time>2026-04-18T11:29:16.289Z</time></trkpt><trkpt lat="43.5189445" lon="12.9949768"><ele>240.0</ele><time>2026-04-18T11:29:17.289Z</time></trkpt><trkpt lat="43.5190761" lon="12.9950277"><ele>242.0</ele><time>2026-04-18T11:29:18.289Z</time></trkpt><trkpt lat="43.5192319" lon="12.9950719"><ele>244.0</ele><time>2026-04-18T11:29:19.289Z</time></trkpt><trkpt lat="43.5193884" lon="12.9951112"><ele>246.0</ele><time>2026-04-18T11:29:20.288Z</time></trkpt><trkpt lat="43.5195253" lon="12.9951531"><ele>247.75</ele><time>2026-04-18T11:29:21.289Z</time></trkpt><trkpt lat="43.5196588" lon="12.9952066"><ele>249.5</ele><time>2026-04-18T11:29:22.288Z</time></trkpt><trkpt lat="43.5197956" lon="12.9952679"><ele>251.25</ele><time>2026-04-18T11:29:23.288Z</time></trkpt><trkpt lat="43.5199362" lon="12.9953359"><ele>253.0</ele><time>2026-04-18T11:29:24.289Z</time></trkpt><trkpt lat="43.520085" lon="12.9954028"><ele>253.0</ele><time>2026-04-18T11:29:25.289Z</time></trkpt><trkpt lat="43.5202395" lon="12.9954601"><ele>253.0</ele><time>2026-04-18T11:29:26.289Z</time></trkpt><trkpt lat="43.5203903" lon="12.9955119"><ele>253.0</ele><time>2026-04-18T11:29:27.289Z</time></trkpt><trkpt lat="43.5205367" lon="12.9955614"><ele>253.5</ele><time>2026-04-18T11:29:28.288Z</time></trkpt><trkpt lat="43.5206767" lon="12.9956176"><ele>254.0</ele><time>2026-04-18T11:29:29.288Z</time></trkpt><trkpt lat="43.5208122" lon="12.9956725"><ele>254.5</ele><time>2026-04-18T11:29:30.289Z</time></trkpt><trkpt lat="43.5209354" lon="12.9957263"><ele>255.0</ele><time>2026-04-18T11:29:31.288Z</time></trkpt><trkpt lat="43.5210548" lon="12.9957784"><ele>255.0</ele><time>2026-04-18T11:29:32.288Z</time></trkpt><trkpt lat="43.5211688" lon="12.9958212"><ele>255.0</ele><time>2026-04-18T11:29:33.288Z</time></trkpt><trkpt lat="43.5212769" lon="12.9958507"><ele>255.0</ele><time>2026-04-18T11:29:34.288Z</time></trkpt><trkpt lat="43.5213809" lon="12.9958806"><ele>255.0</ele><time>2026-04-18T11:29:35.288Z</time></trkpt><trkpt lat="43.5214842" lon="12.9959029"><ele>255.0</ele><time>2026-04-18T11:29:36.288Z</time></trkpt><trkpt lat="43.5215909" lon="12.9959193"><ele>253.5</ele><time>2026-04-18T11:29:37.289Z</time></trkpt><trkpt lat="43.5217025" lon="12.9959348"><ele>252.0</ele><time>2026-04-18T11:29:38.289Z</time></trkpt><trkpt lat="43.5218157" lon="12.9959702"><ele>250.5</ele><time>2026-04-18T11:29:39.289Z</time></trkpt><trkpt lat="43.5219304" lon="12.9960292"><ele>249.0</ele><time>2026-04-18T11:29:40.288Z</time></trkpt><trkpt lat="43.5220449" lon="12.9961018"><ele>247.75</ele><time>2026-04-18T11:29:41.289Z</time></trkpt><trkpt lat="43.5221614" lon="12.9961746"><ele>246.5</ele><time>2026-04-18T11:29:42.289Z</time></trkpt><trkpt lat="43.5222787" lon="12.9962558"><ele>245.25</ele><time>2026-04-18T11:29:43.288Z</time></trkpt><trkpt lat="43.522396" lon="12.9963412"><ele>244.0</ele><time>2026-04-18T11:29:44.289Z</time></trkpt><trkpt lat="43.5225151" lon="12.9964291"><ele>244.0</ele><time>2026-04-18T11:29:45.288Z</time></trkpt><trkpt lat="43.5226348" lon="12.9965168"><ele>244.0</ele><time>2026-04-18T11:29:46.289Z</time></trkpt><trkpt lat="43.5227555" lon="12.996608"><ele>244.0</ele><time>2026-04-18T11:29:47.289Z</time></trkpt><trkpt lat="43.5228781" lon="12.9966988"><ele>244.0</ele><time>2026-04-18T11:29:48.288Z</time></trkpt><trkpt lat="43.5230021" lon="12.9967921"><ele>241.25</ele><time>2026-04-18T11:29:49.288Z</time></trkpt><trkpt lat="43.5231259" lon="12.9968906"><ele>238.5</ele><time>2026-04-18T11:29:50.288Z</time></trkpt><trkpt lat="43.523249" lon="12.996987"><ele>235.75</ele><time>2026-04-18T11:29:51.288Z</time></trkpt><trkpt lat="43.5233744" lon="12.9970696"><ele>233.0</ele><time>2026-04-18T11:29:52.288Z</time></trkpt><trkpt lat="43.5235035" lon="12.9971483"><ele>233.0</ele><time>2026-04-18T11:29:53.288Z</time></trkpt><trkpt lat="43.523626" lon="12.9972457"><ele>233.0</ele><time>2026-04-18T11:29:54.288Z</time></trkpt><trkpt lat="43.5237431" lon="12.9973568"><ele>233.0</ele><time>2026-04-18T11:29:55.288Z</time></trkpt><trkpt lat="43.5238571" lon="12.9974787"><ele>233.0</ele><time>2026-04-18T11:29:56.288Z</time></trkpt><trkpt lat="43.5239698" lon="12.9975984"><ele>230.25</ele><time>2026-04-18T11:29:57.288Z</time></trkpt><trkpt lat="43.5240797" lon="12.9977177"><ele>227.5</ele><time>2026-04-18T11:29:58.289Z</time></trkpt><trkpt lat="43.5241837" lon="12.9978504"><ele>224.75</ele><time>2026-04-18T11:29:59.289Z</time></trkpt><trkpt lat="43.524285" lon="12.9979897"><ele>222.0</ele><time>2026-04-18T11:30:00.289Z</time></trkpt><trkpt lat="43.5243852" lon="12.9981297"><ele>222.0</ele><time>2026-04-18T11:30:01.289Z</time></trkpt><trkpt lat="43.5244888" lon="12.9982744"><ele>222.0</ele><time>2026-04-18T11:30:02.288Z</time></trkpt><trkpt lat="43.524595" lon="12.998428"><ele>222.0</ele><time>2026-04-18T11:30:03.288Z</time></trkpt><trkpt lat="43.5247021" lon="12.9985872"><ele>220.75</ele><time>2026-04-18T11:30:04.288Z</time></trkpt><trkpt lat="43.5248116" lon="12.9987351"><ele>219.5</ele><time>2026-04-18T11:30:05.288Z</time></trkpt><trkpt lat="43.5249241" lon="12.9988609"><ele>218.25</ele><time>2026-04-18T11:30:06.288Z</time></trkpt><trkpt lat="43.525044" lon="12.9989726"><ele>217.0</ele><time>2026-04-18T11:30:07.288Z</time></trkpt><trkpt lat="43.5251742" lon="12.9990908"><ele>215.66666666666666</ele><time>2026-04-18T11:30:08.289Z</time></trkpt><trkpt lat="43.525302" lon="12.9992206"><ele>214.33333333333331</ele><time>2026-04-18T11:30:09.289Z</time></trkpt><trkpt lat="43.525417" lon="12.9993601"><ele>213.0</ele><time>2026-04-18T11:30:10.288Z</time></trkpt><trkpt lat="43.5255228" lon="12.9995113"><ele>213.0</ele><time>2026-04-18T11:30:11.289Z</time></trkpt><trkpt lat="43.5256301" lon="12.9996676"><ele>213.0</ele><time>2026-04-18T11:30:12.288Z</time></trkpt><trkpt lat="43.525742" lon="12.9998257"><ele>213.0</ele><time>2026-04-18T11:30:13.288Z</time></trkpt><trkpt lat="43.5258577" lon="12.9999833"><ele>213.0</ele><time>2026-04-18T11:30:14.288Z</time></trkpt><trkpt lat="43.5259711" lon="13.0001412"><ele>213.0</ele><time>2026-04-18T11:30:15.288Z</time></trkpt><trkpt lat="43.5260773" lon="13.0003025"><ele>213.0</ele><time>2026-04-18T11:30:16.288Z</time></trkpt><trkpt lat="43.5261728" lon="13.0004748"><ele>212.33333333333331</ele><time>2026-04-18T11:30:17.289Z</time></trkpt><trkpt lat="43.5262578" lon="13.0006592"><ele>211.66666666666666</ele><time>2026-04-18T11:30:18.288Z</time></trkpt><trkpt lat="43.526335" lon="13.0008496"><ele>211.0</ele><time>2026-04-18T11:30:19.288Z</time></trkpt><trkpt lat="43.5264132" lon="13.0010364"><ele>211.0</ele><time>2026-04-18T11:30:20.288Z</time></trkpt><trkpt lat="43.5264894" lon="13.0012131"><ele>211.0</ele><time>2026-04-18T11:30:21.288Z</time></trkpt><trkpt lat="43.5265711" lon="13.0013749"><ele>211.0</ele><time>2026-04-18T11:30:22.288Z</time></trkpt><trkpt lat="43.5266687" lon="13.0015345"><ele>211.0</ele><time>2026-04-18T11:30:23.288Z</time></trkpt><trkpt lat="43.5267779" lon="13.0016947"><ele>210.66666666666666</ele><time>2026-04-18T11:30:24.288Z</time></trkpt><trkpt lat="43.526879" lon="13.001865"><ele>210.33333333333331</ele><time>2026-04-18T11:30:25.289Z</time></trkpt><trkpt lat="43.5269699" lon="13.0020381"><ele>210.0</ele><time>2026-04-18T11:30:26.289Z</time></trkpt><trkpt lat="43.5270556" lon="13.0021992"><ele>209.25</ele><time>2026-04-18T11:30:27.288Z</time></trkpt><trkpt lat="43.5271375" lon="13.0023491"><ele>208.5</ele><time>2026-04-18T11:30:28.288Z</time></trkpt><trkpt lat="43.5272174" lon="13.0024986"><ele>207.75</ele><time>2026-04-18T11:30:29.289Z</time></trkpt><trkpt lat="43.5272981" lon="13.0026589"><ele>207.0</ele><time>2026-04-18T11:30:30.288Z</time></trkpt><trkpt lat="43.5273781" lon="13.0028095"><ele>207.0</ele><time>2026-04-18T11:30:31.288Z</time></trkpt><trkpt lat="43.5274568" lon="13.0029404"><ele>207.0</ele><time>2026-04-18T11:30:32.288Z</time></trkpt><trkpt lat="43.5275351" lon="13.0030627"><ele>207.0</ele><time>2026-04-18T11:30:33.288Z</time></trkpt><trkpt lat="43.5276131" lon="13.0031958"><ele>207.0</ele><time>2026-04-18T11:30:34.288Z</time></trkpt><trkpt lat="43.5276935" lon="13.0033375"><ele>205.75</ele><time>2026-04-18T11:30:35.288Z</time></trkpt><trkpt lat="43.5277779" lon="13.0034792"><ele>204.5</ele><time>2026-04-18T11:30:36.288Z</time></trkpt><trkpt lat="43.5278683" lon="13.0036241"><ele>203.25</ele><time>2026-04-18T11:30:37.288Z</time></trkpt><trkpt lat="43.5279665" lon="13.0037715"><ele>202.0</ele><time>2026-04-18T11:30:38.289Z</time></trkpt><trkpt lat="43.5280681" lon="13.003921"><ele>201.5</ele><time>2026-04-18T11:30:39.289Z</time></trkpt><trkpt lat="43.528165" lon="13.0040761"><ele>201.0</ele><time>2026-04-18T11:30:40.288Z</time></trkpt><trkpt lat="43.5282601" lon="13.0042345"><ele>200.5</ele><time>2026-04-18T11:30:41.288Z</time></trkpt><trkpt lat="43.5283472" lon="13.0043864"><ele>200.0</ele><time>2026-04-18T11:30:42.289Z</time></trkpt><trkpt lat="43.5284197" lon="13.0045476"><ele>200.0</ele><time>2026-04-18T11:30:43.288Z</time></trkpt><trkpt lat="43.528483" lon="13.0047167"><ele>200.0</ele><time>2026-04-18T11:30:44.289Z</time></trkpt><trkpt lat="43.5285453" lon="13.0048862"><ele>200.0</ele><time>2026-04-18T11:30:45.288Z</time></trkpt><trkpt lat="43.5286141" lon="13.0050597"><ele>200.0</ele><time>2026-04-18T11:30:46.288Z</time></trkpt><trkpt lat="43.5286882" lon="13.0052395"><ele>200.0</ele><time>2026-04-18T11:30:47.288Z</time></trkpt><trkpt lat="43.5287644" lon="13.005421"><ele>200.0</ele><time>2026-04-18T11:30:48.289Z</time></trkpt><trkpt lat="43.5288376" lon="13.0055946"><ele>200.0</ele><time>2026-04-18T11:30:49.289Z</time></trkpt><trkpt lat="43.5289052" lon="13.0057502"><ele>200.0</ele><time>2026-04-18T11:30:50.289Z</time></trkpt><trkpt lat="43.5289707" lon="13.0058956"><ele>200.0</ele><time>2026-04-18T11:30:51.288Z</time></trkpt><trkpt lat="43.529036" lon="13.0060402"><ele>200.0</ele><time>2026-04-18T11:30:52.288Z</time></trkpt><trkpt lat="43.5291039" lon="13.0061925"><ele>200.0</ele><time>2026-04-18T11:30:53.289Z</time></trkpt><trkpt lat="43.529179" lon="13.0063529"><ele>200.0</ele><time>2026-04-18T11:30:54.288Z</time></trkpt><trkpt lat="43.529258" lon="13.0065215"><ele>199.66666666666669</ele><time>2026-04-18T11:30:55.288Z</time></trkpt><trkpt lat="43.5293404" lon="13.0066968"><ele>199.33333333333331</ele><time>2026-04-18T11:30:56.289Z</time></trkpt><trkpt lat="43.5294214" lon="13.0068763"><ele>199.0</ele><time>2026-04-18T11:30:57.289Z</time></trkpt><trkpt lat="43.5294978" lon="13.0070589"><ele>197.0</ele><time>2026-04-18T11:30:58.288Z</time></trkpt><trkpt lat="43.5295698" lon="13.0072476"><ele>195.0</ele><time>2026-04-18T11:30:59.288Z</time></trkpt><trkpt lat="43.5296449" lon="13.0074361"><ele>193.0</ele><time>2026-04-18T11:31:00.288Z</time></trkpt><trkpt lat="43.5297163" lon="13.0076207"><ele>192.5</ele><time>2026-04-18T11:31:01.288Z</time></trkpt><trkpt lat="43.5297872" lon="13.0077949"><ele>192.0</ele><time>2026-04-18T11:31:02.288Z</time></trkpt><trkpt lat="43.5298576" lon="13.0079653"><ele>191.5</ele><time>2026-04-18T11:31:03.288Z</time></trkpt><trkpt lat="43.5299251" lon="13.0081306"><ele>191.0</ele><time>2026-04-18T11:31:04.288Z</time></trkpt><trkpt lat="43.5299913" lon="13.0082874"><ele>190.75</ele><time>2026-04-18T11:31:05.288Z</time></trkpt><trkpt lat="43.5300562" lon="13.0084372"><ele>190.5</ele><time>2026-04-18T11:31:06.288Z</time></trkpt><trkpt lat="43.530119" lon="13.0085894"><ele>190.25</ele><time>2026-04-18T11:31:07.288Z</time></trkpt><trkpt lat="43.5301744" lon="13.0087353"><ele>190.0</ele><time>2026-04-18T11:31:08.288Z</time></trkpt><trkpt lat="43.5302399" lon="13.0088646"><ele>190.0</ele><time>2026-04-18T11:31:09.288Z</time></trkpt><trkpt lat="43.5303309" lon="13.0089792"><ele>190.0</ele><time>2026-04-18T11:31:10.288Z</time></trkpt><trkpt lat="43.5304326" lon="13.0091028"><ele>190.0</ele><time>2026-04-18T11:31:11.288Z</time></trkpt><trkpt lat="43.5305277" lon="13.0092338"><ele>190.0</ele><time>2026-04-18T11:31:12.288Z</time></trkpt><trkpt lat="43.5306104" lon="13.0093616"><ele>188.5</ele><time>2026-04-18T11:31:13.288Z</time></trkpt><trkpt lat="43.5306883" lon="13.0094855"><ele>187.0</ele><time>2026-04-18T11:31:14.288Z</time></trkpt><trkpt lat="43.5307578" lon="13.0096184"><ele>185.5</ele><time>2026-04-18T11:31:15.288Z</time></trkpt><trkpt lat="43.530819" lon="13.0097695"><ele>184.0</ele><time>2026-04-18T11:31:16.289Z</time></trkpt><trkpt lat="43.5308713" lon="13.0099326"><ele>184.5</ele><time>2026-04-18T11:31:17.288Z</time></trkpt><trkpt lat="43.5309011" lon="13.010101"><ele>185.0</ele><time>2026-04-18T11:31:18.289Z</time></trkpt><trkpt lat="43.5309166" lon="13.0102819"><ele>185.5</ele><time>2026-04-18T11:31:19.288Z</time></trkpt><trkpt lat="43.530929" lon="13.0104691"><ele>186.0</ele><time>2026-04-18T11:31:20.288Z</time></trkpt><trkpt lat="43.5309393" lon="13.01066"><ele>186.0</ele><time>2026-04-18T11:31:21.288Z</time></trkpt><trkpt lat="43.5309574" lon="13.0108434"><ele>186.0</ele><time>2026-04-18T11:31:22.288Z</time></trkpt><trkpt lat="43.5309791" lon="13.0110079"><ele>186.0</ele><time>2026-04-18T11:31:23.288Z</time></trkpt><trkpt lat="43.5310142" lon="13.0111613"><ele>186.0</ele><time>2026-04-18T11:31:24.288Z</time></trkpt><trkpt lat="43.5310718" lon="13.0113111"><ele>186.0</ele><time>2026-04-18T11:31:25.288Z</time></trkpt><trkpt lat="43.531139" lon="13.0114514"><ele>186.0</ele><time>2026-04-18T11:31:26.288Z</time></trkpt><trkpt lat="43.5312122" lon="13.0115739"><ele>186.0</ele><time>2026-04-18T11:31:27.288Z</time></trkpt><trkpt lat="43.5312861" lon="13.0116863"><ele>186.0</ele><time>2026-04-18T11:31:28.288Z</time></trkpt><trkpt lat="43.5313601" lon="13.0117888"><ele>184.0</ele><time>2026-04-18T11:31:29.288Z</time></trkpt><trkpt lat="43.5314354" lon="13.0118947"><ele>182.0</ele><time>2026-04-18T11:31:30.289Z</time></trkpt><trkpt lat="43.5315077" lon="13.0120155"><ele>180.0</ele><time>2026-04-18T11:31:31.289Z</time></trkpt><trkpt lat="43.5315815" lon="13.0121498"><ele>178.0</ele><time>2026-04-18T11:31:32.288Z</time></trkpt><trkpt lat="43.5316592" lon="13.0122863"><ele>178.0</ele><time>2026-04-18T11:31:33.289Z</time></trkpt><trkpt lat="43.5317374" lon="13.012423"><ele>178.0</ele><time>2026-04-18T11:31:34.288Z</time></trkpt><trkpt lat="43.5318194" lon="13.0125626"><ele>178.0</ele><time>2026-04-18T11:31:35.288Z</time></trkpt><trkpt lat="43.5319131" lon="13.0127003"><ele>178.0</ele><time>2026-04-18T11:31:36.288Z</time></trkpt><trkpt lat="43.5320104" lon="13.0128386"><ele>175.25</ele><time>2026-04-18T11:31:37.288Z</time></trkpt><trkpt lat="43.5321092" lon="13.0129852"><ele>172.5</ele><time>2026-04-18T11:31:38.289Z</time></trkpt><trkpt lat="43.5322065" lon="13.0131296"><ele>169.75</ele><time>2026-04-18T11:31:39.288Z</time></trkpt><trkpt lat="43.5322994" lon="13.0132698"><ele>167.0</ele><time>2026-04-18T11:31:40.289Z</time></trkpt><trkpt lat="43.5323982" lon="13.0134093"><ele>166.75</ele><time>2026-04-18T11:31:41.289Z</time></trkpt><trkpt lat="43.5324949" lon="13.0135448"><ele>166.5</ele><time>2026-04-18T11:31:42.289Z</time></trkpt><trkpt lat="43.532583" lon="13.013676"><ele>166.25</ele><time>2026-04-18T11:31:43.288Z</time></trkpt><trkpt lat="43.5326668" lon="13.0137967"><ele>166.0</ele><time>2026-04-18T11:31:44.289Z</time></trkpt><trkpt lat="43.5327472" lon="13.013913"><ele>166.0</ele><time>2026-04-18T11:31:45.288Z</time></trkpt><trkpt lat="43.5328298" lon="13.0140321"><ele>166.0</ele><time>2026-04-18T11:31:46.289Z</time></trkpt><trkpt lat="43.5329224" lon="13.0141577"><ele>166.0</ele><time>2026-04-18T11:31:47.288Z</time></trkpt><trkpt lat="43.5330176" lon="13.0142802"><ele>166.0</ele><time>2026-04-18T11:31:48.289Z</time></trkpt><trkpt lat="43.5331129" lon="13.0144033"><ele>162.75</ele><time>2026-04-18T11:31:49.288Z</time></trkpt><trkpt lat="43.5332007" lon="13.0145345"><ele>159.5</ele><time>2026-04-18T11:31:50.289Z</time></trkpt><trkpt lat="43.5332793" lon="13.0146793"><ele>156.25</ele><time>2026-04-18T11:31:51.288Z</time></trkpt><trkpt lat="43.5333583" lon="13.0148357"><ele>153.0</ele><time>2026-04-18T11:31:52.289Z</time></trkpt><trkpt lat="43.5334484" lon="13.0149817"><ele>152.5</ele><time>2026-04-18T11:31:53.288Z</time></trkpt><trkpt lat="43.5335511" lon="13.0151209"><ele>152.0</ele><time>2026-04-18T11:31:54.288Z</time></trkpt><trkpt lat="43.533661" lon="13.0152577"><ele>151.5</ele><time>2026-04-18T11:31:55.289Z</time></trkpt><trkpt lat="43.5337757" lon="13.0153894"><ele>151.0</ele><time>2026-04-18T11:31:56.288Z</time></trkpt><trkpt lat="43.5338903" lon="13.015517"><ele>150.5</ele><time>2026-04-18T11:31:57.288Z</time></trkpt><trkpt lat="43.534005" lon="13.0156448"><ele>150.0</ele><time>2026-04-18T11:31:58.288Z</time></trkpt><trkpt lat="43.5341186" lon="13.015775"><ele>149.5</ele><time>2026-04-18T11:31:59.288Z</time></trkpt><trkpt lat="43.5342361" lon="13.0159087"><ele>149.0</ele><time>2026-04-18T11:32:00.289Z</time></trkpt><trkpt lat="43.5343534" lon="13.0160465"><ele>148.33333333333331</ele><time>2026-04-18T11:32:01.288Z</time></trkpt><trkpt lat="43.5344677" lon="13.0161948"><ele>147.66666666666666</ele><time>2026-04-18T11:32:02.289Z</time></trkpt><trkpt lat="43.5345817" lon="13.0163505"><ele>147.0</ele><time>2026-04-18T11:32:03.288Z</time></trkpt><trkpt lat="43.5346928" lon="13.016502"><ele>145.33333333333334</ele><time>2026-04-18T11:32:04.289Z</time></trkpt><trkpt lat="43.5347956" lon="13.0166484"><ele>143.66666666666669</ele><time>2026-04-18T11:32:05.288Z</time></trkpt><trkpt lat="43.5348964" lon="13.0168019"><ele>142.0</ele><time>2026-04-18T11:32:06.289Z</time></trkpt><trkpt lat="43.5349991" lon="13.0169572"><ele>142.0</ele><time>2026-04-18T11:32:07.289Z</time></trkpt><trkpt lat="43.5351031" lon="13.0171132"><ele>142.0</ele><time>2026-04-18T11:32:08.288Z</time></trkpt><trkpt lat="43.5352078" lon="13.0172744"><ele>142.0</ele><time>2026-04-18T11:32:09.288Z</time></trkpt><trkpt lat="43.5353081" lon="13.0174356"><ele>142.0</ele><time>2026-04-18T11:32:10.288Z</time></trkpt><trkpt lat="43.5353926" lon="13.017587"><ele>142.0</ele><time>2026-04-18T11:32:11.288Z</time></trkpt><trkpt lat="43.5354679" lon="13.0177465"><ele>142.0</ele><time>2026-04-18T11:32:12.289Z</time></trkpt><trkpt lat="43.5355378" lon="13.0179128"><ele>142.0</ele><time>2026-04-18T11:32:13.289Z</time></trkpt><trkpt lat="43.5355994" lon="13.0180756"><ele>142.0</ele><time>2026-04-18T11:32:14.289Z</time></trkpt><trkpt lat="43.5356571" lon="13.018236"><ele>142.0</ele><time>2026-04-18T11:32:15.288Z</time></trkpt><trkpt lat="43.5357083" lon="13.0183891"><ele>142.0</ele><time>2026-04-18T11:32:16.288Z</time></trkpt><trkpt lat="43.5357582" lon="13.0185335"><ele>142.0</ele><time>2026-04-18T11:32:17.288Z</time></trkpt><trkpt lat="43.5358037" lon="13.0186683"><ele>142.33333333333334</ele><time>2026-04-18T11:32:18.289Z</time></trkpt><trkpt lat="43.5358395" lon="13.018804"><ele>142.66666666666669</ele><time>2026-04-18T11:32:19.289Z</time></trkpt><trkpt lat="43.535853" lon="13.0189335"><ele>143.0</ele><time>2026-04-18T11:32:20.288Z</time></trkpt><trkpt lat="43.5358458" lon="13.0190557"><ele>143.33333333333334</ele><time>2026-04-18T11:32:21.288Z</time></trkpt><trkpt lat="43.535833" lon="13.0191726"><ele>143.66666666666666</ele><time>2026-04-18T11:32:22.289Z</time></trkpt><trkpt lat="43.5358278" lon="13.0192758"><ele>144.0</ele><time>2026-04-18T11:32:23.288Z</time></trkpt><trkpt lat="43.5358258" lon="13.0193673"><ele>143.2</ele><time>2026-04-18T11:32:24.288Z</time></trkpt><trkpt lat="43.5358173" lon="13.0194554"><ele>142.4</ele><time>2026-04-18T11:32:25.289Z</time></trkpt><trkpt lat="43.5357896" lon="13.0195615"><ele>141.6</ele><time>2026-04-18T11:32:26.288Z</time></trkpt><trkpt lat="43.5357371" lon="13.019684"><ele>140.8</ele><time>2026-04-18T11:32:27.289Z</time></trkpt><trkpt lat="43.5356668" lon="13.0198275"><ele>140.0</ele><time>2026-04-18T11:32:28.289Z</time></trkpt><trkpt lat="43.5355921" lon="13.0199905"><ele>140.25</ele><time>2026-04-18T11:32:29.288Z</time></trkpt><trkpt lat="43.5355173" lon="13.0201578"><ele>140.5</ele><time>2026-04-18T11:32:30.289Z</time></trkpt><trkpt lat="43.5354393" lon="13.0203154"><ele>140.75</ele><time>2026-04-18T11:32:31.289Z</time></trkpt><trkpt lat="43.5353594" lon="13.0204712"><ele>141.0</ele><time>2026-04-18T11:32:32.288Z</time></trkpt><trkpt lat="43.5352861" lon="13.020643"><ele>140.25</ele><time>2026-04-18T11:32:33.288Z</time></trkpt><trkpt lat="43.5352247" lon="13.0208314"><ele>139.5</ele><time>2026-04-18T11:32:34.289Z</time></trkpt><trkpt lat="43.5351816" lon="13.0210164"><ele>138.75</ele><time>2026-04-18T11:32:35.288Z</time></trkpt><trkpt lat="43.5351486" lon="13.021175"><ele>138.0</ele><time>2026-04-18T11:32:36.288Z</time></trkpt><trkpt lat="43.5351171" lon="13.0213178"><ele>138.0</ele><time>2026-04-18T11:32:37.288Z</time></trkpt><trkpt lat="43.5350822" lon="13.0214439"><ele>138.0</ele><time>2026-04-18T11:32:38.288Z</time></trkpt><trkpt lat="43.535049" lon="13.021542"><ele>138.0</ele><time>2026-04-18T11:32:39.288Z</time></trkpt><trkpt lat="43.5349921" lon="13.0216941"><ele>138.0</ele><time>2026-04-18T11:32:41.288Z</time></trkpt><trkpt lat="43.5349787" lon="13.0217998"><ele>138.0</ele><time>2026-04-18T11:32:42.289Z</time></trkpt><trkpt lat="43.5349954" lon="13.0219287"><ele>138.75</ele><time>2026-04-18T11:32:43.288Z</time></trkpt><trkpt lat="43.53504" lon="13.0220891"><ele>139.5</ele><time>2026-04-18T11:32:44.289Z</time></trkpt><trkpt lat="43.5350965" lon="13.0222899"><ele>140.25</ele><time>2026-04-18T11:32:45.288Z</time></trkpt><trkpt lat="43.5351451" lon="13.0225012"><ele>141.0</ele><time>2026-04-18T11:32:46.288Z</time></trkpt><trkpt lat="43.5351859" lon="13.0226933"><ele>141.0</ele><time>2026-04-18T11:32:47.288Z</time></trkpt><trkpt lat="43.5352319" lon="13.0228831"><ele>141.0</ele><time>2026-04-18T11:32:48.288Z</time></trkpt><trkpt lat="43.5352765" lon="13.0230813"><ele>141.0</ele><time>2026-04-18T11:32:49.288Z</time></trkpt><trkpt lat="43.5353209" lon="13.0233018"><ele>141.0</ele><time>2026-04-18T11:32:50.289Z</time></trkpt><trkpt lat="43.5353614" lon="13.0235226"><ele>141.0</ele><time>2026-04-18T11:32:51.288Z</time></trkpt><trkpt lat="43.5354005" lon="13.0237223"><ele>141.0</ele><time>2026-04-18T11:32:52.289Z</time></trkpt><trkpt lat="43.5354417" lon="13.0239106"><ele>141.0</ele><time>2026-04-18T11:32:53.289Z</time></trkpt><trkpt lat="43.5354776" lon="13.0240853"><ele>141.0</ele><time>2026-04-18T11:32:54.288Z</time></trkpt><trkpt lat="43.5355121" lon="13.0242468"><ele>141.0</ele><time>2026-04-18T11:32:55.289Z</time></trkpt><trkpt lat="43.5355419" lon="13.0243962"><ele>141.0</ele><time>2026-04-18T11:32:56.289Z</time></trkpt><trkpt lat="43.5355649" lon="13.0245374"><ele>140.6</ele><time>2026-04-18T11:32:57.289Z</time></trkpt><trkpt lat="43.5355907" lon="13.0246773"><ele>140.2</ele><time>2026-04-18T11:32:58.288Z</time></trkpt><trkpt lat="43.5356194" lon="13.0248184"><ele>139.8</ele><time>2026-04-18T11:32:59.288Z</time></trkpt><trkpt lat="43.5356513" lon="13.0249636"><ele>139.4</ele><time>2026-04-18T11:33:00.288Z</time></trkpt><trkpt lat="43.535696" lon="13.0251139"><ele>139.0</ele><time>2026-04-18T11:33:01.288Z</time></trkpt><trkpt lat="43.5357729" lon="13.0252672"><ele>138.33333333333334</ele><time>2026-04-18T11:33:02.288Z</time></trkpt><trkpt lat="43.5358796" lon="13.0254197"><ele>137.66666666666666</ele><time>2026-04-18T11:33:03.288Z</time></trkpt><trkpt lat="43.5359929" lon="13.025572"><ele>137.0</ele><time>2026-04-18T11:33:04.288Z</time></trkpt><trkpt lat="43.5360915" lon="13.0257223"><ele>136.33333333333331</ele><time>2026-04-18T11:33:05.288Z</time></trkpt><trkpt lat="43.5361926" lon="13.0258728"><ele>135.66666666666666</ele><time>2026-04-18T11:33:06.288Z</time></trkpt><trkpt lat="43.5362982" lon="13.0260203"><ele>135.0</ele><time>2026-04-18T11:33:07.288Z</time></trkpt><trkpt lat="43.5364247" lon="13.0261582"><ele>134.33333333333334</ele><time>2026-04-18T11:33:08.289Z</time></trkpt><trkpt lat="43.5365812" lon="13.02628"><ele>133.66666666666669</ele><time>2026-04-18T11:33:09.288Z</time></trkpt><trkpt lat="43.5367465" lon="13.0263872"><ele>133.0</ele><time>2026-04-18T11:33:10.288Z</time></trkpt><trkpt lat="43.5368998" lon="13.0265014"><ele>130.0</ele><time>2026-04-18T11:33:11.288Z</time></trkpt><trkpt lat="43.5370544" lon="13.0266182"><ele>127.0</ele><time>2026-04-18T11:33:12.288Z</time></trkpt><trkpt lat="43.5372061" lon="13.0267443"><ele>124.0</ele><time>2026-04-18T11:33:13.288Z</time></trkpt><trkpt lat="43.5373543" lon="13.0268677"><ele>124.0</ele><time>2026-04-18T11:33:14.288Z</time></trkpt><trkpt lat="43.537507" lon="13.0269972"><ele>124.0</ele><time>2026-04-18T11:33:15.289Z</time></trkpt><trkpt lat="43.5376488" lon="13.0271281"><ele>124.0</ele><time>2026-04-18T11:33:16.288Z</time></trkpt><trkpt lat="43.5377765" lon="13.0272515"><ele>124.33333333333334</ele><time>2026-04-18T11:33:17.288Z</time></trkpt><trkpt lat="43.5378952" lon="13.0273784"><ele>124.66666666666666</ele><time>2026-04-18T11:33:18.288Z</time></trkpt><trkpt lat="43.5380045" lon="13.0275177"><ele>125.0</ele><time>2026-04-18T11:33:19.289Z</time></trkpt><trkpt lat="43.5381096" lon="13.0276694"><ele>125.75</ele><time>2026-04-18T11:33:20.288Z</time></trkpt><trkpt lat="43.5382185" lon="13.0278153"><ele>126.5</ele><time>2026-04-18T11:33:21.289Z</time></trkpt><trkpt lat="43.5383345" lon="13.02793"><ele>127.25</ele><time>2026-04-18T11:33:22.289Z</time></trkpt><trkpt lat="43.538474" lon="13.0280225"><ele>128.0</ele><time>2026-04-18T11:33:23.288Z</time></trkpt><trkpt lat="43.5386311" lon="13.0280981"><ele>128.33333333333331</ele><time>2026-04-18T11:33:24.288Z</time></trkpt><trkpt lat="43.5387968" lon="13.0281765"><ele>128.66666666666666</ele><time>2026-04-18T11:33:25.288Z</time></trkpt><trkpt lat="43.5389411" lon="13.0282552"><ele>129.0</ele><time>2026-04-18T11:33:26.288Z</time></trkpt><trkpt lat="43.5390872" lon="13.0283394"><ele>130.25</ele><time>2026-04-18T11:33:27.289Z</time></trkpt><trkpt lat="43.5392157" lon="13.028429"><ele>131.5</ele><time>2026-04-18T11:33:28.288Z</time></trkpt><trkpt lat="43.5393306" lon="13.0285334"><ele>132.75</ele><time>2026-04-18T11:33:29.289Z</time></trkpt><trkpt lat="43.5394319" lon="13.0286651"><ele>134.0</ele><time>2026-04-18T11:33:30.288Z</time></trkpt><trkpt lat="43.5395022" lon="13.028813"><ele>133.66666666666666</ele><time>2026-04-18T11:33:31.288Z</time></trkpt><trkpt lat="43.5395711" lon="13.0289501"><ele>133.33333333333331</ele><time>2026-04-18T11:33:32.289Z</time></trkpt><trkpt lat="43.539565" lon="13.0290675"><ele>133.0</ele><time>2026-04-18T11:33:33.288Z</time></trkpt><trkpt lat="43.5395795" lon="13.0291784"><ele>132.66666666666666</ele><time>2026-04-18T11:33:34.288Z</time></trkpt><trkpt lat="43.5395884" lon="13.0292953"><ele>132.33333333333334</ele><time>2026-04-18T11:33:35.289Z</time></trkpt><trkpt lat="43.5396091" lon="13.0293964"><ele>132.0</ele><time>2026-04-18T11:33:36.288Z</time></trkpt><trkpt lat="43.539669" lon="13.0294531"><ele>132.0</ele><time>2026-04-18T11:33:37.289Z</time></trkpt><trkpt lat="43.5397537" lon="13.0294898"><ele>132.0</ele><time>2026-04-18T11:33:38.289Z</time></trkpt><trkpt lat="43.5398629" lon="13.0295263"><ele>132.0</ele><time>2026-04-18T11:33:39.289Z</time></trkpt><trkpt lat="43.539969" lon="13.029575"><ele>132.0</ele><time>2026-04-18T11:33:40.288Z</time></trkpt><trkpt lat="43.5400878" lon="13.029612"><ele>132.0</ele><time>2026-04-18T11:33:41.289Z</time></trkpt><trkpt lat="43.540211" lon="13.0296551"><ele>132.0</ele><time>2026-04-18T11:33:42.288Z</time></trkpt><trkpt lat="43.5403367" lon="13.0297004"><ele>132.0</ele><time>2026-04-18T11:33:43.288Z</time></trkpt><trkpt lat="43.5404669" lon="13.0297529"><ele>132.0</ele><time>2026-04-18T11:33:44.288Z</time></trkpt><trkpt lat="43.5406154" lon="13.0298122"><ele>132.0</ele><time>2026-04-18T11:33:45.288Z</time></trkpt><trkpt lat="43.5407682" lon="13.0298737"><ele>132.0</ele><time>2026-04-18T11:33:46.288Z</time></trkpt><trkpt lat="43.5409219" lon="13.0299403"><ele>132.0</ele><time>2026-04-18T11:33:47.289Z</time></trkpt><trkpt lat="43.5410751" lon="13.0300078"><ele>132.0</ele><time>2026-04-18T11:33:48.288Z</time></trkpt><trkpt lat="43.5412286" lon="13.0300713"><ele>131.75</ele><time>2026-04-18T11:33:49.289Z</time></trkpt><trkpt lat="43.5413766" lon="13.0301286"><ele>131.5</ele><time>2026-04-18T11:33:50.288Z</time></trkpt><trkpt lat="43.5415175" lon="13.0301797"><ele>131.25</ele><time>2026-04-18T11:33:51.289Z</time></trkpt><trkpt lat="43.5416481" lon="13.0302328"><ele>131.0</ele><time>2026-04-18T11:33:52.289Z</time></trkpt><trkpt lat="43.5417664" lon="13.030283"><ele>131.0</ele><time>2026-04-18T11:33:53.288Z</time></trkpt><trkpt lat="43.5418806" lon="13.0303368"><ele>131.0</ele><time>2026-04-18T11:33:54.289Z</time></trkpt><trkpt lat="43.5419902" lon="13.0303844"><ele>131.0</ele><time>2026-04-18T11:33:55.288Z</time></trkpt><trkpt lat="43.5420946" lon="13.0304252"><ele>131.0</ele><time>2026-04-18T11:33:56.289Z</time></trkpt><trkpt lat="43.5422059" lon="13.0304695"><ele>130.6</ele><time>2026-04-18T11:33:57.288Z</time></trkpt><trkpt lat="43.5423192" lon="13.0305164"><ele>130.2</ele><time>2026-04-18T11:33:58.289Z</time></trkpt><trkpt lat="43.5424251" lon="13.0305539"><ele>129.8</ele><time>2026-04-18T11:33:59.288Z</time></trkpt><trkpt lat="43.5425234" lon="13.0305903"><ele>129.4</ele><time>2026-04-18T11:34:00.288Z</time></trkpt><trkpt lat="43.5426132" lon="13.0306318"><ele>129.0</ele><time>2026-04-18T11:34:01.288Z</time></trkpt><trkpt lat="43.5426954" lon="13.0306707"><ele>129.0</ele><time>2026-04-18T11:34:02.289Z</time></trkpt><trkpt lat="43.5427724" lon="13.0307063"><ele>129.0</ele><time>2026-04-18T11:34:03.288Z</time></trkpt><trkpt lat="43.5428441" lon="13.0307357"><ele>129.0</ele><time>2026-04-18T11:34:04.288Z</time></trkpt><trkpt lat="43.5429049" lon="13.0307622"><ele>129.0</ele><time>2026-04-18T11:34:05.289Z</time></trkpt><trkpt lat="43.5429917" lon="13.0308134"><ele>129.0</ele><time>2026-04-18T11:34:07.289Z</time></trkpt><trkpt lat="43.5430656" lon="13.0308494"><ele>129.0</ele><time>2026-04-18T11:34:11.288Z</time></trkpt><trkpt lat="43.5431709" lon="13.030757"><ele>129.0</ele><time>2026-04-18T11:34:18.289Z</time></trkpt><trkpt lat="43.5432134" lon="13.0306427"><ele>129.0</ele><time>2026-04-18T11:34:19.288Z</time></trkpt><trkpt lat="43.5432437" lon="13.0305087"><ele>129.0</ele><time>2026-04-18T11:34:20.288Z</time></trkpt><trkpt lat="43.5432846" lon="13.0303644"><ele>129.0</ele><time>2026-04-18T11:34:21.289Z</time></trkpt><trkpt lat="43.5433303" lon="13.0302026"><ele>129.0</ele><time>2026-04-18T11:34:22.288Z</time></trkpt><trkpt lat="43.5433714" lon="13.0300369"><ele>128.25</ele><time>2026-04-18T11:34:23.288Z</time></trkpt><trkpt lat="43.5434171" lon="13.0298544"><ele>127.5</ele><time>2026-04-18T11:34:24.289Z</time></trkpt><trkpt lat="43.5434697" lon="13.0296608"><ele>126.75</ele><time>2026-04-18T11:34:25.289Z</time></trkpt><trkpt lat="43.5435262" lon="13.0294567"><ele>126.0</ele><time>2026-04-18T11:34:26.289Z</time></trkpt><trkpt lat="43.5435795" lon="13.0292472"><ele>125.33333333333334</ele><time>2026-04-18T11:34:27.288Z</time></trkpt><trkpt lat="43.5436359" lon="13.0290373"><ele>124.66666666666667</ele><time>2026-04-18T11:34:28.288Z</time></trkpt><trkpt lat="43.5436955" lon="13.0288216"><ele>124.0</ele><time>2026-04-18T11:34:29.289Z</time></trkpt><trkpt lat="43.543755" lon="13.028591"><ele>122.66666666666667</ele><time>2026-04-18T11:34:30.288Z</time></trkpt><trkpt lat="43.5438137" lon="13.0283729"><ele>121.33333333333334</ele><time>2026-04-18T11:34:31.288Z</time></trkpt><trkpt lat="43.5438702" lon="13.0281516"><ele>120.0</ele><time>2026-04-18T11:34:32.289Z</time></trkpt><trkpt lat="43.5439263" lon="13.0279297"><ele>120.0</ele><time>2026-04-18T11:34:33.288Z</time></trkpt><trkpt lat="43.5439865" lon="13.0277104"><ele>120.0</ele><time>2026-04-18T11:34:34.289Z</time></trkpt><trkpt lat="43.5440429" lon="13.0274905"><ele>120.0</ele><time>2026-04-18T11:34:35.288Z</time></trkpt><trkpt lat="43.5440981" lon="13.0272734"><ele>120.33333333333334</ele><time>2026-04-18T11:34:36.289Z</time></trkpt><trkpt lat="43.5441538" lon="13.027053"><ele>120.66666666666667</ele><time>2026-04-18T11:34:37.288Z</time></trkpt><trkpt lat="43.5442133" lon="13.0268357"><ele>121.0</ele><time>2026-04-18T11:34:38.288Z</time></trkpt><trkpt lat="43.5442737" lon="13.0266189"><ele>121.0</ele><time>2026-04-18T11:34:39.288Z</time></trkpt><trkpt lat="43.5443313" lon="13.026397"><ele>121.0</ele><time>2026-04-18T11:34:40.289Z</time></trkpt><trkpt lat="43.5443904" lon="13.0261751"><ele>121.0</ele><time>2026-04-18T11:34:41.288Z</time></trkpt><trkpt lat="43.5444543" lon="13.0259423"><ele>121.0</ele><time>2026-04-18T11:34:42.288Z</time></trkpt><trkpt lat="43.5445216" lon="13.0257085"><ele>121.0</ele><time>2026-04-18T11:34:43.288Z</time></trkpt><trkpt lat="43.5445834" lon="13.0254777"><ele>121.0</ele><time>2026-04-18T11:34:44.289Z</time></trkpt><trkpt lat="43.5446443" lon="13.0252438"><ele>121.33333333333334</ele><time>2026-04-18T11:34:45.288Z</time></trkpt><trkpt lat="43.5447043" lon="13.0250336"><ele>121.66666666666666</ele><time>2026-04-18T11:34:46.289Z</time></trkpt><trkpt lat="43.5447601" lon="13.0248246"><ele>122.0</ele><time>2026-04-18T11:34:47.288Z</time></trkpt><trkpt lat="43.544806" lon="13.0246358"><ele>122.5</ele><time>2026-04-18T11:34:48.288Z</time></trkpt><trkpt lat="43.544858" lon="13.0244535"><ele>123.0</ele><time>2026-04-18T11:34:49.288Z</time></trkpt><trkpt lat="43.5449072" lon="13.0242681"><ele>123.5</ele><time>2026-04-18T11:34:50.289Z</time></trkpt><trkpt lat="43.5449555" lon="13.024084"><ele>124.0</ele><time>2026-04-18T11:34:51.288Z</time></trkpt><trkpt lat="43.545" lon="13.0238976"><ele>124.75</ele><time>2026-04-18T11:34:52.289Z</time></trkpt><trkpt lat="43.5450439" lon="13.0237155"><ele>125.5</ele><time>2026-04-18T11:34:53.288Z</time></trkpt><trkpt lat="43.5450886" lon="13.023548"><ele>126.25</ele><time>2026-04-18T11:34:54.289Z</time></trkpt><trkpt lat="43.5451291" lon="13.0233933"><ele>127.0</ele><time>2026-04-18T11:34:55.288Z</time></trkpt><trkpt lat="43.5451641" lon="13.0232491"><ele>127.66666666666667</ele><time>2026-04-18T11:34:56.288Z</time></trkpt><trkpt lat="43.5452004" lon="13.0231221"><ele>128.33333333333334</ele><time>2026-04-18T11:34:57.288Z</time></trkpt><trkpt lat="43.5452354" lon="13.0230114"><ele>129.0</ele><time>2026-04-18T11:34:58.289Z</time></trkpt><trkpt lat="43.545265" lon="13.0229094"><ele>129.66666666666666</ele><time>2026-04-18T11:34:59.289Z</time></trkpt><trkpt lat="43.5452909" lon="13.0228222"><ele>130.33333333333331</ele><time>2026-04-18T11:35:00.288Z</time></trkpt><trkpt lat="43.5453312" lon="13.0226794"><ele>131.0</ele><time>2026-04-18T11:35:02.289Z</time></trkpt><trkpt lat="43.5453459" lon="13.0225772"><ele>131.0</ele><time>2026-04-18T11:35:04.289Z</time></trkpt><trkpt lat="43.54527" lon="13.0224902"><ele>131.0</ele><time>2026-04-18T11:35:06.289Z</time></trkpt><trkpt lat="43.5452003" lon="13.0224734"><ele>131.0</ele><time>2026-04-18T11:35:07.288Z</time></trkpt><trkpt lat="43.5451332" lon="13.02246"><ele>131.0</ele><time>2026-04-18T11:35:08.289Z</time></trkpt><trkpt lat="43.5450607" lon="13.0224434"><ele>131.0</ele><time>2026-04-18T11:35:09.288Z</time></trkpt><trkpt lat="43.5449815" lon="13.0224324"><ele>131.0</ele><time>2026-04-18T11:35:10.288Z</time></trkpt><trkpt lat="43.5448937" lon="13.0224154"><ele>131.25</ele><time>2026-04-18T11:35:11.288Z</time></trkpt><trkpt lat="43.5448011" lon="13.0223975"><ele>131.5</ele><time>2026-04-18T11:35:12.288Z</time></trkpt><trkpt lat="43.544701" lon="13.0223725"><ele>131.75</ele><time>2026-04-18T11:35:13.288Z</time></trkpt><trkpt lat="43.5445801" lon="13.0223441"><ele>132.0</ele><time>2026-04-18T11:35:14.289Z</time></trkpt><trkpt lat="43.5444394" lon="13.0223115"><ele>132.5</ele><time>2026-04-18T11:35:15.288Z</time></trkpt><trkpt lat="43.5443068" lon="13.0222742"><ele>133.0</ele><time>2026-04-18T11:35:16.288Z</time></trkpt><trkpt lat="43.5441716" lon="13.0222355"><ele>133.5</ele><time>2026-04-18T11:35:17.289Z</time></trkpt><trkpt lat="43.5440288" lon="13.0222001"><ele>134.0</ele><time>2026-04-18T11:35:18.288Z</time></trkpt><trkpt lat="43.5438819" lon="13.0221632"><ele>134.0</ele><time>2026-04-18T11:35:19.288Z</time></trkpt><trkpt lat="43.5437337" lon="13.0221227"><ele>134.0</ele><time>2026-04-18T11:35:20.289Z</time></trkpt><trkpt lat="43.5435935" lon="13.0220882"><ele>134.0</ele><time>2026-04-18T11:35:21.288Z</time></trkpt><trkpt lat="43.5434575" lon="13.022054"><ele>134.0</ele><time>2026-04-18T11:35:22.288Z</time></trkpt><trkpt lat="43.5433164" lon="13.0220197"><ele>134.0</ele><time>2026-04-18T11:35:23.288Z</time></trkpt><trkpt lat="43.5431895" lon="13.0219888"><ele>134.0</ele><time>2026-04-18T11:35:24.288Z</time></trkpt><trkpt lat="43.5430692" lon="13.0219501"><ele>134.0</ele><time>2026-04-18T11:35:25.289Z</time></trkpt><trkpt lat="43.5429447" lon="13.0219051"><ele>134.0</ele><time>2026-04-18T11:35:26.288Z</time></trkpt><trkpt lat="43.5428159" lon="13.0218447"><ele>135.0</ele><time>2026-04-18T11:35:27.289Z</time></trkpt><trkpt lat="43.5426916" lon="13.0217612"><ele>136.0</ele><time>2026-04-18T11:35:28.289Z</time></trkpt><trkpt lat="43.5425736" lon="13.0216515"><ele>137.0</ele><time>2026-04-18T11:35:29.288Z</time></trkpt><trkpt lat="43.5424768" lon="13.0215226"><ele>138.0</ele><time>2026-04-18T11:35:30.289Z</time></trkpt><trkpt lat="43.5423963" lon="13.0213947"><ele>138.0</ele><time>2026-04-18T11:35:31.288Z</time></trkpt><trkpt lat="43.5423249" lon="13.0212763"><ele>138.0</ele><time>2026-04-18T11:35:32.288Z</time></trkpt><trkpt lat="43.5422567" lon="13.0211591"><ele>138.0</ele><time>2026-04-18T11:35:33.289Z</time></trkpt><trkpt lat="43.5421921" lon="13.0210559"><ele>138.0</ele><time>2026-04-18T11:35:34.288Z</time></trkpt><trkpt lat="43.5421319" lon="13.0209516"><ele>138.0</ele><time>2026-04-18T11:35:35.288Z</time></trkpt><trkpt lat="43.5420779" lon="13.0208305"><ele>137.8</ele><time>2026-04-18T11:35:36.288Z</time></trkpt><trkpt lat="43.5420215" lon="13.020697"><ele>137.60000000000002</ele><time>2026-04-18T11:35:37.288Z</time></trkpt><trkpt lat="43.5419616" lon="13.0205752"><ele>137.39999999999998</ele><time>2026-04-18T11:35:38.288Z</time></trkpt><trkpt lat="43.5419031" lon="13.0204664"><ele>137.2</ele><time>2026-04-18T11:35:39.288Z</time></trkpt><trkpt lat="43.5418412" lon="13.020346"><ele>137.0</ele><time>2026-04-18T11:35:40.289Z</time></trkpt><trkpt lat="43.5417717" lon="13.0202153"><ele>137.0</ele><time>2026-04-18T11:35:41.288Z</time></trkpt><trkpt lat="43.5417006" lon="13.0200811"><ele>137.0</ele><time>2026-04-18T11:35:42.288Z</time></trkpt><trkpt lat="43.5416282" lon="13.0199478"><ele>137.0</ele><time>2026-04-18T11:35:43.288Z</time></trkpt><trkpt lat="43.5415551" lon="13.0198032"><ele>137.0</ele><time>2026-04-18T11:35:44.289Z</time></trkpt><trkpt lat="43.5414884" lon="13.0196505"><ele>137.5</ele><time>2026-04-18T11:35:45.288Z</time></trkpt><trkpt lat="43.5414219" lon="13.019494"><ele>138.0</ele><time>2026-04-18T11:35:46.289Z</time></trkpt><trkpt lat="43.5413521" lon="13.0193386"><ele>138.5</ele><time>2026-04-18T11:35:47.288Z</time></trkpt><trkpt lat="43.5412809" lon="13.0191758"><ele>139.0</ele><time>2026-04-18T11:35:48.288Z</time></trkpt><trkpt lat="43.5412108" lon="13.0190095"><ele>139.5</ele><time>2026-04-18T11:35:49.289Z</time></trkpt><trkpt lat="43.5411378" lon="13.0188448"><ele>140.0</ele><time>2026-04-18T11:35:50.288Z</time></trkpt><trkpt lat="43.5410641" lon="13.0186792"><ele>140.5</ele><time>2026-04-18T11:35:51.288Z</time></trkpt><trkpt lat="43.5409942" lon="13.0185099"><ele>141.0</ele><time>2026-04-18T11:35:52.288Z</time></trkpt><trkpt lat="43.5409223" lon="13.0183391"><ele>143.0</ele><time>2026-04-18T11:35:53.289Z</time></trkpt><trkpt lat="43.5408477" lon="13.0181754"><ele>145.0</ele><time>2026-04-18T11:35:54.289Z</time></trkpt><trkpt lat="43.5407773" lon="13.0180078"><ele>147.0</ele><time>2026-04-18T11:35:55.288Z</time></trkpt><trkpt lat="43.5407078" lon="13.0178367"><ele>149.0</ele><time>2026-04-18T11:35:56.288Z</time></trkpt><trkpt lat="43.5406394" lon="13.0176696"><ele>149.0</ele><time>2026-04-18T11:35:57.289Z</time></trkpt><trkpt lat="43.54057" lon="13.0175028"><ele>149.0</ele><time>2026-04-18T11:35:58.288Z</time></trkpt><trkpt lat="43.5405101" lon="13.0173273"><ele>149.0</ele><time>2026-04-18T11:35:59.288Z</time></trkpt><trkpt lat="43.5404467" lon="13.0171527"><ele>149.0</ele><time>2026-04-18T11:36:00.289Z</time></trkpt><trkpt lat="43.5403908" lon="13.016978"><ele>149.0</ele><time>2026-04-18T11:36:01.288Z</time></trkpt><trkpt lat="43.5403314" lon="13.0168"><ele>149.0</ele><time>2026-04-18T11:36:02.288Z</time></trkpt><trkpt lat="43.5402747" lon="13.0166164"><ele>149.0</ele><time>2026-04-18T11:36:03.288Z</time></trkpt><trkpt lat="43.5402132" lon="13.0164276"><ele>149.0</ele><time>2026-04-18T11:36:04.288Z</time></trkpt><trkpt lat="43.5401574" lon="13.01624"><ele>149.0</ele><time>2026-04-18T11:36:05.289Z</time></trkpt><trkpt lat="43.5401054" lon="13.0160711"><ele>149.0</ele><time>2026-04-18T11:36:06.288Z</time></trkpt><trkpt lat="43.5400555" lon="13.015923"><ele>149.0</ele><time>2026-04-18T11:36:07.289Z</time></trkpt><trkpt lat="43.5400054" lon="13.0157866"><ele>149.0</ele><time>2026-04-18T11:36:08.289Z</time></trkpt><trkpt lat="43.5399621" lon="13.0156472"><ele>149.75</ele><time>2026-04-18T11:36:09.289Z</time></trkpt><trkpt lat="43.5399135" lon="13.0155048"><ele>150.5</ele><time>2026-04-18T11:36:10.288Z</time></trkpt><trkpt lat="43.5398644" lon="13.0153603"><ele>151.25</ele><time>2026-04-18T11:36:11.288Z</time></trkpt><trkpt lat="43.5398118" lon="13.0152153"><ele>152.0</ele><time>2026-04-18T11:36:12.289Z</time></trkpt><trkpt lat="43.5397568" lon="13.0150697"><ele>152.75</ele><time>2026-04-18T11:36:13.289Z</time></trkpt><trkpt lat="43.5396975" lon="13.0149154"><ele>153.5</ele><time>2026-04-18T11:36:14.289Z</time></trkpt><trkpt lat="43.5396298" lon="13.0147543"><ele>154.25</ele><time>2026-04-18T11:36:15.288Z</time></trkpt><trkpt lat="43.5395602" lon="13.0146011"><ele>155.0</ele><time>2026-04-18T11:36:16.288Z</time></trkpt><trkpt lat="43.539506" lon="13.0144856"><ele>154.8</ele><time>2026-04-18T11:36:17.288Z</time></trkpt><trkpt lat="43.5394656" lon="13.0144017"><ele>154.6</ele><time>2026-04-18T11:36:18.288Z</time></trkpt><trkpt lat="43.5393985" lon="13.0142723"><ele>154.4</ele><time>2026-04-18T11:36:20.288Z</time></trkpt><trkpt lat="43.5393337" lon="13.0141454"><ele>154.2</ele><time>2026-04-18T11:36:22.289Z</time></trkpt><trkpt lat="43.5392728" lon="13.0140656"><ele>154.0</ele><time>2026-04-18T11:36:24.289Z</time></trkpt><trkpt lat="43.5391987" lon="13.0141024"><ele>153.28571428571428</ele><time>2026-04-18T11:36:26.288Z</time></trkpt><trkpt lat="43.539133" lon="13.0141637"><ele>152.57142857142856</ele><time>2026-04-18T11:36:28.289Z</time></trkpt><trkpt lat="43.5390714" lon="13.0141929"><ele>151.85714285714286</ele><time>2026-04-18T11:36:30.288Z</time></trkpt><trkpt lat="43.5389787" lon="13.0142236"><ele>151.14285714285714</ele><time>2026-04-18T11:36:33.288Z</time></trkpt><trkpt lat="43.5389082" lon="13.0142264"><ele>150.42857142857142</ele><time>2026-04-18T11:36:35.292Z</time></trkpt><trkpt lat="43.5388459" lon="13.0142412"><ele>149.71428571428572</ele><time>2026-04-18T11:36:37.302Z</time></trkpt><trkpt lat="43.5387772" lon="13.0142744"><ele>149.0</ele><time>2026-04-18T11:36:40.251Z</time></trkpt><trkpt lat="43.5387019" lon="13.0142672"><ele>149.0</ele><time>2026-04-18T11:36:57.288Z</time></trkpt><trkpt lat="43.5386876" lon="13.0143689"><ele>149.0</ele><time>2026-04-18T11:37:37.288Z</time></trkpt><trkpt lat="43.5386453" lon="13.0144443"><ele>149.0</ele><time>2026-04-18T11:37:41.288Z</time></trkpt><trkpt lat="43.5385808" lon="13.014489"><ele>149.0</ele><time>2026-04-18T11:37:45.288Z</time></trkpt><trkpt lat="43.5385217" lon="13.0145336"><ele>149.0</ele><time>2026-04-18T11:37:48.289Z</time></trkpt><trkpt lat="43.5384892" lon="13.0146149"><ele>149.0</ele><time>2026-04-18T11:37:56.288Z</time></trkpt><trkpt lat="43.5384259" lon="13.0145894"><ele>149.0</ele><time>2026-04-18T11:38:02.288Z</time></trkpt></trkseg></trk></gpx>